<?xml version="1.0" encoding="UTF-8" standalone="no" ?>
<gpx xmlns="http://www.topografix.com/GPX/1/1" xmlns:xsi="http://www.w3.org/2001/XMLSchema-instance" xsi:schemaLocation="http://www.topografix.com/GPX/1/1 http://www.topografix.com/GPX/1/1/gpx.xsd" version="1.1" creator="VisuGPX - https://www.visugpx.com">
  <metadata>
    <name>1000 DU SUD 2022_J2</name>
    <desc><![CDATA[Guillaumes-Bourg d'Oisans]]></desc>
  </metadata>
  <trk>
    <name><![CDATA[1000 DU SUD 2022_J2_1]]></name>
    <trkseg>
      <trkpt lat="44.08979" lon="6.85347">
        <ele>793</ele>
        <time>2021-12-28T22:36:29Z</time>
      </trkpt>
      <trkpt lat="44.08986" lon="6.85341">
        <ele>792</ele>
        <time>2021-12-28T22:36:31Z</time>
      </trkpt>
      <trkpt lat="44.09032" lon="6.85328">
        <ele>793</ele>
        <time>2021-12-28T22:36:39Z</time>
      </trkpt>
      <trkpt lat="44.091" lon="6.8529">
        <ele>794</ele>
        <time>2021-12-28T22:36:52Z</time>
      </trkpt>
      <trkpt lat="44.09247" lon="6.85219">
        <ele>795</ele>
        <time>2021-12-28T22:37:20Z</time>
      </trkpt>
      <trkpt lat="44.09256" lon="6.85217">
        <ele>796</ele>
        <time>2021-12-28T22:37:21Z</time>
      </trkpt>
      <trkpt lat="44.09265" lon="6.85219">
        <ele>797</ele>
        <time>2021-12-28T22:37:23Z</time>
      </trkpt>
      <trkpt lat="44.09287" lon="6.85235">
        <ele>800</ele>
        <time>2021-12-28T22:37:27Z</time>
      </trkpt>
      <trkpt lat="44.093" lon="6.85242">
        <ele>803</ele>
        <time>2021-12-28T22:37:30Z</time>
      </trkpt>
      <trkpt lat="44.09313" lon="6.85248">
        <ele>805</ele>
        <time>2021-12-28T22:37:32Z</time>
      </trkpt>
      <trkpt lat="44.09331" lon="6.85251">
        <ele>808</ele>
        <time>2021-12-28T22:37:36Z</time>
      </trkpt>
      <trkpt lat="44.09376" lon="6.85244">
        <ele>817</ele>
        <time>2021-12-28T22:37:44Z</time>
      </trkpt>
      <trkpt lat="44.09395" lon="6.85244">
        <ele>821</ele>
        <time>2021-12-28T22:37:47Z</time>
      </trkpt>
      <trkpt lat="44.09432" lon="6.85238">
        <ele>832</ele>
        <time>2021-12-28T22:37:54Z</time>
      </trkpt>
      <trkpt lat="44.09455" lon="6.85222">
        <ele>835</ele>
        <time>2021-12-28T22:37:58Z</time>
      </trkpt>
      <trkpt lat="44.09476" lon="6.85214">
        <ele>839</ele>
        <time>2021-12-28T22:38:02Z</time>
      </trkpt>
      <trkpt lat="44.09508" lon="6.85194">
        <ele>838</ele>
        <time>2021-12-28T22:38:08Z</time>
      </trkpt>
      <trkpt lat="44.09544" lon="6.85161">
        <ele>832</ele>
        <time>2021-12-28T22:38:16Z</time>
      </trkpt>
      <trkpt lat="44.09573" lon="6.85138">
        <ele>832</ele>
        <time>2021-12-28T22:38:22Z</time>
      </trkpt>
      <trkpt lat="44.096" lon="6.85115">
        <ele>824</ele>
        <time>2021-12-28T22:38:27Z</time>
      </trkpt>
      <trkpt lat="44.09648" lon="6.85067">
        <ele>814</ele>
        <time>2021-12-28T22:38:38Z</time>
      </trkpt>
      <trkpt lat="44.09658" lon="6.85047">
        <ele>812</ele>
        <time>2021-12-28T22:38:41Z</time>
      </trkpt>
      <trkpt lat="44.09667" lon="6.85033">
        <ele>810</ele>
        <time>2021-12-28T22:38:44Z</time>
      </trkpt>
      <trkpt lat="44.09698" lon="6.84999">
        <ele>809</ele>
        <time>2021-12-28T22:38:51Z</time>
      </trkpt>
      <trkpt lat="44.09747" lon="6.84966">
        <ele>813</ele>
        <time>2021-12-28T22:39:00Z</time>
      </trkpt>
      <trkpt lat="44.09832" lon="6.84924">
        <ele>817</ele>
        <time>2021-12-28T22:39:16Z</time>
      </trkpt>
      <trkpt lat="44.09876" lon="6.84923">
        <ele>826</ele>
        <time>2021-12-28T22:39:24Z</time>
      </trkpt>
      <trkpt lat="44.09886" lon="6.84921">
        <ele>827</ele>
        <time>2021-12-28T22:39:26Z</time>
      </trkpt>
      <trkpt lat="44.099" lon="6.8491">
        <ele>825</ele>
        <time>2021-12-28T22:39:29Z</time>
      </trkpt>
      <trkpt lat="44.09918" lon="6.84903">
        <ele>827</ele>
        <time>2021-12-28T22:39:32Z</time>
      </trkpt>
      <trkpt lat="44.09994" lon="6.84885">
        <ele>838</ele>
        <time>2021-12-28T22:39:46Z</time>
      </trkpt>
      <trkpt lat="44.10019" lon="6.84883">
        <ele>839</ele>
        <time>2021-12-28T22:39:50Z</time>
      </trkpt>
      <trkpt lat="44.1003" lon="6.84875">
        <ele>835</ele>
        <time>2021-12-28T22:39:52Z</time>
      </trkpt>
      <trkpt lat="44.10049" lon="6.84854">
        <ele>825</ele>
        <time>2021-12-28T22:39:57Z</time>
      </trkpt>
      <trkpt lat="44.1007" lon="6.84845">
        <ele>822</ele>
        <time>2021-12-28T22:40:01Z</time>
      </trkpt>
      <trkpt lat="44.10078" lon="6.84843">
        <ele>821</ele>
        <time>2021-12-28T22:40:02Z</time>
      </trkpt>
      <trkpt lat="44.10089" lon="6.84846">
        <ele>823</ele>
        <time>2021-12-28T22:40:04Z</time>
      </trkpt>
      <trkpt lat="44.10111" lon="6.8486">
        <ele>829</ele>
        <time>2021-12-28T22:40:08Z</time>
      </trkpt>
      <trkpt lat="44.10133" lon="6.84878">
        <ele>835</ele>
        <time>2021-12-28T22:40:13Z</time>
      </trkpt>
      <trkpt lat="44.10213" lon="6.84915">
        <ele>841</ele>
        <time>2021-12-28T22:40:28Z</time>
      </trkpt>
      <trkpt lat="44.1024" lon="6.84918">
        <ele>841</ele>
        <time>2021-12-28T22:40:33Z</time>
      </trkpt>
      <trkpt lat="44.10271" lon="6.84925">
        <ele>843</ele>
        <time>2021-12-28T22:40:38Z</time>
      </trkpt>
      <trkpt lat="44.10359" lon="6.8494">
        <ele>850</ele>
        <time>2021-12-28T22:40:54Z</time>
      </trkpt>
      <trkpt lat="44.10381" lon="6.84942">
        <ele>854</ele>
        <time>2021-12-28T22:40:58Z</time>
      </trkpt>
      <trkpt lat="44.10393" lon="6.8493">
        <ele>855</ele>
        <time>2021-12-28T22:41:01Z</time>
      </trkpt>
      <trkpt lat="44.10395" lon="6.84922">
        <ele>854</ele>
        <time>2021-12-28T22:41:02Z</time>
      </trkpt>
      <trkpt lat="44.10405" lon="6.84869">
        <ele>850</ele>
        <time>2021-12-28T22:41:09Z</time>
      </trkpt>
      <trkpt lat="44.10409" lon="6.84856">
        <ele>849</ele>
        <time>2021-12-28T22:41:11Z</time>
      </trkpt>
      <trkpt lat="44.10422" lon="6.84838">
        <ele>851</ele>
        <time>2021-12-28T22:41:14Z</time>
      </trkpt>
      <trkpt lat="44.1044" lon="6.84821">
        <ele>855</ele>
        <time>2021-12-28T22:41:18Z</time>
      </trkpt>
      <trkpt lat="44.10463" lon="6.84781">
        <ele>854</ele>
        <time>2021-12-28T22:41:24Z</time>
      </trkpt>
      <trkpt lat="44.10486" lon="6.84754">
        <ele>855</ele>
        <time>2021-12-28T22:41:30Z</time>
      </trkpt>
      <trkpt lat="44.10525" lon="6.84693">
        <ele>855</ele>
        <time>2021-12-28T22:41:40Z</time>
      </trkpt>
      <trkpt lat="44.10556" lon="6.84652">
        <ele>856</ele>
        <time>2021-12-28T22:41:48Z</time>
      </trkpt>
      <trkpt lat="44.106" lon="6.84611">
        <ele>865</ele>
        <time>2021-12-28T22:41:57Z</time>
      </trkpt>
      <trkpt lat="44.10611" lon="6.84588">
        <ele>867</ele>
        <time>2021-12-28T22:42:01Z</time>
      </trkpt>
      <trkpt lat="44.10636" lon="6.84514">
        <ele>860</ele>
        <time>2021-12-28T22:42:11Z</time>
      </trkpt>
      <trkpt lat="44.10649" lon="6.84447">
        <ele>856</ele>
        <time>2021-12-28T22:42:20Z</time>
      </trkpt>
      <trkpt lat="44.10652" lon="6.84438">
        <ele>856</ele>
        <time>2021-12-28T22:42:21Z</time>
      </trkpt>
      <trkpt lat="44.10665" lon="6.84427">
        <ele>860</ele>
        <time>2021-12-28T22:42:24Z</time>
      </trkpt>
      <trkpt lat="44.10669" lon="6.8442">
        <ele>861</ele>
        <time>2021-12-28T22:42:25Z</time>
      </trkpt>
      <trkpt lat="44.10671" lon="6.8441">
        <ele>862</ele>
        <time>2021-12-28T22:42:26Z</time>
      </trkpt>
      <trkpt lat="44.10671" lon="6.84399">
        <ele>861</ele>
        <time>2021-12-28T22:42:28Z</time>
      </trkpt>
      <trkpt lat="44.10664" lon="6.84365">
        <ele>857</ele>
        <time>2021-12-28T22:42:32Z</time>
      </trkpt>
      <trkpt lat="44.10664" lon="6.84353">
        <ele>856</ele>
        <time>2021-12-28T22:42:34Z</time>
      </trkpt>
      <trkpt lat="44.10666" lon="6.84341">
        <ele>856</ele>
        <time>2021-12-28T22:42:35Z</time>
      </trkpt>
      <trkpt lat="44.10692" lon="6.84272">
        <ele>864</ele>
        <time>2021-12-28T22:42:45Z</time>
      </trkpt>
      <trkpt lat="44.10714" lon="6.84201">
        <ele>869</ele>
        <time>2021-12-28T22:42:55Z</time>
      </trkpt>
      <trkpt lat="44.10717" lon="6.84187">
        <ele>869</ele>
        <time>2021-12-28T22:42:57Z</time>
      </trkpt>
      <trkpt lat="44.10721" lon="6.84146">
        <ele>867</ele>
        <time>2021-12-28T22:43:02Z</time>
      </trkpt>
      <trkpt lat="44.10728" lon="6.84122">
        <ele>867</ele>
        <time>2021-12-28T22:43:06Z</time>
      </trkpt>
      <trkpt lat="44.10752" lon="6.8407">
        <ele>870</ele>
        <time>2021-12-28T22:43:14Z</time>
      </trkpt>
      <trkpt lat="44.10778" lon="6.84005">
        <ele>873</ele>
        <time>2021-12-28T22:43:23Z</time>
      </trkpt>
      <trkpt lat="44.10784" lon="6.83981">
        <ele>873</ele>
        <time>2021-12-28T22:43:26Z</time>
      </trkpt>
      <trkpt lat="44.10784" lon="6.83957">
        <ele>871</ele>
        <time>2021-12-28T22:43:29Z</time>
      </trkpt>
      <trkpt lat="44.10786" lon="6.83944">
        <ele>870</ele>
        <time>2021-12-28T22:43:31Z</time>
      </trkpt>
      <trkpt lat="44.10803" lon="6.83897">
        <ele>869</ele>
        <time>2021-12-28T22:43:38Z</time>
      </trkpt>
      <trkpt lat="44.10806" lon="6.83876">
        <ele>867</ele>
        <time>2021-12-28T22:43:41Z</time>
      </trkpt>
      <trkpt lat="44.10813" lon="6.83855">
        <ele>865</ele>
        <time>2021-12-28T22:43:44Z</time>
      </trkpt>
      <trkpt lat="44.10819" lon="6.83844">
        <ele>864</ele>
        <time>2021-12-28T22:43:45Z</time>
      </trkpt>
      <trkpt lat="44.10827" lon="6.83835">
        <ele>864</ele>
        <time>2021-12-28T22:43:47Z</time>
      </trkpt>
      <trkpt lat="44.10856" lon="6.83808">
        <ele>867</ele>
        <time>2021-12-28T22:43:53Z</time>
      </trkpt>
      <trkpt lat="44.10866" lon="6.83801">
        <ele>868</ele>
        <time>2021-12-28T22:43:55Z</time>
      </trkpt>
      <trkpt lat="44.10888" lon="6.83789">
        <ele>870</ele>
        <time>2021-12-28T22:44:00Z</time>
      </trkpt>
      <trkpt lat="44.10924" lon="6.83777">
        <ele>874</ele>
        <time>2021-12-28T22:44:06Z</time>
      </trkpt>
      <trkpt lat="44.10947" lon="6.83766">
        <ele>874</ele>
        <time>2021-12-28T22:44:10Z</time>
      </trkpt>
      <trkpt lat="44.11009" lon="6.83725">
        <ele>872</ele>
        <time>2021-12-28T22:44:23Z</time>
      </trkpt>
      <trkpt lat="44.11033" lon="6.83711">
        <ele>870</ele>
        <time>2021-12-28T22:44:27Z</time>
      </trkpt>
      <trkpt lat="44.11082" lon="6.83696">
        <ele>870</ele>
        <time>2021-12-28T22:44:36Z</time>
      </trkpt>
      <trkpt lat="44.11141" lon="6.83695">
        <ele>876</ele>
        <time>2021-12-28T22:44:47Z</time>
      </trkpt>
      <trkpt lat="44.11193" lon="6.83681">
        <ele>876</ele>
        <time>2021-12-28T22:44:56Z</time>
      </trkpt>
      <trkpt lat="44.11203" lon="6.83676">
        <ele>875</ele>
        <time>2021-12-28T22:44:58Z</time>
      </trkpt>
      <trkpt lat="44.11208" lon="6.8367">
        <ele>873</ele>
        <time>2021-12-28T22:44:59Z</time>
      </trkpt>
      <trkpt lat="44.11215" lon="6.83649">
        <ele>872</ele>
        <time>2021-12-28T22:45:02Z</time>
      </trkpt>
      <trkpt lat="44.1122" lon="6.83569">
        <ele>874</ele>
        <time>2021-12-28T22:45:12Z</time>
      </trkpt>
      <trkpt lat="44.11219" lon="6.83561">
        <ele>876</ele>
        <time>2021-12-28T22:45:13Z</time>
      </trkpt>
      <trkpt lat="44.1121" lon="6.83541">
        <ele>880</ele>
        <time>2021-12-28T22:45:16Z</time>
      </trkpt>
      <trkpt lat="44.11195" lon="6.8352">
        <ele>882</ele>
        <time>2021-12-28T22:45:20Z</time>
      </trkpt>
      <trkpt lat="44.11148" lon="6.83467">
        <ele>890</ele>
        <time>2021-12-28T22:45:31Z</time>
      </trkpt>
      <trkpt lat="44.111" lon="6.83424">
        <ele>889</ele>
        <time>2021-12-28T22:45:41Z</time>
      </trkpt>
      <trkpt lat="44.11088" lon="6.83416">
        <ele>886</ele>
        <time>2021-12-28T22:45:44Z</time>
      </trkpt>
      <trkpt lat="44.11077" lon="6.83412">
        <ele>886</ele>
        <time>2021-12-28T22:45:46Z</time>
      </trkpt>
      <trkpt lat="44.11001" lon="6.83399">
        <ele>883</ele>
        <time>2021-12-28T22:45:59Z</time>
      </trkpt>
      <trkpt lat="44.10989" lon="6.83394">
        <ele>883</ele>
        <time>2021-12-28T22:46:01Z</time>
      </trkpt>
      <trkpt lat="44.10948" lon="6.83366">
        <ele>884</ele>
        <time>2021-12-28T22:46:10Z</time>
      </trkpt>
      <trkpt lat="44.10934" lon="6.83354">
        <ele>884</ele>
        <time>2021-12-28T22:46:12Z</time>
      </trkpt>
      <trkpt lat="44.10926" lon="6.83343">
        <ele>884</ele>
        <time>2021-12-28T22:46:14Z</time>
      </trkpt>
      <trkpt lat="44.10912" lon="6.8332">
        <ele>885</ele>
        <time>2021-12-28T22:46:18Z</time>
      </trkpt>
      <trkpt lat="44.10903" lon="6.83293">
        <ele>886</ele>
        <time>2021-12-28T22:46:22Z</time>
      </trkpt>
      <trkpt lat="44.10891" lon="6.83222">
        <ele>889</ele>
        <time>2021-12-28T22:46:31Z</time>
      </trkpt>
      <trkpt lat="44.10883" lon="6.83159">
        <ele>887</ele>
        <time>2021-12-28T22:46:40Z</time>
      </trkpt>
      <trkpt lat="44.10881" lon="6.83119">
        <ele>886</ele>
        <time>2021-12-28T22:46:45Z</time>
      </trkpt>
      <trkpt lat="44.10893" lon="6.83004">
        <ele>906</ele>
        <time>2021-12-28T22:47:00Z</time>
      </trkpt>
      <trkpt lat="44.10889" lon="6.8297">
        <ele>904</ele>
        <time>2021-12-28T22:47:04Z</time>
      </trkpt>
      <trkpt lat="44.10881" lon="6.8294">
        <ele>898</ele>
        <time>2021-12-28T22:47:08Z</time>
      </trkpt>
      <trkpt lat="44.10879" lon="6.82925">
        <ele>897</ele>
        <time>2021-12-28T22:47:10Z</time>
      </trkpt>
      <trkpt lat="44.10879" lon="6.8289">
        <ele>898</ele>
        <time>2021-12-28T22:47:14Z</time>
      </trkpt>
      <trkpt lat="44.10887" lon="6.82797">
        <ele>898</ele>
        <time>2021-12-28T22:47:26Z</time>
      </trkpt>
      <trkpt lat="44.10891" lon="6.82765">
        <ele>893</ele>
        <time>2021-12-28T22:47:31Z</time>
      </trkpt>
      <trkpt lat="44.10895" lon="6.8275">
        <ele>892</ele>
        <time>2021-12-28T22:47:33Z</time>
      </trkpt>
      <trkpt lat="44.10921" lon="6.82673">
        <ele>895</ele>
        <time>2021-12-28T22:47:44Z</time>
      </trkpt>
      <trkpt lat="44.10923" lon="6.82656">
        <ele>896</ele>
        <time>2021-12-28T22:47:46Z</time>
      </trkpt>
      <trkpt lat="44.1092" lon="6.82639">
        <ele>895</ele>
        <time>2021-12-28T22:47:48Z</time>
      </trkpt>
      <trkpt lat="44.10911" lon="6.82604">
        <ele>893</ele>
        <time>2021-12-28T22:47:53Z</time>
      </trkpt>
      <trkpt lat="44.10909" lon="6.82582">
        <ele>893</ele>
        <time>2021-12-28T22:47:56Z</time>
      </trkpt>
      <trkpt lat="44.1091" lon="6.8247">
        <ele>897</ele>
        <time>2021-12-28T22:48:10Z</time>
      </trkpt>
      <trkpt lat="44.10912" lon="6.82441">
        <ele>894</ele>
        <time>2021-12-28T22:48:14Z</time>
      </trkpt>
      <trkpt lat="44.10924" lon="6.82372">
        <ele>886</ele>
        <time>2021-12-28T22:48:23Z</time>
      </trkpt>
      <trkpt lat="44.10934" lon="6.82342">
        <ele>885</ele>
        <time>2021-12-28T22:48:27Z</time>
      </trkpt>
      <trkpt lat="44.10971" lon="6.82295">
        <ele>892</ele>
        <time>2021-12-28T22:48:36Z</time>
      </trkpt>
      <trkpt lat="44.10983" lon="6.82285">
        <ele>893</ele>
        <time>2021-12-28T22:48:38Z</time>
      </trkpt>
      <trkpt lat="44.11006" lon="6.82271">
        <ele>895</ele>
        <time>2021-12-28T22:48:43Z</time>
      </trkpt>
      <trkpt lat="44.11014" lon="6.82261">
        <ele>894</ele>
        <time>2021-12-28T22:48:45Z</time>
      </trkpt>
      <trkpt lat="44.11028" lon="6.82219">
        <ele>890</ele>
        <time>2021-12-28T22:48:51Z</time>
      </trkpt>
      <trkpt lat="44.1104" lon="6.8219">
        <ele>889</ele>
        <time>2021-12-28T22:48:55Z</time>
      </trkpt>
      <trkpt lat="44.1105" lon="6.82151">
        <ele>885</ele>
        <time>2021-12-28T22:49:00Z</time>
      </trkpt>
      <trkpt lat="44.11059" lon="6.8213">
        <ele>884</ele>
        <time>2021-12-28T22:49:03Z</time>
      </trkpt>
      <trkpt lat="44.1109" lon="6.82083">
        <ele>879</ele>
        <time>2021-12-28T22:49:11Z</time>
      </trkpt>
      <trkpt lat="44.11099" lon="6.82072">
        <ele>879</ele>
        <time>2021-12-28T22:49:14Z</time>
      </trkpt>
      <trkpt lat="44.11109" lon="6.82063">
        <ele>879</ele>
        <time>2021-12-28T22:49:16Z</time>
      </trkpt>
      <trkpt lat="44.11143" lon="6.82045">
        <ele>881</ele>
        <time>2021-12-28T22:49:22Z</time>
      </trkpt>
      <trkpt lat="44.1118" lon="6.82033">
        <ele>884</ele>
        <time>2021-12-28T22:49:29Z</time>
      </trkpt>
      <trkpt lat="44.11197" lon="6.82018">
        <ele>882</ele>
        <time>2021-12-28T22:49:32Z</time>
      </trkpt>
      <trkpt lat="44.11202" lon="6.82006">
        <ele>880</ele>
        <time>2021-12-28T22:49:34Z</time>
      </trkpt>
      <trkpt lat="44.11204" lon="6.81992">
        <ele>878</ele>
        <time>2021-12-28T22:49:36Z</time>
      </trkpt>
      <trkpt lat="44.11203" lon="6.81977">
        <ele>878</ele>
        <time>2021-12-28T22:49:38Z</time>
      </trkpt>
      <trkpt lat="44.11201" lon="6.81969">
        <ele>878</ele>
        <time>2021-12-28T22:49:39Z</time>
      </trkpt>
      <trkpt lat="44.11191" lon="6.8195">
        <ele>875</ele>
        <time>2021-12-28T22:49:42Z</time>
      </trkpt>
      <trkpt lat="44.11187" lon="6.81938">
        <ele>874</ele>
        <time>2021-12-28T22:49:44Z</time>
      </trkpt>
      <trkpt lat="44.11187" lon="6.81924">
        <ele>873</ele>
        <time>2021-12-28T22:49:46Z</time>
      </trkpt>
      <trkpt lat="44.11194" lon="6.81899">
        <ele>873</ele>
        <time>2021-12-28T22:49:49Z</time>
      </trkpt>
      <trkpt lat="44.11199" lon="6.81887">
        <ele>874</ele>
        <time>2021-12-28T22:49:51Z</time>
      </trkpt>
      <trkpt lat="44.11215" lon="6.81864">
        <ele>876</ele>
        <time>2021-12-28T22:49:55Z</time>
      </trkpt>
      <trkpt lat="44.1127" lon="6.81799">
        <ele>880</ele>
        <time>2021-12-28T22:50:08Z</time>
      </trkpt>
      <trkpt lat="44.11285" lon="6.81779">
        <ele>879</ele>
        <time>2021-12-28T22:50:11Z</time>
      </trkpt>
      <trkpt lat="44.11349" lon="6.81673">
        <ele>876</ele>
        <time>2021-12-28T22:50:29Z</time>
      </trkpt>
      <trkpt lat="44.11362" lon="6.81639">
        <ele>875</ele>
        <time>2021-12-28T22:50:34Z</time>
      </trkpt>
      <trkpt lat="44.11367" lon="6.81621">
        <ele>875</ele>
        <time>2021-12-28T22:50:36Z</time>
      </trkpt>
      <trkpt lat="44.1138" lon="6.81568">
        <ele>875</ele>
        <time>2021-12-28T22:50:44Z</time>
      </trkpt>
      <trkpt lat="44.11398" lon="6.81494">
        <ele>878</ele>
        <time>2021-12-28T22:50:54Z</time>
      </trkpt>
      <trkpt lat="44.11434" lon="6.81376">
        <ele>878</ele>
        <time>2021-12-28T22:51:10Z</time>
      </trkpt>
      <trkpt lat="44.1145" lon="6.81316">
        <ele>878</ele>
        <time>2021-12-28T22:51:18Z</time>
      </trkpt>
      <trkpt lat="44.11485" lon="6.81174">
        <ele>886</ele>
        <time>2021-12-28T22:51:37Z</time>
      </trkpt>
      <trkpt lat="44.11498" lon="6.81111">
        <ele>893</ele>
        <time>2021-12-28T22:51:46Z</time>
      </trkpt>
      <trkpt lat="44.11502" lon="6.81084">
        <ele>896</ele>
        <time>2021-12-28T22:51:49Z</time>
      </trkpt>
      <trkpt lat="44.11513" lon="6.8095">
        <ele>899</ele>
        <time>2021-12-28T22:52:06Z</time>
      </trkpt>
      <trkpt lat="44.11517" lon="6.80927">
        <ele>899</ele>
        <time>2021-12-28T22:52:09Z</time>
      </trkpt>
      <trkpt lat="44.11524" lon="6.80907">
        <ele>900</ele>
        <time>2021-12-28T22:52:12Z</time>
      </trkpt>
      <trkpt lat="44.11556" lon="6.80855">
        <ele>903</ele>
        <time>2021-12-28T22:52:21Z</time>
      </trkpt>
      <trkpt lat="44.11566" lon="6.80835">
        <ele>904</ele>
        <time>2021-12-28T22:52:24Z</time>
      </trkpt>
      <trkpt lat="44.11574" lon="6.80814">
        <ele>904</ele>
        <time>2021-12-28T22:52:27Z</time>
      </trkpt>
      <trkpt lat="44.1158" lon="6.80791">
        <ele>904</ele>
        <time>2021-12-28T22:52:30Z</time>
      </trkpt>
      <trkpt lat="44.11594" lon="6.80721">
        <ele>901</ele>
        <time>2021-12-28T22:52:40Z</time>
      </trkpt>
      <trkpt lat="44.11638" lon="6.80599">
        <ele>902</ele>
        <time>2021-12-28T22:52:57Z</time>
      </trkpt>
      <trkpt lat="44.11647" lon="6.80582">
        <ele>902</ele>
        <time>2021-12-28T22:53:00Z</time>
      </trkpt>
      <trkpt lat="44.1167" lon="6.80553">
        <ele>905</ele>
        <time>2021-12-28T22:53:05Z</time>
      </trkpt>
      <trkpt lat="44.11679" lon="6.80537">
        <ele>906</ele>
        <time>2021-12-28T22:53:08Z</time>
      </trkpt>
      <trkpt lat="44.11704" lon="6.80485">
        <ele>908</ele>
        <time>2021-12-28T22:53:16Z</time>
      </trkpt>
      <trkpt lat="44.11725" lon="6.80458">
        <ele>910</ele>
        <time>2021-12-28T22:53:21Z</time>
      </trkpt>
      <trkpt lat="44.11737" lon="6.80445">
        <ele>910</ele>
        <time>2021-12-28T22:53:24Z</time>
      </trkpt>
      <trkpt lat="44.11762" lon="6.80425">
        <ele>910</ele>
        <time>2021-12-28T22:53:29Z</time>
      </trkpt>
      <trkpt lat="44.11776" lon="6.80418">
        <ele>911</ele>
        <time>2021-12-28T22:53:31Z</time>
      </trkpt>
      <trkpt lat="44.1182" lon="6.80405">
        <ele>916</ele>
        <time>2021-12-28T22:53:39Z</time>
      </trkpt>
      <trkpt lat="44.11833" lon="6.80399">
        <ele>917</ele>
        <time>2021-12-28T22:53:42Z</time>
      </trkpt>
      <trkpt lat="44.11844" lon="6.80391">
        <ele>917</ele>
        <time>2021-12-28T22:53:44Z</time>
      </trkpt>
      <trkpt lat="44.11853" lon="6.80379">
        <ele>916</ele>
        <time>2021-12-28T22:53:46Z</time>
      </trkpt>
      <trkpt lat="44.1186" lon="6.80364">
        <ele>915</ele>
        <time>2021-12-28T22:53:49Z</time>
      </trkpt>
      <trkpt lat="44.11862" lon="6.80347">
        <ele>913</ele>
        <time>2021-12-28T22:53:51Z</time>
      </trkpt>
      <trkpt lat="44.11862" lon="6.8033">
        <ele>912</ele>
        <time>2021-12-28T22:53:53Z</time>
      </trkpt>
      <trkpt lat="44.11858" lon="6.80314">
        <ele>915</ele>
        <time>2021-12-28T22:53:55Z</time>
      </trkpt>
      <trkpt lat="44.1185" lon="6.803">
        <ele>917</ele>
        <time>2021-12-28T22:53:57Z</time>
      </trkpt>
      <trkpt lat="44.11841" lon="6.80289">
        <ele>918</ele>
        <time>2021-12-28T22:54:00Z</time>
      </trkpt>
      <trkpt lat="44.11795" lon="6.80258">
        <ele>918</ele>
        <time>2021-12-28T22:54:09Z</time>
      </trkpt>
      <trkpt lat="44.11787" lon="6.80248">
        <ele>918</ele>
        <time>2021-12-28T22:54:11Z</time>
      </trkpt>
      <trkpt lat="44.11782" lon="6.80235">
        <ele>919</ele>
        <time>2021-12-28T22:54:12Z</time>
      </trkpt>
      <trkpt lat="44.1178" lon="6.80221">
        <ele>920</ele>
        <time>2021-12-28T22:54:14Z</time>
      </trkpt>
      <trkpt lat="44.11781" lon="6.80207">
        <ele>921</ele>
        <time>2021-12-28T22:54:16Z</time>
      </trkpt>
      <trkpt lat="44.11789" lon="6.80176">
        <ele>925</ele>
        <time>2021-12-28T22:54:20Z</time>
      </trkpt>
      <trkpt lat="44.11819" lon="6.80119">
        <ele>930</ele>
        <time>2021-12-28T22:54:29Z</time>
      </trkpt>
      <trkpt lat="44.11825" lon="6.80105">
        <ele>930</ele>
        <time>2021-12-28T22:54:31Z</time>
      </trkpt>
      <trkpt lat="44.11827" lon="6.8009">
        <ele>930</ele>
        <time>2021-12-28T22:54:33Z</time>
      </trkpt>
      <trkpt lat="44.11827" lon="6.80074">
        <ele>930</ele>
        <time>2021-12-28T22:54:35Z</time>
      </trkpt>
      <trkpt lat="44.11812" lon="6.80014">
        <ele>930</ele>
        <time>2021-12-28T22:54:43Z</time>
      </trkpt>
      <trkpt lat="44.1181" lon="6.79976">
        <ele>931</ele>
        <time>2021-12-28T22:54:48Z</time>
      </trkpt>
      <trkpt lat="44.11819" lon="6.7989">
        <ele>933</ele>
        <time>2021-12-28T22:54:59Z</time>
      </trkpt>
      <trkpt lat="44.1183" lon="6.79844">
        <ele>935</ele>
        <time>2021-12-28T22:55:06Z</time>
      </trkpt>
      <trkpt lat="44.11841" lon="6.79807">
        <ele>936</ele>
        <time>2021-12-28T22:55:11Z</time>
      </trkpt>
      <trkpt lat="44.11859" lon="6.79765">
        <ele>937</ele>
        <time>2021-12-28T22:55:17Z</time>
      </trkpt>
      <trkpt lat="44.11871" lon="6.79747">
        <ele>938</ele>
        <time>2021-12-28T22:55:20Z</time>
      </trkpt>
      <trkpt lat="44.11991" lon="6.79596">
        <ele>949</ele>
        <time>2021-12-28T22:55:49Z</time>
      </trkpt>
      <trkpt lat="44.12003" lon="6.79576">
        <ele>950</ele>
        <time>2021-12-28T22:55:52Z</time>
      </trkpt>
      <trkpt lat="44.1203" lon="6.79525">
        <ele>949</ele>
        <time>2021-12-28T22:56:00Z</time>
      </trkpt>
      <trkpt lat="44.12073" lon="6.79471">
        <ele>948</ele>
        <time>2021-12-28T22:56:11Z</time>
      </trkpt>
      <trkpt lat="44.12141" lon="6.79355">
        <ele>951</ele>
        <time>2021-12-28T22:56:30Z</time>
      </trkpt>
      <trkpt lat="44.12158" lon="6.79329">
        <ele>950</ele>
        <time>2021-12-28T22:56:34Z</time>
      </trkpt>
      <trkpt lat="44.12198" lon="6.79284">
        <ele>954</ele>
        <time>2021-12-28T22:56:43Z</time>
      </trkpt>
      <trkpt lat="44.12206" lon="6.79272">
        <ele>955</ele>
        <time>2021-12-28T22:56:46Z</time>
      </trkpt>
      <trkpt lat="44.12212" lon="6.79258">
        <ele>954</ele>
        <time>2021-12-28T22:56:48Z</time>
      </trkpt>
      <trkpt lat="44.12215" lon="6.79243">
        <ele>953</ele>
        <time>2021-12-28T22:56:50Z</time>
      </trkpt>
      <trkpt lat="44.12213" lon="6.79192">
        <ele>949</ele>
        <time>2021-12-28T22:56:56Z</time>
      </trkpt>
      <trkpt lat="44.12216" lon="6.79175">
        <ele>948</ele>
        <time>2021-12-28T22:56:58Z</time>
      </trkpt>
      <trkpt lat="44.12221" lon="6.7916">
        <ele>948</ele>
        <time>2021-12-28T22:57:00Z</time>
      </trkpt>
      <trkpt lat="44.12247" lon="6.79125">
        <ele>949</ele>
        <time>2021-12-28T22:57:07Z</time>
      </trkpt>
      <trkpt lat="44.12254" lon="6.79112">
        <ele>948</ele>
        <time>2021-12-28T22:57:09Z</time>
      </trkpt>
      <trkpt lat="44.12258" lon="6.79097">
        <ele>947</ele>
        <time>2021-12-28T22:57:11Z</time>
      </trkpt>
      <trkpt lat="44.12268" lon="6.79024">
        <ele>946</ele>
        <time>2021-12-28T22:57:20Z</time>
      </trkpt>
      <trkpt lat="44.12273" lon="6.79007">
        <ele>948</ele>
        <time>2021-12-28T22:57:23Z</time>
      </trkpt>
      <trkpt lat="44.12295" lon="6.78957">
        <ele>954</ele>
        <time>2021-12-28T22:57:30Z</time>
      </trkpt>
      <trkpt lat="44.123" lon="6.78942">
        <ele>956</ele>
        <time>2021-12-28T22:57:32Z</time>
      </trkpt>
      <trkpt lat="44.12303" lon="6.78927">
        <ele>957</ele>
        <time>2021-12-28T22:57:34Z</time>
      </trkpt>
      <trkpt lat="44.12303" lon="6.78911">
        <ele>957</ele>
        <time>2021-12-28T22:57:36Z</time>
      </trkpt>
      <trkpt lat="44.123" lon="6.78896">
        <ele>957</ele>
        <time>2021-12-28T22:57:38Z</time>
      </trkpt>
      <trkpt lat="44.12288" lon="6.78866">
        <ele>954</ele>
        <time>2021-12-28T22:57:43Z</time>
      </trkpt>
      <trkpt lat="44.12283" lon="6.7885">
        <ele>953</ele>
        <time>2021-12-28T22:57:45Z</time>
      </trkpt>
      <trkpt lat="44.12281" lon="6.78832">
        <ele>953</ele>
        <time>2021-12-28T22:57:47Z</time>
      </trkpt>
      <trkpt lat="44.12281" lon="6.78796">
        <ele>949</ele>
        <time>2021-12-28T22:57:52Z</time>
      </trkpt>
      <trkpt lat="44.12284" lon="6.7878">
        <ele>948</ele>
        <time>2021-12-28T22:57:54Z</time>
      </trkpt>
      <trkpt lat="44.12289" lon="6.78765">
        <ele>947</ele>
        <time>2021-12-28T22:57:56Z</time>
      </trkpt>
      <trkpt lat="44.12297" lon="6.78753">
        <ele>947</ele>
        <time>2021-12-28T22:57:58Z</time>
      </trkpt>
      <trkpt lat="44.12306" lon="6.78745">
        <ele>947</ele>
        <time>2021-12-28T22:58:00Z</time>
      </trkpt>
      <trkpt lat="44.12353" lon="6.78725">
        <ele>952</ele>
        <time>2021-12-28T22:58:09Z</time>
      </trkpt>
      <trkpt lat="44.12362" lon="6.78715">
        <ele>953</ele>
        <time>2021-12-28T22:58:11Z</time>
      </trkpt>
      <trkpt lat="44.12368" lon="6.78703">
        <ele>952</ele>
        <time>2021-12-28T22:58:13Z</time>
      </trkpt>
      <trkpt lat="44.12371" lon="6.78688">
        <ele>951</ele>
        <time>2021-12-28T22:58:15Z</time>
      </trkpt>
      <trkpt lat="44.12378" lon="6.78638">
        <ele>950</ele>
        <time>2021-12-28T22:58:21Z</time>
      </trkpt>
      <trkpt lat="44.12382" lon="6.78601">
        <ele>950</ele>
        <time>2021-12-28T22:58:26Z</time>
      </trkpt>
      <trkpt lat="44.12382" lon="6.78565">
        <ele>949</ele>
        <time>2021-12-28T22:58:31Z</time>
      </trkpt>
      <trkpt lat="44.12385" lon="6.78549">
        <ele>949</ele>
        <time>2021-12-28T22:58:33Z</time>
      </trkpt>
      <trkpt lat="44.12397" lon="6.7852">
        <ele>950</ele>
        <time>2021-12-28T22:58:37Z</time>
      </trkpt>
      <trkpt lat="44.12423" lon="6.78476">
        <ele>952</ele>
        <time>2021-12-28T22:58:44Z</time>
      </trkpt>
      <trkpt lat="44.12433" lon="6.78463">
        <ele>952</ele>
        <time>2021-12-28T22:58:47Z</time>
      </trkpt>
      <trkpt lat="44.12445" lon="6.78454">
        <ele>953</ele>
        <time>2021-12-28T22:58:49Z</time>
      </trkpt>
      <trkpt lat="44.12458" lon="6.78449">
        <ele>955</ele>
        <time>2021-12-28T22:58:52Z</time>
      </trkpt>
      <trkpt lat="44.12483" lon="6.78442">
        <ele>958</ele>
        <time>2021-12-28T22:58:56Z</time>
      </trkpt>
      <trkpt lat="44.12495" lon="6.78437">
        <ele>960</ele>
        <time>2021-12-28T22:58:58Z</time>
      </trkpt>
      <trkpt lat="44.12504" lon="6.78428">
        <ele>960</ele>
        <time>2021-12-28T22:59:00Z</time>
      </trkpt>
      <trkpt lat="44.12511" lon="6.78415">
        <ele>960</ele>
        <time>2021-12-28T22:59:02Z</time>
      </trkpt>
      <trkpt lat="44.12517" lon="6.784">
        <ele>961</ele>
        <time>2021-12-28T22:59:05Z</time>
      </trkpt>
      <trkpt lat="44.12526" lon="6.78369">
        <ele>961</ele>
        <time>2021-12-28T22:59:09Z</time>
      </trkpt>
      <trkpt lat="44.12532" lon="6.78354">
        <ele>961</ele>
        <time>2021-12-28T22:59:11Z</time>
      </trkpt>
      <trkpt lat="44.12541" lon="6.78341">
        <ele>963</ele>
        <time>2021-12-28T22:59:13Z</time>
      </trkpt>
      <trkpt lat="44.12572" lon="6.78315">
        <ele>967</ele>
        <time>2021-12-28T22:59:20Z</time>
      </trkpt>
      <trkpt lat="44.1258" lon="6.78305">
        <ele>967</ele>
        <time>2021-12-28T22:59:22Z</time>
      </trkpt>
      <trkpt lat="44.12596" lon="6.78264">
        <ele>961</ele>
        <time>2021-12-28T22:59:28Z</time>
      </trkpt>
      <trkpt lat="44.12604" lon="6.78251">
        <ele>960</ele>
        <time>2021-12-28T22:59:30Z</time>
      </trkpt>
      <trkpt lat="44.12614" lon="6.78241">
        <ele>962</ele>
        <time>2021-12-28T22:59:32Z</time>
      </trkpt>
      <trkpt lat="44.12624" lon="6.78234">
        <ele>963</ele>
        <time>2021-12-28T22:59:34Z</time>
      </trkpt>
      <trkpt lat="44.12635" lon="6.78229">
        <ele>965</ele>
        <time>2021-12-28T22:59:36Z</time>
      </trkpt>
      <trkpt lat="44.12657" lon="6.78224">
        <ele>969</ele>
        <time>2021-12-28T22:59:40Z</time>
      </trkpt>
      <trkpt lat="44.12667" lon="6.78219">
        <ele>971</ele>
        <time>2021-12-28T22:59:42Z</time>
      </trkpt>
      <trkpt lat="44.12676" lon="6.78209">
        <ele>972</ele>
        <time>2021-12-28T22:59:44Z</time>
      </trkpt>
      <trkpt lat="44.12681" lon="6.78197">
        <ele>971</ele>
        <time>2021-12-28T22:59:46Z</time>
      </trkpt>
      <trkpt lat="44.12684" lon="6.78182">
        <ele>971</ele>
        <time>2021-12-28T22:59:48Z</time>
      </trkpt>
      <trkpt lat="44.12683" lon="6.78166">
        <ele>969</ele>
        <time>2021-12-28T22:59:50Z</time>
      </trkpt>
      <trkpt lat="44.12672" lon="6.78135">
        <ele>964</ele>
        <time>2021-12-28T22:59:54Z</time>
      </trkpt>
      <trkpt lat="44.12672" lon="6.78119">
        <ele>964</ele>
        <time>2021-12-28T22:59:56Z</time>
      </trkpt>
      <trkpt lat="44.12675" lon="6.78105">
        <ele>964</ele>
        <time>2021-12-28T22:59:58Z</time>
      </trkpt>
      <trkpt lat="44.12681" lon="6.78091">
        <ele>966</ele>
        <time>2021-12-28T23:00:00Z</time>
      </trkpt>
      <trkpt lat="44.12702" lon="6.78068">
        <ele>970</ele>
        <time>2021-12-28T23:00:05Z</time>
      </trkpt>
      <trkpt lat="44.12709" lon="6.78055">
        <ele>971</ele>
        <time>2021-12-28T23:00:07Z</time>
      </trkpt>
      <trkpt lat="44.12713" lon="6.78041">
        <ele>970</ele>
        <time>2021-12-28T23:00:09Z</time>
      </trkpt>
      <trkpt lat="44.12719" lon="6.78007">
        <ele>968</ele>
        <time>2021-12-28T23:00:14Z</time>
      </trkpt>
      <trkpt lat="44.12733" lon="6.77855">
        <ele>973</ele>
        <time>2021-12-28T23:00:33Z</time>
      </trkpt>
      <trkpt lat="44.12737" lon="6.77835">
        <ele>973</ele>
        <time>2021-12-28T23:00:36Z</time>
      </trkpt>
      <trkpt lat="44.12793" lon="6.77728">
        <ele>977</ele>
        <time>2021-12-28T23:00:53Z</time>
      </trkpt>
      <trkpt lat="44.12803" lon="6.77718">
        <ele>977</ele>
        <time>2021-12-28T23:00:55Z</time>
      </trkpt>
      <trkpt lat="44.12825" lon="6.77699">
        <ele>978</ele>
        <time>2021-12-28T23:00:59Z</time>
      </trkpt>
      <trkpt lat="44.12835" lon="6.77687">
        <ele>978</ele>
        <time>2021-12-28T23:01:02Z</time>
      </trkpt>
      <trkpt lat="44.12891" lon="6.7758">
        <ele>983</ele>
        <time>2021-12-28T23:01:19Z</time>
      </trkpt>
      <trkpt lat="44.12902" lon="6.77564">
        <ele>985</ele>
        <time>2021-12-28T23:01:22Z</time>
      </trkpt>
      <trkpt lat="44.12935" lon="6.77526">
        <ele>990</ele>
        <time>2021-12-28T23:01:29Z</time>
      </trkpt>
      <trkpt lat="44.12943" lon="6.77511">
        <ele>990</ele>
        <time>2021-12-28T23:01:32Z</time>
      </trkpt>
      <trkpt lat="44.12948" lon="6.77495">
        <ele>990</ele>
        <time>2021-12-28T23:01:34Z</time>
      </trkpt>
      <trkpt lat="44.12953" lon="6.77443">
        <ele>985</ele>
        <time>2021-12-28T23:01:41Z</time>
      </trkpt>
      <trkpt lat="44.12957" lon="6.77427">
        <ele>984</ele>
        <time>2021-12-28T23:01:43Z</time>
      </trkpt>
      <trkpt lat="44.12964" lon="6.77412">
        <ele>983</ele>
        <time>2021-12-28T23:01:45Z</time>
      </trkpt>
      <trkpt lat="44.12973" lon="6.77401">
        <ele>982</ele>
        <time>2021-12-28T23:01:47Z</time>
      </trkpt>
      <trkpt lat="44.12984" lon="6.77394">
        <ele>983</ele>
        <time>2021-12-28T23:01:49Z</time>
      </trkpt>
      <trkpt lat="44.12997" lon="6.7739">
        <ele>984</ele>
        <time>2021-12-28T23:01:52Z</time>
      </trkpt>
      <trkpt lat="44.1301" lon="6.77389">
        <ele>984</ele>
        <time>2021-12-28T23:01:54Z</time>
      </trkpt>
      <trkpt lat="44.13097" lon="6.77401">
        <ele>993</ele>
        <time>2021-12-28T23:02:09Z</time>
      </trkpt>
      <trkpt lat="44.13125" lon="6.774">
        <ele>996</ele>
        <time>2021-12-28T23:02:14Z</time>
      </trkpt>
      <trkpt lat="44.13138" lon="6.77395">
        <ele>996</ele>
        <time>2021-12-28T23:02:17Z</time>
      </trkpt>
      <trkpt lat="44.13152" lon="6.77387">
        <ele>996</ele>
        <time>2021-12-28T23:02:20Z</time>
      </trkpt>
      <trkpt lat="44.13165" lon="6.77376">
        <ele>996</ele>
        <time>2021-12-28T23:02:22Z</time>
      </trkpt>
      <trkpt lat="44.13177" lon="6.77362">
        <ele>997</ele>
        <time>2021-12-28T23:02:25Z</time>
      </trkpt>
      <trkpt lat="44.13188" lon="6.77346">
        <ele>997</ele>
        <time>2021-12-28T23:02:28Z</time>
      </trkpt>
      <trkpt lat="44.13243" lon="6.77235">
        <ele>997</ele>
        <time>2021-12-28T23:02:45Z</time>
      </trkpt>
      <trkpt lat="44.13251" lon="6.77217">
        <ele>997</ele>
        <time>2021-12-28T23:02:48Z</time>
      </trkpt>
      <trkpt lat="44.1327" lon="6.77159">
        <ele>998</ele>
        <time>2021-12-28T23:02:56Z</time>
      </trkpt>
      <trkpt lat="44.13278" lon="6.77139">
        <ele>999</ele>
        <time>2021-12-28T23:02:59Z</time>
      </trkpt>
      <trkpt lat="44.1336" lon="6.76972">
        <ele>997</ele>
        <time>2021-12-28T23:03:25Z</time>
      </trkpt>
      <trkpt lat="44.13385" lon="6.76949">
        <ele>997</ele>
        <time>2021-12-28T23:03:30Z</time>
      </trkpt>
      <trkpt lat="44.13397" lon="6.76943">
        <ele>998</ele>
        <time>2021-12-28T23:03:32Z</time>
      </trkpt>
      <trkpt lat="44.13458" lon="6.76923">
        <ele>1004</ele>
        <time>2021-12-28T23:03:43Z</time>
      </trkpt>
      <trkpt lat="44.13488" lon="6.76908">
        <ele>1007</ele>
        <time>2021-12-28T23:03:49Z</time>
      </trkpt>
      <trkpt lat="44.13502" lon="6.76899">
        <ele>1008</ele>
        <time>2021-12-28T23:03:52Z</time>
      </trkpt>
      <trkpt lat="44.13515" lon="6.76887">
        <ele>1009</ele>
        <time>2021-12-28T23:03:55Z</time>
      </trkpt>
      <trkpt lat="44.13552" lon="6.76846">
        <ele>1006</ele>
        <time>2021-12-28T23:04:03Z</time>
      </trkpt>
      <trkpt lat="44.13565" lon="6.76836">
        <ele>1006</ele>
        <time>2021-12-28T23:04:06Z</time>
      </trkpt>
      <trkpt lat="44.13608" lon="6.76811">
        <ele>1009</ele>
        <time>2021-12-28T23:04:14Z</time>
      </trkpt>
      <trkpt lat="44.13621" lon="6.76801">
        <ele>1010</ele>
        <time>2021-12-28T23:04:17Z</time>
      </trkpt>
      <trkpt lat="44.13642" lon="6.76765">
        <ele>1007</ele>
        <time>2021-12-28T23:04:23Z</time>
      </trkpt>
      <trkpt lat="44.13671" lon="6.76694">
        <ele>1003</ele>
        <time>2021-12-28T23:04:33Z</time>
      </trkpt>
      <trkpt lat="44.137" lon="6.76627">
        <ele>1007</ele>
        <time>2021-12-28T23:04:43Z</time>
      </trkpt>
      <trkpt lat="44.13718" lon="6.76603">
        <ele>1008</ele>
        <time>2021-12-28T23:04:47Z</time>
      </trkpt>
      <trkpt lat="44.13727" lon="6.7659">
        <ele>1009</ele>
        <time>2021-12-28T23:04:50Z</time>
      </trkpt>
      <trkpt lat="44.13754" lon="6.76568">
        <ele>1011</ele>
        <time>2021-12-28T23:04:55Z</time>
      </trkpt>
      <trkpt lat="44.13797" lon="6.76518">
        <ele>1020</ele>
        <time>2021-12-28T23:05:05Z</time>
      </trkpt>
      <trkpt lat="44.13811" lon="6.76506">
        <ele>1020</ele>
        <time>2021-12-28T23:05:08Z</time>
      </trkpt>
      <trkpt lat="44.13855" lon="6.76474">
        <ele>1023</ele>
        <time>2021-12-28T23:05:17Z</time>
      </trkpt>
      <trkpt lat="44.13912" lon="6.76421">
        <ele>1024</ele>
        <time>2021-12-28T23:05:29Z</time>
      </trkpt>
      <trkpt lat="44.13951" lon="6.76379">
        <ele>1028</ele>
        <time>2021-12-28T23:05:38Z</time>
      </trkpt>
      <trkpt lat="44.13977" lon="6.76358">
        <ele>1026</ele>
        <time>2021-12-28T23:05:43Z</time>
      </trkpt>
      <trkpt lat="44.14024" lon="6.76329">
        <ele>1027</ele>
        <time>2021-12-28T23:05:52Z</time>
      </trkpt>
      <trkpt lat="44.14032" lon="6.76322">
        <ele>1028</ele>
        <time>2021-12-28T23:05:54Z</time>
      </trkpt>
      <trkpt lat="44.14037" lon="6.76313">
        <ele>1029</ele>
        <time>2021-12-28T23:05:56Z</time>
      </trkpt>
      <trkpt lat="44.1404" lon="6.76306">
        <ele>1030</ele>
        <time>2021-12-28T23:05:57Z</time>
      </trkpt>
      <trkpt lat="44.14039" lon="6.76277">
        <ele>1033</ele>
        <time>2021-12-28T23:06:00Z</time>
      </trkpt>
      <trkpt lat="44.14035" lon="6.76223">
        <ele>1042</ele>
        <time>2021-12-28T23:06:07Z</time>
      </trkpt>
      <trkpt lat="44.14036" lon="6.76208">
        <ele>1044</ele>
        <time>2021-12-28T23:06:09Z</time>
      </trkpt>
      <trkpt lat="44.1404" lon="6.76194">
        <ele>1046</ele>
        <time>2021-12-28T23:06:11Z</time>
      </trkpt>
      <trkpt lat="44.14047" lon="6.7618">
        <ele>1046</ele>
        <time>2021-12-28T23:06:13Z</time>
      </trkpt>
      <trkpt lat="44.14063" lon="6.76156">
        <ele>1045</ele>
        <time>2021-12-28T23:06:17Z</time>
      </trkpt>
      <trkpt lat="44.14083" lon="6.76137">
        <ele>1042</ele>
        <time>2021-12-28T23:06:22Z</time>
      </trkpt>
      <trkpt lat="44.14142" lon="6.76105">
        <ele>1042</ele>
        <time>2021-12-28T23:06:33Z</time>
      </trkpt>
      <trkpt lat="44.14165" lon="6.76081">
        <ele>1040</ele>
        <time>2021-12-28T23:06:38Z</time>
      </trkpt>
      <trkpt lat="44.14187" lon="6.76053">
        <ele>1046</ele>
        <time>2021-12-28T23:06:43Z</time>
      </trkpt>
      <trkpt lat="44.14193" lon="6.76047">
        <ele>1047</ele>
        <time>2021-12-28T23:06:45Z</time>
      </trkpt>
      <trkpt lat="44.142" lon="6.76044">
        <ele>1048</ele>
        <time>2021-12-28T23:06:46Z</time>
      </trkpt>
      <trkpt lat="44.14217" lon="6.76043">
        <ele>1048</ele>
        <time>2021-12-28T23:06:49Z</time>
      </trkpt>
      <trkpt lat="44.14226" lon="6.76048">
        <ele>1048</ele>
        <time>2021-12-28T23:06:51Z</time>
      </trkpt>
      <trkpt lat="44.14232" lon="6.76055">
        <ele>1047</ele>
        <time>2021-12-28T23:06:52Z</time>
      </trkpt>
      <trkpt lat="44.14238" lon="6.76065">
        <ele>1046</ele>
        <time>2021-12-28T23:06:54Z</time>
      </trkpt>
      <trkpt lat="44.14241" lon="6.76076">
        <ele>1046</ele>
        <time>2021-12-28T23:06:55Z</time>
      </trkpt>
      <trkpt lat="44.14242" lon="6.76088">
        <ele>1045</ele>
        <time>2021-12-28T23:06:57Z</time>
      </trkpt>
      <trkpt lat="44.1424" lon="6.76101">
        <ele>1045</ele>
        <time>2021-12-28T23:06:59Z</time>
      </trkpt>
      <trkpt lat="44.14237" lon="6.76112">
        <ele>1044</ele>
        <time>2021-12-28T23:07:00Z</time>
      </trkpt>
      <trkpt lat="44.14223" lon="6.76136">
        <ele>1042</ele>
        <time>2021-12-28T23:07:04Z</time>
      </trkpt>
      <trkpt lat="44.14208" lon="6.76159">
        <ele>1041</ele>
        <time>2021-12-28T23:07:08Z</time>
      </trkpt>
      <trkpt lat="44.14178" lon="6.76188">
        <ele>1042</ele>
        <time>2021-12-28T23:07:15Z</time>
      </trkpt>
      <trkpt lat="44.14162" lon="6.76208">
        <ele>1043</ele>
        <time>2021-12-28T23:07:18Z</time>
      </trkpt>
      <trkpt lat="44.14138" lon="6.76243">
        <ele>1042</ele>
        <time>2021-12-28T23:07:25Z</time>
      </trkpt>
      <trkpt lat="44.14139" lon="6.76253">
        <ele>1042</ele>
        <time>2021-12-28T23:07:26Z</time>
      </trkpt>
      <trkpt lat="44.14143" lon="6.76258">
        <ele>1042</ele>
        <time>2021-12-28T23:07:27Z</time>
      </trkpt>
      <trkpt lat="44.14146" lon="6.76257">
        <ele>1043</ele>
        <time>2021-12-28T23:07:27Z</time>
      </trkpt>
      <trkpt lat="44.14157" lon="6.76245">
        <ele>1046</ele>
        <time>2021-12-28T23:07:30Z</time>
      </trkpt>
      <trkpt lat="44.14165" lon="6.76229">
        <ele>1046</ele>
        <time>2021-12-28T23:07:32Z</time>
      </trkpt>
      <trkpt lat="44.14173" lon="6.76204">
        <ele>1043</ele>
        <time>2021-12-28T23:07:36Z</time>
      </trkpt>
      <trkpt lat="44.14238" lon="6.76138">
        <ele>1043</ele>
        <time>2021-12-28T23:07:50Z</time>
      </trkpt>
      <trkpt lat="44.14252" lon="6.76127">
        <ele>1044</ele>
        <time>2021-12-28T23:07:53Z</time>
      </trkpt>
      <trkpt lat="44.14296" lon="6.76115">
        <ele>1042</ele>
        <time>2021-12-28T23:08:01Z</time>
      </trkpt>
      <trkpt lat="44.1431" lon="6.761">
        <ele>1044</ele>
        <time>2021-12-28T23:08:04Z</time>
      </trkpt>
      <trkpt lat="44.14339" lon="6.76056">
        <ele>1050</ele>
        <time>2021-12-28T23:08:12Z</time>
      </trkpt>
      <trkpt lat="44.1442" lon="6.75969">
        <ele>1056</ele>
        <time>2021-12-28T23:08:30Z</time>
      </trkpt>
      <trkpt lat="44.14451" lon="6.75929">
        <ele>1056</ele>
        <time>2021-12-28T23:08:37Z</time>
      </trkpt>
      <trkpt lat="44.14489" lon="6.75871">
        <ele>1057</ele>
        <time>2021-12-28T23:08:47Z</time>
      </trkpt>
      <trkpt lat="44.14509" lon="6.75831">
        <ele>1060</ele>
        <time>2021-12-28T23:08:54Z</time>
      </trkpt>
      <trkpt lat="44.14517" lon="6.75819">
        <ele>1060</ele>
        <time>2021-12-28T23:08:56Z</time>
      </trkpt>
      <trkpt lat="44.14526" lon="6.75808">
        <ele>1061</ele>
        <time>2021-12-28T23:08:58Z</time>
      </trkpt>
      <trkpt lat="44.14537" lon="6.75798">
        <ele>1061</ele>
        <time>2021-12-28T23:09:00Z</time>
      </trkpt>
      <trkpt lat="44.14575" lon="6.75773">
        <ele>1062</ele>
        <time>2021-12-28T23:09:08Z</time>
      </trkpt>
      <trkpt lat="44.14615" lon="6.75756">
        <ele>1064</ele>
        <time>2021-12-28T23:09:15Z</time>
      </trkpt>
      <trkpt lat="44.14702" lon="6.75727">
        <ele>1070</ele>
        <time>2021-12-28T23:09:31Z</time>
      </trkpt>
      <trkpt lat="44.14714" lon="6.75725">
        <ele>1070</ele>
        <time>2021-12-28T23:09:33Z</time>
      </trkpt>
      <trkpt lat="44.14726" lon="6.75726">
        <ele>1070</ele>
        <time>2021-12-28T23:09:35Z</time>
      </trkpt>
      <trkpt lat="44.14752" lon="6.75732">
        <ele>1069</ele>
        <time>2021-12-28T23:09:40Z</time>
      </trkpt>
      <trkpt lat="44.14765" lon="6.75733">
        <ele>1069</ele>
        <time>2021-12-28T23:09:42Z</time>
      </trkpt>
      <trkpt lat="44.14809" lon="6.75725">
        <ele>1072</ele>
        <time>2021-12-28T23:09:50Z</time>
      </trkpt>
      <trkpt lat="44.14843" lon="6.75713">
        <ele>1074</ele>
        <time>2021-12-28T23:09:57Z</time>
      </trkpt>
      <trkpt lat="44.14955" lon="6.75653">
        <ele>1084</ele>
        <time>2021-12-28T23:10:18Z</time>
      </trkpt>
      <trkpt lat="44.15002" lon="6.75641">
        <ele>1087</ele>
        <time>2021-12-28T23:10:26Z</time>
      </trkpt>
      <trkpt lat="44.15028" lon="6.75637">
        <ele>1089</ele>
        <time>2021-12-28T23:10:31Z</time>
      </trkpt>
      <trkpt lat="44.1504" lon="6.75639">
        <ele>1089</ele>
        <time>2021-12-28T23:10:33Z</time>
      </trkpt>
      <trkpt lat="44.1505" lon="6.75645">
        <ele>1087</ele>
        <time>2021-12-28T23:10:35Z</time>
      </trkpt>
      <trkpt lat="44.15069" lon="6.75662">
        <ele>1083</ele>
        <time>2021-12-28T23:10:39Z</time>
      </trkpt>
      <trkpt lat="44.1508" lon="6.7567">
        <ele>1081</ele>
        <time>2021-12-28T23:10:41Z</time>
      </trkpt>
      <trkpt lat="44.1509" lon="6.75673">
        <ele>1081</ele>
        <time>2021-12-28T23:10:43Z</time>
      </trkpt>
      <trkpt lat="44.15103" lon="6.75673">
        <ele>1082</ele>
        <time>2021-12-28T23:10:45Z</time>
      </trkpt>
      <trkpt lat="44.15143" lon="6.75661">
        <ele>1086</ele>
        <time>2021-12-28T23:10:53Z</time>
      </trkpt>
      <trkpt lat="44.1519" lon="6.75652">
        <ele>1088</ele>
        <time>2021-12-28T23:11:01Z</time>
      </trkpt>
      <trkpt lat="44.15246" lon="6.75637">
        <ele>1091</ele>
        <time>2021-12-28T23:11:11Z</time>
      </trkpt>
      <trkpt lat="44.15275" lon="6.75637">
        <ele>1093</ele>
        <time>2021-12-28T23:11:17Z</time>
      </trkpt>
      <trkpt lat="44.15352" lon="6.75643">
        <ele>1100</ele>
        <time>2021-12-28T23:11:30Z</time>
      </trkpt>
      <trkpt lat="44.15367" lon="6.75647">
        <ele>1100</ele>
        <time>2021-12-28T23:11:33Z</time>
      </trkpt>
      <trkpt lat="44.15429" lon="6.75676">
        <ele>1097</ele>
        <time>2021-12-28T23:11:45Z</time>
      </trkpt>
      <trkpt lat="44.15458" lon="6.75687">
        <ele>1103</ele>
        <time>2021-12-28T23:11:50Z</time>
      </trkpt>
      <trkpt lat="44.15507" lon="6.75714">
        <ele>1102</ele>
        <time>2021-12-28T23:11:59Z</time>
      </trkpt>
      <trkpt lat="44.15518" lon="6.75716">
        <ele>1104</ele>
        <time>2021-12-28T23:12:01Z</time>
      </trkpt>
      <trkpt lat="44.1553" lon="6.75715">
        <ele>1109</ele>
        <time>2021-12-28T23:12:03Z</time>
      </trkpt>
      <trkpt lat="44.15565" lon="6.75702">
        <ele>1136</ele>
        <time>2021-12-28T23:12:10Z</time>
      </trkpt>
      <trkpt lat="44.15581" lon="6.75695">
        <ele>1153</ele>
        <time>2021-12-28T23:12:13Z</time>
      </trkpt>
      <trkpt lat="44.15826" lon="6.75727">
        <ele>1133</ele>
        <time>2021-12-28T23:12:57Z</time>
      </trkpt>
      <trkpt lat="44.15858" lon="6.75731">
        <ele>1128</ele>
        <time>2021-12-28T23:13:02Z</time>
      </trkpt>
      <trkpt lat="44.15886" lon="6.75739">
        <ele>1125</ele>
        <time>2021-12-28T23:13:07Z</time>
      </trkpt>
      <trkpt lat="44.15895" lon="6.75746">
        <ele>1122</ele>
        <time>2021-12-28T23:13:09Z</time>
      </trkpt>
      <trkpt lat="44.15916" lon="6.75753">
        <ele>1121</ele>
        <time>2021-12-28T23:13:13Z</time>
      </trkpt>
      <trkpt lat="44.15969" lon="6.75745">
        <ele>1125</ele>
        <time>2021-12-28T23:13:23Z</time>
      </trkpt>
      <trkpt lat="44.16012" lon="6.75744">
        <ele>1123</ele>
        <time>2021-12-28T23:13:30Z</time>
      </trkpt>
      <trkpt lat="44.16023" lon="6.7574">
        <ele>1122</ele>
        <time>2021-12-28T23:13:32Z</time>
      </trkpt>
      <trkpt lat="44.16032" lon="6.75733">
        <ele>1122</ele>
        <time>2021-12-28T23:13:34Z</time>
      </trkpt>
      <trkpt lat="44.16047" lon="6.75705">
        <ele>1125</ele>
        <time>2021-12-28T23:13:39Z</time>
      </trkpt>
      <trkpt lat="44.16057" lon="6.75681">
        <ele>1127</ele>
        <time>2021-12-28T23:13:42Z</time>
      </trkpt>
      <trkpt lat="44.16066" lon="6.75669">
        <ele>1127</ele>
        <time>2021-12-28T23:13:44Z</time>
      </trkpt>
      <trkpt lat="44.16088" lon="6.75647">
        <ele>1129</ele>
        <time>2021-12-28T23:13:49Z</time>
      </trkpt>
      <trkpt lat="44.16127" lon="6.75618">
        <ele>1130</ele>
        <time>2021-12-28T23:13:57Z</time>
      </trkpt>
      <trkpt lat="44.16163" lon="6.75588">
        <ele>1132</ele>
        <time>2021-12-28T23:14:04Z</time>
      </trkpt>
      <trkpt lat="44.16175" lon="6.75581">
        <ele>1132</ele>
        <time>2021-12-28T23:14:07Z</time>
      </trkpt>
      <trkpt lat="44.16245" lon="6.75552">
        <ele>1127</ele>
        <time>2021-12-28T23:14:20Z</time>
      </trkpt>
      <trkpt lat="44.16268" lon="6.75534">
        <ele>1126</ele>
        <time>2021-12-28T23:14:24Z</time>
      </trkpt>
      <trkpt lat="44.16277" lon="6.75523">
        <ele>1126</ele>
        <time>2021-12-28T23:14:27Z</time>
      </trkpt>
      <trkpt lat="44.16282" lon="6.7551">
        <ele>1128</ele>
        <time>2021-12-28T23:14:28Z</time>
      </trkpt>
      <trkpt lat="44.16284" lon="6.75496">
        <ele>1129</ele>
        <time>2021-12-28T23:14:30Z</time>
      </trkpt>
      <trkpt lat="44.16282" lon="6.75443">
        <ele>1140</ele>
        <time>2021-12-28T23:14:37Z</time>
      </trkpt>
      <trkpt lat="44.16276" lon="6.75389">
        <ele>1152</ele>
        <time>2021-12-28T23:14:44Z</time>
      </trkpt>
      <trkpt lat="44.16275" lon="6.75374">
        <ele>1155</ele>
        <time>2021-12-28T23:14:46Z</time>
      </trkpt>
      <trkpt lat="44.16277" lon="6.7536">
        <ele>1158</ele>
        <time>2021-12-28T23:14:48Z</time>
      </trkpt>
      <trkpt lat="44.16281" lon="6.7535">
        <ele>1161</ele>
        <time>2021-12-28T23:14:49Z</time>
      </trkpt>
      <trkpt lat="44.16287" lon="6.75342">
        <ele>1164</ele>
        <time>2021-12-28T23:14:51Z</time>
      </trkpt>
      <trkpt lat="44.16295" lon="6.75338">
        <ele>1166</ele>
        <time>2021-12-28T23:14:52Z</time>
      </trkpt>
      <trkpt lat="44.16304" lon="6.75337">
        <ele>1169</ele>
        <time>2021-12-28T23:14:54Z</time>
      </trkpt>
      <trkpt lat="44.16314" lon="6.75341">
        <ele>1169</ele>
        <time>2021-12-28T23:14:56Z</time>
      </trkpt>
      <trkpt lat="44.16323" lon="6.7535">
        <ele>1167</ele>
        <time>2021-12-28T23:14:58Z</time>
      </trkpt>
      <trkpt lat="44.16344" lon="6.75382">
        <ele>1153</ele>
        <time>2021-12-28T23:15:03Z</time>
      </trkpt>
      <trkpt lat="44.16352" lon="6.75389">
        <ele>1150</ele>
        <time>2021-12-28T23:15:05Z</time>
      </trkpt>
      <trkpt lat="44.16361" lon="6.75393">
        <ele>1148</ele>
        <time>2021-12-28T23:15:07Z</time>
      </trkpt>
      <trkpt lat="44.16372" lon="6.75392">
        <ele>1149</ele>
        <time>2021-12-28T23:15:09Z</time>
      </trkpt>
      <trkpt lat="44.16406" lon="6.75376">
        <ele>1161</ele>
        <time>2021-12-28T23:15:15Z</time>
      </trkpt>
      <trkpt lat="44.16456" lon="6.75359">
        <ele>1164</ele>
        <time>2021-12-28T23:15:24Z</time>
      </trkpt>
      <trkpt lat="44.16533" lon="6.75336">
        <ele>1159</ele>
        <time>2021-12-28T23:15:38Z</time>
      </trkpt>
      <trkpt lat="44.16579" lon="6.75327">
        <ele>1151</ele>
        <time>2021-12-28T23:15:46Z</time>
      </trkpt>
      <trkpt lat="44.16593" lon="6.75322">
        <ele>1152</ele>
        <time>2021-12-28T23:15:49Z</time>
      </trkpt>
      <trkpt lat="44.16606" lon="6.75315">
        <ele>1155</ele>
        <time>2021-12-28T23:15:51Z</time>
      </trkpt>
      <trkpt lat="44.16645" lon="6.75283">
        <ele>1166</ele>
        <time>2021-12-28T23:15:59Z</time>
      </trkpt>
      <trkpt lat="44.16701" lon="6.75247">
        <ele>1169</ele>
        <time>2021-12-28T23:16:10Z</time>
      </trkpt>
      <trkpt lat="44.16749" lon="6.75202">
        <ele>1174</ele>
        <time>2021-12-28T23:16:21Z</time>
      </trkpt>
      <trkpt lat="44.16776" lon="6.75186">
        <ele>1177</ele>
        <time>2021-12-28T23:16:26Z</time>
      </trkpt>
      <trkpt lat="44.1684" lon="6.75161">
        <ele>1180</ele>
        <time>2021-12-28T23:16:38Z</time>
      </trkpt>
      <trkpt lat="44.16857" lon="6.75158">
        <ele>1181</ele>
        <time>2021-12-28T23:16:41Z</time>
      </trkpt>
      <trkpt lat="44.16942" lon="6.75148">
        <ele>1181</ele>
        <time>2021-12-28T23:16:56Z</time>
      </trkpt>
      <trkpt lat="44.16986" lon="6.75152">
        <ele>1179</ele>
        <time>2021-12-28T23:17:04Z</time>
      </trkpt>
      <trkpt lat="44.17001" lon="6.75149">
        <ele>1180</ele>
        <time>2021-12-28T23:17:07Z</time>
      </trkpt>
      <trkpt lat="44.17032" lon="6.75139">
        <ele>1180</ele>
        <time>2021-12-28T23:17:12Z</time>
      </trkpt>
      <trkpt lat="44.17061" lon="6.75126">
        <ele>1181</ele>
        <time>2021-12-28T23:17:18Z</time>
      </trkpt>
      <trkpt lat="44.17097" lon="6.75104">
        <ele>1184</ele>
        <time>2021-12-28T23:17:25Z</time>
      </trkpt>
      <trkpt lat="44.17122" lon="6.751">
        <ele>1182</ele>
        <time>2021-12-28T23:17:29Z</time>
      </trkpt>
      <trkpt lat="44.17143" lon="6.75082">
        <ele>1185</ele>
        <time>2021-12-28T23:17:33Z</time>
      </trkpt>
      <trkpt lat="44.17173" lon="6.75043">
        <ele>1198</ele>
        <time>2021-12-28T23:17:41Z</time>
      </trkpt>
      <trkpt lat="44.17185" lon="6.75031">
        <ele>1201</ele>
        <time>2021-12-28T23:17:43Z</time>
      </trkpt>
      <trkpt lat="44.17227" lon="6.75002">
        <ele>1205</ele>
        <time>2021-12-28T23:17:52Z</time>
      </trkpt>
      <trkpt lat="44.1724" lon="6.74995">
        <ele>1206</ele>
        <time>2021-12-28T23:17:54Z</time>
      </trkpt>
      <trkpt lat="44.17254" lon="6.74991">
        <ele>1206</ele>
        <time>2021-12-28T23:17:57Z</time>
      </trkpt>
      <trkpt lat="44.17268" lon="6.7499">
        <ele>1207</ele>
        <time>2021-12-28T23:17:59Z</time>
      </trkpt>
      <trkpt lat="44.17282" lon="6.74992">
        <ele>1206</ele>
        <time>2021-12-28T23:18:02Z</time>
      </trkpt>
      <trkpt lat="44.17295" lon="6.74997">
        <ele>1204</ele>
        <time>2021-12-28T23:18:04Z</time>
      </trkpt>
      <trkpt lat="44.17307" lon="6.75005">
        <ele>1202</ele>
        <time>2021-12-28T23:18:07Z</time>
      </trkpt>
      <trkpt lat="44.17331" lon="6.75023">
        <ele>1197</ele>
        <time>2021-12-28T23:18:11Z</time>
      </trkpt>
      <trkpt lat="44.17346" lon="6.75028">
        <ele>1196</ele>
        <time>2021-12-28T23:18:14Z</time>
      </trkpt>
      <trkpt lat="44.17357" lon="6.75028">
        <ele>1196</ele>
        <time>2021-12-28T23:18:16Z</time>
      </trkpt>
      <trkpt lat="44.1738" lon="6.75021">
        <ele>1198</ele>
        <time>2021-12-28T23:18:20Z</time>
      </trkpt>
      <trkpt lat="44.17403" lon="6.75018">
        <ele>1199</ele>
        <time>2021-12-28T23:18:24Z</time>
      </trkpt>
      <trkpt lat="44.17413" lon="6.75015">
        <ele>1199</ele>
        <time>2021-12-28T23:18:26Z</time>
      </trkpt>
      <trkpt lat="44.17423" lon="6.75008">
        <ele>1200</ele>
        <time>2021-12-28T23:18:28Z</time>
      </trkpt>
      <trkpt lat="44.1746" lon="6.74963">
        <ele>1206</ele>
        <time>2021-12-28T23:18:37Z</time>
      </trkpt>
      <trkpt lat="44.17471" lon="6.74956">
        <ele>1206</ele>
        <time>2021-12-28T23:18:39Z</time>
      </trkpt>
      <trkpt lat="44.17482" lon="6.74951">
        <ele>1205</ele>
        <time>2021-12-28T23:18:41Z</time>
      </trkpt>
      <trkpt lat="44.17517" lon="6.74946">
        <ele>1203</ele>
        <time>2021-12-28T23:18:47Z</time>
      </trkpt>
      <trkpt lat="44.17547" lon="6.7493">
        <ele>1206</ele>
        <time>2021-12-28T23:18:53Z</time>
      </trkpt>
      <trkpt lat="44.17583" lon="6.7492">
        <ele>1207</ele>
        <time>2021-12-28T23:19:00Z</time>
      </trkpt>
      <trkpt lat="44.17645" lon="6.74884">
        <ele>1211</ele>
        <time>2021-12-28T23:19:12Z</time>
      </trkpt>
      <trkpt lat="44.1768" lon="6.74854">
        <ele>1216</ele>
        <time>2021-12-28T23:19:19Z</time>
      </trkpt>
      <trkpt lat="44.17692" lon="6.74847">
        <ele>1217</ele>
        <time>2021-12-28T23:19:21Z</time>
      </trkpt>
      <trkpt lat="44.17752" lon="6.74829">
        <ele>1219</ele>
        <time>2021-12-28T23:19:32Z</time>
      </trkpt>
      <trkpt lat="44.1776" lon="6.74827">
        <ele>1221</ele>
        <time>2021-12-28T23:19:34Z</time>
      </trkpt>
      <trkpt lat="44.17771" lon="6.74827">
        <ele>1223</ele>
        <time>2021-12-28T23:19:36Z</time>
      </trkpt>
      <trkpt lat="44.17781" lon="6.7483">
        <ele>1224</ele>
        <time>2021-12-28T23:19:37Z</time>
      </trkpt>
      <trkpt lat="44.17789" lon="6.74838">
        <ele>1224</ele>
        <time>2021-12-28T23:19:39Z</time>
      </trkpt>
      <trkpt lat="44.17795" lon="6.74849">
        <ele>1223</ele>
        <time>2021-12-28T23:19:41Z</time>
      </trkpt>
      <trkpt lat="44.17805" lon="6.74877">
        <ele>1220</ele>
        <time>2021-12-28T23:19:45Z</time>
      </trkpt>
      <trkpt lat="44.17812" lon="6.74888">
        <ele>1219</ele>
        <time>2021-12-28T23:19:47Z</time>
      </trkpt>
      <trkpt lat="44.17821" lon="6.74897">
        <ele>1218</ele>
        <time>2021-12-28T23:19:49Z</time>
      </trkpt>
      <trkpt lat="44.17832" lon="6.74901">
        <ele>1219</ele>
        <time>2021-12-28T23:19:51Z</time>
      </trkpt>
      <trkpt lat="44.17857" lon="6.74901">
        <ele>1220</ele>
        <time>2021-12-28T23:19:55Z</time>
      </trkpt>
      <trkpt lat="44.17951" lon="6.74892">
        <ele>1224</ele>
        <time>2021-12-28T23:20:12Z</time>
      </trkpt>
      <trkpt lat="44.18009" lon="6.74901">
        <ele>1220</ele>
        <time>2021-12-28T23:20:22Z</time>
      </trkpt>
      <trkpt lat="44.1804" lon="6.74895">
        <ele>1221</ele>
        <time>2021-12-28T23:20:28Z</time>
      </trkpt>
      <trkpt lat="44.18123" lon="6.74856">
        <ele>1233</ele>
        <time>2021-12-28T23:20:43Z</time>
      </trkpt>
      <trkpt lat="44.18158" lon="6.74829">
        <ele>1238</ele>
        <time>2021-12-28T23:20:51Z</time>
      </trkpt>
      <trkpt lat="44.18181" lon="6.74816">
        <ele>1242</ele>
        <time>2021-12-28T23:20:55Z</time>
      </trkpt>
      <trkpt lat="44.18194" lon="6.74814">
        <ele>1244</ele>
        <time>2021-12-28T23:20:57Z</time>
      </trkpt>
      <trkpt lat="44.18205" lon="6.74818">
        <ele>1244</ele>
        <time>2021-12-28T23:20:59Z</time>
      </trkpt>
      <trkpt lat="44.18222" lon="6.74829">
        <ele>1242</ele>
        <time>2021-12-28T23:21:03Z</time>
      </trkpt>
      <trkpt lat="44.18311" lon="6.74895">
        <ele>1235</ele>
        <time>2021-12-28T23:21:21Z</time>
      </trkpt>
      <trkpt lat="44.18325" lon="6.74902">
        <ele>1236</ele>
        <time>2021-12-28T23:21:23Z</time>
      </trkpt>
      <trkpt lat="44.18349" lon="6.74908">
        <ele>1236</ele>
        <time>2021-12-28T23:21:28Z</time>
      </trkpt>
      <trkpt lat="44.18389" lon="6.74911">
        <ele>1236</ele>
        <time>2021-12-28T23:21:35Z</time>
      </trkpt>
      <trkpt lat="44.18405" lon="6.7491">
        <ele>1237</ele>
        <time>2021-12-28T23:21:38Z</time>
      </trkpt>
      <trkpt lat="44.18439" lon="6.74902">
        <ele>1239</ele>
        <time>2021-12-28T23:21:44Z</time>
      </trkpt>
      <trkpt lat="44.18602" lon="6.7483">
        <ele>1252</ele>
        <time>2021-12-28T23:22:14Z</time>
      </trkpt>
      <trkpt lat="44.18649" lon="6.74807">
        <ele>1256</ele>
        <time>2021-12-28T23:22:23Z</time>
      </trkpt>
      <trkpt lat="44.18699" lon="6.74776">
        <ele>1260</ele>
        <time>2021-12-28T23:22:33Z</time>
      </trkpt>
      <trkpt lat="44.18725" lon="6.74781">
        <ele>1259</ele>
        <time>2021-12-28T23:22:37Z</time>
      </trkpt>
      <trkpt lat="44.18733" lon="6.74786">
        <ele>1258</ele>
        <time>2021-12-28T23:22:39Z</time>
      </trkpt>
      <trkpt lat="44.18748" lon="6.74799">
        <ele>1257</ele>
        <time>2021-12-28T23:22:42Z</time>
      </trkpt>
      <trkpt lat="44.18764" lon="6.74816">
        <ele>1256</ele>
        <time>2021-12-28T23:22:46Z</time>
      </trkpt>
      <trkpt lat="44.18785" lon="6.74836">
        <ele>1257</ele>
        <time>2021-12-28T23:22:50Z</time>
      </trkpt>
      <trkpt lat="44.18791" lon="6.74839">
        <ele>1257</ele>
        <time>2021-12-28T23:22:51Z</time>
      </trkpt>
      <trkpt lat="44.18822" lon="6.74855">
        <ele>1260</ele>
        <time>2021-12-28T23:22:57Z</time>
      </trkpt>
      <trkpt lat="44.18882" lon="6.74876">
        <ele>1262</ele>
        <time>2021-12-28T23:23:08Z</time>
      </trkpt>
      <trkpt lat="44.18911" lon="6.74895">
        <ele>1265</ele>
        <time>2021-12-28T23:23:14Z</time>
      </trkpt>
      <trkpt lat="44.18931" lon="6.74906">
        <ele>1268</ele>
        <time>2021-12-28T23:23:18Z</time>
      </trkpt>
      <trkpt lat="44.18951" lon="6.74909">
        <ele>1272</ele>
        <time>2021-12-28T23:23:21Z</time>
      </trkpt>
      <trkpt lat="44.18969" lon="6.74905">
        <ele>1275</ele>
        <time>2021-12-28T23:23:25Z</time>
      </trkpt>
      <trkpt lat="44.19015" lon="6.74883">
        <ele>1281</ele>
        <time>2021-12-28T23:23:33Z</time>
      </trkpt>
      <trkpt lat="44.19051" lon="6.74853">
        <ele>1283</ele>
        <time>2021-12-28T23:23:41Z</time>
      </trkpt>
      <trkpt lat="44.19086" lon="6.74832">
        <ele>1283</ele>
        <time>2021-12-28T23:23:47Z</time>
      </trkpt>
      <trkpt lat="44.19121" lon="6.74795">
        <ele>1287</ele>
        <time>2021-12-28T23:23:55Z</time>
      </trkpt>
      <trkpt lat="44.1914" lon="6.7478">
        <ele>1288</ele>
        <time>2021-12-28T23:23:59Z</time>
      </trkpt>
      <trkpt lat="44.19159" lon="6.74755">
        <ele>1284</ele>
        <time>2021-12-28T23:24:04Z</time>
      </trkpt>
      <trkpt lat="44.19169" lon="6.74749">
        <ele>1283</ele>
        <time>2021-12-28T23:24:06Z</time>
      </trkpt>
      <trkpt lat="44.19192" lon="6.74749">
        <ele>1286</ele>
        <time>2021-12-28T23:24:10Z</time>
      </trkpt>
      <trkpt lat="44.19247" lon="6.74754">
        <ele>1294</ele>
        <time>2021-12-28T23:24:20Z</time>
      </trkpt>
      <trkpt lat="44.19258" lon="6.74755">
        <ele>1298</ele>
        <time>2021-12-28T23:24:22Z</time>
      </trkpt>
      <trkpt lat="44.19269" lon="6.74752">
        <ele>1301</ele>
        <time>2021-12-28T23:24:24Z</time>
      </trkpt>
      <trkpt lat="44.19278" lon="6.74746">
        <ele>1303</ele>
        <time>2021-12-28T23:24:25Z</time>
      </trkpt>
      <trkpt lat="44.19286" lon="6.74737">
        <ele>1305</ele>
        <time>2021-12-28T23:24:27Z</time>
      </trkpt>
      <trkpt lat="44.193" lon="6.74711">
        <ele>1304</ele>
        <time>2021-12-28T23:24:31Z</time>
      </trkpt>
      <trkpt lat="44.19319" lon="6.74689">
        <ele>1303</ele>
        <time>2021-12-28T23:24:36Z</time>
      </trkpt>
      <trkpt lat="44.1933" lon="6.7468">
        <ele>1303</ele>
        <time>2021-12-28T23:24:38Z</time>
      </trkpt>
      <trkpt lat="44.19366" lon="6.7466">
        <ele>1307</ele>
        <time>2021-12-28T23:24:45Z</time>
      </trkpt>
      <trkpt lat="44.19394" lon="6.74639">
        <ele>1310</ele>
        <time>2021-12-28T23:24:51Z</time>
      </trkpt>
      <trkpt lat="44.19403" lon="6.74636">
        <ele>1311</ele>
        <time>2021-12-28T23:24:52Z</time>
      </trkpt>
      <trkpt lat="44.19412" lon="6.74636">
        <ele>1312</ele>
        <time>2021-12-28T23:24:54Z</time>
      </trkpt>
      <trkpt lat="44.19441" lon="6.7464">
        <ele>1317</ele>
        <time>2021-12-28T23:24:59Z</time>
      </trkpt>
      <trkpt lat="44.19451" lon="6.74639">
        <ele>1318</ele>
        <time>2021-12-28T23:25:01Z</time>
      </trkpt>
      <trkpt lat="44.19477" lon="6.74628">
        <ele>1319</ele>
        <time>2021-12-28T23:25:06Z</time>
      </trkpt>
      <trkpt lat="44.19485" lon="6.74627">
        <ele>1320</ele>
        <time>2021-12-28T23:25:07Z</time>
      </trkpt>
      <trkpt lat="44.19492" lon="6.74629">
        <ele>1321</ele>
        <time>2021-12-28T23:25:08Z</time>
      </trkpt>
      <trkpt lat="44.19498" lon="6.74635">
        <ele>1324</ele>
        <time>2021-12-28T23:25:10Z</time>
      </trkpt>
      <trkpt lat="44.19514" lon="6.74657">
        <ele>1332</ele>
        <time>2021-12-28T23:25:14Z</time>
      </trkpt>
      <trkpt lat="44.1952" lon="6.74659">
        <ele>1334</ele>
        <time>2021-12-28T23:25:15Z</time>
      </trkpt>
      <trkpt lat="44.19525" lon="6.74656">
        <ele>1334</ele>
        <time>2021-12-28T23:25:16Z</time>
      </trkpt>
      <trkpt lat="44.19531" lon="6.7464">
        <ele>1330</ele>
        <time>2021-12-28T23:25:18Z</time>
      </trkpt>
      <trkpt lat="44.19542" lon="6.74599">
        <ele>1320</ele>
        <time>2021-12-28T23:25:24Z</time>
      </trkpt>
      <trkpt lat="44.19546" lon="6.74592">
        <ele>1319</ele>
        <time>2021-12-28T23:25:25Z</time>
      </trkpt>
      <trkpt lat="44.19552" lon="6.74588">
        <ele>1318</ele>
        <time>2021-12-28T23:25:26Z</time>
      </trkpt>
      <trkpt lat="44.19558" lon="6.74586">
        <ele>1319</ele>
        <time>2021-12-28T23:25:27Z</time>
      </trkpt>
      <trkpt lat="44.19571" lon="6.74591">
        <ele>1322</ele>
        <time>2021-12-28T23:25:29Z</time>
      </trkpt>
      <trkpt lat="44.19635" lon="6.7465">
        <ele>1343</ele>
        <time>2021-12-28T23:25:43Z</time>
      </trkpt>
      <trkpt lat="44.19639" lon="6.74655">
        <ele>1345</ele>
        <time>2021-12-28T23:25:44Z</time>
      </trkpt>
      <trkpt lat="44.19641" lon="6.7466">
        <ele>1345</ele>
        <time>2021-12-28T23:25:45Z</time>
      </trkpt>
      <trkpt lat="44.1964" lon="6.74664">
        <ele>1346</ele>
        <time>2021-12-28T23:25:45Z</time>
      </trkpt>
      <trkpt lat="44.19638" lon="6.74667">
        <ele>1347</ele>
        <time>2021-12-28T23:25:46Z</time>
      </trkpt>
      <trkpt lat="44.19635" lon="6.74667">
        <ele>1347</ele>
        <time>2021-12-28T23:25:46Z</time>
      </trkpt>
      <trkpt lat="44.1961" lon="6.74644">
        <ele>1341</ele>
        <time>2021-12-28T23:25:52Z</time>
      </trkpt>
      <trkpt lat="44.19584" lon="6.7463">
        <ele>1335</ele>
        <time>2021-12-28T23:25:57Z</time>
      </trkpt>
      <trkpt lat="44.19577" lon="6.74627">
        <ele>1334</ele>
        <time>2021-12-28T23:25:58Z</time>
      </trkpt>
      <trkpt lat="44.1957" lon="6.74628">
        <ele>1333</ele>
        <time>2021-12-28T23:25:59Z</time>
      </trkpt>
      <trkpt lat="44.19564" lon="6.74632">
        <ele>1333</ele>
        <time>2021-12-28T23:26:00Z</time>
      </trkpt>
      <trkpt lat="44.19559" lon="6.74638">
        <ele>1334</ele>
        <time>2021-12-28T23:26:02Z</time>
      </trkpt>
      <trkpt lat="44.19555" lon="6.74648">
        <ele>1336</ele>
        <time>2021-12-28T23:26:03Z</time>
      </trkpt>
      <trkpt lat="44.19553" lon="6.74658">
        <ele>1339</ele>
        <time>2021-12-28T23:26:04Z</time>
      </trkpt>
      <trkpt lat="44.19555" lon="6.74737">
        <ele>1359</ele>
        <time>2021-12-28T23:26:14Z</time>
      </trkpt>
      <trkpt lat="44.19554" lon="6.74747">
        <ele>1362</ele>
        <time>2021-12-28T23:26:16Z</time>
      </trkpt>
      <trkpt lat="44.1955" lon="6.74756">
        <ele>1363</ele>
        <time>2021-12-28T23:26:17Z</time>
      </trkpt>
      <trkpt lat="44.19545" lon="6.74762">
        <ele>1364</ele>
        <time>2021-12-28T23:26:18Z</time>
      </trkpt>
      <trkpt lat="44.19539" lon="6.74766">
        <ele>1365</ele>
        <time>2021-12-28T23:26:19Z</time>
      </trkpt>
      <trkpt lat="44.19531" lon="6.74767">
        <ele>1364</ele>
        <time>2021-12-28T23:26:21Z</time>
      </trkpt>
      <trkpt lat="44.19505" lon="6.74761">
        <ele>1361</ele>
        <time>2021-12-28T23:26:26Z</time>
      </trkpt>
      <trkpt lat="44.19488" lon="6.74759">
        <ele>1359</ele>
        <time>2021-12-28T23:26:29Z</time>
      </trkpt>
      <trkpt lat="44.19478" lon="6.74761">
        <ele>1359</ele>
        <time>2021-12-28T23:26:30Z</time>
      </trkpt>
      <trkpt lat="44.1947" lon="6.74765">
        <ele>1360</ele>
        <time>2021-12-28T23:26:32Z</time>
      </trkpt>
      <trkpt lat="44.19406" lon="6.74804">
        <ele>1360</ele>
        <time>2021-12-28T23:26:44Z</time>
      </trkpt>
      <trkpt lat="44.19402" lon="6.74809">
        <ele>1359</ele>
        <time>2021-12-28T23:26:45Z</time>
      </trkpt>
      <trkpt lat="44.19399" lon="6.7482">
        <ele>1360</ele>
        <time>2021-12-28T23:26:47Z</time>
      </trkpt>
      <trkpt lat="44.19401" lon="6.74827">
        <ele>1362</ele>
        <time>2021-12-28T23:26:48Z</time>
      </trkpt>
      <trkpt lat="44.19405" lon="6.74833">
        <ele>1364</ele>
        <time>2021-12-28T23:26:49Z</time>
      </trkpt>
      <trkpt lat="44.19411" lon="6.74834">
        <ele>1366</ele>
        <time>2021-12-28T23:26:50Z</time>
      </trkpt>
      <trkpt lat="44.19417" lon="6.74833">
        <ele>1368</ele>
        <time>2021-12-28T23:26:51Z</time>
      </trkpt>
      <trkpt lat="44.1946" lon="6.74806">
        <ele>1367</ele>
        <time>2021-12-28T23:26:59Z</time>
      </trkpt>
      <trkpt lat="44.19473" lon="6.74805">
        <ele>1368</ele>
        <time>2021-12-28T23:27:02Z</time>
      </trkpt>
      <trkpt lat="44.19478" lon="6.74809">
        <ele>1369</ele>
        <time>2021-12-28T23:27:03Z</time>
      </trkpt>
      <trkpt lat="44.19488" lon="6.74825">
        <ele>1373</ele>
        <time>2021-12-28T23:27:05Z</time>
      </trkpt>
      <trkpt lat="44.19495" lon="6.74849">
        <ele>1378</ele>
        <time>2021-12-28T23:27:09Z</time>
      </trkpt>
      <trkpt lat="44.19495" lon="6.74919">
        <ele>1391</ele>
        <time>2021-12-28T23:27:18Z</time>
      </trkpt>
      <trkpt lat="44.19498" lon="6.7493">
        <ele>1393</ele>
        <time>2021-12-28T23:27:19Z</time>
      </trkpt>
      <trkpt lat="44.19502" lon="6.74939">
        <ele>1395</ele>
        <time>2021-12-28T23:27:20Z</time>
      </trkpt>
      <trkpt lat="44.19508" lon="6.74945">
        <ele>1397</ele>
        <time>2021-12-28T23:27:22Z</time>
      </trkpt>
      <trkpt lat="44.19515" lon="6.74947">
        <ele>1398</ele>
        <time>2021-12-28T23:27:23Z</time>
      </trkpt>
      <trkpt lat="44.19523" lon="6.74946">
        <ele>1399</ele>
        <time>2021-12-28T23:27:24Z</time>
      </trkpt>
      <trkpt lat="44.19539" lon="6.74938">
        <ele>1399</ele>
        <time>2021-12-28T23:27:27Z</time>
      </trkpt>
      <trkpt lat="44.19546" lon="6.74932">
        <ele>1398</ele>
        <time>2021-12-28T23:27:29Z</time>
      </trkpt>
      <trkpt lat="44.19557" lon="6.74916">
        <ele>1396</ele>
        <time>2021-12-28T23:27:32Z</time>
      </trkpt>
      <trkpt lat="44.19564" lon="6.74899">
        <ele>1393</ele>
        <time>2021-12-28T23:27:34Z</time>
      </trkpt>
      <trkpt lat="44.19569" lon="6.7489">
        <ele>1392</ele>
        <time>2021-12-28T23:27:36Z</time>
      </trkpt>
      <trkpt lat="44.19597" lon="6.74859">
        <ele>1388</ele>
        <time>2021-12-28T23:27:42Z</time>
      </trkpt>
      <trkpt lat="44.19614" lon="6.74836">
        <ele>1385</ele>
        <time>2021-12-28T23:27:46Z</time>
      </trkpt>
      <trkpt lat="44.19619" lon="6.74833">
        <ele>1385</ele>
        <time>2021-12-28T23:27:47Z</time>
      </trkpt>
      <trkpt lat="44.19625" lon="6.74834">
        <ele>1386</ele>
        <time>2021-12-28T23:27:48Z</time>
      </trkpt>
      <trkpt lat="44.1963" lon="6.74838">
        <ele>1387</ele>
        <time>2021-12-28T23:27:49Z</time>
      </trkpt>
      <trkpt lat="44.1964" lon="6.74854">
        <ele>1391</ele>
        <time>2021-12-28T23:27:52Z</time>
      </trkpt>
      <trkpt lat="44.19667" lon="6.7492">
        <ele>1409</ele>
        <time>2021-12-28T23:28:02Z</time>
      </trkpt>
      <trkpt lat="44.19671" lon="6.74927">
        <ele>1412</ele>
        <time>2021-12-28T23:28:03Z</time>
      </trkpt>
      <trkpt lat="44.19676" lon="6.74932">
        <ele>1414</ele>
        <time>2021-12-28T23:28:04Z</time>
      </trkpt>
      <trkpt lat="44.19684" lon="6.74932">
        <ele>1416</ele>
        <time>2021-12-28T23:28:05Z</time>
      </trkpt>
      <trkpt lat="44.19691" lon="6.7493">
        <ele>1416</ele>
        <time>2021-12-28T23:28:07Z</time>
      </trkpt>
      <trkpt lat="44.19735" lon="6.749">
        <ele>1415</ele>
        <time>2021-12-28T23:28:15Z</time>
      </trkpt>
      <trkpt lat="44.19751" lon="6.74871">
        <ele>1408</ele>
        <time>2021-12-28T23:28:20Z</time>
      </trkpt>
      <trkpt lat="44.19758" lon="6.74865">
        <ele>1407</ele>
        <time>2021-12-28T23:28:22Z</time>
      </trkpt>
      <trkpt lat="44.19765" lon="6.74862">
        <ele>1408</ele>
        <time>2021-12-28T23:28:23Z</time>
      </trkpt>
      <trkpt lat="44.19771" lon="6.74863">
        <ele>1409</ele>
        <time>2021-12-28T23:28:24Z</time>
      </trkpt>
      <trkpt lat="44.19784" lon="6.74872">
        <ele>1413</ele>
        <time>2021-12-28T23:28:27Z</time>
      </trkpt>
      <trkpt lat="44.19802" lon="6.74898">
        <ele>1421</ele>
        <time>2021-12-28T23:28:31Z</time>
      </trkpt>
      <trkpt lat="44.19818" lon="6.74925">
        <ele>1429</ele>
        <time>2021-12-28T23:28:36Z</time>
      </trkpt>
      <trkpt lat="44.19828" lon="6.74936">
        <ele>1432</ele>
        <time>2021-12-28T23:28:38Z</time>
      </trkpt>
      <trkpt lat="44.19834" lon="6.74937">
        <ele>1433</ele>
        <time>2021-12-28T23:28:39Z</time>
      </trkpt>
      <trkpt lat="44.19839" lon="6.74935">
        <ele>1434</ele>
        <time>2021-12-28T23:28:40Z</time>
      </trkpt>
      <trkpt lat="44.19844" lon="6.74929">
        <ele>1434</ele>
        <time>2021-12-28T23:28:41Z</time>
      </trkpt>
      <trkpt lat="44.19847" lon="6.74922">
        <ele>1433</ele>
        <time>2021-12-28T23:28:42Z</time>
      </trkpt>
      <trkpt lat="44.19851" lon="6.74903">
        <ele>1430</ele>
        <time>2021-12-28T23:28:45Z</time>
      </trkpt>
      <trkpt lat="44.19861" lon="6.74871">
        <ele>1427</ele>
        <time>2021-12-28T23:28:49Z</time>
      </trkpt>
      <trkpt lat="44.19874" lon="6.74851">
        <ele>1427</ele>
        <time>2021-12-28T23:28:53Z</time>
      </trkpt>
      <trkpt lat="44.19882" lon="6.74844">
        <ele>1428</ele>
        <time>2021-12-28T23:28:54Z</time>
      </trkpt>
      <trkpt lat="44.19899" lon="6.74838">
        <ele>1433</ele>
        <time>2021-12-28T23:28:57Z</time>
      </trkpt>
      <trkpt lat="44.19938" lon="6.74835">
        <ele>1441</ele>
        <time>2021-12-28T23:29:04Z</time>
      </trkpt>
      <trkpt lat="44.20044" lon="6.74809">
        <ele>1454</ele>
        <time>2021-12-28T23:29:23Z</time>
      </trkpt>
      <trkpt lat="44.20053" lon="6.74803">
        <ele>1455</ele>
        <time>2021-12-28T23:29:25Z</time>
      </trkpt>
      <trkpt lat="44.2007" lon="6.74787">
        <ele>1455</ele>
        <time>2021-12-28T23:29:29Z</time>
      </trkpt>
      <trkpt lat="44.20098" lon="6.74742">
        <ele>1449</ele>
        <time>2021-12-28T23:29:36Z</time>
      </trkpt>
      <trkpt lat="44.20109" lon="6.74732">
        <ele>1450</ele>
        <time>2021-12-28T23:29:39Z</time>
      </trkpt>
      <trkpt lat="44.20122" lon="6.74729">
        <ele>1452</ele>
        <time>2021-12-28T23:29:41Z</time>
      </trkpt>
      <trkpt lat="44.20144" lon="6.74737">
        <ele>1459</ele>
        <time>2021-12-28T23:29:45Z</time>
      </trkpt>
      <trkpt lat="44.20152" lon="6.74738">
        <ele>1461</ele>
        <time>2021-12-28T23:29:47Z</time>
      </trkpt>
      <trkpt lat="44.20167" lon="6.74732">
        <ele>1463</ele>
        <time>2021-12-28T23:29:49Z</time>
      </trkpt>
      <trkpt lat="44.20191" lon="6.74715">
        <ele>1464</ele>
        <time>2021-12-28T23:29:54Z</time>
      </trkpt>
      <trkpt lat="44.20198" lon="6.74707">
        <ele>1464</ele>
        <time>2021-12-28T23:29:56Z</time>
      </trkpt>
      <trkpt lat="44.20223" lon="6.74664">
        <ele>1460</ele>
        <time>2021-12-28T23:30:03Z</time>
      </trkpt>
      <trkpt lat="44.2023" lon="6.74659">
        <ele>1460</ele>
        <time>2021-12-28T23:30:04Z</time>
      </trkpt>
      <trkpt lat="44.20237" lon="6.74656">
        <ele>1461</ele>
        <time>2021-12-28T23:30:06Z</time>
      </trkpt>
      <trkpt lat="44.20246" lon="6.74655">
        <ele>1462</ele>
        <time>2021-12-28T23:30:07Z</time>
      </trkpt>
      <trkpt lat="44.20346" lon="6.74681">
        <ele>1485</ele>
        <time>2021-12-28T23:30:25Z</time>
      </trkpt>
      <trkpt lat="44.20355" lon="6.7468">
        <ele>1488</ele>
        <time>2021-12-28T23:30:27Z</time>
      </trkpt>
      <trkpt lat="44.20365" lon="6.74676">
        <ele>1490</ele>
        <time>2021-12-28T23:30:29Z</time>
      </trkpt>
      <trkpt lat="44.20373" lon="6.74669">
        <ele>1491</ele>
        <time>2021-12-28T23:30:30Z</time>
      </trkpt>
      <trkpt lat="44.2038" lon="6.74659">
        <ele>1491</ele>
        <time>2021-12-28T23:30:32Z</time>
      </trkpt>
      <trkpt lat="44.20389" lon="6.74635">
        <ele>1489</ele>
        <time>2021-12-28T23:30:36Z</time>
      </trkpt>
      <trkpt lat="44.20395" lon="6.74598">
        <ele>1484</ele>
        <time>2021-12-28T23:30:40Z</time>
      </trkpt>
      <trkpt lat="44.20398" lon="6.74587">
        <ele>1483</ele>
        <time>2021-12-28T23:30:42Z</time>
      </trkpt>
      <trkpt lat="44.20403" lon="6.74579">
        <ele>1482</ele>
        <time>2021-12-28T23:30:43Z</time>
      </trkpt>
      <trkpt lat="44.20408" lon="6.74574">
        <ele>1482</ele>
        <time>2021-12-28T23:30:44Z</time>
      </trkpt>
      <trkpt lat="44.20416" lon="6.74571">
        <ele>1482</ele>
        <time>2021-12-28T23:30:46Z</time>
      </trkpt>
      <trkpt lat="44.20423" lon="6.74573">
        <ele>1484</ele>
        <time>2021-12-28T23:30:47Z</time>
      </trkpt>
      <trkpt lat="44.2043" lon="6.74577">
        <ele>1485</ele>
        <time>2021-12-28T23:30:48Z</time>
      </trkpt>
      <trkpt lat="44.20457" lon="6.74612">
        <ele>1496</ele>
        <time>2021-12-28T23:30:55Z</time>
      </trkpt>
      <trkpt lat="44.20465" lon="6.74619">
        <ele>1499</ele>
        <time>2021-12-28T23:30:57Z</time>
      </trkpt>
      <trkpt lat="44.20475" lon="6.74624">
        <ele>1501</ele>
        <time>2021-12-28T23:30:59Z</time>
      </trkpt>
      <trkpt lat="44.20485" lon="6.74624">
        <ele>1502</ele>
        <time>2021-12-28T23:31:00Z</time>
      </trkpt>
      <trkpt lat="44.20495" lon="6.74621">
        <ele>1502</ele>
        <time>2021-12-28T23:31:02Z</time>
      </trkpt>
      <trkpt lat="44.20599" lon="6.74575">
        <ele>1501</ele>
        <time>2021-12-28T23:31:22Z</time>
      </trkpt>
      <trkpt lat="44.20622" lon="6.74569">
        <ele>1501</ele>
        <time>2021-12-28T23:31:26Z</time>
      </trkpt>
      <trkpt lat="44.20669" lon="6.74573">
        <ele>1507</ele>
        <time>2021-12-28T23:31:34Z</time>
      </trkpt>
      <trkpt lat="44.20687" lon="6.74576">
        <ele>1509</ele>
        <time>2021-12-28T23:31:37Z</time>
      </trkpt>
      <trkpt lat="44.20702" lon="6.74587">
        <ele>1513</ele>
        <time>2021-12-28T23:31:40Z</time>
      </trkpt>
      <trkpt lat="44.20719" lon="6.74611">
        <ele>1521</ele>
        <time>2021-12-28T23:31:45Z</time>
      </trkpt>
      <trkpt lat="44.20731" lon="6.74618">
        <ele>1524</ele>
        <time>2021-12-28T23:31:47Z</time>
      </trkpt>
      <trkpt lat="44.20738" lon="6.74619">
        <ele>1525</ele>
        <time>2021-12-28T23:31:48Z</time>
      </trkpt>
      <trkpt lat="44.20746" lon="6.74617">
        <ele>1524</ele>
        <time>2021-12-28T23:31:50Z</time>
      </trkpt>
      <trkpt lat="44.20753" lon="6.74613">
        <ele>1524</ele>
        <time>2021-12-28T23:31:51Z</time>
      </trkpt>
      <trkpt lat="44.20813" lon="6.74559">
        <ele>1529</ele>
        <time>2021-12-28T23:32:04Z</time>
      </trkpt>
      <trkpt lat="44.20828" lon="6.74539">
        <ele>1530</ele>
        <time>2021-12-28T23:32:07Z</time>
      </trkpt>
      <trkpt lat="44.20847" lon="6.74504">
        <ele>1527</ele>
        <time>2021-12-28T23:32:13Z</time>
      </trkpt>
      <trkpt lat="44.20857" lon="6.74491">
        <ele>1525</ele>
        <time>2021-12-28T23:32:15Z</time>
      </trkpt>
      <trkpt lat="44.20883" lon="6.74469">
        <ele>1523</ele>
        <time>2021-12-28T23:32:21Z</time>
      </trkpt>
      <trkpt lat="44.20898" lon="6.74461">
        <ele>1522</ele>
        <time>2021-12-28T23:32:24Z</time>
      </trkpt>
      <trkpt lat="44.20905" lon="6.74461">
        <ele>1523</ele>
        <time>2021-12-28T23:32:25Z</time>
      </trkpt>
      <trkpt lat="44.20912" lon="6.74464">
        <ele>1526</ele>
        <time>2021-12-28T23:32:26Z</time>
      </trkpt>
      <trkpt lat="44.20917" lon="6.7447">
        <ele>1529</ele>
        <time>2021-12-28T23:32:27Z</time>
      </trkpt>
      <trkpt lat="44.20936" lon="6.74496">
        <ele>1531</ele>
        <time>2021-12-28T23:32:32Z</time>
      </trkpt>
      <trkpt lat="44.20956" lon="6.74529">
        <ele>1534</ele>
        <time>2021-12-28T23:32:38Z</time>
      </trkpt>
      <trkpt lat="44.20977" lon="6.74576">
        <ele>1545</ele>
        <time>2021-12-28T23:32:45Z</time>
      </trkpt>
      <trkpt lat="44.2099" lon="6.74597">
        <ele>1548</ele>
        <time>2021-12-28T23:32:48Z</time>
      </trkpt>
      <trkpt lat="44.21015" lon="6.74642">
        <ele>1557</ele>
        <time>2021-12-28T23:32:56Z</time>
      </trkpt>
      <trkpt lat="44.21021" lon="6.74651">
        <ele>1560</ele>
        <time>2021-12-28T23:32:57Z</time>
      </trkpt>
      <trkpt lat="44.21029" lon="6.74656">
        <ele>1560</ele>
        <time>2021-12-28T23:32:59Z</time>
      </trkpt>
      <trkpt lat="44.21039" lon="6.74658">
        <ele>1560</ele>
        <time>2021-12-28T23:33:01Z</time>
      </trkpt>
      <trkpt lat="44.21048" lon="6.74657">
        <ele>1558</ele>
        <time>2021-12-28T23:33:02Z</time>
      </trkpt>
      <trkpt lat="44.21075" lon="6.74649">
        <ele>1552</ele>
        <time>2021-12-28T23:33:07Z</time>
      </trkpt>
      <trkpt lat="44.21091" lon="6.7465">
        <ele>1550</ele>
        <time>2021-12-28T23:33:10Z</time>
      </trkpt>
      <trkpt lat="44.21097" lon="6.74654">
        <ele>1551</ele>
        <time>2021-12-28T23:33:11Z</time>
      </trkpt>
      <trkpt lat="44.21107" lon="6.74666">
        <ele>1555</ele>
        <time>2021-12-28T23:33:13Z</time>
      </trkpt>
      <trkpt lat="44.21123" lon="6.74695">
        <ele>1566</ele>
        <time>2021-12-28T23:33:18Z</time>
      </trkpt>
      <trkpt lat="44.21129" lon="6.74703">
        <ele>1569</ele>
        <time>2021-12-28T23:33:20Z</time>
      </trkpt>
      <trkpt lat="44.21135" lon="6.74708">
        <ele>1571</ele>
        <time>2021-12-28T23:33:21Z</time>
      </trkpt>
      <trkpt lat="44.21143" lon="6.74711">
        <ele>1572</ele>
        <time>2021-12-28T23:33:22Z</time>
      </trkpt>
      <trkpt lat="44.21169" lon="6.74711">
        <ele>1569</ele>
        <time>2021-12-28T23:33:27Z</time>
      </trkpt>
      <trkpt lat="44.21195" lon="6.74714">
        <ele>1569</ele>
        <time>2021-12-28T23:33:32Z</time>
      </trkpt>
      <trkpt lat="44.21203" lon="6.74716">
        <ele>1570</ele>
        <time>2021-12-28T23:33:33Z</time>
      </trkpt>
      <trkpt lat="44.21225" lon="6.7473">
        <ele>1575</ele>
        <time>2021-12-28T23:33:37Z</time>
      </trkpt>
      <trkpt lat="44.21233" lon="6.74732">
        <ele>1576</ele>
        <time>2021-12-28T23:33:39Z</time>
      </trkpt>
      <trkpt lat="44.21272" lon="6.74733">
        <ele>1571</ele>
        <time>2021-12-28T23:33:46Z</time>
      </trkpt>
      <trkpt lat="44.21282" lon="6.74736">
        <ele>1571</ele>
        <time>2021-12-28T23:33:48Z</time>
      </trkpt>
      <trkpt lat="44.21309" lon="6.74751">
        <ele>1573</ele>
        <time>2021-12-28T23:33:53Z</time>
      </trkpt>
      <trkpt lat="44.21335" lon="6.74777">
        <ele>1583</ele>
        <time>2021-12-28T23:33:58Z</time>
      </trkpt>
      <trkpt lat="44.21383" lon="6.74774">
        <ele>1580</ele>
        <time>2021-12-28T23:34:07Z</time>
      </trkpt>
      <trkpt lat="44.21409" lon="6.74778">
        <ele>1582</ele>
        <time>2021-12-28T23:34:12Z</time>
      </trkpt>
      <trkpt lat="44.21434" lon="6.74774">
        <ele>1580</ele>
        <time>2021-12-28T23:34:16Z</time>
      </trkpt>
      <trkpt lat="44.21466" lon="6.74773">
        <ele>1580</ele>
        <time>2021-12-28T23:34:22Z</time>
      </trkpt>
      <trkpt lat="44.21486" lon="6.74776">
        <ele>1581</ele>
        <time>2021-12-28T23:34:25Z</time>
      </trkpt>
      <trkpt lat="44.21496" lon="6.74779">
        <ele>1582</ele>
        <time>2021-12-28T23:34:27Z</time>
      </trkpt>
      <trkpt lat="44.21523" lon="6.74802">
        <ele>1586</ele>
        <time>2021-12-28T23:34:33Z</time>
      </trkpt>
      <trkpt lat="44.21538" lon="6.74812">
        <ele>1586</ele>
        <time>2021-12-28T23:34:36Z</time>
      </trkpt>
      <trkpt lat="44.21568" lon="6.74821">
        <ele>1583</ele>
        <time>2021-12-28T23:34:41Z</time>
      </trkpt>
      <trkpt lat="44.21586" lon="6.74832">
        <ele>1583</ele>
        <time>2021-12-28T23:34:45Z</time>
      </trkpt>
      <trkpt lat="44.21604" lon="6.74851">
        <ele>1585</ele>
        <time>2021-12-28T23:34:49Z</time>
      </trkpt>
      <trkpt lat="44.21607" lon="6.74861">
        <ele>1587</ele>
        <time>2021-12-28T23:34:50Z</time>
      </trkpt>
      <trkpt lat="44.21612" lon="6.7489">
        <ele>1595</ele>
        <time>2021-12-28T23:34:54Z</time>
      </trkpt>
      <trkpt lat="44.21618" lon="6.74899">
        <ele>1596</ele>
        <time>2021-12-28T23:34:55Z</time>
      </trkpt>
      <trkpt lat="44.2163" lon="6.74908">
        <ele>1597</ele>
        <time>2021-12-28T23:34:58Z</time>
      </trkpt>
      <trkpt lat="44.21644" lon="6.74912">
        <ele>1596</ele>
        <time>2021-12-28T23:35:00Z</time>
      </trkpt>
      <trkpt lat="44.21653" lon="6.7491">
        <ele>1593</ele>
        <time>2021-12-28T23:35:02Z</time>
      </trkpt>
      <trkpt lat="44.21678" lon="6.749">
        <ele>1591</ele>
        <time>2021-12-28T23:35:07Z</time>
      </trkpt>
      <trkpt lat="44.21725" lon="6.74887">
        <ele>1602</ele>
        <time>2021-12-28T23:35:15Z</time>
      </trkpt>
      <trkpt lat="44.21741" lon="6.74874">
        <ele>1600</ele>
        <time>2021-12-28T23:35:18Z</time>
      </trkpt>
      <trkpt lat="44.21793" lon="6.7482">
        <ele>1584</ele>
        <time>2021-12-28T23:35:30Z</time>
      </trkpt>
      <trkpt lat="44.21814" lon="6.74805">
        <ele>1581</ele>
        <time>2021-12-28T23:35:34Z</time>
      </trkpt>
      <trkpt lat="44.2184" lon="6.74783">
        <ele>1574</ele>
        <time>2021-12-28T23:35:40Z</time>
      </trkpt>
      <trkpt lat="44.21847" lon="6.7478">
        <ele>1573</ele>
        <time>2021-12-28T23:35:41Z</time>
      </trkpt>
      <trkpt lat="44.21876" lon="6.74784">
        <ele>1576</ele>
        <time>2021-12-28T23:35:46Z</time>
      </trkpt>
      <trkpt lat="44.21923" lon="6.74811">
        <ele>1586</ele>
        <time>2021-12-28T23:35:55Z</time>
      </trkpt>
      <trkpt lat="44.21931" lon="6.74812">
        <ele>1589</ele>
        <time>2021-12-28T23:35:57Z</time>
      </trkpt>
      <trkpt lat="44.21941" lon="6.74806">
        <ele>1590</ele>
        <time>2021-12-28T23:35:59Z</time>
      </trkpt>
      <trkpt lat="44.21952" lon="6.74786">
        <ele>1590</ele>
        <time>2021-12-28T23:36:02Z</time>
      </trkpt>
      <trkpt lat="44.21965" lon="6.74754">
        <ele>1591</ele>
        <time>2021-12-28T23:36:06Z</time>
      </trkpt>
      <trkpt lat="44.21974" lon="6.74721">
        <ele>1595</ele>
        <time>2021-12-28T23:36:11Z</time>
      </trkpt>
      <trkpt lat="44.21985" lon="6.74695">
        <ele>1600</ele>
        <time>2021-12-28T23:36:15Z</time>
      </trkpt>
      <trkpt lat="44.21988" lon="6.74678">
        <ele>1602</ele>
        <time>2021-12-28T23:36:17Z</time>
      </trkpt>
      <trkpt lat="44.21988" lon="6.74645">
        <ele>1607</ele>
        <time>2021-12-28T23:36:21Z</time>
      </trkpt>
      <trkpt lat="44.21983" lon="6.74625">
        <ele>1609</ele>
        <time>2021-12-28T23:36:24Z</time>
      </trkpt>
      <trkpt lat="44.21978" lon="6.74614">
        <ele>1609</ele>
        <time>2021-12-28T23:36:26Z</time>
      </trkpt>
      <trkpt lat="44.21966" lon="6.74601">
        <ele>1607</ele>
        <time>2021-12-28T23:36:28Z</time>
      </trkpt>
      <trkpt lat="44.21953" lon="6.7459">
        <ele>1605</ele>
        <time>2021-12-28T23:36:31Z</time>
      </trkpt>
      <trkpt lat="44.21894" lon="6.74583">
        <ele>1582</ele>
        <time>2021-12-28T23:36:42Z</time>
      </trkpt>
      <trkpt lat="44.21883" lon="6.74578">
        <ele>1578</ele>
        <time>2021-12-28T23:36:44Z</time>
      </trkpt>
      <trkpt lat="44.2188" lon="6.74575">
        <ele>1578</ele>
        <time>2021-12-28T23:36:44Z</time>
      </trkpt>
      <trkpt lat="44.21876" lon="6.74567">
        <ele>1580</ele>
        <time>2021-12-28T23:36:45Z</time>
      </trkpt>
      <trkpt lat="44.21876" lon="6.74562">
        <ele>1582</ele>
        <time>2021-12-28T23:36:46Z</time>
      </trkpt>
      <trkpt lat="44.21881" lon="6.74551">
        <ele>1589</ele>
        <time>2021-12-28T23:36:48Z</time>
      </trkpt>
      <trkpt lat="44.21889" lon="6.74549">
        <ele>1593</ele>
        <time>2021-12-28T23:36:49Z</time>
      </trkpt>
      <trkpt lat="44.21905" lon="6.74561">
        <ele>1595</ele>
        <time>2021-12-28T23:36:52Z</time>
      </trkpt>
      <trkpt lat="44.21919" lon="6.74567">
        <ele>1599</ele>
        <time>2021-12-28T23:36:55Z</time>
      </trkpt>
      <trkpt lat="44.21938" lon="6.74565">
        <ele>1607</ele>
        <time>2021-12-28T23:36:58Z</time>
      </trkpt>
      <trkpt lat="44.21984" lon="6.74568">
        <ele>1624</ele>
        <time>2021-12-28T23:37:07Z</time>
      </trkpt>
      <trkpt lat="44.22008" lon="6.74581">
        <ele>1629</ele>
        <time>2021-12-28T23:37:11Z</time>
      </trkpt>
      <trkpt lat="44.22014" lon="6.74588">
        <ele>1630</ele>
        <time>2021-12-28T23:37:13Z</time>
      </trkpt>
      <trkpt lat="44.22038" lon="6.74628">
        <ele>1633</ele>
        <time>2021-12-28T23:37:19Z</time>
      </trkpt>
      <trkpt lat="44.22069" lon="6.74697">
        <ele>1638</ele>
        <time>2021-12-28T23:37:30Z</time>
      </trkpt>
      <trkpt lat="44.22081" lon="6.74718">
        <ele>1641</ele>
        <time>2021-12-28T23:37:33Z</time>
      </trkpt>
      <trkpt lat="44.22135" lon="6.74782">
        <ele>1645</ele>
        <time>2021-12-28T23:37:46Z</time>
      </trkpt>
      <trkpt lat="44.22152" lon="6.74798">
        <ele>1645</ele>
        <time>2021-12-28T23:37:49Z</time>
      </trkpt>
      <trkpt lat="44.22162" lon="6.74803">
        <ele>1646</ele>
        <time>2021-12-28T23:37:51Z</time>
      </trkpt>
      <trkpt lat="44.22219" lon="6.74816">
        <ele>1652</ele>
        <time>2021-12-28T23:38:02Z</time>
      </trkpt>
      <trkpt lat="44.22243" lon="6.74819">
        <ele>1655</ele>
        <time>2021-12-28T23:38:06Z</time>
      </trkpt>
      <trkpt lat="44.22318" lon="6.74811">
        <ele>1665</ele>
        <time>2021-12-28T23:38:19Z</time>
      </trkpt>
      <trkpt lat="44.22368" lon="6.74811">
        <ele>1670</ele>
        <time>2021-12-28T23:38:28Z</time>
      </trkpt>
      <trkpt lat="44.22419" lon="6.74819">
        <ele>1674</ele>
        <time>2021-12-28T23:38:37Z</time>
      </trkpt>
      <trkpt lat="44.22478" lon="6.74825">
        <ele>1683</ele>
        <time>2021-12-28T23:38:48Z</time>
      </trkpt>
      <trkpt lat="44.22496" lon="6.74832">
        <ele>1685</ele>
        <time>2021-12-28T23:38:51Z</time>
      </trkpt>
      <trkpt lat="44.22528" lon="6.7486">
        <ele>1681</ele>
        <time>2021-12-28T23:38:58Z</time>
      </trkpt>
      <trkpt lat="44.22537" lon="6.74863">
        <ele>1681</ele>
        <time>2021-12-28T23:38:59Z</time>
      </trkpt>
      <trkpt lat="44.22547" lon="6.74863">
        <ele>1682</ele>
        <time>2021-12-28T23:39:01Z</time>
      </trkpt>
      <trkpt lat="44.22585" lon="6.74855">
        <ele>1690</ele>
        <time>2021-12-28T23:39:08Z</time>
      </trkpt>
      <trkpt lat="44.22604" lon="6.74853">
        <ele>1692</ele>
        <time>2021-12-28T23:39:11Z</time>
      </trkpt>
      <trkpt lat="44.22613" lon="6.74855">
        <ele>1692</ele>
        <time>2021-12-28T23:39:13Z</time>
      </trkpt>
      <trkpt lat="44.22623" lon="6.7486">
        <ele>1691</ele>
        <time>2021-12-28T23:39:15Z</time>
      </trkpt>
      <trkpt lat="44.22654" lon="6.74881">
        <ele>1688</ele>
        <time>2021-12-28T23:39:21Z</time>
      </trkpt>
      <trkpt lat="44.22663" lon="6.74884">
        <ele>1688</ele>
        <time>2021-12-28T23:39:23Z</time>
      </trkpt>
      <trkpt lat="44.22684" lon="6.74881">
        <ele>1692</ele>
        <time>2021-12-28T23:39:26Z</time>
      </trkpt>
      <trkpt lat="44.22726" lon="6.74865">
        <ele>1703</ele>
        <time>2021-12-28T23:39:34Z</time>
      </trkpt>
      <trkpt lat="44.22737" lon="6.74864">
        <ele>1706</ele>
        <time>2021-12-28T23:39:36Z</time>
      </trkpt>
      <trkpt lat="44.22747" lon="6.74865">
        <ele>1707</ele>
        <time>2021-12-28T23:39:38Z</time>
      </trkpt>
      <trkpt lat="44.22757" lon="6.7487">
        <ele>1707</ele>
        <time>2021-12-28T23:39:40Z</time>
      </trkpt>
      <trkpt lat="44.22774" lon="6.74884">
        <ele>1704</ele>
        <time>2021-12-28T23:39:43Z</time>
      </trkpt>
      <trkpt lat="44.22783" lon="6.74888">
        <ele>1704</ele>
        <time>2021-12-28T23:39:45Z</time>
      </trkpt>
      <trkpt lat="44.22793" lon="6.74889">
        <ele>1705</ele>
        <time>2021-12-28T23:39:47Z</time>
      </trkpt>
      <trkpt lat="44.22833" lon="6.74881">
        <ele>1713</ele>
        <time>2021-12-28T23:39:54Z</time>
      </trkpt>
      <trkpt lat="44.22843" lon="6.74883">
        <ele>1713</ele>
        <time>2021-12-28T23:39:56Z</time>
      </trkpt>
      <trkpt lat="44.22853" lon="6.74888">
        <ele>1713</ele>
        <time>2021-12-28T23:39:58Z</time>
      </trkpt>
      <trkpt lat="44.2287" lon="6.749">
        <ele>1712</ele>
        <time>2021-12-28T23:40:01Z</time>
      </trkpt>
      <trkpt lat="44.22879" lon="6.74904">
        <ele>1713</ele>
        <time>2021-12-28T23:40:03Z</time>
      </trkpt>
      <trkpt lat="44.2289" lon="6.74905">
        <ele>1714</ele>
        <time>2021-12-28T23:40:05Z</time>
      </trkpt>
      <trkpt lat="44.22899" lon="6.74903">
        <ele>1715</ele>
        <time>2021-12-28T23:40:06Z</time>
      </trkpt>
      <trkpt lat="44.22984" lon="6.74874">
        <ele>1730</ele>
        <time>2021-12-28T23:40:22Z</time>
      </trkpt>
      <trkpt lat="44.23007" lon="6.74873">
        <ele>1734</ele>
        <time>2021-12-28T23:40:26Z</time>
      </trkpt>
      <trkpt lat="44.23018" lon="6.74876">
        <ele>1737</ele>
        <time>2021-12-28T23:40:28Z</time>
      </trkpt>
      <trkpt lat="44.23027" lon="6.74881">
        <ele>1739</ele>
        <time>2021-12-28T23:40:30Z</time>
      </trkpt>
      <trkpt lat="44.23035" lon="6.74889">
        <ele>1740</ele>
        <time>2021-12-28T23:40:32Z</time>
      </trkpt>
      <trkpt lat="44.23043" lon="6.74899">
        <ele>1740</ele>
        <time>2021-12-28T23:40:33Z</time>
      </trkpt>
      <trkpt lat="44.23052" lon="6.74922">
        <ele>1738</ele>
        <time>2021-12-28T23:40:37Z</time>
      </trkpt>
      <trkpt lat="44.23057" lon="6.74953">
        <ele>1734</ele>
        <time>2021-12-28T23:40:41Z</time>
      </trkpt>
      <trkpt lat="44.23061" lon="6.74961">
        <ele>1733</ele>
        <time>2021-12-28T23:40:42Z</time>
      </trkpt>
      <trkpt lat="44.23066" lon="6.74966">
        <ele>1734</ele>
        <time>2021-12-28T23:40:43Z</time>
      </trkpt>
      <trkpt lat="44.23073" lon="6.74971">
        <ele>1735</ele>
        <time>2021-12-28T23:40:45Z</time>
      </trkpt>
      <trkpt lat="44.23092" lon="6.74977">
        <ele>1740</ele>
        <time>2021-12-28T23:40:48Z</time>
      </trkpt>
      <trkpt lat="44.23113" lon="6.74988">
        <ele>1746</ele>
        <time>2021-12-28T23:40:52Z</time>
      </trkpt>
      <trkpt lat="44.23131" lon="6.75003">
        <ele>1749</ele>
        <time>2021-12-28T23:40:56Z</time>
      </trkpt>
      <trkpt lat="44.23144" lon="6.75024">
        <ele>1751</ele>
        <time>2021-12-28T23:40:59Z</time>
      </trkpt>
      <trkpt lat="44.23149" lon="6.75047">
        <ele>1750</ele>
        <time>2021-12-28T23:41:02Z</time>
      </trkpt>
      <trkpt lat="44.23149" lon="6.7507">
        <ele>1746</ele>
        <time>2021-12-28T23:41:05Z</time>
      </trkpt>
      <trkpt lat="44.23151" lon="6.7508">
        <ele>1745</ele>
        <time>2021-12-28T23:41:07Z</time>
      </trkpt>
      <trkpt lat="44.23154" lon="6.75088">
        <ele>1745</ele>
        <time>2021-12-28T23:41:08Z</time>
      </trkpt>
      <trkpt lat="44.23158" lon="6.75096">
        <ele>1745</ele>
        <time>2021-12-28T23:41:09Z</time>
      </trkpt>
      <trkpt lat="44.23165" lon="6.75101">
        <ele>1747</ele>
        <time>2021-12-28T23:41:10Z</time>
      </trkpt>
      <trkpt lat="44.23174" lon="6.75105">
        <ele>1748</ele>
        <time>2021-12-28T23:41:12Z</time>
      </trkpt>
      <trkpt lat="44.23184" lon="6.75106">
        <ele>1750</ele>
        <time>2021-12-28T23:41:14Z</time>
      </trkpt>
      <trkpt lat="44.23217" lon="6.75102">
        <ele>1759</ele>
        <time>2021-12-28T23:41:20Z</time>
      </trkpt>
      <trkpt lat="44.23227" lon="6.75103">
        <ele>1762</ele>
        <time>2021-12-28T23:41:22Z</time>
      </trkpt>
      <trkpt lat="44.23236" lon="6.75106">
        <ele>1763</ele>
        <time>2021-12-28T23:41:23Z</time>
      </trkpt>
      <trkpt lat="44.23244" lon="6.75113">
        <ele>1765</ele>
        <time>2021-12-28T23:41:25Z</time>
      </trkpt>
      <trkpt lat="44.2325" lon="6.75122">
        <ele>1765</ele>
        <time>2021-12-28T23:41:26Z</time>
      </trkpt>
      <trkpt lat="44.23255" lon="6.75133">
        <ele>1764</ele>
        <time>2021-12-28T23:41:28Z</time>
      </trkpt>
      <trkpt lat="44.23257" lon="6.75157">
        <ele>1762</ele>
        <time>2021-12-28T23:41:31Z</time>
      </trkpt>
      <trkpt lat="44.23261" lon="6.75179">
        <ele>1759</ele>
        <time>2021-12-28T23:41:34Z</time>
      </trkpt>
      <trkpt lat="44.23266" lon="6.75189">
        <ele>1758</ele>
        <time>2021-12-28T23:41:36Z</time>
      </trkpt>
      <trkpt lat="44.23284" lon="6.75201">
        <ele>1760</ele>
        <time>2021-12-28T23:41:39Z</time>
      </trkpt>
      <trkpt lat="44.23324" lon="6.7522">
        <ele>1766</ele>
        <time>2021-12-28T23:41:47Z</time>
      </trkpt>
      <trkpt lat="44.23361" lon="6.75234">
        <ele>1767</ele>
        <time>2021-12-28T23:41:53Z</time>
      </trkpt>
      <trkpt lat="44.23391" lon="6.75242">
        <ele>1768</ele>
        <time>2021-12-28T23:41:59Z</time>
      </trkpt>
      <trkpt lat="44.23489" lon="6.75241">
        <ele>1778</ele>
        <time>2021-12-28T23:42:16Z</time>
      </trkpt>
      <trkpt lat="44.23499" lon="6.75239">
        <ele>1779</ele>
        <time>2021-12-28T23:42:18Z</time>
      </trkpt>
      <trkpt lat="44.23509" lon="6.75231">
        <ele>1779</ele>
        <time>2021-12-28T23:42:20Z</time>
      </trkpt>
      <trkpt lat="44.23573" lon="6.75128">
        <ele>1785</ele>
        <time>2021-12-28T23:42:38Z</time>
      </trkpt>
      <trkpt lat="44.23583" lon="6.75114">
        <ele>1787</ele>
        <time>2021-12-28T23:42:40Z</time>
      </trkpt>
      <trkpt lat="44.23594" lon="6.75108">
        <ele>1788</ele>
        <time>2021-12-28T23:42:42Z</time>
      </trkpt>
      <trkpt lat="44.23605" lon="6.75107">
        <ele>1788</ele>
        <time>2021-12-28T23:42:44Z</time>
      </trkpt>
      <trkpt lat="44.23694" lon="6.75149">
        <ele>1786</ele>
        <time>2021-12-28T23:43:01Z</time>
      </trkpt>
      <trkpt lat="44.23712" lon="6.75155">
        <ele>1787</ele>
        <time>2021-12-28T23:43:04Z</time>
      </trkpt>
      <trkpt lat="44.23751" lon="6.75159">
        <ele>1791</ele>
        <time>2021-12-28T23:43:11Z</time>
      </trkpt>
      <trkpt lat="44.23777" lon="6.7516">
        <ele>1793</ele>
        <time>2021-12-28T23:43:16Z</time>
      </trkpt>
      <trkpt lat="44.23786" lon="6.75155">
        <ele>1795</ele>
        <time>2021-12-28T23:43:18Z</time>
      </trkpt>
      <trkpt lat="44.23826" lon="6.75111">
        <ele>1807</ele>
        <time>2021-12-28T23:43:27Z</time>
      </trkpt>
      <trkpt lat="44.23835" lon="6.75107">
        <ele>1809</ele>
        <time>2021-12-28T23:43:28Z</time>
      </trkpt>
      <trkpt lat="44.23845" lon="6.75106">
        <ele>1812</ele>
        <time>2021-12-28T23:43:30Z</time>
      </trkpt>
      <trkpt lat="44.23857" lon="6.75107">
        <ele>1814</ele>
        <time>2021-12-28T23:43:32Z</time>
      </trkpt>
      <trkpt lat="44.2387" lon="6.75113">
        <ele>1815</ele>
        <time>2021-12-28T23:43:35Z</time>
      </trkpt>
      <trkpt lat="44.23884" lon="6.75128">
        <ele>1814</ele>
        <time>2021-12-28T23:43:38Z</time>
      </trkpt>
      <trkpt lat="44.23901" lon="6.75152">
        <ele>1810</ele>
        <time>2021-12-28T23:43:42Z</time>
      </trkpt>
      <trkpt lat="44.23908" lon="6.75159">
        <ele>1809</ele>
        <time>2021-12-28T23:43:44Z</time>
      </trkpt>
      <trkpt lat="44.23927" lon="6.75169">
        <ele>1810</ele>
        <time>2021-12-28T23:43:47Z</time>
      </trkpt>
      <trkpt lat="44.23949" lon="6.75176">
        <ele>1813</ele>
        <time>2021-12-28T23:43:51Z</time>
      </trkpt>
      <trkpt lat="44.24021" lon="6.75197">
        <ele>1822</ele>
        <time>2021-12-28T23:44:04Z</time>
      </trkpt>
      <trkpt lat="44.24096" lon="6.75244">
        <ele>1825</ele>
        <time>2021-12-28T23:44:19Z</time>
      </trkpt>
      <trkpt lat="44.24117" lon="6.75249">
        <ele>1827</ele>
        <time>2021-12-28T23:44:23Z</time>
      </trkpt>
      <trkpt lat="44.2416" lon="6.75241">
        <ele>1836</ele>
        <time>2021-12-28T23:44:30Z</time>
      </trkpt>
      <trkpt lat="44.24171" lon="6.7524">
        <ele>1838</ele>
        <time>2021-12-28T23:44:32Z</time>
      </trkpt>
      <trkpt lat="44.24193" lon="6.75245">
        <ele>1842</ele>
        <time>2021-12-28T23:44:36Z</time>
      </trkpt>
      <trkpt lat="44.24211" lon="6.75258">
        <ele>1843</ele>
        <time>2021-12-28T23:44:40Z</time>
      </trkpt>
      <trkpt lat="44.24224" lon="6.7528">
        <ele>1843</ele>
        <time>2021-12-28T23:44:44Z</time>
      </trkpt>
      <trkpt lat="44.24276" lon="6.75446">
        <ele>1847</ele>
        <time>2021-12-28T23:45:07Z</time>
      </trkpt>
      <trkpt lat="44.24338" lon="6.75633">
        <ele>1864</ele>
        <time>2021-12-28T23:45:33Z</time>
      </trkpt>
      <trkpt lat="44.24348" lon="6.75653">
        <ele>1865</ele>
        <time>2021-12-28T23:45:36Z</time>
      </trkpt>
      <trkpt lat="44.2436" lon="6.75668">
        <ele>1867</ele>
        <time>2021-12-28T23:45:39Z</time>
      </trkpt>
      <trkpt lat="44.24372" lon="6.75681">
        <ele>1868</ele>
        <time>2021-12-28T23:45:42Z</time>
      </trkpt>
      <trkpt lat="44.24391" lon="6.75692">
        <ele>1869</ele>
        <time>2021-12-28T23:45:45Z</time>
      </trkpt>
      <trkpt lat="44.24477" lon="6.75719">
        <ele>1878</ele>
        <time>2021-12-28T23:46:01Z</time>
      </trkpt>
      <trkpt lat="44.24483" lon="6.75719">
        <ele>1879</ele>
        <time>2021-12-28T23:46:02Z</time>
      </trkpt>
      <trkpt lat="44.24487" lon="6.75715">
        <ele>1880</ele>
        <time>2021-12-28T23:46:03Z</time>
      </trkpt>
      <trkpt lat="44.24489" lon="6.75707">
        <ele>1881</ele>
        <time>2021-12-28T23:46:04Z</time>
      </trkpt>
      <trkpt lat="44.24487" lon="6.757">
        <ele>1881</ele>
        <time>2021-12-28T23:46:05Z</time>
      </trkpt>
      <trkpt lat="44.24482" lon="6.75695">
        <ele>1881</ele>
        <time>2021-12-28T23:46:06Z</time>
      </trkpt>
      <trkpt lat="44.24458" lon="6.75676">
        <ele>1879</ele>
        <time>2021-12-28T23:46:11Z</time>
      </trkpt>
      <trkpt lat="44.24446" lon="6.75662">
        <ele>1878</ele>
        <time>2021-12-28T23:46:14Z</time>
      </trkpt>
      <trkpt lat="44.24437" lon="6.75646">
        <ele>1877</ele>
        <time>2021-12-28T23:46:16Z</time>
      </trkpt>
      <trkpt lat="44.24434" lon="6.75626">
        <ele>1877</ele>
        <time>2021-12-28T23:46:19Z</time>
      </trkpt>
      <trkpt lat="44.24436" lon="6.75617">
        <ele>1877</ele>
        <time>2021-12-28T23:46:20Z</time>
      </trkpt>
      <trkpt lat="44.24452" lon="6.75589">
        <ele>1881</ele>
        <time>2021-12-28T23:46:25Z</time>
      </trkpt>
      <trkpt lat="44.24459" lon="6.7557">
        <ele>1884</ele>
        <time>2021-12-28T23:46:27Z</time>
      </trkpt>
      <trkpt lat="44.24462" lon="6.75558">
        <ele>1886</ele>
        <time>2021-12-28T23:46:29Z</time>
      </trkpt>
      <trkpt lat="44.24462" lon="6.75534">
        <ele>1889</ele>
        <time>2021-12-28T23:46:32Z</time>
      </trkpt>
      <trkpt lat="44.2446" lon="6.75523">
        <ele>1889</ele>
        <time>2021-12-28T23:46:34Z</time>
      </trkpt>
      <trkpt lat="44.24453" lon="6.75507">
        <ele>1889</ele>
        <time>2021-12-28T23:46:36Z</time>
      </trkpt>
      <trkpt lat="44.24404" lon="6.75414">
        <ele>1891</ele>
        <time>2021-12-28T23:46:51Z</time>
      </trkpt>
      <trkpt lat="44.24402" lon="6.75409">
        <ele>1891</ele>
        <time>2021-12-28T23:46:51Z</time>
      </trkpt>
      <trkpt lat="44.24404" lon="6.75403">
        <ele>1894</ele>
        <time>2021-12-28T23:46:52Z</time>
      </trkpt>
      <trkpt lat="44.24409" lon="6.75399">
        <ele>1897</ele>
        <time>2021-12-28T23:46:53Z</time>
      </trkpt>
      <trkpt lat="44.24414" lon="6.75401">
        <ele>1898</ele>
        <time>2021-12-28T23:46:54Z</time>
      </trkpt>
      <trkpt lat="44.24423" lon="6.75429">
        <ele>1895</ele>
        <time>2021-12-28T23:46:58Z</time>
      </trkpt>
      <trkpt lat="44.24434" lon="6.75452">
        <ele>1895</ele>
        <time>2021-12-28T23:47:02Z</time>
      </trkpt>
      <trkpt lat="44.24447" lon="6.75466">
        <ele>1897</ele>
        <time>2021-12-28T23:47:05Z</time>
      </trkpt>
      <trkpt lat="44.24515" lon="6.7551">
        <ele>1909</ele>
        <time>2021-12-28T23:47:18Z</time>
      </trkpt>
      <trkpt lat="44.24551" lon="6.75536">
        <ele>1915</ele>
        <time>2021-12-28T23:47:25Z</time>
      </trkpt>
      <trkpt lat="44.24603" lon="6.75583">
        <ele>1914</ele>
        <time>2021-12-28T23:47:36Z</time>
      </trkpt>
      <trkpt lat="44.24623" lon="6.75601">
        <ele>1918</ele>
        <time>2021-12-28T23:47:40Z</time>
      </trkpt>
      <trkpt lat="44.24649" lon="6.75629">
        <ele>1922</ele>
        <time>2021-12-28T23:47:46Z</time>
      </trkpt>
      <trkpt lat="44.24658" lon="6.75645">
        <ele>1923</ele>
        <time>2021-12-28T23:47:49Z</time>
      </trkpt>
      <trkpt lat="44.24662" lon="6.75656">
        <ele>1924</ele>
        <time>2021-12-28T23:47:50Z</time>
      </trkpt>
      <trkpt lat="44.24679" lon="6.75798">
        <ele>1930</ele>
        <time>2021-12-28T23:48:09Z</time>
      </trkpt>
      <trkpt lat="44.2469" lon="6.7594">
        <ele>1933</ele>
        <time>2021-12-28T23:48:27Z</time>
      </trkpt>
      <trkpt lat="44.24694" lon="6.75963">
        <ele>1934</ele>
        <time>2021-12-28T23:48:30Z</time>
      </trkpt>
      <trkpt lat="44.24697" lon="6.75972">
        <ele>1934</ele>
        <time>2021-12-28T23:48:31Z</time>
      </trkpt>
      <trkpt lat="44.24703" lon="6.7598">
        <ele>1937</ele>
        <time>2021-12-28T23:48:33Z</time>
      </trkpt>
      <trkpt lat="44.24716" lon="6.75993">
        <ele>1941</ele>
        <time>2021-12-28T23:48:36Z</time>
      </trkpt>
      <trkpt lat="44.24734" lon="6.76007">
        <ele>1947</ele>
        <time>2021-12-28T23:48:39Z</time>
      </trkpt>
      <trkpt lat="44.24773" lon="6.76031">
        <ele>1958</ele>
        <time>2021-12-28T23:48:47Z</time>
      </trkpt>
      <trkpt lat="44.24781" lon="6.76038">
        <ele>1959</ele>
        <time>2021-12-28T23:48:48Z</time>
      </trkpt>
      <trkpt lat="44.24788" lon="6.76048">
        <ele>1959</ele>
        <time>2021-12-28T23:48:50Z</time>
      </trkpt>
      <trkpt lat="44.24822" lon="6.76127">
        <ele>1957</ele>
        <time>2021-12-28T23:49:02Z</time>
      </trkpt>
      <trkpt lat="44.24843" lon="6.76184">
        <ele>1958</ele>
        <time>2021-12-28T23:49:10Z</time>
      </trkpt>
      <trkpt lat="44.24877" lon="6.76322">
        <ele>1968</ele>
        <time>2021-12-28T23:49:29Z</time>
      </trkpt>
      <trkpt lat="44.24889" lon="6.76346">
        <ele>1971</ele>
        <time>2021-12-28T23:49:32Z</time>
      </trkpt>
      <trkpt lat="44.24926" lon="6.76399">
        <ele>1978</ele>
        <time>2021-12-28T23:49:42Z</time>
      </trkpt>
      <trkpt lat="44.24938" lon="6.76422">
        <ele>1979</ele>
        <time>2021-12-28T23:49:46Z</time>
      </trkpt>
      <trkpt lat="44.24943" lon="6.76446">
        <ele>1981</ele>
        <time>2021-12-28T23:49:49Z</time>
      </trkpt>
      <trkpt lat="44.24942" lon="6.76519">
        <ele>1982</ele>
        <time>2021-12-28T23:49:58Z</time>
      </trkpt>
      <trkpt lat="44.24943" lon="6.76531">
        <ele>1983</ele>
        <time>2021-12-28T23:50:00Z</time>
      </trkpt>
      <trkpt lat="44.24945" lon="6.76542">
        <ele>1984</ele>
        <time>2021-12-28T23:50:01Z</time>
      </trkpt>
      <trkpt lat="44.24949" lon="6.76551">
        <ele>1985</ele>
        <time>2021-12-28T23:50:02Z</time>
      </trkpt>
      <trkpt lat="44.24956" lon="6.76557">
        <ele>1988</ele>
        <time>2021-12-28T23:50:04Z</time>
      </trkpt>
      <trkpt lat="44.24963" lon="6.76559">
        <ele>1990</ele>
        <time>2021-12-28T23:50:05Z</time>
      </trkpt>
      <trkpt lat="44.24971" lon="6.76558">
        <ele>1992</ele>
        <time>2021-12-28T23:50:07Z</time>
      </trkpt>
      <trkpt lat="44.24978" lon="6.76553">
        <ele>1993</ele>
        <time>2021-12-28T23:50:08Z</time>
      </trkpt>
      <trkpt lat="44.24982" lon="6.76542">
        <ele>1994</ele>
        <time>2021-12-28T23:50:09Z</time>
      </trkpt>
      <trkpt lat="44.24987" lon="6.76521">
        <ele>1994</ele>
        <time>2021-12-28T23:50:12Z</time>
      </trkpt>
      <trkpt lat="44.25001" lon="6.76419">
        <ele>1998</ele>
        <time>2021-12-28T23:50:26Z</time>
      </trkpt>
      <trkpt lat="44.25" lon="6.76399">
        <ele>2000</ele>
        <time>2021-12-28T23:50:28Z</time>
      </trkpt>
      <trkpt lat="44.24997" lon="6.7638">
        <ele>2001</ele>
        <time>2021-12-28T23:50:31Z</time>
      </trkpt>
      <trkpt lat="44.24985" lon="6.76324">
        <ele>2003</ele>
        <time>2021-12-28T23:50:38Z</time>
      </trkpt>
      <trkpt lat="44.24978" lon="6.76223">
        <ele>2012</ele>
        <time>2021-12-28T23:50:51Z</time>
      </trkpt>
      <trkpt lat="44.24957" lon="6.76134">
        <ele>2014</ele>
        <time>2021-12-28T23:51:03Z</time>
      </trkpt>
      <trkpt lat="44.2495" lon="6.76045">
        <ele>2027</ele>
        <time>2021-12-28T23:51:14Z</time>
      </trkpt>
      <trkpt lat="44.24947" lon="6.7603">
        <ele>2029</ele>
        <time>2021-12-28T23:51:16Z</time>
      </trkpt>
      <trkpt lat="44.24934" lon="6.76009">
        <ele>2026</ele>
        <time>2021-12-28T23:51:20Z</time>
      </trkpt>
      <trkpt lat="44.24917" lon="6.7596">
        <ele>2027</ele>
        <time>2021-12-28T23:51:27Z</time>
      </trkpt>
      <trkpt lat="44.24911" lon="6.75942">
        <ele>2028</ele>
        <time>2021-12-28T23:51:29Z</time>
      </trkpt>
      <trkpt lat="44.249" lon="6.75878">
        <ele>2040</ele>
        <time>2021-12-28T23:51:38Z</time>
      </trkpt>
      <trkpt lat="44.2489" lon="6.75854">
        <ele>2043</ele>
        <time>2021-12-28T23:51:41Z</time>
      </trkpt>
      <trkpt lat="44.24878" lon="6.75838">
        <ele>2043</ele>
        <time>2021-12-28T23:51:44Z</time>
      </trkpt>
      <trkpt lat="44.24855" lon="6.75812">
        <ele>2041</ele>
        <time>2021-12-28T23:51:49Z</time>
      </trkpt>
      <trkpt lat="44.24838" lon="6.75796">
        <ele>2039</ele>
        <time>2021-12-28T23:51:53Z</time>
      </trkpt>
      <trkpt lat="44.24828" lon="6.7577">
        <ele>2041</ele>
        <time>2021-12-28T23:51:57Z</time>
      </trkpt>
      <trkpt lat="44.24824" lon="6.75753">
        <ele>2041</ele>
        <time>2021-12-28T23:51:59Z</time>
      </trkpt>
      <trkpt lat="44.24826" lon="6.75732">
        <ele>2035</ele>
        <time>2021-12-28T23:52:02Z</time>
      </trkpt>
      <trkpt lat="44.24832" lon="6.75708">
        <ele>2027</ele>
        <time>2021-12-28T23:52:05Z</time>
      </trkpt>
      <trkpt lat="44.24843" lon="6.75693">
        <ele>2023</ele>
        <time>2021-12-28T23:52:08Z</time>
      </trkpt>
      <trkpt lat="44.24887" lon="6.75671">
        <ele>2028</ele>
        <time>2021-12-28T23:52:16Z</time>
      </trkpt>
      <trkpt lat="44.24917" lon="6.75674">
        <ele>2040</ele>
        <time>2021-12-28T23:52:21Z</time>
      </trkpt>
      <trkpt lat="44.24955" lon="6.75657">
        <ele>2051</ele>
        <time>2021-12-28T23:52:29Z</time>
      </trkpt>
      <trkpt lat="44.2498" lon="6.7566">
        <ele>2065</ele>
        <time>2021-12-28T23:52:33Z</time>
      </trkpt>
      <trkpt lat="44.24997" lon="6.75656">
        <ele>2071</ele>
        <time>2021-12-28T23:52:36Z</time>
      </trkpt>
      <trkpt lat="44.25019" lon="6.75636">
        <ele>2068</ele>
        <time>2021-12-28T23:52:41Z</time>
      </trkpt>
      <trkpt lat="44.25035" lon="6.75624">
        <ele>2067</ele>
        <time>2021-12-28T23:52:44Z</time>
      </trkpt>
      <trkpt lat="44.25052" lon="6.7562">
        <ele>2070</ele>
        <time>2021-12-28T23:52:47Z</time>
      </trkpt>
      <trkpt lat="44.25069" lon="6.75613">
        <ele>2072</ele>
        <time>2021-12-28T23:52:50Z</time>
      </trkpt>
      <trkpt lat="44.25113" lon="6.75575">
        <ele>2072</ele>
        <time>2021-12-28T23:52:59Z</time>
      </trkpt>
      <trkpt lat="44.25131" lon="6.75562">
        <ele>2075</ele>
        <time>2021-12-28T23:53:03Z</time>
      </trkpt>
      <trkpt lat="44.25148" lon="6.75544">
        <ele>2077</ele>
        <time>2021-12-28T23:53:07Z</time>
      </trkpt>
      <trkpt lat="44.2517" lon="6.75513">
        <ele>2076</ele>
        <time>2021-12-28T23:53:12Z</time>
      </trkpt>
      <trkpt lat="44.25176" lon="6.75502">
        <ele>2076</ele>
        <time>2021-12-28T23:53:14Z</time>
      </trkpt>
      <trkpt lat="44.25188" lon="6.75474">
        <ele>2076</ele>
        <time>2021-12-28T23:53:18Z</time>
      </trkpt>
      <trkpt lat="44.25193" lon="6.75467">
        <ele>2077</ele>
        <time>2021-12-28T23:53:20Z</time>
      </trkpt>
      <trkpt lat="44.25199" lon="6.75462">
        <ele>2078</ele>
        <time>2021-12-28T23:53:21Z</time>
      </trkpt>
      <trkpt lat="44.2522" lon="6.75458">
        <ele>2085</ele>
        <time>2021-12-28T23:53:25Z</time>
      </trkpt>
      <trkpt lat="44.25227" lon="6.75455">
        <ele>2088</ele>
        <time>2021-12-28T23:53:26Z</time>
      </trkpt>
      <trkpt lat="44.25232" lon="6.7545">
        <ele>2088</ele>
        <time>2021-12-28T23:53:27Z</time>
      </trkpt>
      <trkpt lat="44.25242" lon="6.75432">
        <ele>2088</ele>
        <time>2021-12-28T23:53:30Z</time>
      </trkpt>
      <trkpt lat="44.25252" lon="6.75403">
        <ele>2090</ele>
        <time>2021-12-28T23:53:34Z</time>
      </trkpt>
      <trkpt lat="44.25253" lon="6.7538">
        <ele>2093</ele>
        <time>2021-12-28T23:53:37Z</time>
      </trkpt>
      <trkpt lat="44.25251" lon="6.7537">
        <ele>2093</ele>
        <time>2021-12-28T23:53:38Z</time>
      </trkpt>
      <trkpt lat="44.25234" lon="6.75324">
        <ele>2089</ele>
        <time>2021-12-28T23:53:45Z</time>
      </trkpt>
      <trkpt lat="44.25233" lon="6.75302">
        <ele>2089</ele>
        <time>2021-12-28T23:53:48Z</time>
      </trkpt>
      <trkpt lat="44.25236" lon="6.7529">
        <ele>2090</ele>
        <time>2021-12-28T23:53:49Z</time>
      </trkpt>
      <trkpt lat="44.25244" lon="6.75267">
        <ele>2094</ele>
        <time>2021-12-28T23:53:53Z</time>
      </trkpt>
      <trkpt lat="44.25272" lon="6.75206">
        <ele>2100</ele>
        <time>2021-12-28T23:54:02Z</time>
      </trkpt>
      <trkpt lat="44.25293" lon="6.75178">
        <ele>2104</ele>
        <time>2021-12-28T23:54:07Z</time>
      </trkpt>
      <trkpt lat="44.25336" lon="6.75128">
        <ele>2118</ele>
        <time>2021-12-28T23:54:17Z</time>
      </trkpt>
      <trkpt lat="44.25341" lon="6.75119">
        <ele>2120</ele>
        <time>2021-12-28T23:54:18Z</time>
      </trkpt>
      <trkpt lat="44.25347" lon="6.75098">
        <ele>2121</ele>
        <time>2021-12-28T23:54:21Z</time>
      </trkpt>
      <trkpt lat="44.25348" lon="6.75074">
        <ele>2121</ele>
        <time>2021-12-28T23:54:24Z</time>
      </trkpt>
      <trkpt lat="44.25347" lon="6.75063">
        <ele>2121</ele>
        <time>2021-12-28T23:54:26Z</time>
      </trkpt>
      <trkpt lat="44.25344" lon="6.75054">
        <ele>2120</ele>
        <time>2021-12-28T23:54:27Z</time>
      </trkpt>
      <trkpt lat="44.2534" lon="6.75046">
        <ele>2119</ele>
        <time>2021-12-28T23:54:28Z</time>
      </trkpt>
      <trkpt lat="44.25315" lon="6.7502">
        <ele>2107</ele>
        <time>2021-12-28T23:54:34Z</time>
      </trkpt>
      <trkpt lat="44.25308" lon="6.75008">
        <ele>2104</ele>
        <time>2021-12-28T23:54:36Z</time>
      </trkpt>
      <trkpt lat="44.25308" lon="6.75001">
        <ele>2104</ele>
        <time>2021-12-28T23:54:37Z</time>
      </trkpt>
      <trkpt lat="44.2531" lon="6.74996">
        <ele>2106</ele>
        <time>2021-12-28T23:54:37Z</time>
      </trkpt>
      <trkpt lat="44.25314" lon="6.74993">
        <ele>2109</ele>
        <time>2021-12-28T23:54:38Z</time>
      </trkpt>
      <trkpt lat="44.25318" lon="6.74995">
        <ele>2110</ele>
        <time>2021-12-28T23:54:39Z</time>
      </trkpt>
      <trkpt lat="44.25334" lon="6.75005">
        <ele>2116</ele>
        <time>2021-12-28T23:54:42Z</time>
      </trkpt>
      <trkpt lat="44.25353" lon="6.7501">
        <ele>2127</ele>
        <time>2021-12-28T23:54:46Z</time>
      </trkpt>
      <trkpt lat="44.25365" lon="6.75015">
        <ele>2133</ele>
        <time>2021-12-28T23:54:48Z</time>
      </trkpt>
      <trkpt lat="44.25371" lon="6.75019">
        <ele>2136</ele>
        <time>2021-12-28T23:54:49Z</time>
      </trkpt>
      <trkpt lat="44.25376" lon="6.75027">
        <ele>2138</ele>
        <time>2021-12-28T23:54:50Z</time>
      </trkpt>
      <trkpt lat="44.25382" lon="6.75044">
        <ele>2139</ele>
        <time>2021-12-28T23:54:53Z</time>
      </trkpt>
      <trkpt lat="44.25386" lon="6.75071">
        <ele>2136</ele>
        <time>2021-12-28T23:54:56Z</time>
      </trkpt>
      <trkpt lat="44.25385" lon="6.75086">
        <ele>2134</ele>
        <time>2021-12-28T23:54:58Z</time>
      </trkpt>
      <trkpt lat="44.25383" lon="6.75101">
        <ele>2135</ele>
        <time>2021-12-28T23:55:00Z</time>
      </trkpt>
      <trkpt lat="44.2538" lon="6.75109">
        <ele>2134</ele>
        <time>2021-12-28T23:55:01Z</time>
      </trkpt>
      <trkpt lat="44.25354" lon="6.7516">
        <ele>2127</ele>
        <time>2021-12-28T23:55:09Z</time>
      </trkpt>
      <trkpt lat="44.25351" lon="6.7517">
        <ele>2126</ele>
        <time>2021-12-28T23:55:11Z</time>
      </trkpt>
      <trkpt lat="44.2535" lon="6.75191">
        <ele>2129</ele>
        <time>2021-12-28T23:55:13Z</time>
      </trkpt>
      <trkpt lat="44.25355" lon="6.75262">
        <ele>2139</ele>
        <time>2021-12-28T23:55:22Z</time>
      </trkpt>
      <trkpt lat="44.25357" lon="6.7532">
        <ele>2143</ele>
        <time>2021-12-28T23:55:30Z</time>
      </trkpt>
      <trkpt lat="44.25362" lon="6.75345">
        <ele>2145</ele>
        <time>2021-12-28T23:55:33Z</time>
      </trkpt>
      <trkpt lat="44.25371" lon="6.7537">
        <ele>2147</ele>
        <time>2021-12-28T23:55:37Z</time>
      </trkpt>
      <trkpt lat="44.25374" lon="6.75382">
        <ele>2147</ele>
        <time>2021-12-28T23:55:38Z</time>
      </trkpt>
      <trkpt lat="44.25375" lon="6.75405">
        <ele>2145</ele>
        <time>2021-12-28T23:55:41Z</time>
      </trkpt>
      <trkpt lat="44.25374" lon="6.75426">
        <ele>2144</ele>
        <time>2021-12-28T23:55:44Z</time>
      </trkpt>
      <trkpt lat="44.25375" lon="6.75441">
        <ele>2145</ele>
        <time>2021-12-28T23:55:46Z</time>
      </trkpt>
      <trkpt lat="44.25379" lon="6.75446">
        <ele>2146</ele>
        <time>2021-12-28T23:55:47Z</time>
      </trkpt>
      <trkpt lat="44.25383" lon="6.75447">
        <ele>2148</ele>
        <time>2021-12-28T23:55:47Z</time>
      </trkpt>
      <trkpt lat="44.25388" lon="6.75444">
        <ele>2150</ele>
        <time>2021-12-28T23:55:48Z</time>
      </trkpt>
      <trkpt lat="44.2539" lon="6.75438">
        <ele>2150</ele>
        <time>2021-12-28T23:55:49Z</time>
      </trkpt>
      <trkpt lat="44.25391" lon="6.75424">
        <ele>2151</ele>
        <time>2021-12-28T23:55:51Z</time>
      </trkpt>
      <trkpt lat="44.25386" lon="6.75338">
        <ele>2156</ele>
        <time>2021-12-28T23:56:02Z</time>
      </trkpt>
      <trkpt lat="44.25387" lon="6.75326">
        <ele>2156</ele>
        <time>2021-12-28T23:56:04Z</time>
      </trkpt>
      <trkpt lat="44.2539" lon="6.75315">
        <ele>2157</ele>
        <time>2021-12-28T23:56:05Z</time>
      </trkpt>
      <trkpt lat="44.25399" lon="6.75292">
        <ele>2159</ele>
        <time>2021-12-28T23:56:08Z</time>
      </trkpt>
      <trkpt lat="44.25411" lon="6.75271">
        <ele>2162</ele>
        <time>2021-12-28T23:56:12Z</time>
      </trkpt>
      <trkpt lat="44.25424" lon="6.75253">
        <ele>2166</ele>
        <time>2021-12-28T23:56:15Z</time>
      </trkpt>
      <trkpt lat="44.25453" lon="6.75222">
        <ele>2176</ele>
        <time>2021-12-28T23:56:22Z</time>
      </trkpt>
      <trkpt lat="44.25473" lon="6.7519">
        <ele>2183</ele>
        <time>2021-12-28T23:56:27Z</time>
      </trkpt>
      <trkpt lat="44.25482" lon="6.75169">
        <ele>2187</ele>
        <time>2021-12-28T23:56:30Z</time>
      </trkpt>
      <trkpt lat="44.25484" lon="6.75157">
        <ele>2189</ele>
        <time>2021-12-28T23:56:32Z</time>
      </trkpt>
      <trkpt lat="44.25482" lon="6.75119">
        <ele>2189</ele>
        <time>2021-12-28T23:56:37Z</time>
      </trkpt>
      <trkpt lat="44.25475" lon="6.75079">
        <ele>2187</ele>
        <time>2021-12-28T23:56:42Z</time>
      </trkpt>
      <trkpt lat="44.25456" lon="6.75001">
        <ele>2188</ele>
        <time>2021-12-28T23:56:52Z</time>
      </trkpt>
      <trkpt lat="44.25454" lon="6.74974">
        <ele>2191</ele>
        <time>2021-12-28T23:56:56Z</time>
      </trkpt>
      <trkpt lat="44.25455" lon="6.74907">
        <ele>2203</ele>
        <time>2021-12-28T23:57:04Z</time>
      </trkpt>
      <trkpt lat="44.25454" lon="6.74894">
        <ele>2205</ele>
        <time>2021-12-28T23:57:06Z</time>
      </trkpt>
      <trkpt lat="44.25447" lon="6.74868">
        <ele>2206</ele>
        <time>2021-12-28T23:57:10Z</time>
      </trkpt>
      <trkpt lat="44.25425" lon="6.74808">
        <ele>2206</ele>
        <time>2021-12-28T23:57:18Z</time>
      </trkpt>
      <trkpt lat="44.25413" lon="6.74793">
        <ele>2205</ele>
        <time>2021-12-28T23:57:21Z</time>
      </trkpt>
      <trkpt lat="44.25405" lon="6.74789">
        <ele>2204</ele>
        <time>2021-12-28T23:57:22Z</time>
      </trkpt>
      <trkpt lat="44.25386" lon="6.74789">
        <ele>2200</ele>
        <time>2021-12-28T23:57:26Z</time>
      </trkpt>
      <trkpt lat="44.25371" lon="6.74794">
        <ele>2196</ele>
        <time>2021-12-28T23:57:29Z</time>
      </trkpt>
      <trkpt lat="44.25351" lon="6.7481">
        <ele>2188</ele>
        <time>2021-12-28T23:57:33Z</time>
      </trkpt>
      <trkpt lat="44.25342" lon="6.7481">
        <ele>2186</ele>
        <time>2021-12-28T23:57:34Z</time>
      </trkpt>
      <trkpt lat="44.25339" lon="6.74807">
        <ele>2186</ele>
        <time>2021-12-28T23:57:35Z</time>
      </trkpt>
      <trkpt lat="44.25337" lon="6.74792">
        <ele>2190</ele>
        <time>2021-12-28T23:57:37Z</time>
      </trkpt>
      <trkpt lat="44.25338" lon="6.74784">
        <ele>2192</ele>
        <time>2021-12-28T23:57:38Z</time>
      </trkpt>
      <trkpt lat="44.25343" lon="6.74771">
        <ele>2197</ele>
        <time>2021-12-28T23:57:40Z</time>
      </trkpt>
      <trkpt lat="44.25352" lon="6.74762">
        <ele>2201</ele>
        <time>2021-12-28T23:57:42Z</time>
      </trkpt>
      <trkpt lat="44.25389" lon="6.74741">
        <ele>2213</ele>
        <time>2021-12-28T23:57:49Z</time>
      </trkpt>
      <trkpt lat="44.25402" lon="6.7474">
        <ele>2215</ele>
        <time>2021-12-28T23:57:51Z</time>
      </trkpt>
      <trkpt lat="44.2541" lon="6.74743">
        <ele>2215</ele>
        <time>2021-12-28T23:57:53Z</time>
      </trkpt>
      <trkpt lat="44.25424" lon="6.74753">
        <ele>2216</ele>
        <time>2021-12-28T23:57:56Z</time>
      </trkpt>
      <trkpt lat="44.25431" lon="6.7476">
        <ele>2218</ele>
        <time>2021-12-28T23:57:57Z</time>
      </trkpt>
      <trkpt lat="44.25488" lon="6.74855">
        <ele>2227</ele>
        <time>2021-12-28T23:58:13Z</time>
      </trkpt>
      <trkpt lat="44.25498" lon="6.74877">
        <ele>2229</ele>
        <time>2021-12-28T23:58:16Z</time>
      </trkpt>
      <trkpt lat="44.25501" lon="6.74889">
        <ele>2229</ele>
        <time>2021-12-28T23:58:18Z</time>
      </trkpt>
      <trkpt lat="44.2552" lon="6.75013">
        <ele>2224</ele>
        <time>2021-12-28T23:58:34Z</time>
      </trkpt>
      <trkpt lat="44.25525" lon="6.75036">
        <ele>2224</ele>
        <time>2021-12-28T23:58:37Z</time>
      </trkpt>
      <trkpt lat="44.25542" lon="6.75079">
        <ele>2226</ele>
        <time>2021-12-28T23:58:43Z</time>
      </trkpt>
      <trkpt lat="44.25545" lon="6.75111">
        <ele>2225</ele>
        <time>2021-12-28T23:58:47Z</time>
      </trkpt>
      <trkpt lat="44.25548" lon="6.75132">
        <ele>2224</ele>
        <time>2021-12-28T23:58:50Z</time>
      </trkpt>
      <trkpt lat="44.25563" lon="6.7516">
        <ele>2229</ele>
        <time>2021-12-28T23:58:55Z</time>
      </trkpt>
      <trkpt lat="44.25581" lon="6.75181">
        <ele>2238</ele>
        <time>2021-12-28T23:58:59Z</time>
      </trkpt>
      <trkpt lat="44.25587" lon="6.75185">
        <ele>2240</ele>
        <time>2021-12-28T23:59:00Z</time>
      </trkpt>
      <trkpt lat="44.25592" lon="6.75185">
        <ele>2242</ele>
        <time>2021-12-28T23:59:01Z</time>
      </trkpt>
      <trkpt lat="44.25596" lon="6.75181">
        <ele>2243</ele>
        <time>2021-12-28T23:59:02Z</time>
      </trkpt>
      <trkpt lat="44.25598" lon="6.75174">
        <ele>2243</ele>
        <time>2021-12-28T23:59:03Z</time>
      </trkpt>
      <trkpt lat="44.25597" lon="6.75166">
        <ele>2243</ele>
        <time>2021-12-28T23:59:04Z</time>
      </trkpt>
      <trkpt lat="44.25593" lon="6.7516">
        <ele>2242</ele>
        <time>2021-12-28T23:59:05Z</time>
      </trkpt>
      <trkpt lat="44.25568" lon="6.75141">
        <ele>2234</ele>
        <time>2021-12-28T23:59:10Z</time>
      </trkpt>
      <trkpt lat="44.25564" lon="6.75134">
        <ele>2233</ele>
        <time>2021-12-28T23:59:11Z</time>
      </trkpt>
      <trkpt lat="44.25559" lon="6.75116">
        <ele>2232</ele>
        <time>2021-12-28T23:59:13Z</time>
      </trkpt>
      <trkpt lat="44.25559" lon="6.75106">
        <ele>2233</ele>
        <time>2021-12-28T23:59:15Z</time>
      </trkpt>
      <trkpt lat="44.2556" lon="6.75096">
        <ele>2234</ele>
        <time>2021-12-28T23:59:16Z</time>
      </trkpt>
      <trkpt lat="44.25571" lon="6.75063">
        <ele>2245</ele>
        <time>2021-12-28T23:59:21Z</time>
      </trkpt>
      <trkpt lat="44.25574" lon="6.7504">
        <ele>2251</ele>
        <time>2021-12-28T23:59:24Z</time>
      </trkpt>
      <trkpt lat="44.25571" lon="6.75017">
        <ele>2254</ele>
        <time>2021-12-28T23:59:27Z</time>
      </trkpt>
      <trkpt lat="44.25557" lon="6.74966">
        <ele>2251</ele>
        <time>2021-12-28T23:59:33Z</time>
      </trkpt>
      <trkpt lat="44.25556" lon="6.74945">
        <ele>2252</ele>
        <time>2021-12-28T23:59:36Z</time>
      </trkpt>
      <trkpt lat="44.25564" lon="6.74847">
        <ele>2267</ele>
        <time>2021-12-28T23:59:49Z</time>
      </trkpt>
      <trkpt lat="44.25563" lon="6.74822">
        <ele>2269</ele>
        <time>2021-12-28T23:59:52Z</time>
      </trkpt>
      <trkpt lat="44.25552" lon="6.74736">
        <ele>2276</ele>
        <time>2021-12-29T00:00:03Z</time>
      </trkpt>
      <trkpt lat="44.25553" lon="6.74711">
        <ele>2277</ele>
        <time>2021-12-29T00:00:06Z</time>
      </trkpt>
      <trkpt lat="44.2556" lon="6.74646">
        <ele>2282</ele>
        <time>2021-12-29T00:00:15Z</time>
      </trkpt>
      <trkpt lat="44.25558" lon="6.74624">
        <ele>2284</ele>
        <time>2021-12-29T00:00:17Z</time>
      </trkpt>
      <trkpt lat="44.25552" lon="6.74602">
        <ele>2286</ele>
        <time>2021-12-29T00:00:20Z</time>
      </trkpt>
      <trkpt lat="44.25542" lon="6.74583">
        <ele>2287</ele>
        <time>2021-12-29T00:00:23Z</time>
      </trkpt>
      <trkpt lat="44.25479" lon="6.74521">
        <ele>2292</ele>
        <time>2021-12-29T00:00:37Z</time>
      </trkpt>
      <trkpt lat="44.25472" lon="6.74509">
        <ele>2294</ele>
        <time>2021-12-29T00:00:39Z</time>
      </trkpt>
      <trkpt lat="44.25472" lon="6.74497">
        <ele>2297</ele>
        <time>2021-12-29T00:00:41Z</time>
      </trkpt>
      <trkpt lat="44.25474" lon="6.74493">
        <ele>2299</ele>
        <time>2021-12-29T00:00:41Z</time>
      </trkpt>
      <trkpt lat="44.25482" lon="6.74488">
        <ele>2301</ele>
        <time>2021-12-29T00:00:43Z</time>
      </trkpt>
      <trkpt lat="44.25486" lon="6.74488">
        <ele>2301</ele>
        <time>2021-12-29T00:00:44Z</time>
      </trkpt>
      <trkpt lat="44.25497" lon="6.74498">
        <ele>2299</ele>
        <time>2021-12-29T00:00:46Z</time>
      </trkpt>
      <trkpt lat="44.25501" lon="6.74512">
        <ele>2296</ele>
        <time>2021-12-29T00:00:48Z</time>
      </trkpt>
      <trkpt lat="44.25509" lon="6.74525">
        <ele>2294</ele>
        <time>2021-12-29T00:00:50Z</time>
      </trkpt>
      <trkpt lat="44.2552" lon="6.74538">
        <ele>2292</ele>
        <time>2021-12-29T00:00:53Z</time>
      </trkpt>
      <trkpt lat="44.25563" lon="6.74565">
        <ele>2292</ele>
        <time>2021-12-29T00:01:01Z</time>
      </trkpt>
      <trkpt lat="44.25581" lon="6.74571">
        <ele>2294</ele>
        <time>2021-12-29T00:01:04Z</time>
      </trkpt>
      <trkpt lat="44.25598" lon="6.7457">
        <ele>2297</ele>
        <time>2021-12-29T00:01:07Z</time>
      </trkpt>
      <trkpt lat="44.25608" lon="6.74564">
        <ele>2300</ele>
        <time>2021-12-29T00:01:09Z</time>
      </trkpt>
      <trkpt lat="44.25652" lon="6.74525">
        <ele>2307</ele>
        <time>2021-12-29T00:01:19Z</time>
      </trkpt>
      <trkpt lat="44.25668" lon="6.74513">
        <ele>2308</ele>
        <time>2021-12-29T00:01:22Z</time>
      </trkpt>
      <trkpt lat="44.25674" lon="6.7451">
        <ele>2308</ele>
        <time>2021-12-29T00:01:23Z</time>
      </trkpt>
      <trkpt lat="44.25685" lon="6.74509">
        <ele>2309</ele>
        <time>2021-12-29T00:01:25Z</time>
      </trkpt>
      <trkpt lat="44.25697" lon="6.74513">
        <ele>2311</ele>
        <time>2021-12-29T00:01:27Z</time>
      </trkpt>
      <trkpt lat="44.25717" lon="6.74524">
        <ele>2315</ele>
        <time>2021-12-29T00:01:31Z</time>
      </trkpt>
      <trkpt lat="44.25732" lon="6.74526">
        <ele>2317</ele>
        <time>2021-12-29T00:01:34Z</time>
      </trkpt>
      <trkpt lat="44.25748" lon="6.74524">
        <ele>2319</ele>
        <time>2021-12-29T00:01:36Z</time>
      </trkpt>
      <trkpt lat="44.25781" lon="6.74511">
        <ele>2320</ele>
        <time>2021-12-29T00:01:42Z</time>
      </trkpt>
      <trkpt lat="44.25802" lon="6.74496">
        <ele>2321</ele>
        <time>2021-12-29T00:01:47Z</time>
      </trkpt>
      <trkpt lat="44.25875" lon="6.74423">
        <ele>2325</ele>
        <time>2021-12-29T00:02:03Z</time>
      </trkpt>
      <trkpt lat="44.25914" lon="6.74397">
        <ele>2330</ele>
        <time>2021-12-29T00:02:10Z</time>
      </trkpt>
      <trkpt lat="44.26002" lon="6.74363">
        <ele>2321</ele>
        <time>2021-12-29T00:02:27Z</time>
      </trkpt>
      <trkpt lat="44.26009" lon="6.74358">
        <ele>2320</ele>
        <time>2021-12-29T00:02:28Z</time>
      </trkpt>
      <trkpt lat="44.26053" lon="6.74305">
        <ele>2318</ele>
        <time>2021-12-29T00:02:38Z</time>
      </trkpt>
      <trkpt lat="44.2607" lon="6.74291">
        <ele>2316</ele>
        <time>2021-12-29T00:02:42Z</time>
      </trkpt>
      <trkpt lat="44.26106" lon="6.74266">
        <ele>2313</ele>
        <time>2021-12-29T00:02:49Z</time>
      </trkpt>
      <trkpt lat="44.26154" lon="6.74243">
        <ele>2310</ele>
        <time>2021-12-29T00:02:58Z</time>
      </trkpt>
      <trkpt lat="44.26175" lon="6.7424">
        <ele>2308</ele>
        <time>2021-12-29T00:03:02Z</time>
      </trkpt>
      <trkpt lat="44.26197" lon="6.74243">
        <ele>2305</ele>
        <time>2021-12-29T00:03:06Z</time>
      </trkpt>
      <trkpt lat="44.26246" lon="6.74253">
        <ele>2299</ele>
        <time>2021-12-29T00:03:15Z</time>
      </trkpt>
      <trkpt lat="44.26285" lon="6.74254">
        <ele>2295</ele>
        <time>2021-12-29T00:03:21Z</time>
      </trkpt>
      <trkpt lat="44.26311" lon="6.74251">
        <ele>2292</ele>
        <time>2021-12-29T00:03:26Z</time>
      </trkpt>
      <trkpt lat="44.26317" lon="6.74247">
        <ele>2292</ele>
        <time>2021-12-29T00:03:27Z</time>
      </trkpt>
      <trkpt lat="44.26322" lon="6.74242">
        <ele>2292</ele>
        <time>2021-12-29T00:03:28Z</time>
      </trkpt>
      <trkpt lat="44.26335" lon="6.74216">
        <ele>2294</ele>
        <time>2021-12-29T00:03:32Z</time>
      </trkpt>
      <trkpt lat="44.26341" lon="6.74209">
        <ele>2295</ele>
        <time>2021-12-29T00:03:34Z</time>
      </trkpt>
      <trkpt lat="44.26348" lon="6.74206">
        <ele>2295</ele>
        <time>2021-12-29T00:03:35Z</time>
      </trkpt>
      <trkpt lat="44.26361" lon="6.74211">
        <ele>2295</ele>
        <time>2021-12-29T00:03:38Z</time>
      </trkpt>
      <trkpt lat="44.26365" lon="6.74221">
        <ele>2294</ele>
        <time>2021-12-29T00:03:39Z</time>
      </trkpt>
      <trkpt lat="44.26366" lon="6.74251">
        <ele>2290</ele>
        <time>2021-12-29T00:03:43Z</time>
      </trkpt>
      <trkpt lat="44.2637" lon="6.74275">
        <ele>2287</ele>
        <time>2021-12-29T00:03:46Z</time>
      </trkpt>
      <trkpt lat="44.26377" lon="6.74296">
        <ele>2285</ele>
        <time>2021-12-29T00:03:49Z</time>
      </trkpt>
      <trkpt lat="44.26391" lon="6.74326">
        <ele>2281</ele>
        <time>2021-12-29T00:03:53Z</time>
      </trkpt>
      <trkpt lat="44.26402" lon="6.74362">
        <ele>2279</ele>
        <time>2021-12-29T00:03:58Z</time>
      </trkpt>
      <trkpt lat="44.26407" lon="6.74419">
        <ele>2275</ele>
        <time>2021-12-29T00:04:06Z</time>
      </trkpt>
      <trkpt lat="44.26411" lon="6.74427">
        <ele>2275</ele>
        <time>2021-12-29T00:04:07Z</time>
      </trkpt>
      <trkpt lat="44.26433" lon="6.74455">
        <ele>2274</ele>
        <time>2021-12-29T00:04:12Z</time>
      </trkpt>
      <trkpt lat="44.26439" lon="6.74471">
        <ele>2274</ele>
        <time>2021-12-29T00:04:15Z</time>
      </trkpt>
      <trkpt lat="44.26439" lon="6.74482">
        <ele>2273</ele>
        <time>2021-12-29T00:04:16Z</time>
      </trkpt>
      <trkpt lat="44.26434" lon="6.74494">
        <ele>2272</ele>
        <time>2021-12-29T00:04:18Z</time>
      </trkpt>
      <trkpt lat="44.26428" lon="6.74499">
        <ele>2272</ele>
        <time>2021-12-29T00:04:19Z</time>
      </trkpt>
      <trkpt lat="44.2642" lon="6.74501">
        <ele>2272</ele>
        <time>2021-12-29T00:04:20Z</time>
      </trkpt>
      <trkpt lat="44.26389" lon="6.74499">
        <ele>2271</ele>
        <time>2021-12-29T00:04:26Z</time>
      </trkpt>
      <trkpt lat="44.26369" lon="6.7451">
        <ele>2269</ele>
        <time>2021-12-29T00:04:30Z</time>
      </trkpt>
      <trkpt lat="44.2636" lon="6.74522">
        <ele>2268</ele>
        <time>2021-12-29T00:04:32Z</time>
      </trkpt>
      <trkpt lat="44.26354" lon="6.74539">
        <ele>2267</ele>
        <time>2021-12-29T00:04:34Z</time>
      </trkpt>
      <trkpt lat="44.26355" lon="6.74557">
        <ele>2266</ele>
        <time>2021-12-29T00:04:37Z</time>
      </trkpt>
      <trkpt lat="44.26357" lon="6.74565">
        <ele>2266</ele>
        <time>2021-12-29T00:04:38Z</time>
      </trkpt>
      <trkpt lat="44.26361" lon="6.74573">
        <ele>2265</ele>
        <time>2021-12-29T00:04:39Z</time>
      </trkpt>
      <trkpt lat="44.26375" lon="6.7459">
        <ele>2265</ele>
        <time>2021-12-29T00:04:42Z</time>
      </trkpt>
      <trkpt lat="44.26402" lon="6.74603">
        <ele>2264</ele>
        <time>2021-12-29T00:04:47Z</time>
      </trkpt>
      <trkpt lat="44.26464" lon="6.74609">
        <ele>2260</ele>
        <time>2021-12-29T00:04:59Z</time>
      </trkpt>
      <trkpt lat="44.26518" lon="6.74595">
        <ele>2256</ele>
        <time>2021-12-29T00:05:08Z</time>
      </trkpt>
      <trkpt lat="44.26566" lon="6.74593">
        <ele>2252</ele>
        <time>2021-12-29T00:05:17Z</time>
      </trkpt>
      <trkpt lat="44.26588" lon="6.74595">
        <ele>2249</ele>
        <time>2021-12-29T00:05:21Z</time>
      </trkpt>
      <trkpt lat="44.26608" lon="6.74603">
        <ele>2247</ele>
        <time>2021-12-29T00:05:24Z</time>
      </trkpt>
      <trkpt lat="44.2665" lon="6.74611">
        <ele>2243</ele>
        <time>2021-12-29T00:05:32Z</time>
      </trkpt>
      <trkpt lat="44.2666" lon="6.7461">
        <ele>2242</ele>
        <time>2021-12-29T00:05:34Z</time>
      </trkpt>
      <trkpt lat="44.26687" lon="6.746">
        <ele>2240</ele>
        <time>2021-12-29T00:05:39Z</time>
      </trkpt>
      <trkpt lat="44.26707" lon="6.74601">
        <ele>2238</ele>
        <time>2021-12-29T00:05:42Z</time>
      </trkpt>
      <trkpt lat="44.26727" lon="6.74608">
        <ele>2235</ele>
        <time>2021-12-29T00:05:46Z</time>
      </trkpt>
      <trkpt lat="44.26766" lon="6.7463">
        <ele>2230</ele>
        <time>2021-12-29T00:05:53Z</time>
      </trkpt>
      <trkpt lat="44.26788" lon="6.74636">
        <ele>2229</ele>
        <time>2021-12-29T00:05:57Z</time>
      </trkpt>
      <trkpt lat="44.2681" lon="6.74639">
        <ele>2228</ele>
        <time>2021-12-29T00:06:01Z</time>
      </trkpt>
      <trkpt lat="44.26852" lon="6.74635">
        <ele>2225</ele>
        <time>2021-12-29T00:06:09Z</time>
      </trkpt>
      <trkpt lat="44.26909" lon="6.74619">
        <ele>2220</ele>
        <time>2021-12-29T00:06:19Z</time>
      </trkpt>
      <trkpt lat="44.26924" lon="6.74621">
        <ele>2219</ele>
        <time>2021-12-29T00:06:22Z</time>
      </trkpt>
      <trkpt lat="44.26929" lon="6.74625">
        <ele>2219</ele>
        <time>2021-12-29T00:06:23Z</time>
      </trkpt>
      <trkpt lat="44.2695" lon="6.74652">
        <ele>2215</ele>
        <time>2021-12-29T00:06:28Z</time>
      </trkpt>
      <trkpt lat="44.26964" lon="6.74662">
        <ele>2213</ele>
        <time>2021-12-29T00:06:31Z</time>
      </trkpt>
      <trkpt lat="44.27022" lon="6.74678">
        <ele>2209</ele>
        <time>2021-12-29T00:06:41Z</time>
      </trkpt>
      <trkpt lat="44.27048" lon="6.74676">
        <ele>2207</ele>
        <time>2021-12-29T00:06:46Z</time>
      </trkpt>
      <trkpt lat="44.27069" lon="6.74667">
        <ele>2206</ele>
        <time>2021-12-29T00:06:50Z</time>
      </trkpt>
      <trkpt lat="44.27121" lon="6.74628">
        <ele>2202</ele>
        <time>2021-12-29T00:07:00Z</time>
      </trkpt>
      <trkpt lat="44.27138" lon="6.74605">
        <ele>2199</ele>
        <time>2021-12-29T00:07:05Z</time>
      </trkpt>
      <trkpt lat="44.27144" lon="6.74586">
        <ele>2198</ele>
        <time>2021-12-29T00:07:07Z</time>
      </trkpt>
      <trkpt lat="44.27149" lon="6.74554">
        <ele>2200</ele>
        <time>2021-12-29T00:07:11Z</time>
      </trkpt>
      <trkpt lat="44.27166" lon="6.74517">
        <ele>2200</ele>
        <time>2021-12-29T00:07:17Z</time>
      </trkpt>
      <trkpt lat="44.2718" lon="6.74502">
        <ele>2199</ele>
        <time>2021-12-29T00:07:20Z</time>
      </trkpt>
      <trkpt lat="44.27195" lon="6.74494">
        <ele>2198</ele>
        <time>2021-12-29T00:07:23Z</time>
      </trkpt>
      <trkpt lat="44.27211" lon="6.74488">
        <ele>2197</ele>
        <time>2021-12-29T00:07:26Z</time>
      </trkpt>
      <trkpt lat="44.27238" lon="6.74484">
        <ele>2192</ele>
        <time>2021-12-29T00:07:31Z</time>
      </trkpt>
      <trkpt lat="44.27257" lon="6.74481">
        <ele>2190</ele>
        <time>2021-12-29T00:07:34Z</time>
      </trkpt>
      <trkpt lat="44.27276" lon="6.74482">
        <ele>2188</ele>
        <time>2021-12-29T00:07:38Z</time>
      </trkpt>
      <trkpt lat="44.27287" lon="6.74484">
        <ele>2187</ele>
        <time>2021-12-29T00:07:40Z</time>
      </trkpt>
      <trkpt lat="44.27299" lon="6.74489">
        <ele>2185</ele>
        <time>2021-12-29T00:07:42Z</time>
      </trkpt>
      <trkpt lat="44.27334" lon="6.74506">
        <ele>2180</ele>
        <time>2021-12-29T00:07:48Z</time>
      </trkpt>
      <trkpt lat="44.27355" lon="6.7451">
        <ele>2178</ele>
        <time>2021-12-29T00:07:52Z</time>
      </trkpt>
      <trkpt lat="44.27363" lon="6.7451">
        <ele>2177</ele>
        <time>2021-12-29T00:07:54Z</time>
      </trkpt>
      <trkpt lat="44.27377" lon="6.74503">
        <ele>2177</ele>
        <time>2021-12-29T00:07:56Z</time>
      </trkpt>
      <trkpt lat="44.27406" lon="6.74484">
        <ele>2179</ele>
        <time>2021-12-29T00:08:02Z</time>
      </trkpt>
      <trkpt lat="44.27421" lon="6.74481">
        <ele>2179</ele>
        <time>2021-12-29T00:08:05Z</time>
      </trkpt>
      <trkpt lat="44.27443" lon="6.74491">
        <ele>2174</ele>
        <time>2021-12-29T00:08:09Z</time>
      </trkpt>
      <trkpt lat="44.27459" lon="6.74496">
        <ele>2171</ele>
        <time>2021-12-29T00:08:12Z</time>
      </trkpt>
      <trkpt lat="44.27498" lon="6.7449">
        <ele>2169</ele>
        <time>2021-12-29T00:08:19Z</time>
      </trkpt>
      <trkpt lat="44.27582" lon="6.74502">
        <ele>2160</ele>
        <time>2021-12-29T00:08:34Z</time>
      </trkpt>
      <trkpt lat="44.2761" lon="6.74503">
        <ele>2156</ele>
        <time>2021-12-29T00:08:39Z</time>
      </trkpt>
      <trkpt lat="44.2763" lon="6.74502">
        <ele>2154</ele>
        <time>2021-12-29T00:08:42Z</time>
      </trkpt>
      <trkpt lat="44.27657" lon="6.7449">
        <ele>2155</ele>
        <time>2021-12-29T00:08:47Z</time>
      </trkpt>
      <trkpt lat="44.27675" lon="6.74479">
        <ele>2156</ele>
        <time>2021-12-29T00:08:51Z</time>
      </trkpt>
      <trkpt lat="44.27696" lon="6.74453">
        <ele>2159</ele>
        <time>2021-12-29T00:08:56Z</time>
      </trkpt>
      <trkpt lat="44.27721" lon="6.74414">
        <ele>2159</ele>
        <time>2021-12-29T00:09:02Z</time>
      </trkpt>
      <trkpt lat="44.27733" lon="6.74404">
        <ele>2154</ele>
        <time>2021-12-29T00:09:05Z</time>
      </trkpt>
      <trkpt lat="44.27743" lon="6.74404">
        <ele>2150</ele>
        <time>2021-12-29T00:09:07Z</time>
      </trkpt>
      <trkpt lat="44.2776" lon="6.74414">
        <ele>2143</ele>
        <time>2021-12-29T00:09:10Z</time>
      </trkpt>
      <trkpt lat="44.27778" lon="6.74432">
        <ele>2140</ele>
        <time>2021-12-29T00:09:14Z</time>
      </trkpt>
      <trkpt lat="44.27784" lon="6.74444">
        <ele>2139</ele>
        <time>2021-12-29T00:09:16Z</time>
      </trkpt>
      <trkpt lat="44.27787" lon="6.74459">
        <ele>2138</ele>
        <time>2021-12-29T00:09:18Z</time>
      </trkpt>
      <trkpt lat="44.27786" lon="6.74479">
        <ele>2138</ele>
        <time>2021-12-29T00:09:20Z</time>
      </trkpt>
      <trkpt lat="44.27783" lon="6.74489">
        <ele>2138</ele>
        <time>2021-12-29T00:09:22Z</time>
      </trkpt>
      <trkpt lat="44.27775" lon="6.74507">
        <ele>2137</ele>
        <time>2021-12-29T00:09:24Z</time>
      </trkpt>
      <trkpt lat="44.2777" lon="6.74515">
        <ele>2136</ele>
        <time>2021-12-29T00:09:26Z</time>
      </trkpt>
      <trkpt lat="44.27756" lon="6.74527">
        <ele>2134</ele>
        <time>2021-12-29T00:09:29Z</time>
      </trkpt>
      <trkpt lat="44.27682" lon="6.74563">
        <ele>2134</ele>
        <time>2021-12-29T00:09:43Z</time>
      </trkpt>
      <trkpt lat="44.27653" lon="6.74574">
        <ele>2133</ele>
        <time>2021-12-29T00:09:48Z</time>
      </trkpt>
      <trkpt lat="44.27646" lon="6.74579">
        <ele>2132</ele>
        <time>2021-12-29T00:09:49Z</time>
      </trkpt>
      <trkpt lat="44.27642" lon="6.74588">
        <ele>2131</ele>
        <time>2021-12-29T00:09:51Z</time>
      </trkpt>
      <trkpt lat="44.27639" lon="6.74597">
        <ele>2130</ele>
        <time>2021-12-29T00:09:52Z</time>
      </trkpt>
      <trkpt lat="44.2764" lon="6.74607">
        <ele>2128</ele>
        <time>2021-12-29T00:09:53Z</time>
      </trkpt>
      <trkpt lat="44.27644" lon="6.74614">
        <ele>2127</ele>
        <time>2021-12-29T00:09:54Z</time>
      </trkpt>
      <trkpt lat="44.2765" lon="6.74619">
        <ele>2126</ele>
        <time>2021-12-29T00:09:56Z</time>
      </trkpt>
      <trkpt lat="44.27658" lon="6.74619">
        <ele>2126</ele>
        <time>2021-12-29T00:09:57Z</time>
      </trkpt>
      <trkpt lat="44.27705" lon="6.74606">
        <ele>2125</ele>
        <time>2021-12-29T00:10:06Z</time>
      </trkpt>
      <trkpt lat="44.27715" lon="6.74606">
        <ele>2125</ele>
        <time>2021-12-29T00:10:07Z</time>
      </trkpt>
      <trkpt lat="44.27735" lon="6.74612">
        <ele>2123</ele>
        <time>2021-12-29T00:10:11Z</time>
      </trkpt>
      <trkpt lat="44.27762" lon="6.74632">
        <ele>2118</ele>
        <time>2021-12-29T00:10:16Z</time>
      </trkpt>
      <trkpt lat="44.27771" lon="6.74636">
        <ele>2118</ele>
        <time>2021-12-29T00:10:18Z</time>
      </trkpt>
      <trkpt lat="44.2779" lon="6.74639">
        <ele>2117</ele>
        <time>2021-12-29T00:10:21Z</time>
      </trkpt>
      <trkpt lat="44.27858" lon="6.74627">
        <ele>2116</ele>
        <time>2021-12-29T00:10:34Z</time>
      </trkpt>
      <trkpt lat="44.27878" lon="6.74626">
        <ele>2113</ele>
        <time>2021-12-29T00:10:37Z</time>
      </trkpt>
      <trkpt lat="44.27895" lon="6.7463">
        <ele>2110</ele>
        <time>2021-12-29T00:10:40Z</time>
      </trkpt>
      <trkpt lat="44.27908" lon="6.74623">
        <ele>2108</ele>
        <time>2021-12-29T00:10:43Z</time>
      </trkpt>
      <trkpt lat="44.27916" lon="6.74609">
        <ele>2108</ele>
        <time>2021-12-29T00:10:45Z</time>
      </trkpt>
      <trkpt lat="44.27919" lon="6.746">
        <ele>2108</ele>
        <time>2021-12-29T00:10:46Z</time>
      </trkpt>
      <trkpt lat="44.27926" lon="6.74552">
        <ele>2105</ele>
        <time>2021-12-29T00:10:53Z</time>
      </trkpt>
      <trkpt lat="44.27926" lon="6.74527">
        <ele>2104</ele>
        <time>2021-12-29T00:10:56Z</time>
      </trkpt>
      <trkpt lat="44.27921" lon="6.74476">
        <ele>2101</ele>
        <time>2021-12-29T00:11:02Z</time>
      </trkpt>
      <trkpt lat="44.27921" lon="6.74448">
        <ele>2097</ele>
        <time>2021-12-29T00:11:06Z</time>
      </trkpt>
      <trkpt lat="44.2792" lon="6.74436">
        <ele>2095</ele>
        <time>2021-12-29T00:11:07Z</time>
      </trkpt>
      <trkpt lat="44.27917" lon="6.74424">
        <ele>2094</ele>
        <time>2021-12-29T00:11:09Z</time>
      </trkpt>
      <trkpt lat="44.27912" lon="6.74413">
        <ele>2094</ele>
        <time>2021-12-29T00:11:11Z</time>
      </trkpt>
      <trkpt lat="44.27862" lon="6.74312">
        <ele>2095</ele>
        <time>2021-12-29T00:11:26Z</time>
      </trkpt>
      <trkpt lat="44.27853" lon="6.74291">
        <ele>2096</ele>
        <time>2021-12-29T00:11:29Z</time>
      </trkpt>
      <trkpt lat="44.27851" lon="6.74278">
        <ele>2095</ele>
        <time>2021-12-29T00:11:31Z</time>
      </trkpt>
      <trkpt lat="44.27851" lon="6.74265">
        <ele>2093</ele>
        <time>2021-12-29T00:11:33Z</time>
      </trkpt>
      <trkpt lat="44.27853" lon="6.74252">
        <ele>2091</ele>
        <time>2021-12-29T00:11:34Z</time>
      </trkpt>
      <trkpt lat="44.27858" lon="6.74241">
        <ele>2090</ele>
        <time>2021-12-29T00:11:36Z</time>
      </trkpt>
      <trkpt lat="44.27865" lon="6.74231">
        <ele>2088</ele>
        <time>2021-12-29T00:11:38Z</time>
      </trkpt>
      <trkpt lat="44.27882" lon="6.74218">
        <ele>2085</ele>
        <time>2021-12-29T00:11:41Z</time>
      </trkpt>
      <trkpt lat="44.27923" lon="6.74196">
        <ele>2079</ele>
        <time>2021-12-29T00:11:49Z</time>
      </trkpt>
      <trkpt lat="44.27942" lon="6.74179">
        <ele>2076</ele>
        <time>2021-12-29T00:11:53Z</time>
      </trkpt>
      <trkpt lat="44.27977" lon="6.74141">
        <ele>2071</ele>
        <time>2021-12-29T00:12:01Z</time>
      </trkpt>
      <trkpt lat="44.27992" lon="6.74133">
        <ele>2067</ele>
        <time>2021-12-29T00:12:04Z</time>
      </trkpt>
      <trkpt lat="44.27998" lon="6.74136">
        <ele>2065</ele>
        <time>2021-12-29T00:12:05Z</time>
      </trkpt>
      <trkpt lat="44.28017" lon="6.74147">
        <ele>2065</ele>
        <time>2021-12-29T00:12:09Z</time>
      </trkpt>
      <trkpt lat="44.28025" lon="6.74158">
        <ele>2065</ele>
        <time>2021-12-29T00:12:11Z</time>
      </trkpt>
      <trkpt lat="44.28039" lon="6.74215">
        <ele>2062</ele>
        <time>2021-12-29T00:12:18Z</time>
      </trkpt>
      <trkpt lat="44.28047" lon="6.74236">
        <ele>2061</ele>
        <time>2021-12-29T00:12:21Z</time>
      </trkpt>
      <trkpt lat="44.28053" lon="6.74245">
        <ele>2061</ele>
        <time>2021-12-29T00:12:23Z</time>
      </trkpt>
      <trkpt lat="44.28068" lon="6.7426">
        <ele>2060</ele>
        <time>2021-12-29T00:12:26Z</time>
      </trkpt>
      <trkpt lat="44.28099" lon="6.74284">
        <ele>2057</ele>
        <time>2021-12-29T00:12:33Z</time>
      </trkpt>
      <trkpt lat="44.28104" lon="6.74292">
        <ele>2055</ele>
        <time>2021-12-29T00:12:34Z</time>
      </trkpt>
      <trkpt lat="44.28108" lon="6.74301">
        <ele>2053</ele>
        <time>2021-12-29T00:12:35Z</time>
      </trkpt>
      <trkpt lat="44.2811" lon="6.74312">
        <ele>2050</ele>
        <time>2021-12-29T00:12:37Z</time>
      </trkpt>
      <trkpt lat="44.28108" lon="6.74336">
        <ele>2045</ele>
        <time>2021-12-29T00:12:40Z</time>
      </trkpt>
      <trkpt lat="44.28105" lon="6.74347">
        <ele>2043</ele>
        <time>2021-12-29T00:12:41Z</time>
      </trkpt>
      <trkpt lat="44.28071" lon="6.74415">
        <ele>2042</ele>
        <time>2021-12-29T00:12:52Z</time>
      </trkpt>
      <trkpt lat="44.28051" lon="6.74456">
        <ele>2046</ele>
        <time>2021-12-29T00:12:58Z</time>
      </trkpt>
      <trkpt lat="44.28027" lon="6.74497">
        <ele>2057</ele>
        <time>2021-12-29T00:13:05Z</time>
      </trkpt>
      <trkpt lat="44.28025" lon="6.74505">
        <ele>2059</ele>
        <time>2021-12-29T00:13:06Z</time>
      </trkpt>
      <trkpt lat="44.28025" lon="6.74516">
        <ele>2061</ele>
        <time>2021-12-29T00:13:07Z</time>
      </trkpt>
      <trkpt lat="44.28028" lon="6.74527">
        <ele>2061</ele>
        <time>2021-12-29T00:13:09Z</time>
      </trkpt>
      <trkpt lat="44.28035" lon="6.74537">
        <ele>2059</ele>
        <time>2021-12-29T00:13:11Z</time>
      </trkpt>
      <trkpt lat="44.2804" lon="6.74542">
        <ele>2057</ele>
        <time>2021-12-29T00:13:12Z</time>
      </trkpt>
      <trkpt lat="44.28055" lon="6.74552">
        <ele>2051</ele>
        <time>2021-12-29T00:13:15Z</time>
      </trkpt>
      <trkpt lat="44.28085" lon="6.74561">
        <ele>2039</ele>
        <time>2021-12-29T00:13:20Z</time>
      </trkpt>
      <trkpt lat="44.2811" lon="6.74574">
        <ele>2035</ele>
        <time>2021-12-29T00:13:25Z</time>
      </trkpt>
      <trkpt lat="44.2814" lon="6.74595">
        <ele>2034</ele>
        <time>2021-12-29T00:13:31Z</time>
      </trkpt>
      <trkpt lat="44.28184" lon="6.74619">
        <ele>2031</ele>
        <time>2021-12-29T00:13:39Z</time>
      </trkpt>
      <trkpt lat="44.28197" lon="6.7462">
        <ele>2030</ele>
        <time>2021-12-29T00:13:42Z</time>
      </trkpt>
      <trkpt lat="44.28267" lon="6.74619">
        <ele>2021</ele>
        <time>2021-12-29T00:13:54Z</time>
      </trkpt>
      <trkpt lat="44.28292" lon="6.74615">
        <ele>2019</ele>
        <time>2021-12-29T00:13:59Z</time>
      </trkpt>
      <trkpt lat="44.28307" lon="6.74607">
        <ele>2017</ele>
        <time>2021-12-29T00:14:01Z</time>
      </trkpt>
      <trkpt lat="44.28327" lon="6.7459">
        <ele>2014</ele>
        <time>2021-12-29T00:14:06Z</time>
      </trkpt>
      <trkpt lat="44.28344" lon="6.74565">
        <ele>2009</ele>
        <time>2021-12-29T00:14:10Z</time>
      </trkpt>
      <trkpt lat="44.28359" lon="6.74549">
        <ele>2005</ele>
        <time>2021-12-29T00:14:13Z</time>
      </trkpt>
      <trkpt lat="44.28373" lon="6.74543">
        <ele>2004</ele>
        <time>2021-12-29T00:14:16Z</time>
      </trkpt>
      <trkpt lat="44.2838" lon="6.74542">
        <ele>2003</ele>
        <time>2021-12-29T00:14:17Z</time>
      </trkpt>
      <trkpt lat="44.28395" lon="6.74545">
        <ele>2004</ele>
        <time>2021-12-29T00:14:20Z</time>
      </trkpt>
      <trkpt lat="44.28409" lon="6.74551">
        <ele>2004</ele>
        <time>2021-12-29T00:14:23Z</time>
      </trkpt>
      <trkpt lat="44.28431" lon="6.74567">
        <ele>2005</ele>
        <time>2021-12-29T00:14:27Z</time>
      </trkpt>
      <trkpt lat="44.28459" lon="6.74592">
        <ele>2005</ele>
        <time>2021-12-29T00:14:33Z</time>
      </trkpt>
      <trkpt lat="44.28478" lon="6.74606">
        <ele>2005</ele>
        <time>2021-12-29T00:14:37Z</time>
      </trkpt>
      <trkpt lat="44.28491" lon="6.74611">
        <ele>2004</ele>
        <time>2021-12-29T00:14:39Z</time>
      </trkpt>
      <trkpt lat="44.28498" lon="6.7461">
        <ele>2003</ele>
        <time>2021-12-29T00:14:40Z</time>
      </trkpt>
      <trkpt lat="44.28503" lon="6.74608">
        <ele>2002</ele>
        <time>2021-12-29T00:14:41Z</time>
      </trkpt>
      <trkpt lat="44.28512" lon="6.74596">
        <ele>1999</ele>
        <time>2021-12-29T00:14:43Z</time>
      </trkpt>
      <trkpt lat="44.28514" lon="6.74587">
        <ele>1996</ele>
        <time>2021-12-29T00:14:45Z</time>
      </trkpt>
      <trkpt lat="44.28514" lon="6.74578">
        <ele>1995</ele>
        <time>2021-12-29T00:14:46Z</time>
      </trkpt>
      <trkpt lat="44.28511" lon="6.74559">
        <ele>1994</ele>
        <time>2021-12-29T00:14:48Z</time>
      </trkpt>
      <trkpt lat="44.28504" lon="6.74542">
        <ele>1993</ele>
        <time>2021-12-29T00:14:51Z</time>
      </trkpt>
      <trkpt lat="44.28499" lon="6.74524">
        <ele>1993</ele>
        <time>2021-12-29T00:14:53Z</time>
      </trkpt>
      <trkpt lat="44.28497" lon="6.74515">
        <ele>1992</ele>
        <time>2021-12-29T00:14:54Z</time>
      </trkpt>
      <trkpt lat="44.28499" lon="6.74498">
        <ele>1991</ele>
        <time>2021-12-29T00:14:57Z</time>
      </trkpt>
      <trkpt lat="44.28507" lon="6.74485">
        <ele>1988</ele>
        <time>2021-12-29T00:14:59Z</time>
      </trkpt>
      <trkpt lat="44.28539" lon="6.74464">
        <ele>1981</ele>
        <time>2021-12-29T00:15:05Z</time>
      </trkpt>
      <trkpt lat="44.28553" lon="6.74443">
        <ele>1978</ele>
        <time>2021-12-29T00:15:09Z</time>
      </trkpt>
      <trkpt lat="44.28557" lon="6.74428">
        <ele>1977</ele>
        <time>2021-12-29T00:15:11Z</time>
      </trkpt>
      <trkpt lat="44.28556" lon="6.74422">
        <ele>1977</ele>
        <time>2021-12-29T00:15:12Z</time>
      </trkpt>
      <trkpt lat="44.2855" lon="6.74411">
        <ele>1976</ele>
        <time>2021-12-29T00:15:13Z</time>
      </trkpt>
      <trkpt lat="44.28539" lon="6.74402">
        <ele>1974</ele>
        <time>2021-12-29T00:15:16Z</time>
      </trkpt>
      <trkpt lat="44.28525" lon="6.74395">
        <ele>1973</ele>
        <time>2021-12-29T00:15:18Z</time>
      </trkpt>
      <trkpt lat="44.28507" lon="6.74388">
        <ele>1972</ele>
        <time>2021-12-29T00:15:22Z</time>
      </trkpt>
      <trkpt lat="44.28414" lon="6.74389">
        <ele>1974</ele>
        <time>2021-12-29T00:15:38Z</time>
      </trkpt>
      <trkpt lat="44.28379" lon="6.7438">
        <ele>1974</ele>
        <time>2021-12-29T00:15:44Z</time>
      </trkpt>
      <trkpt lat="44.28367" lon="6.74367">
        <ele>1973</ele>
        <time>2021-12-29T00:15:47Z</time>
      </trkpt>
      <trkpt lat="44.28359" lon="6.74336">
        <ele>1969</ele>
        <time>2021-12-29T00:15:51Z</time>
      </trkpt>
      <trkpt lat="44.28354" lon="6.74297">
        <ele>1973</ele>
        <time>2021-12-29T00:15:56Z</time>
      </trkpt>
      <trkpt lat="44.28356" lon="6.74284">
        <ele>1973</ele>
        <time>2021-12-29T00:15:58Z</time>
      </trkpt>
      <trkpt lat="44.2836" lon="6.74275">
        <ele>1973</ele>
        <time>2021-12-29T00:15:59Z</time>
      </trkpt>
      <trkpt lat="44.28376" lon="6.74257">
        <ele>1971</ele>
        <time>2021-12-29T00:16:03Z</time>
      </trkpt>
      <trkpt lat="44.28433" lon="6.74223">
        <ele>1967</ele>
        <time>2021-12-29T00:16:14Z</time>
      </trkpt>
      <trkpt lat="44.28488" lon="6.74203">
        <ele>1965</ele>
        <time>2021-12-29T00:16:24Z</time>
      </trkpt>
      <trkpt lat="44.28509" lon="6.74199">
        <ele>1965</ele>
        <time>2021-12-29T00:16:28Z</time>
      </trkpt>
      <trkpt lat="44.2852" lon="6.74199">
        <ele>1966</ele>
        <time>2021-12-29T00:16:30Z</time>
      </trkpt>
      <trkpt lat="44.28583" lon="6.74226">
        <ele>1962</ele>
        <time>2021-12-29T00:16:42Z</time>
      </trkpt>
      <trkpt lat="44.28616" lon="6.74234">
        <ele>1958</ele>
        <time>2021-12-29T00:16:48Z</time>
      </trkpt>
      <trkpt lat="44.28638" lon="6.74235">
        <ele>1956</ele>
        <time>2021-12-29T00:16:52Z</time>
      </trkpt>
      <trkpt lat="44.28668" lon="6.74234">
        <ele>1954</ele>
        <time>2021-12-29T00:16:57Z</time>
      </trkpt>
      <trkpt lat="44.28716" lon="6.74219">
        <ele>1958</ele>
        <time>2021-12-29T00:17:06Z</time>
      </trkpt>
      <trkpt lat="44.28736" lon="6.74221">
        <ele>1957</ele>
        <time>2021-12-29T00:17:09Z</time>
      </trkpt>
      <trkpt lat="44.28757" lon="6.7423">
        <ele>1955</ele>
        <time>2021-12-29T00:17:13Z</time>
      </trkpt>
      <trkpt lat="44.28802" lon="6.74257">
        <ele>1950</ele>
        <time>2021-12-29T00:17:22Z</time>
      </trkpt>
      <trkpt lat="44.28836" lon="6.74279">
        <ele>1946</ele>
        <time>2021-12-29T00:17:29Z</time>
      </trkpt>
      <trkpt lat="44.28877" lon="6.7431">
        <ele>1943</ele>
        <time>2021-12-29T00:17:37Z</time>
      </trkpt>
      <trkpt lat="44.28908" lon="6.74328">
        <ele>1943</ele>
        <time>2021-12-29T00:17:43Z</time>
      </trkpt>
      <trkpt lat="44.2902" lon="6.7438">
        <ele>1934</ele>
        <time>2021-12-29T00:18:04Z</time>
      </trkpt>
      <trkpt lat="44.29053" lon="6.7439">
        <ele>1931</ele>
        <time>2021-12-29T00:18:10Z</time>
      </trkpt>
      <trkpt lat="44.29096" lon="6.74398">
        <ele>1929</ele>
        <time>2021-12-29T00:18:18Z</time>
      </trkpt>
      <trkpt lat="44.29149" lon="6.7439">
        <ele>1935</ele>
        <time>2021-12-29T00:18:27Z</time>
      </trkpt>
      <trkpt lat="44.29167" lon="6.7439">
        <ele>1936</ele>
        <time>2021-12-29T00:18:30Z</time>
      </trkpt>
      <trkpt lat="44.29186" lon="6.74395">
        <ele>1935</ele>
        <time>2021-12-29T00:18:34Z</time>
      </trkpt>
      <trkpt lat="44.29215" lon="6.74411">
        <ele>1928</ele>
        <time>2021-12-29T00:18:39Z</time>
      </trkpt>
      <trkpt lat="44.2923" lon="6.74408">
        <ele>1930</ele>
        <time>2021-12-29T00:18:42Z</time>
      </trkpt>
      <trkpt lat="44.29253" lon="6.74395">
        <ele>1938</ele>
        <time>2021-12-29T00:18:46Z</time>
      </trkpt>
      <trkpt lat="44.2927" lon="6.7439">
        <ele>1938</ele>
        <time>2021-12-29T00:18:49Z</time>
      </trkpt>
      <trkpt lat="44.29286" lon="6.74392">
        <ele>1933</ele>
        <time>2021-12-29T00:18:52Z</time>
      </trkpt>
      <trkpt lat="44.29305" lon="6.74398">
        <ele>1926</ele>
        <time>2021-12-29T00:18:56Z</time>
      </trkpt>
      <trkpt lat="44.29313" lon="6.74398">
        <ele>1924</ele>
        <time>2021-12-29T00:18:57Z</time>
      </trkpt>
      <trkpt lat="44.29383" lon="6.74386">
        <ele>1922</ele>
        <time>2021-12-29T00:19:10Z</time>
      </trkpt>
      <trkpt lat="44.29447" lon="6.74373">
        <ele>1922</ele>
        <time>2021-12-29T00:19:21Z</time>
      </trkpt>
      <trkpt lat="44.29469" lon="6.74371">
        <ele>1920</ele>
        <time>2021-12-29T00:19:25Z</time>
      </trkpt>
      <trkpt lat="44.2949" lon="6.74373">
        <ele>1917</ele>
        <time>2021-12-29T00:19:29Z</time>
      </trkpt>
      <trkpt lat="44.2956" lon="6.74391">
        <ele>1907</ele>
        <time>2021-12-29T00:19:42Z</time>
      </trkpt>
      <trkpt lat="44.29578" lon="6.7439">
        <ele>1907</ele>
        <time>2021-12-29T00:19:45Z</time>
      </trkpt>
      <trkpt lat="44.29673" lon="6.74377">
        <ele>1911</ele>
        <time>2021-12-29T00:20:02Z</time>
      </trkpt>
      <trkpt lat="44.29691" lon="6.74381">
        <ele>1911</ele>
        <time>2021-12-29T00:20:05Z</time>
      </trkpt>
      <trkpt lat="44.2971" lon="6.74388">
        <ele>1909</ele>
        <time>2021-12-29T00:20:08Z</time>
      </trkpt>
      <trkpt lat="44.29731" lon="6.74401">
        <ele>1906</ele>
        <time>2021-12-29T00:20:13Z</time>
      </trkpt>
      <trkpt lat="44.29761" lon="6.74424">
        <ele>1901</ele>
        <time>2021-12-29T00:20:19Z</time>
      </trkpt>
      <trkpt lat="44.29781" lon="6.74429">
        <ele>1899</ele>
        <time>2021-12-29T00:20:22Z</time>
      </trkpt>
      <trkpt lat="44.29831" lon="6.74422">
        <ele>1898</ele>
        <time>2021-12-29T00:20:31Z</time>
      </trkpt>
      <trkpt lat="44.29871" lon="6.74409">
        <ele>1899</ele>
        <time>2021-12-29T00:20:39Z</time>
      </trkpt>
      <trkpt lat="44.29884" lon="6.74408">
        <ele>1899</ele>
        <time>2021-12-29T00:20:41Z</time>
      </trkpt>
      <trkpt lat="44.29987" lon="6.74411">
        <ele>1898</ele>
        <time>2021-12-29T00:20:59Z</time>
      </trkpt>
      <trkpt lat="44.30048" lon="6.74414">
        <ele>1895</ele>
        <time>2021-12-29T00:21:10Z</time>
      </trkpt>
      <trkpt lat="44.30144" lon="6.74447">
        <ele>1886</ele>
        <time>2021-12-29T00:21:28Z</time>
      </trkpt>
      <trkpt lat="44.30157" lon="6.74449">
        <ele>1885</ele>
        <time>2021-12-29T00:21:30Z</time>
      </trkpt>
      <trkpt lat="44.3018" lon="6.74451">
        <ele>1884</ele>
        <time>2021-12-29T00:21:34Z</time>
      </trkpt>
      <trkpt lat="44.30205" lon="6.74448">
        <ele>1882</ele>
        <time>2021-12-29T00:21:39Z</time>
      </trkpt>
      <trkpt lat="44.30239" lon="6.74442">
        <ele>1881</ele>
        <time>2021-12-29T00:21:45Z</time>
      </trkpt>
      <trkpt lat="44.3025" lon="6.74437">
        <ele>1881</ele>
        <time>2021-12-29T00:21:47Z</time>
      </trkpt>
      <trkpt lat="44.30307" lon="6.74401">
        <ele>1883</ele>
        <time>2021-12-29T00:21:58Z</time>
      </trkpt>
      <trkpt lat="44.30316" lon="6.74398">
        <ele>1883</ele>
        <time>2021-12-29T00:21:59Z</time>
      </trkpt>
      <trkpt lat="44.30324" lon="6.74398">
        <ele>1882</ele>
        <time>2021-12-29T00:22:01Z</time>
      </trkpt>
      <trkpt lat="44.30331" lon="6.74402">
        <ele>1880</ele>
        <time>2021-12-29T00:22:02Z</time>
      </trkpt>
      <trkpt lat="44.3035" lon="6.7442">
        <ele>1875</ele>
        <time>2021-12-29T00:22:06Z</time>
      </trkpt>
      <trkpt lat="44.30358" lon="6.74424">
        <ele>1875</ele>
        <time>2021-12-29T00:22:08Z</time>
      </trkpt>
      <trkpt lat="44.30374" lon="6.74424">
        <ele>1874</ele>
        <time>2021-12-29T00:22:11Z</time>
      </trkpt>
      <trkpt lat="44.30439" lon="6.74404">
        <ele>1872</ele>
        <time>2021-12-29T00:22:23Z</time>
      </trkpt>
      <trkpt lat="44.30456" lon="6.74393">
        <ele>1870</ele>
        <time>2021-12-29T00:22:26Z</time>
      </trkpt>
      <trkpt lat="44.30472" lon="6.74379">
        <ele>1869</ele>
        <time>2021-12-29T00:22:29Z</time>
      </trkpt>
      <trkpt lat="44.30551" lon="6.74292">
        <ele>1867</ele>
        <time>2021-12-29T00:22:47Z</time>
      </trkpt>
      <trkpt lat="44.30571" lon="6.74278">
        <ele>1865</ele>
        <time>2021-12-29T00:22:51Z</time>
      </trkpt>
      <trkpt lat="44.30618" lon="6.74255">
        <ele>1862</ele>
        <time>2021-12-29T00:23:00Z</time>
      </trkpt>
      <trkpt lat="44.30695" lon="6.74221">
        <ele>1858</ele>
        <time>2021-12-29T00:23:14Z</time>
      </trkpt>
      <trkpt lat="44.30712" lon="6.74211">
        <ele>1857</ele>
        <time>2021-12-29T00:23:18Z</time>
      </trkpt>
      <trkpt lat="44.3074" lon="6.74185">
        <ele>1857</ele>
        <time>2021-12-29T00:23:24Z</time>
      </trkpt>
      <trkpt lat="44.30755" lon="6.74183">
        <ele>1855</ele>
        <time>2021-12-29T00:23:26Z</time>
      </trkpt>
      <trkpt lat="44.3077" lon="6.74187">
        <ele>1852</ele>
        <time>2021-12-29T00:23:29Z</time>
      </trkpt>
      <trkpt lat="44.30792" lon="6.74185">
        <ele>1849</ele>
        <time>2021-12-29T00:23:33Z</time>
      </trkpt>
      <trkpt lat="44.30799" lon="6.74183">
        <ele>1848</ele>
        <time>2021-12-29T00:23:34Z</time>
      </trkpt>
      <trkpt lat="44.30812" lon="6.74174">
        <ele>1848</ele>
        <time>2021-12-29T00:23:37Z</time>
      </trkpt>
      <trkpt lat="44.30821" lon="6.74156">
        <ele>1849</ele>
        <time>2021-12-29T00:23:40Z</time>
      </trkpt>
      <trkpt lat="44.30826" lon="6.74112">
        <ele>1851</ele>
        <time>2021-12-29T00:23:45Z</time>
      </trkpt>
      <trkpt lat="44.30829" lon="6.741">
        <ele>1851</ele>
        <time>2021-12-29T00:23:47Z</time>
      </trkpt>
      <trkpt lat="44.3084" lon="6.74078">
        <ele>1850</ele>
        <time>2021-12-29T00:23:50Z</time>
      </trkpt>
      <trkpt lat="44.30855" lon="6.74059">
        <ele>1848</ele>
        <time>2021-12-29T00:23:54Z</time>
      </trkpt>
      <trkpt lat="44.30884" lon="6.74044">
        <ele>1843</ele>
        <time>2021-12-29T00:23:59Z</time>
      </trkpt>
      <trkpt lat="44.30892" lon="6.74037">
        <ele>1842</ele>
        <time>2021-12-29T00:24:01Z</time>
      </trkpt>
      <trkpt lat="44.309" lon="6.74028">
        <ele>1841</ele>
        <time>2021-12-29T00:24:03Z</time>
      </trkpt>
      <trkpt lat="44.3091" lon="6.74009">
        <ele>1841</ele>
        <time>2021-12-29T00:24:06Z</time>
      </trkpt>
      <trkpt lat="44.30919" lon="6.73998">
        <ele>1840</ele>
        <time>2021-12-29T00:24:08Z</time>
      </trkpt>
      <trkpt lat="44.30943" lon="6.73985">
        <ele>1834</ele>
        <time>2021-12-29T00:24:13Z</time>
      </trkpt>
      <trkpt lat="44.30963" lon="6.73959">
        <ele>1833</ele>
        <time>2021-12-29T00:24:17Z</time>
      </trkpt>
      <trkpt lat="44.30977" lon="6.73938">
        <ele>1833</ele>
        <time>2021-12-29T00:24:21Z</time>
      </trkpt>
      <trkpt lat="44.30989" lon="6.73913">
        <ele>1835</ele>
        <time>2021-12-29T00:24:25Z</time>
      </trkpt>
      <trkpt lat="44.31005" lon="6.73872">
        <ele>1832</ele>
        <time>2021-12-29T00:24:31Z</time>
      </trkpt>
      <trkpt lat="44.31012" lon="6.73845">
        <ele>1831</ele>
        <time>2021-12-29T00:24:35Z</time>
      </trkpt>
      <trkpt lat="44.31011" lon="6.73813">
        <ele>1833</ele>
        <time>2021-12-29T00:24:39Z</time>
      </trkpt>
      <trkpt lat="44.31012" lon="6.73783">
        <ele>1834</ele>
        <time>2021-12-29T00:24:42Z</time>
      </trkpt>
      <trkpt lat="44.31015" lon="6.73772">
        <ele>1833</ele>
        <time>2021-12-29T00:24:44Z</time>
      </trkpt>
      <trkpt lat="44.31018" lon="6.73763">
        <ele>1832</ele>
        <time>2021-12-29T00:24:45Z</time>
      </trkpt>
      <trkpt lat="44.31033" lon="6.73736">
        <ele>1828</ele>
        <time>2021-12-29T00:24:50Z</time>
      </trkpt>
      <trkpt lat="44.31049" lon="6.73685">
        <ele>1828</ele>
        <time>2021-12-29T00:24:57Z</time>
      </trkpt>
      <trkpt lat="44.31055" lon="6.7367">
        <ele>1827</ele>
        <time>2021-12-29T00:24:59Z</time>
      </trkpt>
      <trkpt lat="44.31104" lon="6.73639">
        <ele>1815</ele>
        <time>2021-12-29T00:25:08Z</time>
      </trkpt>
      <trkpt lat="44.31108" lon="6.73639">
        <ele>1813</ele>
        <time>2021-12-29T00:25:09Z</time>
      </trkpt>
      <trkpt lat="44.31113" lon="6.73643">
        <ele>1811</ele>
        <time>2021-12-29T00:25:10Z</time>
      </trkpt>
      <trkpt lat="44.31116" lon="6.7365">
        <ele>1809</ele>
        <time>2021-12-29T00:25:11Z</time>
      </trkpt>
      <trkpt lat="44.31116" lon="6.73656">
        <ele>1808</ele>
        <time>2021-12-29T00:25:12Z</time>
      </trkpt>
      <trkpt lat="44.3111" lon="6.73668">
        <ele>1808</ele>
        <time>2021-12-29T00:25:14Z</time>
      </trkpt>
      <trkpt lat="44.31075" lon="6.73703">
        <ele>1815</ele>
        <time>2021-12-29T00:25:21Z</time>
      </trkpt>
      <trkpt lat="44.3107" lon="6.73711">
        <ele>1816</ele>
        <time>2021-12-29T00:25:23Z</time>
      </trkpt>
      <trkpt lat="44.31067" lon="6.73726">
        <ele>1815</ele>
        <time>2021-12-29T00:25:25Z</time>
      </trkpt>
      <trkpt lat="44.31069" lon="6.73732">
        <ele>1813</ele>
        <time>2021-12-29T00:25:26Z</time>
      </trkpt>
      <trkpt lat="44.31077" lon="6.73738">
        <ele>1809</ele>
        <time>2021-12-29T00:25:27Z</time>
      </trkpt>
      <trkpt lat="44.31081" lon="6.73739">
        <ele>1807</ele>
        <time>2021-12-29T00:25:28Z</time>
      </trkpt>
      <trkpt lat="44.3109" lon="6.73733">
        <ele>1805</ele>
        <time>2021-12-29T00:25:30Z</time>
      </trkpt>
      <trkpt lat="44.31126" lon="6.73686">
        <ele>1801</ele>
        <time>2021-12-29T00:25:39Z</time>
      </trkpt>
      <trkpt lat="44.31132" lon="6.73683">
        <ele>1799</ele>
        <time>2021-12-29T00:25:40Z</time>
      </trkpt>
      <trkpt lat="44.31138" lon="6.73686">
        <ele>1797</ele>
        <time>2021-12-29T00:25:41Z</time>
      </trkpt>
      <trkpt lat="44.31141" lon="6.73696">
        <ele>1795</ele>
        <time>2021-12-29T00:25:42Z</time>
      </trkpt>
      <trkpt lat="44.3114" lon="6.73705">
        <ele>1795</ele>
        <time>2021-12-29T00:25:43Z</time>
      </trkpt>
      <trkpt lat="44.3112" lon="6.7379">
        <ele>1792</ele>
        <time>2021-12-29T00:25:55Z</time>
      </trkpt>
      <trkpt lat="44.31114" lon="6.73804">
        <ele>1792</ele>
        <time>2021-12-29T00:25:57Z</time>
      </trkpt>
      <trkpt lat="44.31084" lon="6.73858">
        <ele>1794</ele>
        <time>2021-12-29T00:26:05Z</time>
      </trkpt>
      <trkpt lat="44.31073" lon="6.73882">
        <ele>1797</ele>
        <time>2021-12-29T00:26:09Z</time>
      </trkpt>
      <trkpt lat="44.3107" lon="6.73893">
        <ele>1798</ele>
        <time>2021-12-29T00:26:11Z</time>
      </trkpt>
      <trkpt lat="44.31074" lon="6.73916">
        <ele>1794</ele>
        <time>2021-12-29T00:26:14Z</time>
      </trkpt>
      <trkpt lat="44.31085" lon="6.73929">
        <ele>1788</ele>
        <time>2021-12-29T00:26:16Z</time>
      </trkpt>
      <trkpt lat="44.31107" lon="6.73957">
        <ele>1784</ele>
        <time>2021-12-29T00:26:21Z</time>
      </trkpt>
      <trkpt lat="44.31116" lon="6.73966">
        <ele>1783</ele>
        <time>2021-12-29T00:26:23Z</time>
      </trkpt>
      <trkpt lat="44.31131" lon="6.73974">
        <ele>1783</ele>
        <time>2021-12-29T00:26:26Z</time>
      </trkpt>
      <trkpt lat="44.31146" lon="6.73977">
        <ele>1784</ele>
        <time>2021-12-29T00:26:29Z</time>
      </trkpt>
      <trkpt lat="44.31163" lon="6.73972">
        <ele>1784</ele>
        <time>2021-12-29T00:26:32Z</time>
      </trkpt>
      <trkpt lat="44.3117" lon="6.73967">
        <ele>1784</ele>
        <time>2021-12-29T00:26:33Z</time>
      </trkpt>
      <trkpt lat="44.31182" lon="6.73954">
        <ele>1786</ele>
        <time>2021-12-29T00:26:36Z</time>
      </trkpt>
      <trkpt lat="44.31196" lon="6.73923">
        <ele>1786</ele>
        <time>2021-12-29T00:26:41Z</time>
      </trkpt>
      <trkpt lat="44.31209" lon="6.73858">
        <ele>1785</ele>
        <time>2021-12-29T00:26:49Z</time>
      </trkpt>
      <trkpt lat="44.31217" lon="6.73824">
        <ele>1785</ele>
        <time>2021-12-29T00:26:54Z</time>
      </trkpt>
      <trkpt lat="44.31228" lon="6.73797">
        <ele>1785</ele>
        <time>2021-12-29T00:26:58Z</time>
      </trkpt>
      <trkpt lat="44.31283" lon="6.7368">
        <ele>1783</ele>
        <time>2021-12-29T00:27:16Z</time>
      </trkpt>
      <trkpt lat="44.31323" lon="6.73586">
        <ele>1782</ele>
        <time>2021-12-29T00:27:30Z</time>
      </trkpt>
      <trkpt lat="44.31351" lon="6.73525">
        <ele>1779</ele>
        <time>2021-12-29T00:27:39Z</time>
      </trkpt>
      <trkpt lat="44.31384" lon="6.73467">
        <ele>1781</ele>
        <time>2021-12-29T00:27:48Z</time>
      </trkpt>
      <trkpt lat="44.31414" lon="6.73409">
        <ele>1780</ele>
        <time>2021-12-29T00:27:57Z</time>
      </trkpt>
      <trkpt lat="44.31439" lon="6.73368">
        <ele>1778</ele>
        <time>2021-12-29T00:28:04Z</time>
      </trkpt>
      <trkpt lat="44.31499" lon="6.73285">
        <ele>1776</ele>
        <time>2021-12-29T00:28:19Z</time>
      </trkpt>
      <trkpt lat="44.31528" lon="6.73228">
        <ele>1776</ele>
        <time>2021-12-29T00:28:28Z</time>
      </trkpt>
      <trkpt lat="44.3157" lon="6.73135">
        <ele>1774</ele>
        <time>2021-12-29T00:28:42Z</time>
      </trkpt>
      <trkpt lat="44.31601" lon="6.73078">
        <ele>1774</ele>
        <time>2021-12-29T00:28:51Z</time>
      </trkpt>
      <trkpt lat="44.31626" lon="6.73037">
        <ele>1772</ele>
        <time>2021-12-29T00:28:58Z</time>
      </trkpt>
      <trkpt lat="44.31671" lon="6.72975">
        <ele>1771</ele>
        <time>2021-12-29T00:29:09Z</time>
      </trkpt>
      <trkpt lat="44.31706" lon="6.72922">
        <ele>1768</ele>
        <time>2021-12-29T00:29:19Z</time>
      </trkpt>
      <trkpt lat="44.31723" lon="6.72892">
        <ele>1768</ele>
        <time>2021-12-29T00:29:24Z</time>
      </trkpt>
      <trkpt lat="44.31739" lon="6.72852">
        <ele>1764</ele>
        <time>2021-12-29T00:29:29Z</time>
      </trkpt>
      <trkpt lat="44.31761" lon="6.72818">
        <ele>1766</ele>
        <time>2021-12-29T00:29:35Z</time>
      </trkpt>
      <trkpt lat="44.31775" lon="6.72788">
        <ele>1768</ele>
        <time>2021-12-29T00:29:40Z</time>
      </trkpt>
      <trkpt lat="44.3178" lon="6.7277">
        <ele>1768</ele>
        <time>2021-12-29T00:29:42Z</time>
      </trkpt>
      <trkpt lat="44.31793" lon="6.72684">
        <ele>1762</ele>
        <time>2021-12-29T00:29:53Z</time>
      </trkpt>
      <trkpt lat="44.31809" lon="6.72614">
        <ele>1757</ele>
        <time>2021-12-29T00:30:03Z</time>
      </trkpt>
      <trkpt lat="44.31824" lon="6.72563">
        <ele>1754</ele>
        <time>2021-12-29T00:30:10Z</time>
      </trkpt>
      <trkpt lat="44.31849" lon="6.72502">
        <ele>1753</ele>
        <time>2021-12-29T00:30:19Z</time>
      </trkpt>
      <trkpt lat="44.31863" lon="6.72454">
        <ele>1751</ele>
        <time>2021-12-29T00:30:25Z</time>
      </trkpt>
      <trkpt lat="44.31869" lon="6.72421">
        <ele>1748</ele>
        <time>2021-12-29T00:30:30Z</time>
      </trkpt>
      <trkpt lat="44.31875" lon="6.72367">
        <ele>1746</ele>
        <time>2021-12-29T00:30:37Z</time>
      </trkpt>
      <trkpt lat="44.31879" lon="6.72353">
        <ele>1746</ele>
        <time>2021-12-29T00:30:39Z</time>
      </trkpt>
      <trkpt lat="44.31884" lon="6.7234">
        <ele>1746</ele>
        <time>2021-12-29T00:30:40Z</time>
      </trkpt>
      <trkpt lat="44.31891" lon="6.7233">
        <ele>1748</ele>
        <time>2021-12-29T00:30:42Z</time>
      </trkpt>
      <trkpt lat="44.31933" lon="6.72299">
        <ele>1756</ele>
        <time>2021-12-29T00:30:51Z</time>
      </trkpt>
      <trkpt lat="44.31942" lon="6.72281">
        <ele>1756</ele>
        <time>2021-12-29T00:30:53Z</time>
      </trkpt>
      <trkpt lat="44.31945" lon="6.72257">
        <ele>1753</ele>
        <time>2021-12-29T00:30:57Z</time>
      </trkpt>
      <trkpt lat="44.31961" lon="6.72107">
        <ele>1760</ele>
        <time>2021-12-29T00:31:16Z</time>
      </trkpt>
      <trkpt lat="44.31958" lon="6.72075">
        <ele>1760</ele>
        <time>2021-12-29T00:31:20Z</time>
      </trkpt>
      <trkpt lat="44.31945" lon="6.72034">
        <ele>1758</ele>
        <time>2021-12-29T00:31:26Z</time>
      </trkpt>
      <trkpt lat="44.31936" lon="6.72">
        <ele>1757</ele>
        <time>2021-12-29T00:31:30Z</time>
      </trkpt>
      <trkpt lat="44.31931" lon="6.71923">
        <ele>1752</ele>
        <time>2021-12-29T00:31:40Z</time>
      </trkpt>
      <trkpt lat="44.31943" lon="6.71877">
        <ele>1760</ele>
        <time>2021-12-29T00:31:46Z</time>
      </trkpt>
      <trkpt lat="44.31943" lon="6.71864">
        <ele>1761</ele>
        <time>2021-12-29T00:31:48Z</time>
      </trkpt>
      <trkpt lat="44.3194" lon="6.71839">
        <ele>1760</ele>
        <time>2021-12-29T00:31:51Z</time>
      </trkpt>
      <trkpt lat="44.31931" lon="6.71802">
        <ele>1753</ele>
        <time>2021-12-29T00:31:56Z</time>
      </trkpt>
      <trkpt lat="44.31926" lon="6.71772">
        <ele>1749</ele>
        <time>2021-12-29T00:32:00Z</time>
      </trkpt>
      <trkpt lat="44.31924" lon="6.71731">
        <ele>1744</ele>
        <time>2021-12-29T00:32:05Z</time>
      </trkpt>
      <trkpt lat="44.31924" lon="6.71717">
        <ele>1743</ele>
        <time>2021-12-29T00:32:07Z</time>
      </trkpt>
      <trkpt lat="44.31928" lon="6.71696">
        <ele>1743</ele>
        <time>2021-12-29T00:32:10Z</time>
      </trkpt>
      <trkpt lat="44.31964" lon="6.71631">
        <ele>1750</ele>
        <time>2021-12-29T00:32:20Z</time>
      </trkpt>
      <trkpt lat="44.3197" lon="6.71615">
        <ele>1749</ele>
        <time>2021-12-29T00:32:23Z</time>
      </trkpt>
      <trkpt lat="44.31983" lon="6.71563">
        <ele>1743</ele>
        <time>2021-12-29T00:32:30Z</time>
      </trkpt>
      <trkpt lat="44.31988" lon="6.71556">
        <ele>1744</ele>
        <time>2021-12-29T00:32:31Z</time>
      </trkpt>
      <trkpt lat="44.31994" lon="6.71553">
        <ele>1745</ele>
        <time>2021-12-29T00:32:32Z</time>
      </trkpt>
      <trkpt lat="44.32015" lon="6.71554">
        <ele>1752</ele>
        <time>2021-12-29T00:32:36Z</time>
      </trkpt>
      <trkpt lat="44.3202" lon="6.71552">
        <ele>1753</ele>
        <time>2021-12-29T00:32:37Z</time>
      </trkpt>
      <trkpt lat="44.32022" lon="6.71548">
        <ele>1753</ele>
        <time>2021-12-29T00:32:37Z</time>
      </trkpt>
      <trkpt lat="44.32029" lon="6.71528">
        <ele>1752</ele>
        <time>2021-12-29T00:32:40Z</time>
      </trkpt>
      <trkpt lat="44.3203" lon="6.7152">
        <ele>1751</ele>
        <time>2021-12-29T00:32:41Z</time>
      </trkpt>
      <trkpt lat="44.32029" lon="6.71514">
        <ele>1750</ele>
        <time>2021-12-29T00:32:42Z</time>
      </trkpt>
      <trkpt lat="44.32014" lon="6.71486">
        <ele>1741</ele>
        <time>2021-12-29T00:32:46Z</time>
      </trkpt>
      <trkpt lat="44.32011" lon="6.71477">
        <ele>1740</ele>
        <time>2021-12-29T00:32:48Z</time>
      </trkpt>
      <trkpt lat="44.32009" lon="6.71467">
        <ele>1739</ele>
        <time>2021-12-29T00:32:49Z</time>
      </trkpt>
      <trkpt lat="44.32009" lon="6.71457">
        <ele>1738</ele>
        <time>2021-12-29T00:32:50Z</time>
      </trkpt>
      <trkpt lat="44.32011" lon="6.71448">
        <ele>1738</ele>
        <time>2021-12-29T00:32:52Z</time>
      </trkpt>
      <trkpt lat="44.32029" lon="6.71415">
        <ele>1742</ele>
        <time>2021-12-29T00:32:57Z</time>
      </trkpt>
      <trkpt lat="44.3204" lon="6.71367">
        <ele>1739</ele>
        <time>2021-12-29T00:33:03Z</time>
      </trkpt>
      <trkpt lat="44.32053" lon="6.71299">
        <ele>1734</ele>
        <time>2021-12-29T00:33:12Z</time>
      </trkpt>
      <trkpt lat="44.32061" lon="6.71272">
        <ele>1732</ele>
        <time>2021-12-29T00:33:16Z</time>
      </trkpt>
      <trkpt lat="44.32102" lon="6.71198">
        <ele>1737</ele>
        <time>2021-12-29T00:33:28Z</time>
      </trkpt>
      <trkpt lat="44.32105" lon="6.71187">
        <ele>1737</ele>
        <time>2021-12-29T00:33:29Z</time>
      </trkpt>
      <trkpt lat="44.32106" lon="6.71176">
        <ele>1736</ele>
        <time>2021-12-29T00:33:31Z</time>
      </trkpt>
      <trkpt lat="44.32105" lon="6.7113">
        <ele>1731</ele>
        <time>2021-12-29T00:33:37Z</time>
      </trkpt>
      <trkpt lat="44.32108" lon="6.71119">
        <ele>1731</ele>
        <time>2021-12-29T00:33:38Z</time>
      </trkpt>
      <trkpt lat="44.32128" lon="6.71079">
        <ele>1734</ele>
        <time>2021-12-29T00:33:44Z</time>
      </trkpt>
      <trkpt lat="44.32138" lon="6.71048">
        <ele>1735</ele>
        <time>2021-12-29T00:33:49Z</time>
      </trkpt>
      <trkpt lat="44.3214" lon="6.71034">
        <ele>1734</ele>
        <time>2021-12-29T00:33:50Z</time>
      </trkpt>
      <trkpt lat="44.32142" lon="6.70995">
        <ele>1731</ele>
        <time>2021-12-29T00:33:55Z</time>
      </trkpt>
      <trkpt lat="44.32144" lon="6.70977">
        <ele>1730</ele>
        <time>2021-12-29T00:33:58Z</time>
      </trkpt>
      <trkpt lat="44.3215" lon="6.70965">
        <ele>1731</ele>
        <time>2021-12-29T00:34:00Z</time>
      </trkpt>
      <trkpt lat="44.32158" lon="6.70956">
        <ele>1733</ele>
        <time>2021-12-29T00:34:01Z</time>
      </trkpt>
      <trkpt lat="44.3218" lon="6.70944">
        <ele>1739</ele>
        <time>2021-12-29T00:34:06Z</time>
      </trkpt>
      <trkpt lat="44.32186" lon="6.70939">
        <ele>1740</ele>
        <time>2021-12-29T00:34:07Z</time>
      </trkpt>
      <trkpt lat="44.32192" lon="6.70926">
        <ele>1741</ele>
        <time>2021-12-29T00:34:09Z</time>
      </trkpt>
      <trkpt lat="44.32192" lon="6.70907">
        <ele>1741</ele>
        <time>2021-12-29T00:34:11Z</time>
      </trkpt>
      <trkpt lat="44.32187" lon="6.70898">
        <ele>1739</ele>
        <time>2021-12-29T00:34:13Z</time>
      </trkpt>
      <trkpt lat="44.32174" lon="6.70887">
        <ele>1735</ele>
        <time>2021-12-29T00:34:15Z</time>
      </trkpt>
      <trkpt lat="44.32167" lon="6.7088">
        <ele>1732</ele>
        <time>2021-12-29T00:34:17Z</time>
      </trkpt>
      <trkpt lat="44.32159" lon="6.70863">
        <ele>1730</ele>
        <time>2021-12-29T00:34:20Z</time>
      </trkpt>
      <trkpt lat="44.32157" lon="6.70847">
        <ele>1729</ele>
        <time>2021-12-29T00:34:22Z</time>
      </trkpt>
      <trkpt lat="44.32158" lon="6.70826">
        <ele>1730</ele>
        <time>2021-12-29T00:34:24Z</time>
      </trkpt>
      <trkpt lat="44.32156" lon="6.70808">
        <ele>1730</ele>
        <time>2021-12-29T00:34:27Z</time>
      </trkpt>
      <trkpt lat="44.32151" lon="6.70791">
        <ele>1728</ele>
        <time>2021-12-29T00:34:29Z</time>
      </trkpt>
      <trkpt lat="44.32136" lon="6.70756">
        <ele>1721</ele>
        <time>2021-12-29T00:34:34Z</time>
      </trkpt>
      <trkpt lat="44.32134" lon="6.70743">
        <ele>1719</ele>
        <time>2021-12-29T00:34:36Z</time>
      </trkpt>
      <trkpt lat="44.32131" lon="6.70664">
        <ele>1716</ele>
        <time>2021-12-29T00:34:46Z</time>
      </trkpt>
      <trkpt lat="44.32137" lon="6.70543">
        <ele>1712</ele>
        <time>2021-12-29T00:35:01Z</time>
      </trkpt>
      <trkpt lat="44.32136" lon="6.70515">
        <ele>1710</ele>
        <time>2021-12-29T00:35:05Z</time>
      </trkpt>
      <trkpt lat="44.32133" lon="6.70492">
        <ele>1707</ele>
        <time>2021-12-29T00:35:08Z</time>
      </trkpt>
      <trkpt lat="44.32133" lon="6.70478">
        <ele>1705</ele>
        <time>2021-12-29T00:35:10Z</time>
      </trkpt>
      <trkpt lat="44.32141" lon="6.70421">
        <ele>1701</ele>
        <time>2021-12-29T00:35:17Z</time>
      </trkpt>
      <trkpt lat="44.32145" lon="6.70404">
        <ele>1699</ele>
        <time>2021-12-29T00:35:19Z</time>
      </trkpt>
      <trkpt lat="44.32152" lon="6.70393">
        <ele>1700</ele>
        <time>2021-12-29T00:35:21Z</time>
      </trkpt>
      <trkpt lat="44.32158" lon="6.70389">
        <ele>1701</ele>
        <time>2021-12-29T00:35:22Z</time>
      </trkpt>
      <trkpt lat="44.3218" lon="6.70376">
        <ele>1707</ele>
        <time>2021-12-29T00:35:27Z</time>
      </trkpt>
      <trkpt lat="44.32186" lon="6.70367">
        <ele>1707</ele>
        <time>2021-12-29T00:35:28Z</time>
      </trkpt>
      <trkpt lat="44.32188" lon="6.70358">
        <ele>1707</ele>
        <time>2021-12-29T00:35:29Z</time>
      </trkpt>
      <trkpt lat="44.32204" lon="6.70275">
        <ele>1708</ele>
        <time>2021-12-29T00:35:40Z</time>
      </trkpt>
      <trkpt lat="44.32204" lon="6.70238">
        <ele>1706</ele>
        <time>2021-12-29T00:35:45Z</time>
      </trkpt>
      <trkpt lat="44.322" lon="6.70178">
        <ele>1700</ele>
        <time>2021-12-29T00:35:53Z</time>
      </trkpt>
      <trkpt lat="44.32195" lon="6.70146">
        <ele>1699</ele>
        <time>2021-12-29T00:35:57Z</time>
      </trkpt>
      <trkpt lat="44.32183" lon="6.70097">
        <ele>1696</ele>
        <time>2021-12-29T00:36:04Z</time>
      </trkpt>
      <trkpt lat="44.32175" lon="6.70071">
        <ele>1694</ele>
        <time>2021-12-29T00:36:07Z</time>
      </trkpt>
      <trkpt lat="44.32168" lon="6.70028">
        <ele>1695</ele>
        <time>2021-12-29T00:36:13Z</time>
      </trkpt>
      <trkpt lat="44.32156" lon="6.69978">
        <ele>1694</ele>
        <time>2021-12-29T00:36:19Z</time>
      </trkpt>
      <trkpt lat="44.32149" lon="6.69931">
        <ele>1695</ele>
        <time>2021-12-29T00:36:26Z</time>
      </trkpt>
      <trkpt lat="44.32134" lon="6.69872">
        <ele>1691</ele>
        <time>2021-12-29T00:36:34Z</time>
      </trkpt>
      <trkpt lat="44.32117" lon="6.69779">
        <ele>1688</ele>
        <time>2021-12-29T00:36:46Z</time>
      </trkpt>
      <trkpt lat="44.32103" lon="6.6972">
        <ele>1685</ele>
        <time>2021-12-29T00:36:54Z</time>
      </trkpt>
      <trkpt lat="44.32093" lon="6.69693">
        <ele>1683</ele>
        <time>2021-12-29T00:36:58Z</time>
      </trkpt>
      <trkpt lat="44.32086" lon="6.69683">
        <ele>1680</ele>
        <time>2021-12-29T00:36:59Z</time>
      </trkpt>
      <trkpt lat="44.32072" lon="6.69668">
        <ele>1676</ele>
        <time>2021-12-29T00:37:02Z</time>
      </trkpt>
      <trkpt lat="44.32065" lon="6.69656">
        <ele>1675</ele>
        <time>2021-12-29T00:37:04Z</time>
      </trkpt>
      <trkpt lat="44.32057" lon="6.69623">
        <ele>1677</ele>
        <time>2021-12-29T00:37:09Z</time>
      </trkpt>
      <trkpt lat="44.32048" lon="6.69581">
        <ele>1679</ele>
        <time>2021-12-29T00:37:14Z</time>
      </trkpt>
      <trkpt lat="44.32043" lon="6.69569">
        <ele>1680</ele>
        <time>2021-12-29T00:37:16Z</time>
      </trkpt>
      <trkpt lat="44.32033" lon="6.69557">
        <ele>1678</ele>
        <time>2021-12-29T00:37:19Z</time>
      </trkpt>
      <trkpt lat="44.31982" lon="6.69501">
        <ele>1666</ele>
        <time>2021-12-29T00:37:30Z</time>
      </trkpt>
      <trkpt lat="44.31967" lon="6.69481">
        <ele>1664</ele>
        <time>2021-12-29T00:37:34Z</time>
      </trkpt>
      <trkpt lat="44.31955" lon="6.69456">
        <ele>1665</ele>
        <time>2021-12-29T00:37:38Z</time>
      </trkpt>
      <trkpt lat="44.31944" lon="6.6943">
        <ele>1666</ele>
        <time>2021-12-29T00:37:41Z</time>
      </trkpt>
      <trkpt lat="44.31937" lon="6.69403">
        <ele>1667</ele>
        <time>2021-12-29T00:37:45Z</time>
      </trkpt>
      <trkpt lat="44.31928" lon="6.69351">
        <ele>1670</ele>
        <time>2021-12-29T00:37:52Z</time>
      </trkpt>
      <trkpt lat="44.31924" lon="6.6934">
        <ele>1669</ele>
        <time>2021-12-29T00:37:53Z</time>
      </trkpt>
      <trkpt lat="44.31894" lon="6.69298">
        <ele>1660</ele>
        <time>2021-12-29T00:38:01Z</time>
      </trkpt>
      <trkpt lat="44.31884" lon="6.69267">
        <ele>1659</ele>
        <time>2021-12-29T00:38:05Z</time>
      </trkpt>
      <trkpt lat="44.31878" lon="6.69197">
        <ele>1655</ele>
        <time>2021-12-29T00:38:14Z</time>
      </trkpt>
      <trkpt lat="44.31879" lon="6.69169">
        <ele>1654</ele>
        <time>2021-12-29T00:38:18Z</time>
      </trkpt>
      <trkpt lat="44.31886" lon="6.69115">
        <ele>1650</ele>
        <time>2021-12-29T00:38:25Z</time>
      </trkpt>
      <trkpt lat="44.31891" lon="6.69106">
        <ele>1651</ele>
        <time>2021-12-29T00:38:26Z</time>
      </trkpt>
      <trkpt lat="44.31915" lon="6.69078">
        <ele>1657</ele>
        <time>2021-12-29T00:38:32Z</time>
      </trkpt>
      <trkpt lat="44.31919" lon="6.69067">
        <ele>1658</ele>
        <time>2021-12-29T00:38:33Z</time>
      </trkpt>
      <trkpt lat="44.31926" lon="6.69017">
        <ele>1654</ele>
        <time>2021-12-29T00:38:40Z</time>
      </trkpt>
      <trkpt lat="44.31944" lon="6.68926">
        <ele>1659</ele>
        <time>2021-12-29T00:38:52Z</time>
      </trkpt>
      <trkpt lat="44.31948" lon="6.68891">
        <ele>1663</ele>
        <time>2021-12-29T00:38:57Z</time>
      </trkpt>
      <trkpt lat="44.31943" lon="6.68869">
        <ele>1661</ele>
        <time>2021-12-29T00:38:59Z</time>
      </trkpt>
      <trkpt lat="44.31922" lon="6.68809">
        <ele>1656</ele>
        <time>2021-12-29T00:39:08Z</time>
      </trkpt>
      <trkpt lat="44.31907" lon="6.68758">
        <ele>1661</ele>
        <time>2021-12-29T00:39:15Z</time>
      </trkpt>
      <trkpt lat="44.31896" lon="6.68733">
        <ele>1661</ele>
        <time>2021-12-29T00:39:19Z</time>
      </trkpt>
      <trkpt lat="44.31872" lon="6.68688">
        <ele>1655</ele>
        <time>2021-12-29T00:39:26Z</time>
      </trkpt>
      <trkpt lat="44.31863" lon="6.68666">
        <ele>1653</ele>
        <time>2021-12-29T00:39:29Z</time>
      </trkpt>
      <trkpt lat="44.31857" lon="6.68644">
        <ele>1648</ele>
        <time>2021-12-29T00:39:32Z</time>
      </trkpt>
      <trkpt lat="44.31854" lon="6.68619">
        <ele>1646</ele>
        <time>2021-12-29T00:39:35Z</time>
      </trkpt>
      <trkpt lat="44.31854" lon="6.68606">
        <ele>1646</ele>
        <time>2021-12-29T00:39:37Z</time>
      </trkpt>
      <trkpt lat="44.31868" lon="6.6851">
        <ele>1653</ele>
        <time>2021-12-29T00:39:49Z</time>
      </trkpt>
      <trkpt lat="44.31869" lon="6.68483">
        <ele>1652</ele>
        <time>2021-12-29T00:39:53Z</time>
      </trkpt>
      <trkpt lat="44.31866" lon="6.68433">
        <ele>1644</ele>
        <time>2021-12-29T00:39:59Z</time>
      </trkpt>
      <trkpt lat="44.31875" lon="6.68356">
        <ele>1643</ele>
        <time>2021-12-29T00:40:09Z</time>
      </trkpt>
      <trkpt lat="44.31893" lon="6.68267">
        <ele>1645</ele>
        <time>2021-12-29T00:40:21Z</time>
      </trkpt>
      <trkpt lat="44.31907" lon="6.68169">
        <ele>1643</ele>
        <time>2021-12-29T00:40:34Z</time>
      </trkpt>
      <trkpt lat="44.31908" lon="6.68135">
        <ele>1640</ele>
        <time>2021-12-29T00:40:38Z</time>
      </trkpt>
      <trkpt lat="44.31906" lon="6.68083">
        <ele>1635</ele>
        <time>2021-12-29T00:40:45Z</time>
      </trkpt>
      <trkpt lat="44.31908" lon="6.68072">
        <ele>1633</ele>
        <time>2021-12-29T00:40:46Z</time>
      </trkpt>
      <trkpt lat="44.31912" lon="6.68063">
        <ele>1633</ele>
        <time>2021-12-29T00:40:47Z</time>
      </trkpt>
      <trkpt lat="44.31917" lon="6.68055">
        <ele>1633</ele>
        <time>2021-12-29T00:40:49Z</time>
      </trkpt>
      <trkpt lat="44.3193" lon="6.68042">
        <ele>1634</ele>
        <time>2021-12-29T00:40:52Z</time>
      </trkpt>
      <trkpt lat="44.31945" lon="6.68033">
        <ele>1636</ele>
        <time>2021-12-29T00:40:55Z</time>
      </trkpt>
      <trkpt lat="44.31956" lon="6.6802">
        <ele>1637</ele>
        <time>2021-12-29T00:40:57Z</time>
      </trkpt>
      <trkpt lat="44.31961" lon="6.68003">
        <ele>1636</ele>
        <time>2021-12-29T00:40:59Z</time>
      </trkpt>
      <trkpt lat="44.31961" lon="6.67994">
        <ele>1634</ele>
        <time>2021-12-29T00:41:01Z</time>
      </trkpt>
      <trkpt lat="44.31953" lon="6.67966">
        <ele>1629</ele>
        <time>2021-12-29T00:41:04Z</time>
      </trkpt>
      <trkpt lat="44.31952" lon="6.67956">
        <ele>1627</ele>
        <time>2021-12-29T00:41:06Z</time>
      </trkpt>
      <trkpt lat="44.31954" lon="6.67935">
        <ele>1626</ele>
        <time>2021-12-29T00:41:08Z</time>
      </trkpt>
      <trkpt lat="44.31957" lon="6.67925">
        <ele>1627</ele>
        <time>2021-12-29T00:41:10Z</time>
      </trkpt>
      <trkpt lat="44.31983" lon="6.67876">
        <ele>1629</ele>
        <time>2021-12-29T00:41:18Z</time>
      </trkpt>
      <trkpt lat="44.32003" lon="6.67852">
        <ele>1632</ele>
        <time>2021-12-29T00:41:22Z</time>
      </trkpt>
      <trkpt lat="44.32015" lon="6.67833">
        <ele>1632</ele>
        <time>2021-12-29T00:41:25Z</time>
      </trkpt>
      <trkpt lat="44.32036" lon="6.67791">
        <ele>1633</ele>
        <time>2021-12-29T00:41:32Z</time>
      </trkpt>
      <trkpt lat="44.32043" lon="6.67763">
        <ele>1630</ele>
        <time>2021-12-29T00:41:36Z</time>
      </trkpt>
      <trkpt lat="44.32039" lon="6.6764">
        <ele>1618</ele>
        <time>2021-12-29T00:41:51Z</time>
      </trkpt>
      <trkpt lat="44.3204" lon="6.67625">
        <ele>1617</ele>
        <time>2021-12-29T00:41:53Z</time>
      </trkpt>
      <trkpt lat="44.32052" lon="6.6755">
        <ele>1615</ele>
        <time>2021-12-29T00:42:03Z</time>
      </trkpt>
      <trkpt lat="44.3206" lon="6.67523">
        <ele>1615</ele>
        <time>2021-12-29T00:42:07Z</time>
      </trkpt>
      <trkpt lat="44.32066" lon="6.67511">
        <ele>1615</ele>
        <time>2021-12-29T00:42:09Z</time>
      </trkpt>
      <trkpt lat="44.3208" lon="6.67491">
        <ele>1616</ele>
        <time>2021-12-29T00:42:12Z</time>
      </trkpt>
      <trkpt lat="44.32115" lon="6.67447">
        <ele>1623</ele>
        <time>2021-12-29T00:42:21Z</time>
      </trkpt>
      <trkpt lat="44.3212" lon="6.67436">
        <ele>1623</ele>
        <time>2021-12-29T00:42:22Z</time>
      </trkpt>
      <trkpt lat="44.32126" lon="6.67409">
        <ele>1621</ele>
        <time>2021-12-29T00:42:26Z</time>
      </trkpt>
      <trkpt lat="44.32146" lon="6.67293">
        <ele>1620</ele>
        <time>2021-12-29T00:42:41Z</time>
      </trkpt>
      <trkpt lat="44.32151" lon="6.67245">
        <ele>1619</ele>
        <time>2021-12-29T00:42:47Z</time>
      </trkpt>
      <trkpt lat="44.32163" lon="6.67162">
        <ele>1611</ele>
        <time>2021-12-29T00:42:58Z</time>
      </trkpt>
      <trkpt lat="44.32164" lon="6.67146">
        <ele>1610</ele>
        <time>2021-12-29T00:43:00Z</time>
      </trkpt>
      <trkpt lat="44.32163" lon="6.67129">
        <ele>1608</ele>
        <time>2021-12-29T00:43:02Z</time>
      </trkpt>
      <trkpt lat="44.32149" lon="6.67067">
        <ele>1595</ele>
        <time>2021-12-29T00:43:11Z</time>
      </trkpt>
      <trkpt lat="44.32147" lon="6.67036">
        <ele>1591</ele>
        <time>2021-12-29T00:43:15Z</time>
      </trkpt>
      <trkpt lat="44.32151" lon="6.67003">
        <ele>1590</ele>
        <time>2021-12-29T00:43:19Z</time>
      </trkpt>
      <trkpt lat="44.32162" lon="6.66951">
        <ele>1587</ele>
        <time>2021-12-29T00:43:26Z</time>
      </trkpt>
      <trkpt lat="44.32179" lon="6.66905">
        <ele>1584</ele>
        <time>2021-12-29T00:43:32Z</time>
      </trkpt>
      <trkpt lat="44.32188" lon="6.66891">
        <ele>1583</ele>
        <time>2021-12-29T00:43:35Z</time>
      </trkpt>
      <trkpt lat="44.322" lon="6.66879">
        <ele>1584</ele>
        <time>2021-12-29T00:43:37Z</time>
      </trkpt>
      <trkpt lat="44.3222" lon="6.66862">
        <ele>1587</ele>
        <time>2021-12-29T00:43:41Z</time>
      </trkpt>
      <trkpt lat="44.3224" lon="6.66823">
        <ele>1583</ele>
        <time>2021-12-29T00:43:48Z</time>
      </trkpt>
      <trkpt lat="44.32256" lon="6.66809">
        <ele>1583</ele>
        <time>2021-12-29T00:43:51Z</time>
      </trkpt>
      <trkpt lat="44.32282" lon="6.66793">
        <ele>1586</ele>
        <time>2021-12-29T00:43:56Z</time>
      </trkpt>
      <trkpt lat="44.32292" lon="6.66789">
        <ele>1587</ele>
        <time>2021-12-29T00:43:58Z</time>
      </trkpt>
      <trkpt lat="44.32309" lon="6.66788">
        <ele>1593</ele>
        <time>2021-12-29T00:44:01Z</time>
      </trkpt>
      <trkpt lat="44.32316" lon="6.66786">
        <ele>1594</ele>
        <time>2021-12-29T00:44:02Z</time>
      </trkpt>
      <trkpt lat="44.32321" lon="6.66781">
        <ele>1593</ele>
        <time>2021-12-29T00:44:03Z</time>
      </trkpt>
      <trkpt lat="44.32347" lon="6.66738">
        <ele>1590</ele>
        <time>2021-12-29T00:44:10Z</time>
      </trkpt>
      <trkpt lat="44.3235" lon="6.66729">
        <ele>1591</ele>
        <time>2021-12-29T00:44:12Z</time>
      </trkpt>
      <trkpt lat="44.3235" lon="6.66682">
        <ele>1583</ele>
        <time>2021-12-29T00:44:18Z</time>
      </trkpt>
      <trkpt lat="44.32348" lon="6.66655">
        <ele>1580</ele>
        <time>2021-12-29T00:44:21Z</time>
      </trkpt>
      <trkpt lat="44.32344" lon="6.66629">
        <ele>1580</ele>
        <time>2021-12-29T00:44:24Z</time>
      </trkpt>
      <trkpt lat="44.32335" lon="6.66606">
        <ele>1575</ele>
        <time>2021-12-29T00:44:28Z</time>
      </trkpt>
      <trkpt lat="44.32333" lon="6.66594">
        <ele>1575</ele>
        <time>2021-12-29T00:44:29Z</time>
      </trkpt>
      <trkpt lat="44.32333" lon="6.66581">
        <ele>1576</ele>
        <time>2021-12-29T00:44:31Z</time>
      </trkpt>
      <trkpt lat="44.32342" lon="6.66482">
        <ele>1576</ele>
        <time>2021-12-29T00:44:44Z</time>
      </trkpt>
      <trkpt lat="44.32344" lon="6.66467">
        <ele>1574</ele>
        <time>2021-12-29T00:44:46Z</time>
      </trkpt>
      <trkpt lat="44.32358" lon="6.66424">
        <ele>1574</ele>
        <time>2021-12-29T00:44:52Z</time>
      </trkpt>
      <trkpt lat="44.32358" lon="6.66417">
        <ele>1573</ele>
        <time>2021-12-29T00:44:53Z</time>
      </trkpt>
      <trkpt lat="44.32356" lon="6.66412">
        <ele>1572</ele>
        <time>2021-12-29T00:44:53Z</time>
      </trkpt>
      <trkpt lat="44.32353" lon="6.66411">
        <ele>1570</ele>
        <time>2021-12-29T00:44:54Z</time>
      </trkpt>
      <trkpt lat="44.32348" lon="6.66415">
        <ele>1568</ele>
        <time>2021-12-29T00:44:55Z</time>
      </trkpt>
      <trkpt lat="44.32344" lon="6.66423">
        <ele>1567</ele>
        <time>2021-12-29T00:44:56Z</time>
      </trkpt>
      <trkpt lat="44.32328" lon="6.66497">
        <ele>1570</ele>
        <time>2021-12-29T00:45:06Z</time>
      </trkpt>
      <trkpt lat="44.32318" lon="6.66556">
        <ele>1568</ele>
        <time>2021-12-29T00:45:14Z</time>
      </trkpt>
      <trkpt lat="44.32312" lon="6.66596">
        <ele>1565</ele>
        <time>2021-12-29T00:45:19Z</time>
      </trkpt>
      <trkpt lat="44.3231" lon="6.666">
        <ele>1564</ele>
        <time>2021-12-29T00:45:20Z</time>
      </trkpt>
      <trkpt lat="44.32306" lon="6.66601">
        <ele>1562</ele>
        <time>2021-12-29T00:45:20Z</time>
      </trkpt>
      <trkpt lat="44.32303" lon="6.66597">
        <ele>1561</ele>
        <time>2021-12-29T00:45:21Z</time>
      </trkpt>
      <trkpt lat="44.32302" lon="6.66591">
        <ele>1560</ele>
        <time>2021-12-29T00:45:22Z</time>
      </trkpt>
      <trkpt lat="44.32308" lon="6.66557">
        <ele>1563</ele>
        <time>2021-12-29T00:45:26Z</time>
      </trkpt>
      <trkpt lat="44.32311" lon="6.66526">
        <ele>1563</ele>
        <time>2021-12-29T00:45:30Z</time>
      </trkpt>
      <trkpt lat="44.32313" lon="6.66476">
        <ele>1560</ele>
        <time>2021-12-29T00:45:37Z</time>
      </trkpt>
      <trkpt lat="44.32312" lon="6.66422">
        <ele>1553</ele>
        <time>2021-12-29T00:45:43Z</time>
      </trkpt>
      <trkpt lat="44.32308" lon="6.66368">
        <ele>1551</ele>
        <time>2021-12-29T00:45:50Z</time>
      </trkpt>
      <trkpt lat="44.32306" lon="6.66312">
        <ele>1550</ele>
        <time>2021-12-29T00:45:58Z</time>
      </trkpt>
      <trkpt lat="44.32292" lon="6.66261">
        <ele>1546</ele>
        <time>2021-12-29T00:46:04Z</time>
      </trkpt>
      <trkpt lat="44.32289" lon="6.66201">
        <ele>1547</ele>
        <time>2021-12-29T00:46:12Z</time>
      </trkpt>
      <trkpt lat="44.32286" lon="6.66186">
        <ele>1546</ele>
        <time>2021-12-29T00:46:14Z</time>
      </trkpt>
      <trkpt lat="44.32276" lon="6.66163">
        <ele>1542</ele>
        <time>2021-12-29T00:46:18Z</time>
      </trkpt>
      <trkpt lat="44.3227" lon="6.66138">
        <ele>1540</ele>
        <time>2021-12-29T00:46:21Z</time>
      </trkpt>
      <trkpt lat="44.32268" lon="6.66111">
        <ele>1540</ele>
        <time>2021-12-29T00:46:24Z</time>
      </trkpt>
      <trkpt lat="44.32269" lon="6.66098">
        <ele>1541</ele>
        <time>2021-12-29T00:46:26Z</time>
      </trkpt>
      <trkpt lat="44.32279" lon="6.66056">
        <ele>1548</ele>
        <time>2021-12-29T00:46:32Z</time>
      </trkpt>
      <trkpt lat="44.32277" lon="6.66039">
        <ele>1548</ele>
        <time>2021-12-29T00:46:34Z</time>
      </trkpt>
      <trkpt lat="44.32273" lon="6.6603">
        <ele>1547</ele>
        <time>2021-12-29T00:46:35Z</time>
      </trkpt>
      <trkpt lat="44.3227" lon="6.66027">
        <ele>1546</ele>
        <time>2021-12-29T00:46:36Z</time>
      </trkpt>
      <trkpt lat="44.32265" lon="6.66027">
        <ele>1544</ele>
        <time>2021-12-29T00:46:37Z</time>
      </trkpt>
      <trkpt lat="44.32243" lon="6.66038">
        <ele>1535</ele>
        <time>2021-12-29T00:46:41Z</time>
      </trkpt>
      <trkpt lat="44.32237" lon="6.66038">
        <ele>1534</ele>
        <time>2021-12-29T00:46:42Z</time>
      </trkpt>
      <trkpt lat="44.32222" lon="6.66032">
        <ele>1530</ele>
        <time>2021-12-29T00:46:45Z</time>
      </trkpt>
      <trkpt lat="44.3221" lon="6.66019">
        <ele>1528</ele>
        <time>2021-12-29T00:46:47Z</time>
      </trkpt>
      <trkpt lat="44.32144" lon="6.65913">
        <ele>1522</ele>
        <time>2021-12-29T00:47:05Z</time>
      </trkpt>
      <trkpt lat="44.32109" lon="6.65869">
        <ele>1518</ele>
        <time>2021-12-29T00:47:14Z</time>
      </trkpt>
      <trkpt lat="44.32096" lon="6.65848">
        <ele>1516</ele>
        <time>2021-12-29T00:47:17Z</time>
      </trkpt>
      <trkpt lat="44.32073" lon="6.65803">
        <ele>1515</ele>
        <time>2021-12-29T00:47:24Z</time>
      </trkpt>
      <trkpt lat="44.32063" lon="6.65779">
        <ele>1515</ele>
        <time>2021-12-29T00:47:28Z</time>
      </trkpt>
      <trkpt lat="44.32053" lon="6.6574">
        <ele>1516</ele>
        <time>2021-12-29T00:47:33Z</time>
      </trkpt>
      <trkpt lat="44.32046" lon="6.65716">
        <ele>1517</ele>
        <time>2021-12-29T00:47:36Z</time>
      </trkpt>
      <trkpt lat="44.32032" lon="6.65697">
        <ele>1514</ele>
        <time>2021-12-29T00:47:40Z</time>
      </trkpt>
      <trkpt lat="44.32001" lon="6.65665">
        <ele>1505</ele>
        <time>2021-12-29T00:47:47Z</time>
      </trkpt>
      <trkpt lat="44.31978" lon="6.65645">
        <ele>1499</ele>
        <time>2021-12-29T00:47:52Z</time>
      </trkpt>
      <trkpt lat="44.31973" lon="6.65638">
        <ele>1498</ele>
        <time>2021-12-29T00:47:53Z</time>
      </trkpt>
      <trkpt lat="44.31969" lon="6.65628">
        <ele>1497</ele>
        <time>2021-12-29T00:47:54Z</time>
      </trkpt>
      <trkpt lat="44.31964" lon="6.65603">
        <ele>1496</ele>
        <time>2021-12-29T00:47:58Z</time>
      </trkpt>
      <trkpt lat="44.31964" lon="6.6558">
        <ele>1497</ele>
        <time>2021-12-29T00:48:00Z</time>
      </trkpt>
      <trkpt lat="44.31967" lon="6.65568">
        <ele>1497</ele>
        <time>2021-12-29T00:48:02Z</time>
      </trkpt>
      <trkpt lat="44.3196" lon="6.65536">
        <ele>1493</ele>
        <time>2021-12-29T00:48:06Z</time>
      </trkpt>
      <trkpt lat="44.3196" lon="6.65496">
        <ele>1491</ele>
        <time>2021-12-29T00:48:11Z</time>
      </trkpt>
      <trkpt lat="44.31966" lon="6.65332">
        <ele>1488</ele>
        <time>2021-12-29T00:48:32Z</time>
      </trkpt>
      <trkpt lat="44.3197" lon="6.65284">
        <ele>1490</ele>
        <time>2021-12-29T00:48:38Z</time>
      </trkpt>
      <trkpt lat="44.3197" lon="6.65253">
        <ele>1491</ele>
        <time>2021-12-29T00:48:42Z</time>
      </trkpt>
      <trkpt lat="44.31969" lon="6.65237">
        <ele>1491</ele>
        <time>2021-12-29T00:48:44Z</time>
      </trkpt>
      <trkpt lat="44.31967" lon="6.65221">
        <ele>1491</ele>
        <time>2021-12-29T00:48:47Z</time>
      </trkpt>
      <trkpt lat="44.31955" lon="6.65175">
        <ele>1487</ele>
        <time>2021-12-29T00:48:53Z</time>
      </trkpt>
      <trkpt lat="44.31938" lon="6.6508">
        <ele>1489</ele>
        <time>2021-12-29T00:49:05Z</time>
      </trkpt>
      <trkpt lat="44.31933" lon="6.65004">
        <ele>1494</ele>
        <time>2021-12-29T00:49:15Z</time>
      </trkpt>
      <trkpt lat="44.31932" lon="6.64955">
        <ele>1495</ele>
        <time>2021-12-29T00:49:21Z</time>
      </trkpt>
      <trkpt lat="44.31928" lon="6.64909">
        <ele>1492</ele>
        <time>2021-12-29T00:49:27Z</time>
      </trkpt>
      <trkpt lat="44.31924" lon="6.64807">
        <ele>1485</ele>
        <time>2021-12-29T00:49:40Z</time>
      </trkpt>
      <trkpt lat="44.31909" lon="6.64701">
        <ele>1483</ele>
        <time>2021-12-29T00:49:54Z</time>
      </trkpt>
      <trkpt lat="44.31905" lon="6.64666">
        <ele>1483</ele>
        <time>2021-12-29T00:49:58Z</time>
      </trkpt>
      <trkpt lat="44.31903" lon="6.64551">
        <ele>1481</ele>
        <time>2021-12-29T00:50:13Z</time>
      </trkpt>
      <trkpt lat="44.31901" lon="6.64513">
        <ele>1480</ele>
        <time>2021-12-29T00:50:18Z</time>
      </trkpt>
      <trkpt lat="44.31896" lon="6.64476">
        <ele>1479</ele>
        <time>2021-12-29T00:50:23Z</time>
      </trkpt>
      <trkpt lat="44.31891" lon="6.64446">
        <ele>1477</ele>
        <time>2021-12-29T00:50:27Z</time>
      </trkpt>
      <trkpt lat="44.31871" lon="6.64407">
        <ele>1468</ele>
        <time>2021-12-29T00:50:33Z</time>
      </trkpt>
      <trkpt lat="44.31865" lon="6.64392">
        <ele>1467</ele>
        <time>2021-12-29T00:50:35Z</time>
      </trkpt>
      <trkpt lat="44.31863" lon="6.64359">
        <ele>1469</ele>
        <time>2021-12-29T00:50:39Z</time>
      </trkpt>
      <trkpt lat="44.31854" lon="6.64343">
        <ele>1466</ele>
        <time>2021-12-29T00:50:42Z</time>
      </trkpt>
      <trkpt lat="44.31849" lon="6.64328">
        <ele>1464</ele>
        <time>2021-12-29T00:50:44Z</time>
      </trkpt>
      <trkpt lat="44.3184" lon="6.64225">
        <ele>1461</ele>
        <time>2021-12-29T00:50:57Z</time>
      </trkpt>
      <trkpt lat="44.3184" lon="6.64142">
        <ele>1461</ele>
        <time>2021-12-29T00:51:08Z</time>
      </trkpt>
      <trkpt lat="44.31844" lon="6.64091">
        <ele>1463</ele>
        <time>2021-12-29T00:51:14Z</time>
      </trkpt>
      <trkpt lat="44.31844" lon="6.64058">
        <ele>1463</ele>
        <time>2021-12-29T00:51:18Z</time>
      </trkpt>
      <trkpt lat="44.31833" lon="6.6397">
        <ele>1460</ele>
        <time>2021-12-29T00:51:30Z</time>
      </trkpt>
      <trkpt lat="44.31826" lon="6.63898">
        <ele>1470</ele>
        <time>2021-12-29T00:51:39Z</time>
      </trkpt>
      <trkpt lat="44.31821" lon="6.63788">
        <ele>1467</ele>
        <time>2021-12-29T00:51:53Z</time>
      </trkpt>
      <trkpt lat="44.31817" lon="6.63731">
        <ele>1466</ele>
        <time>2021-12-29T00:52:00Z</time>
      </trkpt>
      <trkpt lat="44.31817" lon="6.63697">
        <ele>1463</ele>
        <time>2021-12-29T00:52:05Z</time>
      </trkpt>
      <trkpt lat="44.31826" lon="6.63629">
        <ele>1456</ele>
        <time>2021-12-29T00:52:13Z</time>
      </trkpt>
      <trkpt lat="44.31831" lon="6.63471">
        <ele>1432</ele>
        <time>2021-12-29T00:52:34Z</time>
      </trkpt>
      <trkpt lat="44.31839" lon="6.63445">
        <ele>1433</ele>
        <time>2021-12-29T00:52:37Z</time>
      </trkpt>
      <trkpt lat="44.31856" lon="6.63406">
        <ele>1443</ele>
        <time>2021-12-29T00:52:43Z</time>
      </trkpt>
      <trkpt lat="44.3186" lon="6.63392">
        <ele>1445</ele>
        <time>2021-12-29T00:52:45Z</time>
      </trkpt>
      <trkpt lat="44.31861" lon="6.63377">
        <ele>1444</ele>
        <time>2021-12-29T00:52:47Z</time>
      </trkpt>
      <trkpt lat="44.31856" lon="6.63317">
        <ele>1435</ele>
        <time>2021-12-29T00:52:54Z</time>
      </trkpt>
      <trkpt lat="44.31855" lon="6.63271">
        <ele>1436</ele>
        <time>2021-12-29T00:53:00Z</time>
      </trkpt>
      <trkpt lat="44.31858" lon="6.6324">
        <ele>1438</ele>
        <time>2021-12-29T00:53:04Z</time>
      </trkpt>
      <trkpt lat="44.31863" lon="6.63207">
        <ele>1438</ele>
        <time>2021-12-29T00:53:09Z</time>
      </trkpt>
      <trkpt lat="44.31867" lon="6.63159">
        <ele>1437</ele>
        <time>2021-12-29T00:53:15Z</time>
      </trkpt>
      <trkpt lat="44.31874" lon="6.63114">
        <ele>1439</ele>
        <time>2021-12-29T00:53:21Z</time>
      </trkpt>
      <trkpt lat="44.31872" lon="6.63102">
        <ele>1437</ele>
        <time>2021-12-29T00:53:22Z</time>
      </trkpt>
      <trkpt lat="44.31863" lon="6.63061">
        <ele>1430</ele>
        <time>2021-12-29T00:53:28Z</time>
      </trkpt>
      <trkpt lat="44.31854" lon="6.63003">
        <ele>1420</ele>
        <time>2021-12-29T00:53:35Z</time>
      </trkpt>
      <trkpt lat="44.31855" lon="6.62992">
        <ele>1419</ele>
        <time>2021-12-29T00:53:37Z</time>
      </trkpt>
      <trkpt lat="44.31878" lon="6.62929">
        <ele>1421</ele>
        <time>2021-12-29T00:53:46Z</time>
      </trkpt>
      <trkpt lat="44.31891" lon="6.62881">
        <ele>1418</ele>
        <time>2021-12-29T00:53:52Z</time>
      </trkpt>
      <trkpt lat="44.31905" lon="6.62815">
        <ele>1407</ele>
        <time>2021-12-29T00:54:01Z</time>
      </trkpt>
      <trkpt lat="44.31916" lon="6.62783">
        <ele>1399</ele>
        <time>2021-12-29T00:54:05Z</time>
      </trkpt>
      <trkpt lat="44.31931" lon="6.62754">
        <ele>1399</ele>
        <time>2021-12-29T00:54:10Z</time>
      </trkpt>
      <trkpt lat="44.31977" lon="6.62688">
        <ele>1407</ele>
        <time>2021-12-29T00:54:22Z</time>
      </trkpt>
      <trkpt lat="44.31981" lon="6.62679">
        <ele>1406</ele>
        <time>2021-12-29T00:54:23Z</time>
      </trkpt>
      <trkpt lat="44.31987" lon="6.62646">
        <ele>1401</ele>
        <time>2021-12-29T00:54:27Z</time>
      </trkpt>
      <trkpt lat="44.32008" lon="6.62609">
        <ele>1404</ele>
        <time>2021-12-29T00:54:33Z</time>
      </trkpt>
      <trkpt lat="44.3201" lon="6.62597">
        <ele>1403</ele>
        <time>2021-12-29T00:54:35Z</time>
      </trkpt>
      <trkpt lat="44.32013" lon="6.62559">
        <ele>1397</ele>
        <time>2021-12-29T00:54:40Z</time>
      </trkpt>
      <trkpt lat="44.32018" lon="6.62516">
        <ele>1391</ele>
        <time>2021-12-29T00:54:45Z</time>
      </trkpt>
      <trkpt lat="44.32021" lon="6.62502">
        <ele>1390</ele>
        <time>2021-12-29T00:54:47Z</time>
      </trkpt>
      <trkpt lat="44.32029" lon="6.62478">
        <ele>1398</ele>
        <time>2021-12-29T00:54:51Z</time>
      </trkpt>
      <trkpt lat="44.3203" lon="6.62467">
        <ele>1399</ele>
        <time>2021-12-29T00:54:52Z</time>
      </trkpt>
      <trkpt lat="44.32029" lon="6.62454">
        <ele>1398</ele>
        <time>2021-12-29T00:54:54Z</time>
      </trkpt>
      <trkpt lat="44.32023" lon="6.62425">
        <ele>1395</ele>
        <time>2021-12-29T00:54:58Z</time>
      </trkpt>
      <trkpt lat="44.3201" lon="6.62381">
        <ele>1385</ele>
        <time>2021-12-29T00:55:04Z</time>
      </trkpt>
      <trkpt lat="44.32" lon="6.62357">
        <ele>1376</ele>
        <time>2021-12-29T00:55:07Z</time>
      </trkpt>
      <trkpt lat="44.31996" lon="6.62338">
        <ele>1376</ele>
        <time>2021-12-29T00:55:10Z</time>
      </trkpt>
      <trkpt lat="44.31995" lon="6.6233">
        <ele>1375</ele>
        <time>2021-12-29T00:55:11Z</time>
      </trkpt>
      <trkpt lat="44.3201" lon="6.62294">
        <ele>1376</ele>
        <time>2021-12-29T00:55:16Z</time>
      </trkpt>
      <trkpt lat="44.32014" lon="6.62279">
        <ele>1376</ele>
        <time>2021-12-29T00:55:18Z</time>
      </trkpt>
      <trkpt lat="44.32021" lon="6.62206">
        <ele>1372</ele>
        <time>2021-12-29T00:55:27Z</time>
      </trkpt>
      <trkpt lat="44.32033" lon="6.62133">
        <ele>1377</ele>
        <time>2021-12-29T00:55:37Z</time>
      </trkpt>
      <trkpt lat="44.32036" lon="6.62094">
        <ele>1380</ele>
        <time>2021-12-29T00:55:42Z</time>
      </trkpt>
      <trkpt lat="44.32037" lon="6.62011">
        <ele>1387</ele>
        <time>2021-12-29T00:55:52Z</time>
      </trkpt>
      <trkpt lat="44.32041" lon="6.61965">
        <ele>1386</ele>
        <time>2021-12-29T00:55:58Z</time>
      </trkpt>
      <trkpt lat="44.3206" lon="6.61876">
        <ele>1373</ele>
        <time>2021-12-29T00:56:10Z</time>
      </trkpt>
      <trkpt lat="44.32066" lon="6.61861">
        <ele>1367</ele>
        <time>2021-12-29T00:56:12Z</time>
      </trkpt>
      <trkpt lat="44.32076" lon="6.61841">
        <ele>1357</ele>
        <time>2021-12-29T00:56:16Z</time>
      </trkpt>
      <trkpt lat="44.32091" lon="6.61823">
        <ele>1354</ele>
        <time>2021-12-29T00:56:19Z</time>
      </trkpt>
      <trkpt lat="44.32108" lon="6.61795">
        <ele>1355</ele>
        <time>2021-12-29T00:56:24Z</time>
      </trkpt>
      <trkpt lat="44.32126" lon="6.61763">
        <ele>1349</ele>
        <time>2021-12-29T00:56:29Z</time>
      </trkpt>
      <trkpt lat="44.32141" lon="6.61751">
        <ele>1346</ele>
        <time>2021-12-29T00:56:32Z</time>
      </trkpt>
      <trkpt lat="44.32161" lon="6.61737">
        <ele>1345</ele>
        <time>2021-12-29T00:56:36Z</time>
      </trkpt>
      <trkpt lat="44.32226" lon="6.61672">
        <ele>1347</ele>
        <time>2021-12-29T00:56:50Z</time>
      </trkpt>
      <trkpt lat="44.32239" lon="6.61651">
        <ele>1346</ele>
        <time>2021-12-29T00:56:54Z</time>
      </trkpt>
      <trkpt lat="44.3224" lon="6.61642">
        <ele>1345</ele>
        <time>2021-12-29T00:56:55Z</time>
      </trkpt>
      <trkpt lat="44.3224" lon="6.61633">
        <ele>1344</ele>
        <time>2021-12-29T00:56:56Z</time>
      </trkpt>
      <trkpt lat="44.32228" lon="6.61574">
        <ele>1347</ele>
        <time>2021-12-29T00:57:04Z</time>
      </trkpt>
      <trkpt lat="44.32232" lon="6.61558">
        <ele>1350</ele>
        <time>2021-12-29T00:57:06Z</time>
      </trkpt>
      <trkpt lat="44.32244" lon="6.61535">
        <ele>1349</ele>
        <time>2021-12-29T00:57:10Z</time>
      </trkpt>
      <trkpt lat="44.32257" lon="6.61518">
        <ele>1347</ele>
        <time>2021-12-29T00:57:13Z</time>
      </trkpt>
      <trkpt lat="44.32271" lon="6.61509">
        <ele>1346</ele>
        <time>2021-12-29T00:57:15Z</time>
      </trkpt>
      <trkpt lat="44.32313" lon="6.61494">
        <ele>1339</ele>
        <time>2021-12-29T00:57:23Z</time>
      </trkpt>
      <trkpt lat="44.32355" lon="6.61474">
        <ele>1342</ele>
        <time>2021-12-29T00:57:31Z</time>
      </trkpt>
      <trkpt lat="44.32385" lon="6.61451">
        <ele>1346</ele>
        <time>2021-12-29T00:57:37Z</time>
      </trkpt>
      <trkpt lat="44.32432" lon="6.61403">
        <ele>1354</ele>
        <time>2021-12-29T00:57:48Z</time>
      </trkpt>
      <trkpt lat="44.3245" lon="6.61393">
        <ele>1355</ele>
        <time>2021-12-29T00:57:51Z</time>
      </trkpt>
      <trkpt lat="44.32458" lon="6.61392">
        <ele>1353</ele>
        <time>2021-12-29T00:57:52Z</time>
      </trkpt>
      <trkpt lat="44.32466" lon="6.61392">
        <ele>1350</ele>
        <time>2021-12-29T00:57:54Z</time>
      </trkpt>
      <trkpt lat="44.32564" lon="6.61385">
        <ele>1339</ele>
        <time>2021-12-29T00:58:11Z</time>
      </trkpt>
      <trkpt lat="44.32599" lon="6.61368">
        <ele>1343</ele>
        <time>2021-12-29T00:58:18Z</time>
      </trkpt>
      <trkpt lat="44.32606" lon="6.61363">
        <ele>1343</ele>
        <time>2021-12-29T00:58:19Z</time>
      </trkpt>
      <trkpt lat="44.32616" lon="6.6135">
        <ele>1344</ele>
        <time>2021-12-29T00:58:22Z</time>
      </trkpt>
      <trkpt lat="44.32622" lon="6.61348">
        <ele>1343</ele>
        <time>2021-12-29T00:58:23Z</time>
      </trkpt>
      <trkpt lat="44.32628" lon="6.6135">
        <ele>1341</ele>
        <time>2021-12-29T00:58:24Z</time>
      </trkpt>
      <trkpt lat="44.32644" lon="6.61361">
        <ele>1337</ele>
        <time>2021-12-29T00:58:27Z</time>
      </trkpt>
      <trkpt lat="44.32672" lon="6.61375">
        <ele>1333</ele>
        <time>2021-12-29T00:58:32Z</time>
      </trkpt>
      <trkpt lat="44.32694" lon="6.61379">
        <ele>1334</ele>
        <time>2021-12-29T00:58:36Z</time>
      </trkpt>
      <trkpt lat="44.32706" lon="6.61379">
        <ele>1334</ele>
        <time>2021-12-29T00:58:38Z</time>
      </trkpt>
      <trkpt lat="44.32727" lon="6.61374">
        <ele>1332</ele>
        <time>2021-12-29T00:58:42Z</time>
      </trkpt>
      <trkpt lat="44.32748" lon="6.61361">
        <ele>1327</ele>
        <time>2021-12-29T00:58:46Z</time>
      </trkpt>
      <trkpt lat="44.32775" lon="6.61338">
        <ele>1319</ele>
        <time>2021-12-29T00:58:52Z</time>
      </trkpt>
      <trkpt lat="44.32792" lon="6.61332">
        <ele>1318</ele>
        <time>2021-12-29T00:58:55Z</time>
      </trkpt>
      <trkpt lat="44.32801" lon="6.61333">
        <ele>1318</ele>
        <time>2021-12-29T00:58:57Z</time>
      </trkpt>
      <trkpt lat="44.32817" lon="6.61341">
        <ele>1323</ele>
        <time>2021-12-29T00:59:00Z</time>
      </trkpt>
      <trkpt lat="44.32835" lon="6.61348">
        <ele>1329</ele>
        <time>2021-12-29T00:59:03Z</time>
      </trkpt>
      <trkpt lat="44.32862" lon="6.61351">
        <ele>1333</ele>
        <time>2021-12-29T00:59:08Z</time>
      </trkpt>
      <trkpt lat="44.32882" lon="6.61347">
        <ele>1331</ele>
        <time>2021-12-29T00:59:11Z</time>
      </trkpt>
      <trkpt lat="44.32905" lon="6.61348">
        <ele>1333</ele>
        <time>2021-12-29T00:59:16Z</time>
      </trkpt>
      <trkpt lat="44.32938" lon="6.61357">
        <ele>1337</ele>
        <time>2021-12-29T00:59:22Z</time>
      </trkpt>
      <trkpt lat="44.32949" lon="6.61363">
        <ele>1339</ele>
        <time>2021-12-29T00:59:24Z</time>
      </trkpt>
      <trkpt lat="44.32979" lon="6.61386">
        <ele>1348</ele>
        <time>2021-12-29T00:59:30Z</time>
      </trkpt>
      <trkpt lat="44.3299" lon="6.61391">
        <ele>1349</ele>
        <time>2021-12-29T00:59:32Z</time>
      </trkpt>
      <trkpt lat="44.33023" lon="6.61399">
        <ele>1350</ele>
        <time>2021-12-29T00:59:38Z</time>
      </trkpt>
      <trkpt lat="44.33031" lon="6.61406">
        <ele>1353</ele>
        <time>2021-12-29T00:59:39Z</time>
      </trkpt>
      <trkpt lat="44.33046" lon="6.61425">
        <ele>1366</ele>
        <time>2021-12-29T00:59:43Z</time>
      </trkpt>
      <trkpt lat="44.33054" lon="6.61429">
        <ele>1370</ele>
        <time>2021-12-29T00:59:45Z</time>
      </trkpt>
      <trkpt lat="44.33074" lon="6.61432">
        <ele>1371</ele>
        <time>2021-12-29T00:59:48Z</time>
      </trkpt>
      <trkpt lat="44.33122" lon="6.6143">
        <ele>1358</ele>
        <time>2021-12-29T00:59:57Z</time>
      </trkpt>
      <trkpt lat="44.33131" lon="6.61428">
        <ele>1354</ele>
        <time>2021-12-29T00:59:58Z</time>
      </trkpt>
      <trkpt lat="44.33144" lon="6.61418">
        <ele>1341</ele>
        <time>2021-12-29T01:00:01Z</time>
      </trkpt>
      <trkpt lat="44.3318" lon="6.6138">
        <ele>1343</ele>
        <time>2021-12-29T01:00:09Z</time>
      </trkpt>
      <trkpt lat="44.33193" lon="6.61375">
        <ele>1346</ele>
        <time>2021-12-29T01:00:11Z</time>
      </trkpt>
      <trkpt lat="44.33203" lon="6.61376">
        <ele>1347</ele>
        <time>2021-12-29T01:00:13Z</time>
      </trkpt>
      <trkpt lat="44.33217" lon="6.6138">
        <ele>1350</ele>
        <time>2021-12-29T01:00:16Z</time>
      </trkpt>
      <trkpt lat="44.33266" lon="6.61398">
        <ele>1349</ele>
        <time>2021-12-29T01:00:25Z</time>
      </trkpt>
      <trkpt lat="44.33288" lon="6.61402">
        <ele>1336</ele>
        <time>2021-12-29T01:00:29Z</time>
      </trkpt>
      <trkpt lat="44.33318" lon="6.61412">
        <ele>1313</ele>
        <time>2021-12-29T01:00:34Z</time>
      </trkpt>
      <trkpt lat="44.33328" lon="6.61419">
        <ele>1304</ele>
        <time>2021-12-29T01:00:36Z</time>
      </trkpt>
      <trkpt lat="44.33333" lon="6.61429">
        <ele>1306</ele>
        <time>2021-12-29T01:00:38Z</time>
      </trkpt>
      <trkpt lat="44.33334" lon="6.61439">
        <ele>1311</ele>
        <time>2021-12-29T01:00:39Z</time>
      </trkpt>
      <trkpt lat="44.33338" lon="6.61441">
        <ele>1312</ele>
        <time>2021-12-29T01:00:40Z</time>
      </trkpt>
      <trkpt lat="44.33361" lon="6.61443">
        <ele>1310</ele>
        <time>2021-12-29T01:00:44Z</time>
      </trkpt>
      <trkpt lat="44.33367" lon="6.61445">
        <ele>1309</ele>
        <time>2021-12-29T01:00:45Z</time>
      </trkpt>
      <trkpt lat="44.3337" lon="6.61449">
        <ele>1310</ele>
        <time>2021-12-29T01:00:46Z</time>
      </trkpt>
      <trkpt lat="44.33372" lon="6.61458">
        <ele>1310</ele>
        <time>2021-12-29T01:00:47Z</time>
      </trkpt>
      <trkpt lat="44.33375" lon="6.61463">
        <ele>1310</ele>
        <time>2021-12-29T01:00:48Z</time>
      </trkpt>
      <trkpt lat="44.33381" lon="6.61467">
        <ele>1308</ele>
        <time>2021-12-29T01:00:49Z</time>
      </trkpt>
      <trkpt lat="44.33417" lon="6.61469">
        <ele>1294</ele>
        <time>2021-12-29T01:00:55Z</time>
      </trkpt>
      <trkpt lat="44.33434" lon="6.61473">
        <ele>1296</ele>
        <time>2021-12-29T01:00:58Z</time>
      </trkpt>
      <trkpt lat="44.33449" lon="6.61482">
        <ele>1295</ele>
        <time>2021-12-29T01:01:01Z</time>
      </trkpt>
      <trkpt lat="44.33459" lon="6.61493">
        <ele>1291</ele>
        <time>2021-12-29T01:01:04Z</time>
      </trkpt>
      <trkpt lat="44.33519" lon="6.61539">
        <ele>1291</ele>
        <time>2021-12-29T01:01:16Z</time>
      </trkpt>
      <trkpt lat="44.33555" lon="6.61562">
        <ele>1286</ele>
        <time>2021-12-29T01:01:23Z</time>
      </trkpt>
      <trkpt lat="44.33569" lon="6.61576">
        <ele>1279</ele>
        <time>2021-12-29T01:01:26Z</time>
      </trkpt>
      <trkpt lat="44.33595" lon="6.61614">
        <ele>1281</ele>
        <time>2021-12-29T01:01:32Z</time>
      </trkpt>
      <trkpt lat="44.33605" lon="6.61622">
        <ele>1285</ele>
        <time>2021-12-29T01:01:35Z</time>
      </trkpt>
      <trkpt lat="44.33616" lon="6.61624">
        <ele>1288</ele>
        <time>2021-12-29T01:01:36Z</time>
      </trkpt>
      <trkpt lat="44.33651" lon="6.61621">
        <ele>1297</ele>
        <time>2021-12-29T01:01:43Z</time>
      </trkpt>
      <trkpt lat="44.33675" lon="6.61622">
        <ele>1300</ele>
        <time>2021-12-29T01:01:47Z</time>
      </trkpt>
      <trkpt lat="44.33689" lon="6.61626">
        <ele>1297</ele>
        <time>2021-12-29T01:01:50Z</time>
      </trkpt>
      <trkpt lat="44.33722" lon="6.61643">
        <ele>1287</ele>
        <time>2021-12-29T01:01:56Z</time>
      </trkpt>
      <trkpt lat="44.33735" lon="6.61646">
        <ele>1284</ele>
        <time>2021-12-29T01:01:58Z</time>
      </trkpt>
      <trkpt lat="44.33777" lon="6.61642">
        <ele>1281</ele>
        <time>2021-12-29T01:02:06Z</time>
      </trkpt>
      <trkpt lat="44.3383" lon="6.61641">
        <ele>1276</ele>
        <time>2021-12-29T01:02:15Z</time>
      </trkpt>
      <trkpt lat="44.33853" lon="6.61643">
        <ele>1280</ele>
        <time>2021-12-29T01:02:19Z</time>
      </trkpt>
      <trkpt lat="44.33866" lon="6.61648">
        <ele>1281</ele>
        <time>2021-12-29T01:02:22Z</time>
      </trkpt>
      <trkpt lat="44.33875" lon="6.61657">
        <ele>1278</ele>
        <time>2021-12-29T01:02:24Z</time>
      </trkpt>
      <trkpt lat="44.33878" lon="6.61666">
        <ele>1274</ele>
        <time>2021-12-29T01:02:25Z</time>
      </trkpt>
      <trkpt lat="44.33879" lon="6.61692">
        <ele>1268</ele>
        <time>2021-12-29T01:02:28Z</time>
      </trkpt>
      <trkpt lat="44.33881" lon="6.61707">
        <ele>1264</ele>
        <time>2021-12-29T01:02:30Z</time>
      </trkpt>
      <trkpt lat="44.33886" lon="6.61719">
        <ele>1262</ele>
        <time>2021-12-29T01:02:32Z</time>
      </trkpt>
      <trkpt lat="44.339" lon="6.61739">
        <ele>1257</ele>
        <time>2021-12-29T01:02:35Z</time>
      </trkpt>
      <trkpt lat="44.33913" lon="6.61753">
        <ele>1253</ele>
        <time>2021-12-29T01:02:38Z</time>
      </trkpt>
      <trkpt lat="44.33977" lon="6.61772">
        <ele>1266</ele>
        <time>2021-12-29T01:02:50Z</time>
      </trkpt>
      <trkpt lat="44.34012" lon="6.61792">
        <ele>1269</ele>
        <time>2021-12-29T01:02:57Z</time>
      </trkpt>
      <trkpt lat="44.34039" lon="6.61817">
        <ele>1269</ele>
        <time>2021-12-29T01:03:02Z</time>
      </trkpt>
      <trkpt lat="44.34054" lon="6.61838">
        <ele>1266</ele>
        <time>2021-12-29T01:03:06Z</time>
      </trkpt>
      <trkpt lat="44.34064" lon="6.61862">
        <ele>1262</ele>
        <time>2021-12-29T01:03:10Z</time>
      </trkpt>
      <trkpt lat="44.34068" lon="6.61885">
        <ele>1256</ele>
        <time>2021-12-29T01:03:13Z</time>
      </trkpt>
      <trkpt lat="44.34075" lon="6.61905">
        <ele>1250</ele>
        <time>2021-12-29T01:03:16Z</time>
      </trkpt>
      <trkpt lat="44.34086" lon="6.6192">
        <ele>1247</ele>
        <time>2021-12-29T01:03:18Z</time>
      </trkpt>
      <trkpt lat="44.3412" lon="6.61933">
        <ele>1249</ele>
        <time>2021-12-29T01:03:25Z</time>
      </trkpt>
      <trkpt lat="44.34191" lon="6.61926">
        <ele>1248</ele>
        <time>2021-12-29T01:03:37Z</time>
      </trkpt>
      <trkpt lat="44.34242" lon="6.6191">
        <ele>1252</ele>
        <time>2021-12-29T01:03:47Z</time>
      </trkpt>
      <trkpt lat="44.34254" lon="6.61908">
        <ele>1253</ele>
        <time>2021-12-29T01:03:49Z</time>
      </trkpt>
      <trkpt lat="44.34311" lon="6.61926">
        <ele>1253</ele>
        <time>2021-12-29T01:03:59Z</time>
      </trkpt>
      <trkpt lat="44.3432" lon="6.61934">
        <ele>1251</ele>
        <time>2021-12-29T01:04:01Z</time>
      </trkpt>
      <trkpt lat="44.34336" lon="6.61957">
        <ele>1245</ele>
        <time>2021-12-29T01:04:05Z</time>
      </trkpt>
      <trkpt lat="44.34355" lon="6.61962">
        <ele>1246</ele>
        <time>2021-12-29T01:04:09Z</time>
      </trkpt>
      <trkpt lat="44.34435" lon="6.61974">
        <ele>1249</ele>
        <time>2021-12-29T01:04:23Z</time>
      </trkpt>
      <trkpt lat="44.34454" lon="6.61972">
        <ele>1250</ele>
        <time>2021-12-29T01:04:26Z</time>
      </trkpt>
      <trkpt lat="44.34489" lon="6.61973">
        <ele>1250</ele>
        <time>2021-12-29T01:04:32Z</time>
      </trkpt>
      <trkpt lat="44.34505" lon="6.61982">
        <ele>1246</ele>
        <time>2021-12-29T01:04:36Z</time>
      </trkpt>
      <trkpt lat="44.34514" lon="6.61992">
        <ele>1241</ele>
        <time>2021-12-29T01:04:38Z</time>
      </trkpt>
      <trkpt lat="44.34521" lon="6.61995">
        <ele>1239</ele>
        <time>2021-12-29T01:04:39Z</time>
      </trkpt>
      <trkpt lat="44.34533" lon="6.61988">
        <ele>1243</ele>
        <time>2021-12-29T01:04:41Z</time>
      </trkpt>
      <trkpt lat="44.34551" lon="6.61989">
        <ele>1243</ele>
        <time>2021-12-29T01:04:44Z</time>
      </trkpt>
      <trkpt lat="44.34559" lon="6.61995">
        <ele>1240</ele>
        <time>2021-12-29T01:04:46Z</time>
      </trkpt>
      <trkpt lat="44.34567" lon="6.61999">
        <ele>1237</ele>
        <time>2021-12-29T01:04:48Z</time>
      </trkpt>
      <trkpt lat="44.34588" lon="6.61997">
        <ele>1239</ele>
        <time>2021-12-29T01:04:51Z</time>
      </trkpt>
      <trkpt lat="44.346" lon="6.62001">
        <ele>1239</ele>
        <time>2021-12-29T01:04:53Z</time>
      </trkpt>
      <trkpt lat="44.3461" lon="6.62014">
        <ele>1238</ele>
        <time>2021-12-29T01:04:56Z</time>
      </trkpt>
      <trkpt lat="44.34625" lon="6.62014">
        <ele>1239</ele>
        <time>2021-12-29T01:04:59Z</time>
      </trkpt>
      <trkpt lat="44.34642" lon="6.62016">
        <ele>1240</ele>
        <time>2021-12-29T01:05:02Z</time>
      </trkpt>
      <trkpt lat="44.34664" lon="6.62017">
        <ele>1242</ele>
        <time>2021-12-29T01:05:06Z</time>
      </trkpt>
      <trkpt lat="44.34692" lon="6.62009">
        <ele>1241</ele>
        <time>2021-12-29T01:05:11Z</time>
      </trkpt>
      <trkpt lat="44.34742" lon="6.61988">
        <ele>1243</ele>
        <time>2021-12-29T01:05:20Z</time>
      </trkpt>
      <trkpt lat="44.34767" lon="6.61981">
        <ele>1243</ele>
        <time>2021-12-29T01:05:24Z</time>
      </trkpt>
      <trkpt lat="44.34821" lon="6.6197">
        <ele>1241</ele>
        <time>2021-12-29T01:05:34Z</time>
      </trkpt>
      <trkpt lat="44.34864" lon="6.61957">
        <ele>1239</ele>
        <time>2021-12-29T01:05:42Z</time>
      </trkpt>
      <trkpt lat="44.3489" lon="6.61944">
        <ele>1239</ele>
        <time>2021-12-29T01:05:47Z</time>
      </trkpt>
      <trkpt lat="44.34918" lon="6.61934">
        <ele>1237</ele>
        <time>2021-12-29T01:05:52Z</time>
      </trkpt>
      <trkpt lat="44.34961" lon="6.61923">
        <ele>1239</ele>
        <time>2021-12-29T01:06:00Z</time>
      </trkpt>
      <trkpt lat="44.34977" lon="6.61923">
        <ele>1238</ele>
        <time>2021-12-29T01:06:03Z</time>
      </trkpt>
      <trkpt lat="44.35006" lon="6.61925">
        <ele>1236</ele>
        <time>2021-12-29T01:06:08Z</time>
      </trkpt>
      <trkpt lat="44.3502" lon="6.61928">
        <ele>1235</ele>
        <time>2021-12-29T01:06:10Z</time>
      </trkpt>
      <trkpt lat="44.35034" lon="6.61934">
        <ele>1233</ele>
        <time>2021-12-29T01:06:13Z</time>
      </trkpt>
      <trkpt lat="44.3506" lon="6.61953">
        <ele>1229</ele>
        <time>2021-12-29T01:06:18Z</time>
      </trkpt>
      <trkpt lat="44.3509" lon="6.61982">
        <ele>1226</ele>
        <time>2021-12-29T01:06:25Z</time>
      </trkpt>
      <trkpt lat="44.35103" lon="6.61996">
        <ele>1225</ele>
        <time>2021-12-29T01:06:28Z</time>
      </trkpt>
      <trkpt lat="44.35119" lon="6.62007">
        <ele>1225</ele>
        <time>2021-12-29T01:06:31Z</time>
      </trkpt>
      <trkpt lat="44.35132" lon="6.62012">
        <ele>1226</ele>
        <time>2021-12-29T01:06:33Z</time>
      </trkpt>
      <trkpt lat="44.35182" lon="6.62019">
        <ele>1231</ele>
        <time>2021-12-29T01:06:42Z</time>
      </trkpt>
      <trkpt lat="44.35219" lon="6.6203">
        <ele>1234</ele>
        <time>2021-12-29T01:06:49Z</time>
      </trkpt>
      <trkpt lat="44.35232" lon="6.62038">
        <ele>1234</ele>
        <time>2021-12-29T01:06:51Z</time>
      </trkpt>
      <trkpt lat="44.35244" lon="6.62047">
        <ele>1232</ele>
        <time>2021-12-29T01:06:54Z</time>
      </trkpt>
      <trkpt lat="44.35255" lon="6.62061">
        <ele>1229</ele>
        <time>2021-12-29T01:06:56Z</time>
      </trkpt>
      <trkpt lat="44.35282" lon="6.62101">
        <ele>1224</ele>
        <time>2021-12-29T01:07:03Z</time>
      </trkpt>
      <trkpt lat="44.35292" lon="6.62111">
        <ele>1223</ele>
        <time>2021-12-29T01:07:06Z</time>
      </trkpt>
      <trkpt lat="44.35304" lon="6.6212">
        <ele>1223</ele>
        <time>2021-12-29T01:07:08Z</time>
      </trkpt>
      <trkpt lat="44.35316" lon="6.62127">
        <ele>1223</ele>
        <time>2021-12-29T01:07:10Z</time>
      </trkpt>
      <trkpt lat="44.35329" lon="6.62132">
        <ele>1223</ele>
        <time>2021-12-29T01:07:13Z</time>
      </trkpt>
      <trkpt lat="44.35422" lon="6.62157">
        <ele>1228</ele>
        <time>2021-12-29T01:07:30Z</time>
      </trkpt>
      <trkpt lat="44.35435" lon="6.62162">
        <ele>1228</ele>
        <time>2021-12-29T01:07:32Z</time>
      </trkpt>
      <trkpt lat="44.35456" lon="6.62181">
        <ele>1225</ele>
        <time>2021-12-29T01:07:36Z</time>
      </trkpt>
      <trkpt lat="44.35482" lon="6.62217">
        <ele>1217</ele>
        <time>2021-12-29T01:07:43Z</time>
      </trkpt>
      <trkpt lat="44.35491" lon="6.62227">
        <ele>1215</ele>
        <time>2021-12-29T01:07:45Z</time>
      </trkpt>
      <trkpt lat="44.35501" lon="6.62234">
        <ele>1214</ele>
        <time>2021-12-29T01:07:47Z</time>
      </trkpt>
      <trkpt lat="44.35512" lon="6.62238">
        <ele>1214</ele>
        <time>2021-12-29T01:07:49Z</time>
      </trkpt>
      <trkpt lat="44.35567" lon="6.62242">
        <ele>1218</ele>
        <time>2021-12-29T01:07:59Z</time>
      </trkpt>
      <trkpt lat="44.35592" lon="6.62249">
        <ele>1218</ele>
        <time>2021-12-29T01:08:03Z</time>
      </trkpt>
      <trkpt lat="44.35603" lon="6.62255">
        <ele>1217</ele>
        <time>2021-12-29T01:08:05Z</time>
      </trkpt>
      <trkpt lat="44.35638" lon="6.62282">
        <ele>1212</ele>
        <time>2021-12-29T01:08:13Z</time>
      </trkpt>
      <trkpt lat="44.35663" lon="6.62295">
        <ele>1210</ele>
        <time>2021-12-29T01:08:17Z</time>
      </trkpt>
      <trkpt lat="44.35719" lon="6.62319">
        <ele>1208</ele>
        <time>2021-12-29T01:08:28Z</time>
      </trkpt>
      <trkpt lat="44.35761" lon="6.62342">
        <ele>1207</ele>
        <time>2021-12-29T01:08:36Z</time>
      </trkpt>
      <trkpt lat="44.35815" lon="6.62381">
        <ele>1203</ele>
        <time>2021-12-29T01:08:47Z</time>
      </trkpt>
      <trkpt lat="44.35855" lon="6.62407">
        <ele>1200</ele>
        <time>2021-12-29T01:08:54Z</time>
      </trkpt>
      <trkpt lat="44.35868" lon="6.62413">
        <ele>1199</ele>
        <time>2021-12-29T01:08:57Z</time>
      </trkpt>
      <trkpt lat="44.35924" lon="6.62433">
        <ele>1200</ele>
        <time>2021-12-29T01:09:07Z</time>
      </trkpt>
      <trkpt lat="44.35937" lon="6.62441">
        <ele>1200</ele>
        <time>2021-12-29T01:09:10Z</time>
      </trkpt>
      <trkpt lat="44.35959" lon="6.62459">
        <ele>1198</ele>
        <time>2021-12-29T01:09:14Z</time>
      </trkpt>
      <trkpt lat="44.35979" lon="6.62472">
        <ele>1197</ele>
        <time>2021-12-29T01:09:18Z</time>
      </trkpt>
      <trkpt lat="44.36013" lon="6.62482">
        <ele>1196</ele>
        <time>2021-12-29T01:09:24Z</time>
      </trkpt>
      <trkpt lat="44.36035" lon="6.62492">
        <ele>1193</ele>
        <time>2021-12-29T01:09:28Z</time>
      </trkpt>
      <trkpt lat="44.36047" lon="6.62504">
        <ele>1190</ele>
        <time>2021-12-29T01:09:31Z</time>
      </trkpt>
      <trkpt lat="44.3607" lon="6.62535">
        <ele>1189</ele>
        <time>2021-12-29T01:09:37Z</time>
      </trkpt>
      <trkpt lat="44.3613" lon="6.62644">
        <ele>1184</ele>
        <time>2021-12-29T01:09:54Z</time>
      </trkpt>
      <trkpt lat="44.36138" lon="6.62655">
        <ele>1183</ele>
        <time>2021-12-29T01:09:56Z</time>
      </trkpt>
      <trkpt lat="44.36156" lon="6.62676">
        <ele>1181</ele>
        <time>2021-12-29T01:10:00Z</time>
      </trkpt>
      <trkpt lat="44.36166" lon="6.62685">
        <ele>1181</ele>
        <time>2021-12-29T01:10:02Z</time>
      </trkpt>
      <trkpt lat="44.36189" lon="6.62699">
        <ele>1179</ele>
        <time>2021-12-29T01:10:07Z</time>
      </trkpt>
      <trkpt lat="44.36231" lon="6.62717">
        <ele>1176</ele>
        <time>2021-12-29T01:10:15Z</time>
      </trkpt>
      <trkpt lat="44.3629" lon="6.62747">
        <ele>1176</ele>
        <time>2021-12-29T01:10:26Z</time>
      </trkpt>
      <trkpt lat="44.3635" lon="6.62765">
        <ele>1177</ele>
        <time>2021-12-29T01:10:37Z</time>
      </trkpt>
      <trkpt lat="44.36403" lon="6.62776">
        <ele>1174</ele>
        <time>2021-12-29T01:10:46Z</time>
      </trkpt>
      <trkpt lat="44.3659" lon="6.62785">
        <ele>1165</ele>
        <time>2021-12-29T01:11:20Z</time>
      </trkpt>
      <trkpt lat="44.36802" lon="6.62791">
        <ele>1159</ele>
        <time>2021-12-29T01:11:57Z</time>
      </trkpt>
      <trkpt lat="44.36935" lon="6.62791">
        <ele>1156</ele>
        <time>2021-12-29T01:12:21Z</time>
      </trkpt>
      <trkpt lat="44.37119" lon="6.62783">
        <ele>1151</ele>
        <time>2021-12-29T01:12:54Z</time>
      </trkpt>
      <trkpt lat="44.37481" lon="6.62774">
        <ele>1145</ele>
        <time>2021-12-29T01:13:58Z</time>
      </trkpt>
      <trkpt lat="44.37547" lon="6.62769">
        <ele>1144</ele>
        <time>2021-12-29T01:14:10Z</time>
      </trkpt>
      <trkpt lat="44.37566" lon="6.62759">
        <ele>1144</ele>
        <time>2021-12-29T01:14:14Z</time>
      </trkpt>
      <trkpt lat="44.37587" lon="6.62769">
        <ele>1144</ele>
        <time>2021-12-29T01:14:18Z</time>
      </trkpt>
      <trkpt lat="44.37666" lon="6.62794">
        <ele>1141</ele>
        <time>2021-12-29T01:14:32Z</time>
      </trkpt>
      <trkpt lat="44.37781" lon="6.62824">
        <ele>1136</ele>
        <time>2021-12-29T01:14:53Z</time>
      </trkpt>
      <trkpt lat="44.37847" lon="6.62839">
        <ele>1135</ele>
        <time>2021-12-29T01:15:05Z</time>
      </trkpt>
      <trkpt lat="44.3788" lon="6.6285">
        <ele>1135</ele>
        <time>2021-12-29T01:15:11Z</time>
      </trkpt>
      <trkpt lat="44.3793" lon="6.62874">
        <ele>1135</ele>
        <time>2021-12-29T01:15:20Z</time>
      </trkpt>
      <trkpt lat="44.3805" lon="6.62942">
        <ele>1130</ele>
        <time>2021-12-29T01:15:43Z</time>
      </trkpt>
      <trkpt lat="44.38078" lon="6.62962">
        <ele>1128</ele>
        <time>2021-12-29T01:15:49Z</time>
      </trkpt>
      <trkpt lat="44.38093" lon="6.62977">
        <ele>1128</ele>
        <time>2021-12-29T01:15:52Z</time>
      </trkpt>
      <trkpt lat="44.38162" lon="6.63059">
        <ele>1128</ele>
        <time>2021-12-29T01:16:08Z</time>
      </trkpt>
      <trkpt lat="44.38202" lon="6.63111">
        <ele>1128</ele>
        <time>2021-12-29T01:16:18Z</time>
      </trkpt>
      <trkpt lat="44.38209" lon="6.63124">
        <ele>1128</ele>
        <time>2021-12-29T01:16:20Z</time>
      </trkpt>
      <trkpt lat="44.38215" lon="6.63137">
        <ele>1129</ele>
        <time>2021-12-29T01:16:22Z</time>
      </trkpt>
      <trkpt lat="44.3825" lon="6.63253">
        <ele>1128</ele>
        <time>2021-12-29T01:16:38Z</time>
      </trkpt>
      <trkpt lat="44.38275" lon="6.63343">
        <ele>1124</ele>
        <time>2021-12-29T01:16:50Z</time>
      </trkpt>
      <trkpt lat="44.38286" lon="6.63394">
        <ele>1125</ele>
        <time>2021-12-29T01:16:57Z</time>
      </trkpt>
      <trkpt lat="44.38289" lon="6.63421">
        <ele>1125</ele>
        <time>2021-12-29T01:17:00Z</time>
      </trkpt>
      <trkpt lat="44.38293" lon="6.63468">
        <ele>1127</ele>
        <time>2021-12-29T01:17:06Z</time>
      </trkpt>
      <trkpt lat="44.383" lon="6.63642">
        <ele>1128</ele>
        <time>2021-12-29T01:17:29Z</time>
      </trkpt>
      <trkpt lat="44.38304" lon="6.63674">
        <ele>1128</ele>
        <time>2021-12-29T01:17:33Z</time>
      </trkpt>
      <trkpt lat="44.38342" lon="6.63951">
        <ele>1125</ele>
        <time>2021-12-29T01:18:09Z</time>
      </trkpt>
      <trkpt lat="44.38368" lon="6.64117">
        <ele>1128</ele>
        <time>2021-12-29T01:18:30Z</time>
      </trkpt>
      <trkpt lat="44.38401" lon="6.64358">
        <ele>1131</ele>
        <time>2021-12-29T01:19:01Z</time>
      </trkpt>
      <trkpt lat="44.38418" lon="6.64458">
        <ele>1131</ele>
        <time>2021-12-29T01:19:15Z</time>
      </trkpt>
      <trkpt lat="44.38441" lon="6.64616">
        <ele>1132</ele>
        <time>2021-12-29T01:19:35Z</time>
      </trkpt>
      <trkpt lat="44.38452" lon="6.64715">
        <ele>1133</ele>
        <time>2021-12-29T01:19:48Z</time>
      </trkpt>
      <trkpt lat="44.38452" lon="6.64762">
        <ele>1134</ele>
        <time>2021-12-29T01:19:54Z</time>
      </trkpt>
      <trkpt lat="44.38444" lon="6.64817">
        <ele>1135</ele>
        <time>2021-12-29T01:20:01Z</time>
      </trkpt>
      <trkpt lat="44.38445" lon="6.64827">
        <ele>1136</ele>
        <time>2021-12-29T01:20:02Z</time>
      </trkpt>
      <trkpt lat="44.38448" lon="6.64837">
        <ele>1136</ele>
        <time>2021-12-29T01:20:04Z</time>
      </trkpt>
      <trkpt lat="44.38452" lon="6.64844">
        <ele>1136</ele>
        <time>2021-12-29T01:20:05Z</time>
      </trkpt>
      <trkpt lat="44.38458" lon="6.6485">
        <ele>1136</ele>
        <time>2021-12-29T01:20:06Z</time>
      </trkpt>
      <trkpt lat="44.38487" lon="6.64866">
        <ele>1135</ele>
        <time>2021-12-29T01:20:12Z</time>
      </trkpt>
      <trkpt lat="44.38501" lon="6.64879">
        <ele>1136</ele>
        <time>2021-12-29T01:20:15Z</time>
      </trkpt>
      <trkpt lat="44.38511" lon="6.64895">
        <ele>1136</ele>
        <time>2021-12-29T01:20:17Z</time>
      </trkpt>
      <trkpt lat="44.38564" lon="6.65006">
        <ele>1137</ele>
        <time>2021-12-29T01:20:34Z</time>
      </trkpt>
      <trkpt lat="44.38575" lon="6.65038">
        <ele>1138</ele>
        <time>2021-12-29T01:20:39Z</time>
      </trkpt>
      <trkpt lat="44.38585" lon="6.65075">
        <ele>1139</ele>
        <time>2021-12-29T01:20:44Z</time>
      </trkpt>
      <trkpt lat="44.38614" lon="6.6523">
        <ele>1140</ele>
        <time>2021-12-29T01:21:04Z</time>
      </trkpt>
      <trkpt lat="44.38617" lon="6.65238">
        <ele>1140</ele>
        <time>2021-12-29T01:21:05Z</time>
      </trkpt>
      <trkpt lat="44.38606" lon="6.65249">
        <ele>1140</ele>
        <time>2021-12-29T01:21:08Z</time>
      </trkpt>
      <trkpt lat="44.3858" lon="6.65258">
        <ele>1139</ele>
        <time>2021-12-29T01:21:12Z</time>
      </trkpt>
      <trkpt lat="44.38533" lon="6.65261">
        <ele>1139</ele>
        <time>2021-12-29T01:21:21Z</time>
      </trkpt>
      <trkpt lat="44.38519" lon="6.65265">
        <ele>1139</ele>
        <time>2021-12-29T01:21:23Z</time>
      </trkpt>
      <trkpt lat="44.3851" lon="6.65273">
        <ele>1140</ele>
        <time>2021-12-29T01:21:25Z</time>
      </trkpt>
      <trkpt lat="44.38506" lon="6.6528">
        <ele>1140</ele>
        <time>2021-12-29T01:21:26Z</time>
      </trkpt>
      <trkpt lat="44.38505" lon="6.65307">
        <ele>1140</ele>
        <time>2021-12-29T01:21:30Z</time>
      </trkpt>
      <trkpt lat="44.38515" lon="6.65374">
        <ele>1140</ele>
        <time>2021-12-29T01:21:39Z</time>
      </trkpt>
      <trkpt lat="44.38521" lon="6.65431">
        <ele>1140</ele>
        <time>2021-12-29T01:21:46Z</time>
      </trkpt>
      <trkpt lat="44.3852" lon="6.65544">
        <ele>1139</ele>
        <time>2021-12-29T01:22:00Z</time>
      </trkpt>
      <trkpt lat="44.38516" lon="6.65753">
        <ele>1142</ele>
        <time>2021-12-29T01:22:27Z</time>
      </trkpt>
      <trkpt lat="44.38516" lon="6.65761">
        <ele>1142</ele>
        <time>2021-12-29T01:22:28Z</time>
      </trkpt>
      <trkpt lat="44.38518" lon="6.65766">
        <ele>1142</ele>
        <time>2021-12-29T01:22:29Z</time>
      </trkpt>
      <trkpt lat="44.38524" lon="6.6577">
        <ele>1142</ele>
        <time>2021-12-29T01:22:30Z</time>
      </trkpt>
      <trkpt lat="44.38765" lon="6.65719">
        <ele>1142</ele>
        <time>2021-12-29T01:23:13Z</time>
      </trkpt>
      <trkpt lat="44.38778" lon="6.65722">
        <ele>1142</ele>
        <time>2021-12-29T01:23:15Z</time>
      </trkpt>
      <trkpt lat="44.38784" lon="6.65729">
        <ele>1143</ele>
        <time>2021-12-29T01:23:17Z</time>
      </trkpt>
      <trkpt lat="44.38791" lon="6.65743">
        <ele>1143</ele>
        <time>2021-12-29T01:23:19Z</time>
      </trkpt>
      <trkpt lat="44.38805" lon="6.65856">
        <ele>1142</ele>
        <time>2021-12-29T01:23:34Z</time>
      </trkpt>
      <trkpt lat="44.38823" lon="6.66034">
        <ele>1147</ele>
        <time>2021-12-29T01:23:56Z</time>
      </trkpt>
      <trkpt lat="44.38852" lon="6.66246">
        <ele>1146</ele>
        <time>2021-12-29T01:24:24Z</time>
      </trkpt>
      <trkpt lat="44.38905" lon="6.66407">
        <ele>1146</ele>
        <time>2021-12-29T01:24:46Z</time>
      </trkpt>
      <trkpt lat="44.38926" lon="6.66447">
        <ele>1147</ele>
        <time>2021-12-29T01:24:53Z</time>
      </trkpt>
      <trkpt lat="44.38961" lon="6.665">
        <ele>1150</ele>
        <time>2021-12-29T01:25:02Z</time>
      </trkpt>
      <trkpt lat="44.38969" lon="6.66527">
        <ele>1150</ele>
        <time>2021-12-29T01:25:06Z</time>
      </trkpt>
      <trkpt lat="44.38974" lon="6.66552">
        <ele>1150</ele>
        <time>2021-12-29T01:25:09Z</time>
      </trkpt>
      <trkpt lat="44.39001" lon="6.66611">
        <ele>1151</ele>
        <time>2021-12-29T01:25:18Z</time>
      </trkpt>
      <trkpt lat="44.39011" lon="6.66644">
        <ele>1152</ele>
        <time>2021-12-29T01:25:22Z</time>
      </trkpt>
      <trkpt lat="44.39013" lon="6.66663">
        <ele>1152</ele>
        <time>2021-12-29T01:25:25Z</time>
      </trkpt>
      <trkpt lat="44.38998" lon="6.66763">
        <ele>1150</ele>
        <time>2021-12-29T01:25:38Z</time>
      </trkpt>
      <trkpt lat="44.38997" lon="6.66778">
        <ele>1149</ele>
        <time>2021-12-29T01:25:40Z</time>
      </trkpt>
      <trkpt lat="44.38998" lon="6.66796">
        <ele>1149</ele>
        <time>2021-12-29T01:25:42Z</time>
      </trkpt>
      <trkpt lat="44.3903" lon="6.66937">
        <ele>1151</ele>
        <time>2021-12-29T01:26:01Z</time>
      </trkpt>
      <trkpt lat="44.39039" lon="6.66962">
        <ele>1151</ele>
        <time>2021-12-29T01:26:04Z</time>
      </trkpt>
      <trkpt lat="44.39046" lon="6.66976">
        <ele>1151</ele>
        <time>2021-12-29T01:26:07Z</time>
      </trkpt>
      <trkpt lat="44.391" lon="6.67025">
        <ele>1152</ele>
        <time>2021-12-29T01:26:18Z</time>
      </trkpt>
      <trkpt lat="44.39115" lon="6.67049">
        <ele>1154</ele>
        <time>2021-12-29T01:26:22Z</time>
      </trkpt>
      <trkpt lat="44.39128" lon="6.67078">
        <ele>1155</ele>
        <time>2021-12-29T01:26:26Z</time>
      </trkpt>
      <trkpt lat="44.39135" lon="6.67112">
        <ele>1156</ele>
        <time>2021-12-29T01:26:31Z</time>
      </trkpt>
      <trkpt lat="44.39136" lon="6.67128">
        <ele>1156</ele>
        <time>2021-12-29T01:26:33Z</time>
      </trkpt>
      <trkpt lat="44.3914" lon="6.67228">
        <ele>1156</ele>
        <time>2021-12-29T01:26:46Z</time>
      </trkpt>
      <trkpt lat="44.3914" lon="6.67242">
        <ele>1156</ele>
        <time>2021-12-29T01:26:48Z</time>
      </trkpt>
      <trkpt lat="44.39141" lon="6.67376">
        <ele>1161</ele>
        <time>2021-12-29T01:27:05Z</time>
      </trkpt>
      <trkpt lat="44.3916" lon="6.68243">
        <ele>1166</ele>
        <time>2021-12-29T01:28:55Z</time>
      </trkpt>
      <trkpt lat="44.39162" lon="6.68288">
        <ele>1166</ele>
        <time>2021-12-29T01:29:01Z</time>
      </trkpt>
      <trkpt lat="44.39169" lon="6.68326">
        <ele>1166</ele>
        <time>2021-12-29T01:29:06Z</time>
      </trkpt>
      <trkpt lat="44.39245" lon="6.68612">
        <ele>1168</ele>
        <time>2021-12-29T01:29:44Z</time>
      </trkpt>
      <trkpt lat="44.39286" lon="6.68694">
        <ele>1168</ele>
        <time>2021-12-29T01:29:57Z</time>
      </trkpt>
      <trkpt lat="44.39427" lon="6.68924">
        <ele>1169</ele>
        <time>2021-12-29T01:30:36Z</time>
      </trkpt>
      <trkpt lat="44.39452" lon="6.68961">
        <ele>1171</ele>
        <time>2021-12-29T01:30:42Z</time>
      </trkpt>
      <trkpt lat="44.39526" lon="6.69049">
        <ele>1176</ele>
        <time>2021-12-29T01:30:59Z</time>
      </trkpt>
      <trkpt lat="44.3956" lon="6.69086">
        <ele>1179</ele>
        <time>2021-12-29T01:31:07Z</time>
      </trkpt>
      <trkpt lat="44.39632" lon="6.69154">
        <ele>1178</ele>
        <time>2021-12-29T01:31:22Z</time>
      </trkpt>
      <trkpt lat="44.39699" lon="6.69211">
        <ele>1178</ele>
        <time>2021-12-29T01:31:36Z</time>
      </trkpt>
      <trkpt lat="44.39709" lon="6.69219">
        <ele>1178</ele>
        <time>2021-12-29T01:31:38Z</time>
      </trkpt>
      <trkpt lat="44.39893" lon="6.69371">
        <ele>1179</ele>
        <time>2021-12-29T01:32:16Z</time>
      </trkpt>
      <trkpt lat="44.39931" lon="6.69405">
        <ele>1178</ele>
        <time>2021-12-29T01:32:25Z</time>
      </trkpt>
      <trkpt lat="44.39946" lon="6.69424">
        <ele>1177</ele>
        <time>2021-12-29T01:32:28Z</time>
      </trkpt>
      <trkpt lat="44.39964" lon="6.69465">
        <ele>1177</ele>
        <time>2021-12-29T01:32:34Z</time>
      </trkpt>
      <trkpt lat="44.3998" lon="6.6951">
        <ele>1176</ele>
        <time>2021-12-29T01:32:41Z</time>
      </trkpt>
      <trkpt lat="44.40173" lon="6.70064">
        <ele>1188</ele>
        <time>2021-12-29T01:33:59Z</time>
      </trkpt>
      <trkpt lat="44.40181" lon="6.70086">
        <ele>1188</ele>
        <time>2021-12-29T01:34:02Z</time>
      </trkpt>
      <trkpt lat="44.40192" lon="6.70105">
        <ele>1187</ele>
        <time>2021-12-29T01:34:05Z</time>
      </trkpt>
      <trkpt lat="44.402" lon="6.70115">
        <ele>1187</ele>
        <time>2021-12-29T01:34:07Z</time>
      </trkpt>
      <trkpt lat="44.40212" lon="6.7013">
        <ele>1188</ele>
        <time>2021-12-29T01:34:10Z</time>
      </trkpt>
      <trkpt lat="44.40227" lon="6.70142">
        <ele>1188</ele>
        <time>2021-12-29T01:34:13Z</time>
      </trkpt>
      <trkpt lat="44.4033" lon="6.70182">
        <ele>1186</ele>
        <time>2021-12-29T01:34:32Z</time>
      </trkpt>
      <trkpt lat="44.40357" lon="6.70195">
        <ele>1186</ele>
        <time>2021-12-29T01:34:37Z</time>
      </trkpt>
      <trkpt lat="44.40384" lon="6.70222">
        <ele>1184</ele>
        <time>2021-12-29T01:34:43Z</time>
      </trkpt>
      <trkpt lat="44.40402" lon="6.70263">
        <ele>1182</ele>
        <time>2021-12-29T01:34:49Z</time>
      </trkpt>
      <trkpt lat="44.40455" lon="6.70464">
        <ele>1181</ele>
        <time>2021-12-29T01:35:16Z</time>
      </trkpt>
      <trkpt lat="44.40479" lon="6.70563">
        <ele>1178</ele>
        <time>2021-12-29T01:35:30Z</time>
      </trkpt>
      <trkpt lat="44.40482" lon="6.70595">
        <ele>1178</ele>
        <time>2021-12-29T01:35:34Z</time>
      </trkpt>
      <trkpt lat="44.40486" lon="6.71138">
        <ele>1191</ele>
        <time>2021-12-29T01:36:43Z</time>
      </trkpt>
      <trkpt lat="44.4049" lon="6.71176">
        <ele>1192</ele>
        <time>2021-12-29T01:36:48Z</time>
      </trkpt>
      <trkpt lat="44.40587" lon="6.71797">
        <ele>1204</ele>
        <time>2021-12-29T01:38:09Z</time>
      </trkpt>
      <trkpt lat="44.40692" lon="6.72148">
        <ele>1212</ele>
        <time>2021-12-29T01:38:57Z</time>
      </trkpt>
      <trkpt lat="44.40719" lon="6.7223">
        <ele>1210</ele>
        <time>2021-12-29T01:39:08Z</time>
      </trkpt>
      <trkpt lat="44.40902" lon="6.72618">
        <ele>1212</ele>
        <time>2021-12-29T01:40:07Z</time>
      </trkpt>
      <trkpt lat="44.40912" lon="6.72634">
        <ele>1212</ele>
        <time>2021-12-29T01:40:10Z</time>
      </trkpt>
      <trkpt lat="44.4093" lon="6.72665">
        <ele>1213</ele>
        <time>2021-12-29T01:40:15Z</time>
      </trkpt>
      <trkpt lat="44.40942" lon="6.72686">
        <ele>1214</ele>
        <time>2021-12-29T01:40:19Z</time>
      </trkpt>
      <trkpt lat="44.40986" lon="6.72747">
        <ele>1215</ele>
        <time>2021-12-29T01:40:30Z</time>
      </trkpt>
      <trkpt lat="44.41009" lon="6.72776">
        <ele>1215</ele>
        <time>2021-12-29T01:40:35Z</time>
      </trkpt>
      <trkpt lat="44.4102" lon="6.72789">
        <ele>1216</ele>
        <time>2021-12-29T01:40:38Z</time>
      </trkpt>
      <trkpt lat="44.41061" lon="6.72824">
        <ele>1216</ele>
        <time>2021-12-29T01:40:46Z</time>
      </trkpt>
      <trkpt lat="44.41085" lon="6.72841">
        <ele>1216</ele>
        <time>2021-12-29T01:40:51Z</time>
      </trkpt>
      <trkpt lat="44.41106" lon="6.72853">
        <ele>1216</ele>
        <time>2021-12-29T01:40:55Z</time>
      </trkpt>
      <trkpt lat="44.41215" lon="6.7289">
        <ele>1215</ele>
        <time>2021-12-29T01:41:15Z</time>
      </trkpt>
      <trkpt lat="44.41265" lon="6.72901">
        <ele>1215</ele>
        <time>2021-12-29T01:41:24Z</time>
      </trkpt>
      <trkpt lat="44.41304" lon="6.72902">
        <ele>1215</ele>
        <time>2021-12-29T01:41:31Z</time>
      </trkpt>
      <trkpt lat="44.41346" lon="6.7289">
        <ele>1216</ele>
        <time>2021-12-29T01:41:39Z</time>
      </trkpt>
      <trkpt lat="44.41504" lon="6.72823">
        <ele>1217</ele>
        <time>2021-12-29T01:42:08Z</time>
      </trkpt>
      <trkpt lat="44.41523" lon="6.7282">
        <ele>1217</ele>
        <time>2021-12-29T01:42:11Z</time>
      </trkpt>
      <trkpt lat="44.41558" lon="6.72826">
        <ele>1216</ele>
        <time>2021-12-29T01:42:18Z</time>
      </trkpt>
      <trkpt lat="44.41603" lon="6.72836">
        <ele>1216</ele>
        <time>2021-12-29T01:42:26Z</time>
      </trkpt>
      <trkpt lat="44.41632" lon="6.72848">
        <ele>1216</ele>
        <time>2021-12-29T01:42:31Z</time>
      </trkpt>
      <trkpt lat="44.41656" lon="6.72865">
        <ele>1216</ele>
        <time>2021-12-29T01:42:36Z</time>
      </trkpt>
      <trkpt lat="44.41693" lon="6.72906">
        <ele>1215</ele>
        <time>2021-12-29T01:42:44Z</time>
      </trkpt>
      <trkpt lat="44.41814" lon="6.73085">
        <ele>1215</ele>
        <time>2021-12-29T01:43:16Z</time>
      </trkpt>
      <trkpt lat="44.41828" lon="6.73114">
        <ele>1214</ele>
        <time>2021-12-29T01:43:20Z</time>
      </trkpt>
      <trkpt lat="44.41844" lon="6.73168">
        <ele>1213</ele>
        <time>2021-12-29T01:43:28Z</time>
      </trkpt>
      <trkpt lat="44.41873" lon="6.73302">
        <ele>1218</ele>
        <time>2021-12-29T01:43:45Z</time>
      </trkpt>
      <trkpt lat="44.41878" lon="6.73311">
        <ele>1218</ele>
        <time>2021-12-29T01:43:47Z</time>
      </trkpt>
      <trkpt lat="44.41889" lon="6.73325">
        <ele>1219</ele>
        <time>2021-12-29T01:43:49Z</time>
      </trkpt>
      <trkpt lat="44.41929" lon="6.73357">
        <ele>1222</ele>
        <time>2021-12-29T01:43:58Z</time>
      </trkpt>
      <trkpt lat="44.41935" lon="6.73364">
        <ele>1223</ele>
        <time>2021-12-29T01:43:59Z</time>
      </trkpt>
      <trkpt lat="44.4195" lon="6.73394">
        <ele>1225</ele>
        <time>2021-12-29T01:44:04Z</time>
      </trkpt>
      <trkpt lat="44.41987" lon="6.73476">
        <ele>1222</ele>
        <time>2021-12-29T01:44:16Z</time>
      </trkpt>
      <trkpt lat="44.4201" lon="6.73554">
        <ele>1220</ele>
        <time>2021-12-29T01:44:27Z</time>
      </trkpt>
      <trkpt lat="44.42011" lon="6.73567">
        <ele>1220</ele>
        <time>2021-12-29T01:44:28Z</time>
      </trkpt>
      <trkpt lat="44.42011" lon="6.73603">
        <ele>1220</ele>
        <time>2021-12-29T01:44:33Z</time>
      </trkpt>
      <trkpt lat="44.42019" lon="6.73625">
        <ele>1220</ele>
        <time>2021-12-29T01:44:36Z</time>
      </trkpt>
      <trkpt lat="44.42026" lon="6.73635">
        <ele>1220</ele>
        <time>2021-12-29T01:44:38Z</time>
      </trkpt>
      <trkpt lat="44.42057" lon="6.73662">
        <ele>1219</ele>
        <time>2021-12-29T01:44:44Z</time>
      </trkpt>
      <trkpt lat="44.4209" lon="6.7368">
        <ele>1219</ele>
        <time>2021-12-29T01:44:51Z</time>
      </trkpt>
      <trkpt lat="44.42182" lon="6.73712">
        <ele>1222</ele>
        <time>2021-12-29T01:45:08Z</time>
      </trkpt>
      <trkpt lat="44.42219" lon="6.73719">
        <ele>1224</ele>
        <time>2021-12-29T01:45:14Z</time>
      </trkpt>
      <trkpt lat="44.42274" lon="6.73719">
        <ele>1226</ele>
        <time>2021-12-29T01:45:24Z</time>
      </trkpt>
      <trkpt lat="44.42521" lon="6.73701">
        <ele>1232</ele>
        <time>2021-12-29T01:46:08Z</time>
      </trkpt>
      <trkpt lat="44.42708" lon="6.73694">
        <ele>1233</ele>
        <time>2021-12-29T01:46:41Z</time>
      </trkpt>
      <trkpt lat="44.4275" lon="6.73686">
        <ele>1233</ele>
        <time>2021-12-29T01:46:49Z</time>
      </trkpt>
      <trkpt lat="44.42875" lon="6.73628">
        <ele>1238</ele>
        <time>2021-12-29T01:47:12Z</time>
      </trkpt>
      <trkpt lat="44.42901" lon="6.73625">
        <ele>1237</ele>
        <time>2021-12-29T01:47:17Z</time>
      </trkpt>
      <trkpt lat="44.42924" lon="6.73627">
        <ele>1239</ele>
        <time>2021-12-29T01:47:21Z</time>
      </trkpt>
      <trkpt lat="44.42948" lon="6.73637">
        <ele>1243</ele>
        <time>2021-12-29T01:47:25Z</time>
      </trkpt>
      <trkpt lat="44.42983" lon="6.73659">
        <ele>1248</ele>
        <time>2021-12-29T01:47:32Z</time>
      </trkpt>
      <trkpt lat="44.43034" lon="6.73731">
        <ele>1249</ele>
        <time>2021-12-29T01:47:45Z</time>
      </trkpt>
      <trkpt lat="44.4305" lon="6.73767">
        <ele>1248</ele>
        <time>2021-12-29T01:47:51Z</time>
      </trkpt>
      <trkpt lat="44.43073" lon="6.73813">
        <ele>1246</ele>
        <time>2021-12-29T01:47:58Z</time>
      </trkpt>
      <trkpt lat="44.43099" lon="6.73842">
        <ele>1246</ele>
        <time>2021-12-29T01:48:04Z</time>
      </trkpt>
      <trkpt lat="44.43159" lon="6.73867">
        <ele>1254</ele>
        <time>2021-12-29T01:48:15Z</time>
      </trkpt>
      <trkpt lat="44.43182" lon="6.73884">
        <ele>1258</ele>
        <time>2021-12-29T01:48:19Z</time>
      </trkpt>
      <trkpt lat="44.43199" lon="6.73913">
        <ele>1258</ele>
        <time>2021-12-29T01:48:24Z</time>
      </trkpt>
      <trkpt lat="44.43227" lon="6.73965">
        <ele>1256</ele>
        <time>2021-12-29T01:48:32Z</time>
      </trkpt>
      <trkpt lat="44.43268" lon="6.74036">
        <ele>1250</ele>
        <time>2021-12-29T01:48:44Z</time>
      </trkpt>
      <trkpt lat="44.43291" lon="6.7406">
        <ele>1248</ele>
        <time>2021-12-29T01:48:49Z</time>
      </trkpt>
      <trkpt lat="44.43323" lon="6.74086">
        <ele>1243</ele>
        <time>2021-12-29T01:48:56Z</time>
      </trkpt>
      <trkpt lat="44.43353" lon="6.74117">
        <ele>1243</ele>
        <time>2021-12-29T01:49:02Z</time>
      </trkpt>
      <trkpt lat="44.43361" lon="6.74131">
        <ele>1242</ele>
        <time>2021-12-29T01:49:05Z</time>
      </trkpt>
      <trkpt lat="44.43368" lon="6.74148">
        <ele>1241</ele>
        <time>2021-12-29T01:49:07Z</time>
      </trkpt>
      <trkpt lat="44.43388" lon="6.7422">
        <ele>1245</ele>
        <time>2021-12-29T01:49:17Z</time>
      </trkpt>
      <trkpt lat="44.43435" lon="6.74375">
        <ele>1252</ele>
        <time>2021-12-29T01:49:38Z</time>
      </trkpt>
      <trkpt lat="44.43447" lon="6.74394">
        <ele>1252</ele>
        <time>2021-12-29T01:49:42Z</time>
      </trkpt>
      <trkpt lat="44.43476" lon="6.74401">
        <ele>1255</ele>
        <time>2021-12-29T01:49:47Z</time>
      </trkpt>
      <trkpt lat="44.43519" lon="6.74406">
        <ele>1256</ele>
        <time>2021-12-29T01:49:54Z</time>
      </trkpt>
      <trkpt lat="44.43554" lon="6.74406">
        <ele>1254</ele>
        <time>2021-12-29T01:50:01Z</time>
      </trkpt>
      <trkpt lat="44.43574" lon="6.74396">
        <ele>1255</ele>
        <time>2021-12-29T01:50:04Z</time>
      </trkpt>
      <trkpt lat="44.43593" lon="6.74377">
        <ele>1258</ele>
        <time>2021-12-29T01:50:09Z</time>
      </trkpt>
      <trkpt lat="44.43615" lon="6.74368">
        <ele>1262</ele>
        <time>2021-12-29T01:50:13Z</time>
      </trkpt>
      <trkpt lat="44.43627" lon="6.74367">
        <ele>1263</ele>
        <time>2021-12-29T01:50:15Z</time>
      </trkpt>
      <trkpt lat="44.43659" lon="6.74382">
        <ele>1262</ele>
        <time>2021-12-29T01:50:21Z</time>
      </trkpt>
      <trkpt lat="44.43741" lon="6.7441">
        <ele>1256</ele>
        <time>2021-12-29T01:50:36Z</time>
      </trkpt>
      <trkpt lat="44.43754" lon="6.7441">
        <ele>1256</ele>
        <time>2021-12-29T01:50:38Z</time>
      </trkpt>
      <trkpt lat="44.4377" lon="6.74405">
        <ele>1257</ele>
        <time>2021-12-29T01:50:41Z</time>
      </trkpt>
      <trkpt lat="44.4381" lon="6.74384">
        <ele>1263</ele>
        <time>2021-12-29T01:50:49Z</time>
      </trkpt>
      <trkpt lat="44.43833" lon="6.74387">
        <ele>1262</ele>
        <time>2021-12-29T01:50:53Z</time>
      </trkpt>
      <trkpt lat="44.43857" lon="6.74393">
        <ele>1260</ele>
        <time>2021-12-29T01:50:57Z</time>
      </trkpt>
      <trkpt lat="44.43872" lon="6.74394">
        <ele>1260</ele>
        <time>2021-12-29T01:51:00Z</time>
      </trkpt>
      <trkpt lat="44.43909" lon="6.74376">
        <ele>1264</ele>
        <time>2021-12-29T01:51:07Z</time>
      </trkpt>
      <trkpt lat="44.43928" lon="6.74354">
        <ele>1267</ele>
        <time>2021-12-29T01:51:11Z</time>
      </trkpt>
      <trkpt lat="44.43949" lon="6.74315">
        <ele>1271</ele>
        <time>2021-12-29T01:51:17Z</time>
      </trkpt>
      <trkpt lat="44.43981" lon="6.7428">
        <ele>1271</ele>
        <time>2021-12-29T01:51:25Z</time>
      </trkpt>
      <trkpt lat="44.44004" lon="6.74275">
        <ele>1268</ele>
        <time>2021-12-29T01:51:29Z</time>
      </trkpt>
      <trkpt lat="44.44052" lon="6.74277">
        <ele>1266</ele>
        <time>2021-12-29T01:51:37Z</time>
      </trkpt>
      <trkpt lat="44.44075" lon="6.74266">
        <ele>1266</ele>
        <time>2021-12-29T01:51:42Z</time>
      </trkpt>
      <trkpt lat="44.44139" lon="6.74202">
        <ele>1271</ele>
        <time>2021-12-29T01:51:56Z</time>
      </trkpt>
      <trkpt lat="44.44157" lon="6.74196">
        <ele>1269</ele>
        <time>2021-12-29T01:51:59Z</time>
      </trkpt>
      <trkpt lat="44.44194" lon="6.74199">
        <ele>1270</ele>
        <time>2021-12-29T01:52:05Z</time>
      </trkpt>
      <trkpt lat="44.44308" lon="6.74216">
        <ele>1274</ele>
        <time>2021-12-29T01:52:26Z</time>
      </trkpt>
      <trkpt lat="44.44356" lon="6.7423">
        <ele>1274</ele>
        <time>2021-12-29T01:52:35Z</time>
      </trkpt>
      <trkpt lat="44.44397" lon="6.74247">
        <ele>1274</ele>
        <time>2021-12-29T01:52:42Z</time>
      </trkpt>
      <trkpt lat="44.44432" lon="6.74256">
        <ele>1273</ele>
        <time>2021-12-29T01:52:49Z</time>
      </trkpt>
      <trkpt lat="44.44461" lon="6.74252">
        <ele>1270</ele>
        <time>2021-12-29T01:52:54Z</time>
      </trkpt>
      <trkpt lat="44.4449" lon="6.74239">
        <ele>1270</ele>
        <time>2021-12-29T01:52:59Z</time>
      </trkpt>
      <trkpt lat="44.44581" lon="6.7417">
        <ele>1268</ele>
        <time>2021-12-29T01:53:18Z</time>
      </trkpt>
      <trkpt lat="44.44721" lon="6.7404">
        <ele>1272</ele>
        <time>2021-12-29T01:53:47Z</time>
      </trkpt>
      <trkpt lat="44.44742" lon="6.74026">
        <ele>1272</ele>
        <time>2021-12-29T01:53:52Z</time>
      </trkpt>
      <trkpt lat="44.44759" lon="6.7402">
        <ele>1272</ele>
        <time>2021-12-29T01:53:55Z</time>
      </trkpt>
      <trkpt lat="44.44804" lon="6.74022">
        <ele>1271</ele>
        <time>2021-12-29T01:54:03Z</time>
      </trkpt>
      <trkpt lat="44.44867" lon="6.7404">
        <ele>1269</ele>
        <time>2021-12-29T01:54:14Z</time>
      </trkpt>
      <trkpt lat="44.44919" lon="6.74048">
        <ele>1269</ele>
        <time>2021-12-29T01:54:23Z</time>
      </trkpt>
      <trkpt lat="44.44988" lon="6.74074">
        <ele>1272</ele>
        <time>2021-12-29T01:54:36Z</time>
      </trkpt>
      <trkpt lat="44.45002" lon="6.74082">
        <ele>1272</ele>
        <time>2021-12-29T01:54:39Z</time>
      </trkpt>
      <trkpt lat="44.45045" lon="6.74132">
        <ele>1273</ele>
        <time>2021-12-29T01:54:49Z</time>
      </trkpt>
      <trkpt lat="44.45133" lon="6.74225">
        <ele>1278</ele>
        <time>2021-12-29T01:55:08Z</time>
      </trkpt>
      <trkpt lat="44.45169" lon="6.74252">
        <ele>1281</ele>
        <time>2021-12-29T01:55:16Z</time>
      </trkpt>
      <trkpt lat="44.45255" lon="6.74309">
        <ele>1280</ele>
        <time>2021-12-29T01:55:33Z</time>
      </trkpt>
      <trkpt lat="44.45269" lon="6.74324">
        <ele>1278</ele>
        <time>2021-12-29T01:55:36Z</time>
      </trkpt>
      <trkpt lat="44.45289" lon="6.74357">
        <ele>1280</ele>
        <time>2021-12-29T01:55:41Z</time>
      </trkpt>
      <trkpt lat="44.45301" lon="6.74372">
        <ele>1281</ele>
        <time>2021-12-29T01:55:44Z</time>
      </trkpt>
      <trkpt lat="44.45315" lon="6.74381">
        <ele>1280</ele>
        <time>2021-12-29T01:55:47Z</time>
      </trkpt>
      <trkpt lat="44.4533" lon="6.74385">
        <ele>1279</ele>
        <time>2021-12-29T01:55:50Z</time>
      </trkpt>
      <trkpt lat="44.45345" lon="6.74384">
        <ele>1279</ele>
        <time>2021-12-29T01:55:52Z</time>
      </trkpt>
      <trkpt lat="44.45366" lon="6.74377">
        <ele>1280</ele>
        <time>2021-12-29T01:55:56Z</time>
      </trkpt>
      <trkpt lat="44.4539" lon="6.74364">
        <ele>1281</ele>
        <time>2021-12-29T01:56:01Z</time>
      </trkpt>
      <trkpt lat="44.45409" lon="6.74362">
        <ele>1281</ele>
        <time>2021-12-29T01:56:04Z</time>
      </trkpt>
      <trkpt lat="44.45506" lon="6.74366">
        <ele>1292</ele>
        <time>2021-12-29T01:56:21Z</time>
      </trkpt>
      <trkpt lat="44.45532" lon="6.74372">
        <ele>1294</ele>
        <time>2021-12-29T01:56:26Z</time>
      </trkpt>
      <trkpt lat="44.45589" lon="6.74406">
        <ele>1288</ele>
        <time>2021-12-29T01:56:37Z</time>
      </trkpt>
      <trkpt lat="44.45608" lon="6.74409">
        <ele>1288</ele>
        <time>2021-12-29T01:56:40Z</time>
      </trkpt>
      <trkpt lat="44.45641" lon="6.74407">
        <ele>1290</ele>
        <time>2021-12-29T01:56:46Z</time>
      </trkpt>
      <trkpt lat="44.45664" lon="6.74408">
        <ele>1291</ele>
        <time>2021-12-29T01:56:50Z</time>
      </trkpt>
      <trkpt lat="44.4568" lon="6.74413">
        <ele>1290</ele>
        <time>2021-12-29T01:56:53Z</time>
      </trkpt>
      <trkpt lat="44.45705" lon="6.74424">
        <ele>1290</ele>
        <time>2021-12-29T01:56:58Z</time>
      </trkpt>
      <trkpt lat="44.45763" lon="6.74465">
        <ele>1290</ele>
        <time>2021-12-29T01:57:10Z</time>
      </trkpt>
      <trkpt lat="44.4578" lon="6.74482">
        <ele>1290</ele>
        <time>2021-12-29T01:57:13Z</time>
      </trkpt>
      <trkpt lat="44.45791" lon="6.74494">
        <ele>1289</ele>
        <time>2021-12-29T01:57:16Z</time>
      </trkpt>
      <trkpt lat="44.45798" lon="6.74508">
        <ele>1289</ele>
        <time>2021-12-29T01:57:18Z</time>
      </trkpt>
      <trkpt lat="44.45803" lon="6.74517">
        <ele>1289</ele>
        <time>2021-12-29T01:57:19Z</time>
      </trkpt>
      <trkpt lat="44.45814" lon="6.74557">
        <ele>1289</ele>
        <time>2021-12-29T01:57:25Z</time>
      </trkpt>
      <trkpt lat="44.4582" lon="6.74614">
        <ele>1287</ele>
        <time>2021-12-29T01:57:32Z</time>
      </trkpt>
      <trkpt lat="44.45825" lon="6.74632">
        <ele>1286</ele>
        <time>2021-12-29T01:57:35Z</time>
      </trkpt>
      <trkpt lat="44.45833" lon="6.74648">
        <ele>1286</ele>
        <time>2021-12-29T01:57:37Z</time>
      </trkpt>
      <trkpt lat="44.45849" lon="6.74663">
        <ele>1287</ele>
        <time>2021-12-29T01:57:40Z</time>
      </trkpt>
      <trkpt lat="44.45861" lon="6.74669">
        <ele>1288</ele>
        <time>2021-12-29T01:57:43Z</time>
      </trkpt>
      <trkpt lat="44.45916" lon="6.74673">
        <ele>1295</ele>
        <time>2021-12-29T01:57:53Z</time>
      </trkpt>
      <trkpt lat="44.45961" lon="6.74682">
        <ele>1296</ele>
        <time>2021-12-29T01:58:01Z</time>
      </trkpt>
      <trkpt lat="44.45984" lon="6.74693">
        <ele>1294</ele>
        <time>2021-12-29T01:58:05Z</time>
      </trkpt>
      <trkpt lat="44.46016" lon="6.74714">
        <ele>1293</ele>
        <time>2021-12-29T01:58:11Z</time>
      </trkpt>
      <trkpt lat="44.46039" lon="6.74733">
        <ele>1294</ele>
        <time>2021-12-29T01:58:16Z</time>
      </trkpt>
      <trkpt lat="44.4606" lon="6.74752">
        <ele>1294</ele>
        <time>2021-12-29T01:58:20Z</time>
      </trkpt>
      <trkpt lat="44.46081" lon="6.74778">
        <ele>1295</ele>
        <time>2021-12-29T01:58:25Z</time>
      </trkpt>
      <trkpt lat="44.46193" lon="6.74941">
        <ele>1295</ele>
        <time>2021-12-29T01:58:54Z</time>
      </trkpt>
      <trkpt lat="44.46236" lon="6.74996">
        <ele>1294</ele>
        <time>2021-12-29T01:59:05Z</time>
      </trkpt>
      <trkpt lat="44.46255" lon="6.75008">
        <ele>1295</ele>
        <time>2021-12-29T01:59:08Z</time>
      </trkpt>
      <trkpt lat="44.46301" lon="6.75024">
        <ele>1303</ele>
        <time>2021-12-29T01:59:17Z</time>
      </trkpt>
      <trkpt lat="44.46331" lon="6.75042">
        <ele>1305</ele>
        <time>2021-12-29T01:59:22Z</time>
      </trkpt>
      <trkpt lat="44.4636" lon="6.75066">
        <ele>1309</ele>
        <time>2021-12-29T01:59:28Z</time>
      </trkpt>
      <trkpt lat="44.46451" lon="6.75181">
        <ele>1306</ele>
        <time>2021-12-29T01:59:50Z</time>
      </trkpt>
      <trkpt lat="44.46488" lon="6.75236">
        <ele>1304</ele>
        <time>2021-12-29T02:00:00Z</time>
      </trkpt>
      <trkpt lat="44.46513" lon="6.75293">
        <ele>1301</ele>
        <time>2021-12-29T02:00:08Z</time>
      </trkpt>
      <trkpt lat="44.46524" lon="6.75325">
        <ele>1299</ele>
        <time>2021-12-29T02:00:13Z</time>
      </trkpt>
      <trkpt lat="44.46527" lon="6.75354">
        <ele>1297</ele>
        <time>2021-12-29T02:00:17Z</time>
      </trkpt>
      <trkpt lat="44.46524" lon="6.75404">
        <ele>1293</ele>
        <time>2021-12-29T02:00:23Z</time>
      </trkpt>
      <trkpt lat="44.46509" lon="6.75521">
        <ele>1288</ele>
        <time>2021-12-29T02:00:38Z</time>
      </trkpt>
      <trkpt lat="44.46499" lon="6.75592">
        <ele>1288</ele>
        <time>2021-12-29T02:00:47Z</time>
      </trkpt>
      <trkpt lat="44.46491" lon="6.75649">
        <ele>1293</ele>
        <time>2021-12-29T02:00:55Z</time>
      </trkpt>
      <trkpt lat="44.46499" lon="6.75708">
        <ele>1298</ele>
        <time>2021-12-29T02:01:02Z</time>
      </trkpt>
      <trkpt lat="44.46715" lon="6.76129">
        <ele>1304</ele>
        <time>2021-12-29T02:02:08Z</time>
      </trkpt>
      <trkpt lat="44.4674" lon="6.76168">
        <ele>1302</ele>
        <time>2021-12-29T02:02:15Z</time>
      </trkpt>
      <trkpt lat="44.46766" lon="6.76194">
        <ele>1305</ele>
        <time>2021-12-29T02:02:20Z</time>
      </trkpt>
      <trkpt lat="44.46942" lon="6.76281">
        <ele>1308</ele>
        <time>2021-12-29T02:02:54Z</time>
      </trkpt>
      <trkpt lat="44.4704" lon="6.76334">
        <ele>1308</ele>
        <time>2021-12-29T02:03:12Z</time>
      </trkpt>
      <trkpt lat="44.47084" lon="6.76369">
        <ele>1311</ele>
        <time>2021-12-29T02:03:21Z</time>
      </trkpt>
      <trkpt lat="44.47101" lon="6.76376">
        <ele>1311</ele>
        <time>2021-12-29T02:03:24Z</time>
      </trkpt>
      <trkpt lat="44.47124" lon="6.76376">
        <ele>1310</ele>
        <time>2021-12-29T02:03:29Z</time>
      </trkpt>
      <trkpt lat="44.4714" lon="6.76371">
        <ele>1308</ele>
        <time>2021-12-29T02:03:31Z</time>
      </trkpt>
      <trkpt lat="44.47158" lon="6.76362">
        <ele>1307</ele>
        <time>2021-12-29T02:03:35Z</time>
      </trkpt>
      <trkpt lat="44.47194" lon="6.76335">
        <ele>1307</ele>
        <time>2021-12-29T02:03:42Z</time>
      </trkpt>
      <trkpt lat="44.47213" lon="6.76322">
        <ele>1307</ele>
        <time>2021-12-29T02:03:46Z</time>
      </trkpt>
      <trkpt lat="44.47225" lon="6.76317">
        <ele>1308</ele>
        <time>2021-12-29T02:03:48Z</time>
      </trkpt>
      <trkpt lat="44.47234" lon="6.76315">
        <ele>1308</ele>
        <time>2021-12-29T02:03:50Z</time>
      </trkpt>
      <trkpt lat="44.47267" lon="6.76285">
        <ele>1308</ele>
        <time>2021-12-29T02:03:57Z</time>
      </trkpt>
      <trkpt lat="44.47653" lon="6.76063">
        <ele>1309</ele>
        <time>2021-12-29T02:05:11Z</time>
      </trkpt>
      <trkpt lat="44.47675" lon="6.76044">
        <ele>1309</ele>
        <time>2021-12-29T02:05:16Z</time>
      </trkpt>
      <trkpt lat="44.47689" lon="6.76026">
        <ele>1310</ele>
        <time>2021-12-29T02:05:19Z</time>
      </trkpt>
      <trkpt lat="44.47712" lon="6.75983">
        <ele>1311</ele>
        <time>2021-12-29T02:05:26Z</time>
      </trkpt>
      <trkpt lat="44.47783" lon="6.75832">
        <ele>1312</ele>
        <time>2021-12-29T02:05:49Z</time>
      </trkpt>
      <trkpt lat="44.47811" lon="6.75784">
        <ele>1315</ele>
        <time>2021-12-29T02:05:57Z</time>
      </trkpt>
      <trkpt lat="44.47842" lon="6.75742">
        <ele>1316</ele>
        <time>2021-12-29T02:06:04Z</time>
      </trkpt>
      <trkpt lat="44.47889" lon="6.75692">
        <ele>1321</ele>
        <time>2021-12-29T02:06:15Z</time>
      </trkpt>
      <trkpt lat="44.47942" lon="6.75642">
        <ele>1324</ele>
        <time>2021-12-29T02:06:26Z</time>
      </trkpt>
      <trkpt lat="44.47972" lon="6.756">
        <ele>1325</ele>
        <time>2021-12-29T02:06:34Z</time>
      </trkpt>
      <trkpt lat="44.48" lon="6.75555">
        <ele>1323</ele>
        <time>2021-12-29T02:06:41Z</time>
      </trkpt>
      <trkpt lat="44.48023" lon="6.75498">
        <ele>1320</ele>
        <time>2021-12-29T02:06:50Z</time>
      </trkpt>
      <trkpt lat="44.48047" lon="6.7539">
        <ele>1327</ele>
        <time>2021-12-29T02:07:04Z</time>
      </trkpt>
      <trkpt lat="44.48056" lon="6.75349">
        <ele>1332</ele>
        <time>2021-12-29T02:07:09Z</time>
      </trkpt>
      <trkpt lat="44.48072" lon="6.75309">
        <ele>1335</ele>
        <time>2021-12-29T02:07:15Z</time>
      </trkpt>
      <trkpt lat="44.4818" lon="6.75145">
        <ele>1338</ele>
        <time>2021-12-29T02:07:44Z</time>
      </trkpt>
      <trkpt lat="44.48342" lon="6.7497">
        <ele>1334</ele>
        <time>2021-12-29T02:08:20Z</time>
      </trkpt>
      <trkpt lat="44.4841" lon="6.74874">
        <ele>1345</ele>
        <time>2021-12-29T02:08:37Z</time>
      </trkpt>
      <trkpt lat="44.48432" lon="6.7485">
        <ele>1347</ele>
        <time>2021-12-29T02:08:42Z</time>
      </trkpt>
      <trkpt lat="44.48461" lon="6.74824">
        <ele>1347</ele>
        <time>2021-12-29T02:08:48Z</time>
      </trkpt>
      <trkpt lat="44.48524" lon="6.7478">
        <ele>1347</ele>
        <time>2021-12-29T02:09:01Z</time>
      </trkpt>
      <trkpt lat="44.48596" lon="6.74749">
        <ele>1339</ele>
        <time>2021-12-29T02:09:14Z</time>
      </trkpt>
      <trkpt lat="44.48614" lon="6.74736">
        <ele>1341</ele>
        <time>2021-12-29T02:09:18Z</time>
      </trkpt>
      <trkpt lat="44.48691" lon="6.74621">
        <ele>1352</ele>
        <time>2021-12-29T02:09:38Z</time>
      </trkpt>
      <trkpt lat="44.48724" lon="6.74592">
        <ele>1352</ele>
        <time>2021-12-29T02:09:45Z</time>
      </trkpt>
      <trkpt lat="44.4881" lon="6.74538">
        <ele>1354</ele>
        <time>2021-12-29T02:10:01Z</time>
      </trkpt>
      <trkpt lat="44.4885" lon="6.74491">
        <ele>1356</ele>
        <time>2021-12-29T02:10:11Z</time>
      </trkpt>
      <trkpt lat="44.48876" lon="6.74454">
        <ele>1358</ele>
        <time>2021-12-29T02:10:17Z</time>
      </trkpt>
      <trkpt lat="44.48909" lon="6.74388">
        <ele>1358</ele>
        <time>2021-12-29T02:10:28Z</time>
      </trkpt>
      <trkpt lat="44.48936" lon="6.74351">
        <ele>1359</ele>
        <time>2021-12-29T02:10:34Z</time>
      </trkpt>
      <trkpt lat="44.48963" lon="6.74331">
        <ele>1358</ele>
        <time>2021-12-29T02:10:40Z</time>
      </trkpt>
      <trkpt lat="44.49001" lon="6.7432">
        <ele>1354</ele>
        <time>2021-12-29T02:10:47Z</time>
      </trkpt>
      <trkpt lat="44.49042" lon="6.74305">
        <ele>1355</ele>
        <time>2021-12-29T02:10:54Z</time>
      </trkpt>
      <trkpt lat="44.4907" lon="6.7428">
        <ele>1358</ele>
        <time>2021-12-29T02:11:00Z</time>
      </trkpt>
      <trkpt lat="44.49108" lon="6.74235">
        <ele>1364</ele>
        <time>2021-12-29T02:11:09Z</time>
      </trkpt>
      <trkpt lat="44.49131" lon="6.74216">
        <ele>1366</ele>
        <time>2021-12-29T02:11:14Z</time>
      </trkpt>
      <trkpt lat="44.49156" lon="6.74211">
        <ele>1365</ele>
        <time>2021-12-29T02:11:18Z</time>
      </trkpt>
      <trkpt lat="44.49279" lon="6.74205">
        <ele>1366</ele>
        <time>2021-12-29T02:11:40Z</time>
      </trkpt>
      <trkpt lat="44.49308" lon="6.74191">
        <ele>1366</ele>
        <time>2021-12-29T02:11:46Z</time>
      </trkpt>
      <trkpt lat="44.49369" lon="6.74151">
        <ele>1368</ele>
        <time>2021-12-29T02:11:57Z</time>
      </trkpt>
      <trkpt lat="44.49432" lon="6.74126">
        <ele>1370</ele>
        <time>2021-12-29T02:12:09Z</time>
      </trkpt>
      <trkpt lat="44.49469" lon="6.74115">
        <ele>1371</ele>
        <time>2021-12-29T02:12:16Z</time>
      </trkpt>
      <trkpt lat="44.49495" lon="6.74107">
        <ele>1372</ele>
        <time>2021-12-29T02:12:21Z</time>
      </trkpt>
      <trkpt lat="44.49595" lon="6.74077">
        <ele>1373</ele>
        <time>2021-12-29T02:12:39Z</time>
      </trkpt>
      <trkpt lat="44.49635" lon="6.74052">
        <ele>1375</ele>
        <time>2021-12-29T02:12:47Z</time>
      </trkpt>
      <trkpt lat="44.49722" lon="6.73979">
        <ele>1381</ele>
        <time>2021-12-29T02:13:05Z</time>
      </trkpt>
      <trkpt lat="44.49809" lon="6.73925">
        <ele>1387</ele>
        <time>2021-12-29T02:13:22Z</time>
      </trkpt>
      <trkpt lat="44.49839" lon="6.73915">
        <ele>1390</ele>
        <time>2021-12-29T02:13:27Z</time>
      </trkpt>
      <trkpt lat="44.49913" lon="6.73932">
        <ele>1388</ele>
        <time>2021-12-29T02:13:40Z</time>
      </trkpt>
      <trkpt lat="44.49938" lon="6.73942">
        <ele>1390</ele>
        <time>2021-12-29T02:13:45Z</time>
      </trkpt>
      <trkpt lat="44.49975" lon="6.73964">
        <ele>1389</ele>
        <time>2021-12-29T02:13:52Z</time>
      </trkpt>
      <trkpt lat="44.50056" lon="6.74032">
        <ele>1387</ele>
        <time>2021-12-29T02:14:09Z</time>
      </trkpt>
      <trkpt lat="44.50085" lon="6.74049">
        <ele>1388</ele>
        <time>2021-12-29T02:14:15Z</time>
      </trkpt>
      <trkpt lat="44.50114" lon="6.74058">
        <ele>1388</ele>
        <time>2021-12-29T02:14:20Z</time>
      </trkpt>
      <trkpt lat="44.50158" lon="6.7406">
        <ele>1389</ele>
        <time>2021-12-29T02:14:28Z</time>
      </trkpt>
      <trkpt lat="44.502" lon="6.74057">
        <ele>1390</ele>
        <time>2021-12-29T02:14:35Z</time>
      </trkpt>
      <trkpt lat="44.50226" lon="6.74067">
        <ele>1388</ele>
        <time>2021-12-29T02:14:40Z</time>
      </trkpt>
      <trkpt lat="44.50248" lon="6.74085">
        <ele>1384</ele>
        <time>2021-12-29T02:14:44Z</time>
      </trkpt>
      <trkpt lat="44.50266" lon="6.74116">
        <ele>1390</ele>
        <time>2021-12-29T02:14:50Z</time>
      </trkpt>
      <trkpt lat="44.50278" lon="6.74155">
        <ele>1395</ele>
        <time>2021-12-29T02:14:55Z</time>
      </trkpt>
      <trkpt lat="44.50299" lon="6.74277">
        <ele>1414</ele>
        <time>2021-12-29T02:15:11Z</time>
      </trkpt>
      <trkpt lat="44.50321" lon="6.74304">
        <ele>1416</ele>
        <time>2021-12-29T02:15:16Z</time>
      </trkpt>
      <trkpt lat="44.50387" lon="6.74336">
        <ele>1440</ele>
        <time>2021-12-29T02:15:29Z</time>
      </trkpt>
      <trkpt lat="44.50433" lon="6.74352">
        <ele>1454</ele>
        <time>2021-12-29T02:15:37Z</time>
      </trkpt>
      <trkpt lat="44.50453" lon="6.74383">
        <ele>1450</ele>
        <time>2021-12-29T02:15:42Z</time>
      </trkpt>
      <trkpt lat="44.50481" lon="6.74475">
        <ele>1420</ele>
        <time>2021-12-29T02:15:55Z</time>
      </trkpt>
      <trkpt lat="44.50507" lon="6.74497">
        <ele>1406</ele>
        <time>2021-12-29T02:16:00Z</time>
      </trkpt>
      <trkpt lat="44.5052" lon="6.74502">
        <ele>1408</ele>
        <time>2021-12-29T02:16:03Z</time>
      </trkpt>
      <trkpt lat="44.50596" lon="6.74531">
        <ele>1433</ele>
        <time>2021-12-29T02:16:17Z</time>
      </trkpt>
      <trkpt lat="44.50681" lon="6.74559">
        <ele>1447</ele>
        <time>2021-12-29T02:16:32Z</time>
      </trkpt>
      <trkpt lat="44.50909" lon="6.74643">
        <ele>1422</ele>
        <time>2021-12-29T02:17:14Z</time>
      </trkpt>
      <trkpt lat="44.50962" lon="6.74665">
        <ele>1420</ele>
        <time>2021-12-29T02:17:24Z</time>
      </trkpt>
      <trkpt lat="44.50983" lon="6.74666">
        <ele>1421</ele>
        <time>2021-12-29T02:17:28Z</time>
      </trkpt>
      <trkpt lat="44.51002" lon="6.7466">
        <ele>1423</ele>
        <time>2021-12-29T02:17:31Z</time>
      </trkpt>
      <trkpt lat="44.51019" lon="6.74643">
        <ele>1427</ele>
        <time>2021-12-29T02:17:35Z</time>
      </trkpt>
      <trkpt lat="44.51031" lon="6.74584">
        <ele>1435</ele>
        <time>2021-12-29T02:17:43Z</time>
      </trkpt>
      <trkpt lat="44.51049" lon="6.74514">
        <ele>1442</ele>
        <time>2021-12-29T02:17:52Z</time>
      </trkpt>
      <trkpt lat="44.51096" lon="6.74447">
        <ele>1449</ele>
        <time>2021-12-29T02:18:04Z</time>
      </trkpt>
      <trkpt lat="44.51141" lon="6.74421">
        <ele>1457</ele>
        <time>2021-12-29T02:18:13Z</time>
      </trkpt>
      <trkpt lat="44.51162" lon="6.74419">
        <ele>1459</ele>
        <time>2021-12-29T02:18:17Z</time>
      </trkpt>
      <trkpt lat="44.51211" lon="6.74429">
        <ele>1459</ele>
        <time>2021-12-29T02:18:25Z</time>
      </trkpt>
      <trkpt lat="44.51506" lon="6.74404">
        <ele>1471</ele>
        <time>2021-12-29T02:19:18Z</time>
      </trkpt>
      <trkpt lat="44.51536" lon="6.74405">
        <ele>1471</ele>
        <time>2021-12-29T02:19:23Z</time>
      </trkpt>
      <trkpt lat="44.51553" lon="6.74413">
        <ele>1469</ele>
        <time>2021-12-29T02:19:26Z</time>
      </trkpt>
      <trkpt lat="44.51564" lon="6.74444">
        <ele>1470</ele>
        <time>2021-12-29T02:19:31Z</time>
      </trkpt>
      <trkpt lat="44.51561" lon="6.7446">
        <ele>1471</ele>
        <time>2021-12-29T02:19:33Z</time>
      </trkpt>
      <trkpt lat="44.5155" lon="6.74489">
        <ele>1469</ele>
        <time>2021-12-29T02:19:37Z</time>
      </trkpt>
      <trkpt lat="44.5153" lon="6.74563">
        <ele>1469</ele>
        <time>2021-12-29T02:19:47Z</time>
      </trkpt>
      <trkpt lat="44.51516" lon="6.74596">
        <ele>1466</ele>
        <time>2021-12-29T02:19:52Z</time>
      </trkpt>
      <trkpt lat="44.51481" lon="6.74655">
        <ele>1461</ele>
        <time>2021-12-29T02:20:02Z</time>
      </trkpt>
      <trkpt lat="44.51472" lon="6.74682">
        <ele>1461</ele>
        <time>2021-12-29T02:20:06Z</time>
      </trkpt>
      <trkpt lat="44.51457" lon="6.74815">
        <ele>1465</ele>
        <time>2021-12-29T02:20:23Z</time>
      </trkpt>
      <trkpt lat="44.51456" lon="6.74846">
        <ele>1466</ele>
        <time>2021-12-29T02:20:27Z</time>
      </trkpt>
      <trkpt lat="44.51458" lon="6.74869">
        <ele>1467</ele>
        <time>2021-12-29T02:20:30Z</time>
      </trkpt>
      <trkpt lat="44.51482" lon="6.74931">
        <ele>1472</ele>
        <time>2021-12-29T02:20:38Z</time>
      </trkpt>
      <trkpt lat="44.51517" lon="6.75003">
        <ele>1479</ele>
        <time>2021-12-29T02:20:50Z</time>
      </trkpt>
      <trkpt lat="44.51536" lon="6.75032">
        <ele>1481</ele>
        <time>2021-12-29T02:20:55Z</time>
      </trkpt>
      <trkpt lat="44.51575" lon="6.75066">
        <ele>1483</ele>
        <time>2021-12-29T02:21:03Z</time>
      </trkpt>
      <trkpt lat="44.516" lon="6.75081">
        <ele>1484</ele>
        <time>2021-12-29T02:21:08Z</time>
      </trkpt>
      <trkpt lat="44.51701" lon="6.75106">
        <ele>1496</ele>
        <time>2021-12-29T02:21:26Z</time>
      </trkpt>
      <trkpt lat="44.51723" lon="6.75118">
        <ele>1499</ele>
        <time>2021-12-29T02:21:30Z</time>
      </trkpt>
      <trkpt lat="44.51739" lon="6.75137">
        <ele>1501</ele>
        <time>2021-12-29T02:21:34Z</time>
      </trkpt>
      <trkpt lat="44.51753" lon="6.7516">
        <ele>1501</ele>
        <time>2021-12-29T02:21:38Z</time>
      </trkpt>
      <trkpt lat="44.5176" lon="6.75193">
        <ele>1500</ele>
        <time>2021-12-29T02:21:42Z</time>
      </trkpt>
      <trkpt lat="44.51762" lon="6.75256">
        <ele>1497</ele>
        <time>2021-12-29T02:21:50Z</time>
      </trkpt>
      <trkpt lat="44.51771" lon="6.75273">
        <ele>1498</ele>
        <time>2021-12-29T02:21:53Z</time>
      </trkpt>
      <trkpt lat="44.51781" lon="6.75277">
        <ele>1500</ele>
        <time>2021-12-29T02:21:54Z</time>
      </trkpt>
      <trkpt lat="44.5179" lon="6.75273">
        <ele>1503</ele>
        <time>2021-12-29T02:21:56Z</time>
      </trkpt>
      <trkpt lat="44.51798" lon="6.75262">
        <ele>1506</ele>
        <time>2021-12-29T02:21:58Z</time>
      </trkpt>
      <trkpt lat="44.51804" lon="6.75237">
        <ele>1509</ele>
        <time>2021-12-29T02:22:01Z</time>
      </trkpt>
      <trkpt lat="44.51805" lon="6.75204">
        <ele>1512</ele>
        <time>2021-12-29T02:22:06Z</time>
      </trkpt>
      <trkpt lat="44.51803" lon="6.75174">
        <ele>1513</ele>
        <time>2021-12-29T02:22:09Z</time>
      </trkpt>
      <trkpt lat="44.51798" lon="6.75151">
        <ele>1515</ele>
        <time>2021-12-29T02:22:13Z</time>
      </trkpt>
      <trkpt lat="44.51735" lon="6.74995">
        <ele>1520</ele>
        <time>2021-12-29T02:22:35Z</time>
      </trkpt>
      <trkpt lat="44.51719" lon="6.74943">
        <ele>1521</ele>
        <time>2021-12-29T02:22:42Z</time>
      </trkpt>
      <trkpt lat="44.51711" lon="6.74903">
        <ele>1522</ele>
        <time>2021-12-29T02:22:48Z</time>
      </trkpt>
      <trkpt lat="44.51708" lon="6.74863">
        <ele>1523</ele>
        <time>2021-12-29T02:22:53Z</time>
      </trkpt>
      <trkpt lat="44.51712" lon="6.74821">
        <ele>1526</ele>
        <time>2021-12-29T02:22:58Z</time>
      </trkpt>
      <trkpt lat="44.51719" lon="6.74773">
        <ele>1531</ele>
        <time>2021-12-29T02:23:04Z</time>
      </trkpt>
      <trkpt lat="44.5173" lon="6.74734">
        <ele>1535</ele>
        <time>2021-12-29T02:23:10Z</time>
      </trkpt>
      <trkpt lat="44.51761" lon="6.74668">
        <ele>1542</ele>
        <time>2021-12-29T02:23:20Z</time>
      </trkpt>
      <trkpt lat="44.51822" lon="6.74559">
        <ele>1552</ele>
        <time>2021-12-29T02:23:37Z</time>
      </trkpt>
      <trkpt lat="44.51854" lon="6.74528">
        <ele>1558</ele>
        <time>2021-12-29T02:23:44Z</time>
      </trkpt>
      <trkpt lat="44.51996" lon="6.74398">
        <ele>1579</ele>
        <time>2021-12-29T02:24:14Z</time>
      </trkpt>
      <trkpt lat="44.52014" lon="6.74372">
        <ele>1583</ele>
        <time>2021-12-29T02:24:19Z</time>
      </trkpt>
      <trkpt lat="44.52027" lon="6.7434">
        <ele>1584</ele>
        <time>2021-12-29T02:24:24Z</time>
      </trkpt>
      <trkpt lat="44.52034" lon="6.74309">
        <ele>1586</ele>
        <time>2021-12-29T02:24:28Z</time>
      </trkpt>
      <trkpt lat="44.52036" lon="6.74275">
        <ele>1586</ele>
        <time>2021-12-29T02:24:32Z</time>
      </trkpt>
      <trkpt lat="44.52033" lon="6.74245">
        <ele>1585</ele>
        <time>2021-12-29T02:24:36Z</time>
      </trkpt>
      <trkpt lat="44.52007" lon="6.74119">
        <ele>1582</ele>
        <time>2021-12-29T02:24:53Z</time>
      </trkpt>
      <trkpt lat="44.52009" lon="6.74095">
        <ele>1583</ele>
        <time>2021-12-29T02:24:56Z</time>
      </trkpt>
      <trkpt lat="44.52015" lon="6.74078">
        <ele>1584</ele>
        <time>2021-12-29T02:24:58Z</time>
      </trkpt>
      <trkpt lat="44.52023" lon="6.74065">
        <ele>1583</ele>
        <time>2021-12-29T02:25:00Z</time>
      </trkpt>
      <trkpt lat="44.52031" lon="6.74055">
        <ele>1582</ele>
        <time>2021-12-29T02:25:02Z</time>
      </trkpt>
      <trkpt lat="44.52042" lon="6.74048">
        <ele>1582</ele>
        <time>2021-12-29T02:25:04Z</time>
      </trkpt>
      <trkpt lat="44.52054" lon="6.74048">
        <ele>1584</ele>
        <time>2021-12-29T02:25:07Z</time>
      </trkpt>
      <trkpt lat="44.52122" lon="6.74062">
        <ele>1593</ele>
        <time>2021-12-29T02:25:19Z</time>
      </trkpt>
      <trkpt lat="44.52135" lon="6.7406">
        <ele>1594</ele>
        <time>2021-12-29T02:25:21Z</time>
      </trkpt>
      <trkpt lat="44.52151" lon="6.74046">
        <ele>1593</ele>
        <time>2021-12-29T02:25:24Z</time>
      </trkpt>
      <trkpt lat="44.52164" lon="6.74024">
        <ele>1592</ele>
        <time>2021-12-29T02:25:28Z</time>
      </trkpt>
      <trkpt lat="44.52184" lon="6.7398">
        <ele>1594</ele>
        <time>2021-12-29T02:25:35Z</time>
      </trkpt>
      <trkpt lat="44.52196" lon="6.73963">
        <ele>1596</ele>
        <time>2021-12-29T02:25:38Z</time>
      </trkpt>
      <trkpt lat="44.52213" lon="6.73949">
        <ele>1599</ele>
        <time>2021-12-29T02:25:41Z</time>
      </trkpt>
      <trkpt lat="44.52269" lon="6.73936">
        <ele>1613</ele>
        <time>2021-12-29T02:25:51Z</time>
      </trkpt>
      <trkpt lat="44.52288" lon="6.73921">
        <ele>1618</ele>
        <time>2021-12-29T02:25:55Z</time>
      </trkpt>
      <trkpt lat="44.52302" lon="6.739">
        <ele>1622</ele>
        <time>2021-12-29T02:25:59Z</time>
      </trkpt>
      <trkpt lat="44.52312" lon="6.73874">
        <ele>1624</ele>
        <time>2021-12-29T02:26:03Z</time>
      </trkpt>
      <trkpt lat="44.52314" lon="6.73847">
        <ele>1623</ele>
        <time>2021-12-29T02:26:06Z</time>
      </trkpt>
      <trkpt lat="44.52311" lon="6.73818">
        <ele>1623</ele>
        <time>2021-12-29T02:26:10Z</time>
      </trkpt>
      <trkpt lat="44.52301" lon="6.73785">
        <ele>1622</ele>
        <time>2021-12-29T02:26:14Z</time>
      </trkpt>
      <trkpt lat="44.52296" lon="6.73754">
        <ele>1622</ele>
        <time>2021-12-29T02:26:18Z</time>
      </trkpt>
      <trkpt lat="44.52296" lon="6.73717">
        <ele>1621</ele>
        <time>2021-12-29T02:26:23Z</time>
      </trkpt>
      <trkpt lat="44.52317" lon="6.73615">
        <ele>1631</ele>
        <time>2021-12-29T02:26:36Z</time>
      </trkpt>
      <trkpt lat="44.52337" lon="6.7354">
        <ele>1641</ele>
        <time>2021-12-29T02:26:47Z</time>
      </trkpt>
      <trkpt lat="44.52339" lon="6.73505">
        <ele>1642</ele>
        <time>2021-12-29T02:26:51Z</time>
      </trkpt>
      <trkpt lat="44.52329" lon="6.73463">
        <ele>1638</ele>
        <time>2021-12-29T02:26:57Z</time>
      </trkpt>
      <trkpt lat="44.52325" lon="6.73424">
        <ele>1637</ele>
        <time>2021-12-29T02:27:02Z</time>
      </trkpt>
      <trkpt lat="44.52331" lon="6.73384">
        <ele>1638</ele>
        <time>2021-12-29T02:27:07Z</time>
      </trkpt>
      <trkpt lat="44.52342" lon="6.7335">
        <ele>1641</ele>
        <time>2021-12-29T02:27:12Z</time>
      </trkpt>
      <trkpt lat="44.52357" lon="6.73316">
        <ele>1642</ele>
        <time>2021-12-29T02:27:17Z</time>
      </trkpt>
      <trkpt lat="44.5238" lon="6.73282">
        <ele>1643</ele>
        <time>2021-12-29T02:27:23Z</time>
      </trkpt>
      <trkpt lat="44.52411" lon="6.73258">
        <ele>1647</ele>
        <time>2021-12-29T02:27:29Z</time>
      </trkpt>
      <trkpt lat="44.52441" lon="6.73244">
        <ele>1652</ele>
        <time>2021-12-29T02:27:35Z</time>
      </trkpt>
      <trkpt lat="44.52466" lon="6.73236">
        <ele>1656</ele>
        <time>2021-12-29T02:27:39Z</time>
      </trkpt>
      <trkpt lat="44.52477" lon="6.73227">
        <ele>1657</ele>
        <time>2021-12-29T02:27:41Z</time>
      </trkpt>
      <trkpt lat="44.52486" lon="6.73214">
        <ele>1657</ele>
        <time>2021-12-29T02:27:44Z</time>
      </trkpt>
      <trkpt lat="44.5249" lon="6.73196">
        <ele>1655</ele>
        <time>2021-12-29T02:27:46Z</time>
      </trkpt>
      <trkpt lat="44.52493" lon="6.73135">
        <ele>1652</ele>
        <time>2021-12-29T02:27:54Z</time>
      </trkpt>
      <trkpt lat="44.52503" lon="6.73065">
        <ele>1658</ele>
        <time>2021-12-29T02:28:03Z</time>
      </trkpt>
      <trkpt lat="44.52507" lon="6.73022">
        <ele>1662</ele>
        <time>2021-12-29T02:28:08Z</time>
      </trkpt>
      <trkpt lat="44.52504" lon="6.72868">
        <ele>1658</ele>
        <time>2021-12-29T02:28:28Z</time>
      </trkpt>
      <trkpt lat="44.5251" lon="6.72843">
        <ele>1659</ele>
        <time>2021-12-29T02:28:31Z</time>
      </trkpt>
      <trkpt lat="44.52527" lon="6.72799">
        <ele>1663</ele>
        <time>2021-12-29T02:28:38Z</time>
      </trkpt>
      <trkpt lat="44.52531" lon="6.72777">
        <ele>1664</ele>
        <time>2021-12-29T02:28:41Z</time>
      </trkpt>
      <trkpt lat="44.52538" lon="6.72712">
        <ele>1657</ele>
        <time>2021-12-29T02:28:49Z</time>
      </trkpt>
      <trkpt lat="44.52547" lon="6.72693">
        <ele>1656</ele>
        <time>2021-12-29T02:28:52Z</time>
      </trkpt>
      <trkpt lat="44.5256" lon="6.72685">
        <ele>1659</ele>
        <time>2021-12-29T02:28:54Z</time>
      </trkpt>
      <trkpt lat="44.52581" lon="6.72682">
        <ele>1664</ele>
        <time>2021-12-29T02:28:58Z</time>
      </trkpt>
      <trkpt lat="44.52604" lon="6.72676">
        <ele>1672</ele>
        <time>2021-12-29T02:29:02Z</time>
      </trkpt>
      <trkpt lat="44.52614" lon="6.72665">
        <ele>1675</ele>
        <time>2021-12-29T02:29:04Z</time>
      </trkpt>
      <trkpt lat="44.52624" lon="6.72651">
        <ele>1680</ele>
        <time>2021-12-29T02:29:07Z</time>
      </trkpt>
      <trkpt lat="44.52631" lon="6.72638">
        <ele>1683</ele>
        <time>2021-12-29T02:29:09Z</time>
      </trkpt>
      <trkpt lat="44.52635" lon="6.72628">
        <ele>1685</ele>
        <time>2021-12-29T02:29:11Z</time>
      </trkpt>
      <trkpt lat="44.52634" lon="6.72615">
        <ele>1684</ele>
        <time>2021-12-29T02:29:12Z</time>
      </trkpt>
      <trkpt lat="44.52629" lon="6.72606">
        <ele>1683</ele>
        <time>2021-12-29T02:29:14Z</time>
      </trkpt>
      <trkpt lat="44.52619" lon="6.72601">
        <ele>1680</ele>
        <time>2021-12-29T02:29:15Z</time>
      </trkpt>
      <trkpt lat="44.52595" lon="6.72603">
        <ele>1672</ele>
        <time>2021-12-29T02:29:20Z</time>
      </trkpt>
      <trkpt lat="44.5258" lon="6.72599">
        <ele>1668</ele>
        <time>2021-12-29T02:29:22Z</time>
      </trkpt>
      <trkpt lat="44.52566" lon="6.72591">
        <ele>1664</ele>
        <time>2021-12-29T02:29:25Z</time>
      </trkpt>
      <trkpt lat="44.52555" lon="6.72573">
        <ele>1662</ele>
        <time>2021-12-29T02:29:28Z</time>
      </trkpt>
      <trkpt lat="44.52545" lon="6.7252">
        <ele>1663</ele>
        <time>2021-12-29T02:29:35Z</time>
      </trkpt>
      <trkpt lat="44.52542" lon="6.72493">
        <ele>1664</ele>
        <time>2021-12-29T02:29:39Z</time>
      </trkpt>
      <trkpt lat="44.52547" lon="6.72465">
        <ele>1666</ele>
        <time>2021-12-29T02:29:42Z</time>
      </trkpt>
      <trkpt lat="44.52536" lon="6.72385">
        <ele>1662</ele>
        <time>2021-12-29T02:29:53Z</time>
      </trkpt>
      <trkpt lat="44.52537" lon="6.72353">
        <ele>1664</ele>
        <time>2021-12-29T02:29:57Z</time>
      </trkpt>
      <trkpt lat="44.52541" lon="6.72322">
        <ele>1667</ele>
        <time>2021-12-29T02:30:01Z</time>
      </trkpt>
      <trkpt lat="44.52548" lon="6.72291">
        <ele>1672</ele>
        <time>2021-12-29T02:30:05Z</time>
      </trkpt>
      <trkpt lat="44.52554" lon="6.7224">
        <ele>1678</ele>
        <time>2021-12-29T02:30:11Z</time>
      </trkpt>
      <trkpt lat="44.52564" lon="6.72218">
        <ele>1682</ele>
        <time>2021-12-29T02:30:15Z</time>
      </trkpt>
      <trkpt lat="44.52572" lon="6.72191">
        <ele>1686</ele>
        <time>2021-12-29T02:30:18Z</time>
      </trkpt>
      <trkpt lat="44.52579" lon="6.72145">
        <ele>1688</ele>
        <time>2021-12-29T02:30:24Z</time>
      </trkpt>
      <trkpt lat="44.5262" lon="6.72009">
        <ele>1697</ele>
        <time>2021-12-29T02:30:43Z</time>
      </trkpt>
      <trkpt lat="44.52646" lon="6.7196">
        <ele>1704</ele>
        <time>2021-12-29T02:30:51Z</time>
      </trkpt>
      <trkpt lat="44.52655" lon="6.71935">
        <ele>1705</ele>
        <time>2021-12-29T02:30:54Z</time>
      </trkpt>
      <trkpt lat="44.52664" lon="6.71878">
        <ele>1707</ele>
        <time>2021-12-29T02:31:02Z</time>
      </trkpt>
      <trkpt lat="44.5267" lon="6.71851">
        <ele>1709</ele>
        <time>2021-12-29T02:31:05Z</time>
      </trkpt>
      <trkpt lat="44.52679" lon="6.7183">
        <ele>1714</ele>
        <time>2021-12-29T02:31:08Z</time>
      </trkpt>
      <trkpt lat="44.52704" lon="6.71811">
        <ele>1726</ele>
        <time>2021-12-29T02:31:14Z</time>
      </trkpt>
      <trkpt lat="44.52712" lon="6.71802">
        <ele>1730</ele>
        <time>2021-12-29T02:31:15Z</time>
      </trkpt>
      <trkpt lat="44.52716" lon="6.71793">
        <ele>1733</ele>
        <time>2021-12-29T02:31:17Z</time>
      </trkpt>
      <trkpt lat="44.52717" lon="6.71782">
        <ele>1734</ele>
        <time>2021-12-29T02:31:18Z</time>
      </trkpt>
      <trkpt lat="44.52712" lon="6.71769">
        <ele>1732</ele>
        <time>2021-12-29T02:31:20Z</time>
      </trkpt>
      <trkpt lat="44.52701" lon="6.71758">
        <ele>1728</ele>
        <time>2021-12-29T02:31:22Z</time>
      </trkpt>
      <trkpt lat="44.52693" lon="6.71746">
        <ele>1726</ele>
        <time>2021-12-29T02:31:24Z</time>
      </trkpt>
      <trkpt lat="44.52689" lon="6.71732">
        <ele>1726</ele>
        <time>2021-12-29T02:31:26Z</time>
      </trkpt>
      <trkpt lat="44.52688" lon="6.71712">
        <ele>1728</ele>
        <time>2021-12-29T02:31:29Z</time>
      </trkpt>
      <trkpt lat="44.52693" lon="6.71663">
        <ele>1736</ele>
        <time>2021-12-29T02:31:35Z</time>
      </trkpt>
      <trkpt lat="44.52696" lon="6.71582">
        <ele>1741</ele>
        <time>2021-12-29T02:31:45Z</time>
      </trkpt>
      <trkpt lat="44.52696" lon="6.71552">
        <ele>1744</ele>
        <time>2021-12-29T02:31:49Z</time>
      </trkpt>
      <trkpt lat="44.52693" lon="6.71511">
        <ele>1747</ele>
        <time>2021-12-29T02:31:55Z</time>
      </trkpt>
      <trkpt lat="44.52697" lon="6.71501">
        <ele>1749</ele>
        <time>2021-12-29T02:31:56Z</time>
      </trkpt>
      <trkpt lat="44.52704" lon="6.71498">
        <ele>1753</ele>
        <time>2021-12-29T02:31:57Z</time>
      </trkpt>
      <trkpt lat="44.52711" lon="6.71501">
        <ele>1756</ele>
        <time>2021-12-29T02:31:59Z</time>
      </trkpt>
      <trkpt lat="44.52716" lon="6.71511">
        <ele>1758</ele>
        <time>2021-12-29T02:32:00Z</time>
      </trkpt>
      <trkpt lat="44.52721" lon="6.71554">
        <ele>1756</ele>
        <time>2021-12-29T02:32:06Z</time>
      </trkpt>
      <trkpt lat="44.5277" lon="6.7168">
        <ele>1767</ele>
        <time>2021-12-29T02:32:24Z</time>
      </trkpt>
      <trkpt lat="44.5278" lon="6.71698">
        <ele>1770</ele>
        <time>2021-12-29T02:32:27Z</time>
      </trkpt>
      <trkpt lat="44.52796" lon="6.71722">
        <ele>1775</ele>
        <time>2021-12-29T02:32:31Z</time>
      </trkpt>
      <trkpt lat="44.52805" lon="6.71746">
        <ele>1776</ele>
        <time>2021-12-29T02:32:34Z</time>
      </trkpt>
      <trkpt lat="44.52806" lon="6.71782">
        <ele>1776</ele>
        <time>2021-12-29T02:32:39Z</time>
      </trkpt>
      <trkpt lat="44.52804" lon="6.71818">
        <ele>1775</ele>
        <time>2021-12-29T02:32:44Z</time>
      </trkpt>
      <trkpt lat="44.52832" lon="6.71939">
        <ele>1789</ele>
        <time>2021-12-29T02:33:00Z</time>
      </trkpt>
      <trkpt lat="44.52857" lon="6.72104">
        <ele>1805</ele>
        <time>2021-12-29T02:33:21Z</time>
      </trkpt>
      <trkpt lat="44.52863" lon="6.72158">
        <ele>1808</ele>
        <time>2021-12-29T02:33:28Z</time>
      </trkpt>
      <trkpt lat="44.52864" lon="6.72211">
        <ele>1803</ele>
        <time>2021-12-29T02:33:35Z</time>
      </trkpt>
      <trkpt lat="44.52867" lon="6.72219">
        <ele>1803</ele>
        <time>2021-12-29T02:33:36Z</time>
      </trkpt>
      <trkpt lat="44.52878" lon="6.72221">
        <ele>1807</ele>
        <time>2021-12-29T02:33:38Z</time>
      </trkpt>
      <trkpt lat="44.52883" lon="6.72216">
        <ele>1810</ele>
        <time>2021-12-29T02:33:39Z</time>
      </trkpt>
      <trkpt lat="44.52886" lon="6.72202">
        <ele>1813</ele>
        <time>2021-12-29T02:33:41Z</time>
      </trkpt>
      <trkpt lat="44.52887" lon="6.72161">
        <ele>1819</ele>
        <time>2021-12-29T02:33:46Z</time>
      </trkpt>
      <trkpt lat="44.52891" lon="6.72101">
        <ele>1822</ele>
        <time>2021-12-29T02:33:54Z</time>
      </trkpt>
      <trkpt lat="44.52921" lon="6.71876">
        <ele>1841</ele>
        <time>2021-12-29T02:34:23Z</time>
      </trkpt>
      <trkpt lat="44.5294" lon="6.7171">
        <ele>1852</ele>
        <time>2021-12-29T02:34:44Z</time>
      </trkpt>
      <trkpt lat="44.52939" lon="6.71686">
        <ele>1854</ele>
        <time>2021-12-29T02:34:47Z</time>
      </trkpt>
      <trkpt lat="44.52933" lon="6.71642">
        <ele>1855</ele>
        <time>2021-12-29T02:34:53Z</time>
      </trkpt>
      <trkpt lat="44.52934" lon="6.71596">
        <ele>1858</ele>
        <time>2021-12-29T02:34:59Z</time>
      </trkpt>
      <trkpt lat="44.52943" lon="6.71517">
        <ele>1865</ele>
        <time>2021-12-29T02:35:09Z</time>
      </trkpt>
      <trkpt lat="44.52952" lon="6.71411">
        <ele>1870</ele>
        <time>2021-12-29T02:35:22Z</time>
      </trkpt>
      <trkpt lat="44.52959" lon="6.71364">
        <ele>1875</ele>
        <time>2021-12-29T02:35:28Z</time>
      </trkpt>
      <trkpt lat="44.52958" lon="6.71332">
        <ele>1876</ele>
        <time>2021-12-29T02:35:32Z</time>
      </trkpt>
      <trkpt lat="44.52951" lon="6.71276">
        <ele>1876</ele>
        <time>2021-12-29T02:35:40Z</time>
      </trkpt>
      <trkpt lat="44.52953" lon="6.71224">
        <ele>1878</ele>
        <time>2021-12-29T02:35:46Z</time>
      </trkpt>
      <trkpt lat="44.52962" lon="6.71179">
        <ele>1881</ele>
        <time>2021-12-29T02:35:52Z</time>
      </trkpt>
      <trkpt lat="44.52978" lon="6.7114">
        <ele>1885</ele>
        <time>2021-12-29T02:35:58Z</time>
      </trkpt>
      <trkpt lat="44.53037" lon="6.7104">
        <ele>1903</ele>
        <time>2021-12-29T02:36:14Z</time>
      </trkpt>
      <trkpt lat="44.53059" lon="6.70991">
        <ele>1909</ele>
        <time>2021-12-29T02:36:22Z</time>
      </trkpt>
      <trkpt lat="44.53066" lon="6.70989">
        <ele>1912</ele>
        <time>2021-12-29T02:36:23Z</time>
      </trkpt>
      <trkpt lat="44.53073" lon="6.7099">
        <ele>1914</ele>
        <time>2021-12-29T02:36:24Z</time>
      </trkpt>
      <trkpt lat="44.53079" lon="6.70997">
        <ele>1917</ele>
        <time>2021-12-29T02:36:26Z</time>
      </trkpt>
      <trkpt lat="44.5308" lon="6.71009">
        <ele>1919</ele>
        <time>2021-12-29T02:36:27Z</time>
      </trkpt>
      <trkpt lat="44.53078" lon="6.71022">
        <ele>1919</ele>
        <time>2021-12-29T02:36:29Z</time>
      </trkpt>
      <trkpt lat="44.53049" lon="6.7108">
        <ele>1911</ele>
        <time>2021-12-29T02:36:38Z</time>
      </trkpt>
      <trkpt lat="44.53043" lon="6.71101">
        <ele>1910</ele>
        <time>2021-12-29T02:36:41Z</time>
      </trkpt>
      <trkpt lat="44.5304" lon="6.71126">
        <ele>1911</ele>
        <time>2021-12-29T02:36:44Z</time>
      </trkpt>
      <trkpt lat="44.53042" lon="6.71157">
        <ele>1915</ele>
        <time>2021-12-29T02:36:48Z</time>
      </trkpt>
      <trkpt lat="44.53047" lon="6.71188">
        <ele>1916</ele>
        <time>2021-12-29T02:36:52Z</time>
      </trkpt>
      <trkpt lat="44.53058" lon="6.71224">
        <ele>1918</ele>
        <time>2021-12-29T02:36:57Z</time>
      </trkpt>
      <trkpt lat="44.53087" lon="6.71288">
        <ele>1926</ele>
        <time>2021-12-29T02:37:06Z</time>
      </trkpt>
      <trkpt lat="44.531" lon="6.71302">
        <ele>1930</ele>
        <time>2021-12-29T02:37:09Z</time>
      </trkpt>
      <trkpt lat="44.53111" lon="6.71308">
        <ele>1933</ele>
        <time>2021-12-29T02:37:11Z</time>
      </trkpt>
      <trkpt lat="44.53126" lon="6.71306">
        <ele>1937</ele>
        <time>2021-12-29T02:37:14Z</time>
      </trkpt>
      <trkpt lat="44.53136" lon="6.71296">
        <ele>1940</ele>
        <time>2021-12-29T02:37:16Z</time>
      </trkpt>
      <trkpt lat="44.5314" lon="6.71279">
        <ele>1941</ele>
        <time>2021-12-29T02:37:19Z</time>
      </trkpt>
      <trkpt lat="44.53141" lon="6.71262">
        <ele>1941</ele>
        <time>2021-12-29T02:37:21Z</time>
      </trkpt>
      <trkpt lat="44.53113" lon="6.71173">
        <ele>1939</ele>
        <time>2021-12-29T02:37:33Z</time>
      </trkpt>
      <trkpt lat="44.53109" lon="6.71138">
        <ele>1938</ele>
        <time>2021-12-29T02:37:38Z</time>
      </trkpt>
      <trkpt lat="44.53114" lon="6.71098">
        <ele>1939</ele>
        <time>2021-12-29T02:37:43Z</time>
      </trkpt>
      <trkpt lat="44.53122" lon="6.71072">
        <ele>1940</ele>
        <time>2021-12-29T02:37:46Z</time>
      </trkpt>
      <trkpt lat="44.53142" lon="6.71038">
        <ele>1944</ele>
        <time>2021-12-29T02:37:52Z</time>
      </trkpt>
      <trkpt lat="44.53223" lon="6.7096">
        <ele>1967</ele>
        <time>2021-12-29T02:38:09Z</time>
      </trkpt>
      <trkpt lat="44.53241" lon="6.70933">
        <ele>1970</ele>
        <time>2021-12-29T02:38:14Z</time>
      </trkpt>
      <trkpt lat="44.53282" lon="6.70861">
        <ele>1983</ele>
        <time>2021-12-29T02:38:26Z</time>
      </trkpt>
      <trkpt lat="44.5329" lon="6.70844">
        <ele>1985</ele>
        <time>2021-12-29T02:38:28Z</time>
      </trkpt>
      <trkpt lat="44.53293" lon="6.70823">
        <ele>1987</ele>
        <time>2021-12-29T02:38:31Z</time>
      </trkpt>
      <trkpt lat="44.53291" lon="6.70807">
        <ele>1988</ele>
        <time>2021-12-29T02:38:33Z</time>
      </trkpt>
      <trkpt lat="44.53283" lon="6.7079">
        <ele>1988</ele>
        <time>2021-12-29T02:38:36Z</time>
      </trkpt>
      <trkpt lat="44.53269" lon="6.70776">
        <ele>1987</ele>
        <time>2021-12-29T02:38:39Z</time>
      </trkpt>
      <trkpt lat="44.53251" lon="6.70762">
        <ele>1985</ele>
        <time>2021-12-29T02:38:42Z</time>
      </trkpt>
      <trkpt lat="44.53241" lon="6.70747">
        <ele>1985</ele>
        <time>2021-12-29T02:38:45Z</time>
      </trkpt>
      <trkpt lat="44.53234" lon="6.70726">
        <ele>1984</ele>
        <time>2021-12-29T02:38:48Z</time>
      </trkpt>
      <trkpt lat="44.53232" lon="6.70689">
        <ele>1987</ele>
        <time>2021-12-29T02:38:53Z</time>
      </trkpt>
      <trkpt lat="44.53229" lon="6.70559">
        <ele>1998</ele>
        <time>2021-12-29T02:39:09Z</time>
      </trkpt>
      <trkpt lat="44.53225" lon="6.70527">
        <ele>2001</ele>
        <time>2021-12-29T02:39:13Z</time>
      </trkpt>
      <trkpt lat="44.53212" lon="6.70455">
        <ele>2003</ele>
        <time>2021-12-29T02:39:23Z</time>
      </trkpt>
      <trkpt lat="44.53211" lon="6.70433">
        <ele>2004</ele>
        <time>2021-12-29T02:39:26Z</time>
      </trkpt>
      <trkpt lat="44.53216" lon="6.70353">
        <ele>2013</ele>
        <time>2021-12-29T02:39:36Z</time>
      </trkpt>
      <trkpt lat="44.53216" lon="6.70321">
        <ele>2016</ele>
        <time>2021-12-29T02:39:40Z</time>
      </trkpt>
      <trkpt lat="44.53214" lon="6.70292">
        <ele>2019</ele>
        <time>2021-12-29T02:39:43Z</time>
      </trkpt>
      <trkpt lat="44.53207" lon="6.70254">
        <ele>2021</ele>
        <time>2021-12-29T02:39:48Z</time>
      </trkpt>
      <trkpt lat="44.53178" lon="6.70162">
        <ele>2026</ele>
        <time>2021-12-29T02:40:01Z</time>
      </trkpt>
      <trkpt lat="44.53178" lon="6.70148">
        <ele>2029</ele>
        <time>2021-12-29T02:40:03Z</time>
      </trkpt>
      <trkpt lat="44.53181" lon="6.70141">
        <ele>2032</ele>
        <time>2021-12-29T02:40:04Z</time>
      </trkpt>
      <trkpt lat="44.53188" lon="6.70138">
        <ele>2036</ele>
        <time>2021-12-29T02:40:05Z</time>
      </trkpt>
      <trkpt lat="44.53196" lon="6.70143">
        <ele>2038</ele>
        <time>2021-12-29T02:40:07Z</time>
      </trkpt>
      <trkpt lat="44.53203" lon="6.70155">
        <ele>2038</ele>
        <time>2021-12-29T02:40:09Z</time>
      </trkpt>
      <trkpt lat="44.53214" lon="6.70185">
        <ele>2037</ele>
        <time>2021-12-29T02:40:13Z</time>
      </trkpt>
      <trkpt lat="44.53242" lon="6.70277">
        <ele>2033</ele>
        <time>2021-12-29T02:40:26Z</time>
      </trkpt>
      <trkpt lat="44.53278" lon="6.70362">
        <ele>2039</ele>
        <time>2021-12-29T02:40:38Z</time>
      </trkpt>
      <trkpt lat="44.53286" lon="6.70386">
        <ele>2039</ele>
        <time>2021-12-29T02:40:42Z</time>
      </trkpt>
      <trkpt lat="44.53301" lon="6.70441">
        <ele>2038</ele>
        <time>2021-12-29T02:40:49Z</time>
      </trkpt>
      <trkpt lat="44.53307" lon="6.70455">
        <ele>2038</ele>
        <time>2021-12-29T02:40:51Z</time>
      </trkpt>
      <trkpt lat="44.53315" lon="6.70464">
        <ele>2040</ele>
        <time>2021-12-29T02:40:53Z</time>
      </trkpt>
      <trkpt lat="44.53326" lon="6.7047">
        <ele>2043</ele>
        <time>2021-12-29T02:40:55Z</time>
      </trkpt>
      <trkpt lat="44.5334" lon="6.70471">
        <ele>2046</ele>
        <time>2021-12-29T02:40:58Z</time>
      </trkpt>
      <trkpt lat="44.53356" lon="6.70466">
        <ele>2049</ele>
        <time>2021-12-29T02:41:01Z</time>
      </trkpt>
      <trkpt lat="44.53376" lon="6.70457">
        <ele>2053</ele>
        <time>2021-12-29T02:41:04Z</time>
      </trkpt>
      <trkpt lat="44.53406" lon="6.70455">
        <ele>2057</ele>
        <time>2021-12-29T02:41:10Z</time>
      </trkpt>
      <trkpt lat="44.53422" lon="6.70461">
        <ele>2058</ele>
        <time>2021-12-29T02:41:13Z</time>
      </trkpt>
      <trkpt lat="44.53482" lon="6.70487">
        <ele>2065</ele>
        <time>2021-12-29T02:41:24Z</time>
      </trkpt>
      <trkpt lat="44.53495" lon="6.70486">
        <ele>2067</ele>
        <time>2021-12-29T02:41:26Z</time>
      </trkpt>
      <trkpt lat="44.53509" lon="6.70481">
        <ele>2070</ele>
        <time>2021-12-29T02:41:29Z</time>
      </trkpt>
      <trkpt lat="44.53526" lon="6.70468">
        <ele>2075</ele>
        <time>2021-12-29T02:41:32Z</time>
      </trkpt>
      <trkpt lat="44.53543" lon="6.70453">
        <ele>2078</ele>
        <time>2021-12-29T02:41:36Z</time>
      </trkpt>
      <trkpt lat="44.5359" lon="6.70372">
        <ele>2085</ele>
        <time>2021-12-29T02:41:49Z</time>
      </trkpt>
      <trkpt lat="44.53601" lon="6.70356">
        <ele>2087</ele>
        <time>2021-12-29T02:41:52Z</time>
      </trkpt>
      <trkpt lat="44.53617" lon="6.70344">
        <ele>2089</ele>
        <time>2021-12-29T02:41:55Z</time>
      </trkpt>
      <trkpt lat="44.53647" lon="6.70331">
        <ele>2091</ele>
        <time>2021-12-29T02:42:01Z</time>
      </trkpt>
      <trkpt lat="44.53683" lon="6.70326">
        <ele>2094</ele>
        <time>2021-12-29T02:42:07Z</time>
      </trkpt>
      <trkpt lat="44.53708" lon="6.70315">
        <ele>2098</ele>
        <time>2021-12-29T02:42:12Z</time>
      </trkpt>
      <trkpt lat="44.53728" lon="6.70304">
        <ele>2101</ele>
        <time>2021-12-29T02:42:15Z</time>
      </trkpt>
      <trkpt lat="44.53747" lon="6.70299">
        <ele>2103</ele>
        <time>2021-12-29T02:42:19Z</time>
      </trkpt>
      <trkpt lat="44.5383" lon="6.70298">
        <ele>2112</ele>
        <time>2021-12-29T02:42:34Z</time>
      </trkpt>
      <trkpt lat="44.53872" lon="6.70286">
        <ele>2115</ele>
        <time>2021-12-29T02:42:41Z</time>
      </trkpt>
      <trkpt lat="44.53877" lon="6.70284">
        <ele>2115</ele>
        <time>2021-12-29T02:42:42Z</time>
      </trkpt>
      <trkpt lat="44.53898" lon="6.70264">
        <ele>2112</ele>
        <time>2021-12-29T02:42:47Z</time>
      </trkpt>
      <trkpt lat="44.53928" lon="6.70242">
        <ele>2108</ele>
        <time>2021-12-29T02:42:53Z</time>
      </trkpt>
      <trkpt lat="44.53956" lon="6.70232">
        <ele>2107</ele>
        <time>2021-12-29T02:42:58Z</time>
      </trkpt>
      <trkpt lat="44.53977" lon="6.70226">
        <ele>2105</ele>
        <time>2021-12-29T02:43:02Z</time>
      </trkpt>
      <trkpt lat="44.53994" lon="6.70223">
        <ele>2104</ele>
        <time>2021-12-29T02:43:05Z</time>
      </trkpt>
      <trkpt lat="44.54019" lon="6.70227">
        <ele>2102</ele>
        <time>2021-12-29T02:43:09Z</time>
      </trkpt>
      <trkpt lat="44.54051" lon="6.7025">
        <ele>2099</ele>
        <time>2021-12-29T02:43:16Z</time>
      </trkpt>
      <trkpt lat="44.54084" lon="6.70257">
        <ele>2097</ele>
        <time>2021-12-29T02:43:22Z</time>
      </trkpt>
      <trkpt lat="44.54136" lon="6.70255">
        <ele>2094</ele>
        <time>2021-12-29T02:43:31Z</time>
      </trkpt>
      <trkpt lat="44.54166" lon="6.70258">
        <ele>2093</ele>
        <time>2021-12-29T02:43:36Z</time>
      </trkpt>
      <trkpt lat="44.54201" lon="6.70276">
        <ele>2095</ele>
        <time>2021-12-29T02:43:43Z</time>
      </trkpt>
      <trkpt lat="44.54228" lon="6.70293">
        <ele>2096</ele>
        <time>2021-12-29T02:43:48Z</time>
      </trkpt>
      <trkpt lat="44.54239" lon="6.70293">
        <ele>2095</ele>
        <time>2021-12-29T02:43:50Z</time>
      </trkpt>
      <trkpt lat="44.54249" lon="6.70291">
        <ele>2093</ele>
        <time>2021-12-29T02:43:52Z</time>
      </trkpt>
      <trkpt lat="44.54294" lon="6.7027">
        <ele>2090</ele>
        <time>2021-12-29T02:44:00Z</time>
      </trkpt>
      <trkpt lat="44.54309" lon="6.70266">
        <ele>2089</ele>
        <time>2021-12-29T02:44:03Z</time>
      </trkpt>
      <trkpt lat="44.54332" lon="6.70269">
        <ele>2090</ele>
        <time>2021-12-29T02:44:07Z</time>
      </trkpt>
      <trkpt lat="44.54355" lon="6.70266">
        <ele>2089</ele>
        <time>2021-12-29T02:44:11Z</time>
      </trkpt>
      <trkpt lat="44.54381" lon="6.70249">
        <ele>2084</ele>
        <time>2021-12-29T02:44:16Z</time>
      </trkpt>
      <trkpt lat="44.54395" lon="6.70245">
        <ele>2084</ele>
        <time>2021-12-29T02:44:19Z</time>
      </trkpt>
      <trkpt lat="44.54459" lon="6.70245">
        <ele>2081</ele>
        <time>2021-12-29T02:44:30Z</time>
      </trkpt>
      <trkpt lat="44.54526" lon="6.70221">
        <ele>2075</ele>
        <time>2021-12-29T02:44:43Z</time>
      </trkpt>
      <trkpt lat="44.54547" lon="6.70217">
        <ele>2073</ele>
        <time>2021-12-29T02:44:46Z</time>
      </trkpt>
      <trkpt lat="44.54579" lon="6.70225">
        <ele>2072</ele>
        <time>2021-12-29T02:44:52Z</time>
      </trkpt>
      <trkpt lat="44.54619" lon="6.70224">
        <ele>2069</ele>
        <time>2021-12-29T02:44:59Z</time>
      </trkpt>
      <trkpt lat="44.54694" lon="6.70236">
        <ele>2061</ele>
        <time>2021-12-29T02:45:13Z</time>
      </trkpt>
      <trkpt lat="44.5471" lon="6.7024">
        <ele>2059</ele>
        <time>2021-12-29T02:45:16Z</time>
      </trkpt>
      <trkpt lat="44.54729" lon="6.70248">
        <ele>2057</ele>
        <time>2021-12-29T02:45:19Z</time>
      </trkpt>
      <trkpt lat="44.54788" lon="6.70279">
        <ele>2058</ele>
        <time>2021-12-29T02:45:30Z</time>
      </trkpt>
      <trkpt lat="44.54809" lon="6.70277">
        <ele>2059</ele>
        <time>2021-12-29T02:45:34Z</time>
      </trkpt>
      <trkpt lat="44.5482" lon="6.70271">
        <ele>2058</ele>
        <time>2021-12-29T02:45:36Z</time>
      </trkpt>
      <trkpt lat="44.54882" lon="6.70215">
        <ele>2053</ele>
        <time>2021-12-29T02:45:49Z</time>
      </trkpt>
      <trkpt lat="44.54937" lon="6.7018">
        <ele>2049</ele>
        <time>2021-12-29T02:46:00Z</time>
      </trkpt>
      <trkpt lat="44.54984" lon="6.70138">
        <ele>2044</ele>
        <time>2021-12-29T02:46:10Z</time>
      </trkpt>
      <trkpt lat="44.5501" lon="6.70122">
        <ele>2041</ele>
        <time>2021-12-29T02:46:15Z</time>
      </trkpt>
      <trkpt lat="44.55046" lon="6.70104">
        <ele>2036</ele>
        <time>2021-12-29T02:46:22Z</time>
      </trkpt>
      <trkpt lat="44.55079" lon="6.70082">
        <ele>2030</ele>
        <time>2021-12-29T02:46:28Z</time>
      </trkpt>
      <trkpt lat="44.55114" lon="6.70051">
        <ele>2024</ele>
        <time>2021-12-29T02:46:36Z</time>
      </trkpt>
      <trkpt lat="44.55134" lon="6.7004">
        <ele>2020</ele>
        <time>2021-12-29T02:46:39Z</time>
      </trkpt>
      <trkpt lat="44.55151" lon="6.70037">
        <ele>2018</ele>
        <time>2021-12-29T02:46:43Z</time>
      </trkpt>
      <trkpt lat="44.55187" lon="6.70045">
        <ele>2017</ele>
        <time>2021-12-29T02:46:49Z</time>
      </trkpt>
      <trkpt lat="44.55228" lon="6.70049">
        <ele>2017</ele>
        <time>2021-12-29T02:46:56Z</time>
      </trkpt>
      <trkpt lat="44.55237" lon="6.70045">
        <ele>2016</ele>
        <time>2021-12-29T02:46:58Z</time>
      </trkpt>
      <trkpt lat="44.55248" lon="6.70035">
        <ele>2014</ele>
        <time>2021-12-29T02:47:00Z</time>
      </trkpt>
      <trkpt lat="44.55261" lon="6.70009">
        <ele>2010</ele>
        <time>2021-12-29T02:47:04Z</time>
      </trkpt>
      <trkpt lat="44.55282" lon="6.6996">
        <ele>2005</ele>
        <time>2021-12-29T02:47:12Z</time>
      </trkpt>
      <trkpt lat="44.55298" lon="6.69941">
        <ele>2003</ele>
        <time>2021-12-29T02:47:15Z</time>
      </trkpt>
      <trkpt lat="44.55322" lon="6.69925">
        <ele>2001</ele>
        <time>2021-12-29T02:47:20Z</time>
      </trkpt>
      <trkpt lat="44.55355" lon="6.69907">
        <ele>1999</ele>
        <time>2021-12-29T02:47:26Z</time>
      </trkpt>
      <trkpt lat="44.55383" lon="6.69899">
        <ele>1999</ele>
        <time>2021-12-29T02:47:31Z</time>
      </trkpt>
      <trkpt lat="44.55479" lon="6.6988">
        <ele>2000</ele>
        <time>2021-12-29T02:47:49Z</time>
      </trkpt>
      <trkpt lat="44.55502" lon="6.69873">
        <ele>2000</ele>
        <time>2021-12-29T02:47:53Z</time>
      </trkpt>
      <trkpt lat="44.55534" lon="6.69854">
        <ele>1999</ele>
        <time>2021-12-29T02:47:59Z</time>
      </trkpt>
      <trkpt lat="44.55567" lon="6.69827">
        <ele>1997</ele>
        <time>2021-12-29T02:48:06Z</time>
      </trkpt>
      <trkpt lat="44.55622" lon="6.69751">
        <ele>1995</ele>
        <time>2021-12-29T02:48:20Z</time>
      </trkpt>
      <trkpt lat="44.55637" lon="6.69724">
        <ele>1995</ele>
        <time>2021-12-29T02:48:24Z</time>
      </trkpt>
      <trkpt lat="44.55648" lon="6.69696">
        <ele>1993</ele>
        <time>2021-12-29T02:48:28Z</time>
      </trkpt>
      <trkpt lat="44.55675" lon="6.69601">
        <ele>1990</ele>
        <time>2021-12-29T02:48:41Z</time>
      </trkpt>
      <trkpt lat="44.55706" lon="6.69504">
        <ele>1993</ele>
        <time>2021-12-29T02:48:54Z</time>
      </trkpt>
      <trkpt lat="44.55715" lon="6.69485">
        <ele>1993</ele>
        <time>2021-12-29T02:48:57Z</time>
      </trkpt>
      <trkpt lat="44.55731" lon="6.69457">
        <ele>1993</ele>
        <time>2021-12-29T02:49:02Z</time>
      </trkpt>
      <trkpt lat="44.55757" lon="6.69418">
        <ele>1990</ele>
        <time>2021-12-29T02:49:09Z</time>
      </trkpt>
      <trkpt lat="44.55841" lon="6.69344">
        <ele>1991</ele>
        <time>2021-12-29T02:49:26Z</time>
      </trkpt>
      <trkpt lat="44.55913" lon="6.69286">
        <ele>1990</ele>
        <time>2021-12-29T02:49:41Z</time>
      </trkpt>
      <trkpt lat="44.55941" lon="6.69259">
        <ele>1988</ele>
        <time>2021-12-29T02:49:47Z</time>
      </trkpt>
      <trkpt lat="44.56007" lon="6.69186">
        <ele>1971</ele>
        <time>2021-12-29T02:50:02Z</time>
      </trkpt>
      <trkpt lat="44.56021" lon="6.69162">
        <ele>1965</ele>
        <time>2021-12-29T02:50:06Z</time>
      </trkpt>
      <trkpt lat="44.56037" lon="6.69105">
        <ele>1962</ele>
        <time>2021-12-29T02:50:14Z</time>
      </trkpt>
      <trkpt lat="44.56064" lon="6.69064">
        <ele>1960</ele>
        <time>2021-12-29T02:50:21Z</time>
      </trkpt>
      <trkpt lat="44.56162" lon="6.68983">
        <ele>1954</ele>
        <time>2021-12-29T02:50:41Z</time>
      </trkpt>
      <trkpt lat="44.56192" lon="6.68963">
        <ele>1954</ele>
        <time>2021-12-29T02:50:47Z</time>
      </trkpt>
      <trkpt lat="44.56216" lon="6.68955">
        <ele>1952</ele>
        <time>2021-12-29T02:50:51Z</time>
      </trkpt>
      <trkpt lat="44.56227" lon="6.68952">
        <ele>1950</ele>
        <time>2021-12-29T02:50:53Z</time>
      </trkpt>
      <trkpt lat="44.56273" lon="6.68938">
        <ele>1948</ele>
        <time>2021-12-29T02:51:02Z</time>
      </trkpt>
      <trkpt lat="44.56295" lon="6.68925">
        <ele>1950</ele>
        <time>2021-12-29T02:51:06Z</time>
      </trkpt>
      <trkpt lat="44.5633" lon="6.68889">
        <ele>1952</ele>
        <time>2021-12-29T02:51:14Z</time>
      </trkpt>
      <trkpt lat="44.56391" lon="6.68797">
        <ele>1951</ele>
        <time>2021-12-29T02:51:30Z</time>
      </trkpt>
      <trkpt lat="44.56406" lon="6.68779">
        <ele>1948</ele>
        <time>2021-12-29T02:51:33Z</time>
      </trkpt>
      <trkpt lat="44.56425" lon="6.68766">
        <ele>1945</ele>
        <time>2021-12-29T02:51:37Z</time>
      </trkpt>
      <trkpt lat="44.565" lon="6.68746">
        <ele>1938</ele>
        <time>2021-12-29T02:51:51Z</time>
      </trkpt>
      <trkpt lat="44.56516" lon="6.68733">
        <ele>1937</ele>
        <time>2021-12-29T02:51:54Z</time>
      </trkpt>
      <trkpt lat="44.5655" lon="6.68688">
        <ele>1933</ele>
        <time>2021-12-29T02:52:02Z</time>
      </trkpt>
      <trkpt lat="44.56577" lon="6.68657">
        <ele>1931</ele>
        <time>2021-12-29T02:52:08Z</time>
      </trkpt>
      <trkpt lat="44.56622" lon="6.68615">
        <ele>1931</ele>
        <time>2021-12-29T02:52:18Z</time>
      </trkpt>
      <trkpt lat="44.56647" lon="6.68587">
        <ele>1931</ele>
        <time>2021-12-29T02:52:24Z</time>
      </trkpt>
      <trkpt lat="44.5667" lon="6.68552">
        <ele>1933</ele>
        <time>2021-12-29T02:52:30Z</time>
      </trkpt>
      <trkpt lat="44.56693" lon="6.68515">
        <ele>1932</ele>
        <time>2021-12-29T02:52:36Z</time>
      </trkpt>
      <trkpt lat="44.56703" lon="6.68505">
        <ele>1931</ele>
        <time>2021-12-29T02:52:38Z</time>
      </trkpt>
      <trkpt lat="44.56714" lon="6.68498">
        <ele>1930</ele>
        <time>2021-12-29T02:52:40Z</time>
      </trkpt>
      <trkpt lat="44.56736" lon="6.68496">
        <ele>1928</ele>
        <time>2021-12-29T02:52:44Z</time>
      </trkpt>
      <trkpt lat="44.56791" lon="6.68505">
        <ele>1924</ele>
        <time>2021-12-29T02:52:54Z</time>
      </trkpt>
      <trkpt lat="44.56826" lon="6.68498">
        <ele>1922</ele>
        <time>2021-12-29T02:53:00Z</time>
      </trkpt>
      <trkpt lat="44.5686" lon="6.68485">
        <ele>1917</ele>
        <time>2021-12-29T02:53:07Z</time>
      </trkpt>
      <trkpt lat="44.56901" lon="6.68465">
        <ele>1910</ele>
        <time>2021-12-29T02:53:14Z</time>
      </trkpt>
      <trkpt lat="44.5693" lon="6.68445">
        <ele>1906</ele>
        <time>2021-12-29T02:53:20Z</time>
      </trkpt>
      <trkpt lat="44.56942" lon="6.68429">
        <ele>1905</ele>
        <time>2021-12-29T02:53:23Z</time>
      </trkpt>
      <trkpt lat="44.56945" lon="6.68416">
        <ele>1905</ele>
        <time>2021-12-29T02:53:25Z</time>
      </trkpt>
      <trkpt lat="44.56944" lon="6.68402">
        <ele>1904</ele>
        <time>2021-12-29T02:53:26Z</time>
      </trkpt>
      <trkpt lat="44.56939" lon="6.68389">
        <ele>1903</ele>
        <time>2021-12-29T02:53:28Z</time>
      </trkpt>
      <trkpt lat="44.56923" lon="6.68362">
        <ele>1903</ele>
        <time>2021-12-29T02:53:33Z</time>
      </trkpt>
      <trkpt lat="44.56916" lon="6.68339">
        <ele>1902</ele>
        <time>2021-12-29T02:53:36Z</time>
      </trkpt>
      <trkpt lat="44.56917" lon="6.68324">
        <ele>1900</ele>
        <time>2021-12-29T02:53:38Z</time>
      </trkpt>
      <trkpt lat="44.56922" lon="6.68309">
        <ele>1899</ele>
        <time>2021-12-29T02:53:40Z</time>
      </trkpt>
      <trkpt lat="44.56927" lon="6.68301">
        <ele>1898</ele>
        <time>2021-12-29T02:53:41Z</time>
      </trkpt>
      <trkpt lat="44.5696" lon="6.68268">
        <ele>1894</ele>
        <time>2021-12-29T02:53:49Z</time>
      </trkpt>
      <trkpt lat="44.56973" lon="6.68259">
        <ele>1893</ele>
        <time>2021-12-29T02:53:51Z</time>
      </trkpt>
      <trkpt lat="44.56986" lon="6.68257">
        <ele>1892</ele>
        <time>2021-12-29T02:53:53Z</time>
      </trkpt>
      <trkpt lat="44.56997" lon="6.68258">
        <ele>1891</ele>
        <time>2021-12-29T02:53:55Z</time>
      </trkpt>
      <trkpt lat="44.57053" lon="6.68275">
        <ele>1887</ele>
        <time>2021-12-29T02:54:06Z</time>
      </trkpt>
      <trkpt lat="44.57071" lon="6.68277">
        <ele>1885</ele>
        <time>2021-12-29T02:54:09Z</time>
      </trkpt>
      <trkpt lat="44.57079" lon="6.68276">
        <ele>1884</ele>
        <time>2021-12-29T02:54:10Z</time>
      </trkpt>
      <trkpt lat="44.57092" lon="6.68272">
        <ele>1883</ele>
        <time>2021-12-29T02:54:13Z</time>
      </trkpt>
      <trkpt lat="44.5711" lon="6.68262">
        <ele>1880</ele>
        <time>2021-12-29T02:54:16Z</time>
      </trkpt>
      <trkpt lat="44.57138" lon="6.68225">
        <ele>1876</ele>
        <time>2021-12-29T02:54:23Z</time>
      </trkpt>
      <trkpt lat="44.57146" lon="6.68214">
        <ele>1875</ele>
        <time>2021-12-29T02:54:25Z</time>
      </trkpt>
      <trkpt lat="44.57166" lon="6.6818">
        <ele>1872</ele>
        <time>2021-12-29T02:54:30Z</time>
      </trkpt>
      <trkpt lat="44.57171" lon="6.68159">
        <ele>1871</ele>
        <time>2021-12-29T02:54:33Z</time>
      </trkpt>
      <trkpt lat="44.57172" lon="6.68136">
        <ele>1870</ele>
        <time>2021-12-29T02:54:36Z</time>
      </trkpt>
      <trkpt lat="44.57168" lon="6.68068">
        <ele>1868</ele>
        <time>2021-12-29T02:54:45Z</time>
      </trkpt>
      <trkpt lat="44.5717" lon="6.68051">
        <ele>1867</ele>
        <time>2021-12-29T02:54:47Z</time>
      </trkpt>
      <trkpt lat="44.57173" lon="6.68037">
        <ele>1866</ele>
        <time>2021-12-29T02:54:49Z</time>
      </trkpt>
      <trkpt lat="44.57182" lon="6.68021">
        <ele>1864</ele>
        <time>2021-12-29T02:54:51Z</time>
      </trkpt>
      <trkpt lat="44.57194" lon="6.68007">
        <ele>1862</ele>
        <time>2021-12-29T02:54:54Z</time>
      </trkpt>
      <trkpt lat="44.57216" lon="6.68001">
        <ele>1860</ele>
        <time>2021-12-29T02:54:58Z</time>
      </trkpt>
      <trkpt lat="44.57256" lon="6.68001">
        <ele>1857</ele>
        <time>2021-12-29T02:55:05Z</time>
      </trkpt>
      <trkpt lat="44.57273" lon="6.68005">
        <ele>1855</ele>
        <time>2021-12-29T02:55:08Z</time>
      </trkpt>
      <trkpt lat="44.57284" lon="6.68013">
        <ele>1854</ele>
        <time>2021-12-29T02:55:11Z</time>
      </trkpt>
      <trkpt lat="44.57291" lon="6.68025">
        <ele>1854</ele>
        <time>2021-12-29T02:55:13Z</time>
      </trkpt>
      <trkpt lat="44.57299" lon="6.68046">
        <ele>1853</ele>
        <time>2021-12-29T02:55:16Z</time>
      </trkpt>
      <trkpt lat="44.57338" lon="6.68175">
        <ele>1844</ele>
        <time>2021-12-29T02:55:33Z</time>
      </trkpt>
      <trkpt lat="44.57353" lon="6.68191">
        <ele>1842</ele>
        <time>2021-12-29T02:55:37Z</time>
      </trkpt>
      <trkpt lat="44.57368" lon="6.68198">
        <ele>1840</ele>
        <time>2021-12-29T02:55:40Z</time>
      </trkpt>
      <trkpt lat="44.57387" lon="6.68198">
        <ele>1838</ele>
        <time>2021-12-29T02:55:43Z</time>
      </trkpt>
      <trkpt lat="44.57438" lon="6.68186">
        <ele>1835</ele>
        <time>2021-12-29T02:55:52Z</time>
      </trkpt>
      <trkpt lat="44.57452" lon="6.68184">
        <ele>1834</ele>
        <time>2021-12-29T02:55:55Z</time>
      </trkpt>
      <trkpt lat="44.57466" lon="6.68181">
        <ele>1833</ele>
        <time>2021-12-29T02:55:57Z</time>
      </trkpt>
      <trkpt lat="44.57489" lon="6.6818">
        <ele>1832</ele>
        <time>2021-12-29T02:56:01Z</time>
      </trkpt>
      <trkpt lat="44.57505" lon="6.68185">
        <ele>1830</ele>
        <time>2021-12-29T02:56:04Z</time>
      </trkpt>
      <trkpt lat="44.57532" lon="6.68199">
        <ele>1827</ele>
        <time>2021-12-29T02:56:09Z</time>
      </trkpt>
      <trkpt lat="44.57559" lon="6.68209">
        <ele>1824</ele>
        <time>2021-12-29T02:56:14Z</time>
      </trkpt>
      <trkpt lat="44.57577" lon="6.68211">
        <ele>1823</ele>
        <time>2021-12-29T02:56:17Z</time>
      </trkpt>
      <trkpt lat="44.57627" lon="6.68204">
        <ele>1823</ele>
        <time>2021-12-29T02:56:26Z</time>
      </trkpt>
      <trkpt lat="44.5764" lon="6.68205">
        <ele>1822</ele>
        <time>2021-12-29T02:56:29Z</time>
      </trkpt>
      <trkpt lat="44.5765" lon="6.68208">
        <ele>1822</ele>
        <time>2021-12-29T02:56:31Z</time>
      </trkpt>
      <trkpt lat="44.57751" lon="6.68286">
        <ele>1806</ele>
        <time>2021-12-29T02:56:51Z</time>
      </trkpt>
      <trkpt lat="44.57766" lon="6.68294">
        <ele>1804</ele>
        <time>2021-12-29T02:56:54Z</time>
      </trkpt>
      <trkpt lat="44.57781" lon="6.68294">
        <ele>1804</ele>
        <time>2021-12-29T02:56:57Z</time>
      </trkpt>
      <trkpt lat="44.57821" lon="6.68285">
        <ele>1804</ele>
        <time>2021-12-29T02:57:04Z</time>
      </trkpt>
      <trkpt lat="44.57834" lon="6.68289">
        <ele>1803</ele>
        <time>2021-12-29T02:57:06Z</time>
      </trkpt>
      <trkpt lat="44.57847" lon="6.68303">
        <ele>1801</ele>
        <time>2021-12-29T02:57:09Z</time>
      </trkpt>
      <trkpt lat="44.57852" lon="6.68311">
        <ele>1800</ele>
        <time>2021-12-29T02:57:10Z</time>
      </trkpt>
      <trkpt lat="44.57862" lon="6.68327">
        <ele>1798</ele>
        <time>2021-12-29T02:57:13Z</time>
      </trkpt>
      <trkpt lat="44.57872" lon="6.68349">
        <ele>1796</ele>
        <time>2021-12-29T02:57:16Z</time>
      </trkpt>
      <trkpt lat="44.57902" lon="6.68402">
        <ele>1789</ele>
        <time>2021-12-29T02:57:25Z</time>
      </trkpt>
      <trkpt lat="44.57925" lon="6.68421">
        <ele>1786</ele>
        <time>2021-12-29T02:57:30Z</time>
      </trkpt>
      <trkpt lat="44.57995" lon="6.68442">
        <ele>1785</ele>
        <time>2021-12-29T02:57:42Z</time>
      </trkpt>
      <trkpt lat="44.58037" lon="6.68448">
        <ele>1781</ele>
        <time>2021-12-29T02:57:50Z</time>
      </trkpt>
      <trkpt lat="44.58057" lon="6.68444">
        <ele>1780</ele>
        <time>2021-12-29T02:57:54Z</time>
      </trkpt>
      <trkpt lat="44.58129" lon="6.68387">
        <ele>1775</ele>
        <time>2021-12-29T02:58:08Z</time>
      </trkpt>
      <trkpt lat="44.58139" lon="6.6838">
        <ele>1774</ele>
        <time>2021-12-29T02:58:10Z</time>
      </trkpt>
      <trkpt lat="44.58197" lon="6.68354">
        <ele>1770</ele>
        <time>2021-12-29T02:58:21Z</time>
      </trkpt>
      <trkpt lat="44.58208" lon="6.6835">
        <ele>1769</ele>
        <time>2021-12-29T02:58:23Z</time>
      </trkpt>
      <trkpt lat="44.58239" lon="6.68333">
        <ele>1767</ele>
        <time>2021-12-29T02:58:29Z</time>
      </trkpt>
      <trkpt lat="44.58278" lon="6.68299">
        <ele>1771</ele>
        <time>2021-12-29T02:58:37Z</time>
      </trkpt>
      <trkpt lat="44.583" lon="6.68285">
        <ele>1771</ele>
        <time>2021-12-29T02:58:42Z</time>
      </trkpt>
      <trkpt lat="44.58326" lon="6.68277">
        <ele>1769</ele>
        <time>2021-12-29T02:58:46Z</time>
      </trkpt>
      <trkpt lat="44.58351" lon="6.68284">
        <ele>1767</ele>
        <time>2021-12-29T02:58:51Z</time>
      </trkpt>
      <trkpt lat="44.58365" lon="6.68294">
        <ele>1765</ele>
        <time>2021-12-29T02:58:54Z</time>
      </trkpt>
      <trkpt lat="44.58453" lon="6.68359">
        <ele>1755</ele>
        <time>2021-12-29T02:59:11Z</time>
      </trkpt>
      <trkpt lat="44.58469" lon="6.68379">
        <ele>1754</ele>
        <time>2021-12-29T02:59:15Z</time>
      </trkpt>
      <trkpt lat="44.58496" lon="6.68426">
        <ele>1749</ele>
        <time>2021-12-29T02:59:23Z</time>
      </trkpt>
      <trkpt lat="44.58527" lon="6.68459">
        <ele>1746</ele>
        <time>2021-12-29T02:59:30Z</time>
      </trkpt>
      <trkpt lat="44.58557" lon="6.68495">
        <ele>1741</ele>
        <time>2021-12-29T02:59:37Z</time>
      </trkpt>
      <trkpt lat="44.58607" lon="6.68568">
        <ele>1732</ele>
        <time>2021-12-29T02:59:50Z</time>
      </trkpt>
      <trkpt lat="44.58644" lon="6.6864">
        <ele>1723</ele>
        <time>2021-12-29T03:00:01Z</time>
      </trkpt>
      <trkpt lat="44.58658" lon="6.6866">
        <ele>1720</ele>
        <time>2021-12-29T03:00:04Z</time>
      </trkpt>
      <trkpt lat="44.58674" lon="6.6867">
        <ele>1719</ele>
        <time>2021-12-29T03:00:07Z</time>
      </trkpt>
      <trkpt lat="44.58761" lon="6.68717">
        <ele>1711</ele>
        <time>2021-12-29T03:00:24Z</time>
      </trkpt>
      <trkpt lat="44.58859" lon="6.68767">
        <ele>1703</ele>
        <time>2021-12-29T03:00:43Z</time>
      </trkpt>
      <trkpt lat="44.58869" lon="6.68771">
        <ele>1701</ele>
        <time>2021-12-29T03:00:44Z</time>
      </trkpt>
      <trkpt lat="44.58968" lon="6.68782">
        <ele>1692</ele>
        <time>2021-12-29T03:01:02Z</time>
      </trkpt>
      <trkpt lat="44.59031" lon="6.68769">
        <ele>1690</ele>
        <time>2021-12-29T03:01:13Z</time>
      </trkpt>
      <trkpt lat="44.59059" lon="6.68772">
        <ele>1688</ele>
        <time>2021-12-29T03:01:18Z</time>
      </trkpt>
      <trkpt lat="44.59081" lon="6.68779">
        <ele>1686</ele>
        <time>2021-12-29T03:01:22Z</time>
      </trkpt>
      <trkpt lat="44.59096" lon="6.68791">
        <ele>1684</ele>
        <time>2021-12-29T03:01:26Z</time>
      </trkpt>
      <trkpt lat="44.59104" lon="6.68803">
        <ele>1683</ele>
        <time>2021-12-29T03:01:28Z</time>
      </trkpt>
      <trkpt lat="44.5911" lon="6.68822">
        <ele>1679</ele>
        <time>2021-12-29T03:01:30Z</time>
      </trkpt>
      <trkpt lat="44.59114" lon="6.68846">
        <ele>1677</ele>
        <time>2021-12-29T03:01:33Z</time>
      </trkpt>
      <trkpt lat="44.59119" lon="6.68861">
        <ele>1676</ele>
        <time>2021-12-29T03:01:35Z</time>
      </trkpt>
      <trkpt lat="44.59127" lon="6.68873">
        <ele>1676</ele>
        <time>2021-12-29T03:01:38Z</time>
      </trkpt>
      <trkpt lat="44.59137" lon="6.68881">
        <ele>1675</ele>
        <time>2021-12-29T03:01:40Z</time>
      </trkpt>
      <trkpt lat="44.59156" lon="6.6888">
        <ele>1674</ele>
        <time>2021-12-29T03:01:43Z</time>
      </trkpt>
      <trkpt lat="44.5918" lon="6.68882">
        <ele>1674</ele>
        <time>2021-12-29T03:01:47Z</time>
      </trkpt>
      <trkpt lat="44.59208" lon="6.6889">
        <ele>1672</ele>
        <time>2021-12-29T03:01:52Z</time>
      </trkpt>
      <trkpt lat="44.5923" lon="6.68901">
        <ele>1670</ele>
        <time>2021-12-29T03:01:56Z</time>
      </trkpt>
      <trkpt lat="44.59273" lon="6.68936">
        <ele>1666</ele>
        <time>2021-12-29T03:02:05Z</time>
      </trkpt>
      <trkpt lat="44.59278" lon="6.68938">
        <ele>1666</ele>
        <time>2021-12-29T03:02:06Z</time>
      </trkpt>
      <trkpt lat="44.59288" lon="6.6894">
        <ele>1665</ele>
        <time>2021-12-29T03:02:08Z</time>
      </trkpt>
      <trkpt lat="44.59318" lon="6.6894">
        <ele>1664</ele>
        <time>2021-12-29T03:02:13Z</time>
      </trkpt>
      <trkpt lat="44.5933" lon="6.68938">
        <ele>1663</ele>
        <time>2021-12-29T03:02:16Z</time>
      </trkpt>
      <trkpt lat="44.5939" lon="6.68946">
        <ele>1659</ele>
        <time>2021-12-29T03:02:26Z</time>
      </trkpt>
      <trkpt lat="44.59405" lon="6.6895">
        <ele>1658</ele>
        <time>2021-12-29T03:02:29Z</time>
      </trkpt>
      <trkpt lat="44.59422" lon="6.6896">
        <ele>1657</ele>
        <time>2021-12-29T03:02:32Z</time>
      </trkpt>
      <trkpt lat="44.59459" lon="6.68989">
        <ele>1658</ele>
        <time>2021-12-29T03:02:40Z</time>
      </trkpt>
      <trkpt lat="44.59531" lon="6.6899">
        <ele>1659</ele>
        <time>2021-12-29T03:02:53Z</time>
      </trkpt>
      <trkpt lat="44.59597" lon="6.68989">
        <ele>1661</ele>
        <time>2021-12-29T03:03:04Z</time>
      </trkpt>
      <trkpt lat="44.5964" lon="6.68998">
        <ele>1662</ele>
        <time>2021-12-29T03:03:12Z</time>
      </trkpt>
      <trkpt lat="44.59666" lon="6.68999">
        <ele>1662</ele>
        <time>2021-12-29T03:03:17Z</time>
      </trkpt>
      <trkpt lat="44.59753" lon="6.6898">
        <ele>1660</ele>
        <time>2021-12-29T03:03:32Z</time>
      </trkpt>
      <trkpt lat="44.59857" lon="6.68973">
        <ele>1657</ele>
        <time>2021-12-29T03:03:51Z</time>
      </trkpt>
      <trkpt lat="44.59954" lon="6.68987">
        <ele>1659</ele>
        <time>2021-12-29T03:04:08Z</time>
      </trkpt>
      <trkpt lat="44.59975" lon="6.68987">
        <ele>1659</ele>
        <time>2021-12-29T03:04:12Z</time>
      </trkpt>
      <trkpt lat="44.60003" lon="6.68979">
        <ele>1656</ele>
        <time>2021-12-29T03:04:17Z</time>
      </trkpt>
      <trkpt lat="44.6018" lon="6.68902">
        <ele>1647</ele>
        <time>2021-12-29T03:04:50Z</time>
      </trkpt>
      <trkpt lat="44.60204" lon="6.68897">
        <ele>1645</ele>
        <time>2021-12-29T03:04:54Z</time>
      </trkpt>
      <trkpt lat="44.60223" lon="6.68898">
        <ele>1645</ele>
        <time>2021-12-29T03:04:58Z</time>
      </trkpt>
      <trkpt lat="44.6025" lon="6.68904">
        <ele>1647</ele>
        <time>2021-12-29T03:05:03Z</time>
      </trkpt>
      <trkpt lat="44.6027" lon="6.68903">
        <ele>1646</ele>
        <time>2021-12-29T03:05:06Z</time>
      </trkpt>
      <trkpt lat="44.60285" lon="6.68897">
        <ele>1645</ele>
        <time>2021-12-29T03:05:09Z</time>
      </trkpt>
      <trkpt lat="44.60317" lon="6.68869">
        <ele>1637</ele>
        <time>2021-12-29T03:05:16Z</time>
      </trkpt>
      <trkpt lat="44.60345" lon="6.68858">
        <ele>1633</ele>
        <time>2021-12-29T03:05:21Z</time>
      </trkpt>
      <trkpt lat="44.60373" lon="6.68859">
        <ele>1632</ele>
        <time>2021-12-29T03:05:26Z</time>
      </trkpt>
      <trkpt lat="44.60406" lon="6.68864">
        <ele>1631</ele>
        <time>2021-12-29T03:05:32Z</time>
      </trkpt>
      <trkpt lat="44.60432" lon="6.68872">
        <ele>1630</ele>
        <time>2021-12-29T03:05:36Z</time>
      </trkpt>
      <trkpt lat="44.60454" lon="6.68888">
        <ele>1631</ele>
        <time>2021-12-29T03:05:41Z</time>
      </trkpt>
      <trkpt lat="44.60486" lon="6.68927">
        <ele>1635</ele>
        <time>2021-12-29T03:05:48Z</time>
      </trkpt>
      <trkpt lat="44.60507" lon="6.68938">
        <ele>1637</ele>
        <time>2021-12-29T03:05:52Z</time>
      </trkpt>
      <trkpt lat="44.6053" lon="6.68933">
        <ele>1635</ele>
        <time>2021-12-29T03:05:57Z</time>
      </trkpt>
      <trkpt lat="44.60639" lon="6.6888">
        <ele>1631</ele>
        <time>2021-12-29T03:06:17Z</time>
      </trkpt>
      <trkpt lat="44.60731" lon="6.68843">
        <ele>1632</ele>
        <time>2021-12-29T03:06:34Z</time>
      </trkpt>
      <trkpt lat="44.60761" lon="6.68835">
        <ele>1632</ele>
        <time>2021-12-29T03:06:40Z</time>
      </trkpt>
      <trkpt lat="44.60779" lon="6.68838">
        <ele>1634</ele>
        <time>2021-12-29T03:06:43Z</time>
      </trkpt>
      <trkpt lat="44.60793" lon="6.68842">
        <ele>1635</ele>
        <time>2021-12-29T03:06:45Z</time>
      </trkpt>
      <trkpt lat="44.60819" lon="6.68844">
        <ele>1637</ele>
        <time>2021-12-29T03:06:50Z</time>
      </trkpt>
      <trkpt lat="44.60829" lon="6.68841">
        <ele>1637</ele>
        <time>2021-12-29T03:06:52Z</time>
      </trkpt>
      <trkpt lat="44.60846" lon="6.68835">
        <ele>1637</ele>
        <time>2021-12-29T03:06:55Z</time>
      </trkpt>
      <trkpt lat="44.60851" lon="6.68835">
        <ele>1637</ele>
        <time>2021-12-29T03:06:56Z</time>
      </trkpt>
      <trkpt lat="44.60898" lon="6.68848">
        <ele>1640</ele>
        <time>2021-12-29T03:07:04Z</time>
      </trkpt>
      <trkpt lat="44.60926" lon="6.68847">
        <ele>1641</ele>
        <time>2021-12-29T03:07:09Z</time>
      </trkpt>
      <trkpt lat="44.6095" lon="6.68843">
        <ele>1642</ele>
        <time>2021-12-29T03:07:14Z</time>
      </trkpt>
      <trkpt lat="44.6098" lon="6.68847">
        <ele>1644</ele>
        <time>2021-12-29T03:07:19Z</time>
      </trkpt>
      <trkpt lat="44.60989" lon="6.68844">
        <ele>1644</ele>
        <time>2021-12-29T03:07:21Z</time>
      </trkpt>
      <trkpt lat="44.60996" lon="6.68825">
        <ele>1641</ele>
        <time>2021-12-29T03:07:23Z</time>
      </trkpt>
      <trkpt lat="44.61007" lon="6.68806">
        <ele>1638</ele>
        <time>2021-12-29T03:07:26Z</time>
      </trkpt>
      <trkpt lat="44.61015" lon="6.68799">
        <ele>1638</ele>
        <time>2021-12-29T03:07:28Z</time>
      </trkpt>
      <trkpt lat="44.61029" lon="6.68799">
        <ele>1638</ele>
        <time>2021-12-29T03:07:31Z</time>
      </trkpt>
      <trkpt lat="44.61049" lon="6.68795">
        <ele>1639</ele>
        <time>2021-12-29T03:07:34Z</time>
      </trkpt>
      <trkpt lat="44.61103" lon="6.68766">
        <ele>1638</ele>
        <time>2021-12-29T03:07:44Z</time>
      </trkpt>
      <trkpt lat="44.612" lon="6.68722">
        <ele>1640</ele>
        <time>2021-12-29T03:08:03Z</time>
      </trkpt>
      <trkpt lat="44.61231" lon="6.6871">
        <ele>1639</ele>
        <time>2021-12-29T03:08:08Z</time>
      </trkpt>
      <trkpt lat="44.6126" lon="6.68704">
        <ele>1639</ele>
        <time>2021-12-29T03:08:13Z</time>
      </trkpt>
      <trkpt lat="44.61306" lon="6.68697">
        <ele>1640</ele>
        <time>2021-12-29T03:08:22Z</time>
      </trkpt>
      <trkpt lat="44.61327" lon="6.68685">
        <ele>1638</ele>
        <time>2021-12-29T03:08:26Z</time>
      </trkpt>
      <trkpt lat="44.61345" lon="6.68667">
        <ele>1636</ele>
        <time>2021-12-29T03:08:30Z</time>
      </trkpt>
      <trkpt lat="44.61372" lon="6.68622">
        <ele>1636</ele>
        <time>2021-12-29T03:08:37Z</time>
      </trkpt>
      <trkpt lat="44.61386" lon="6.68606">
        <ele>1637</ele>
        <time>2021-12-29T03:08:40Z</time>
      </trkpt>
      <trkpt lat="44.61409" lon="6.6859">
        <ele>1640</ele>
        <time>2021-12-29T03:08:45Z</time>
      </trkpt>
      <trkpt lat="44.61467" lon="6.6857">
        <ele>1644</ele>
        <time>2021-12-29T03:08:56Z</time>
      </trkpt>
      <trkpt lat="44.61498" lon="6.68568">
        <ele>1648</ele>
        <time>2021-12-29T03:09:01Z</time>
      </trkpt>
      <trkpt lat="44.61549" lon="6.68579">
        <ele>1653</ele>
        <time>2021-12-29T03:09:10Z</time>
      </trkpt>
      <trkpt lat="44.61596" lon="6.68565">
        <ele>1651</ele>
        <time>2021-12-29T03:09:19Z</time>
      </trkpt>
      <trkpt lat="44.6163" lon="6.68541">
        <ele>1650</ele>
        <time>2021-12-29T03:09:26Z</time>
      </trkpt>
      <trkpt lat="44.61689" lon="6.68519">
        <ele>1656</ele>
        <time>2021-12-29T03:09:36Z</time>
      </trkpt>
      <trkpt lat="44.61714" lon="6.68503">
        <ele>1655</ele>
        <time>2021-12-29T03:09:41Z</time>
      </trkpt>
      <trkpt lat="44.61807" lon="6.68414">
        <ele>1650</ele>
        <time>2021-12-29T03:10:01Z</time>
      </trkpt>
      <trkpt lat="44.61833" lon="6.684">
        <ele>1652</ele>
        <time>2021-12-29T03:10:06Z</time>
      </trkpt>
      <trkpt lat="44.61855" lon="6.68392">
        <ele>1651</ele>
        <time>2021-12-29T03:10:10Z</time>
      </trkpt>
      <trkpt lat="44.61901" lon="6.6839">
        <ele>1655</ele>
        <time>2021-12-29T03:10:19Z</time>
      </trkpt>
      <trkpt lat="44.61918" lon="6.68385">
        <ele>1655</ele>
        <time>2021-12-29T03:10:22Z</time>
      </trkpt>
      <trkpt lat="44.61946" lon="6.68365">
        <ele>1647</ele>
        <time>2021-12-29T03:10:27Z</time>
      </trkpt>
      <trkpt lat="44.61962" lon="6.6836">
        <ele>1645</ele>
        <time>2021-12-29T03:10:30Z</time>
      </trkpt>
      <trkpt lat="44.61979" lon="6.68362">
        <ele>1645</ele>
        <time>2021-12-29T03:10:33Z</time>
      </trkpt>
      <trkpt lat="44.62001" lon="6.68373">
        <ele>1648</ele>
        <time>2021-12-29T03:10:37Z</time>
      </trkpt>
      <trkpt lat="44.6204" lon="6.68401">
        <ele>1651</ele>
        <time>2021-12-29T03:10:45Z</time>
      </trkpt>
      <trkpt lat="44.62059" lon="6.68412">
        <ele>1651</ele>
        <time>2021-12-29T03:10:49Z</time>
      </trkpt>
      <trkpt lat="44.62082" lon="6.68417">
        <ele>1648</ele>
        <time>2021-12-29T03:10:53Z</time>
      </trkpt>
      <trkpt lat="44.62107" lon="6.68408">
        <ele>1650</ele>
        <time>2021-12-29T03:10:57Z</time>
      </trkpt>
      <trkpt lat="44.62122" lon="6.68393">
        <ele>1648</ele>
        <time>2021-12-29T03:11:01Z</time>
      </trkpt>
      <trkpt lat="44.62145" lon="6.68342">
        <ele>1636</ele>
        <time>2021-12-29T03:11:08Z</time>
      </trkpt>
      <trkpt lat="44.6216" lon="6.68323">
        <ele>1631</ele>
        <time>2021-12-29T03:11:12Z</time>
      </trkpt>
      <trkpt lat="44.62174" lon="6.68311">
        <ele>1627</ele>
        <time>2021-12-29T03:11:15Z</time>
      </trkpt>
      <trkpt lat="44.6219" lon="6.68304">
        <ele>1625</ele>
        <time>2021-12-29T03:11:18Z</time>
      </trkpt>
      <trkpt lat="44.62233" lon="6.68313">
        <ele>1627</ele>
        <time>2021-12-29T03:11:26Z</time>
      </trkpt>
      <trkpt lat="44.62379" lon="6.68327">
        <ele>1627</ele>
        <time>2021-12-29T03:11:52Z</time>
      </trkpt>
      <trkpt lat="44.62404" lon="6.68336">
        <ele>1628</ele>
        <time>2021-12-29T03:11:56Z</time>
      </trkpt>
      <trkpt lat="44.62426" lon="6.68348">
        <ele>1632</ele>
        <time>2021-12-29T03:12:00Z</time>
      </trkpt>
      <trkpt lat="44.62447" lon="6.68347">
        <ele>1634</ele>
        <time>2021-12-29T03:12:04Z</time>
      </trkpt>
      <trkpt lat="44.62474" lon="6.6833">
        <ele>1631</ele>
        <time>2021-12-29T03:12:09Z</time>
      </trkpt>
      <trkpt lat="44.62493" lon="6.68303">
        <ele>1626</ele>
        <time>2021-12-29T03:12:14Z</time>
      </trkpt>
      <trkpt lat="44.62524" lon="6.68248">
        <ele>1623</ele>
        <time>2021-12-29T03:12:23Z</time>
      </trkpt>
      <trkpt lat="44.62564" lon="6.68173">
        <ele>1628</ele>
        <time>2021-12-29T03:12:35Z</time>
      </trkpt>
      <trkpt lat="44.62568" lon="6.68152">
        <ele>1625</ele>
        <time>2021-12-29T03:12:38Z</time>
      </trkpt>
      <trkpt lat="44.62566" lon="6.68127">
        <ele>1619</ele>
        <time>2021-12-29T03:12:41Z</time>
      </trkpt>
      <trkpt lat="44.62558" lon="6.68098">
        <ele>1609</ele>
        <time>2021-12-29T03:12:45Z</time>
      </trkpt>
      <trkpt lat="44.62561" lon="6.68076">
        <ele>1605</ele>
        <time>2021-12-29T03:12:48Z</time>
      </trkpt>
      <trkpt lat="44.62569" lon="6.68063">
        <ele>1606</ele>
        <time>2021-12-29T03:12:50Z</time>
      </trkpt>
      <trkpt lat="44.62579" lon="6.6805">
        <ele>1608</ele>
        <time>2021-12-29T03:12:52Z</time>
      </trkpt>
      <trkpt lat="44.62631" lon="6.68017">
        <ele>1613</ele>
        <time>2021-12-29T03:13:03Z</time>
      </trkpt>
      <trkpt lat="44.62656" lon="6.68011">
        <ele>1618</ele>
        <time>2021-12-29T03:13:07Z</time>
      </trkpt>
      <trkpt lat="44.6267" lon="6.6801">
        <ele>1620</ele>
        <time>2021-12-29T03:13:10Z</time>
      </trkpt>
      <trkpt lat="44.62711" lon="6.68018">
        <ele>1615</ele>
        <time>2021-12-29T03:13:17Z</time>
      </trkpt>
      <trkpt lat="44.62727" lon="6.68026">
        <ele>1615</ele>
        <time>2021-12-29T03:13:20Z</time>
      </trkpt>
      <trkpt lat="44.62735" lon="6.68035">
        <ele>1616</ele>
        <time>2021-12-29T03:13:22Z</time>
      </trkpt>
      <trkpt lat="44.62741" lon="6.6805">
        <ele>1619</ele>
        <time>2021-12-29T03:13:24Z</time>
      </trkpt>
      <trkpt lat="44.6276" lon="6.6808">
        <ele>1624</ele>
        <time>2021-12-29T03:13:29Z</time>
      </trkpt>
      <trkpt lat="44.62785" lon="6.68113">
        <ele>1633</ele>
        <time>2021-12-29T03:13:35Z</time>
      </trkpt>
      <trkpt lat="44.62794" lon="6.68113">
        <ele>1631</ele>
        <time>2021-12-29T03:13:37Z</time>
      </trkpt>
      <trkpt lat="44.62831" lon="6.68088">
        <ele>1615</ele>
        <time>2021-12-29T03:13:44Z</time>
      </trkpt>
      <trkpt lat="44.62864" lon="6.68047">
        <ele>1613</ele>
        <time>2021-12-29T03:13:52Z</time>
      </trkpt>
      <trkpt lat="44.62902" lon="6.67983">
        <ele>1603</ele>
        <time>2021-12-29T03:14:02Z</time>
      </trkpt>
      <trkpt lat="44.62915" lon="6.67956">
        <ele>1597</ele>
        <time>2021-12-29T03:14:07Z</time>
      </trkpt>
      <trkpt lat="44.62926" lon="6.67915">
        <ele>1585</ele>
        <time>2021-12-29T03:14:12Z</time>
      </trkpt>
      <trkpt lat="44.62939" lon="6.67888">
        <ele>1580</ele>
        <time>2021-12-29T03:14:16Z</time>
      </trkpt>
      <trkpt lat="44.63068" lon="6.67751">
        <ele>1567</ele>
        <time>2021-12-29T03:14:45Z</time>
      </trkpt>
      <trkpt lat="44.63084" lon="6.67741">
        <ele>1569</ele>
        <time>2021-12-29T03:14:48Z</time>
      </trkpt>
      <trkpt lat="44.63115" lon="6.67738">
        <ele>1570</ele>
        <time>2021-12-29T03:14:54Z</time>
      </trkpt>
      <trkpt lat="44.63131" lon="6.67729">
        <ele>1569</ele>
        <time>2021-12-29T03:14:57Z</time>
      </trkpt>
      <trkpt lat="44.63145" lon="6.67714">
        <ele>1567</ele>
        <time>2021-12-29T03:15:00Z</time>
      </trkpt>
      <trkpt lat="44.6317" lon="6.67676">
        <ele>1559</ele>
        <time>2021-12-29T03:15:06Z</time>
      </trkpt>
      <trkpt lat="44.63199" lon="6.67659">
        <ele>1555</ele>
        <time>2021-12-29T03:15:12Z</time>
      </trkpt>
      <trkpt lat="44.63227" lon="6.67657">
        <ele>1555</ele>
        <time>2021-12-29T03:15:17Z</time>
      </trkpt>
      <trkpt lat="44.63262" lon="6.67667">
        <ele>1558</ele>
        <time>2021-12-29T03:15:23Z</time>
      </trkpt>
      <trkpt lat="44.63286" lon="6.67677">
        <ele>1558</ele>
        <time>2021-12-29T03:15:28Z</time>
      </trkpt>
      <trkpt lat="44.63306" lon="6.67675">
        <ele>1556</ele>
        <time>2021-12-29T03:15:31Z</time>
      </trkpt>
      <trkpt lat="44.63326" lon="6.67669">
        <ele>1552</ele>
        <time>2021-12-29T03:15:35Z</time>
      </trkpt>
      <trkpt lat="44.63348" lon="6.67652">
        <ele>1546</ele>
        <time>2021-12-29T03:15:39Z</time>
      </trkpt>
      <trkpt lat="44.63388" lon="6.676">
        <ele>1536</ele>
        <time>2021-12-29T03:15:49Z</time>
      </trkpt>
      <trkpt lat="44.63451" lon="6.67509">
        <ele>1524</ele>
        <time>2021-12-29T03:16:05Z</time>
      </trkpt>
      <trkpt lat="44.63463" lon="6.67484">
        <ele>1522</ele>
        <time>2021-12-29T03:16:09Z</time>
      </trkpt>
      <trkpt lat="44.63469" lon="6.67458">
        <ele>1519</ele>
        <time>2021-12-29T03:16:12Z</time>
      </trkpt>
      <trkpt lat="44.63472" lon="6.67427">
        <ele>1516</ele>
        <time>2021-12-29T03:16:16Z</time>
      </trkpt>
      <trkpt lat="44.6347" lon="6.67387">
        <ele>1515</ele>
        <time>2021-12-29T03:16:22Z</time>
      </trkpt>
      <trkpt lat="44.63464" lon="6.67342">
        <ele>1514</ele>
        <time>2021-12-29T03:16:27Z</time>
      </trkpt>
      <trkpt lat="44.63456" lon="6.67313">
        <ele>1514</ele>
        <time>2021-12-29T03:16:31Z</time>
      </trkpt>
      <trkpt lat="44.63444" lon="6.67286">
        <ele>1513</ele>
        <time>2021-12-29T03:16:35Z</time>
      </trkpt>
      <trkpt lat="44.63387" lon="6.67216">
        <ele>1509</ele>
        <time>2021-12-29T03:16:49Z</time>
      </trkpt>
      <trkpt lat="44.63341" lon="6.67193">
        <ele>1500</ele>
        <time>2021-12-29T03:16:57Z</time>
      </trkpt>
      <trkpt lat="44.63322" lon="6.67186">
        <ele>1493</ele>
        <time>2021-12-29T03:17:01Z</time>
      </trkpt>
      <trkpt lat="44.63309" lon="6.67177">
        <ele>1489</ele>
        <time>2021-12-29T03:17:04Z</time>
      </trkpt>
      <trkpt lat="44.63303" lon="6.6716">
        <ele>1488</ele>
        <time>2021-12-29T03:17:06Z</time>
      </trkpt>
      <trkpt lat="44.63303" lon="6.67142">
        <ele>1488</ele>
        <time>2021-12-29T03:17:08Z</time>
      </trkpt>
      <trkpt lat="44.63308" lon="6.67118">
        <ele>1490</ele>
        <time>2021-12-29T03:17:11Z</time>
      </trkpt>
      <trkpt lat="44.63324" lon="6.67098">
        <ele>1496</ele>
        <time>2021-12-29T03:17:15Z</time>
      </trkpt>
      <trkpt lat="44.63479" lon="6.66973">
        <ele>1487</ele>
        <time>2021-12-29T03:17:47Z</time>
      </trkpt>
      <trkpt lat="44.63499" lon="6.66965">
        <ele>1490</ele>
        <time>2021-12-29T03:17:51Z</time>
      </trkpt>
      <trkpt lat="44.63517" lon="6.66965">
        <ele>1488</ele>
        <time>2021-12-29T03:17:54Z</time>
      </trkpt>
      <trkpt lat="44.63623" lon="6.66999">
        <ele>1481</ele>
        <time>2021-12-29T03:18:13Z</time>
      </trkpt>
      <trkpt lat="44.63661" lon="6.66999">
        <ele>1476</ele>
        <time>2021-12-29T03:18:20Z</time>
      </trkpt>
      <trkpt lat="44.63746" lon="6.66988">
        <ele>1462</ele>
        <time>2021-12-29T03:18:35Z</time>
      </trkpt>
      <trkpt lat="44.63761" lon="6.66984">
        <ele>1457</ele>
        <time>2021-12-29T03:18:38Z</time>
      </trkpt>
      <trkpt lat="44.63768" lon="6.66975">
        <ele>1454</ele>
        <time>2021-12-29T03:18:40Z</time>
      </trkpt>
      <trkpt lat="44.63771" lon="6.66963">
        <ele>1453</ele>
        <time>2021-12-29T03:18:41Z</time>
      </trkpt>
      <trkpt lat="44.63768" lon="6.66949">
        <ele>1454</ele>
        <time>2021-12-29T03:18:43Z</time>
      </trkpt>
      <trkpt lat="44.6376" lon="6.66938">
        <ele>1456</ele>
        <time>2021-12-29T03:18:45Z</time>
      </trkpt>
      <trkpt lat="44.63748" lon="6.66934">
        <ele>1458</ele>
        <time>2021-12-29T03:18:47Z</time>
      </trkpt>
      <trkpt lat="44.63709" lon="6.66935">
        <ele>1459</ele>
        <time>2021-12-29T03:18:54Z</time>
      </trkpt>
      <trkpt lat="44.63693" lon="6.66933">
        <ele>1459</ele>
        <time>2021-12-29T03:18:57Z</time>
      </trkpt>
      <trkpt lat="44.63674" lon="6.66924">
        <ele>1458</ele>
        <time>2021-12-29T03:19:01Z</time>
      </trkpt>
      <trkpt lat="44.63634" lon="6.66898">
        <ele>1458</ele>
        <time>2021-12-29T03:19:08Z</time>
      </trkpt>
      <trkpt lat="44.63622" lon="6.66888">
        <ele>1457</ele>
        <time>2021-12-29T03:19:11Z</time>
      </trkpt>
      <trkpt lat="44.63614" lon="6.66873">
        <ele>1455</ele>
        <time>2021-12-29T03:19:13Z</time>
      </trkpt>
      <trkpt lat="44.63614" lon="6.6686">
        <ele>1453</ele>
        <time>2021-12-29T03:19:15Z</time>
      </trkpt>
      <trkpt lat="44.63617" lon="6.66848">
        <ele>1450</ele>
        <time>2021-12-29T03:19:17Z</time>
      </trkpt>
      <trkpt lat="44.63625" lon="6.66839">
        <ele>1448</ele>
        <time>2021-12-29T03:19:18Z</time>
      </trkpt>
      <trkpt lat="44.63635" lon="6.66838">
        <ele>1448</ele>
        <time>2021-12-29T03:19:20Z</time>
      </trkpt>
      <trkpt lat="44.6369" lon="6.66852">
        <ele>1448</ele>
        <time>2021-12-29T03:19:30Z</time>
      </trkpt>
      <trkpt lat="44.63705" lon="6.66852">
        <ele>1447</ele>
        <time>2021-12-29T03:19:33Z</time>
      </trkpt>
      <trkpt lat="44.63819" lon="6.668">
        <ele>1438</ele>
        <time>2021-12-29T03:19:54Z</time>
      </trkpt>
      <trkpt lat="44.63832" lon="6.66791">
        <ele>1437</ele>
        <time>2021-12-29T03:19:57Z</time>
      </trkpt>
      <trkpt lat="44.63848" lon="6.66774">
        <ele>1434</ele>
        <time>2021-12-29T03:20:00Z</time>
      </trkpt>
      <trkpt lat="44.63867" lon="6.66747">
        <ele>1430</ele>
        <time>2021-12-29T03:20:05Z</time>
      </trkpt>
      <trkpt lat="44.63877" lon="6.66736">
        <ele>1428</ele>
        <time>2021-12-29T03:20:07Z</time>
      </trkpt>
      <trkpt lat="44.63893" lon="6.6673">
        <ele>1426</ele>
        <time>2021-12-29T03:20:10Z</time>
      </trkpt>
      <trkpt lat="44.63939" lon="6.66735">
        <ele>1426</ele>
        <time>2021-12-29T03:20:18Z</time>
      </trkpt>
      <trkpt lat="44.63977" lon="6.66743">
        <ele>1426</ele>
        <time>2021-12-29T03:20:25Z</time>
      </trkpt>
      <trkpt lat="44.63986" lon="6.66739">
        <ele>1424</ele>
        <time>2021-12-29T03:20:27Z</time>
      </trkpt>
      <trkpt lat="44.63994" lon="6.66732">
        <ele>1423</ele>
        <time>2021-12-29T03:20:29Z</time>
      </trkpt>
      <trkpt lat="44.63996" lon="6.66719">
        <ele>1420</ele>
        <time>2021-12-29T03:20:30Z</time>
      </trkpt>
      <trkpt lat="44.63992" lon="6.66705">
        <ele>1418</ele>
        <time>2021-12-29T03:20:32Z</time>
      </trkpt>
      <trkpt lat="44.63982" lon="6.66694">
        <ele>1416</ele>
        <time>2021-12-29T03:20:34Z</time>
      </trkpt>
      <trkpt lat="44.63825" lon="6.66624">
        <ele>1397</ele>
        <time>2021-12-29T03:21:04Z</time>
      </trkpt>
      <trkpt lat="44.63811" lon="6.66619">
        <ele>1393</ele>
        <time>2021-12-29T03:21:06Z</time>
      </trkpt>
      <trkpt lat="44.63791" lon="6.66616">
        <ele>1390</ele>
        <time>2021-12-29T03:21:10Z</time>
      </trkpt>
      <trkpt lat="44.63756" lon="6.66619">
        <ele>1387</ele>
        <time>2021-12-29T03:21:16Z</time>
      </trkpt>
      <trkpt lat="44.63742" lon="6.66616">
        <ele>1383</ele>
        <time>2021-12-29T03:21:19Z</time>
      </trkpt>
      <trkpt lat="44.63734" lon="6.6661">
        <ele>1378</ele>
        <time>2021-12-29T03:21:20Z</time>
      </trkpt>
      <trkpt lat="44.6373" lon="6.66598">
        <ele>1373</ele>
        <time>2021-12-29T03:21:22Z</time>
      </trkpt>
      <trkpt lat="44.63732" lon="6.66585">
        <ele>1370</ele>
        <time>2021-12-29T03:21:24Z</time>
      </trkpt>
      <trkpt lat="44.6374" lon="6.66575">
        <ele>1369</ele>
        <time>2021-12-29T03:21:26Z</time>
      </trkpt>
      <trkpt lat="44.63752" lon="6.66571">
        <ele>1371</ele>
        <time>2021-12-29T03:21:28Z</time>
      </trkpt>
      <trkpt lat="44.63831" lon="6.66576">
        <ele>1380</ele>
        <time>2021-12-29T03:21:42Z</time>
      </trkpt>
      <trkpt lat="44.63858" lon="6.66572">
        <ele>1379</ele>
        <time>2021-12-29T03:21:47Z</time>
      </trkpt>
      <trkpt lat="44.63935" lon="6.66551">
        <ele>1370</ele>
        <time>2021-12-29T03:22:01Z</time>
      </trkpt>
      <trkpt lat="44.63955" lon="6.66552">
        <ele>1368</ele>
        <time>2021-12-29T03:22:04Z</time>
      </trkpt>
      <trkpt lat="44.63974" lon="6.66557">
        <ele>1368</ele>
        <time>2021-12-29T03:22:08Z</time>
      </trkpt>
      <trkpt lat="44.64014" lon="6.66576">
        <ele>1372</ele>
        <time>2021-12-29T03:22:15Z</time>
      </trkpt>
      <trkpt lat="44.64033" lon="6.66578">
        <ele>1372</ele>
        <time>2021-12-29T03:22:19Z</time>
      </trkpt>
      <trkpt lat="44.64055" lon="6.66568">
        <ele>1367</ele>
        <time>2021-12-29T03:22:23Z</time>
      </trkpt>
      <trkpt lat="44.64094" lon="6.66543">
        <ele>1356</ele>
        <time>2021-12-29T03:22:30Z</time>
      </trkpt>
      <trkpt lat="44.64112" lon="6.66525">
        <ele>1352</ele>
        <time>2021-12-29T03:22:34Z</time>
      </trkpt>
      <trkpt lat="44.64123" lon="6.66498">
        <ele>1349</ele>
        <time>2021-12-29T03:22:38Z</time>
      </trkpt>
      <trkpt lat="44.64154" lon="6.66406">
        <ele>1334</ele>
        <time>2021-12-29T03:22:51Z</time>
      </trkpt>
      <trkpt lat="44.64167" lon="6.66357">
        <ele>1328</ele>
        <time>2021-12-29T03:22:58Z</time>
      </trkpt>
      <trkpt lat="44.64174" lon="6.66344">
        <ele>1325</ele>
        <time>2021-12-29T03:23:00Z</time>
      </trkpt>
      <trkpt lat="44.64186" lon="6.66337">
        <ele>1323</ele>
        <time>2021-12-29T03:23:02Z</time>
      </trkpt>
      <trkpt lat="44.64209" lon="6.66336">
        <ele>1323</ele>
        <time>2021-12-29T03:23:06Z</time>
      </trkpt>
      <trkpt lat="44.64232" lon="6.66338">
        <ele>1323</ele>
        <time>2021-12-29T03:23:10Z</time>
      </trkpt>
      <trkpt lat="44.6426" lon="6.66328">
        <ele>1318</ele>
        <time>2021-12-29T03:23:15Z</time>
      </trkpt>
      <trkpt lat="44.64316" lon="6.66297">
        <ele>1301</ele>
        <time>2021-12-29T03:23:26Z</time>
      </trkpt>
      <trkpt lat="44.64326" lon="6.66286">
        <ele>1299</ele>
        <time>2021-12-29T03:23:28Z</time>
      </trkpt>
      <trkpt lat="44.64332" lon="6.6627">
        <ele>1299</ele>
        <time>2021-12-29T03:23:31Z</time>
      </trkpt>
      <trkpt lat="44.6433" lon="6.66253">
        <ele>1300</ele>
        <time>2021-12-29T03:23:33Z</time>
      </trkpt>
      <trkpt lat="44.64323" lon="6.6624">
        <ele>1297</ele>
        <time>2021-12-29T03:23:35Z</time>
      </trkpt>
      <trkpt lat="44.64311" lon="6.66234">
        <ele>1296</ele>
        <time>2021-12-29T03:23:37Z</time>
      </trkpt>
      <trkpt lat="44.64274" lon="6.66248">
        <ele>1301</ele>
        <time>2021-12-29T03:23:44Z</time>
      </trkpt>
      <trkpt lat="44.64243" lon="6.6625">
        <ele>1302</ele>
        <time>2021-12-29T03:23:49Z</time>
      </trkpt>
      <trkpt lat="44.64198" lon="6.66269">
        <ele>1303</ele>
        <time>2021-12-29T03:23:58Z</time>
      </trkpt>
      <trkpt lat="44.64165" lon="6.6627">
        <ele>1300</ele>
        <time>2021-12-29T03:24:04Z</time>
      </trkpt>
      <trkpt lat="44.64119" lon="6.66263">
        <ele>1286</ele>
        <time>2021-12-29T03:24:12Z</time>
      </trkpt>
      <trkpt lat="44.64107" lon="6.66252">
        <ele>1280</ele>
        <time>2021-12-29T03:24:14Z</time>
      </trkpt>
      <trkpt lat="44.64106" lon="6.66231">
        <ele>1276</ele>
        <time>2021-12-29T03:24:17Z</time>
      </trkpt>
      <trkpt lat="44.64111" lon="6.66215">
        <ele>1275</ele>
        <time>2021-12-29T03:24:19Z</time>
      </trkpt>
      <trkpt lat="44.64124" lon="6.66205">
        <ele>1275</ele>
        <time>2021-12-29T03:24:22Z</time>
      </trkpt>
      <trkpt lat="44.64143" lon="6.66202">
        <ele>1277</ele>
        <time>2021-12-29T03:24:25Z</time>
      </trkpt>
      <trkpt lat="44.64229" lon="6.66211">
        <ele>1285</ele>
        <time>2021-12-29T03:24:41Z</time>
      </trkpt>
      <trkpt lat="44.64249" lon="6.66206">
        <ele>1284</ele>
        <time>2021-12-29T03:24:44Z</time>
      </trkpt>
      <trkpt lat="44.64292" lon="6.66182">
        <ele>1277</ele>
        <time>2021-12-29T03:24:53Z</time>
      </trkpt>
      <trkpt lat="44.64305" lon="6.6617">
        <ele>1275</ele>
        <time>2021-12-29T03:24:55Z</time>
      </trkpt>
      <trkpt lat="44.64312" lon="6.66153">
        <ele>1272</ele>
        <time>2021-12-29T03:24:58Z</time>
      </trkpt>
      <trkpt lat="44.64316" lon="6.66082">
        <ele>1260</ele>
        <time>2021-12-29T03:25:07Z</time>
      </trkpt>
      <trkpt lat="44.64327" lon="6.66062">
        <ele>1257</ele>
        <time>2021-12-29T03:25:10Z</time>
      </trkpt>
      <trkpt lat="44.64354" lon="6.66032">
        <ele>1251</ele>
        <time>2021-12-29T03:25:16Z</time>
      </trkpt>
      <trkpt lat="44.64372" lon="6.66">
        <ele>1243</ele>
        <time>2021-12-29T03:25:21Z</time>
      </trkpt>
      <trkpt lat="44.64392" lon="6.65955">
        <ele>1240</ele>
        <time>2021-12-29T03:25:28Z</time>
      </trkpt>
      <trkpt lat="44.64414" lon="6.65928">
        <ele>1239</ele>
        <time>2021-12-29T03:25:33Z</time>
      </trkpt>
      <trkpt lat="44.64495" lon="6.65864">
        <ele>1226</ele>
        <time>2021-12-29T03:25:50Z</time>
      </trkpt>
      <trkpt lat="44.64512" lon="6.65846">
        <ele>1223</ele>
        <time>2021-12-29T03:25:54Z</time>
      </trkpt>
      <trkpt lat="44.64519" lon="6.65833">
        <ele>1222</ele>
        <time>2021-12-29T03:25:56Z</time>
      </trkpt>
      <trkpt lat="44.64553" lon="6.65753">
        <ele>1217</ele>
        <time>2021-12-29T03:26:07Z</time>
      </trkpt>
      <trkpt lat="44.64585" lon="6.65702">
        <ele>1212</ele>
        <time>2021-12-29T03:26:16Z</time>
      </trkpt>
      <trkpt lat="44.64591" lon="6.65687">
        <ele>1210</ele>
        <time>2021-12-29T03:26:18Z</time>
      </trkpt>
      <trkpt lat="44.64591" lon="6.65671">
        <ele>1209</ele>
        <time>2021-12-29T03:26:20Z</time>
      </trkpt>
      <trkpt lat="44.64585" lon="6.65655">
        <ele>1208</ele>
        <time>2021-12-29T03:26:23Z</time>
      </trkpt>
      <trkpt lat="44.64575" lon="6.65647">
        <ele>1207</ele>
        <time>2021-12-29T03:26:25Z</time>
      </trkpt>
      <trkpt lat="44.64562" lon="6.65648">
        <ele>1206</ele>
        <time>2021-12-29T03:26:27Z</time>
      </trkpt>
      <trkpt lat="44.64474" lon="6.65678">
        <ele>1209</ele>
        <time>2021-12-29T03:26:43Z</time>
      </trkpt>
      <trkpt lat="44.64395" lon="6.6573">
        <ele>1210</ele>
        <time>2021-12-29T03:26:59Z</time>
      </trkpt>
      <trkpt lat="44.64385" lon="6.65734">
        <ele>1210</ele>
        <time>2021-12-29T03:27:00Z</time>
      </trkpt>
      <trkpt lat="44.64373" lon="6.65733">
        <ele>1208</ele>
        <time>2021-12-29T03:27:03Z</time>
      </trkpt>
      <trkpt lat="44.64367" lon="6.65723">
        <ele>1205</ele>
        <time>2021-12-29T03:27:04Z</time>
      </trkpt>
      <trkpt lat="44.64365" lon="6.65708">
        <ele>1201</ele>
        <time>2021-12-29T03:27:06Z</time>
      </trkpt>
      <trkpt lat="44.64372" lon="6.65691">
        <ele>1199</ele>
        <time>2021-12-29T03:27:09Z</time>
      </trkpt>
      <trkpt lat="44.64384" lon="6.65683">
        <ele>1199</ele>
        <time>2021-12-29T03:27:11Z</time>
      </trkpt>
      <trkpt lat="44.6441" lon="6.65671">
        <ele>1201</ele>
        <time>2021-12-29T03:27:16Z</time>
      </trkpt>
      <trkpt lat="44.64467" lon="6.65631">
        <ele>1195</ele>
        <time>2021-12-29T03:27:27Z</time>
      </trkpt>
      <trkpt lat="44.64544" lon="6.65554">
        <ele>1178</ele>
        <time>2021-12-29T03:27:44Z</time>
      </trkpt>
      <trkpt lat="44.64557" lon="6.65546">
        <ele>1177</ele>
        <time>2021-12-29T03:27:47Z</time>
      </trkpt>
      <trkpt lat="44.64578" lon="6.65541">
        <ele>1177</ele>
        <time>2021-12-29T03:27:50Z</time>
      </trkpt>
      <trkpt lat="44.64663" lon="6.65557">
        <ele>1176</ele>
        <time>2021-12-29T03:28:06Z</time>
      </trkpt>
      <trkpt lat="44.64694" lon="6.65557">
        <ele>1173</ele>
        <time>2021-12-29T03:28:11Z</time>
      </trkpt>
      <trkpt lat="44.64737" lon="6.65552">
        <ele>1167</ele>
        <time>2021-12-29T03:28:19Z</time>
      </trkpt>
      <trkpt lat="44.64795" lon="6.65534">
        <ele>1157</ele>
        <time>2021-12-29T03:28:29Z</time>
      </trkpt>
      <trkpt lat="44.6485" lon="6.65524">
        <ele>1150</ele>
        <time>2021-12-29T03:28:39Z</time>
      </trkpt>
      <trkpt lat="44.64867" lon="6.65517">
        <ele>1148</ele>
        <time>2021-12-29T03:28:42Z</time>
      </trkpt>
      <trkpt lat="44.64921" lon="6.65475">
        <ele>1141</ele>
        <time>2021-12-29T03:28:53Z</time>
      </trkpt>
      <trkpt lat="44.64974" lon="6.65461">
        <ele>1137</ele>
        <time>2021-12-29T03:29:03Z</time>
      </trkpt>
      <trkpt lat="44.64986" lon="6.65453">
        <ele>1137</ele>
        <time>2021-12-29T03:29:05Z</time>
      </trkpt>
      <trkpt lat="44.64997" lon="6.65438">
        <ele>1138</ele>
        <time>2021-12-29T03:29:08Z</time>
      </trkpt>
      <trkpt lat="44.65004" lon="6.65419">
        <ele>1139</ele>
        <time>2021-12-29T03:29:11Z</time>
      </trkpt>
      <trkpt lat="44.65008" lon="6.65393">
        <ele>1136</ele>
        <time>2021-12-29T03:29:14Z</time>
      </trkpt>
      <trkpt lat="44.65008" lon="6.65324">
        <ele>1128</ele>
        <time>2021-12-29T03:29:23Z</time>
      </trkpt>
      <trkpt lat="44.6501" lon="6.65303">
        <ele>1125</ele>
        <time>2021-12-29T03:29:26Z</time>
      </trkpt>
      <trkpt lat="44.6502" lon="6.65284">
        <ele>1123</ele>
        <time>2021-12-29T03:29:29Z</time>
      </trkpt>
      <trkpt lat="44.65047" lon="6.65244">
        <ele>1122</ele>
        <time>2021-12-29T03:29:35Z</time>
      </trkpt>
      <trkpt lat="44.65055" lon="6.65227">
        <ele>1121</ele>
        <time>2021-12-29T03:29:38Z</time>
      </trkpt>
      <trkpt lat="44.65059" lon="6.65203">
        <ele>1118</ele>
        <time>2021-12-29T03:29:41Z</time>
      </trkpt>
      <trkpt lat="44.65059" lon="6.65183">
        <ele>1115</ele>
        <time>2021-12-29T03:29:44Z</time>
      </trkpt>
      <trkpt lat="44.65045" lon="6.65121">
        <ele>1100</ele>
        <time>2021-12-29T03:29:52Z</time>
      </trkpt>
      <trkpt lat="44.65045" lon="6.65092">
        <ele>1095</ele>
        <time>2021-12-29T03:29:56Z</time>
      </trkpt>
      <trkpt lat="44.65053" lon="6.6507">
        <ele>1092</ele>
        <time>2021-12-29T03:29:59Z</time>
      </trkpt>
      <trkpt lat="44.65063" lon="6.65051">
        <ele>1089</ele>
        <time>2021-12-29T03:30:02Z</time>
      </trkpt>
      <trkpt lat="44.6508" lon="6.6504">
        <ele>1091</ele>
        <time>2021-12-29T03:30:05Z</time>
      </trkpt>
      <trkpt lat="44.65098" lon="6.65042">
        <ele>1094</ele>
        <time>2021-12-29T03:30:08Z</time>
      </trkpt>
      <trkpt lat="44.65122" lon="6.65052">
        <ele>1098</ele>
        <time>2021-12-29T03:30:13Z</time>
      </trkpt>
      <trkpt lat="44.65138" lon="6.65053">
        <ele>1099</ele>
        <time>2021-12-29T03:30:16Z</time>
      </trkpt>
      <trkpt lat="44.65159" lon="6.65048">
        <ele>1098</ele>
        <time>2021-12-29T03:30:19Z</time>
      </trkpt>
      <trkpt lat="44.6523" lon="6.65009">
        <ele>1091</ele>
        <time>2021-12-29T03:30:33Z</time>
      </trkpt>
      <trkpt lat="44.65274" lon="6.64979">
        <ele>1078</ele>
        <time>2021-12-29T03:30:42Z</time>
      </trkpt>
      <trkpt lat="44.65289" lon="6.6498">
        <ele>1077</ele>
        <time>2021-12-29T03:30:44Z</time>
      </trkpt>
      <trkpt lat="44.653" lon="6.6499">
        <ele>1080</ele>
        <time>2021-12-29T03:30:47Z</time>
      </trkpt>
      <trkpt lat="44.65313" lon="6.65028">
        <ele>1085</ele>
        <time>2021-12-29T03:30:52Z</time>
      </trkpt>
      <trkpt lat="44.65318" lon="6.65075">
        <ele>1089</ele>
        <time>2021-12-29T03:30:58Z</time>
      </trkpt>
      <trkpt lat="44.65331" lon="6.65162">
        <ele>1085</ele>
        <time>2021-12-29T03:31:09Z</time>
      </trkpt>
      <trkpt lat="44.65337" lon="6.65189">
        <ele>1083</ele>
        <time>2021-12-29T03:31:13Z</time>
      </trkpt>
      <trkpt lat="44.65344" lon="6.65207">
        <ele>1081</ele>
        <time>2021-12-29T03:31:15Z</time>
      </trkpt>
      <trkpt lat="44.65357" lon="6.65215">
        <ele>1077</ele>
        <time>2021-12-29T03:31:18Z</time>
      </trkpt>
      <trkpt lat="44.65371" lon="6.65216">
        <ele>1074</ele>
        <time>2021-12-29T03:31:20Z</time>
      </trkpt>
      <trkpt lat="44.65388" lon="6.65207">
        <ele>1070</ele>
        <time>2021-12-29T03:31:24Z</time>
      </trkpt>
      <trkpt lat="44.65403" lon="6.65193">
        <ele>1067</ele>
        <time>2021-12-29T03:31:27Z</time>
      </trkpt>
      <trkpt lat="44.65416" lon="6.65173">
        <ele>1066</ele>
        <time>2021-12-29T03:31:30Z</time>
      </trkpt>
      <trkpt lat="44.65424" lon="6.65151">
        <ele>1065</ele>
        <time>2021-12-29T03:31:33Z</time>
      </trkpt>
      <trkpt lat="44.65428" lon="6.65126">
        <ele>1065</ele>
        <time>2021-12-29T03:31:37Z</time>
      </trkpt>
      <trkpt lat="44.65429" lon="6.65072">
        <ele>1064</ele>
        <time>2021-12-29T03:31:44Z</time>
      </trkpt>
      <trkpt lat="44.65425" lon="6.65054">
        <ele>1063</ele>
        <time>2021-12-29T03:31:46Z</time>
      </trkpt>
      <trkpt lat="44.65417" lon="6.65037">
        <ele>1063</ele>
        <time>2021-12-29T03:31:48Z</time>
      </trkpt>
      <trkpt lat="44.65404" lon="6.65022">
        <ele>1064</ele>
        <time>2021-12-29T03:31:51Z</time>
      </trkpt>
      <trkpt lat="44.65386" lon="6.6501">
        <ele>1067</ele>
        <time>2021-12-29T03:31:55Z</time>
      </trkpt>
      <trkpt lat="44.65379" lon="6.64997">
        <ele>1067</ele>
        <time>2021-12-29T03:31:57Z</time>
      </trkpt>
      <trkpt lat="44.65377" lon="6.64979">
        <ele>1062</ele>
        <time>2021-12-29T03:31:59Z</time>
      </trkpt>
      <trkpt lat="44.65383" lon="6.64964">
        <ele>1057</ele>
        <time>2021-12-29T03:32:02Z</time>
      </trkpt>
      <trkpt lat="44.6539" lon="6.64956">
        <ele>1053</ele>
        <time>2021-12-29T03:32:03Z</time>
      </trkpt>
      <trkpt lat="44.65402" lon="6.64954">
        <ele>1051</ele>
        <time>2021-12-29T03:32:05Z</time>
      </trkpt>
      <trkpt lat="44.65411" lon="6.64955">
        <ele>1049</ele>
        <time>2021-12-29T03:32:07Z</time>
      </trkpt>
      <trkpt lat="44.65429" lon="6.64964">
        <ele>1049</ele>
        <time>2021-12-29T03:32:10Z</time>
      </trkpt>
      <trkpt lat="44.65443" lon="6.64968">
        <ele>1048</ele>
        <time>2021-12-29T03:32:13Z</time>
      </trkpt>
      <trkpt lat="44.65473" lon="6.64966">
        <ele>1044</ele>
        <time>2021-12-29T03:32:18Z</time>
      </trkpt>
      <trkpt lat="44.65487" lon="6.64968">
        <ele>1043</ele>
        <time>2021-12-29T03:32:21Z</time>
      </trkpt>
      <trkpt lat="44.65498" lon="6.64977">
        <ele>1043</ele>
        <time>2021-12-29T03:32:23Z</time>
      </trkpt>
      <trkpt lat="44.65509" lon="6.64991">
        <ele>1043</ele>
        <time>2021-12-29T03:32:26Z</time>
      </trkpt>
      <trkpt lat="44.6552" lon="6.65024">
        <ele>1043</ele>
        <time>2021-12-29T03:32:30Z</time>
      </trkpt>
      <trkpt lat="44.65555" lon="6.65081">
        <ele>1037</ele>
        <time>2021-12-29T03:32:40Z</time>
      </trkpt>
      <trkpt lat="44.65557" lon="6.651">
        <ele>1036</ele>
        <time>2021-12-29T03:32:42Z</time>
      </trkpt>
      <trkpt lat="44.65555" lon="6.65113">
        <ele>1035</ele>
        <time>2021-12-29T03:32:44Z</time>
      </trkpt>
      <trkpt lat="44.65547" lon="6.65127">
        <ele>1036</ele>
        <time>2021-12-29T03:32:46Z</time>
      </trkpt>
      <trkpt lat="44.6552" lon="6.65144">
        <ele>1039</ele>
        <time>2021-12-29T03:32:51Z</time>
      </trkpt>
      <trkpt lat="44.65509" lon="6.65156">
        <ele>1040</ele>
        <time>2021-12-29T03:32:54Z</time>
      </trkpt>
      <trkpt lat="44.65493" lon="6.65177">
        <ele>1043</ele>
        <time>2021-12-29T03:32:58Z</time>
      </trkpt>
      <trkpt lat="44.65486" lon="6.6518">
        <ele>1044</ele>
        <time>2021-12-29T03:32:59Z</time>
      </trkpt>
      <trkpt lat="44.65484" lon="6.65184">
        <ele>1045</ele>
        <time>2021-12-29T03:33:00Z</time>
      </trkpt>
      <trkpt lat="44.65482" lon="6.65193">
        <ele>1045</ele>
        <time>2021-12-29T03:33:01Z</time>
      </trkpt>
      <trkpt lat="44.65482" lon="6.65198">
        <ele>1044</ele>
        <time>2021-12-29T03:33:02Z</time>
      </trkpt>
      <trkpt lat="44.65474" lon="6.65226">
        <ele>1045</ele>
        <time>2021-12-29T03:33:05Z</time>
      </trkpt>
      <trkpt lat="44.65406" lon="6.65336">
        <ele>1052</ele>
        <time>2021-12-29T03:33:24Z</time>
      </trkpt>
      <trkpt lat="44.65398" lon="6.65351">
        <ele>1055</ele>
        <time>2021-12-29T03:33:26Z</time>
      </trkpt>
      <trkpt lat="44.65382" lon="6.65395">
        <ele>1059</ele>
        <time>2021-12-29T03:33:32Z</time>
      </trkpt>
      <trkpt lat="44.65378" lon="6.6541">
        <ele>1060</ele>
        <time>2021-12-29T03:33:34Z</time>
      </trkpt>
      <trkpt lat="44.65376" lon="6.65435">
        <ele>1060</ele>
        <time>2021-12-29T03:33:38Z</time>
      </trkpt>
      <trkpt lat="44.65377" lon="6.65449">
        <ele>1060</ele>
        <time>2021-12-29T03:33:39Z</time>
      </trkpt>
      <trkpt lat="44.65383" lon="6.65466">
        <ele>1058</ele>
        <time>2021-12-29T03:33:42Z</time>
      </trkpt>
      <trkpt lat="44.65391" lon="6.65477">
        <ele>1057</ele>
        <time>2021-12-29T03:33:44Z</time>
      </trkpt>
      <trkpt lat="44.65405" lon="6.65489">
        <ele>1056</ele>
        <time>2021-12-29T03:33:47Z</time>
      </trkpt>
      <trkpt lat="44.6542" lon="6.65492">
        <ele>1055</ele>
        <time>2021-12-29T03:33:49Z</time>
      </trkpt>
      <trkpt lat="44.65447" lon="6.65488">
        <ele>1056</ele>
        <time>2021-12-29T03:33:54Z</time>
      </trkpt>
      <trkpt lat="44.65465" lon="6.65479">
        <ele>1056</ele>
        <time>2021-12-29T03:33:58Z</time>
      </trkpt>
      <trkpt lat="44.65473" lon="6.65473">
        <ele>1055</ele>
        <time>2021-12-29T03:33:59Z</time>
      </trkpt>
      <trkpt lat="44.65514" lon="6.65417">
        <ele>1048</ele>
        <time>2021-12-29T03:34:09Z</time>
      </trkpt>
      <trkpt lat="44.65529" lon="6.65404">
        <ele>1047</ele>
        <time>2021-12-29T03:34:13Z</time>
      </trkpt>
      <trkpt lat="44.65552" lon="6.65402">
        <ele>1047</ele>
        <time>2021-12-29T03:34:17Z</time>
      </trkpt>
      <trkpt lat="44.65571" lon="6.65413">
        <ele>1049</ele>
        <time>2021-12-29T03:34:20Z</time>
      </trkpt>
      <trkpt lat="44.6558" lon="6.65422">
        <ele>1050</ele>
        <time>2021-12-29T03:34:22Z</time>
      </trkpt>
      <trkpt lat="44.65591" lon="6.65443">
        <ele>1052</ele>
        <time>2021-12-29T03:34:26Z</time>
      </trkpt>
      <trkpt lat="44.65592" lon="6.65453">
        <ele>1053</ele>
        <time>2021-12-29T03:34:27Z</time>
      </trkpt>
      <trkpt lat="44.65597" lon="6.65461">
        <ele>1053</ele>
        <time>2021-12-29T03:34:28Z</time>
      </trkpt>
      <trkpt lat="44.65609" lon="6.6549">
        <ele>1055</ele>
        <time>2021-12-29T03:34:32Z</time>
      </trkpt>
      <trkpt lat="44.65626" lon="6.65523">
        <ele>1057</ele>
        <time>2021-12-29T03:34:38Z</time>
      </trkpt>
      <trkpt lat="44.6564" lon="6.65542">
        <ele>1058</ele>
        <time>2021-12-29T03:34:41Z</time>
      </trkpt>
      <trkpt lat="44.65669" lon="6.65567">
        <ele>1059</ele>
        <time>2021-12-29T03:34:47Z</time>
      </trkpt>
      <trkpt lat="44.6572" lon="6.65606">
        <ele>1061</ele>
        <time>2021-12-29T03:34:57Z</time>
      </trkpt>
      <trkpt lat="44.65761" lon="6.65635">
        <ele>1062</ele>
        <time>2021-12-29T03:35:06Z</time>
      </trkpt>
      <trkpt lat="44.65774" lon="6.65642">
        <ele>1062</ele>
        <time>2021-12-29T03:35:08Z</time>
      </trkpt>
      <trkpt lat="44.6585" lon="6.65658">
        <ele>1061</ele>
        <time>2021-12-29T03:35:22Z</time>
      </trkpt>
      <trkpt lat="44.65863" lon="6.65664">
        <ele>1062</ele>
        <time>2021-12-29T03:35:24Z</time>
      </trkpt>
      <trkpt lat="44.65886" lon="6.65687">
        <ele>1064</ele>
        <time>2021-12-29T03:35:29Z</time>
      </trkpt>
      <trkpt lat="44.66127" lon="6.65964">
        <ele>1078</ele>
        <time>2021-12-29T03:36:25Z</time>
      </trkpt>
      <trkpt lat="44.66147" lon="6.65989">
        <ele>1078</ele>
        <time>2021-12-29T03:36:29Z</time>
      </trkpt>
      <trkpt lat="44.66201" lon="6.66074">
        <ele>1081</ele>
        <time>2021-12-29T03:36:44Z</time>
      </trkpt>
      <trkpt lat="44.66215" lon="6.66097">
        <ele>1083</ele>
        <time>2021-12-29T03:36:48Z</time>
      </trkpt>
      <trkpt lat="44.66224" lon="6.66108">
        <ele>1085</ele>
        <time>2021-12-29T03:36:50Z</time>
      </trkpt>
      <trkpt lat="44.66235" lon="6.66116">
        <ele>1086</ele>
        <time>2021-12-29T03:36:52Z</time>
      </trkpt>
      <trkpt lat="44.66288" lon="6.6614">
        <ele>1090</ele>
        <time>2021-12-29T03:37:02Z</time>
      </trkpt>
      <trkpt lat="44.66319" lon="6.66161">
        <ele>1091</ele>
        <time>2021-12-29T03:37:08Z</time>
      </trkpt>
      <trkpt lat="44.66334" lon="6.66177">
        <ele>1091</ele>
        <time>2021-12-29T03:37:11Z</time>
      </trkpt>
      <trkpt lat="44.66359" lon="6.66214">
        <ele>1096</ele>
        <time>2021-12-29T03:37:18Z</time>
      </trkpt>
      <trkpt lat="44.66426" lon="6.66319">
        <ele>1099</ele>
        <time>2021-12-29T03:37:36Z</time>
      </trkpt>
      <trkpt lat="44.66439" lon="6.66333">
        <ele>1099</ele>
        <time>2021-12-29T03:37:39Z</time>
      </trkpt>
      <trkpt lat="44.66443" lon="6.66336">
        <ele>1100</ele>
        <time>2021-12-29T03:37:39Z</time>
      </trkpt>
      <trkpt lat="44.6646" lon="6.66342">
        <ele>1102</ele>
        <time>2021-12-29T03:37:43Z</time>
      </trkpt>
      <trkpt lat="44.66487" lon="6.66344">
        <ele>1105</ele>
        <time>2021-12-29T03:37:47Z</time>
      </trkpt>
      <trkpt lat="44.66502" lon="6.66353">
        <ele>1105</ele>
        <time>2021-12-29T03:37:50Z</time>
      </trkpt>
      <trkpt lat="44.66514" lon="6.66367">
        <ele>1104</ele>
        <time>2021-12-29T03:37:53Z</time>
      </trkpt>
      <trkpt lat="44.66519" lon="6.66381">
        <ele>1103</ele>
        <time>2021-12-29T03:37:55Z</time>
      </trkpt>
      <trkpt lat="44.66523" lon="6.66396">
        <ele>1102</ele>
        <time>2021-12-29T03:37:57Z</time>
      </trkpt>
      <trkpt lat="44.66525" lon="6.66414">
        <ele>1100</ele>
        <time>2021-12-29T03:37:59Z</time>
      </trkpt>
      <trkpt lat="44.66525" lon="6.66535">
        <ele>1099</ele>
        <time>2021-12-29T03:38:15Z</time>
      </trkpt>
      <trkpt lat="44.66527" lon="6.66552">
        <ele>1100</ele>
        <time>2021-12-29T03:38:17Z</time>
      </trkpt>
      <trkpt lat="44.66532" lon="6.66568">
        <ele>1100</ele>
        <time>2021-12-29T03:38:19Z</time>
      </trkpt>
      <trkpt lat="44.6654" lon="6.66583">
        <ele>1098</ele>
        <time>2021-12-29T03:38:21Z</time>
      </trkpt>
      <trkpt lat="44.66583" lon="6.66652">
        <ele>1101</ele>
        <time>2021-12-29T03:38:33Z</time>
      </trkpt>
      <trkpt lat="44.66593" lon="6.6666">
        <ele>1099</ele>
        <time>2021-12-29T03:38:35Z</time>
      </trkpt>
      <trkpt lat="44.66658" lon="6.66687">
        <ele>1085</ele>
        <time>2021-12-29T03:38:47Z</time>
      </trkpt>
      <trkpt lat="44.66665" lon="6.66695">
        <ele>1085</ele>
        <time>2021-12-29T03:38:49Z</time>
      </trkpt>
      <trkpt lat="44.66668" lon="6.66707">
        <ele>1087</ele>
        <time>2021-12-29T03:38:50Z</time>
      </trkpt>
      <trkpt lat="44.66669" lon="6.66716">
        <ele>1089</ele>
        <time>2021-12-29T03:38:51Z</time>
      </trkpt>
      <trkpt lat="44.66665" lon="6.66729">
        <ele>1097</ele>
        <time>2021-12-29T03:38:53Z</time>
      </trkpt>
      <trkpt lat="44.66653" lon="6.66751">
        <ele>1108</ele>
        <time>2021-12-29T03:38:57Z</time>
      </trkpt>
      <trkpt lat="44.66649" lon="6.66789">
        <ele>1111</ele>
        <time>2021-12-29T03:39:02Z</time>
      </trkpt>
      <trkpt lat="44.66637" lon="6.66816">
        <ele>1119</ele>
        <time>2021-12-29T03:39:06Z</time>
      </trkpt>
      <trkpt lat="44.66619" lon="6.66846">
        <ele>1133</ele>
        <time>2021-12-29T03:39:11Z</time>
      </trkpt>
      <trkpt lat="44.66616" lon="6.66857">
        <ele>1136</ele>
        <time>2021-12-29T03:39:12Z</time>
      </trkpt>
      <trkpt lat="44.66618" lon="6.66867">
        <ele>1135</ele>
        <time>2021-12-29T03:39:13Z</time>
      </trkpt>
      <trkpt lat="44.66622" lon="6.66873">
        <ele>1132</ele>
        <time>2021-12-29T03:39:14Z</time>
      </trkpt>
      <trkpt lat="44.66629" lon="6.66878">
        <ele>1128</ele>
        <time>2021-12-29T03:39:16Z</time>
      </trkpt>
      <trkpt lat="44.66669" lon="6.66888">
        <ele>1100</ele>
        <time>2021-12-29T03:39:23Z</time>
      </trkpt>
      <trkpt lat="44.66677" lon="6.66894">
        <ele>1091</ele>
        <time>2021-12-29T03:39:25Z</time>
      </trkpt>
      <trkpt lat="44.66683" lon="6.66902">
        <ele>1085</ele>
        <time>2021-12-29T03:39:26Z</time>
      </trkpt>
      <trkpt lat="44.66686" lon="6.66912">
        <ele>1082</ele>
        <time>2021-12-29T03:39:28Z</time>
      </trkpt>
      <trkpt lat="44.66687" lon="6.66926">
        <ele>1082</ele>
        <time>2021-12-29T03:39:29Z</time>
      </trkpt>
      <trkpt lat="44.66681" lon="6.66979">
        <ele>1093</ele>
        <time>2021-12-29T03:39:36Z</time>
      </trkpt>
      <trkpt lat="44.66681" lon="6.66991">
        <ele>1095</ele>
        <time>2021-12-29T03:39:38Z</time>
      </trkpt>
      <trkpt lat="44.66684" lon="6.67">
        <ele>1093</ele>
        <time>2021-12-29T03:39:39Z</time>
      </trkpt>
      <trkpt lat="44.66696" lon="6.67013">
        <ele>1085</ele>
        <time>2021-12-29T03:39:42Z</time>
      </trkpt>
      <trkpt lat="44.66701" lon="6.67021">
        <ele>1082</ele>
        <time>2021-12-29T03:39:43Z</time>
      </trkpt>
      <trkpt lat="44.6671" lon="6.67083">
        <ele>1086</ele>
        <time>2021-12-29T03:39:51Z</time>
      </trkpt>
      <trkpt lat="44.66725" lon="6.67151">
        <ele>1086</ele>
        <time>2021-12-29T03:40:00Z</time>
      </trkpt>
      <trkpt lat="44.66728" lon="6.67201">
        <ele>1090</ele>
        <time>2021-12-29T03:40:06Z</time>
      </trkpt>
      <trkpt lat="44.66741" lon="6.67259">
        <ele>1088</ele>
        <time>2021-12-29T03:40:14Z</time>
      </trkpt>
      <trkpt lat="44.66752" lon="6.6732">
        <ele>1090</ele>
        <time>2021-12-29T03:40:22Z</time>
      </trkpt>
      <trkpt lat="44.66762" lon="6.67371">
        <ele>1090</ele>
        <time>2021-12-29T03:40:29Z</time>
      </trkpt>
      <trkpt lat="44.66767" lon="6.67387">
        <ele>1090</ele>
        <time>2021-12-29T03:40:31Z</time>
      </trkpt>
      <trkpt lat="44.66775" lon="6.67403">
        <ele>1089</ele>
        <time>2021-12-29T03:40:33Z</time>
      </trkpt>
      <trkpt lat="44.66786" lon="6.6742">
        <ele>1089</ele>
        <time>2021-12-29T03:40:36Z</time>
      </trkpt>
      <trkpt lat="44.66809" lon="6.67446">
        <ele>1087</ele>
        <time>2021-12-29T03:40:42Z</time>
      </trkpt>
      <trkpt lat="44.66834" lon="6.67469">
        <ele>1085</ele>
        <time>2021-12-29T03:40:47Z</time>
      </trkpt>
      <trkpt lat="44.66855" lon="6.67493">
        <ele>1079</ele>
        <time>2021-12-29T03:40:52Z</time>
      </trkpt>
      <trkpt lat="44.6686" lon="6.67502">
        <ele>1078</ele>
        <time>2021-12-29T03:40:53Z</time>
      </trkpt>
      <trkpt lat="44.66872" lon="6.67527">
        <ele>1076</ele>
        <time>2021-12-29T03:40:57Z</time>
      </trkpt>
      <trkpt lat="44.66883" lon="6.67558">
        <ele>1074</ele>
        <time>2021-12-29T03:41:01Z</time>
      </trkpt>
      <trkpt lat="44.66887" lon="6.67574">
        <ele>1073</ele>
        <time>2021-12-29T03:41:03Z</time>
      </trkpt>
      <trkpt lat="44.66891" lon="6.67639">
        <ele>1072</ele>
        <time>2021-12-29T03:41:12Z</time>
      </trkpt>
      <trkpt lat="44.66889" lon="6.67651">
        <ele>1074</ele>
        <time>2021-12-29T03:41:13Z</time>
      </trkpt>
      <trkpt lat="44.66879" lon="6.67672">
        <ele>1082</ele>
        <time>2021-12-29T03:41:16Z</time>
      </trkpt>
      <trkpt lat="44.66879" lon="6.67685">
        <ele>1083</ele>
        <time>2021-12-29T03:41:18Z</time>
      </trkpt>
      <trkpt lat="44.66885" lon="6.67719">
        <ele>1081</ele>
        <time>2021-12-29T03:41:23Z</time>
      </trkpt>
      <trkpt lat="44.66885" lon="6.67733">
        <ele>1082</ele>
        <time>2021-12-29T03:41:24Z</time>
      </trkpt>
      <trkpt lat="44.66881" lon="6.67761">
        <ele>1089</ele>
        <time>2021-12-29T03:41:28Z</time>
      </trkpt>
      <trkpt lat="44.66882" lon="6.67773">
        <ele>1090</ele>
        <time>2021-12-29T03:41:29Z</time>
      </trkpt>
      <trkpt lat="44.66893" lon="6.67815">
        <ele>1087</ele>
        <time>2021-12-29T03:41:35Z</time>
      </trkpt>
      <trkpt lat="44.66896" lon="6.6785">
        <ele>1093</ele>
        <time>2021-12-29T03:41:40Z</time>
      </trkpt>
      <trkpt lat="44.66889" lon="6.6789">
        <ele>1114</ele>
        <time>2021-12-29T03:41:45Z</time>
      </trkpt>
      <trkpt lat="44.66893" lon="6.67935">
        <ele>1129</ele>
        <time>2021-12-29T03:41:51Z</time>
      </trkpt>
      <trkpt lat="44.66902" lon="6.67974">
        <ele>1142</ele>
        <time>2021-12-29T03:41:56Z</time>
      </trkpt>
      <trkpt lat="44.6691" lon="6.67993">
        <ele>1148</ele>
        <time>2021-12-29T03:41:58Z</time>
      </trkpt>
      <trkpt lat="44.66927" lon="6.68024">
        <ele>1149</ele>
        <time>2021-12-29T03:42:03Z</time>
      </trkpt>
      <trkpt lat="44.66936" lon="6.68035">
        <ele>1146</ele>
        <time>2021-12-29T03:42:06Z</time>
      </trkpt>
      <trkpt lat="44.66946" lon="6.68044">
        <ele>1141</ele>
        <time>2021-12-29T03:42:08Z</time>
      </trkpt>
      <trkpt lat="44.6699" lon="6.68066">
        <ele>1117</ele>
        <time>2021-12-29T03:42:16Z</time>
      </trkpt>
      <trkpt lat="44.67069" lon="6.68135">
        <ele>1102</ele>
        <time>2021-12-29T03:42:33Z</time>
      </trkpt>
      <trkpt lat="44.67091" lon="6.68152">
        <ele>1101</ele>
        <time>2021-12-29T03:42:37Z</time>
      </trkpt>
      <trkpt lat="44.67116" lon="6.68165">
        <ele>1095</ele>
        <time>2021-12-29T03:42:42Z</time>
      </trkpt>
      <trkpt lat="44.67133" lon="6.68171">
        <ele>1088</ele>
        <time>2021-12-29T03:42:45Z</time>
      </trkpt>
      <trkpt lat="44.67192" lon="6.68183">
        <ele>1066</ele>
        <time>2021-12-29T03:42:55Z</time>
      </trkpt>
      <trkpt lat="44.6721" lon="6.68191">
        <ele>1062</ele>
        <time>2021-12-29T03:42:59Z</time>
      </trkpt>
      <trkpt lat="44.67217" lon="6.68197">
        <ele>1061</ele>
        <time>2021-12-29T03:43:00Z</time>
      </trkpt>
      <trkpt lat="44.67222" lon="6.68205">
        <ele>1063</ele>
        <time>2021-12-29T03:43:02Z</time>
      </trkpt>
      <trkpt lat="44.67233" lon="6.68229">
        <ele>1067</ele>
        <time>2021-12-29T03:43:05Z</time>
      </trkpt>
      <trkpt lat="44.67262" lon="6.68264">
        <ele>1067</ele>
        <time>2021-12-29T03:43:12Z</time>
      </trkpt>
      <trkpt lat="44.67266" lon="6.68274">
        <ele>1071</ele>
        <time>2021-12-29T03:43:14Z</time>
      </trkpt>
      <trkpt lat="44.67273" lon="6.683">
        <ele>1079</ele>
        <time>2021-12-29T03:43:17Z</time>
      </trkpt>
      <trkpt lat="44.67279" lon="6.6831">
        <ele>1080</ele>
        <time>2021-12-29T03:43:19Z</time>
      </trkpt>
      <trkpt lat="44.67304" lon="6.68333">
        <ele>1071</ele>
        <time>2021-12-29T03:43:24Z</time>
      </trkpt>
      <trkpt lat="44.67318" lon="6.68349">
        <ele>1070</ele>
        <time>2021-12-29T03:43:27Z</time>
      </trkpt>
      <trkpt lat="44.67333" lon="6.68372">
        <ele>1072</ele>
        <time>2021-12-29T03:43:31Z</time>
      </trkpt>
      <trkpt lat="44.67353" lon="6.68387">
        <ele>1073</ele>
        <time>2021-12-29T03:43:35Z</time>
      </trkpt>
      <trkpt lat="44.67367" lon="6.68411">
        <ele>1074</ele>
        <time>2021-12-29T03:43:39Z</time>
      </trkpt>
      <trkpt lat="44.67373" lon="6.68419">
        <ele>1073</ele>
        <time>2021-12-29T03:43:41Z</time>
      </trkpt>
      <trkpt lat="44.67382" lon="6.68426">
        <ele>1069</ele>
        <time>2021-12-29T03:43:42Z</time>
      </trkpt>
      <trkpt lat="44.67413" lon="6.68439">
        <ele>1052</ele>
        <time>2021-12-29T03:43:48Z</time>
      </trkpt>
      <trkpt lat="44.6742" lon="6.68445">
        <ele>1051</ele>
        <time>2021-12-29T03:43:50Z</time>
      </trkpt>
      <trkpt lat="44.67427" lon="6.68452">
        <ele>1053</ele>
        <time>2021-12-29T03:43:51Z</time>
      </trkpt>
      <trkpt lat="44.67449" lon="6.68483">
        <ele>1055</ele>
        <time>2021-12-29T03:43:57Z</time>
      </trkpt>
      <trkpt lat="44.67452" lon="6.68494">
        <ele>1054</ele>
        <time>2021-12-29T03:43:58Z</time>
      </trkpt>
      <trkpt lat="44.67452" lon="6.68507">
        <ele>1055</ele>
        <time>2021-12-29T03:44:00Z</time>
      </trkpt>
      <trkpt lat="44.67451" lon="6.68521">
        <ele>1057</ele>
        <time>2021-12-29T03:44:02Z</time>
      </trkpt>
      <trkpt lat="44.67447" lon="6.68532">
        <ele>1060</ele>
        <time>2021-12-29T03:44:03Z</time>
      </trkpt>
      <trkpt lat="44.67429" lon="6.68557">
        <ele>1069</ele>
        <time>2021-12-29T03:44:08Z</time>
      </trkpt>
      <trkpt lat="44.67424" lon="6.68569">
        <ele>1072</ele>
        <time>2021-12-29T03:44:09Z</time>
      </trkpt>
      <trkpt lat="44.67418" lon="6.6859">
        <ele>1075</ele>
        <time>2021-12-29T03:44:12Z</time>
      </trkpt>
      <trkpt lat="44.67402" lon="6.6867">
        <ele>1081</ele>
        <time>2021-12-29T03:44:23Z</time>
      </trkpt>
      <trkpt lat="44.67401" lon="6.68687">
        <ele>1082</ele>
        <time>2021-12-29T03:44:25Z</time>
      </trkpt>
      <trkpt lat="44.67403" lon="6.68702">
        <ele>1080</ele>
        <time>2021-12-29T03:44:27Z</time>
      </trkpt>
      <trkpt lat="44.67434" lon="6.68835">
        <ele>1077</ele>
        <time>2021-12-29T03:44:45Z</time>
      </trkpt>
      <trkpt lat="44.6746" lon="6.689">
        <ele>1077</ele>
        <time>2021-12-29T03:44:54Z</time>
      </trkpt>
      <trkpt lat="44.67472" lon="6.6892">
        <ele>1073</ele>
        <time>2021-12-29T03:44:57Z</time>
      </trkpt>
      <trkpt lat="44.67483" lon="6.6893">
        <ele>1066</ele>
        <time>2021-12-29T03:45:00Z</time>
      </trkpt>
      <trkpt lat="44.6749" lon="6.68939">
        <ele>1063</ele>
        <time>2021-12-29T03:45:01Z</time>
      </trkpt>
      <trkpt lat="44.67511" lon="6.68974">
        <ele>1065</ele>
        <time>2021-12-29T03:45:07Z</time>
      </trkpt>
      <trkpt lat="44.67523" lon="6.69003">
        <ele>1069</ele>
        <time>2021-12-29T03:45:11Z</time>
      </trkpt>
      <trkpt lat="44.67525" lon="6.69014">
        <ele>1068</ele>
        <time>2021-12-29T03:45:13Z</time>
      </trkpt>
      <trkpt lat="44.67528" lon="6.69036">
        <ele>1067</ele>
        <time>2021-12-29T03:45:16Z</time>
      </trkpt>
      <trkpt lat="44.67532" lon="6.69063">
        <ele>1064</ele>
        <time>2021-12-29T03:45:19Z</time>
      </trkpt>
      <trkpt lat="44.67535" lon="6.69075">
        <ele>1063</ele>
        <time>2021-12-29T03:45:21Z</time>
      </trkpt>
      <trkpt lat="44.67546" lon="6.69099">
        <ele>1061</ele>
        <time>2021-12-29T03:45:24Z</time>
      </trkpt>
      <trkpt lat="44.67552" lon="6.6913">
        <ele>1063</ele>
        <time>2021-12-29T03:45:28Z</time>
      </trkpt>
      <trkpt lat="44.67553" lon="6.69175">
        <ele>1070</ele>
        <time>2021-12-29T03:45:34Z</time>
      </trkpt>
      <trkpt lat="44.67555" lon="6.69192">
        <ele>1073</ele>
        <time>2021-12-29T03:45:36Z</time>
      </trkpt>
      <trkpt lat="44.67557" lon="6.692">
        <ele>1075</ele>
        <time>2021-12-29T03:45:37Z</time>
      </trkpt>
      <trkpt lat="44.67562" lon="6.69209">
        <ele>1074</ele>
        <time>2021-12-29T03:45:39Z</time>
      </trkpt>
      <trkpt lat="44.67579" lon="6.69231">
        <ele>1070</ele>
        <time>2021-12-29T03:45:43Z</time>
      </trkpt>
      <trkpt lat="44.67595" lon="6.69266">
        <ele>1074</ele>
        <time>2021-12-29T03:45:48Z</time>
      </trkpt>
      <trkpt lat="44.67608" lon="6.69287">
        <ele>1074</ele>
        <time>2021-12-29T03:45:52Z</time>
      </trkpt>
      <trkpt lat="44.67625" lon="6.6931">
        <ele>1072</ele>
        <time>2021-12-29T03:45:56Z</time>
      </trkpt>
      <trkpt lat="44.67643" lon="6.69327">
        <ele>1067</ele>
        <time>2021-12-29T03:46:00Z</time>
      </trkpt>
      <trkpt lat="44.67653" lon="6.69341">
        <ele>1064</ele>
        <time>2021-12-29T03:46:02Z</time>
      </trkpt>
      <trkpt lat="44.67663" lon="6.6937">
        <ele>1062</ele>
        <time>2021-12-29T03:46:06Z</time>
      </trkpt>
      <trkpt lat="44.67667" lon="6.69378">
        <ele>1060</ele>
        <time>2021-12-29T03:46:08Z</time>
      </trkpt>
      <trkpt lat="44.67679" lon="6.69388">
        <ele>1061</ele>
        <time>2021-12-29T03:46:10Z</time>
      </trkpt>
      <trkpt lat="44.67686" lon="6.6939">
        <ele>1062</ele>
        <time>2021-12-29T03:46:11Z</time>
      </trkpt>
      <trkpt lat="44.67695" lon="6.69388">
        <ele>1062</ele>
        <time>2021-12-29T03:46:13Z</time>
      </trkpt>
      <trkpt lat="44.6771" lon="6.69379">
        <ele>1062</ele>
        <time>2021-12-29T03:46:16Z</time>
      </trkpt>
      <trkpt lat="44.67719" lon="6.69378">
        <ele>1062</ele>
        <time>2021-12-29T03:46:18Z</time>
      </trkpt>
      <trkpt lat="44.67728" lon="6.69381">
        <ele>1063</ele>
        <time>2021-12-29T03:46:19Z</time>
      </trkpt>
      <trkpt lat="44.67738" lon="6.69388">
        <ele>1064</ele>
        <time>2021-12-29T03:46:21Z</time>
      </trkpt>
      <trkpt lat="44.67755" lon="6.69407">
        <ele>1067</ele>
        <time>2021-12-29T03:46:25Z</time>
      </trkpt>
      <trkpt lat="44.67809" lon="6.69488">
        <ele>1072</ele>
        <time>2021-12-29T03:46:39Z</time>
      </trkpt>
      <trkpt lat="44.67816" lon="6.69495">
        <ele>1070</ele>
        <time>2021-12-29T03:46:41Z</time>
      </trkpt>
      <trkpt lat="44.67823" lon="6.69499">
        <ele>1069</ele>
        <time>2021-12-29T03:46:42Z</time>
      </trkpt>
      <trkpt lat="44.67868" lon="6.69505">
        <ele>1074</ele>
        <time>2021-12-29T03:46:50Z</time>
      </trkpt>
      <trkpt lat="44.67879" lon="6.69508">
        <ele>1076</ele>
        <time>2021-12-29T03:46:52Z</time>
      </trkpt>
      <trkpt lat="44.67887" lon="6.69514">
        <ele>1078</ele>
        <time>2021-12-29T03:46:54Z</time>
      </trkpt>
      <trkpt lat="44.67901" lon="6.69527">
        <ele>1078</ele>
        <time>2021-12-29T03:46:57Z</time>
      </trkpt>
      <trkpt lat="44.67926" lon="6.69543">
        <ele>1078</ele>
        <time>2021-12-29T03:47:01Z</time>
      </trkpt>
      <trkpt lat="44.67939" lon="6.69548">
        <ele>1078</ele>
        <time>2021-12-29T03:47:04Z</time>
      </trkpt>
      <trkpt lat="44.68022" lon="6.69565">
        <ele>1082</ele>
        <time>2021-12-29T03:47:19Z</time>
      </trkpt>
      <trkpt lat="44.68049" lon="6.69581">
        <ele>1082</ele>
        <time>2021-12-29T03:47:24Z</time>
      </trkpt>
      <trkpt lat="44.68061" lon="6.69591">
        <ele>1082</ele>
        <time>2021-12-29T03:47:26Z</time>
      </trkpt>
      <trkpt lat="44.68076" lon="6.69606">
        <ele>1082</ele>
        <time>2021-12-29T03:47:30Z</time>
      </trkpt>
      <trkpt lat="44.6812" lon="6.69668">
        <ele>1078</ele>
        <time>2021-12-29T03:47:41Z</time>
      </trkpt>
      <trkpt lat="44.68135" lon="6.69686">
        <ele>1081</ele>
        <time>2021-12-29T03:47:44Z</time>
      </trkpt>
      <trkpt lat="44.68187" lon="6.69729">
        <ele>1079</ele>
        <time>2021-12-29T03:47:55Z</time>
      </trkpt>
      <trkpt lat="44.682" lon="6.69734">
        <ele>1079</ele>
        <time>2021-12-29T03:47:57Z</time>
      </trkpt>
      <trkpt lat="44.68215" lon="6.69735">
        <ele>1079</ele>
        <time>2021-12-29T03:48:00Z</time>
      </trkpt>
      <trkpt lat="44.6826" lon="6.69725">
        <ele>1085</ele>
        <time>2021-12-29T03:48:08Z</time>
      </trkpt>
      <trkpt lat="44.68361" lon="6.69742">
        <ele>1086</ele>
        <time>2021-12-29T03:48:26Z</time>
      </trkpt>
      <trkpt lat="44.68376" lon="6.69749">
        <ele>1087</ele>
        <time>2021-12-29T03:48:29Z</time>
      </trkpt>
      <trkpt lat="44.68391" lon="6.69758">
        <ele>1090</ele>
        <time>2021-12-29T03:48:32Z</time>
      </trkpt>
      <trkpt lat="44.68404" lon="6.69769">
        <ele>1092</ele>
        <time>2021-12-29T03:48:35Z</time>
      </trkpt>
      <trkpt lat="44.68424" lon="6.69795">
        <ele>1090</ele>
        <time>2021-12-29T03:48:40Z</time>
      </trkpt>
      <trkpt lat="44.68436" lon="6.69806">
        <ele>1089</ele>
        <time>2021-12-29T03:48:42Z</time>
      </trkpt>
      <trkpt lat="44.6845" lon="6.69813">
        <ele>1088</ele>
        <time>2021-12-29T03:48:45Z</time>
      </trkpt>
      <trkpt lat="44.68466" lon="6.69815">
        <ele>1089</ele>
        <time>2021-12-29T03:48:48Z</time>
      </trkpt>
      <trkpt lat="44.68505" lon="6.69813">
        <ele>1093</ele>
        <time>2021-12-29T03:48:55Z</time>
      </trkpt>
      <trkpt lat="44.68587" lon="6.69821">
        <ele>1088</ele>
        <time>2021-12-29T03:49:09Z</time>
      </trkpt>
      <trkpt lat="44.68617" lon="6.69828">
        <ele>1085</ele>
        <time>2021-12-29T03:49:15Z</time>
      </trkpt>
      <trkpt lat="44.68654" lon="6.69839">
        <ele>1084</ele>
        <time>2021-12-29T03:49:21Z</time>
      </trkpt>
      <trkpt lat="44.68676" lon="6.69848">
        <ele>1086</ele>
        <time>2021-12-29T03:49:25Z</time>
      </trkpt>
      <trkpt lat="44.68702" lon="6.69863">
        <ele>1090</ele>
        <time>2021-12-29T03:49:30Z</time>
      </trkpt>
      <trkpt lat="44.68728" lon="6.69882">
        <ele>1090</ele>
        <time>2021-12-29T03:49:36Z</time>
      </trkpt>
      <trkpt lat="44.68839" lon="6.69962">
        <ele>1102</ele>
        <time>2021-12-29T03:49:58Z</time>
      </trkpt>
      <trkpt lat="44.69159" lon="6.70239">
        <ele>1098</ele>
        <time>2021-12-29T03:51:05Z</time>
      </trkpt>
      <trkpt lat="44.69181" lon="6.7026">
        <ele>1100</ele>
        <time>2021-12-29T03:51:09Z</time>
      </trkpt>
      <trkpt lat="44.69217" lon="6.70306">
        <ele>1106</ele>
        <time>2021-12-29T03:51:18Z</time>
      </trkpt>
      <trkpt lat="44.69234" lon="6.70333">
        <ele>1103</ele>
        <time>2021-12-29T03:51:23Z</time>
      </trkpt>
      <trkpt lat="44.69271" lon="6.70408">
        <ele>1103</ele>
        <time>2021-12-29T03:51:34Z</time>
      </trkpt>
      <trkpt lat="44.6929" lon="6.7044">
        <ele>1106</ele>
        <time>2021-12-29T03:51:39Z</time>
      </trkpt>
      <trkpt lat="44.69314" lon="6.70468">
        <ele>1107</ele>
        <time>2021-12-29T03:51:45Z</time>
      </trkpt>
      <trkpt lat="44.69337" lon="6.70491">
        <ele>1104</ele>
        <time>2021-12-29T03:51:50Z</time>
      </trkpt>
      <trkpt lat="44.69359" lon="6.70507">
        <ele>1106</ele>
        <time>2021-12-29T03:51:54Z</time>
      </trkpt>
      <trkpt lat="44.69413" lon="6.7054">
        <ele>1110</ele>
        <time>2021-12-29T03:52:05Z</time>
      </trkpt>
      <trkpt lat="44.69543" lon="6.70605">
        <ele>1117</ele>
        <time>2021-12-29T03:52:29Z</time>
      </trkpt>
      <trkpt lat="44.69567" lon="6.70621">
        <ele>1119</ele>
        <time>2021-12-29T03:52:34Z</time>
      </trkpt>
      <trkpt lat="44.69591" lon="6.70642">
        <ele>1117</ele>
        <time>2021-12-29T03:52:39Z</time>
      </trkpt>
      <trkpt lat="44.69668" lon="6.70727">
        <ele>1118</ele>
        <time>2021-12-29T03:52:57Z</time>
      </trkpt>
      <trkpt lat="44.69801" lon="6.70879">
        <ele>1132</ele>
        <time>2021-12-29T03:53:27Z</time>
      </trkpt>
      <trkpt lat="44.69822" lon="6.70908">
        <ele>1126</ele>
        <time>2021-12-29T03:53:32Z</time>
      </trkpt>
      <trkpt lat="44.69884" lon="6.71017">
        <ele>1143</ele>
        <time>2021-12-29T03:53:50Z</time>
      </trkpt>
      <trkpt lat="44.69969" lon="6.71166">
        <ele>1152</ele>
        <time>2021-12-29T03:54:14Z</time>
      </trkpt>
      <trkpt lat="44.6999" lon="6.71217">
        <ele>1154</ele>
        <time>2021-12-29T03:54:22Z</time>
      </trkpt>
      <trkpt lat="44.7001" lon="6.71286">
        <ele>1151</ele>
        <time>2021-12-29T03:54:31Z</time>
      </trkpt>
      <trkpt lat="44.70026" lon="6.71331">
        <ele>1154</ele>
        <time>2021-12-29T03:54:37Z</time>
      </trkpt>
      <trkpt lat="44.70079" lon="6.71442">
        <ele>1150</ele>
        <time>2021-12-29T03:54:54Z</time>
      </trkpt>
      <trkpt lat="44.70088" lon="6.71466">
        <ele>1148</ele>
        <time>2021-12-29T03:54:58Z</time>
      </trkpt>
      <trkpt lat="44.70101" lon="6.71506">
        <ele>1149</ele>
        <time>2021-12-29T03:55:03Z</time>
      </trkpt>
      <trkpt lat="44.70115" lon="6.71546">
        <ele>1153</ele>
        <time>2021-12-29T03:55:09Z</time>
      </trkpt>
      <trkpt lat="44.7013" lon="6.71573">
        <ele>1154</ele>
        <time>2021-12-29T03:55:13Z</time>
      </trkpt>
      <trkpt lat="44.70155" lon="6.71604">
        <ele>1153</ele>
        <time>2021-12-29T03:55:19Z</time>
      </trkpt>
      <trkpt lat="44.70219" lon="6.71663">
        <ele>1156</ele>
        <time>2021-12-29T03:55:33Z</time>
      </trkpt>
      <trkpt lat="44.70232" lon="6.71679">
        <ele>1157</ele>
        <time>2021-12-29T03:55:36Z</time>
      </trkpt>
      <trkpt lat="44.70245" lon="6.71701">
        <ele>1156</ele>
        <time>2021-12-29T03:55:40Z</time>
      </trkpt>
      <trkpt lat="44.70255" lon="6.71724">
        <ele>1154</ele>
        <time>2021-12-29T03:55:43Z</time>
      </trkpt>
      <trkpt lat="44.70287" lon="6.71814">
        <ele>1155</ele>
        <time>2021-12-29T03:55:56Z</time>
      </trkpt>
      <trkpt lat="44.70297" lon="6.71835">
        <ele>1156</ele>
        <time>2021-12-29T03:55:59Z</time>
      </trkpt>
      <trkpt lat="44.7031" lon="6.71853">
        <ele>1159</ele>
        <time>2021-12-29T03:56:02Z</time>
      </trkpt>
      <trkpt lat="44.70324" lon="6.7187">
        <ele>1159</ele>
        <time>2021-12-29T03:56:05Z</time>
      </trkpt>
      <trkpt lat="44.70339" lon="6.71882">
        <ele>1159</ele>
        <time>2021-12-29T03:56:08Z</time>
      </trkpt>
      <trkpt lat="44.70443" lon="6.71938">
        <ele>1181</ele>
        <time>2021-12-29T03:56:28Z</time>
      </trkpt>
      <trkpt lat="44.70475" lon="6.71967">
        <ele>1186</ele>
        <time>2021-12-29T03:56:35Z</time>
      </trkpt>
      <trkpt lat="44.70487" lon="6.71984">
        <ele>1182</ele>
        <time>2021-12-29T03:56:38Z</time>
      </trkpt>
      <trkpt lat="44.70498" lon="6.72005">
        <ele>1175</ele>
        <time>2021-12-29T03:56:41Z</time>
      </trkpt>
      <trkpt lat="44.70506" lon="6.72025">
        <ele>1178</ele>
        <time>2021-12-29T03:56:44Z</time>
      </trkpt>
      <trkpt lat="44.70513" lon="6.72045">
        <ele>1180</ele>
        <time>2021-12-29T03:56:47Z</time>
      </trkpt>
      <trkpt lat="44.70517" lon="6.72073">
        <ele>1176</ele>
        <time>2021-12-29T03:56:51Z</time>
      </trkpt>
      <trkpt lat="44.7052" lon="6.72101">
        <ele>1173</ele>
        <time>2021-12-29T03:56:54Z</time>
      </trkpt>
      <trkpt lat="44.70524" lon="6.72267">
        <ele>1163</ele>
        <time>2021-12-29T03:57:15Z</time>
      </trkpt>
      <trkpt lat="44.7053" lon="6.72302">
        <ele>1164</ele>
        <time>2021-12-29T03:57:20Z</time>
      </trkpt>
      <trkpt lat="44.70535" lon="6.72321">
        <ele>1165</ele>
        <time>2021-12-29T03:57:22Z</time>
      </trkpt>
      <trkpt lat="44.70551" lon="6.72371">
        <ele>1167</ele>
        <time>2021-12-29T03:57:29Z</time>
      </trkpt>
      <trkpt lat="44.70563" lon="6.72395">
        <ele>1168</ele>
        <time>2021-12-29T03:57:33Z</time>
      </trkpt>
      <trkpt lat="44.70581" lon="6.72425">
        <ele>1167</ele>
        <time>2021-12-29T03:57:38Z</time>
      </trkpt>
      <trkpt lat="44.70629" lon="6.72496">
        <ele>1167</ele>
        <time>2021-12-29T03:57:50Z</time>
      </trkpt>
      <trkpt lat="44.70656" lon="6.72545">
        <ele>1167</ele>
        <time>2021-12-29T03:57:58Z</time>
      </trkpt>
      <trkpt lat="44.70825" lon="6.72906">
        <ele>1176</ele>
        <time>2021-12-29T03:58:53Z</time>
      </trkpt>
      <trkpt lat="44.70854" lon="6.7298">
        <ele>1182</ele>
        <time>2021-12-29T03:59:04Z</time>
      </trkpt>
      <trkpt lat="44.70869" lon="6.7302">
        <ele>1189</ele>
        <time>2021-12-29T03:59:09Z</time>
      </trkpt>
      <trkpt lat="44.70897" lon="6.73133">
        <ele>1190</ele>
        <time>2021-12-29T03:59:24Z</time>
      </trkpt>
      <trkpt lat="44.70901" lon="6.73163">
        <ele>1185</ele>
        <time>2021-12-29T03:59:28Z</time>
      </trkpt>
      <trkpt lat="44.70902" lon="6.73186">
        <ele>1183</ele>
        <time>2021-12-29T03:59:31Z</time>
      </trkpt>
      <trkpt lat="44.70901" lon="6.73209">
        <ele>1182</ele>
        <time>2021-12-29T03:59:34Z</time>
      </trkpt>
      <trkpt lat="44.70892" lon="6.73256">
        <ele>1180</ele>
        <time>2021-12-29T03:59:40Z</time>
      </trkpt>
      <trkpt lat="44.7088" lon="6.73287">
        <ele>1180</ele>
        <time>2021-12-29T03:59:45Z</time>
      </trkpt>
      <trkpt lat="44.70851" lon="6.73351">
        <ele>1176</ele>
        <time>2021-12-29T03:59:54Z</time>
      </trkpt>
      <trkpt lat="44.70834" lon="6.7341">
        <ele>1175</ele>
        <time>2021-12-29T04:00:02Z</time>
      </trkpt>
      <trkpt lat="44.70828" lon="6.73441">
        <ele>1180</ele>
        <time>2021-12-29T04:00:06Z</time>
      </trkpt>
      <trkpt lat="44.70825" lon="6.73471">
        <ele>1185</ele>
        <time>2021-12-29T04:00:10Z</time>
      </trkpt>
      <trkpt lat="44.70823" lon="6.73506">
        <ele>1190</ele>
        <time>2021-12-29T04:00:15Z</time>
      </trkpt>
      <trkpt lat="44.70825" lon="6.73543">
        <ele>1189</ele>
        <time>2021-12-29T04:00:19Z</time>
      </trkpt>
      <trkpt lat="44.70829" lon="6.73575">
        <ele>1187</ele>
        <time>2021-12-29T04:00:24Z</time>
      </trkpt>
      <trkpt lat="44.70836" lon="6.73612">
        <ele>1186</ele>
        <time>2021-12-29T04:00:28Z</time>
      </trkpt>
      <trkpt lat="44.70856" lon="6.73673">
        <ele>1191</ele>
        <time>2021-12-29T04:00:37Z</time>
      </trkpt>
      <trkpt lat="44.71056" lon="6.7407">
        <ele>1205</ele>
        <time>2021-12-29T04:01:38Z</time>
      </trkpt>
      <trkpt lat="44.71089" lon="6.74126">
        <ele>1199</ele>
        <time>2021-12-29T04:01:48Z</time>
      </trkpt>
      <trkpt lat="44.71106" lon="6.7415">
        <ele>1201</ele>
        <time>2021-12-29T04:01:52Z</time>
      </trkpt>
      <trkpt lat="44.71164" lon="6.74207">
        <ele>1210</ele>
        <time>2021-12-29T04:02:05Z</time>
      </trkpt>
      <trkpt lat="44.71176" lon="6.74223">
        <ele>1213</ele>
        <time>2021-12-29T04:02:07Z</time>
      </trkpt>
      <trkpt lat="44.71191" lon="6.74254">
        <ele>1214</ele>
        <time>2021-12-29T04:02:12Z</time>
      </trkpt>
      <trkpt lat="44.712" lon="6.74286">
        <ele>1214</ele>
        <time>2021-12-29T04:02:17Z</time>
      </trkpt>
      <trkpt lat="44.71209" lon="6.74343">
        <ele>1205</ele>
        <time>2021-12-29T04:02:24Z</time>
      </trkpt>
      <trkpt lat="44.71215" lon="6.74366">
        <ele>1206</ele>
        <time>2021-12-29T04:02:27Z</time>
      </trkpt>
      <trkpt lat="44.71232" lon="6.7441">
        <ele>1205</ele>
        <time>2021-12-29T04:02:33Z</time>
      </trkpt>
      <trkpt lat="44.71393" lon="6.74729">
        <ele>1207</ele>
        <time>2021-12-29T04:03:23Z</time>
      </trkpt>
      <trkpt lat="44.71493" lon="6.7492">
        <ele>1208</ele>
        <time>2021-12-29T04:03:53Z</time>
      </trkpt>
      <trkpt lat="44.71511" lon="6.74965">
        <ele>1206</ele>
        <time>2021-12-29T04:03:59Z</time>
      </trkpt>
      <trkpt lat="44.71522" lon="6.74999">
        <ele>1204</ele>
        <time>2021-12-29T04:04:04Z</time>
      </trkpt>
      <trkpt lat="44.71542" lon="6.75078">
        <ele>1210</ele>
        <time>2021-12-29T04:04:15Z</time>
      </trkpt>
      <trkpt lat="44.71551" lon="6.75122">
        <ele>1213</ele>
        <time>2021-12-29T04:04:20Z</time>
      </trkpt>
      <trkpt lat="44.71557" lon="6.75166">
        <ele>1216</ele>
        <time>2021-12-29T04:04:26Z</time>
      </trkpt>
      <trkpt lat="44.71575" lon="6.75455">
        <ele>1222</ele>
        <time>2021-12-29T04:05:03Z</time>
      </trkpt>
      <trkpt lat="44.71587" lon="6.75611">
        <ele>1216</ele>
        <time>2021-12-29T04:05:23Z</time>
      </trkpt>
      <trkpt lat="44.71592" lon="6.75643">
        <ele>1218</ele>
        <time>2021-12-29T04:05:27Z</time>
      </trkpt>
      <trkpt lat="44.71599" lon="6.7567">
        <ele>1222</ele>
        <time>2021-12-29T04:05:30Z</time>
      </trkpt>
      <trkpt lat="44.71617" lon="6.75723">
        <ele>1226</ele>
        <time>2021-12-29T04:05:38Z</time>
      </trkpt>
      <trkpt lat="44.71645" lon="6.75787">
        <ele>1225</ele>
        <time>2021-12-29T04:05:47Z</time>
      </trkpt>
      <trkpt lat="44.71734" lon="6.75982">
        <ele>1219</ele>
        <time>2021-12-29T04:06:17Z</time>
      </trkpt>
      <trkpt lat="44.71762" lon="6.7603">
        <ele>1219</ele>
        <time>2021-12-29T04:06:25Z</time>
      </trkpt>
      <trkpt lat="44.7178" lon="6.76053">
        <ele>1221</ele>
        <time>2021-12-29T04:06:29Z</time>
      </trkpt>
      <trkpt lat="44.71803" lon="6.76077">
        <ele>1222</ele>
        <time>2021-12-29T04:06:34Z</time>
      </trkpt>
      <trkpt lat="44.71829" lon="6.76098">
        <ele>1224</ele>
        <time>2021-12-29T04:06:39Z</time>
      </trkpt>
      <trkpt lat="44.71866" lon="6.76122">
        <ele>1225</ele>
        <time>2021-12-29T04:06:47Z</time>
      </trkpt>
      <trkpt lat="44.7193" lon="6.76148">
        <ele>1223</ele>
        <time>2021-12-29T04:06:58Z</time>
      </trkpt>
      <trkpt lat="44.71965" lon="6.7616">
        <ele>1222</ele>
        <time>2021-12-29T04:07:05Z</time>
      </trkpt>
      <trkpt lat="44.72107" lon="6.76211">
        <ele>1245</ele>
        <time>2021-12-29T04:07:31Z</time>
      </trkpt>
      <trkpt lat="44.7218" lon="6.76241">
        <ele>1277</ele>
        <time>2021-12-29T04:07:44Z</time>
      </trkpt>
      <trkpt lat="44.722" lon="6.76247">
        <ele>1281</ele>
        <time>2021-12-29T04:07:48Z</time>
      </trkpt>
      <trkpt lat="44.72222" lon="6.7625">
        <ele>1285</ele>
        <time>2021-12-29T04:07:52Z</time>
      </trkpt>
      <trkpt lat="44.72249" lon="6.7625">
        <ele>1289</ele>
        <time>2021-12-29T04:07:57Z</time>
      </trkpt>
      <trkpt lat="44.72342" lon="6.76243">
        <ele>1310</ele>
        <time>2021-12-29T04:08:13Z</time>
      </trkpt>
      <trkpt lat="44.72381" lon="6.76246">
        <ele>1317</ele>
        <time>2021-12-29T04:08:20Z</time>
      </trkpt>
      <trkpt lat="44.72402" lon="6.76253">
        <ele>1320</ele>
        <time>2021-12-29T04:08:24Z</time>
      </trkpt>
      <trkpt lat="44.7242" lon="6.76262">
        <ele>1324</ele>
        <time>2021-12-29T04:08:28Z</time>
      </trkpt>
      <trkpt lat="44.72437" lon="6.76273">
        <ele>1327</ele>
        <time>2021-12-29T04:08:31Z</time>
      </trkpt>
      <trkpt lat="44.72509" lon="6.7634">
        <ele>1308</ele>
        <time>2021-12-29T04:08:46Z</time>
      </trkpt>
      <trkpt lat="44.72523" lon="6.7635">
        <ele>1314</ele>
        <time>2021-12-29T04:08:49Z</time>
      </trkpt>
      <trkpt lat="44.72637" lon="6.76394">
        <ele>1307</ele>
        <time>2021-12-29T04:09:10Z</time>
      </trkpt>
      <trkpt lat="44.72654" lon="6.76398">
        <ele>1305</ele>
        <time>2021-12-29T04:09:13Z</time>
      </trkpt>
      <trkpt lat="44.72774" lon="6.76417">
        <ele>1313</ele>
        <time>2021-12-29T04:09:35Z</time>
      </trkpt>
      <trkpt lat="44.7281" lon="6.76419">
        <ele>1313</ele>
        <time>2021-12-29T04:09:41Z</time>
      </trkpt>
      <trkpt lat="44.72879" lon="6.76397">
        <ele>1312</ele>
        <time>2021-12-29T04:09:54Z</time>
      </trkpt>
      <trkpt lat="44.72907" lon="6.76396">
        <ele>1307</ele>
        <time>2021-12-29T04:09:59Z</time>
      </trkpt>
      <trkpt lat="44.72929" lon="6.764">
        <ele>1302</ele>
        <time>2021-12-29T04:10:03Z</time>
      </trkpt>
      <trkpt lat="44.72947" lon="6.76406">
        <ele>1296</ele>
        <time>2021-12-29T04:10:06Z</time>
      </trkpt>
      <trkpt lat="44.72976" lon="6.76424">
        <ele>1282</ele>
        <time>2021-12-29T04:10:11Z</time>
      </trkpt>
      <trkpt lat="44.72988" lon="6.76433">
        <ele>1279</ele>
        <time>2021-12-29T04:10:14Z</time>
      </trkpt>
      <trkpt lat="44.73014" lon="6.76462">
        <ele>1281</ele>
        <time>2021-12-29T04:10:20Z</time>
      </trkpt>
      <trkpt lat="44.73062" lon="6.76539">
        <ele>1279</ele>
        <time>2021-12-29T04:10:33Z</time>
      </trkpt>
      <trkpt lat="44.7312" lon="6.76655">
        <ele>1269</ele>
        <time>2021-12-29T04:10:51Z</time>
      </trkpt>
      <trkpt lat="44.73132" lon="6.76672">
        <ele>1268</ele>
        <time>2021-12-29T04:10:54Z</time>
      </trkpt>
      <trkpt lat="44.73145" lon="6.76686">
        <ele>1269</ele>
        <time>2021-12-29T04:10:57Z</time>
      </trkpt>
      <trkpt lat="44.7316" lon="6.76696">
        <ele>1267</ele>
        <time>2021-12-29T04:11:00Z</time>
      </trkpt>
      <trkpt lat="44.73175" lon="6.76703">
        <ele>1266</ele>
        <time>2021-12-29T04:11:02Z</time>
      </trkpt>
      <trkpt lat="44.7328" lon="6.76719">
        <ele>1276</ele>
        <time>2021-12-29T04:11:21Z</time>
      </trkpt>
      <trkpt lat="44.73325" lon="6.76733">
        <ele>1274</ele>
        <time>2021-12-29T04:11:29Z</time>
      </trkpt>
      <trkpt lat="44.735" lon="6.7681">
        <ele>1273</ele>
        <time>2021-12-29T04:12:02Z</time>
      </trkpt>
      <trkpt lat="44.73522" lon="6.76816">
        <ele>1272</ele>
        <time>2021-12-29T04:12:06Z</time>
      </trkpt>
      <trkpt lat="44.73567" lon="6.76822">
        <ele>1272</ele>
        <time>2021-12-29T04:12:14Z</time>
      </trkpt>
      <trkpt lat="44.73639" lon="6.76824">
        <ele>1273</ele>
        <time>2021-12-29T04:12:27Z</time>
      </trkpt>
      <trkpt lat="44.73663" lon="6.76827">
        <ele>1273</ele>
        <time>2021-12-29T04:12:31Z</time>
      </trkpt>
      <trkpt lat="44.73741" lon="6.76845">
        <ele>1274</ele>
        <time>2021-12-29T04:12:45Z</time>
      </trkpt>
      <trkpt lat="44.73769" lon="6.76851">
        <ele>1279</ele>
        <time>2021-12-29T04:12:50Z</time>
      </trkpt>
      <trkpt lat="44.73791" lon="6.7685">
        <ele>1284</ele>
        <time>2021-12-29T04:12:54Z</time>
      </trkpt>
      <trkpt lat="44.73801" lon="6.76847">
        <ele>1285</ele>
        <time>2021-12-29T04:12:56Z</time>
      </trkpt>
      <trkpt lat="44.73814" lon="6.76836">
        <ele>1287</ele>
        <time>2021-12-29T04:12:59Z</time>
      </trkpt>
      <trkpt lat="44.73822" lon="6.76828">
        <ele>1288</ele>
        <time>2021-12-29T04:13:00Z</time>
      </trkpt>
      <trkpt lat="44.73885" lon="6.76747">
        <ele>1295</ele>
        <time>2021-12-29T04:13:16Z</time>
      </trkpt>
      <trkpt lat="44.73946" lon="6.76684">
        <ele>1301</ele>
        <time>2021-12-29T04:13:29Z</time>
      </trkpt>
      <trkpt lat="44.73962" lon="6.76672">
        <ele>1301</ele>
        <time>2021-12-29T04:13:32Z</time>
      </trkpt>
      <trkpt lat="44.73975" lon="6.76665">
        <ele>1301</ele>
        <time>2021-12-29T04:13:35Z</time>
      </trkpt>
      <trkpt lat="44.73987" lon="6.76661">
        <ele>1302</ele>
        <time>2021-12-29T04:13:37Z</time>
      </trkpt>
      <trkpt lat="44.74028" lon="6.76666">
        <ele>1305</ele>
        <time>2021-12-29T04:13:44Z</time>
      </trkpt>
      <trkpt lat="44.74044" lon="6.76663">
        <ele>1306</ele>
        <time>2021-12-29T04:13:47Z</time>
      </trkpt>
      <trkpt lat="44.7406" lon="6.76659">
        <ele>1308</ele>
        <time>2021-12-29T04:13:50Z</time>
      </trkpt>
      <trkpt lat="44.74095" lon="6.76643">
        <ele>1309</ele>
        <time>2021-12-29T04:13:57Z</time>
      </trkpt>
      <trkpt lat="44.74108" lon="6.76639">
        <ele>1310</ele>
        <time>2021-12-29T04:13:59Z</time>
      </trkpt>
      <trkpt lat="44.74119" lon="6.76638">
        <ele>1311</ele>
        <time>2021-12-29T04:14:01Z</time>
      </trkpt>
      <trkpt lat="44.74136" lon="6.76641">
        <ele>1312</ele>
        <time>2021-12-29T04:14:04Z</time>
      </trkpt>
      <trkpt lat="44.74212" lon="6.76672">
        <ele>1318</ele>
        <time>2021-12-29T04:14:18Z</time>
      </trkpt>
      <trkpt lat="44.7425" lon="6.7668">
        <ele>1322</ele>
        <time>2021-12-29T04:14:25Z</time>
      </trkpt>
      <trkpt lat="44.74265" lon="6.76687">
        <ele>1324</ele>
        <time>2021-12-29T04:14:28Z</time>
      </trkpt>
      <trkpt lat="44.74274" lon="6.76695">
        <ele>1326</ele>
        <time>2021-12-29T04:14:30Z</time>
      </trkpt>
      <trkpt lat="44.74306" lon="6.76734">
        <ele>1331</ele>
        <time>2021-12-29T04:14:37Z</time>
      </trkpt>
      <trkpt lat="44.74316" lon="6.76742">
        <ele>1329</ele>
        <time>2021-12-29T04:14:39Z</time>
      </trkpt>
      <trkpt lat="44.74337" lon="6.76748">
        <ele>1325</ele>
        <time>2021-12-29T04:14:43Z</time>
      </trkpt>
      <trkpt lat="44.74349" lon="6.76748">
        <ele>1326</ele>
        <time>2021-12-29T04:14:45Z</time>
      </trkpt>
      <trkpt lat="44.74357" lon="6.76752">
        <ele>1327</ele>
        <time>2021-12-29T04:14:47Z</time>
      </trkpt>
      <trkpt lat="44.74363" lon="6.76757">
        <ele>1330</ele>
        <time>2021-12-29T04:14:48Z</time>
      </trkpt>
      <trkpt lat="44.74375" lon="6.76777">
        <ele>1337</ele>
        <time>2021-12-29T04:14:51Z</time>
      </trkpt>
      <trkpt lat="44.74386" lon="6.76808">
        <ele>1347</ele>
        <time>2021-12-29T04:14:56Z</time>
      </trkpt>
      <trkpt lat="44.74391" lon="6.76815">
        <ele>1349</ele>
        <time>2021-12-29T04:14:57Z</time>
      </trkpt>
      <trkpt lat="44.74396" lon="6.76819">
        <ele>1350</ele>
        <time>2021-12-29T04:14:58Z</time>
      </trkpt>
      <trkpt lat="44.74407" lon="6.76818">
        <ele>1349</ele>
        <time>2021-12-29T04:15:00Z</time>
      </trkpt>
      <trkpt lat="44.74412" lon="6.76809">
        <ele>1346</ele>
        <time>2021-12-29T04:15:01Z</time>
      </trkpt>
      <trkpt lat="44.74413" lon="6.76795">
        <ele>1342</ele>
        <time>2021-12-29T04:15:03Z</time>
      </trkpt>
      <trkpt lat="44.74409" lon="6.76762">
        <ele>1334</ele>
        <time>2021-12-29T04:15:07Z</time>
      </trkpt>
      <trkpt lat="44.74413" lon="6.7674">
        <ele>1331</ele>
        <time>2021-12-29T04:15:10Z</time>
      </trkpt>
      <trkpt lat="44.74421" lon="6.76725">
        <ele>1334</ele>
        <time>2021-12-29T04:15:12Z</time>
      </trkpt>
      <trkpt lat="44.74431" lon="6.76719">
        <ele>1337</ele>
        <time>2021-12-29T04:15:14Z</time>
      </trkpt>
      <trkpt lat="44.74437" lon="6.76718">
        <ele>1339</ele>
        <time>2021-12-29T04:15:15Z</time>
      </trkpt>
      <trkpt lat="44.74447" lon="6.76721">
        <ele>1342</ele>
        <time>2021-12-29T04:15:17Z</time>
      </trkpt>
      <trkpt lat="44.74454" lon="6.76732">
        <ele>1345</ele>
        <time>2021-12-29T04:15:19Z</time>
      </trkpt>
      <trkpt lat="44.74457" lon="6.76748">
        <ele>1347</ele>
        <time>2021-12-29T04:15:21Z</time>
      </trkpt>
      <trkpt lat="44.74456" lon="6.76768">
        <ele>1351</ele>
        <time>2021-12-29T04:15:24Z</time>
      </trkpt>
      <trkpt lat="44.74438" lon="6.76826">
        <ele>1358</ele>
        <time>2021-12-29T04:15:32Z</time>
      </trkpt>
      <trkpt lat="44.74434" lon="6.76844">
        <ele>1360</ele>
        <time>2021-12-29T04:15:34Z</time>
      </trkpt>
      <trkpt lat="44.74433" lon="6.76882">
        <ele>1364</ele>
        <time>2021-12-29T04:15:39Z</time>
      </trkpt>
      <trkpt lat="44.74441" lon="6.76933">
        <ele>1369</ele>
        <time>2021-12-29T04:15:46Z</time>
      </trkpt>
      <trkpt lat="44.74448" lon="6.76957">
        <ele>1367</ele>
        <time>2021-12-29T04:15:49Z</time>
      </trkpt>
      <trkpt lat="44.74456" lon="6.76969">
        <ele>1366</ele>
        <time>2021-12-29T04:15:51Z</time>
      </trkpt>
      <trkpt lat="44.74464" lon="6.76978">
        <ele>1364</ele>
        <time>2021-12-29T04:15:53Z</time>
      </trkpt>
      <trkpt lat="44.74502" lon="6.77001">
        <ele>1356</ele>
        <time>2021-12-29T04:16:00Z</time>
      </trkpt>
      <trkpt lat="44.74549" lon="6.77012">
        <ele>1359</ele>
        <time>2021-12-29T04:16:09Z</time>
      </trkpt>
      <trkpt lat="44.74567" lon="6.77024">
        <ele>1357</ele>
        <time>2021-12-29T04:16:12Z</time>
      </trkpt>
      <trkpt lat="44.74583" lon="6.77032">
        <ele>1356</ele>
        <time>2021-12-29T04:16:15Z</time>
      </trkpt>
      <trkpt lat="44.74635" lon="6.77046">
        <ele>1358</ele>
        <time>2021-12-29T04:16:25Z</time>
      </trkpt>
      <trkpt lat="44.7467" lon="6.77069">
        <ele>1356</ele>
        <time>2021-12-29T04:16:31Z</time>
      </trkpt>
      <trkpt lat="44.74683" lon="6.77081">
        <ele>1356</ele>
        <time>2021-12-29T04:16:34Z</time>
      </trkpt>
      <trkpt lat="44.74744" lon="6.77158">
        <ele>1357</ele>
        <time>2021-12-29T04:16:49Z</time>
      </trkpt>
      <trkpt lat="44.7476" lon="6.77183">
        <ele>1358</ele>
        <time>2021-12-29T04:16:53Z</time>
      </trkpt>
      <trkpt lat="44.74787" lon="6.77231">
        <ele>1358</ele>
        <time>2021-12-29T04:17:01Z</time>
      </trkpt>
      <trkpt lat="44.74803" lon="6.77252">
        <ele>1358</ele>
        <time>2021-12-29T04:17:05Z</time>
      </trkpt>
      <trkpt lat="44.74813" lon="6.77232">
        <ele>1367</ele>
        <time>2021-12-29T04:17:08Z</time>
      </trkpt>
      <trkpt lat="44.74814" lon="6.77226">
        <ele>1369</ele>
        <time>2021-12-29T04:17:09Z</time>
      </trkpt>
      <trkpt lat="44.74811" lon="6.77213">
        <ele>1372</ele>
        <time>2021-12-29T04:17:10Z</time>
      </trkpt>
      <trkpt lat="44.74793" lon="6.77183">
        <ele>1372</ele>
        <time>2021-12-29T04:17:15Z</time>
      </trkpt>
      <trkpt lat="44.74786" lon="6.77168">
        <ele>1373</ele>
        <time>2021-12-29T04:17:17Z</time>
      </trkpt>
      <trkpt lat="44.74779" lon="6.77147">
        <ele>1374</ele>
        <time>2021-12-29T04:17:20Z</time>
      </trkpt>
      <trkpt lat="44.74773" lon="6.77134">
        <ele>1374</ele>
        <time>2021-12-29T04:17:22Z</time>
      </trkpt>
      <trkpt lat="44.74753" lon="6.77116">
        <ele>1368</ele>
        <time>2021-12-29T04:17:27Z</time>
      </trkpt>
      <trkpt lat="44.74746" lon="6.77107">
        <ele>1367</ele>
        <time>2021-12-29T04:17:28Z</time>
      </trkpt>
      <trkpt lat="44.74727" lon="6.77064">
        <ele>1371</ele>
        <time>2021-12-29T04:17:35Z</time>
      </trkpt>
      <trkpt lat="44.74713" lon="6.77038">
        <ele>1374</ele>
        <time>2021-12-29T04:17:39Z</time>
      </trkpt>
      <trkpt lat="44.74708" lon="6.77027">
        <ele>1375</ele>
        <time>2021-12-29T04:17:40Z</time>
      </trkpt>
      <trkpt lat="44.74707" lon="6.77016">
        <ele>1378</ele>
        <time>2021-12-29T04:17:42Z</time>
      </trkpt>
      <trkpt lat="44.74709" lon="6.77006">
        <ele>1380</ele>
        <time>2021-12-29T04:17:43Z</time>
      </trkpt>
      <trkpt lat="44.74713" lon="6.76998">
        <ele>1382</ele>
        <time>2021-12-29T04:17:44Z</time>
      </trkpt>
      <trkpt lat="44.74737" lon="6.76965">
        <ele>1386</ele>
        <time>2021-12-29T04:17:50Z</time>
      </trkpt>
      <trkpt lat="44.74757" lon="6.76931">
        <ele>1389</ele>
        <time>2021-12-29T04:17:56Z</time>
      </trkpt>
      <trkpt lat="44.74766" lon="6.76912">
        <ele>1391</ele>
        <time>2021-12-29T04:17:59Z</time>
      </trkpt>
      <trkpt lat="44.74774" lon="6.76891">
        <ele>1392</ele>
        <time>2021-12-29T04:18:02Z</time>
      </trkpt>
      <trkpt lat="44.74781" lon="6.76858">
        <ele>1391</ele>
        <time>2021-12-29T04:18:06Z</time>
      </trkpt>
      <trkpt lat="44.74791" lon="6.76782">
        <ele>1392</ele>
        <time>2021-12-29T04:18:16Z</time>
      </trkpt>
      <trkpt lat="44.74811" lon="6.76685">
        <ele>1393</ele>
        <time>2021-12-29T04:18:29Z</time>
      </trkpt>
      <trkpt lat="44.74816" lon="6.76673">
        <ele>1393</ele>
        <time>2021-12-29T04:18:30Z</time>
      </trkpt>
      <trkpt lat="44.74823" lon="6.76667">
        <ele>1393</ele>
        <time>2021-12-29T04:18:32Z</time>
      </trkpt>
      <trkpt lat="44.74839" lon="6.76664">
        <ele>1394</ele>
        <time>2021-12-29T04:18:35Z</time>
      </trkpt>
      <trkpt lat="44.74875" lon="6.76671">
        <ele>1401</ele>
        <time>2021-12-29T04:18:41Z</time>
      </trkpt>
      <trkpt lat="44.74895" lon="6.76673">
        <ele>1405</ele>
        <time>2021-12-29T04:18:45Z</time>
      </trkpt>
      <trkpt lat="44.74914" lon="6.76666">
        <ele>1406</ele>
        <time>2021-12-29T04:18:48Z</time>
      </trkpt>
      <trkpt lat="44.74927" lon="6.76658">
        <ele>1407</ele>
        <time>2021-12-29T04:18:51Z</time>
      </trkpt>
      <trkpt lat="44.7494" lon="6.76646">
        <ele>1406</ele>
        <time>2021-12-29T04:18:54Z</time>
      </trkpt>
      <trkpt lat="44.7495" lon="6.76641">
        <ele>1407</ele>
        <time>2021-12-29T04:18:56Z</time>
      </trkpt>
      <trkpt lat="44.74979" lon="6.76635">
        <ele>1413</ele>
        <time>2021-12-29T04:19:01Z</time>
      </trkpt>
      <trkpt lat="44.75006" lon="6.76624">
        <ele>1418</ele>
        <time>2021-12-29T04:19:06Z</time>
      </trkpt>
      <trkpt lat="44.75012" lon="6.76617">
        <ele>1418</ele>
        <time>2021-12-29T04:19:07Z</time>
      </trkpt>
      <trkpt lat="44.75016" lon="6.76607">
        <ele>1417</ele>
        <time>2021-12-29T04:19:09Z</time>
      </trkpt>
      <trkpt lat="44.75019" lon="6.76581">
        <ele>1411</ele>
        <time>2021-12-29T04:19:12Z</time>
      </trkpt>
      <trkpt lat="44.75022" lon="6.76567">
        <ele>1409</ele>
        <time>2021-12-29T04:19:14Z</time>
      </trkpt>
      <trkpt lat="44.7503" lon="6.76547">
        <ele>1408</ele>
        <time>2021-12-29T04:19:17Z</time>
      </trkpt>
      <trkpt lat="44.7504" lon="6.76523">
        <ele>1406</ele>
        <time>2021-12-29T04:19:20Z</time>
      </trkpt>
      <trkpt lat="44.7507" lon="6.76471">
        <ele>1410</ele>
        <time>2021-12-29T04:19:29Z</time>
      </trkpt>
      <trkpt lat="44.75091" lon="6.7642">
        <ele>1410</ele>
        <time>2021-12-29T04:19:36Z</time>
      </trkpt>
      <trkpt lat="44.75108" lon="6.76389">
        <ele>1414</ele>
        <time>2021-12-29T04:19:41Z</time>
      </trkpt>
      <trkpt lat="44.75116" lon="6.76362">
        <ele>1414</ele>
        <time>2021-12-29T04:19:45Z</time>
      </trkpt>
      <trkpt lat="44.75125" lon="6.76304">
        <ele>1411</ele>
        <time>2021-12-29T04:19:52Z</time>
      </trkpt>
      <trkpt lat="44.7513" lon="6.76295">
        <ele>1412</ele>
        <time>2021-12-29T04:19:54Z</time>
      </trkpt>
      <trkpt lat="44.75146" lon="6.76274">
        <ele>1415</ele>
        <time>2021-12-29T04:19:58Z</time>
      </trkpt>
      <trkpt lat="44.75158" lon="6.76235">
        <ele>1413</ele>
        <time>2021-12-29T04:20:03Z</time>
      </trkpt>
      <trkpt lat="44.75164" lon="6.76223">
        <ele>1413</ele>
        <time>2021-12-29T04:20:05Z</time>
      </trkpt>
      <trkpt lat="44.75188" lon="6.76196">
        <ele>1415</ele>
        <time>2021-12-29T04:20:10Z</time>
      </trkpt>
      <trkpt lat="44.75204" lon="6.76185">
        <ele>1418</ele>
        <time>2021-12-29T04:20:13Z</time>
      </trkpt>
      <trkpt lat="44.7523" lon="6.76173">
        <ele>1424</ele>
        <time>2021-12-29T04:20:18Z</time>
      </trkpt>
      <trkpt lat="44.75237" lon="6.76168">
        <ele>1424</ele>
        <time>2021-12-29T04:20:20Z</time>
      </trkpt>
      <trkpt lat="44.75244" lon="6.7616">
        <ele>1425</ele>
        <time>2021-12-29T04:20:21Z</time>
      </trkpt>
      <trkpt lat="44.75248" lon="6.76149">
        <ele>1425</ele>
        <time>2021-12-29T04:20:23Z</time>
      </trkpt>
      <trkpt lat="44.75255" lon="6.76093">
        <ele>1419</ele>
        <time>2021-12-29T04:20:30Z</time>
      </trkpt>
      <trkpt lat="44.7526" lon="6.76076">
        <ele>1419</ele>
        <time>2021-12-29T04:20:32Z</time>
      </trkpt>
      <trkpt lat="44.75265" lon="6.76066">
        <ele>1420</ele>
        <time>2021-12-29T04:20:34Z</time>
      </trkpt>
      <trkpt lat="44.75284" lon="6.76042">
        <ele>1424</ele>
        <time>2021-12-29T04:20:38Z</time>
      </trkpt>
      <trkpt lat="44.75292" lon="6.76022">
        <ele>1425</ele>
        <time>2021-12-29T04:20:41Z</time>
      </trkpt>
      <trkpt lat="44.75295" lon="6.76007">
        <ele>1424</ele>
        <time>2021-12-29T04:20:43Z</time>
      </trkpt>
      <trkpt lat="44.75299" lon="6.75995">
        <ele>1425</ele>
        <time>2021-12-29T04:20:45Z</time>
      </trkpt>
      <trkpt lat="44.75304" lon="6.75985">
        <ele>1426</ele>
        <time>2021-12-29T04:20:47Z</time>
      </trkpt>
      <trkpt lat="44.75319" lon="6.75968">
        <ele>1430</ele>
        <time>2021-12-29T04:20:50Z</time>
      </trkpt>
      <trkpt lat="44.75335" lon="6.75941">
        <ele>1433</ele>
        <time>2021-12-29T04:20:54Z</time>
      </trkpt>
      <trkpt lat="44.75341" lon="6.75927">
        <ele>1434</ele>
        <time>2021-12-29T04:20:56Z</time>
      </trkpt>
      <trkpt lat="44.75345" lon="6.7591">
        <ele>1434</ele>
        <time>2021-12-29T04:20:59Z</time>
      </trkpt>
      <trkpt lat="44.75357" lon="6.75828">
        <ele>1432</ele>
        <time>2021-12-29T04:21:09Z</time>
      </trkpt>
      <trkpt lat="44.75361" lon="6.75814">
        <ele>1433</ele>
        <time>2021-12-29T04:21:11Z</time>
      </trkpt>
      <trkpt lat="44.75367" lon="6.75804">
        <ele>1435</ele>
        <time>2021-12-29T04:21:13Z</time>
      </trkpt>
      <trkpt lat="44.75374" lon="6.75797">
        <ele>1437</ele>
        <time>2021-12-29T04:21:14Z</time>
      </trkpt>
      <trkpt lat="44.75385" lon="6.75791">
        <ele>1441</ele>
        <time>2021-12-29T04:21:17Z</time>
      </trkpt>
      <trkpt lat="44.75394" lon="6.75789">
        <ele>1445</ele>
        <time>2021-12-29T04:21:18Z</time>
      </trkpt>
      <trkpt lat="44.754" lon="6.75782">
        <ele>1447</ele>
        <time>2021-12-29T04:21:20Z</time>
      </trkpt>
      <trkpt lat="44.75408" lon="6.75766">
        <ele>1448</ele>
        <time>2021-12-29T04:21:22Z</time>
      </trkpt>
      <trkpt lat="44.75414" lon="6.75704">
        <ele>1448</ele>
        <time>2021-12-29T04:21:30Z</time>
      </trkpt>
      <trkpt lat="44.75417" lon="6.75688">
        <ele>1449</ele>
        <time>2021-12-29T04:21:32Z</time>
      </trkpt>
      <trkpt lat="44.75465" lon="6.75573">
        <ele>1466</ele>
        <time>2021-12-29T04:21:49Z</time>
      </trkpt>
      <trkpt lat="44.75468" lon="6.75558">
        <ele>1466</ele>
        <time>2021-12-29T04:21:51Z</time>
      </trkpt>
      <trkpt lat="44.75469" lon="6.75542">
        <ele>1466</ele>
        <time>2021-12-29T04:21:53Z</time>
      </trkpt>
      <trkpt lat="44.75468" lon="6.75486">
        <ele>1462</ele>
        <time>2021-12-29T04:22:00Z</time>
      </trkpt>
      <trkpt lat="44.75471" lon="6.75469">
        <ele>1463</ele>
        <time>2021-12-29T04:22:02Z</time>
      </trkpt>
      <trkpt lat="44.75476" lon="6.75449">
        <ele>1464</ele>
        <time>2021-12-29T04:22:05Z</time>
      </trkpt>
      <trkpt lat="44.75496" lon="6.75403">
        <ele>1470</ele>
        <time>2021-12-29T04:22:12Z</time>
      </trkpt>
      <trkpt lat="44.75511" lon="6.75361">
        <ele>1472</ele>
        <time>2021-12-29T04:22:18Z</time>
      </trkpt>
      <trkpt lat="44.75522" lon="6.75334">
        <ele>1474</ele>
        <time>2021-12-29T04:22:22Z</time>
      </trkpt>
      <trkpt lat="44.75532" lon="6.75314">
        <ele>1474</ele>
        <time>2021-12-29T04:22:25Z</time>
      </trkpt>
      <trkpt lat="44.75553" lon="6.75281">
        <ele>1476</ele>
        <time>2021-12-29T04:22:30Z</time>
      </trkpt>
      <trkpt lat="44.75566" lon="6.75268">
        <ele>1478</ele>
        <time>2021-12-29T04:22:33Z</time>
      </trkpt>
      <trkpt lat="44.75601" lon="6.75246">
        <ele>1486</ele>
        <time>2021-12-29T04:22:40Z</time>
      </trkpt>
      <trkpt lat="44.7561" lon="6.75236">
        <ele>1487</ele>
        <time>2021-12-29T04:22:42Z</time>
      </trkpt>
      <trkpt lat="44.75619" lon="6.75219">
        <ele>1487</ele>
        <time>2021-12-29T04:22:45Z</time>
      </trkpt>
      <trkpt lat="44.75633" lon="6.75164">
        <ele>1484</ele>
        <time>2021-12-29T04:22:52Z</time>
      </trkpt>
      <trkpt lat="44.75657" lon="6.75111">
        <ele>1488</ele>
        <time>2021-12-29T04:23:00Z</time>
      </trkpt>
      <trkpt lat="44.75657" lon="6.7507">
        <ele>1485</ele>
        <time>2021-12-29T04:23:05Z</time>
      </trkpt>
      <trkpt lat="44.75661" lon="6.75053">
        <ele>1485</ele>
        <time>2021-12-29T04:23:07Z</time>
      </trkpt>
      <trkpt lat="44.75669" lon="6.75039">
        <ele>1487</ele>
        <time>2021-12-29T04:23:10Z</time>
      </trkpt>
      <trkpt lat="44.75685" lon="6.75022">
        <ele>1490</ele>
        <time>2021-12-29T04:23:13Z</time>
      </trkpt>
      <trkpt lat="44.75715" lon="6.74996">
        <ele>1495</ele>
        <time>2021-12-29T04:23:19Z</time>
      </trkpt>
      <trkpt lat="44.75737" lon="6.74983">
        <ele>1499</ele>
        <time>2021-12-29T04:23:24Z</time>
      </trkpt>
      <trkpt lat="44.75749" lon="6.74973">
        <ele>1501</ele>
        <time>2021-12-29T04:23:26Z</time>
      </trkpt>
      <trkpt lat="44.75759" lon="6.7496">
        <ele>1502</ele>
        <time>2021-12-29T04:23:29Z</time>
      </trkpt>
      <trkpt lat="44.75767" lon="6.74946">
        <ele>1503</ele>
        <time>2021-12-29T04:23:31Z</time>
      </trkpt>
      <trkpt lat="44.75775" lon="6.74924">
        <ele>1504</ele>
        <time>2021-12-29T04:23:34Z</time>
      </trkpt>
      <trkpt lat="44.75781" lon="6.74883">
        <ele>1502</ele>
        <time>2021-12-29T04:23:39Z</time>
      </trkpt>
      <trkpt lat="44.75787" lon="6.74864">
        <ele>1503</ele>
        <time>2021-12-29T04:23:42Z</time>
      </trkpt>
      <trkpt lat="44.75796" lon="6.74848">
        <ele>1505</ele>
        <time>2021-12-29T04:23:44Z</time>
      </trkpt>
      <trkpt lat="44.75834" lon="6.74787">
        <ele>1512</ele>
        <time>2021-12-29T04:23:55Z</time>
      </trkpt>
      <trkpt lat="44.75856" lon="6.74737">
        <ele>1514</ele>
        <time>2021-12-29T04:24:02Z</time>
      </trkpt>
      <trkpt lat="44.75863" lon="6.74726">
        <ele>1514</ele>
        <time>2021-12-29T04:24:04Z</time>
      </trkpt>
      <trkpt lat="44.75897" lon="6.74696">
        <ele>1519</ele>
        <time>2021-12-29T04:24:11Z</time>
      </trkpt>
      <trkpt lat="44.75914" lon="6.74677">
        <ele>1519</ele>
        <time>2021-12-29T04:24:15Z</time>
      </trkpt>
      <trkpt lat="44.75935" lon="6.74643">
        <ele>1520</ele>
        <time>2021-12-29T04:24:21Z</time>
      </trkpt>
      <trkpt lat="44.75963" lon="6.74622">
        <ele>1524</ele>
        <time>2021-12-29T04:24:26Z</time>
      </trkpt>
      <trkpt lat="44.7601" lon="6.7457">
        <ele>1528</ele>
        <time>2021-12-29T04:24:37Z</time>
      </trkpt>
      <trkpt lat="44.76021" lon="6.74562">
        <ele>1531</ele>
        <time>2021-12-29T04:24:39Z</time>
      </trkpt>
      <trkpt lat="44.76056" lon="6.74545">
        <ele>1538</ele>
        <time>2021-12-29T04:24:46Z</time>
      </trkpt>
      <trkpt lat="44.76081" lon="6.74528">
        <ele>1539</ele>
        <time>2021-12-29T04:24:51Z</time>
      </trkpt>
      <trkpt lat="44.76098" lon="6.74502">
        <ele>1535</ele>
        <time>2021-12-29T04:24:55Z</time>
      </trkpt>
      <trkpt lat="44.76123" lon="6.74454">
        <ele>1533</ele>
        <time>2021-12-29T04:25:03Z</time>
      </trkpt>
      <trkpt lat="44.76148" lon="6.7439">
        <ele>1530</ele>
        <time>2021-12-29T04:25:12Z</time>
      </trkpt>
      <trkpt lat="44.76153" lon="6.7438">
        <ele>1530</ele>
        <time>2021-12-29T04:25:13Z</time>
      </trkpt>
      <trkpt lat="44.76166" lon="6.74363">
        <ele>1529</ele>
        <time>2021-12-29T04:25:17Z</time>
      </trkpt>
      <trkpt lat="44.76176" lon="6.74353">
        <ele>1529</ele>
        <time>2021-12-29T04:25:19Z</time>
      </trkpt>
      <trkpt lat="44.76203" lon="6.74333">
        <ele>1530</ele>
        <time>2021-12-29T04:25:24Z</time>
      </trkpt>
      <trkpt lat="44.76224" lon="6.74324">
        <ele>1533</ele>
        <time>2021-12-29T04:25:28Z</time>
      </trkpt>
      <trkpt lat="44.76286" lon="6.74305">
        <ele>1534</ele>
        <time>2021-12-29T04:25:39Z</time>
      </trkpt>
      <trkpt lat="44.76302" lon="6.74296">
        <ele>1533</ele>
        <time>2021-12-29T04:25:43Z</time>
      </trkpt>
      <trkpt lat="44.76317" lon="6.74286">
        <ele>1532</ele>
        <time>2021-12-29T04:25:45Z</time>
      </trkpt>
      <trkpt lat="44.76413" lon="6.74183">
        <ele>1530</ele>
        <time>2021-12-29T04:26:07Z</time>
      </trkpt>
      <trkpt lat="44.76566" lon="6.74005">
        <ele>1545</ele>
        <time>2021-12-29T04:26:42Z</time>
      </trkpt>
      <trkpt lat="44.76627" lon="6.7395">
        <ele>1552</ele>
        <time>2021-12-29T04:26:55Z</time>
      </trkpt>
      <trkpt lat="44.76671" lon="6.73896">
        <ele>1555</ele>
        <time>2021-12-29T04:27:06Z</time>
      </trkpt>
      <trkpt lat="44.76695" lon="6.73872">
        <ele>1556</ele>
        <time>2021-12-29T04:27:11Z</time>
      </trkpt>
      <trkpt lat="44.76726" lon="6.73849">
        <ele>1558</ele>
        <time>2021-12-29T04:27:17Z</time>
      </trkpt>
      <trkpt lat="44.76749" lon="6.73833">
        <ele>1558</ele>
        <time>2021-12-29T04:27:22Z</time>
      </trkpt>
      <trkpt lat="44.76776" lon="6.73819">
        <ele>1561</ele>
        <time>2021-12-29T04:27:27Z</time>
      </trkpt>
      <trkpt lat="44.76789" lon="6.73809">
        <ele>1562</ele>
        <time>2021-12-29T04:27:29Z</time>
      </trkpt>
      <trkpt lat="44.76827" lon="6.73791">
        <ele>1566</ele>
        <time>2021-12-29T04:27:36Z</time>
      </trkpt>
      <trkpt lat="44.76909" lon="6.73722">
        <ele>1570</ele>
        <time>2021-12-29T04:27:53Z</time>
      </trkpt>
      <trkpt lat="44.76932" lon="6.73706">
        <ele>1572</ele>
        <time>2021-12-29T04:27:58Z</time>
      </trkpt>
      <trkpt lat="44.76961" lon="6.73693">
        <ele>1574</ele>
        <time>2021-12-29T04:28:03Z</time>
      </trkpt>
      <trkpt lat="44.76995" lon="6.73685">
        <ele>1577</ele>
        <time>2021-12-29T04:28:10Z</time>
      </trkpt>
      <trkpt lat="44.77043" lon="6.7368">
        <ele>1585</ele>
        <time>2021-12-29T04:28:18Z</time>
      </trkpt>
      <trkpt lat="44.77129" lon="6.73666">
        <ele>1591</ele>
        <time>2021-12-29T04:28:34Z</time>
      </trkpt>
      <trkpt lat="44.77299" lon="6.73642">
        <ele>1599</ele>
        <time>2021-12-29T04:29:04Z</time>
      </trkpt>
      <trkpt lat="44.77348" lon="6.73631">
        <ele>1604</ele>
        <time>2021-12-29T04:29:13Z</time>
      </trkpt>
      <trkpt lat="44.77507" lon="6.73572">
        <ele>1620</ele>
        <time>2021-12-29T04:29:42Z</time>
      </trkpt>
      <trkpt lat="44.77532" lon="6.73561">
        <ele>1622</ele>
        <time>2021-12-29T04:29:47Z</time>
      </trkpt>
      <trkpt lat="44.77601" lon="6.73525">
        <ele>1626</ele>
        <time>2021-12-29T04:30:00Z</time>
      </trkpt>
      <trkpt lat="44.77614" lon="6.73521">
        <ele>1627</ele>
        <time>2021-12-29T04:30:02Z</time>
      </trkpt>
      <trkpt lat="44.7763" lon="6.73519">
        <ele>1630</ele>
        <time>2021-12-29T04:30:05Z</time>
      </trkpt>
      <trkpt lat="44.77718" lon="6.73532">
        <ele>1640</ele>
        <time>2021-12-29T04:30:21Z</time>
      </trkpt>
      <trkpt lat="44.77733" lon="6.73532">
        <ele>1642</ele>
        <time>2021-12-29T04:30:23Z</time>
      </trkpt>
      <trkpt lat="44.77752" lon="6.7353">
        <ele>1643</ele>
        <time>2021-12-29T04:30:27Z</time>
      </trkpt>
      <trkpt lat="44.77773" lon="6.73525">
        <ele>1645</ele>
        <time>2021-12-29T04:30:31Z</time>
      </trkpt>
      <trkpt lat="44.77813" lon="6.7351">
        <ele>1647</ele>
        <time>2021-12-29T04:30:38Z</time>
      </trkpt>
      <trkpt lat="44.77846" lon="6.73507">
        <ele>1650</ele>
        <time>2021-12-29T04:30:44Z</time>
      </trkpt>
      <trkpt lat="44.77878" lon="6.7351">
        <ele>1654</ele>
        <time>2021-12-29T04:30:50Z</time>
      </trkpt>
      <trkpt lat="44.78" lon="6.73536">
        <ele>1673</ele>
        <time>2021-12-29T04:31:11Z</time>
      </trkpt>
      <trkpt lat="44.78054" lon="6.73542">
        <ele>1679</ele>
        <time>2021-12-29T04:31:21Z</time>
      </trkpt>
      <trkpt lat="44.78076" lon="6.7354">
        <ele>1681</ele>
        <time>2021-12-29T04:31:25Z</time>
      </trkpt>
      <trkpt lat="44.78086" lon="6.73534">
        <ele>1681</ele>
        <time>2021-12-29T04:31:27Z</time>
      </trkpt>
      <trkpt lat="44.78123" lon="6.73501">
        <ele>1681</ele>
        <time>2021-12-29T04:31:35Z</time>
      </trkpt>
      <trkpt lat="44.78142" lon="6.73493">
        <ele>1682</ele>
        <time>2021-12-29T04:31:38Z</time>
      </trkpt>
      <trkpt lat="44.7815" lon="6.73493">
        <ele>1682</ele>
        <time>2021-12-29T04:31:40Z</time>
      </trkpt>
      <trkpt lat="44.78217" lon="6.73495">
        <ele>1685</ele>
        <time>2021-12-29T04:31:52Z</time>
      </trkpt>
      <trkpt lat="44.78268" lon="6.73493">
        <ele>1687</ele>
        <time>2021-12-29T04:32:01Z</time>
      </trkpt>
      <trkpt lat="44.78317" lon="6.73482">
        <ele>1690</ele>
        <time>2021-12-29T04:32:10Z</time>
      </trkpt>
      <trkpt lat="44.78355" lon="6.73472">
        <ele>1692</ele>
        <time>2021-12-29T04:32:16Z</time>
      </trkpt>
      <trkpt lat="44.78388" lon="6.73457">
        <ele>1695</ele>
        <time>2021-12-29T04:32:23Z</time>
      </trkpt>
      <trkpt lat="44.78486" lon="6.73395">
        <ele>1704</ele>
        <time>2021-12-29T04:32:42Z</time>
      </trkpt>
      <trkpt lat="44.78606" lon="6.73324">
        <ele>1714</ele>
        <time>2021-12-29T04:33:05Z</time>
      </trkpt>
      <trkpt lat="44.78634" lon="6.73314">
        <ele>1717</ele>
        <time>2021-12-29T04:33:10Z</time>
      </trkpt>
      <trkpt lat="44.78661" lon="6.73308">
        <ele>1719</ele>
        <time>2021-12-29T04:33:15Z</time>
      </trkpt>
      <trkpt lat="44.78684" lon="6.73306">
        <ele>1721</ele>
        <time>2021-12-29T04:33:19Z</time>
      </trkpt>
      <trkpt lat="44.7876" lon="6.7331">
        <ele>1729</ele>
        <time>2021-12-29T04:33:33Z</time>
      </trkpt>
      <trkpt lat="44.78873" lon="6.73299">
        <ele>1737</ele>
        <time>2021-12-29T04:33:53Z</time>
      </trkpt>
      <trkpt lat="44.78916" lon="6.73293">
        <ele>1740</ele>
        <time>2021-12-29T04:34:00Z</time>
      </trkpt>
      <trkpt lat="44.78936" lon="6.73285">
        <ele>1741</ele>
        <time>2021-12-29T04:34:04Z</time>
      </trkpt>
      <trkpt lat="44.79005" lon="6.73241">
        <ele>1745</ele>
        <time>2021-12-29T04:34:18Z</time>
      </trkpt>
      <trkpt lat="44.79029" lon="6.73229">
        <ele>1747</ele>
        <time>2021-12-29T04:34:22Z</time>
      </trkpt>
      <trkpt lat="44.79086" lon="6.73218">
        <ele>1754</ele>
        <time>2021-12-29T04:34:32Z</time>
      </trkpt>
      <trkpt lat="44.7915" lon="6.7321">
        <ele>1762</ele>
        <time>2021-12-29T04:34:44Z</time>
      </trkpt>
      <trkpt lat="44.79189" lon="6.73197">
        <ele>1767</ele>
        <time>2021-12-29T04:34:51Z</time>
      </trkpt>
      <trkpt lat="44.79253" lon="6.73171">
        <ele>1772</ele>
        <time>2021-12-29T04:35:03Z</time>
      </trkpt>
      <trkpt lat="44.79311" lon="6.73142">
        <ele>1778</ele>
        <time>2021-12-29T04:35:14Z</time>
      </trkpt>
      <trkpt lat="44.79364" lon="6.73113">
        <ele>1784</ele>
        <time>2021-12-29T04:35:24Z</time>
      </trkpt>
      <trkpt lat="44.79469" lon="6.73039">
        <ele>1798</ele>
        <time>2021-12-29T04:35:45Z</time>
      </trkpt>
      <trkpt lat="44.79499" lon="6.73013">
        <ele>1801</ele>
        <time>2021-12-29T04:35:51Z</time>
      </trkpt>
      <trkpt lat="44.79539" lon="6.72968">
        <ele>1810</ele>
        <time>2021-12-29T04:36:00Z</time>
      </trkpt>
      <trkpt lat="44.79589" lon="6.72893">
        <ele>1819</ele>
        <time>2021-12-29T04:36:13Z</time>
      </trkpt>
      <trkpt lat="44.79596" lon="6.72878">
        <ele>1821</ele>
        <time>2021-12-29T04:36:15Z</time>
      </trkpt>
      <trkpt lat="44.7961" lon="6.72841">
        <ele>1824</ele>
        <time>2021-12-29T04:36:21Z</time>
      </trkpt>
      <trkpt lat="44.79622" lon="6.72817">
        <ele>1827</ele>
        <time>2021-12-29T04:36:24Z</time>
      </trkpt>
      <trkpt lat="44.79627" lon="6.7281">
        <ele>1828</ele>
        <time>2021-12-29T04:36:26Z</time>
      </trkpt>
      <trkpt lat="44.79634" lon="6.72804">
        <ele>1829</ele>
        <time>2021-12-29T04:36:27Z</time>
      </trkpt>
      <trkpt lat="44.79643" lon="6.72802">
        <ele>1831</ele>
        <time>2021-12-29T04:36:29Z</time>
      </trkpt>
      <trkpt lat="44.79655" lon="6.72803">
        <ele>1833</ele>
        <time>2021-12-29T04:36:31Z</time>
      </trkpt>
      <trkpt lat="44.7967" lon="6.72811">
        <ele>1836</ele>
        <time>2021-12-29T04:36:34Z</time>
      </trkpt>
      <trkpt lat="44.79679" lon="6.72822">
        <ele>1838</ele>
        <time>2021-12-29T04:36:36Z</time>
      </trkpt>
      <trkpt lat="44.79683" lon="6.72831">
        <ele>1840</ele>
        <time>2021-12-29T04:36:37Z</time>
      </trkpt>
      <trkpt lat="44.79688" lon="6.72851">
        <ele>1843</ele>
        <time>2021-12-29T04:36:40Z</time>
      </trkpt>
      <trkpt lat="44.79692" lon="6.72873">
        <ele>1847</ele>
        <time>2021-12-29T04:36:43Z</time>
      </trkpt>
      <trkpt lat="44.79691" lon="6.72916">
        <ele>1850</ele>
        <time>2021-12-29T04:36:48Z</time>
      </trkpt>
      <trkpt lat="44.79685" lon="6.72933">
        <ele>1851</ele>
        <time>2021-12-29T04:36:50Z</time>
      </trkpt>
      <trkpt lat="44.79668" lon="6.72958">
        <ele>1847</ele>
        <time>2021-12-29T04:36:55Z</time>
      </trkpt>
      <trkpt lat="44.79663" lon="6.7297">
        <ele>1846</ele>
        <time>2021-12-29T04:36:57Z</time>
      </trkpt>
      <trkpt lat="44.7965" lon="6.73017">
        <ele>1847</ele>
        <time>2021-12-29T04:37:03Z</time>
      </trkpt>
      <trkpt lat="44.79646" lon="6.73041">
        <ele>1848</ele>
        <time>2021-12-29T04:37:06Z</time>
      </trkpt>
      <trkpt lat="44.79646" lon="6.73048">
        <ele>1849</ele>
        <time>2021-12-29T04:37:07Z</time>
      </trkpt>
      <trkpt lat="44.7965" lon="6.73062">
        <ele>1851</ele>
        <time>2021-12-29T04:37:09Z</time>
      </trkpt>
      <trkpt lat="44.79665" lon="6.73092">
        <ele>1860</ele>
        <time>2021-12-29T04:37:13Z</time>
      </trkpt>
      <trkpt lat="44.79667" lon="6.73098">
        <ele>1862</ele>
        <time>2021-12-29T04:37:14Z</time>
      </trkpt>
      <trkpt lat="44.79666" lon="6.73107">
        <ele>1864</ele>
        <time>2021-12-29T04:37:15Z</time>
      </trkpt>
      <trkpt lat="44.79661" lon="6.73122">
        <ele>1866</ele>
        <time>2021-12-29T04:37:18Z</time>
      </trkpt>
      <trkpt lat="44.79653" lon="6.73134">
        <ele>1866</ele>
        <time>2021-12-29T04:37:20Z</time>
      </trkpt>
      <trkpt lat="44.7964" lon="6.73149">
        <ele>1865</ele>
        <time>2021-12-29T04:37:23Z</time>
      </trkpt>
      <trkpt lat="44.79624" lon="6.73161">
        <ele>1862</ele>
        <time>2021-12-29T04:37:26Z</time>
      </trkpt>
      <trkpt lat="44.79617" lon="6.73171">
        <ele>1862</ele>
        <time>2021-12-29T04:37:28Z</time>
      </trkpt>
      <trkpt lat="44.79608" lon="6.73191">
        <ele>1860</ele>
        <time>2021-12-29T04:37:31Z</time>
      </trkpt>
      <trkpt lat="44.79604" lon="6.73208">
        <ele>1859</ele>
        <time>2021-12-29T04:37:33Z</time>
      </trkpt>
      <trkpt lat="44.79603" lon="6.73219">
        <ele>1860</ele>
        <time>2021-12-29T04:37:34Z</time>
      </trkpt>
      <trkpt lat="44.79606" lon="6.7323">
        <ele>1861</ele>
        <time>2021-12-29T04:37:36Z</time>
      </trkpt>
      <trkpt lat="44.79646" lon="6.73288">
        <ele>1873</ele>
        <time>2021-12-29T04:37:46Z</time>
      </trkpt>
      <trkpt lat="44.79671" lon="6.73308">
        <ele>1878</ele>
        <time>2021-12-29T04:37:51Z</time>
      </trkpt>
      <trkpt lat="44.79699" lon="6.73339">
        <ele>1882</ele>
        <time>2021-12-29T04:37:57Z</time>
      </trkpt>
      <trkpt lat="44.79727" lon="6.73352">
        <ele>1889</ele>
        <time>2021-12-29T04:38:03Z</time>
      </trkpt>
      <trkpt lat="44.79783" lon="6.73383">
        <ele>1901</ele>
        <time>2021-12-29T04:38:13Z</time>
      </trkpt>
      <trkpt lat="44.79804" lon="6.73405">
        <ele>1902</ele>
        <time>2021-12-29T04:38:18Z</time>
      </trkpt>
      <trkpt lat="44.79838" lon="6.73451">
        <ele>1909</ele>
        <time>2021-12-29T04:38:26Z</time>
      </trkpt>
      <trkpt lat="44.79845" lon="6.73457">
        <ele>1912</ele>
        <time>2021-12-29T04:38:28Z</time>
      </trkpt>
      <trkpt lat="44.79852" lon="6.73456">
        <ele>1915</ele>
        <time>2021-12-29T04:38:29Z</time>
      </trkpt>
      <trkpt lat="44.79855" lon="6.73453">
        <ele>1916</ele>
        <time>2021-12-29T04:38:30Z</time>
      </trkpt>
      <trkpt lat="44.79857" lon="6.73447">
        <ele>1917</ele>
        <time>2021-12-29T04:38:31Z</time>
      </trkpt>
      <trkpt lat="44.79856" lon="6.7344">
        <ele>1917</ele>
        <time>2021-12-29T04:38:32Z</time>
      </trkpt>
      <trkpt lat="44.79854" lon="6.73434">
        <ele>1916</ele>
        <time>2021-12-29T04:38:32Z</time>
      </trkpt>
      <trkpt lat="44.79827" lon="6.73402">
        <ele>1911</ele>
        <time>2021-12-29T04:38:39Z</time>
      </trkpt>
      <trkpt lat="44.79804" lon="6.73361">
        <ele>1916</ele>
        <time>2021-12-29T04:38:45Z</time>
      </trkpt>
      <trkpt lat="44.79793" lon="6.73345">
        <ele>1916</ele>
        <time>2021-12-29T04:38:48Z</time>
      </trkpt>
      <trkpt lat="44.79754" lon="6.73313">
        <ele>1910</ele>
        <time>2021-12-29T04:38:56Z</time>
      </trkpt>
      <trkpt lat="44.7973" lon="6.73287">
        <ele>1906</ele>
        <time>2021-12-29T04:39:01Z</time>
      </trkpt>
      <trkpt lat="44.79722" lon="6.73272">
        <ele>1907</ele>
        <time>2021-12-29T04:39:04Z</time>
      </trkpt>
      <trkpt lat="44.79716" lon="6.7325">
        <ele>1910</ele>
        <time>2021-12-29T04:39:07Z</time>
      </trkpt>
      <trkpt lat="44.79716" lon="6.7324">
        <ele>1908</ele>
        <time>2021-12-29T04:39:08Z</time>
      </trkpt>
      <trkpt lat="44.79721" lon="6.73232">
        <ele>1909</ele>
        <time>2021-12-29T04:39:09Z</time>
      </trkpt>
      <trkpt lat="44.79763" lon="6.73229">
        <ele>1927</ele>
        <time>2021-12-29T04:39:17Z</time>
      </trkpt>
      <trkpt lat="44.79774" lon="6.73223">
        <ele>1932</ele>
        <time>2021-12-29T04:39:19Z</time>
      </trkpt>
      <trkpt lat="44.79786" lon="6.73209">
        <ele>1936</ele>
        <time>2021-12-29T04:39:22Z</time>
      </trkpt>
      <trkpt lat="44.79794" lon="6.73192">
        <ele>1938</ele>
        <time>2021-12-29T04:39:24Z</time>
      </trkpt>
      <trkpt lat="44.79801" lon="6.73171">
        <ele>1940</ele>
        <time>2021-12-29T04:39:27Z</time>
      </trkpt>
      <trkpt lat="44.79802" lon="6.73162">
        <ele>1940</ele>
        <time>2021-12-29T04:39:28Z</time>
      </trkpt>
      <trkpt lat="44.79802" lon="6.73131">
        <ele>1936</ele>
        <time>2021-12-29T04:39:32Z</time>
      </trkpt>
      <trkpt lat="44.79807" lon="6.73107">
        <ele>1936</ele>
        <time>2021-12-29T04:39:36Z</time>
      </trkpt>
      <trkpt lat="44.79813" lon="6.73096">
        <ele>1938</ele>
        <time>2021-12-29T04:39:37Z</time>
      </trkpt>
      <trkpt lat="44.79828" lon="6.7308">
        <ele>1945</ele>
        <time>2021-12-29T04:39:41Z</time>
      </trkpt>
      <trkpt lat="44.79837" lon="6.73066">
        <ele>1947</ele>
        <time>2021-12-29T04:39:43Z</time>
      </trkpt>
      <trkpt lat="44.79841" lon="6.73053">
        <ele>1948</ele>
        <time>2021-12-29T04:39:45Z</time>
      </trkpt>
      <trkpt lat="44.79849" lon="6.7302">
        <ele>1946</ele>
        <time>2021-12-29T04:39:49Z</time>
      </trkpt>
      <trkpt lat="44.79856" lon="6.73003">
        <ele>1947</ele>
        <time>2021-12-29T04:39:52Z</time>
      </trkpt>
      <trkpt lat="44.79889" lon="6.72959">
        <ele>1954</ele>
        <time>2021-12-29T04:40:00Z</time>
      </trkpt>
      <trkpt lat="44.79897" lon="6.72945">
        <ele>1955</ele>
        <time>2021-12-29T04:40:02Z</time>
      </trkpt>
      <trkpt lat="44.799" lon="6.72933">
        <ele>1953</ele>
        <time>2021-12-29T04:40:04Z</time>
      </trkpt>
      <trkpt lat="44.79899" lon="6.72908">
        <ele>1947</ele>
        <time>2021-12-29T04:40:07Z</time>
      </trkpt>
      <trkpt lat="44.79901" lon="6.72899">
        <ele>1945</ele>
        <time>2021-12-29T04:40:08Z</time>
      </trkpt>
      <trkpt lat="44.79905" lon="6.72895">
        <ele>1945</ele>
        <time>2021-12-29T04:40:09Z</time>
      </trkpt>
      <trkpt lat="44.79907" lon="6.72894">
        <ele>1946</ele>
        <time>2021-12-29T04:40:09Z</time>
      </trkpt>
      <trkpt lat="44.79912" lon="6.72895">
        <ele>1948</ele>
        <time>2021-12-29T04:40:10Z</time>
      </trkpt>
      <trkpt lat="44.79915" lon="6.72899">
        <ele>1950</ele>
        <time>2021-12-29T04:40:11Z</time>
      </trkpt>
      <trkpt lat="44.79916" lon="6.72908">
        <ele>1954</ele>
        <time>2021-12-29T04:40:12Z</time>
      </trkpt>
      <trkpt lat="44.79917" lon="6.72925">
        <ele>1959</ele>
        <time>2021-12-29T04:40:14Z</time>
      </trkpt>
      <trkpt lat="44.79913" lon="6.72948">
        <ele>1963</ele>
        <time>2021-12-29T04:40:17Z</time>
      </trkpt>
      <trkpt lat="44.79885" lon="6.73034">
        <ele>1968</ele>
        <time>2021-12-29T04:40:29Z</time>
      </trkpt>
      <trkpt lat="44.79882" lon="6.73058">
        <ele>1971</ele>
        <time>2021-12-29T04:40:32Z</time>
      </trkpt>
      <trkpt lat="44.79879" lon="6.73108">
        <ele>1978</ele>
        <time>2021-12-29T04:40:39Z</time>
      </trkpt>
      <trkpt lat="44.79865" lon="6.73142">
        <ele>1974</ele>
        <time>2021-12-29T04:40:43Z</time>
      </trkpt>
      <trkpt lat="44.79862" lon="6.73157">
        <ele>1974</ele>
        <time>2021-12-29T04:40:45Z</time>
      </trkpt>
      <trkpt lat="44.79861" lon="6.7324">
        <ele>1978</ele>
        <time>2021-12-29T04:40:56Z</time>
      </trkpt>
      <trkpt lat="44.79863" lon="6.73246">
        <ele>1979</ele>
        <time>2021-12-29T04:40:57Z</time>
      </trkpt>
      <trkpt lat="44.79869" lon="6.73247">
        <ele>1982</ele>
        <time>2021-12-29T04:40:58Z</time>
      </trkpt>
      <trkpt lat="44.79873" lon="6.73239">
        <ele>1984</ele>
        <time>2021-12-29T04:40:59Z</time>
      </trkpt>
      <trkpt lat="44.79874" lon="6.73195">
        <ele>1984</ele>
        <time>2021-12-29T04:41:05Z</time>
      </trkpt>
      <trkpt lat="44.79878" lon="6.73171">
        <ele>1986</ele>
        <time>2021-12-29T04:41:08Z</time>
      </trkpt>
      <trkpt lat="44.79885" lon="6.73156">
        <ele>1989</ele>
        <time>2021-12-29T04:41:10Z</time>
      </trkpt>
      <trkpt lat="44.79898" lon="6.73137">
        <ele>1994</ele>
        <time>2021-12-29T04:41:13Z</time>
      </trkpt>
      <trkpt lat="44.79903" lon="6.73129">
        <ele>1996</ele>
        <time>2021-12-29T04:41:15Z</time>
      </trkpt>
      <trkpt lat="44.79915" lon="6.73085">
        <ele>1995</ele>
        <time>2021-12-29T04:41:21Z</time>
      </trkpt>
      <trkpt lat="44.79924" lon="6.73063">
        <ele>1996</ele>
        <time>2021-12-29T04:41:24Z</time>
      </trkpt>
      <trkpt lat="44.79947" lon="6.73026">
        <ele>2000</ele>
        <time>2021-12-29T04:41:30Z</time>
      </trkpt>
      <trkpt lat="44.79958" lon="6.73012">
        <ele>2002</ele>
        <time>2021-12-29T04:41:33Z</time>
      </trkpt>
      <trkpt lat="44.79979" lon="6.7299">
        <ele>2007</ele>
        <time>2021-12-29T04:41:37Z</time>
      </trkpt>
      <trkpt lat="44.80016" lon="6.72949">
        <ele>2004</ele>
        <time>2021-12-29T04:41:46Z</time>
      </trkpt>
      <trkpt lat="44.80025" lon="6.72948">
        <ele>2005</ele>
        <time>2021-12-29T04:41:47Z</time>
      </trkpt>
      <trkpt lat="44.80028" lon="6.72955">
        <ele>2008</ele>
        <time>2021-12-29T04:41:48Z</time>
      </trkpt>
      <trkpt lat="44.80027" lon="6.72965">
        <ele>2013</ele>
        <time>2021-12-29T04:41:50Z</time>
      </trkpt>
      <trkpt lat="44.80006" lon="6.72986">
        <ele>2017</ele>
        <time>2021-12-29T04:41:54Z</time>
      </trkpt>
      <trkpt lat="44.79978" lon="6.73025">
        <ele>2016</ele>
        <time>2021-12-29T04:42:01Z</time>
      </trkpt>
      <trkpt lat="44.79966" lon="6.73049">
        <ele>2016</ele>
        <time>2021-12-29T04:42:05Z</time>
      </trkpt>
      <trkpt lat="44.79958" lon="6.73072">
        <ele>2017</ele>
        <time>2021-12-29T04:42:08Z</time>
      </trkpt>
      <trkpt lat="44.79952" lon="6.73096">
        <ele>2018</ele>
        <time>2021-12-29T04:42:11Z</time>
      </trkpt>
      <trkpt lat="44.79941" lon="6.73185">
        <ele>2022</ele>
        <time>2021-12-29T04:42:23Z</time>
      </trkpt>
      <trkpt lat="44.79941" lon="6.73205">
        <ele>2020</ele>
        <time>2021-12-29T04:42:25Z</time>
      </trkpt>
      <trkpt lat="44.79947" lon="6.73217">
        <ele>2022</ele>
        <time>2021-12-29T04:42:27Z</time>
      </trkpt>
      <trkpt lat="44.79969" lon="6.73229">
        <ele>2030</ele>
        <time>2021-12-29T04:42:31Z</time>
      </trkpt>
      <trkpt lat="44.79984" lon="6.73232">
        <ele>2036</ele>
        <time>2021-12-29T04:42:34Z</time>
      </trkpt>
      <trkpt lat="44.80024" lon="6.73233">
        <ele>2050</ele>
        <time>2021-12-29T04:42:41Z</time>
      </trkpt>
      <trkpt lat="44.80038" lon="6.73237">
        <ele>2054</ele>
        <time>2021-12-29T04:42:44Z</time>
      </trkpt>
      <trkpt lat="44.80046" lon="6.73242">
        <ele>2056</ele>
        <time>2021-12-29T04:42:45Z</time>
      </trkpt>
      <trkpt lat="44.80066" lon="6.73262">
        <ele>2058</ele>
        <time>2021-12-29T04:42:50Z</time>
      </trkpt>
      <trkpt lat="44.80087" lon="6.7329">
        <ele>2057</ele>
        <time>2021-12-29T04:42:55Z</time>
      </trkpt>
      <trkpt lat="44.80125" lon="6.73326">
        <ele>2065</ele>
        <time>2021-12-29T04:43:03Z</time>
      </trkpt>
      <trkpt lat="44.80141" lon="6.73352">
        <ele>2069</ele>
        <time>2021-12-29T04:43:07Z</time>
      </trkpt>
      <trkpt lat="44.80172" lon="6.73386">
        <ele>2077</ele>
        <time>2021-12-29T04:43:14Z</time>
      </trkpt>
      <trkpt lat="44.80192" lon="6.73422">
        <ele>2078</ele>
        <time>2021-12-29T04:43:20Z</time>
      </trkpt>
      <trkpt lat="44.80199" lon="6.73425">
        <ele>2081</ele>
        <time>2021-12-29T04:43:21Z</time>
      </trkpt>
      <trkpt lat="44.80204" lon="6.73423">
        <ele>2083</ele>
        <time>2021-12-29T04:43:22Z</time>
      </trkpt>
      <trkpt lat="44.80207" lon="6.73417">
        <ele>2084</ele>
        <time>2021-12-29T04:43:23Z</time>
      </trkpt>
      <trkpt lat="44.80208" lon="6.73411">
        <ele>2085</ele>
        <time>2021-12-29T04:43:24Z</time>
      </trkpt>
      <trkpt lat="44.80204" lon="6.73395">
        <ele>2087</ele>
        <time>2021-12-29T04:43:26Z</time>
      </trkpt>
      <trkpt lat="44.80166" lon="6.73341">
        <ele>2083</ele>
        <time>2021-12-29T04:43:36Z</time>
      </trkpt>
      <trkpt lat="44.80153" lon="6.73301">
        <ele>2085</ele>
        <time>2021-12-29T04:43:41Z</time>
      </trkpt>
      <trkpt lat="44.80134" lon="6.73271">
        <ele>2083</ele>
        <time>2021-12-29T04:43:46Z</time>
      </trkpt>
      <trkpt lat="44.80131" lon="6.73264">
        <ele>2083</ele>
        <time>2021-12-29T04:43:47Z</time>
      </trkpt>
      <trkpt lat="44.80102" lon="6.73175">
        <ele>2086</ele>
        <time>2021-12-29T04:44:00Z</time>
      </trkpt>
      <trkpt lat="44.80081" lon="6.73141">
        <ele>2079</ele>
        <time>2021-12-29T04:44:05Z</time>
      </trkpt>
      <trkpt lat="44.8008" lon="6.73131">
        <ele>2077</ele>
        <time>2021-12-29T04:44:07Z</time>
      </trkpt>
      <trkpt lat="44.80082" lon="6.73122">
        <ele>2077</ele>
        <time>2021-12-29T04:44:08Z</time>
      </trkpt>
      <trkpt lat="44.8009" lon="6.73117">
        <ele>2079</ele>
        <time>2021-12-29T04:44:09Z</time>
      </trkpt>
      <trkpt lat="44.80099" lon="6.73118">
        <ele>2081</ele>
        <time>2021-12-29T04:44:11Z</time>
      </trkpt>
      <trkpt lat="44.80107" lon="6.73127">
        <ele>2084</ele>
        <time>2021-12-29T04:44:13Z</time>
      </trkpt>
      <trkpt lat="44.80117" lon="6.73157">
        <ele>2091</ele>
        <time>2021-12-29T04:44:17Z</time>
      </trkpt>
      <trkpt lat="44.80128" lon="6.73176">
        <ele>2094</ele>
        <time>2021-12-29T04:44:20Z</time>
      </trkpt>
      <trkpt lat="44.80136" lon="6.73186">
        <ele>2095</ele>
        <time>2021-12-29T04:44:22Z</time>
      </trkpt>
      <trkpt lat="44.80166" lon="6.7321">
        <ele>2103</ele>
        <time>2021-12-29T04:44:28Z</time>
      </trkpt>
      <trkpt lat="44.80173" lon="6.73219">
        <ele>2105</ele>
        <time>2021-12-29T04:44:30Z</time>
      </trkpt>
      <trkpt lat="44.80227" lon="6.73312">
        <ele>2111</ele>
        <time>2021-12-29T04:44:45Z</time>
      </trkpt>
      <trkpt lat="44.80245" lon="6.73336">
        <ele>2114</ele>
        <time>2021-12-29T04:44:49Z</time>
      </trkpt>
      <trkpt lat="44.80258" lon="6.73348">
        <ele>2116</ele>
        <time>2021-12-29T04:44:52Z</time>
      </trkpt>
      <trkpt lat="44.80287" lon="6.73367">
        <ele>2122</ele>
        <time>2021-12-29T04:44:58Z</time>
      </trkpt>
      <trkpt lat="44.80312" lon="6.73389">
        <ele>2126</ele>
        <time>2021-12-29T04:45:03Z</time>
      </trkpt>
      <trkpt lat="44.80329" lon="6.73401">
        <ele>2128</ele>
        <time>2021-12-29T04:45:07Z</time>
      </trkpt>
      <trkpt lat="44.80402" lon="6.73444">
        <ele>2136</ele>
        <time>2021-12-29T04:45:21Z</time>
      </trkpt>
      <trkpt lat="44.80412" lon="6.73446">
        <ele>2138</ele>
        <time>2021-12-29T04:45:22Z</time>
      </trkpt>
      <trkpt lat="44.80475" lon="6.73433">
        <ele>2146</ele>
        <time>2021-12-29T04:45:34Z</time>
      </trkpt>
      <trkpt lat="44.80503" lon="6.73435">
        <ele>2149</ele>
        <time>2021-12-29T04:45:39Z</time>
      </trkpt>
      <trkpt lat="44.80521" lon="6.73439">
        <ele>2151</ele>
        <time>2021-12-29T04:45:42Z</time>
      </trkpt>
      <trkpt lat="44.8054" lon="6.7345">
        <ele>2152</ele>
        <time>2021-12-29T04:45:46Z</time>
      </trkpt>
      <trkpt lat="44.80561" lon="6.73467">
        <ele>2155</ele>
        <time>2021-12-29T04:45:50Z</time>
      </trkpt>
      <trkpt lat="44.80568" lon="6.73481">
        <ele>2157</ele>
        <time>2021-12-29T04:45:52Z</time>
      </trkpt>
      <trkpt lat="44.80569" lon="6.73497">
        <ele>2157</ele>
        <time>2021-12-29T04:45:54Z</time>
      </trkpt>
      <trkpt lat="44.80566" lon="6.73511">
        <ele>2159</ele>
        <time>2021-12-29T04:45:56Z</time>
      </trkpt>
      <trkpt lat="44.80558" lon="6.73525">
        <ele>2160</ele>
        <time>2021-12-29T04:45:58Z</time>
      </trkpt>
      <trkpt lat="44.80531" lon="6.73558">
        <ele>2162</ele>
        <time>2021-12-29T04:46:05Z</time>
      </trkpt>
      <trkpt lat="44.80471" lon="6.73623">
        <ele>2170</ele>
        <time>2021-12-29T04:46:18Z</time>
      </trkpt>
      <trkpt lat="44.80456" lon="6.73633">
        <ele>2170</ele>
        <time>2021-12-29T04:46:21Z</time>
      </trkpt>
      <trkpt lat="44.80437" lon="6.73641">
        <ele>2170</ele>
        <time>2021-12-29T04:46:25Z</time>
      </trkpt>
      <trkpt lat="44.80427" lon="6.73649">
        <ele>2170</ele>
        <time>2021-12-29T04:46:27Z</time>
      </trkpt>
      <trkpt lat="44.80422" lon="6.73657">
        <ele>2172</ele>
        <time>2021-12-29T04:46:28Z</time>
      </trkpt>
      <trkpt lat="44.80412" lon="6.7368">
        <ele>2177</ele>
        <time>2021-12-29T04:46:31Z</time>
      </trkpt>
      <trkpt lat="44.80405" lon="6.73692">
        <ele>2178</ele>
        <time>2021-12-29T04:46:33Z</time>
      </trkpt>
      <trkpt lat="44.80381" lon="6.73716">
        <ele>2180</ele>
        <time>2021-12-29T04:46:39Z</time>
      </trkpt>
      <trkpt lat="44.80356" lon="6.73736">
        <ele>2180</ele>
        <time>2021-12-29T04:46:44Z</time>
      </trkpt>
      <trkpt lat="44.80353" lon="6.7374">
        <ele>2180</ele>
        <time>2021-12-29T04:46:44Z</time>
      </trkpt>
      <trkpt lat="44.80351" lon="6.7375">
        <ele>2183</ele>
        <time>2021-12-29T04:46:46Z</time>
      </trkpt>
      <trkpt lat="44.80355" lon="6.73757">
        <ele>2186</ele>
        <time>2021-12-29T04:46:47Z</time>
      </trkpt>
      <trkpt lat="44.80364" lon="6.73756">
        <ele>2187</ele>
        <time>2021-12-29T04:46:48Z</time>
      </trkpt>
      <trkpt lat="44.80442" lon="6.73699">
        <ele>2188</ele>
        <time>2021-12-29T04:47:04Z</time>
      </trkpt>
      <trkpt lat="44.8049" lon="6.73671">
        <ele>2190</ele>
        <time>2021-12-29T04:47:13Z</time>
      </trkpt>
      <trkpt lat="44.80522" lon="6.73666">
        <ele>2195</ele>
        <time>2021-12-29T04:47:19Z</time>
      </trkpt>
      <trkpt lat="44.80564" lon="6.73668">
        <ele>2206</ele>
        <time>2021-12-29T04:47:27Z</time>
      </trkpt>
      <trkpt lat="44.80576" lon="6.73666">
        <ele>2208</ele>
        <time>2021-12-29T04:47:29Z</time>
      </trkpt>
      <trkpt lat="44.80722" lon="6.73607">
        <ele>2204</ele>
        <time>2021-12-29T04:47:56Z</time>
      </trkpt>
      <trkpt lat="44.80734" lon="6.73604">
        <ele>2202</ele>
        <time>2021-12-29T04:47:58Z</time>
      </trkpt>
      <trkpt lat="44.80745" lon="6.73607">
        <ele>2202</ele>
        <time>2021-12-29T04:48:00Z</time>
      </trkpt>
      <trkpt lat="44.80753" lon="6.73613">
        <ele>2202</ele>
        <time>2021-12-29T04:48:01Z</time>
      </trkpt>
      <trkpt lat="44.80758" lon="6.7362">
        <ele>2202</ele>
        <time>2021-12-29T04:48:03Z</time>
      </trkpt>
      <trkpt lat="44.80763" lon="6.73656">
        <ele>2208</ele>
        <time>2021-12-29T04:48:07Z</time>
      </trkpt>
      <trkpt lat="44.80768" lon="6.73675">
        <ele>2211</ele>
        <time>2021-12-29T04:48:10Z</time>
      </trkpt>
      <trkpt lat="44.80778" lon="6.73693">
        <ele>2213</ele>
        <time>2021-12-29T04:48:13Z</time>
      </trkpt>
      <trkpt lat="44.8079" lon="6.73709">
        <ele>2214</ele>
        <time>2021-12-29T04:48:16Z</time>
      </trkpt>
      <trkpt lat="44.808" lon="6.73717">
        <ele>2212</ele>
        <time>2021-12-29T04:48:18Z</time>
      </trkpt>
      <trkpt lat="44.80808" lon="6.7372">
        <ele>2210</ele>
        <time>2021-12-29T04:48:19Z</time>
      </trkpt>
      <trkpt lat="44.80842" lon="6.73715">
        <ele>2196</ele>
        <time>2021-12-29T04:48:25Z</time>
      </trkpt>
      <trkpt lat="44.80858" lon="6.73716">
        <ele>2192</ele>
        <time>2021-12-29T04:48:28Z</time>
      </trkpt>
      <trkpt lat="44.80865" lon="6.73718">
        <ele>2190</ele>
        <time>2021-12-29T04:48:29Z</time>
      </trkpt>
      <trkpt lat="44.80875" lon="6.73732">
        <ele>2191</ele>
        <time>2021-12-29T04:48:32Z</time>
      </trkpt>
      <trkpt lat="44.80909" lon="6.73799">
        <ele>2192</ele>
        <time>2021-12-29T04:48:42Z</time>
      </trkpt>
      <trkpt lat="44.80919" lon="6.73815">
        <ele>2190</ele>
        <time>2021-12-29T04:48:45Z</time>
      </trkpt>
      <trkpt lat="44.80936" lon="6.7383">
        <ele>2191</ele>
        <time>2021-12-29T04:48:49Z</time>
      </trkpt>
      <trkpt lat="44.80954" lon="6.73841">
        <ele>2193</ele>
        <time>2021-12-29T04:48:52Z</time>
      </trkpt>
      <trkpt lat="44.80967" lon="6.73846">
        <ele>2194</ele>
        <time>2021-12-29T04:48:55Z</time>
      </trkpt>
      <trkpt lat="44.80977" lon="6.73846">
        <ele>2193</ele>
        <time>2021-12-29T04:48:56Z</time>
      </trkpt>
      <trkpt lat="44.81016" lon="6.73835">
        <ele>2191</ele>
        <time>2021-12-29T04:49:03Z</time>
      </trkpt>
      <trkpt lat="44.81052" lon="6.73821">
        <ele>2193</ele>
        <time>2021-12-29T04:49:10Z</time>
      </trkpt>
      <trkpt lat="44.81102" lon="6.73785">
        <ele>2197</ele>
        <time>2021-12-29T04:49:20Z</time>
      </trkpt>
      <trkpt lat="44.81116" lon="6.73772">
        <ele>2201</ele>
        <time>2021-12-29T04:49:23Z</time>
      </trkpt>
      <trkpt lat="44.81124" lon="6.73757">
        <ele>2202</ele>
        <time>2021-12-29T04:49:25Z</time>
      </trkpt>
      <trkpt lat="44.81127" lon="6.73719">
        <ele>2196</ele>
        <time>2021-12-29T04:49:30Z</time>
      </trkpt>
      <trkpt lat="44.81133" lon="6.73696">
        <ele>2195</ele>
        <time>2021-12-29T04:49:33Z</time>
      </trkpt>
      <trkpt lat="44.81143" lon="6.73683">
        <ele>2198</ele>
        <time>2021-12-29T04:49:36Z</time>
      </trkpt>
      <trkpt lat="44.81164" lon="6.73669">
        <ele>2207</ele>
        <time>2021-12-29T04:49:40Z</time>
      </trkpt>
      <trkpt lat="44.81169" lon="6.73656">
        <ele>2209</ele>
        <time>2021-12-29T04:49:42Z</time>
      </trkpt>
      <trkpt lat="44.81169" lon="6.73647">
        <ele>2209</ele>
        <time>2021-12-29T04:49:43Z</time>
      </trkpt>
      <trkpt lat="44.81166" lon="6.73634">
        <ele>2208</ele>
        <time>2021-12-29T04:49:45Z</time>
      </trkpt>
      <trkpt lat="44.81155" lon="6.73607">
        <ele>2202</ele>
        <time>2021-12-29T04:49:49Z</time>
      </trkpt>
      <trkpt lat="44.8115" lon="6.7359">
        <ele>2199</ele>
        <time>2021-12-29T04:49:51Z</time>
      </trkpt>
      <trkpt lat="44.81148" lon="6.73563">
        <ele>2196</ele>
        <time>2021-12-29T04:49:54Z</time>
      </trkpt>
      <trkpt lat="44.8115" lon="6.73552">
        <ele>2195</ele>
        <time>2021-12-29T04:49:56Z</time>
      </trkpt>
      <trkpt lat="44.81153" lon="6.73542">
        <ele>2195</ele>
        <time>2021-12-29T04:49:57Z</time>
      </trkpt>
      <trkpt lat="44.81159" lon="6.73536">
        <ele>2197</ele>
        <time>2021-12-29T04:49:58Z</time>
      </trkpt>
      <trkpt lat="44.81179" lon="6.73528">
        <ele>2205</ele>
        <time>2021-12-29T04:50:02Z</time>
      </trkpt>
      <trkpt lat="44.8119" lon="6.73514">
        <ele>2206</ele>
        <time>2021-12-29T04:50:05Z</time>
      </trkpt>
      <trkpt lat="44.812" lon="6.73505">
        <ele>2208</ele>
        <time>2021-12-29T04:50:07Z</time>
      </trkpt>
      <trkpt lat="44.81212" lon="6.73498">
        <ele>2210</ele>
        <time>2021-12-29T04:50:09Z</time>
      </trkpt>
      <trkpt lat="44.81234" lon="6.73491">
        <ele>2215</ele>
        <time>2021-12-29T04:50:13Z</time>
      </trkpt>
      <trkpt lat="44.81271" lon="6.7347">
        <ele>2214</ele>
        <time>2021-12-29T04:50:20Z</time>
      </trkpt>
      <trkpt lat="44.81295" lon="6.73449">
        <ele>2210</ele>
        <time>2021-12-29T04:50:25Z</time>
      </trkpt>
      <trkpt lat="44.81306" lon="6.73444">
        <ele>2210</ele>
        <time>2021-12-29T04:50:27Z</time>
      </trkpt>
      <trkpt lat="44.81316" lon="6.73445">
        <ele>2213</ele>
        <time>2021-12-29T04:50:29Z</time>
      </trkpt>
      <trkpt lat="44.81324" lon="6.7345">
        <ele>2216</ele>
        <time>2021-12-29T04:50:31Z</time>
      </trkpt>
      <trkpt lat="44.8133" lon="6.73458">
        <ele>2219</ele>
        <time>2021-12-29T04:50:32Z</time>
      </trkpt>
      <trkpt lat="44.81344" lon="6.73484">
        <ele>2226</ele>
        <time>2021-12-29T04:50:36Z</time>
      </trkpt>
      <trkpt lat="44.8136" lon="6.73527">
        <ele>2233</ele>
        <time>2021-12-29T04:50:42Z</time>
      </trkpt>
      <trkpt lat="44.8138" lon="6.73596">
        <ele>2248</ele>
        <time>2021-12-29T04:50:52Z</time>
      </trkpt>
      <trkpt lat="44.81387" lon="6.73609">
        <ele>2253</ele>
        <time>2021-12-29T04:50:54Z</time>
      </trkpt>
      <trkpt lat="44.81393" lon="6.73614">
        <ele>2254</ele>
        <time>2021-12-29T04:50:55Z</time>
      </trkpt>
      <trkpt lat="44.81399" lon="6.73617">
        <ele>2254</ele>
        <time>2021-12-29T04:50:56Z</time>
      </trkpt>
      <trkpt lat="44.81425" lon="6.73617">
        <ele>2251</ele>
        <time>2021-12-29T04:51:01Z</time>
      </trkpt>
      <trkpt lat="44.81435" lon="6.73619">
        <ele>2252</ele>
        <time>2021-12-29T04:51:03Z</time>
      </trkpt>
      <trkpt lat="44.81466" lon="6.73632">
        <ele>2259</ele>
        <time>2021-12-29T04:51:08Z</time>
      </trkpt>
      <trkpt lat="44.81495" lon="6.7363">
        <ele>2260</ele>
        <time>2021-12-29T04:51:14Z</time>
      </trkpt>
      <trkpt lat="44.8155" lon="6.73633">
        <ele>2271</ele>
        <time>2021-12-29T04:51:23Z</time>
      </trkpt>
      <trkpt lat="44.81562" lon="6.73627">
        <ele>2272</ele>
        <time>2021-12-29T04:51:26Z</time>
      </trkpt>
      <trkpt lat="44.81567" lon="6.73615">
        <ele>2271</ele>
        <time>2021-12-29T04:51:27Z</time>
      </trkpt>
      <trkpt lat="44.81569" lon="6.73598">
        <ele>2269</ele>
        <time>2021-12-29T04:51:30Z</time>
      </trkpt>
      <trkpt lat="44.81562" lon="6.73555">
        <ele>2263</ele>
        <time>2021-12-29T04:51:35Z</time>
      </trkpt>
      <trkpt lat="44.81557" lon="6.7353">
        <ele>2260</ele>
        <time>2021-12-29T04:51:38Z</time>
      </trkpt>
      <trkpt lat="44.81556" lon="6.73517">
        <ele>2258</ele>
        <time>2021-12-29T04:51:40Z</time>
      </trkpt>
      <trkpt lat="44.81561" lon="6.73506">
        <ele>2260</ele>
        <time>2021-12-29T04:51:42Z</time>
      </trkpt>
      <trkpt lat="44.81592" lon="6.73482">
        <ele>2269</ele>
        <time>2021-12-29T04:51:48Z</time>
      </trkpt>
      <trkpt lat="44.81611" lon="6.73459">
        <ele>2270</ele>
        <time>2021-12-29T04:51:52Z</time>
      </trkpt>
      <trkpt lat="44.81623" lon="6.7345">
        <ele>2271</ele>
        <time>2021-12-29T04:51:55Z</time>
      </trkpt>
      <trkpt lat="44.81637" lon="6.73449">
        <ele>2274</ele>
        <time>2021-12-29T04:51:57Z</time>
      </trkpt>
      <trkpt lat="44.8166" lon="6.73459">
        <ele>2281</ele>
        <time>2021-12-29T04:52:02Z</time>
      </trkpt>
      <trkpt lat="44.81671" lon="6.7346">
        <ele>2284</ele>
        <time>2021-12-29T04:52:04Z</time>
      </trkpt>
      <trkpt lat="44.81681" lon="6.73456">
        <ele>2286</ele>
        <time>2021-12-29T04:52:05Z</time>
      </trkpt>
      <trkpt lat="44.81715" lon="6.7341">
        <ele>2289</ele>
        <time>2021-12-29T04:52:14Z</time>
      </trkpt>
      <trkpt lat="44.81782" lon="6.7333">
        <ele>2299</ele>
        <time>2021-12-29T04:52:29Z</time>
      </trkpt>
      <trkpt lat="44.81799" lon="6.73305">
        <ele>2302</ele>
        <time>2021-12-29T04:52:34Z</time>
      </trkpt>
      <trkpt lat="44.81818" lon="6.7327">
        <ele>2305</ele>
        <time>2021-12-29T04:52:39Z</time>
      </trkpt>
      <trkpt lat="44.81824" lon="6.73267">
        <ele>2306</ele>
        <time>2021-12-29T04:52:41Z</time>
      </trkpt>
      <trkpt lat="44.81829" lon="6.73268">
        <ele>2307</ele>
        <time>2021-12-29T04:52:41Z</time>
      </trkpt>
      <trkpt lat="44.81834" lon="6.73272">
        <ele>2309</ele>
        <time>2021-12-29T04:52:42Z</time>
      </trkpt>
      <trkpt lat="44.81835" lon="6.73279">
        <ele>2310</ele>
        <time>2021-12-29T04:52:43Z</time>
      </trkpt>
      <trkpt lat="44.81833" lon="6.73292">
        <ele>2310</ele>
        <time>2021-12-29T04:52:45Z</time>
      </trkpt>
      <trkpt lat="44.81811" lon="6.73345">
        <ele>2309</ele>
        <time>2021-12-29T04:52:53Z</time>
      </trkpt>
      <trkpt lat="44.81783" lon="6.73394">
        <ele>2308</ele>
        <time>2021-12-29T04:53:01Z</time>
      </trkpt>
      <trkpt lat="44.81764" lon="6.73433">
        <ele>2307</ele>
        <time>2021-12-29T04:53:07Z</time>
      </trkpt>
      <trkpt lat="44.81765" lon="6.73443">
        <ele>2308</ele>
        <time>2021-12-29T04:53:08Z</time>
      </trkpt>
      <trkpt lat="44.81768" lon="6.73448">
        <ele>2309</ele>
        <time>2021-12-29T04:53:09Z</time>
      </trkpt>
      <trkpt lat="44.81773" lon="6.73448">
        <ele>2311</ele>
        <time>2021-12-29T04:53:10Z</time>
      </trkpt>
      <trkpt lat="44.81777" lon="6.73446">
        <ele>2312</ele>
        <time>2021-12-29T04:53:10Z</time>
      </trkpt>
      <trkpt lat="44.81793" lon="6.73413">
        <ele>2314</ele>
        <time>2021-12-29T04:53:15Z</time>
      </trkpt>
      <trkpt lat="44.818" lon="6.73404">
        <ele>2315</ele>
        <time>2021-12-29T04:53:17Z</time>
      </trkpt>
      <trkpt lat="44.81848" lon="6.73363">
        <ele>2322</ele>
        <time>2021-12-29T04:53:27Z</time>
      </trkpt>
      <trkpt lat="44.81871" lon="6.73337">
        <ele>2325</ele>
        <time>2021-12-29T04:53:32Z</time>
      </trkpt>
      <trkpt lat="44.81921" lon="6.73264">
        <ele>2334</ele>
        <time>2021-12-29T04:53:45Z</time>
      </trkpt>
      <trkpt lat="44.81931" lon="6.73244">
        <ele>2336</ele>
        <time>2021-12-29T04:53:48Z</time>
      </trkpt>
      <trkpt lat="44.81938" lon="6.73217">
        <ele>2339</ele>
        <time>2021-12-29T04:53:52Z</time>
      </trkpt>
      <trkpt lat="44.81944" lon="6.73209">
        <ele>2341</ele>
        <time>2021-12-29T04:53:53Z</time>
      </trkpt>
      <trkpt lat="44.81948" lon="6.73209">
        <ele>2342</ele>
        <time>2021-12-29T04:53:54Z</time>
      </trkpt>
      <trkpt lat="44.81953" lon="6.73212">
        <ele>2344</ele>
        <time>2021-12-29T04:53:55Z</time>
      </trkpt>
      <trkpt lat="44.81955" lon="6.73216">
        <ele>2344</ele>
        <time>2021-12-29T04:53:56Z</time>
      </trkpt>
      <trkpt lat="44.81957" lon="6.73225">
        <ele>2345</ele>
        <time>2021-12-29T04:53:57Z</time>
      </trkpt>
      <trkpt lat="44.81956" lon="6.73233">
        <ele>2344</ele>
        <time>2021-12-29T04:53:58Z</time>
      </trkpt>
      <trkpt lat="44.81953" lon="6.73246">
        <ele>2343</ele>
        <time>2021-12-29T04:54:00Z</time>
      </trkpt>
      <trkpt lat="44.81931" lon="6.73291">
        <ele>2340</ele>
        <time>2021-12-29T04:54:07Z</time>
      </trkpt>
      <trkpt lat="44.81924" lon="6.73316">
        <ele>2340</ele>
        <time>2021-12-29T04:54:10Z</time>
      </trkpt>
      <trkpt lat="44.8192" lon="6.73333">
        <ele>2340</ele>
        <time>2021-12-29T04:54:12Z</time>
      </trkpt>
      <trkpt lat="44.8192" lon="6.73372">
        <ele>2345</ele>
        <time>2021-12-29T04:54:17Z</time>
      </trkpt>
      <trkpt lat="44.81917" lon="6.73389">
        <ele>2347</ele>
        <time>2021-12-29T04:54:19Z</time>
      </trkpt>
      <trkpt lat="44.81912" lon="6.73401">
        <ele>2347</ele>
        <time>2021-12-29T04:54:21Z</time>
      </trkpt>
      <trkpt lat="44.81883" lon="6.7345">
        <ele>2344</ele>
        <time>2021-12-29T04:54:29Z</time>
      </trkpt>
      <trkpt lat="44.8188" lon="6.73457">
        <ele>2344</ele>
        <time>2021-12-29T04:54:30Z</time>
      </trkpt>
      <trkpt lat="44.8188" lon="6.73466">
        <ele>2344</ele>
        <time>2021-12-29T04:54:31Z</time>
      </trkpt>
      <trkpt lat="44.81885" lon="6.73475">
        <ele>2346</ele>
        <time>2021-12-29T04:54:33Z</time>
      </trkpt>
      <trkpt lat="44.81893" lon="6.73481">
        <ele>2349</ele>
        <time>2021-12-29T04:54:34Z</time>
      </trkpt>
      <trkpt lat="44.81916" lon="6.73488">
        <ele>2354</ele>
        <time>2021-12-29T04:54:39Z</time>
      </trkpt>
      <trkpt lat="44.82002" lon="6.73504">
        <ele>2363</ele>
        <time>2021-12-29T04:54:54Z</time>
      </trkpt>
      <trkpt lat="44.82027" lon="6.73507">
        <ele>2358</ele>
        <time>2021-12-29T04:54:58Z</time>
      </trkpt>
      <trkpt lat="44.8204" lon="6.73505">
        <ele>2356</ele>
        <time>2021-12-29T04:55:01Z</time>
      </trkpt>
      <trkpt lat="44.82051" lon="6.73498">
        <ele>2353</ele>
        <time>2021-12-29T04:55:03Z</time>
      </trkpt>
      <trkpt lat="44.8206" lon="6.73487">
        <ele>2352</ele>
        <time>2021-12-29T04:55:05Z</time>
      </trkpt>
      <trkpt lat="44.82078" lon="6.73454">
        <ele>2352</ele>
        <time>2021-12-29T04:55:10Z</time>
      </trkpt>
      <trkpt lat="44.82091" lon="6.73423">
        <ele>2351</ele>
        <time>2021-12-29T04:55:15Z</time>
      </trkpt>
      <trkpt lat="44.82097" lon="6.7342">
        <ele>2349</ele>
        <time>2021-12-29T04:55:16Z</time>
      </trkpt>
      <trkpt lat="44.82103" lon="6.73424">
        <ele>2346</ele>
        <time>2021-12-29T04:55:17Z</time>
      </trkpt>
      <trkpt lat="44.82106" lon="6.73431">
        <ele>2345</ele>
        <time>2021-12-29T04:55:18Z</time>
      </trkpt>
      <trkpt lat="44.82106" lon="6.73439">
        <ele>2344</ele>
        <time>2021-12-29T04:55:19Z</time>
      </trkpt>
      <trkpt lat="44.82089" lon="6.7348">
        <ele>2347</ele>
        <time>2021-12-29T04:55:25Z</time>
      </trkpt>
      <trkpt lat="44.82086" lon="6.73497">
        <ele>2347</ele>
        <time>2021-12-29T04:55:27Z</time>
      </trkpt>
      <trkpt lat="44.82087" lon="6.73518">
        <ele>2346</ele>
        <time>2021-12-29T04:55:30Z</time>
      </trkpt>
      <trkpt lat="44.82092" lon="6.73537">
        <ele>2346</ele>
        <time>2021-12-29T04:55:33Z</time>
      </trkpt>
      <trkpt lat="44.82099" lon="6.7355">
        <ele>2345</ele>
        <time>2021-12-29T04:55:35Z</time>
      </trkpt>
      <trkpt lat="44.82108" lon="6.73557">
        <ele>2343</ele>
        <time>2021-12-29T04:55:36Z</time>
      </trkpt>
      <trkpt lat="44.82176" lon="6.7359">
        <ele>2332</ele>
        <time>2021-12-29T04:55:49Z</time>
      </trkpt>
      <trkpt lat="44.82218" lon="6.73607">
        <ele>2332</ele>
        <time>2021-12-29T04:55:57Z</time>
      </trkpt>
      <trkpt lat="44.82245" lon="6.73614">
        <ele>2330</ele>
        <time>2021-12-29T04:56:02Z</time>
      </trkpt>
      <trkpt lat="44.82251" lon="6.73612">
        <ele>2329</ele>
        <time>2021-12-29T04:56:03Z</time>
      </trkpt>
      <trkpt lat="44.82258" lon="6.73606">
        <ele>2327</ele>
        <time>2021-12-29T04:56:05Z</time>
      </trkpt>
      <trkpt lat="44.8226" lon="6.73599">
        <ele>2326</ele>
        <time>2021-12-29T04:56:05Z</time>
      </trkpt>
      <trkpt lat="44.82261" lon="6.7359">
        <ele>2324</ele>
        <time>2021-12-29T04:56:07Z</time>
      </trkpt>
      <trkpt lat="44.82258" lon="6.7358">
        <ele>2322</ele>
        <time>2021-12-29T04:56:08Z</time>
      </trkpt>
      <trkpt lat="44.82233" lon="6.73554">
        <ele>2319</ele>
        <time>2021-12-29T04:56:14Z</time>
      </trkpt>
      <trkpt lat="44.82197" lon="6.735">
        <ele>2317</ele>
        <time>2021-12-29T04:56:23Z</time>
      </trkpt>
      <trkpt lat="44.82184" lon="6.73478">
        <ele>2319</ele>
        <time>2021-12-29T04:56:26Z</time>
      </trkpt>
      <trkpt lat="44.82179" lon="6.73461">
        <ele>2319</ele>
        <time>2021-12-29T04:56:29Z</time>
      </trkpt>
      <trkpt lat="44.82179" lon="6.73437">
        <ele>2318</ele>
        <time>2021-12-29T04:56:32Z</time>
      </trkpt>
      <trkpt lat="44.82186" lon="6.73395">
        <ele>2314</ele>
        <time>2021-12-29T04:56:37Z</time>
      </trkpt>
      <trkpt lat="44.82188" lon="6.73367">
        <ele>2311</ele>
        <time>2021-12-29T04:56:41Z</time>
      </trkpt>
      <trkpt lat="44.82187" lon="6.73341">
        <ele>2310</ele>
        <time>2021-12-29T04:56:44Z</time>
      </trkpt>
      <trkpt lat="44.8218" lon="6.73308">
        <ele>2308</ele>
        <time>2021-12-29T04:56:48Z</time>
      </trkpt>
      <trkpt lat="44.82182" lon="6.73298">
        <ele>2306</ele>
        <time>2021-12-29T04:56:50Z</time>
      </trkpt>
      <trkpt lat="44.82185" lon="6.73294">
        <ele>2305</ele>
        <time>2021-12-29T04:56:50Z</time>
      </trkpt>
      <trkpt lat="44.8219" lon="6.73292">
        <ele>2303</ele>
        <time>2021-12-29T04:56:51Z</time>
      </trkpt>
      <trkpt lat="44.82195" lon="6.73294">
        <ele>2302</ele>
        <time>2021-12-29T04:56:52Z</time>
      </trkpt>
      <trkpt lat="44.82198" lon="6.73299">
        <ele>2301</ele>
        <time>2021-12-29T04:56:53Z</time>
      </trkpt>
      <trkpt lat="44.82201" lon="6.73334">
        <ele>2305</ele>
        <time>2021-12-29T04:56:58Z</time>
      </trkpt>
      <trkpt lat="44.82205" lon="6.73353">
        <ele>2305</ele>
        <time>2021-12-29T04:57:00Z</time>
      </trkpt>
      <trkpt lat="44.82212" lon="6.73368">
        <ele>2304</ele>
        <time>2021-12-29T04:57:02Z</time>
      </trkpt>
      <trkpt lat="44.82219" lon="6.73376">
        <ele>2303</ele>
        <time>2021-12-29T04:57:04Z</time>
      </trkpt>
      <trkpt lat="44.82241" lon="6.73384">
        <ele>2297</ele>
        <time>2021-12-29T04:57:08Z</time>
      </trkpt>
      <trkpt lat="44.82262" lon="6.73384">
        <ele>2292</ele>
        <time>2021-12-29T04:57:12Z</time>
      </trkpt>
      <trkpt lat="44.8227" lon="6.73381">
        <ele>2291</ele>
        <time>2021-12-29T04:57:13Z</time>
      </trkpt>
      <trkpt lat="44.82278" lon="6.73375">
        <ele>2289</ele>
        <time>2021-12-29T04:57:15Z</time>
      </trkpt>
      <trkpt lat="44.82288" lon="6.73362">
        <ele>2286</ele>
        <time>2021-12-29T04:57:17Z</time>
      </trkpt>
      <trkpt lat="44.8229" lon="6.73353">
        <ele>2284</ele>
        <time>2021-12-29T04:57:18Z</time>
      </trkpt>
      <trkpt lat="44.82289" lon="6.73346">
        <ele>2284</ele>
        <time>2021-12-29T04:57:19Z</time>
      </trkpt>
      <trkpt lat="44.82287" lon="6.73338">
        <ele>2283</ele>
        <time>2021-12-29T04:57:20Z</time>
      </trkpt>
      <trkpt lat="44.82282" lon="6.73329">
        <ele>2283</ele>
        <time>2021-12-29T04:57:22Z</time>
      </trkpt>
      <trkpt lat="44.82267" lon="6.73317">
        <ele>2284</ele>
        <time>2021-12-29T04:57:25Z</time>
      </trkpt>
      <trkpt lat="44.82246" lon="6.7331">
        <ele>2288</ele>
        <time>2021-12-29T04:57:29Z</time>
      </trkpt>
      <trkpt lat="44.82241" lon="6.73306">
        <ele>2289</ele>
        <time>2021-12-29T04:57:30Z</time>
      </trkpt>
      <trkpt lat="44.82234" lon="6.73297">
        <ele>2290</ele>
        <time>2021-12-29T04:57:31Z</time>
      </trkpt>
      <trkpt lat="44.82229" lon="6.73282">
        <ele>2290</ele>
        <time>2021-12-29T04:57:34Z</time>
      </trkpt>
      <trkpt lat="44.82222" lon="6.73255">
        <ele>2289</ele>
        <time>2021-12-29T04:57:37Z</time>
      </trkpt>
      <trkpt lat="44.82221" lon="6.73238">
        <ele>2287</ele>
        <time>2021-12-29T04:57:39Z</time>
      </trkpt>
      <trkpt lat="44.82224" lon="6.73213">
        <ele>2284</ele>
        <time>2021-12-29T04:57:43Z</time>
      </trkpt>
      <trkpt lat="44.82237" lon="6.73171">
        <ele>2276</ele>
        <time>2021-12-29T04:57:48Z</time>
      </trkpt>
      <trkpt lat="44.82242" lon="6.73129">
        <ele>2275</ele>
        <time>2021-12-29T04:57:54Z</time>
      </trkpt>
      <trkpt lat="44.82245" lon="6.73123">
        <ele>2274</ele>
        <time>2021-12-29T04:57:55Z</time>
      </trkpt>
      <trkpt lat="44.82248" lon="6.7312">
        <ele>2273</ele>
        <time>2021-12-29T04:57:55Z</time>
      </trkpt>
      <trkpt lat="44.82253" lon="6.7312">
        <ele>2272</ele>
        <time>2021-12-29T04:57:56Z</time>
      </trkpt>
      <trkpt lat="44.82259" lon="6.73127">
        <ele>2271</ele>
        <time>2021-12-29T04:57:58Z</time>
      </trkpt>
      <trkpt lat="44.82261" lon="6.7314">
        <ele>2271</ele>
        <time>2021-12-29T04:57:59Z</time>
      </trkpt>
      <trkpt lat="44.82266" lon="6.73181">
        <ele>2271</ele>
        <time>2021-12-29T04:58:05Z</time>
      </trkpt>
      <trkpt lat="44.82272" lon="6.73195">
        <ele>2272</ele>
        <time>2021-12-29T04:58:07Z</time>
      </trkpt>
      <trkpt lat="44.82279" lon="6.73202">
        <ele>2271</ele>
        <time>2021-12-29T04:58:08Z</time>
      </trkpt>
      <trkpt lat="44.82297" lon="6.73207">
        <ele>2268</ele>
        <time>2021-12-29T04:58:11Z</time>
      </trkpt>
      <trkpt lat="44.8231" lon="6.73205">
        <ele>2266</ele>
        <time>2021-12-29T04:58:14Z</time>
      </trkpt>
      <trkpt lat="44.82319" lon="6.73198">
        <ele>2264</ele>
        <time>2021-12-29T04:58:16Z</time>
      </trkpt>
      <trkpt lat="44.82335" lon="6.73177">
        <ele>2259</ele>
        <time>2021-12-29T04:58:19Z</time>
      </trkpt>
      <trkpt lat="44.8234" lon="6.73175">
        <ele>2258</ele>
        <time>2021-12-29T04:58:20Z</time>
      </trkpt>
      <trkpt lat="44.82343" lon="6.73176">
        <ele>2258</ele>
        <time>2021-12-29T04:58:21Z</time>
      </trkpt>
      <trkpt lat="44.82347" lon="6.73187">
        <ele>2259</ele>
        <time>2021-12-29T04:58:22Z</time>
      </trkpt>
      <trkpt lat="44.82344" lon="6.73213">
        <ele>2262</ele>
        <time>2021-12-29T04:58:26Z</time>
      </trkpt>
      <trkpt lat="44.82345" lon="6.73223">
        <ele>2263</ele>
        <time>2021-12-29T04:58:27Z</time>
      </trkpt>
      <trkpt lat="44.8235" lon="6.73232">
        <ele>2264</ele>
        <time>2021-12-29T04:58:28Z</time>
      </trkpt>
      <trkpt lat="44.82357" lon="6.73239">
        <ele>2264</ele>
        <time>2021-12-29T04:58:30Z</time>
      </trkpt>
      <trkpt lat="44.82363" lon="6.73241">
        <ele>2264</ele>
        <time>2021-12-29T04:58:31Z</time>
      </trkpt>
      <trkpt lat="44.82368" lon="6.7324">
        <ele>2264</ele>
        <time>2021-12-29T04:58:32Z</time>
      </trkpt>
      <trkpt lat="44.82375" lon="6.73234">
        <ele>2263</ele>
        <time>2021-12-29T04:58:33Z</time>
      </trkpt>
      <trkpt lat="44.82388" lon="6.73217">
        <ele>2260</ele>
        <time>2021-12-29T04:58:37Z</time>
      </trkpt>
      <trkpt lat="44.82396" lon="6.73211">
        <ele>2258</ele>
        <time>2021-12-29T04:58:38Z</time>
      </trkpt>
      <trkpt lat="44.82438" lon="6.73198">
        <ele>2255</ele>
        <time>2021-12-29T04:58:46Z</time>
      </trkpt>
      <trkpt lat="44.82446" lon="6.73193">
        <ele>2255</ele>
        <time>2021-12-29T04:58:47Z</time>
      </trkpt>
      <trkpt lat="44.82462" lon="6.73178">
        <ele>2252</ele>
        <time>2021-12-29T04:58:51Z</time>
      </trkpt>
      <trkpt lat="44.82478" lon="6.7317">
        <ele>2250</ele>
        <time>2021-12-29T04:58:54Z</time>
      </trkpt>
      <trkpt lat="44.82486" lon="6.7316">
        <ele>2248</ele>
        <time>2021-12-29T04:58:56Z</time>
      </trkpt>
      <trkpt lat="44.82494" lon="6.7314">
        <ele>2245</ele>
        <time>2021-12-29T04:58:59Z</time>
      </trkpt>
      <trkpt lat="44.82502" lon="6.73127">
        <ele>2243</ele>
        <time>2021-12-29T04:59:01Z</time>
      </trkpt>
      <trkpt lat="44.8255" lon="6.73097">
        <ele>2241</ele>
        <time>2021-12-29T04:59:10Z</time>
      </trkpt>
      <trkpt lat="44.82711" lon="6.72951">
        <ele>2221</ele>
        <time>2021-12-29T04:59:44Z</time>
      </trkpt>
      <trkpt lat="44.82722" lon="6.72938">
        <ele>2220</ele>
        <time>2021-12-29T04:59:47Z</time>
      </trkpt>
      <trkpt lat="44.82725" lon="6.72928">
        <ele>2219</ele>
        <time>2021-12-29T04:59:48Z</time>
      </trkpt>
      <trkpt lat="44.82725" lon="6.72918">
        <ele>2218</ele>
        <time>2021-12-29T04:59:49Z</time>
      </trkpt>
      <trkpt lat="44.82722" lon="6.72909">
        <ele>2217</ele>
        <time>2021-12-29T04:59:51Z</time>
      </trkpt>
      <trkpt lat="44.82715" lon="6.72894">
        <ele>2216</ele>
        <time>2021-12-29T04:59:53Z</time>
      </trkpt>
      <trkpt lat="44.82679" lon="6.7285">
        <ele>2213</ele>
        <time>2021-12-29T05:00:01Z</time>
      </trkpt>
      <trkpt lat="44.82668" lon="6.7284">
        <ele>2213</ele>
        <time>2021-12-29T05:00:04Z</time>
      </trkpt>
      <trkpt lat="44.82661" lon="6.72837">
        <ele>2212</ele>
        <time>2021-12-29T05:00:05Z</time>
      </trkpt>
      <trkpt lat="44.82652" lon="6.72835">
        <ele>2211</ele>
        <time>2021-12-29T05:00:07Z</time>
      </trkpt>
      <trkpt lat="44.82624" lon="6.72837">
        <ele>2208</ele>
        <time>2021-12-29T05:00:12Z</time>
      </trkpt>
      <trkpt lat="44.8262" lon="6.72832">
        <ele>2207</ele>
        <time>2021-12-29T05:00:13Z</time>
      </trkpt>
      <trkpt lat="44.82619" lon="6.72826">
        <ele>2206</ele>
        <time>2021-12-29T05:00:13Z</time>
      </trkpt>
      <trkpt lat="44.82622" lon="6.72817">
        <ele>2205</ele>
        <time>2021-12-29T05:00:15Z</time>
      </trkpt>
      <trkpt lat="44.8265" lon="6.72796">
        <ele>2204</ele>
        <time>2021-12-29T05:00:20Z</time>
      </trkpt>
      <trkpt lat="44.82689" lon="6.72754">
        <ele>2198</ele>
        <time>2021-12-29T05:00:29Z</time>
      </trkpt>
      <trkpt lat="44.82702" lon="6.72745">
        <ele>2197</ele>
        <time>2021-12-29T05:00:32Z</time>
      </trkpt>
      <trkpt lat="44.82721" lon="6.72738">
        <ele>2197</ele>
        <time>2021-12-29T05:00:35Z</time>
      </trkpt>
      <trkpt lat="44.82737" lon="6.72736">
        <ele>2197</ele>
        <time>2021-12-29T05:00:38Z</time>
      </trkpt>
      <trkpt lat="44.82759" lon="6.72738">
        <ele>2197</ele>
        <time>2021-12-29T05:00:42Z</time>
      </trkpt>
      <trkpt lat="44.82807" lon="6.72749">
        <ele>2193</ele>
        <time>2021-12-29T05:00:51Z</time>
      </trkpt>
      <trkpt lat="44.82818" lon="6.72758">
        <ele>2192</ele>
        <time>2021-12-29T05:00:53Z</time>
      </trkpt>
      <trkpt lat="44.82833" lon="6.72781">
        <ele>2192</ele>
        <time>2021-12-29T05:00:57Z</time>
      </trkpt>
      <trkpt lat="44.82839" lon="6.72785">
        <ele>2192</ele>
        <time>2021-12-29T05:00:58Z</time>
      </trkpt>
      <trkpt lat="44.82844" lon="6.72783">
        <ele>2191</ele>
        <time>2021-12-29T05:00:59Z</time>
      </trkpt>
      <trkpt lat="44.82851" lon="6.72772">
        <ele>2189</ele>
        <time>2021-12-29T05:01:01Z</time>
      </trkpt>
      <trkpt lat="44.82855" lon="6.72749">
        <ele>2186</ele>
        <time>2021-12-29T05:01:04Z</time>
      </trkpt>
      <trkpt lat="44.82856" lon="6.72739">
        <ele>2185</ele>
        <time>2021-12-29T05:01:05Z</time>
      </trkpt>
      <trkpt lat="44.82854" lon="6.72723">
        <ele>2183</ele>
        <time>2021-12-29T05:01:07Z</time>
      </trkpt>
      <trkpt lat="44.82847" lon="6.72708">
        <ele>2182</ele>
        <time>2021-12-29T05:01:09Z</time>
      </trkpt>
      <trkpt lat="44.82833" lon="6.7269">
        <ele>2181</ele>
        <time>2021-12-29T05:01:13Z</time>
      </trkpt>
      <trkpt lat="44.82816" lon="6.72654">
        <ele>2176</ele>
        <time>2021-12-29T05:01:18Z</time>
      </trkpt>
      <trkpt lat="44.82804" lon="6.72646">
        <ele>2175</ele>
        <time>2021-12-29T05:01:20Z</time>
      </trkpt>
      <trkpt lat="44.82779" lon="6.72641">
        <ele>2175</ele>
        <time>2021-12-29T05:01:25Z</time>
      </trkpt>
      <trkpt lat="44.82732" lon="6.72625">
        <ele>2175</ele>
        <time>2021-12-29T05:01:34Z</time>
      </trkpt>
      <trkpt lat="44.8272" lon="6.72617">
        <ele>2176</ele>
        <time>2021-12-29T05:01:36Z</time>
      </trkpt>
      <trkpt lat="44.82717" lon="6.7261">
        <ele>2176</ele>
        <time>2021-12-29T05:01:37Z</time>
      </trkpt>
      <trkpt lat="44.82711" lon="6.72595">
        <ele>2175</ele>
        <time>2021-12-29T05:01:39Z</time>
      </trkpt>
      <trkpt lat="44.8271" lon="6.72577">
        <ele>2175</ele>
        <time>2021-12-29T05:01:41Z</time>
      </trkpt>
      <trkpt lat="44.82714" lon="6.72561">
        <ele>2174</ele>
        <time>2021-12-29T05:01:44Z</time>
      </trkpt>
      <trkpt lat="44.8272" lon="6.72551">
        <ele>2173</ele>
        <time>2021-12-29T05:01:45Z</time>
      </trkpt>
      <trkpt lat="44.82729" lon="6.72541">
        <ele>2170</ele>
        <time>2021-12-29T05:01:47Z</time>
      </trkpt>
      <trkpt lat="44.82743" lon="6.72533">
        <ele>2166</ele>
        <time>2021-12-29T05:01:50Z</time>
      </trkpt>
      <trkpt lat="44.82763" lon="6.72526">
        <ele>2162</ele>
        <time>2021-12-29T05:01:54Z</time>
      </trkpt>
      <trkpt lat="44.82783" lon="6.72512">
        <ele>2158</ele>
        <time>2021-12-29T05:01:58Z</time>
      </trkpt>
      <trkpt lat="44.83002" lon="6.72335">
        <ele>2138</ele>
        <time>2021-12-29T05:02:43Z</time>
      </trkpt>
      <trkpt lat="44.83016" lon="6.72327">
        <ele>2137</ele>
        <time>2021-12-29T05:02:45Z</time>
      </trkpt>
      <trkpt lat="44.83026" lon="6.72325">
        <ele>2136</ele>
        <time>2021-12-29T05:02:47Z</time>
      </trkpt>
      <trkpt lat="44.83036" lon="6.72329">
        <ele>2134</ele>
        <time>2021-12-29T05:02:49Z</time>
      </trkpt>
      <trkpt lat="44.83045" lon="6.72339">
        <ele>2131</ele>
        <time>2021-12-29T05:02:51Z</time>
      </trkpt>
      <trkpt lat="44.8305" lon="6.7235">
        <ele>2130</ele>
        <time>2021-12-29T05:02:53Z</time>
      </trkpt>
      <trkpt lat="44.83054" lon="6.72369">
        <ele>2128</ele>
        <time>2021-12-29T05:02:55Z</time>
      </trkpt>
      <trkpt lat="44.83053" lon="6.7238">
        <ele>2127</ele>
        <time>2021-12-29T05:02:56Z</time>
      </trkpt>
      <trkpt lat="44.83045" lon="6.72399">
        <ele>2126</ele>
        <time>2021-12-29T05:02:59Z</time>
      </trkpt>
      <trkpt lat="44.83015" lon="6.72438">
        <ele>2130</ele>
        <time>2021-12-29T05:03:06Z</time>
      </trkpt>
      <trkpt lat="44.83013" lon="6.72448">
        <ele>2131</ele>
        <time>2021-12-29T05:03:08Z</time>
      </trkpt>
      <trkpt lat="44.83017" lon="6.72455">
        <ele>2131</ele>
        <time>2021-12-29T05:03:09Z</time>
      </trkpt>
      <trkpt lat="44.83022" lon="6.72458">
        <ele>2130</ele>
        <time>2021-12-29T05:03:10Z</time>
      </trkpt>
      <trkpt lat="44.83029" lon="6.72454">
        <ele>2129</ele>
        <time>2021-12-29T05:03:11Z</time>
      </trkpt>
      <trkpt lat="44.83054" lon="6.72428">
        <ele>2125</ele>
        <time>2021-12-29T05:03:17Z</time>
      </trkpt>
      <trkpt lat="44.83064" lon="6.72421">
        <ele>2123</ele>
        <time>2021-12-29T05:03:19Z</time>
      </trkpt>
      <trkpt lat="44.83078" lon="6.72416">
        <ele>2121</ele>
        <time>2021-12-29T05:03:21Z</time>
      </trkpt>
      <trkpt lat="44.83096" lon="6.72417">
        <ele>2118</ele>
        <time>2021-12-29T05:03:25Z</time>
      </trkpt>
      <trkpt lat="44.83124" lon="6.72434">
        <ele>2115</ele>
        <time>2021-12-29T05:03:30Z</time>
      </trkpt>
      <trkpt lat="44.83141" lon="6.7244">
        <ele>2114</ele>
        <time>2021-12-29T05:03:33Z</time>
      </trkpt>
      <trkpt lat="44.83152" lon="6.7244">
        <ele>2112</ele>
        <time>2021-12-29T05:03:35Z</time>
      </trkpt>
      <trkpt lat="44.83174" lon="6.72431">
        <ele>2107</ele>
        <time>2021-12-29T05:03:39Z</time>
      </trkpt>
      <trkpt lat="44.83184" lon="6.72422">
        <ele>2103</ele>
        <time>2021-12-29T05:03:41Z</time>
      </trkpt>
      <trkpt lat="44.83188" lon="6.72411">
        <ele>2101</ele>
        <time>2021-12-29T05:03:43Z</time>
      </trkpt>
      <trkpt lat="44.8319" lon="6.72404">
        <ele>2100</ele>
        <time>2021-12-29T05:03:44Z</time>
      </trkpt>
      <trkpt lat="44.8319" lon="6.72395">
        <ele>2100</ele>
        <time>2021-12-29T05:03:45Z</time>
      </trkpt>
      <trkpt lat="44.83187" lon="6.72385">
        <ele>2100</ele>
        <time>2021-12-29T05:03:46Z</time>
      </trkpt>
      <trkpt lat="44.83173" lon="6.72359">
        <ele>2103</ele>
        <time>2021-12-29T05:03:50Z</time>
      </trkpt>
      <trkpt lat="44.83174" lon="6.7235">
        <ele>2102</ele>
        <time>2021-12-29T05:03:51Z</time>
      </trkpt>
      <trkpt lat="44.83179" lon="6.72345">
        <ele>2100</ele>
        <time>2021-12-29T05:03:53Z</time>
      </trkpt>
      <trkpt lat="44.83186" lon="6.72347">
        <ele>2098</ele>
        <time>2021-12-29T05:03:54Z</time>
      </trkpt>
      <trkpt lat="44.83197" lon="6.72362">
        <ele>2095</ele>
        <time>2021-12-29T05:03:57Z</time>
      </trkpt>
      <trkpt lat="44.83201" lon="6.7237">
        <ele>2095</ele>
        <time>2021-12-29T05:03:58Z</time>
      </trkpt>
      <trkpt lat="44.83204" lon="6.72381">
        <ele>2095</ele>
        <time>2021-12-29T05:03:59Z</time>
      </trkpt>
      <trkpt lat="44.83205" lon="6.7241">
        <ele>2096</ele>
        <time>2021-12-29T05:04:03Z</time>
      </trkpt>
      <trkpt lat="44.83206" lon="6.72416">
        <ele>2097</ele>
        <time>2021-12-29T05:04:04Z</time>
      </trkpt>
      <trkpt lat="44.83211" lon="6.72423">
        <ele>2097</ele>
        <time>2021-12-29T05:04:05Z</time>
      </trkpt>
      <trkpt lat="44.83219" lon="6.72423">
        <ele>2095</ele>
        <time>2021-12-29T05:04:06Z</time>
      </trkpt>
      <trkpt lat="44.83223" lon="6.72417">
        <ele>2092</ele>
        <time>2021-12-29T05:04:07Z</time>
      </trkpt>
      <trkpt lat="44.83225" lon="6.72407">
        <ele>2091</ele>
        <time>2021-12-29T05:04:09Z</time>
      </trkpt>
      <trkpt lat="44.83221" lon="6.72368">
        <ele>2088</ele>
        <time>2021-12-29T05:04:14Z</time>
      </trkpt>
      <trkpt lat="44.83216" lon="6.72352">
        <ele>2088</ele>
        <time>2021-12-29T05:04:16Z</time>
      </trkpt>
      <trkpt lat="44.83199" lon="6.72323">
        <ele>2095</ele>
        <time>2021-12-29T05:04:21Z</time>
      </trkpt>
      <trkpt lat="44.83197" lon="6.72312">
        <ele>2098</ele>
        <time>2021-12-29T05:04:22Z</time>
      </trkpt>
      <trkpt lat="44.832" lon="6.72302">
        <ele>2099</ele>
        <time>2021-12-29T05:04:23Z</time>
      </trkpt>
      <trkpt lat="44.83213" lon="6.72289">
        <ele>2097</ele>
        <time>2021-12-29T05:04:26Z</time>
      </trkpt>
      <trkpt lat="44.83278" lon="6.72256">
        <ele>2079</ele>
        <time>2021-12-29T05:04:39Z</time>
      </trkpt>
      <trkpt lat="44.83332" lon="6.72236">
        <ele>2067</ele>
        <time>2021-12-29T05:04:49Z</time>
      </trkpt>
      <trkpt lat="44.83345" lon="6.72225">
        <ele>2067</ele>
        <time>2021-12-29T05:04:51Z</time>
      </trkpt>
      <trkpt lat="44.83353" lon="6.72214">
        <ele>2067</ele>
        <time>2021-12-29T05:04:53Z</time>
      </trkpt>
      <trkpt lat="44.83361" lon="6.72198">
        <ele>2069</ele>
        <time>2021-12-29T05:04:56Z</time>
      </trkpt>
      <trkpt lat="44.83366" lon="6.72196">
        <ele>2068</ele>
        <time>2021-12-29T05:04:57Z</time>
      </trkpt>
      <trkpt lat="44.83371" lon="6.72197">
        <ele>2065</ele>
        <time>2021-12-29T05:04:58Z</time>
      </trkpt>
      <trkpt lat="44.83374" lon="6.72201">
        <ele>2063</ele>
        <time>2021-12-29T05:04:58Z</time>
      </trkpt>
      <trkpt lat="44.83376" lon="6.72208">
        <ele>2060</ele>
        <time>2021-12-29T05:04:59Z</time>
      </trkpt>
      <trkpt lat="44.83375" lon="6.72215">
        <ele>2059</ele>
        <time>2021-12-29T05:05:00Z</time>
      </trkpt>
      <trkpt lat="44.83348" lon="6.72241">
        <ele>2061</ele>
        <time>2021-12-29T05:05:06Z</time>
      </trkpt>
      <trkpt lat="44.83308" lon="6.72288">
        <ele>2063</ele>
        <time>2021-12-29T05:05:15Z</time>
      </trkpt>
      <trkpt lat="44.83302" lon="6.72297">
        <ele>2064</ele>
        <time>2021-12-29T05:05:17Z</time>
      </trkpt>
      <trkpt lat="44.83297" lon="6.72305">
        <ele>2064</ele>
        <time>2021-12-29T05:05:18Z</time>
      </trkpt>
      <trkpt lat="44.83291" lon="6.72323">
        <ele>2063</ele>
        <time>2021-12-29T05:05:21Z</time>
      </trkpt>
      <trkpt lat="44.83289" lon="6.72335">
        <ele>2062</ele>
        <time>2021-12-29T05:05:22Z</time>
      </trkpt>
      <trkpt lat="44.83289" lon="6.72349">
        <ele>2063</ele>
        <time>2021-12-29T05:05:24Z</time>
      </trkpt>
      <trkpt lat="44.83292" lon="6.72355">
        <ele>2063</ele>
        <time>2021-12-29T05:05:25Z</time>
      </trkpt>
      <trkpt lat="44.83296" lon="6.72357">
        <ele>2061</ele>
        <time>2021-12-29T05:05:26Z</time>
      </trkpt>
      <trkpt lat="44.83304" lon="6.72354">
        <ele>2058</ele>
        <time>2021-12-29T05:05:27Z</time>
      </trkpt>
      <trkpt lat="44.83315" lon="6.72335">
        <ele>2053</ele>
        <time>2021-12-29T05:05:30Z</time>
      </trkpt>
      <trkpt lat="44.83324" lon="6.72325">
        <ele>2051</ele>
        <time>2021-12-29T05:05:32Z</time>
      </trkpt>
      <trkpt lat="44.83365" lon="6.72301">
        <ele>2044</ele>
        <time>2021-12-29T05:05:40Z</time>
      </trkpt>
      <trkpt lat="44.8338" lon="6.72289">
        <ele>2042</ele>
        <time>2021-12-29T05:05:43Z</time>
      </trkpt>
      <trkpt lat="44.83396" lon="6.7227">
        <ele>2041</ele>
        <time>2021-12-29T05:05:47Z</time>
      </trkpt>
      <trkpt lat="44.83411" lon="6.72244">
        <ele>2041</ele>
        <time>2021-12-29T05:05:51Z</time>
      </trkpt>
      <trkpt lat="44.83417" lon="6.7224">
        <ele>2040</ele>
        <time>2021-12-29T05:05:52Z</time>
      </trkpt>
      <trkpt lat="44.83421" lon="6.72242">
        <ele>2038</ele>
        <time>2021-12-29T05:05:53Z</time>
      </trkpt>
      <trkpt lat="44.83424" lon="6.72246">
        <ele>2036</ele>
        <time>2021-12-29T05:05:54Z</time>
      </trkpt>
      <trkpt lat="44.83426" lon="6.72253">
        <ele>2034</ele>
        <time>2021-12-29T05:05:55Z</time>
      </trkpt>
      <trkpt lat="44.83425" lon="6.72259">
        <ele>2034</ele>
        <time>2021-12-29T05:05:56Z</time>
      </trkpt>
      <trkpt lat="44.83395" lon="6.72341">
        <ele>2033</ele>
        <time>2021-12-29T05:06:07Z</time>
      </trkpt>
      <trkpt lat="44.83394" lon="6.72347">
        <ele>2033</ele>
        <time>2021-12-29T05:06:08Z</time>
      </trkpt>
      <trkpt lat="44.83394" lon="6.72353">
        <ele>2034</ele>
        <time>2021-12-29T05:06:09Z</time>
      </trkpt>
      <trkpt lat="44.83397" lon="6.72358">
        <ele>2033</ele>
        <time>2021-12-29T05:06:10Z</time>
      </trkpt>
      <trkpt lat="44.83401" lon="6.72361">
        <ele>2033</ele>
        <time>2021-12-29T05:06:10Z</time>
      </trkpt>
      <trkpt lat="44.83409" lon="6.72361">
        <ele>2031</ele>
        <time>2021-12-29T05:06:12Z</time>
      </trkpt>
      <trkpt lat="44.83425" lon="6.72345">
        <ele>2025</ele>
        <time>2021-12-29T05:06:15Z</time>
      </trkpt>
      <trkpt lat="44.83446" lon="6.72319">
        <ele>2020</ele>
        <time>2021-12-29T05:06:20Z</time>
      </trkpt>
      <trkpt lat="44.83458" lon="6.723">
        <ele>2018</ele>
        <time>2021-12-29T05:06:23Z</time>
      </trkpt>
      <trkpt lat="44.83469" lon="6.72261">
        <ele>2017</ele>
        <time>2021-12-29T05:06:29Z</time>
      </trkpt>
      <trkpt lat="44.83474" lon="6.72217">
        <ele>2018</ele>
        <time>2021-12-29T05:06:34Z</time>
      </trkpt>
      <trkpt lat="44.83477" lon="6.72204">
        <ele>2017</ele>
        <time>2021-12-29T05:06:36Z</time>
      </trkpt>
      <trkpt lat="44.83491" lon="6.72151">
        <ele>2017</ele>
        <time>2021-12-29T05:06:43Z</time>
      </trkpt>
      <trkpt lat="44.83494" lon="6.72144">
        <ele>2017</ele>
        <time>2021-12-29T05:06:44Z</time>
      </trkpt>
      <trkpt lat="44.83498" lon="6.72141">
        <ele>2016</ele>
        <time>2021-12-29T05:06:45Z</time>
      </trkpt>
      <trkpt lat="44.83505" lon="6.72143">
        <ele>2013</ele>
        <time>2021-12-29T05:06:46Z</time>
      </trkpt>
      <trkpt lat="44.83509" lon="6.72154">
        <ele>2009</ele>
        <time>2021-12-29T05:06:48Z</time>
      </trkpt>
      <trkpt lat="44.835" lon="6.72181">
        <ele>2007</ele>
        <time>2021-12-29T05:06:52Z</time>
      </trkpt>
      <trkpt lat="44.83496" lon="6.72197">
        <ele>2008</ele>
        <time>2021-12-29T05:06:54Z</time>
      </trkpt>
      <trkpt lat="44.83495" lon="6.72229">
        <ele>2008</ele>
        <time>2021-12-29T05:06:58Z</time>
      </trkpt>
      <trkpt lat="44.83498" lon="6.72283">
        <ele>2005</ele>
        <time>2021-12-29T05:07:05Z</time>
      </trkpt>
      <trkpt lat="44.83492" lon="6.72316">
        <ele>2006</ele>
        <time>2021-12-29T05:07:09Z</time>
      </trkpt>
      <trkpt lat="44.83494" lon="6.72322">
        <ele>2005</ele>
        <time>2021-12-29T05:07:10Z</time>
      </trkpt>
      <trkpt lat="44.83497" lon="6.72325">
        <ele>2004</ele>
        <time>2021-12-29T05:07:10Z</time>
      </trkpt>
      <trkpt lat="44.83505" lon="6.72325">
        <ele>2001</ele>
        <time>2021-12-29T05:07:12Z</time>
      </trkpt>
      <trkpt lat="44.83508" lon="6.72323">
        <ele>2000</ele>
        <time>2021-12-29T05:07:12Z</time>
      </trkpt>
      <trkpt lat="44.83511" lon="6.72316">
        <ele>1999</ele>
        <time>2021-12-29T05:07:14Z</time>
      </trkpt>
      <trkpt lat="44.8352" lon="6.72259">
        <ele>1997</ele>
        <time>2021-12-29T05:07:21Z</time>
      </trkpt>
      <trkpt lat="44.83526" lon="6.72239">
        <ele>1996</ele>
        <time>2021-12-29T05:07:24Z</time>
      </trkpt>
      <trkpt lat="44.83538" lon="6.72208">
        <ele>1995</ele>
        <time>2021-12-29T05:07:28Z</time>
      </trkpt>
      <trkpt lat="44.83552" lon="6.72191">
        <ele>1992</ele>
        <time>2021-12-29T05:07:31Z</time>
      </trkpt>
      <trkpt lat="44.8356" lon="6.72187">
        <ele>1991</ele>
        <time>2021-12-29T05:07:33Z</time>
      </trkpt>
      <trkpt lat="44.83582" lon="6.72179">
        <ele>1986</ele>
        <time>2021-12-29T05:07:37Z</time>
      </trkpt>
      <trkpt lat="44.83604" lon="6.72178">
        <ele>1988</ele>
        <time>2021-12-29T05:07:41Z</time>
      </trkpt>
      <trkpt lat="44.83714" lon="6.72234">
        <ele>1973</ele>
        <time>2021-12-29T05:08:02Z</time>
      </trkpt>
      <trkpt lat="44.83735" lon="6.72237">
        <ele>1972</ele>
        <time>2021-12-29T05:08:05Z</time>
      </trkpt>
      <trkpt lat="44.83753" lon="6.72234">
        <ele>1974</ele>
        <time>2021-12-29T05:08:09Z</time>
      </trkpt>
      <trkpt lat="44.8376" lon="6.72238">
        <ele>1973</ele>
        <time>2021-12-29T05:08:10Z</time>
      </trkpt>
      <trkpt lat="44.83762" lon="6.72242">
        <ele>1971</ele>
        <time>2021-12-29T05:08:11Z</time>
      </trkpt>
      <trkpt lat="44.83763" lon="6.72251">
        <ele>1967</ele>
        <time>2021-12-29T05:08:12Z</time>
      </trkpt>
      <trkpt lat="44.8376" lon="6.72256">
        <ele>1966</ele>
        <time>2021-12-29T05:08:13Z</time>
      </trkpt>
      <trkpt lat="44.83757" lon="6.72258">
        <ele>1965</ele>
        <time>2021-12-29T05:08:13Z</time>
      </trkpt>
      <trkpt lat="44.83647" lon="6.7226">
        <ele>1967</ele>
        <time>2021-12-29T05:08:33Z</time>
      </trkpt>
      <trkpt lat="44.83644" lon="6.72263">
        <ele>1967</ele>
        <time>2021-12-29T05:08:33Z</time>
      </trkpt>
      <trkpt lat="44.83641" lon="6.72271">
        <ele>1966</ele>
        <time>2021-12-29T05:08:35Z</time>
      </trkpt>
      <trkpt lat="44.83642" lon="6.72277">
        <ele>1965</ele>
        <time>2021-12-29T05:08:35Z</time>
      </trkpt>
      <trkpt lat="44.83646" lon="6.72283">
        <ele>1963</ele>
        <time>2021-12-29T05:08:36Z</time>
      </trkpt>
      <trkpt lat="44.83677" lon="6.7229">
        <ele>1959</ele>
        <time>2021-12-29T05:08:42Z</time>
      </trkpt>
      <trkpt lat="44.83733" lon="6.72315">
        <ele>1950</ele>
        <time>2021-12-29T05:08:52Z</time>
      </trkpt>
      <trkpt lat="44.83746" lon="6.72318">
        <ele>1948</ele>
        <time>2021-12-29T05:08:55Z</time>
      </trkpt>
      <trkpt lat="44.8378" lon="6.72321">
        <ele>1945</ele>
        <time>2021-12-29T05:09:01Z</time>
      </trkpt>
      <trkpt lat="44.83795" lon="6.72328">
        <ele>1942</ele>
        <time>2021-12-29T05:09:04Z</time>
      </trkpt>
      <trkpt lat="44.83831" lon="6.72349">
        <ele>1936</ele>
        <time>2021-12-29T05:09:11Z</time>
      </trkpt>
      <trkpt lat="44.83842" lon="6.72352">
        <ele>1935</ele>
        <time>2021-12-29T05:09:13Z</time>
      </trkpt>
      <trkpt lat="44.83859" lon="6.7235">
        <ele>1934</ele>
        <time>2021-12-29T05:09:16Z</time>
      </trkpt>
      <trkpt lat="44.8389" lon="6.7234">
        <ele>1932</ele>
        <time>2021-12-29T05:09:21Z</time>
      </trkpt>
      <trkpt lat="44.83915" lon="6.72337">
        <ele>1931</ele>
        <time>2021-12-29T05:09:26Z</time>
      </trkpt>
      <trkpt lat="44.83957" lon="6.72342">
        <ele>1925</ele>
        <time>2021-12-29T05:09:33Z</time>
      </trkpt>
      <trkpt lat="44.8401" lon="6.7234">
        <ele>1919</ele>
        <time>2021-12-29T05:09:43Z</time>
      </trkpt>
      <trkpt lat="44.84137" lon="6.72365">
        <ele>1903</ele>
        <time>2021-12-29T05:10:05Z</time>
      </trkpt>
      <trkpt lat="44.84188" lon="6.72363">
        <ele>1899</ele>
        <time>2021-12-29T05:10:15Z</time>
      </trkpt>
      <trkpt lat="44.8422" lon="6.72369">
        <ele>1894</ele>
        <time>2021-12-29T05:10:20Z</time>
      </trkpt>
      <trkpt lat="44.84234" lon="6.72368">
        <ele>1892</ele>
        <time>2021-12-29T05:10:23Z</time>
      </trkpt>
      <trkpt lat="44.8427" lon="6.7236">
        <ele>1891</ele>
        <time>2021-12-29T05:10:29Z</time>
      </trkpt>
      <trkpt lat="44.84291" lon="6.7236">
        <ele>1890</ele>
        <time>2021-12-29T05:10:33Z</time>
      </trkpt>
      <trkpt lat="44.84317" lon="6.72365">
        <ele>1886</ele>
        <time>2021-12-29T05:10:38Z</time>
      </trkpt>
      <trkpt lat="44.84397" lon="6.72356">
        <ele>1883</ele>
        <time>2021-12-29T05:10:52Z</time>
      </trkpt>
      <trkpt lat="44.84431" lon="6.72358">
        <ele>1881</ele>
        <time>2021-12-29T05:10:58Z</time>
      </trkpt>
      <trkpt lat="44.84457" lon="6.72372">
        <ele>1875</ele>
        <time>2021-12-29T05:11:03Z</time>
      </trkpt>
      <trkpt lat="44.84485" lon="6.72398">
        <ele>1867</ele>
        <time>2021-12-29T05:11:09Z</time>
      </trkpt>
      <trkpt lat="44.84497" lon="6.72407">
        <ele>1865</ele>
        <time>2021-12-29T05:11:11Z</time>
      </trkpt>
      <trkpt lat="44.84513" lon="6.72414">
        <ele>1864</ele>
        <time>2021-12-29T05:11:14Z</time>
      </trkpt>
      <trkpt lat="44.84537" lon="6.7242">
        <ele>1863</ele>
        <time>2021-12-29T05:11:19Z</time>
      </trkpt>
      <trkpt lat="44.8454" lon="6.72425">
        <ele>1862</ele>
        <time>2021-12-29T05:11:19Z</time>
      </trkpt>
      <trkpt lat="44.84541" lon="6.72438">
        <ele>1859</ele>
        <time>2021-12-29T05:11:21Z</time>
      </trkpt>
      <trkpt lat="44.84536" lon="6.72446">
        <ele>1858</ele>
        <time>2021-12-29T05:11:22Z</time>
      </trkpt>
      <trkpt lat="44.84529" lon="6.72448">
        <ele>1857</ele>
        <time>2021-12-29T05:11:24Z</time>
      </trkpt>
      <trkpt lat="44.84462" lon="6.72432">
        <ele>1859</ele>
        <time>2021-12-29T05:11:36Z</time>
      </trkpt>
      <trkpt lat="44.8443" lon="6.72414">
        <ele>1862</ele>
        <time>2021-12-29T05:11:42Z</time>
      </trkpt>
      <trkpt lat="44.84423" lon="6.72414">
        <ele>1862</ele>
        <time>2021-12-29T05:11:43Z</time>
      </trkpt>
      <trkpt lat="44.84419" lon="6.72416">
        <ele>1861</ele>
        <time>2021-12-29T05:11:44Z</time>
      </trkpt>
      <trkpt lat="44.84416" lon="6.72427">
        <ele>1860</ele>
        <time>2021-12-29T05:11:45Z</time>
      </trkpt>
      <trkpt lat="44.84416" lon="6.72433">
        <ele>1859</ele>
        <time>2021-12-29T05:11:46Z</time>
      </trkpt>
      <trkpt lat="44.84421" lon="6.72441">
        <ele>1858</ele>
        <time>2021-12-29T05:11:48Z</time>
      </trkpt>
      <trkpt lat="44.84467" lon="6.72467">
        <ele>1853</ele>
        <time>2021-12-29T05:11:56Z</time>
      </trkpt>
      <trkpt lat="44.84498" lon="6.72488">
        <ele>1849</ele>
        <time>2021-12-29T05:12:02Z</time>
      </trkpt>
      <trkpt lat="44.84542" lon="6.72531">
        <ele>1844</ele>
        <time>2021-12-29T05:12:12Z</time>
      </trkpt>
      <trkpt lat="44.8457" lon="6.72553">
        <ele>1842</ele>
        <time>2021-12-29T05:12:18Z</time>
      </trkpt>
      <trkpt lat="44.84588" lon="6.72562">
        <ele>1841</ele>
        <time>2021-12-29T05:12:21Z</time>
      </trkpt>
      <trkpt lat="44.84614" lon="6.7257">
        <ele>1839</ele>
        <time>2021-12-29T05:12:26Z</time>
      </trkpt>
      <trkpt lat="44.84629" lon="6.72571">
        <ele>1838</ele>
        <time>2021-12-29T05:12:28Z</time>
      </trkpt>
      <trkpt lat="44.84641" lon="6.72569">
        <ele>1838</ele>
        <time>2021-12-29T05:12:31Z</time>
      </trkpt>
      <trkpt lat="44.84671" lon="6.72555">
        <ele>1838</ele>
        <time>2021-12-29T05:12:36Z</time>
      </trkpt>
      <trkpt lat="44.84691" lon="6.72539">
        <ele>1837</ele>
        <time>2021-12-29T05:12:40Z</time>
      </trkpt>
      <trkpt lat="44.84757" lon="6.72482">
        <ele>1829</ele>
        <time>2021-12-29T05:12:54Z</time>
      </trkpt>
      <trkpt lat="44.84777" lon="6.72473">
        <ele>1828</ele>
        <time>2021-12-29T05:12:58Z</time>
      </trkpt>
      <trkpt lat="44.8484" lon="6.7247">
        <ele>1821</ele>
        <time>2021-12-29T05:13:09Z</time>
      </trkpt>
      <trkpt lat="44.84876" lon="6.72465">
        <ele>1817</ele>
        <time>2021-12-29T05:13:16Z</time>
      </trkpt>
      <trkpt lat="44.84939" lon="6.72467">
        <ele>1809</ele>
        <time>2021-12-29T05:13:27Z</time>
      </trkpt>
      <trkpt lat="44.84958" lon="6.7247">
        <ele>1807</ele>
        <time>2021-12-29T05:13:30Z</time>
      </trkpt>
      <trkpt lat="44.8497" lon="6.72475">
        <ele>1805</ele>
        <time>2021-12-29T05:13:32Z</time>
      </trkpt>
      <trkpt lat="44.85011" lon="6.72502">
        <ele>1795</ele>
        <time>2021-12-29T05:13:40Z</time>
      </trkpt>
      <trkpt lat="44.85027" lon="6.72506">
        <ele>1793</ele>
        <time>2021-12-29T05:13:43Z</time>
      </trkpt>
      <trkpt lat="44.8506" lon="6.72497">
        <ele>1789</ele>
        <time>2021-12-29T05:13:49Z</time>
      </trkpt>
      <trkpt lat="44.85133" lon="6.72464">
        <ele>1784</ele>
        <time>2021-12-29T05:14:03Z</time>
      </trkpt>
      <trkpt lat="44.85247" lon="6.72448">
        <ele>1774</ele>
        <time>2021-12-29T05:14:23Z</time>
      </trkpt>
      <trkpt lat="44.85277" lon="6.72449">
        <ele>1773</ele>
        <time>2021-12-29T05:14:29Z</time>
      </trkpt>
      <trkpt lat="44.85294" lon="6.72456">
        <ele>1772</ele>
        <time>2021-12-29T05:14:32Z</time>
      </trkpt>
      <trkpt lat="44.85312" lon="6.72473">
        <ele>1769</ele>
        <time>2021-12-29T05:14:36Z</time>
      </trkpt>
      <trkpt lat="44.85358" lon="6.72525">
        <ele>1763</ele>
        <time>2021-12-29T05:14:46Z</time>
      </trkpt>
      <trkpt lat="44.8539" lon="6.72567">
        <ele>1758</ele>
        <time>2021-12-29T05:14:54Z</time>
      </trkpt>
      <trkpt lat="44.85413" lon="6.72606">
        <ele>1756</ele>
        <time>2021-12-29T05:15:00Z</time>
      </trkpt>
      <trkpt lat="44.85425" lon="6.72632">
        <ele>1755</ele>
        <time>2021-12-29T05:15:04Z</time>
      </trkpt>
      <trkpt lat="44.85437" lon="6.72666">
        <ele>1753</ele>
        <time>2021-12-29T05:15:09Z</time>
      </trkpt>
      <trkpt lat="44.85442" lon="6.72677">
        <ele>1752</ele>
        <time>2021-12-29T05:15:11Z</time>
      </trkpt>
      <trkpt lat="44.85457" lon="6.72695">
        <ele>1751</ele>
        <time>2021-12-29T05:15:14Z</time>
      </trkpt>
      <trkpt lat="44.85472" lon="6.72705">
        <ele>1751</ele>
        <time>2021-12-29T05:15:17Z</time>
      </trkpt>
      <trkpt lat="44.8549" lon="6.72711">
        <ele>1750</ele>
        <time>2021-12-29T05:15:20Z</time>
      </trkpt>
      <trkpt lat="44.85529" lon="6.72717">
        <ele>1748</ele>
        <time>2021-12-29T05:15:27Z</time>
      </trkpt>
      <trkpt lat="44.85557" lon="6.72711">
        <ele>1747</ele>
        <time>2021-12-29T05:15:32Z</time>
      </trkpt>
      <trkpt lat="44.85602" lon="6.72683">
        <ele>1746</ele>
        <time>2021-12-29T05:15:41Z</time>
      </trkpt>
      <trkpt lat="44.85678" lon="6.72629">
        <ele>1744</ele>
        <time>2021-12-29T05:15:56Z</time>
      </trkpt>
      <trkpt lat="44.85749" lon="6.72583">
        <ele>1739</ele>
        <time>2021-12-29T05:16:10Z</time>
      </trkpt>
      <trkpt lat="44.8587" lon="6.72509">
        <ele>1726</ele>
        <time>2021-12-29T05:16:34Z</time>
      </trkpt>
      <trkpt lat="44.8589" lon="6.725">
        <ele>1723</ele>
        <time>2021-12-29T05:16:37Z</time>
      </trkpt>
      <trkpt lat="44.85936" lon="6.7249">
        <ele>1720</ele>
        <time>2021-12-29T05:16:46Z</time>
      </trkpt>
      <trkpt lat="44.85994" lon="6.72485">
        <ele>1718</ele>
        <time>2021-12-29T05:16:56Z</time>
      </trkpt>
      <trkpt lat="44.86031" lon="6.72488">
        <ele>1715</ele>
        <time>2021-12-29T05:17:03Z</time>
      </trkpt>
      <trkpt lat="44.86113" lon="6.72504">
        <ele>1709</ele>
        <time>2021-12-29T05:17:17Z</time>
      </trkpt>
      <trkpt lat="44.86137" lon="6.72505">
        <ele>1708</ele>
        <time>2021-12-29T05:17:22Z</time>
      </trkpt>
      <trkpt lat="44.8616" lon="6.72501">
        <ele>1706</ele>
        <time>2021-12-29T05:17:26Z</time>
      </trkpt>
      <trkpt lat="44.86216" lon="6.72483">
        <ele>1702</ele>
        <time>2021-12-29T05:17:36Z</time>
      </trkpt>
      <trkpt lat="44.86233" lon="6.72483">
        <ele>1702</ele>
        <time>2021-12-29T05:17:39Z</time>
      </trkpt>
      <trkpt lat="44.86262" lon="6.7249">
        <ele>1702</ele>
        <time>2021-12-29T05:17:44Z</time>
      </trkpt>
      <trkpt lat="44.86276" lon="6.72489">
        <ele>1702</ele>
        <time>2021-12-29T05:17:47Z</time>
      </trkpt>
      <trkpt lat="44.86327" lon="6.72449">
        <ele>1695</ele>
        <time>2021-12-29T05:17:57Z</time>
      </trkpt>
      <trkpt lat="44.86342" lon="6.72441">
        <ele>1693</ele>
        <time>2021-12-29T05:18:00Z</time>
      </trkpt>
      <trkpt lat="44.86403" lon="6.72426">
        <ele>1681</ele>
        <time>2021-12-29T05:18:11Z</time>
      </trkpt>
      <trkpt lat="44.86426" lon="6.72424">
        <ele>1678</ele>
        <time>2021-12-29T05:18:15Z</time>
      </trkpt>
      <trkpt lat="44.86451" lon="6.72428">
        <ele>1677</ele>
        <time>2021-12-29T05:18:20Z</time>
      </trkpt>
      <trkpt lat="44.86498" lon="6.72447">
        <ele>1676</ele>
        <time>2021-12-29T05:18:28Z</time>
      </trkpt>
      <trkpt lat="44.8653" lon="6.72455">
        <ele>1674</ele>
        <time>2021-12-29T05:18:34Z</time>
      </trkpt>
      <trkpt lat="44.86566" lon="6.72452">
        <ele>1670</ele>
        <time>2021-12-29T05:18:40Z</time>
      </trkpt>
      <trkpt lat="44.86599" lon="6.72447">
        <ele>1665</ele>
        <time>2021-12-29T05:18:46Z</time>
      </trkpt>
      <trkpt lat="44.86613" lon="6.72449">
        <ele>1664</ele>
        <time>2021-12-29T05:18:49Z</time>
      </trkpt>
      <trkpt lat="44.86624" lon="6.72454">
        <ele>1664</ele>
        <time>2021-12-29T05:18:51Z</time>
      </trkpt>
      <trkpt lat="44.86663" lon="6.72479">
        <ele>1664</ele>
        <time>2021-12-29T05:18:59Z</time>
      </trkpt>
      <trkpt lat="44.86677" lon="6.7248">
        <ele>1663</ele>
        <time>2021-12-29T05:19:01Z</time>
      </trkpt>
      <trkpt lat="44.86711" lon="6.72468">
        <ele>1658</ele>
        <time>2021-12-29T05:19:07Z</time>
      </trkpt>
      <trkpt lat="44.86733" lon="6.72465">
        <ele>1655</ele>
        <time>2021-12-29T05:19:11Z</time>
      </trkpt>
      <trkpt lat="44.8679" lon="6.72475">
        <ele>1650</ele>
        <time>2021-12-29T05:19:21Z</time>
      </trkpt>
      <trkpt lat="44.86831" lon="6.72484">
        <ele>1646</ele>
        <time>2021-12-29T05:19:29Z</time>
      </trkpt>
      <trkpt lat="44.86844" lon="6.72493">
        <ele>1644</ele>
        <time>2021-12-29T05:19:31Z</time>
      </trkpt>
      <trkpt lat="44.86869" lon="6.72527">
        <ele>1645</ele>
        <time>2021-12-29T05:19:38Z</time>
      </trkpt>
      <trkpt lat="44.86882" lon="6.72537">
        <ele>1644</ele>
        <time>2021-12-29T05:19:40Z</time>
      </trkpt>
      <trkpt lat="44.86909" lon="6.72547">
        <ele>1641</ele>
        <time>2021-12-29T05:19:45Z</time>
      </trkpt>
      <trkpt lat="44.86923" lon="6.72557">
        <ele>1640</ele>
        <time>2021-12-29T05:19:48Z</time>
      </trkpt>
      <trkpt lat="44.86961" lon="6.72613">
        <ele>1642</ele>
        <time>2021-12-29T05:19:58Z</time>
      </trkpt>
      <trkpt lat="44.86979" lon="6.72621">
        <ele>1640</ele>
        <time>2021-12-29T05:20:01Z</time>
      </trkpt>
      <trkpt lat="44.8699" lon="6.72619">
        <ele>1639</ele>
        <time>2021-12-29T05:20:03Z</time>
      </trkpt>
      <trkpt lat="44.86997" lon="6.72613">
        <ele>1637</ele>
        <time>2021-12-29T05:20:05Z</time>
      </trkpt>
      <trkpt lat="44.87005" lon="6.72603">
        <ele>1635</ele>
        <time>2021-12-29T05:20:06Z</time>
      </trkpt>
      <trkpt lat="44.87012" lon="6.72589">
        <ele>1634</ele>
        <time>2021-12-29T05:20:09Z</time>
      </trkpt>
      <trkpt lat="44.87014" lon="6.72574">
        <ele>1632</ele>
        <time>2021-12-29T05:20:11Z</time>
      </trkpt>
      <trkpt lat="44.87012" lon="6.72562">
        <ele>1631</ele>
        <time>2021-12-29T05:20:12Z</time>
      </trkpt>
      <trkpt lat="44.87008" lon="6.72549">
        <ele>1630</ele>
        <time>2021-12-29T05:20:14Z</time>
      </trkpt>
      <trkpt lat="44.86869" lon="6.72308">
        <ele>1621</ele>
        <time>2021-12-29T05:20:53Z</time>
      </trkpt>
      <trkpt lat="44.86853" lon="6.7227">
        <ele>1619</ele>
        <time>2021-12-29T05:20:59Z</time>
      </trkpt>
      <trkpt lat="44.86838" lon="6.72228">
        <ele>1616</ele>
        <time>2021-12-29T05:21:05Z</time>
      </trkpt>
      <trkpt lat="44.86833" lon="6.72209">
        <ele>1614</ele>
        <time>2021-12-29T05:21:07Z</time>
      </trkpt>
      <trkpt lat="44.8683" lon="6.72192">
        <ele>1612</ele>
        <time>2021-12-29T05:21:09Z</time>
      </trkpt>
      <trkpt lat="44.86821" lon="6.72116">
        <ele>1606</ele>
        <time>2021-12-29T05:21:19Z</time>
      </trkpt>
      <trkpt lat="44.86819" lon="6.72084">
        <ele>1604</ele>
        <time>2021-12-29T05:21:23Z</time>
      </trkpt>
      <trkpt lat="44.86823" lon="6.72043">
        <ele>1601</ele>
        <time>2021-12-29T05:21:28Z</time>
      </trkpt>
      <trkpt lat="44.86835" lon="6.72015">
        <ele>1600</ele>
        <time>2021-12-29T05:21:32Z</time>
      </trkpt>
      <trkpt lat="44.86858" lon="6.7198">
        <ele>1605</ele>
        <time>2021-12-29T05:21:38Z</time>
      </trkpt>
      <trkpt lat="44.86863" lon="6.71968">
        <ele>1607</ele>
        <time>2021-12-29T05:21:40Z</time>
      </trkpt>
      <trkpt lat="44.86863" lon="6.71954">
        <ele>1608</ele>
        <time>2021-12-29T05:21:42Z</time>
      </trkpt>
      <trkpt lat="44.86857" lon="6.71932">
        <ele>1608</ele>
        <time>2021-12-29T05:21:45Z</time>
      </trkpt>
      <trkpt lat="44.86837" lon="6.71882">
        <ele>1604</ele>
        <time>2021-12-29T05:21:52Z</time>
      </trkpt>
      <trkpt lat="44.86818" lon="6.71825">
        <ele>1601</ele>
        <time>2021-12-29T05:22:00Z</time>
      </trkpt>
      <trkpt lat="44.86785" lon="6.71723">
        <ele>1592</ele>
        <time>2021-12-29T05:22:14Z</time>
      </trkpt>
      <trkpt lat="44.86774" lon="6.7168">
        <ele>1589</ele>
        <time>2021-12-29T05:22:20Z</time>
      </trkpt>
      <trkpt lat="44.86764" lon="6.71592">
        <ele>1585</ele>
        <time>2021-12-29T05:22:31Z</time>
      </trkpt>
      <trkpt lat="44.86764" lon="6.71549">
        <ele>1583</ele>
        <time>2021-12-29T05:22:37Z</time>
      </trkpt>
      <trkpt lat="44.86769" lon="6.71515">
        <ele>1582</ele>
        <time>2021-12-29T05:22:41Z</time>
      </trkpt>
      <trkpt lat="44.86776" lon="6.71484">
        <ele>1582</ele>
        <time>2021-12-29T05:22:45Z</time>
      </trkpt>
      <trkpt lat="44.86782" lon="6.71463">
        <ele>1582</ele>
        <time>2021-12-29T05:22:48Z</time>
      </trkpt>
      <trkpt lat="44.86802" lon="6.71393">
        <ele>1589</ele>
        <time>2021-12-29T05:22:58Z</time>
      </trkpt>
      <trkpt lat="44.86805" lon="6.71362">
        <ele>1593</ele>
        <time>2021-12-29T05:23:01Z</time>
      </trkpt>
      <trkpt lat="44.86788" lon="6.71258">
        <ele>1593</ele>
        <time>2021-12-29T05:23:15Z</time>
      </trkpt>
      <trkpt lat="44.86773" lon="6.71211">
        <ele>1586</ele>
        <time>2021-12-29T05:23:21Z</time>
      </trkpt>
      <trkpt lat="44.86761" lon="6.71163">
        <ele>1580</ele>
        <time>2021-12-29T05:23:28Z</time>
      </trkpt>
      <trkpt lat="44.86739" lon="6.71042">
        <ele>1569</ele>
        <time>2021-12-29T05:23:44Z</time>
      </trkpt>
      <trkpt lat="44.86737" lon="6.71012">
        <ele>1566</ele>
        <time>2021-12-29T05:23:47Z</time>
      </trkpt>
      <trkpt lat="44.86743" lon="6.70979">
        <ele>1562</ele>
        <time>2021-12-29T05:23:52Z</time>
      </trkpt>
      <trkpt lat="44.86751" lon="6.70959">
        <ele>1559</ele>
        <time>2021-12-29T05:23:55Z</time>
      </trkpt>
      <trkpt lat="44.86782" lon="6.7092">
        <ele>1561</ele>
        <time>2021-12-29T05:24:02Z</time>
      </trkpt>
      <trkpt lat="44.86789" lon="6.70904">
        <ele>1561</ele>
        <time>2021-12-29T05:24:04Z</time>
      </trkpt>
      <trkpt lat="44.86847" lon="6.707">
        <ele>1569</ele>
        <time>2021-12-29T05:24:32Z</time>
      </trkpt>
      <trkpt lat="44.86877" lon="6.7058">
        <ele>1569</ele>
        <time>2021-12-29T05:24:48Z</time>
      </trkpt>
      <trkpt lat="44.869" lon="6.7047">
        <ele>1563</ele>
        <time>2021-12-29T05:25:03Z</time>
      </trkpt>
      <trkpt lat="44.86913" lon="6.70351">
        <ele>1549</ele>
        <time>2021-12-29T05:25:18Z</time>
      </trkpt>
      <trkpt lat="44.8692" lon="6.70316">
        <ele>1544</ele>
        <time>2021-12-29T05:25:22Z</time>
      </trkpt>
      <trkpt lat="44.8693" lon="6.70289">
        <ele>1543</ele>
        <time>2021-12-29T05:25:26Z</time>
      </trkpt>
      <trkpt lat="44.86946" lon="6.70258">
        <ele>1540</ele>
        <time>2021-12-29T05:25:31Z</time>
      </trkpt>
      <trkpt lat="44.86969" lon="6.70228">
        <ele>1539</ele>
        <time>2021-12-29T05:25:37Z</time>
      </trkpt>
      <trkpt lat="44.86997" lon="6.70205">
        <ele>1536</ele>
        <time>2021-12-29T05:25:42Z</time>
      </trkpt>
      <trkpt lat="44.87024" lon="6.70192">
        <ele>1536</ele>
        <time>2021-12-29T05:25:47Z</time>
      </trkpt>
      <trkpt lat="44.87121" lon="6.7017">
        <ele>1544</ele>
        <time>2021-12-29T05:26:05Z</time>
      </trkpt>
      <trkpt lat="44.87148" lon="6.70158">
        <ele>1545</ele>
        <time>2021-12-29T05:26:10Z</time>
      </trkpt>
      <trkpt lat="44.87164" lon="6.70148">
        <ele>1545</ele>
        <time>2021-12-29T05:26:13Z</time>
      </trkpt>
      <trkpt lat="44.8719" lon="6.70117">
        <ele>1544</ele>
        <time>2021-12-29T05:26:19Z</time>
      </trkpt>
      <trkpt lat="44.87205" lon="6.70088">
        <ele>1541</ele>
        <time>2021-12-29T05:26:24Z</time>
      </trkpt>
      <trkpt lat="44.87212" lon="6.70068">
        <ele>1541</ele>
        <time>2021-12-29T05:26:26Z</time>
      </trkpt>
      <trkpt lat="44.87218" lon="6.70046">
        <ele>1541</ele>
        <time>2021-12-29T05:26:29Z</time>
      </trkpt>
      <trkpt lat="44.87261" lon="6.69807">
        <ele>1529</ele>
        <time>2021-12-29T05:27:01Z</time>
      </trkpt>
      <trkpt lat="44.87277" lon="6.69705">
        <ele>1531</ele>
        <time>2021-12-29T05:27:14Z</time>
      </trkpt>
      <trkpt lat="44.8728" lon="6.69673">
        <ele>1531</ele>
        <time>2021-12-29T05:27:18Z</time>
      </trkpt>
      <trkpt lat="44.87281" lon="6.69583">
        <ele>1522</ele>
        <time>2021-12-29T05:27:29Z</time>
      </trkpt>
      <trkpt lat="44.87284" lon="6.69525">
        <ele>1515</ele>
        <time>2021-12-29T05:27:36Z</time>
      </trkpt>
      <trkpt lat="44.87287" lon="6.69491">
        <ele>1512</ele>
        <time>2021-12-29T05:27:41Z</time>
      </trkpt>
      <trkpt lat="44.87295" lon="6.69457">
        <ele>1511</ele>
        <time>2021-12-29T05:27:45Z</time>
      </trkpt>
      <trkpt lat="44.87305" lon="6.69431">
        <ele>1511</ele>
        <time>2021-12-29T05:27:49Z</time>
      </trkpt>
      <trkpt lat="44.87322" lon="6.69402">
        <ele>1511</ele>
        <time>2021-12-29T05:27:54Z</time>
      </trkpt>
      <trkpt lat="44.87339" lon="6.69382">
        <ele>1510</ele>
        <time>2021-12-29T05:27:58Z</time>
      </trkpt>
      <trkpt lat="44.87387" lon="6.69344">
        <ele>1508</ele>
        <time>2021-12-29T05:28:08Z</time>
      </trkpt>
      <trkpt lat="44.87424" lon="6.69311">
        <ele>1506</ele>
        <time>2021-12-29T05:28:15Z</time>
      </trkpt>
      <trkpt lat="44.87444" lon="6.6929">
        <ele>1507</ele>
        <time>2021-12-29T05:28:20Z</time>
      </trkpt>
      <trkpt lat="44.87463" lon="6.69265">
        <ele>1507</ele>
        <time>2021-12-29T05:28:24Z</time>
      </trkpt>
      <trkpt lat="44.87545" lon="6.69136">
        <ele>1497</ele>
        <time>2021-12-29T05:28:46Z</time>
      </trkpt>
      <trkpt lat="44.87583" lon="6.69071">
        <ele>1491</ele>
        <time>2021-12-29T05:28:57Z</time>
      </trkpt>
      <trkpt lat="44.8763" lon="6.69">
        <ele>1486</ele>
        <time>2021-12-29T05:29:09Z</time>
      </trkpt>
      <trkpt lat="44.87652" lon="6.68959">
        <ele>1484</ele>
        <time>2021-12-29T05:29:16Z</time>
      </trkpt>
      <trkpt lat="44.87667" lon="6.68923">
        <ele>1479</ele>
        <time>2021-12-29T05:29:21Z</time>
      </trkpt>
      <trkpt lat="44.87682" lon="6.6888">
        <ele>1476</ele>
        <time>2021-12-29T05:29:27Z</time>
      </trkpt>
      <trkpt lat="44.87695" lon="6.68835">
        <ele>1472</ele>
        <time>2021-12-29T05:29:33Z</time>
      </trkpt>
      <trkpt lat="44.87705" lon="6.68781">
        <ele>1471</ele>
        <time>2021-12-29T05:29:40Z</time>
      </trkpt>
      <trkpt lat="44.87712" lon="6.68715">
        <ele>1470</ele>
        <time>2021-12-29T05:29:48Z</time>
      </trkpt>
      <trkpt lat="44.87712" lon="6.68682">
        <ele>1468</ele>
        <time>2021-12-29T05:29:53Z</time>
      </trkpt>
      <trkpt lat="44.87714" lon="6.68356">
        <ele>1447</ele>
        <time>2021-12-29T05:30:34Z</time>
      </trkpt>
      <trkpt lat="44.87715" lon="6.68323">
        <ele>1445</ele>
        <time>2021-12-29T05:30:38Z</time>
      </trkpt>
      <trkpt lat="44.87718" lon="6.68297">
        <ele>1444</ele>
        <time>2021-12-29T05:30:41Z</time>
      </trkpt>
      <trkpt lat="44.87724" lon="6.68274">
        <ele>1443</ele>
        <time>2021-12-29T05:30:44Z</time>
      </trkpt>
      <trkpt lat="44.87767" lon="6.68161">
        <ele>1434</ele>
        <time>2021-12-29T05:31:00Z</time>
      </trkpt>
      <trkpt lat="44.87802" lon="6.68106">
        <ele>1441</ele>
        <time>2021-12-29T05:31:10Z</time>
      </trkpt>
      <trkpt lat="44.87877" lon="6.67936">
        <ele>1448</ele>
        <time>2021-12-29T05:31:35Z</time>
      </trkpt>
      <trkpt lat="44.87885" lon="6.67915">
        <ele>1447</ele>
        <time>2021-12-29T05:31:38Z</time>
      </trkpt>
      <trkpt lat="44.87895" lon="6.67841">
        <ele>1442</ele>
        <time>2021-12-29T05:31:48Z</time>
      </trkpt>
      <trkpt lat="44.87934" lon="6.67688">
        <ele>1433</ele>
        <time>2021-12-29T05:32:08Z</time>
      </trkpt>
      <trkpt lat="44.87943" lon="6.6764">
        <ele>1434</ele>
        <time>2021-12-29T05:32:14Z</time>
      </trkpt>
      <trkpt lat="44.87947" lon="6.67599">
        <ele>1434</ele>
        <time>2021-12-29T05:32:20Z</time>
      </trkpt>
      <trkpt lat="44.87951" lon="6.6754">
        <ele>1428</ele>
        <time>2021-12-29T05:32:27Z</time>
      </trkpt>
      <trkpt lat="44.87955" lon="6.6751">
        <ele>1425</ele>
        <time>2021-12-29T05:32:31Z</time>
      </trkpt>
      <trkpt lat="44.87963" lon="6.67485">
        <ele>1426</ele>
        <time>2021-12-29T05:32:34Z</time>
      </trkpt>
      <trkpt lat="44.87985" lon="6.67439">
        <ele>1431</ele>
        <time>2021-12-29T05:32:41Z</time>
      </trkpt>
      <trkpt lat="44.87988" lon="6.67423">
        <ele>1430</ele>
        <time>2021-12-29T05:32:43Z</time>
      </trkpt>
      <trkpt lat="44.87989" lon="6.67375">
        <ele>1428</ele>
        <time>2021-12-29T05:32:49Z</time>
      </trkpt>
      <trkpt lat="44.88003" lon="6.67301">
        <ele>1430</ele>
        <time>2021-12-29T05:32:59Z</time>
      </trkpt>
      <trkpt lat="44.87998" lon="6.67259">
        <ele>1425</ele>
        <time>2021-12-29T05:33:04Z</time>
      </trkpt>
      <trkpt lat="44.87998" lon="6.6723">
        <ele>1423</ele>
        <time>2021-12-29T05:33:08Z</time>
      </trkpt>
      <trkpt lat="44.88" lon="6.67202">
        <ele>1421</ele>
        <time>2021-12-29T05:33:12Z</time>
      </trkpt>
      <trkpt lat="44.87994" lon="6.67173">
        <ele>1417</ele>
        <time>2021-12-29T05:33:15Z</time>
      </trkpt>
      <trkpt lat="44.87994" lon="6.67163">
        <ele>1416</ele>
        <time>2021-12-29T05:33:17Z</time>
      </trkpt>
      <trkpt lat="44.88007" lon="6.67143">
        <ele>1420</ele>
        <time>2021-12-29T05:33:20Z</time>
      </trkpt>
      <trkpt lat="44.88022" lon="6.6713">
        <ele>1428</ele>
        <time>2021-12-29T05:33:23Z</time>
      </trkpt>
      <trkpt lat="44.88027" lon="6.67115">
        <ele>1429</ele>
        <time>2021-12-29T05:33:25Z</time>
      </trkpt>
      <trkpt lat="44.88029" lon="6.67082">
        <ele>1428</ele>
        <time>2021-12-29T05:33:30Z</time>
      </trkpt>
      <trkpt lat="44.88035" lon="6.6705">
        <ele>1426</ele>
        <time>2021-12-29T05:33:34Z</time>
      </trkpt>
      <trkpt lat="44.88035" lon="6.67006">
        <ele>1420</ele>
        <time>2021-12-29T05:33:39Z</time>
      </trkpt>
      <trkpt lat="44.88039" lon="6.66995">
        <ele>1419</ele>
        <time>2021-12-29T05:33:41Z</time>
      </trkpt>
      <trkpt lat="44.88045" lon="6.66988">
        <ele>1420</ele>
        <time>2021-12-29T05:33:42Z</time>
      </trkpt>
      <trkpt lat="44.88056" lon="6.66984">
        <ele>1422</ele>
        <time>2021-12-29T05:33:44Z</time>
      </trkpt>
      <trkpt lat="44.8809" lon="6.66983">
        <ele>1433</ele>
        <time>2021-12-29T05:33:50Z</time>
      </trkpt>
      <trkpt lat="44.88123" lon="6.66976">
        <ele>1439</ele>
        <time>2021-12-29T05:33:56Z</time>
      </trkpt>
      <trkpt lat="44.88137" lon="6.66965">
        <ele>1439</ele>
        <time>2021-12-29T05:33:59Z</time>
      </trkpt>
      <trkpt lat="44.88155" lon="6.66959">
        <ele>1442</ele>
        <time>2021-12-29T05:34:02Z</time>
      </trkpt>
      <trkpt lat="44.88181" lon="6.66954">
        <ele>1449</ele>
        <time>2021-12-29T05:34:07Z</time>
      </trkpt>
      <trkpt lat="44.88192" lon="6.66947">
        <ele>1451</ele>
        <time>2021-12-29T05:34:09Z</time>
      </trkpt>
      <trkpt lat="44.88197" lon="6.66937">
        <ele>1450</ele>
        <time>2021-12-29T05:34:11Z</time>
      </trkpt>
      <trkpt lat="44.88198" lon="6.66925">
        <ele>1447</ele>
        <time>2021-12-29T05:34:12Z</time>
      </trkpt>
      <trkpt lat="44.88196" lon="6.6691">
        <ele>1444</ele>
        <time>2021-12-29T05:34:14Z</time>
      </trkpt>
      <trkpt lat="44.88189" lon="6.66889">
        <ele>1443</ele>
        <time>2021-12-29T05:34:17Z</time>
      </trkpt>
      <trkpt lat="44.88172" lon="6.66859">
        <ele>1439</ele>
        <time>2021-12-29T05:34:22Z</time>
      </trkpt>
      <trkpt lat="44.88167" lon="6.66839">
        <ele>1438</ele>
        <time>2021-12-29T05:34:25Z</time>
      </trkpt>
      <trkpt lat="44.88167" lon="6.66814">
        <ele>1439</ele>
        <time>2021-12-29T05:34:28Z</time>
      </trkpt>
      <trkpt lat="44.88165" lon="6.66795">
        <ele>1440</ele>
        <time>2021-12-29T05:34:30Z</time>
      </trkpt>
      <trkpt lat="44.88144" lon="6.66735">
        <ele>1433</ele>
        <time>2021-12-29T05:34:39Z</time>
      </trkpt>
      <trkpt lat="44.88138" lon="6.66712">
        <ele>1432</ele>
        <time>2021-12-29T05:34:42Z</time>
      </trkpt>
      <trkpt lat="44.88136" lon="6.66679">
        <ele>1433</ele>
        <time>2021-12-29T05:34:46Z</time>
      </trkpt>
      <trkpt lat="44.88137" lon="6.66653">
        <ele>1434</ele>
        <time>2021-12-29T05:34:49Z</time>
      </trkpt>
      <trkpt lat="44.88161" lon="6.66554">
        <ele>1443</ele>
        <time>2021-12-29T05:35:02Z</time>
      </trkpt>
      <trkpt lat="44.88167" lon="6.66536">
        <ele>1444</ele>
        <time>2021-12-29T05:35:05Z</time>
      </trkpt>
      <trkpt lat="44.88183" lon="6.6651">
        <ele>1446</ele>
        <time>2021-12-29T05:35:09Z</time>
      </trkpt>
      <trkpt lat="44.88191" lon="6.66494">
        <ele>1445</ele>
        <time>2021-12-29T05:35:12Z</time>
      </trkpt>
      <trkpt lat="44.882" lon="6.66445">
        <ele>1438</ele>
        <time>2021-12-29T05:35:18Z</time>
      </trkpt>
      <trkpt lat="44.88209" lon="6.66422">
        <ele>1437</ele>
        <time>2021-12-29T05:35:21Z</time>
      </trkpt>
      <trkpt lat="44.88221" lon="6.66401">
        <ele>1439</ele>
        <time>2021-12-29T05:35:25Z</time>
      </trkpt>
      <trkpt lat="44.88233" lon="6.66358">
        <ele>1438</ele>
        <time>2021-12-29T05:35:31Z</time>
      </trkpt>
      <trkpt lat="44.88235" lon="6.66345">
        <ele>1437</ele>
        <time>2021-12-29T05:35:32Z</time>
      </trkpt>
      <trkpt lat="44.88235" lon="6.66335">
        <ele>1435</ele>
        <time>2021-12-29T05:35:34Z</time>
      </trkpt>
      <trkpt lat="44.88223" lon="6.6628">
        <ele>1427</ele>
        <time>2021-12-29T05:35:41Z</time>
      </trkpt>
      <trkpt lat="44.88222" lon="6.66263">
        <ele>1425</ele>
        <time>2021-12-29T05:35:43Z</time>
      </trkpt>
      <trkpt lat="44.88225" lon="6.66243">
        <ele>1425</ele>
        <time>2021-12-29T05:35:46Z</time>
      </trkpt>
      <trkpt lat="44.88247" lon="6.66196">
        <ele>1430</ele>
        <time>2021-12-29T05:35:53Z</time>
      </trkpt>
      <trkpt lat="44.88261" lon="6.66174">
        <ele>1431</ele>
        <time>2021-12-29T05:35:56Z</time>
      </trkpt>
      <trkpt lat="44.88269" lon="6.66149">
        <ele>1428</ele>
        <time>2021-12-29T05:36:00Z</time>
      </trkpt>
      <trkpt lat="44.88276" lon="6.66111">
        <ele>1422</ele>
        <time>2021-12-29T05:36:05Z</time>
      </trkpt>
      <trkpt lat="44.88274" lon="6.66055">
        <ele>1411</ele>
        <time>2021-12-29T05:36:12Z</time>
      </trkpt>
      <trkpt lat="44.88279" lon="6.66029">
        <ele>1409</ele>
        <time>2021-12-29T05:36:15Z</time>
      </trkpt>
      <trkpt lat="44.88286" lon="6.66012">
        <ele>1410</ele>
        <time>2021-12-29T05:36:18Z</time>
      </trkpt>
      <trkpt lat="44.88321" lon="6.65979">
        <ele>1417</ele>
        <time>2021-12-29T05:36:25Z</time>
      </trkpt>
      <trkpt lat="44.88336" lon="6.65955">
        <ele>1418</ele>
        <time>2021-12-29T05:36:29Z</time>
      </trkpt>
      <trkpt lat="44.88348" lon="6.65944">
        <ele>1418</ele>
        <time>2021-12-29T05:36:32Z</time>
      </trkpt>
      <trkpt lat="44.88367" lon="6.65942">
        <ele>1421</ele>
        <time>2021-12-29T05:36:35Z</time>
      </trkpt>
      <trkpt lat="44.88386" lon="6.65947">
        <ele>1426</ele>
        <time>2021-12-29T05:36:39Z</time>
      </trkpt>
      <trkpt lat="44.88417" lon="6.65942">
        <ele>1431</ele>
        <time>2021-12-29T05:36:44Z</time>
      </trkpt>
      <trkpt lat="44.88426" lon="6.65931">
        <ele>1434</ele>
        <time>2021-12-29T05:36:46Z</time>
      </trkpt>
      <trkpt lat="44.88428" lon="6.65908">
        <ele>1431</ele>
        <time>2021-12-29T05:36:49Z</time>
      </trkpt>
      <trkpt lat="44.88407" lon="6.6581">
        <ele>1413</ele>
        <time>2021-12-29T05:37:02Z</time>
      </trkpt>
      <trkpt lat="44.88405" lon="6.65777">
        <ele>1411</ele>
        <time>2021-12-29T05:37:06Z</time>
      </trkpt>
      <trkpt lat="44.88405" lon="6.65748">
        <ele>1410</ele>
        <time>2021-12-29T05:37:10Z</time>
      </trkpt>
      <trkpt lat="44.88407" lon="6.65725">
        <ele>1409</ele>
        <time>2021-12-29T05:37:13Z</time>
      </trkpt>
      <trkpt lat="44.88452" lon="6.65465">
        <ele>1399</ele>
        <time>2021-12-29T05:37:47Z</time>
      </trkpt>
      <trkpt lat="44.8846" lon="6.65434">
        <ele>1397</ele>
        <time>2021-12-29T05:37:51Z</time>
      </trkpt>
      <trkpt lat="44.88469" lon="6.65413">
        <ele>1397</ele>
        <time>2021-12-29T05:37:54Z</time>
      </trkpt>
      <trkpt lat="44.88498" lon="6.65376">
        <ele>1399</ele>
        <time>2021-12-29T05:38:01Z</time>
      </trkpt>
      <trkpt lat="44.88518" lon="6.65343">
        <ele>1402</ele>
        <time>2021-12-29T05:38:06Z</time>
      </trkpt>
      <trkpt lat="44.88523" lon="6.65326">
        <ele>1402</ele>
        <time>2021-12-29T05:38:09Z</time>
      </trkpt>
      <trkpt lat="44.88524" lon="6.65303">
        <ele>1402</ele>
        <time>2021-12-29T05:38:12Z</time>
      </trkpt>
      <trkpt lat="44.88516" lon="6.65262">
        <ele>1397</ele>
        <time>2021-12-29T05:38:17Z</time>
      </trkpt>
      <trkpt lat="44.88515" lon="6.65239">
        <ele>1396</ele>
        <time>2021-12-29T05:38:20Z</time>
      </trkpt>
      <trkpt lat="44.88519" lon="6.652">
        <ele>1393</ele>
        <time>2021-12-29T05:38:25Z</time>
      </trkpt>
      <trkpt lat="44.88525" lon="6.65168">
        <ele>1393</ele>
        <time>2021-12-29T05:38:29Z</time>
      </trkpt>
      <trkpt lat="44.88536" lon="6.65137">
        <ele>1389</ele>
        <time>2021-12-29T05:38:33Z</time>
      </trkpt>
      <trkpt lat="44.88552" lon="6.65111">
        <ele>1389</ele>
        <time>2021-12-29T05:38:38Z</time>
      </trkpt>
      <trkpt lat="44.88571" lon="6.65093">
        <ele>1393</ele>
        <time>2021-12-29T05:38:42Z</time>
      </trkpt>
      <trkpt lat="44.88581" lon="6.65071">
        <ele>1393</ele>
        <time>2021-12-29T05:38:45Z</time>
      </trkpt>
      <trkpt lat="44.88592" lon="6.6503">
        <ele>1386</ele>
        <time>2021-12-29T05:38:51Z</time>
      </trkpt>
      <trkpt lat="44.88599" lon="6.65008">
        <ele>1382</ele>
        <time>2021-12-29T05:38:54Z</time>
      </trkpt>
      <trkpt lat="44.88609" lon="6.64989">
        <ele>1381</ele>
        <time>2021-12-29T05:38:57Z</time>
      </trkpt>
      <trkpt lat="44.88643" lon="6.64957">
        <ele>1385</ele>
        <time>2021-12-29T05:39:04Z</time>
      </trkpt>
      <trkpt lat="44.88654" lon="6.64938">
        <ele>1384</ele>
        <time>2021-12-29T05:39:07Z</time>
      </trkpt>
      <trkpt lat="44.88658" lon="6.64922">
        <ele>1381</ele>
        <time>2021-12-29T05:39:09Z</time>
      </trkpt>
      <trkpt lat="44.88651" lon="6.64867">
        <ele>1369</ele>
        <time>2021-12-29T05:39:16Z</time>
      </trkpt>
      <trkpt lat="44.88652" lon="6.6485">
        <ele>1366</ele>
        <time>2021-12-29T05:39:18Z</time>
      </trkpt>
      <trkpt lat="44.88656" lon="6.64836">
        <ele>1364</ele>
        <time>2021-12-29T05:39:20Z</time>
      </trkpt>
      <trkpt lat="44.88664" lon="6.64825">
        <ele>1365</ele>
        <time>2021-12-29T05:39:22Z</time>
      </trkpt>
      <trkpt lat="44.88696" lon="6.64806">
        <ele>1363</ele>
        <time>2021-12-29T05:39:28Z</time>
      </trkpt>
      <trkpt lat="44.8874" lon="6.64788">
        <ele>1362</ele>
        <time>2021-12-29T05:39:36Z</time>
      </trkpt>
      <trkpt lat="44.8881" lon="6.64776">
        <ele>1363</ele>
        <time>2021-12-29T05:39:49Z</time>
      </trkpt>
      <trkpt lat="44.88839" lon="6.64778">
        <ele>1365</ele>
        <time>2021-12-29T05:39:54Z</time>
      </trkpt>
      <trkpt lat="44.88862" lon="6.64775">
        <ele>1363</ele>
        <time>2021-12-29T05:39:58Z</time>
      </trkpt>
      <trkpt lat="44.88886" lon="6.6477">
        <ele>1360</ele>
        <time>2021-12-29T05:40:03Z</time>
      </trkpt>
      <trkpt lat="44.88925" lon="6.64756">
        <ele>1353</ele>
        <time>2021-12-29T05:40:10Z</time>
      </trkpt>
      <trkpt lat="44.88946" lon="6.6476">
        <ele>1353</ele>
        <time>2021-12-29T05:40:14Z</time>
      </trkpt>
      <trkpt lat="44.88982" lon="6.64776">
        <ele>1353</ele>
        <time>2021-12-29T05:40:20Z</time>
      </trkpt>
      <trkpt lat="44.88995" lon="6.64775">
        <ele>1351</ele>
        <time>2021-12-29T05:40:23Z</time>
      </trkpt>
      <trkpt lat="44.8901" lon="6.64771">
        <ele>1350</ele>
        <time>2021-12-29T05:40:25Z</time>
      </trkpt>
      <trkpt lat="44.8902" lon="6.6476">
        <ele>1348</ele>
        <time>2021-12-29T05:40:28Z</time>
      </trkpt>
      <trkpt lat="44.89031" lon="6.64745">
        <ele>1347</ele>
        <time>2021-12-29T05:40:30Z</time>
      </trkpt>
      <trkpt lat="44.8905" lon="6.64713">
        <ele>1344</ele>
        <time>2021-12-29T05:40:36Z</time>
      </trkpt>
      <trkpt lat="44.89059" lon="6.64703">
        <ele>1343</ele>
        <time>2021-12-29T05:40:38Z</time>
      </trkpt>
      <trkpt lat="44.89069" lon="6.64696">
        <ele>1342</ele>
        <time>2021-12-29T05:40:40Z</time>
      </trkpt>
      <trkpt lat="44.89135" lon="6.64693">
        <ele>1343</ele>
        <time>2021-12-29T05:40:51Z</time>
      </trkpt>
      <trkpt lat="44.89172" lon="6.64672">
        <ele>1340</ele>
        <time>2021-12-29T05:40:58Z</time>
      </trkpt>
      <trkpt lat="44.89182" lon="6.64662">
        <ele>1339</ele>
        <time>2021-12-29T05:41:01Z</time>
      </trkpt>
      <trkpt lat="44.8919" lon="6.64649">
        <ele>1338</ele>
        <time>2021-12-29T05:41:03Z</time>
      </trkpt>
      <trkpt lat="44.89199" lon="6.64618">
        <ele>1333</ele>
        <time>2021-12-29T05:41:07Z</time>
      </trkpt>
      <trkpt lat="44.89208" lon="6.64605">
        <ele>1332</ele>
        <time>2021-12-29T05:41:09Z</time>
      </trkpt>
      <trkpt lat="44.89232" lon="6.64597">
        <ele>1332</ele>
        <time>2021-12-29T05:41:14Z</time>
      </trkpt>
      <trkpt lat="44.8924" lon="6.64592">
        <ele>1331</ele>
        <time>2021-12-29T05:41:15Z</time>
      </trkpt>
      <trkpt lat="44.89249" lon="6.64581">
        <ele>1330</ele>
        <time>2021-12-29T05:41:17Z</time>
      </trkpt>
      <trkpt lat="44.89256" lon="6.64564">
        <ele>1329</ele>
        <time>2021-12-29T05:41:20Z</time>
      </trkpt>
      <trkpt lat="44.89264" lon="6.64534">
        <ele>1327</ele>
        <time>2021-12-29T05:41:24Z</time>
      </trkpt>
      <trkpt lat="44.89267" lon="6.64504">
        <ele>1324</ele>
        <time>2021-12-29T05:41:28Z</time>
      </trkpt>
      <trkpt lat="44.89274" lon="6.64483">
        <ele>1324</ele>
        <time>2021-12-29T05:41:31Z</time>
      </trkpt>
      <trkpt lat="44.89284" lon="6.64463">
        <ele>1325</ele>
        <time>2021-12-29T05:41:34Z</time>
      </trkpt>
      <trkpt lat="44.89294" lon="6.64441">
        <ele>1325</ele>
        <time>2021-12-29T05:41:37Z</time>
      </trkpt>
      <trkpt lat="44.89298" lon="6.64409">
        <ele>1325</ele>
        <time>2021-12-29T05:41:41Z</time>
      </trkpt>
      <trkpt lat="44.89293" lon="6.64409">
        <ele>1324</ele>
        <time>2021-12-29T05:41:42Z</time>
      </trkpt>
      <trkpt lat="44.89291" lon="6.64415">
        <ele>1324</ele>
        <time>2021-12-29T05:41:43Z</time>
      </trkpt>
      <trkpt lat="44.89293" lon="6.64409">
        <ele>1324</ele>
        <time>2021-12-29T05:41:44Z</time>
      </trkpt>
      <trkpt lat="44.89298" lon="6.64409">
        <ele>1325</ele>
        <time>2021-12-29T05:41:45Z</time>
      </trkpt>
      <trkpt lat="44.89295" lon="6.64345">
        <ele>1321</ele>
        <time>2021-12-29T05:41:53Z</time>
      </trkpt>
      <trkpt lat="44.89298" lon="6.64275">
        <ele>1315</ele>
        <time>2021-12-29T05:42:01Z</time>
      </trkpt>
      <trkpt lat="44.89324" lon="6.64207">
        <ele>1312</ele>
        <time>2021-12-29T05:42:11Z</time>
      </trkpt>
      <trkpt lat="44.89324" lon="6.64193">
        <ele>1311</ele>
        <time>2021-12-29T05:42:13Z</time>
      </trkpt>
      <trkpt lat="44.89319" lon="6.64162">
        <ele>1309</ele>
        <time>2021-12-29T05:42:17Z</time>
      </trkpt>
      <trkpt lat="44.89304" lon="6.64105">
        <ele>1303</ele>
        <time>2021-12-29T05:42:25Z</time>
      </trkpt>
      <trkpt lat="44.89303" lon="6.64092">
        <ele>1303</ele>
        <time>2021-12-29T05:42:26Z</time>
      </trkpt>
      <trkpt lat="44.89302" lon="6.64076">
        <ele>1301</ele>
        <time>2021-12-29T05:42:28Z</time>
      </trkpt>
      <trkpt lat="44.8931" lon="6.64043">
        <ele>1297</ele>
        <time>2021-12-29T05:42:33Z</time>
      </trkpt>
      <trkpt lat="44.89302" lon="6.64026">
        <ele>1293</ele>
        <time>2021-12-29T05:42:35Z</time>
      </trkpt>
      <trkpt lat="44.89285" lon="6.64019">
        <ele>1291</ele>
        <time>2021-12-29T05:42:38Z</time>
      </trkpt>
      <trkpt lat="44.8927" lon="6.64027">
        <ele>1292</ele>
        <time>2021-12-29T05:42:41Z</time>
      </trkpt>
      <trkpt lat="44.89252" lon="6.64047">
        <ele>1293</ele>
        <time>2021-12-29T05:42:45Z</time>
      </trkpt>
      <trkpt lat="44.89235" lon="6.64059">
        <ele>1293</ele>
        <time>2021-12-29T05:42:49Z</time>
      </trkpt>
      <trkpt lat="44.89211" lon="6.6407">
        <ele>1293</ele>
        <time>2021-12-29T05:42:53Z</time>
      </trkpt>
      <trkpt lat="44.89184" lon="6.64073">
        <ele>1292</ele>
        <time>2021-12-29T05:42:58Z</time>
      </trkpt>
      <trkpt lat="44.89165" lon="6.6407">
        <ele>1290</ele>
        <time>2021-12-29T05:43:01Z</time>
      </trkpt>
      <trkpt lat="44.89102" lon="6.6402">
        <ele>1281</ele>
        <time>2021-12-29T05:43:14Z</time>
      </trkpt>
      <trkpt lat="44.89044" lon="6.63989">
        <ele>1274</ele>
        <time>2021-12-29T05:43:25Z</time>
      </trkpt>
      <trkpt lat="44.89017" lon="6.63982">
        <ele>1271</ele>
        <time>2021-12-29T05:43:30Z</time>
      </trkpt>
      <trkpt lat="44.8901" lon="6.63984">
        <ele>1272</ele>
        <time>2021-12-29T05:43:31Z</time>
      </trkpt>
      <trkpt lat="44.88982" lon="6.64">
        <ele>1272</ele>
        <time>2021-12-29T05:43:37Z</time>
      </trkpt>
      <trkpt lat="44.88961" lon="6.64028">
        <ele>1273</ele>
        <time>2021-12-29T05:43:42Z</time>
      </trkpt>
      <trkpt lat="44.88948" lon="6.6404">
        <ele>1273</ele>
        <time>2021-12-29T05:43:45Z</time>
      </trkpt>
      <trkpt lat="44.88936" lon="6.64038">
        <ele>1272</ele>
        <time>2021-12-29T05:43:47Z</time>
      </trkpt>
      <trkpt lat="44.88907" lon="6.64016">
        <ele>1268</ele>
        <time>2021-12-29T05:43:53Z</time>
      </trkpt>
      <trkpt lat="44.88875" lon="6.6398">
        <ele>1262</ele>
        <time>2021-12-29T05:44:00Z</time>
      </trkpt>
      <trkpt lat="44.88871" lon="6.63952">
        <ele>1259</ele>
        <time>2021-12-29T05:44:04Z</time>
      </trkpt>
      <trkpt lat="44.88876" lon="6.63939">
        <ele>1259</ele>
        <time>2021-12-29T05:44:06Z</time>
      </trkpt>
      <trkpt lat="44.88881" lon="6.63931">
        <ele>1258</ele>
        <time>2021-12-29T05:44:07Z</time>
      </trkpt>
      <trkpt lat="44.88909" lon="6.63922">
        <ele>1259</ele>
        <time>2021-12-29T05:44:12Z</time>
      </trkpt>
      <trkpt lat="44.88937" lon="6.63917">
        <ele>1259</ele>
        <time>2021-12-29T05:44:17Z</time>
      </trkpt>
      <trkpt lat="44.8896" lon="6.63901">
        <ele>1256</ele>
        <time>2021-12-29T05:44:22Z</time>
      </trkpt>
      <trkpt lat="44.89024" lon="6.63895">
        <ele>1255</ele>
        <time>2021-12-29T05:44:33Z</time>
      </trkpt>
      <trkpt lat="44.89047" lon="6.63886">
        <ele>1253</ele>
        <time>2021-12-29T05:44:37Z</time>
      </trkpt>
      <trkpt lat="44.89134" lon="6.63813">
        <ele>1243</ele>
        <time>2021-12-29T05:44:55Z</time>
      </trkpt>
      <trkpt lat="44.89157" lon="6.63805">
        <ele>1242</ele>
        <time>2021-12-29T05:44:59Z</time>
      </trkpt>
      <trkpt lat="44.89179" lon="6.63798">
        <ele>1240</ele>
        <time>2021-12-29T05:45:03Z</time>
      </trkpt>
      <trkpt lat="44.89249" lon="6.63785">
        <ele>1234</ele>
        <time>2021-12-29T05:45:16Z</time>
      </trkpt>
      <trkpt lat="44.89297" lon="6.63789">
        <ele>1233</ele>
        <time>2021-12-29T05:45:25Z</time>
      </trkpt>
      <trkpt lat="44.89347" lon="6.6378">
        <ele>1229</ele>
        <time>2021-12-29T05:45:34Z</time>
      </trkpt>
      <trkpt lat="44.89369" lon="6.63772">
        <ele>1228</ele>
        <time>2021-12-29T05:45:38Z</time>
      </trkpt>
      <trkpt lat="44.89425" lon="6.63752">
        <ele>1224</ele>
        <time>2021-12-29T05:45:48Z</time>
      </trkpt>
      <trkpt lat="44.8947" lon="6.63718">
        <ele>1220</ele>
        <time>2021-12-29T05:45:57Z</time>
      </trkpt>
      <trkpt lat="44.89498" lon="6.63688">
        <ele>1217</ele>
        <time>2021-12-29T05:46:03Z</time>
      </trkpt>
      <trkpt lat="44.89501" lon="6.6369">
        <ele>1217</ele>
        <time>2021-12-29T05:46:04Z</time>
      </trkpt>
      <trkpt lat="44.89505" lon="6.63689">
        <ele>1217</ele>
        <time>2021-12-29T05:46:05Z</time>
      </trkpt>
      <trkpt lat="44.89508" lon="6.63685">
        <ele>1216</ele>
        <time>2021-12-29T05:46:05Z</time>
      </trkpt>
      <trkpt lat="44.8951" lon="6.63679">
        <ele>1216</ele>
        <time>2021-12-29T05:46:06Z</time>
      </trkpt>
      <trkpt lat="44.89519" lon="6.63683">
        <ele>1216</ele>
        <time>2021-12-29T05:46:08Z</time>
      </trkpt>
      <trkpt lat="44.89529" lon="6.63677">
        <ele>1216</ele>
        <time>2021-12-29T05:46:10Z</time>
      </trkpt>
      <trkpt lat="44.89543" lon="6.63669">
        <ele>1216</ele>
        <time>2021-12-29T05:46:12Z</time>
      </trkpt>
      <trkpt lat="44.8961" lon="6.6363">
        <ele>1218</ele>
        <time>2021-12-29T05:46:25Z</time>
      </trkpt>
      <trkpt lat="44.89614" lon="6.63607">
        <ele>1218</ele>
        <time>2021-12-29T05:46:28Z</time>
      </trkpt>
      <trkpt lat="44.89648" lon="6.63475">
        <ele>1217</ele>
        <time>2021-12-29T05:46:46Z</time>
      </trkpt>
      <trkpt lat="44.89652" lon="6.63465">
        <ele>1217</ele>
        <time>2021-12-29T05:46:47Z</time>
      </trkpt>
      <trkpt lat="44.89654" lon="6.63468">
        <ele>1217</ele>
        <time>2021-12-29T05:46:48Z</time>
      </trkpt>
      <trkpt lat="44.8966" lon="6.63471">
        <ele>1218</ele>
        <time>2021-12-29T05:46:49Z</time>
      </trkpt>
      <trkpt lat="44.89664" lon="6.63469">
        <ele>1218</ele>
        <time>2021-12-29T05:46:50Z</time>
      </trkpt>
      <trkpt lat="44.89669" lon="6.6346">
        <ele>1218</ele>
        <time>2021-12-29T05:46:51Z</time>
      </trkpt>
      <trkpt lat="44.89699" lon="6.63448">
        <ele>1218</ele>
        <time>2021-12-29T05:46:57Z</time>
      </trkpt>
      <trkpt lat="44.8971" lon="6.63439">
        <ele>1218</ele>
        <time>2021-12-29T05:46:59Z</time>
      </trkpt>
      <trkpt lat="44.89721" lon="6.63432">
        <ele>1219</ele>
        <time>2021-12-29T05:47:01Z</time>
      </trkpt>
      <trkpt lat="44.89842" lon="6.63392">
        <ele>1221</ele>
        <time>2021-12-29T05:47:23Z</time>
      </trkpt>
      <trkpt lat="44.89863" lon="6.63394">
        <ele>1222</ele>
        <time>2021-12-29T05:47:27Z</time>
      </trkpt>
      <trkpt lat="44.89865" lon="6.63403">
        <ele>1222</ele>
        <time>2021-12-29T05:47:28Z</time>
      </trkpt>
      <trkpt lat="44.8987" lon="6.63408">
        <ele>1222</ele>
        <time>2021-12-29T05:47:29Z</time>
      </trkpt>
      <trkpt lat="44.89876" lon="6.63409">
        <ele>1222</ele>
        <time>2021-12-29T05:47:30Z</time>
      </trkpt>
      <trkpt lat="44.89881" lon="6.63404">
        <ele>1222</ele>
        <time>2021-12-29T05:47:32Z</time>
      </trkpt>
      <trkpt lat="44.89883" lon="6.63395">
        <ele>1222</ele>
        <time>2021-12-29T05:47:33Z</time>
      </trkpt>
      <trkpt lat="44.89882" lon="6.63387">
        <ele>1222</ele>
        <time>2021-12-29T05:47:34Z</time>
      </trkpt>
      <trkpt lat="44.89924" lon="6.63351">
        <ele>1223</ele>
        <time>2021-12-29T05:47:42Z</time>
      </trkpt>
      <trkpt lat="44.90078" lon="6.63241">
        <ele>1226</ele>
        <time>2021-12-29T05:48:13Z</time>
      </trkpt>
      <trkpt lat="44.90183" lon="6.63163">
        <ele>1236</ele>
        <time>2021-12-29T05:48:34Z</time>
      </trkpt>
      <trkpt lat="44.90197" lon="6.63158">
        <ele>1238</ele>
        <time>2021-12-29T05:48:37Z</time>
      </trkpt>
      <trkpt lat="44.90227" lon="6.63158">
        <ele>1240</ele>
        <time>2021-12-29T05:48:42Z</time>
      </trkpt>
      <trkpt lat="44.9024" lon="6.63154">
        <ele>1241</ele>
        <time>2021-12-29T05:48:45Z</time>
      </trkpt>
      <trkpt lat="44.90256" lon="6.63143">
        <ele>1243</ele>
        <time>2021-12-29T05:48:48Z</time>
      </trkpt>
      <trkpt lat="44.90263" lon="6.63135">
        <ele>1244</ele>
        <time>2021-12-29T05:48:49Z</time>
      </trkpt>
      <trkpt lat="44.90269" lon="6.63125">
        <ele>1245</ele>
        <time>2021-12-29T05:48:51Z</time>
      </trkpt>
      <trkpt lat="44.9027" lon="6.63117">
        <ele>1245</ele>
        <time>2021-12-29T05:48:52Z</time>
      </trkpt>
      <trkpt lat="44.90322" lon="6.63051">
        <ele>1249</ele>
        <time>2021-12-29T05:49:04Z</time>
      </trkpt>
      <trkpt lat="44.90334" lon="6.63033">
        <ele>1250</ele>
        <time>2021-12-29T05:49:08Z</time>
      </trkpt>
      <trkpt lat="44.90339" lon="6.63017">
        <ele>1251</ele>
        <time>2021-12-29T05:49:10Z</time>
      </trkpt>
      <trkpt lat="44.90341" lon="6.62992">
        <ele>1251</ele>
        <time>2021-12-29T05:49:13Z</time>
      </trkpt>
      <trkpt lat="44.90339" lon="6.62951">
        <ele>1252</ele>
        <time>2021-12-29T05:49:18Z</time>
      </trkpt>
      <trkpt lat="44.90341" lon="6.62919">
        <ele>1253</ele>
        <time>2021-12-29T05:49:22Z</time>
      </trkpt>
      <trkpt lat="44.90344" lon="6.62903">
        <ele>1254</ele>
        <time>2021-12-29T05:49:24Z</time>
      </trkpt>
      <trkpt lat="44.90349" lon="6.62887">
        <ele>1254</ele>
        <time>2021-12-29T05:49:26Z</time>
      </trkpt>
      <trkpt lat="44.90361" lon="6.62858">
        <ele>1255</ele>
        <time>2021-12-29T05:49:31Z</time>
      </trkpt>
      <trkpt lat="44.90373" lon="6.62841">
        <ele>1255</ele>
        <time>2021-12-29T05:49:34Z</time>
      </trkpt>
      <trkpt lat="44.90388" lon="6.62825">
        <ele>1254</ele>
        <time>2021-12-29T05:49:37Z</time>
      </trkpt>
      <trkpt lat="44.90405" lon="6.62811">
        <ele>1253</ele>
        <time>2021-12-29T05:49:41Z</time>
      </trkpt>
      <trkpt lat="44.90423" lon="6.62802">
        <ele>1252</ele>
        <time>2021-12-29T05:49:44Z</time>
      </trkpt>
      <trkpt lat="44.90437" lon="6.62798">
        <ele>1252</ele>
        <time>2021-12-29T05:49:47Z</time>
      </trkpt>
      <trkpt lat="44.9046" lon="6.62796">
        <ele>1252</ele>
        <time>2021-12-29T05:49:51Z</time>
      </trkpt>
      <trkpt lat="44.90471" lon="6.62798">
        <ele>1252</ele>
        <time>2021-12-29T05:49:53Z</time>
      </trkpt>
      <trkpt lat="44.90503" lon="6.62813">
        <ele>1254</ele>
        <time>2021-12-29T05:49:59Z</time>
      </trkpt>
      <trkpt lat="44.90534" lon="6.62847">
        <ele>1259</ele>
        <time>2021-12-29T05:50:06Z</time>
      </trkpt>
      <trkpt lat="44.90535" lon="6.62852">
        <ele>1260</ele>
        <time>2021-12-29T05:50:06Z</time>
      </trkpt>
      <trkpt lat="44.90541" lon="6.6286">
        <ele>1261</ele>
        <time>2021-12-29T05:50:08Z</time>
      </trkpt>
      <trkpt lat="44.90546" lon="6.62863">
        <ele>1261</ele>
        <time>2021-12-29T05:50:09Z</time>
      </trkpt>
      <trkpt lat="44.90551" lon="6.62863">
        <ele>1262</ele>
        <time>2021-12-29T05:50:10Z</time>
      </trkpt>
      <trkpt lat="44.90556" lon="6.62861">
        <ele>1262</ele>
        <time>2021-12-29T05:50:10Z</time>
      </trkpt>
      <trkpt lat="44.9056" lon="6.62856">
        <ele>1262</ele>
        <time>2021-12-29T05:50:11Z</time>
      </trkpt>
      <trkpt lat="44.90564" lon="6.62847">
        <ele>1263</ele>
        <time>2021-12-29T05:50:13Z</time>
      </trkpt>
      <trkpt lat="44.90564" lon="6.62841">
        <ele>1262</ele>
        <time>2021-12-29T05:50:14Z</time>
      </trkpt>
      <trkpt lat="44.90572" lon="6.62827">
        <ele>1262</ele>
        <time>2021-12-29T05:50:16Z</time>
      </trkpt>
      <trkpt lat="44.9059" lon="6.62804">
        <ele>1261</ele>
        <time>2021-12-29T05:50:20Z</time>
      </trkpt>
      <trkpt lat="44.90609" lon="6.62791">
        <ele>1263</ele>
        <time>2021-12-29T05:50:24Z</time>
      </trkpt>
      <trkpt lat="44.90635" lon="6.62777">
        <ele>1265</ele>
        <time>2021-12-29T05:50:29Z</time>
      </trkpt>
      <trkpt lat="44.90657" lon="6.6277">
        <ele>1268</ele>
        <time>2021-12-29T05:50:33Z</time>
      </trkpt>
      <trkpt lat="44.90733" lon="6.62762">
        <ele>1279</ele>
        <time>2021-12-29T05:50:46Z</time>
      </trkpt>
      <trkpt lat="44.90771" lon="6.62754">
        <ele>1283</ele>
        <time>2021-12-29T05:50:53Z</time>
      </trkpt>
      <trkpt lat="44.90786" lon="6.62748">
        <ele>1283</ele>
        <time>2021-12-29T05:50:56Z</time>
      </trkpt>
      <trkpt lat="44.90975" lon="6.62608">
        <ele>1292</ele>
        <time>2021-12-29T05:51:34Z</time>
      </trkpt>
      <trkpt lat="44.90997" lon="6.62588">
        <ele>1294</ele>
        <time>2021-12-29T05:51:39Z</time>
      </trkpt>
      <trkpt lat="44.91072" lon="6.62492">
        <ele>1296</ele>
        <time>2021-12-29T05:51:57Z</time>
      </trkpt>
      <trkpt lat="44.91119" lon="6.62435">
        <ele>1297</ele>
        <time>2021-12-29T05:52:08Z</time>
      </trkpt>
      <trkpt lat="44.9113" lon="6.62426">
        <ele>1298</ele>
        <time>2021-12-29T05:52:10Z</time>
      </trkpt>
      <trkpt lat="44.91178" lon="6.62404">
        <ele>1305</ele>
        <time>2021-12-29T05:52:19Z</time>
      </trkpt>
      <trkpt lat="44.91195" lon="6.62399">
        <ele>1306</ele>
        <time>2021-12-29T05:52:22Z</time>
      </trkpt>
      <trkpt lat="44.91231" lon="6.62398">
        <ele>1309</ele>
        <time>2021-12-29T05:52:28Z</time>
      </trkpt>
      <trkpt lat="44.91256" lon="6.62401">
        <ele>1312</ele>
        <time>2021-12-29T05:52:33Z</time>
      </trkpt>
      <trkpt lat="44.91283" lon="6.62398">
        <ele>1314</ele>
        <time>2021-12-29T05:52:38Z</time>
      </trkpt>
      <trkpt lat="44.91297" lon="6.62392">
        <ele>1314</ele>
        <time>2021-12-29T05:52:40Z</time>
      </trkpt>
      <trkpt lat="44.91305" lon="6.62385">
        <ele>1314</ele>
        <time>2021-12-29T05:52:42Z</time>
      </trkpt>
      <trkpt lat="44.91344" lon="6.62345">
        <ele>1313</ele>
        <time>2021-12-29T05:52:51Z</time>
      </trkpt>
      <trkpt lat="44.91357" lon="6.62336">
        <ele>1314</ele>
        <time>2021-12-29T05:52:53Z</time>
      </trkpt>
      <trkpt lat="44.91462" lon="6.62302">
        <ele>1322</ele>
        <time>2021-12-29T05:53:12Z</time>
      </trkpt>
      <trkpt lat="44.91578" lon="6.62268">
        <ele>1329</ele>
        <time>2021-12-29T05:53:33Z</time>
      </trkpt>
      <trkpt lat="44.91661" lon="6.62238">
        <ele>1334</ele>
        <time>2021-12-29T05:53:49Z</time>
      </trkpt>
      <trkpt lat="44.91681" lon="6.62229">
        <ele>1336</ele>
        <time>2021-12-29T05:53:52Z</time>
      </trkpt>
      <trkpt lat="44.917" lon="6.62217">
        <ele>1337</ele>
        <time>2021-12-29T05:53:56Z</time>
      </trkpt>
      <trkpt lat="44.91734" lon="6.62193">
        <ele>1338</ele>
        <time>2021-12-29T05:54:03Z</time>
      </trkpt>
      <trkpt lat="44.91755" lon="6.62174">
        <ele>1338</ele>
        <time>2021-12-29T05:54:07Z</time>
      </trkpt>
      <trkpt lat="44.9179" lon="6.62115">
        <ele>1336</ele>
        <time>2021-12-29T05:54:17Z</time>
      </trkpt>
      <trkpt lat="44.91873" lon="6.61968">
        <ele>1338</ele>
        <time>2021-12-29T05:54:41Z</time>
      </trkpt>
      <trkpt lat="44.91894" lon="6.61935">
        <ele>1340</ele>
        <time>2021-12-29T05:54:46Z</time>
      </trkpt>
      <trkpt lat="44.91936" lon="6.61878">
        <ele>1342</ele>
        <time>2021-12-29T05:54:57Z</time>
      </trkpt>
      <trkpt lat="44.92008" lon="6.61789">
        <ele>1342</ele>
        <time>2021-12-29T05:55:14Z</time>
      </trkpt>
      <trkpt lat="44.92088" lon="6.61681">
        <ele>1335</ele>
        <time>2021-12-29T05:55:33Z</time>
      </trkpt>
      <trkpt lat="44.92188" lon="6.61536">
        <ele>1335</ele>
        <time>2021-12-29T05:55:59Z</time>
      </trkpt>
      <trkpt lat="44.92201" lon="6.61512">
        <ele>1334</ele>
        <time>2021-12-29T05:56:03Z</time>
      </trkpt>
      <trkpt lat="44.92217" lon="6.61474">
        <ele>1334</ele>
        <time>2021-12-29T05:56:08Z</time>
      </trkpt>
      <trkpt lat="44.9223" lon="6.6143">
        <ele>1333</ele>
        <time>2021-12-29T05:56:14Z</time>
      </trkpt>
      <trkpt lat="44.92236" lon="6.614">
        <ele>1332</ele>
        <time>2021-12-29T05:56:18Z</time>
      </trkpt>
      <trkpt lat="44.9224" lon="6.61353">
        <ele>1332</ele>
        <time>2021-12-29T05:56:24Z</time>
      </trkpt>
      <trkpt lat="44.92242" lon="6.61315">
        <ele>1333</ele>
        <time>2021-12-29T05:56:29Z</time>
      </trkpt>
      <trkpt lat="44.92248" lon="6.61264">
        <ele>1335</ele>
        <time>2021-12-29T05:56:35Z</time>
      </trkpt>
      <trkpt lat="44.9225" lon="6.61252">
        <ele>1336</ele>
        <time>2021-12-29T05:56:37Z</time>
      </trkpt>
      <trkpt lat="44.92261" lon="6.61237">
        <ele>1337</ele>
        <time>2021-12-29T05:56:40Z</time>
      </trkpt>
      <trkpt lat="44.92264" lon="6.61224">
        <ele>1337</ele>
        <time>2021-12-29T05:56:41Z</time>
      </trkpt>
      <trkpt lat="44.92264" lon="6.61217">
        <ele>1337</ele>
        <time>2021-12-29T05:56:42Z</time>
      </trkpt>
      <trkpt lat="44.9226" lon="6.61205">
        <ele>1336</ele>
        <time>2021-12-29T05:56:44Z</time>
      </trkpt>
      <trkpt lat="44.92256" lon="6.612">
        <ele>1336</ele>
        <time>2021-12-29T05:56:45Z</time>
      </trkpt>
      <trkpt lat="44.92252" lon="6.61184">
        <ele>1335</ele>
        <time>2021-12-29T05:56:47Z</time>
      </trkpt>
      <trkpt lat="44.92257" lon="6.61149">
        <ele>1334</ele>
        <time>2021-12-29T05:56:52Z</time>
      </trkpt>
      <trkpt lat="44.92289" lon="6.6104">
        <ele>1333</ele>
        <time>2021-12-29T05:57:06Z</time>
      </trkpt>
      <trkpt lat="44.92333" lon="6.60927">
        <ele>1332</ele>
        <time>2021-12-29T05:57:23Z</time>
      </trkpt>
      <trkpt lat="44.92464" lon="6.60608">
        <ele>1333</ele>
        <time>2021-12-29T05:58:09Z</time>
      </trkpt>
      <trkpt lat="44.92473" lon="6.60589">
        <ele>1332</ele>
        <time>2021-12-29T05:58:12Z</time>
      </trkpt>
      <trkpt lat="44.92566" lon="6.60378">
        <ele>1335</ele>
        <time>2021-12-29T05:58:43Z</time>
      </trkpt>
      <trkpt lat="44.92574" lon="6.6036">
        <ele>1335</ele>
        <time>2021-12-29T05:58:46Z</time>
      </trkpt>
      <trkpt lat="44.92606" lon="6.60292">
        <ele>1338</ele>
        <time>2021-12-29T05:58:56Z</time>
      </trkpt>
      <trkpt lat="44.92623" lon="6.60253">
        <ele>1341</ele>
        <time>2021-12-29T05:59:02Z</time>
      </trkpt>
      <trkpt lat="44.92917" lon="6.59596">
        <ele>1351</ele>
        <time>2021-12-29T06:00:40Z</time>
      </trkpt>
      <trkpt lat="44.9298" lon="6.59469">
        <ele>1353</ele>
        <time>2021-12-29T06:00:59Z</time>
      </trkpt>
      <trkpt lat="44.93031" lon="6.59382">
        <ele>1356</ele>
        <time>2021-12-29T06:01:14Z</time>
      </trkpt>
      <trkpt lat="44.93053" lon="6.59356">
        <ele>1358</ele>
        <time>2021-12-29T06:01:19Z</time>
      </trkpt>
      <trkpt lat="44.9306" lon="6.59355">
        <ele>1358</ele>
        <time>2021-12-29T06:01:20Z</time>
      </trkpt>
      <trkpt lat="44.93065" lon="6.59348">
        <ele>1359</ele>
        <time>2021-12-29T06:01:21Z</time>
      </trkpt>
      <trkpt lat="44.93066" lon="6.59336">
        <ele>1359</ele>
        <time>2021-12-29T06:01:23Z</time>
      </trkpt>
      <trkpt lat="44.93079" lon="6.59305">
        <ele>1359</ele>
        <time>2021-12-29T06:01:27Z</time>
      </trkpt>
      <trkpt lat="44.93258" lon="6.59009">
        <ele>1369</ele>
        <time>2021-12-29T06:02:16Z</time>
      </trkpt>
      <trkpt lat="44.93281" lon="6.58973">
        <ele>1369</ele>
        <time>2021-12-29T06:02:23Z</time>
      </trkpt>
      <trkpt lat="44.93376" lon="6.58837">
        <ele>1369</ele>
        <time>2021-12-29T06:02:47Z</time>
      </trkpt>
      <trkpt lat="44.93429" lon="6.58755">
        <ele>1368</ele>
        <time>2021-12-29T06:03:01Z</time>
      </trkpt>
      <trkpt lat="44.93432" lon="6.5875">
        <ele>1368</ele>
        <time>2021-12-29T06:03:01Z</time>
      </trkpt>
      <trkpt lat="44.93467" lon="6.5869">
        <ele>1366</ele>
        <time>2021-12-29T06:03:11Z</time>
      </trkpt>
      <trkpt lat="44.93534" lon="6.58566">
        <ele>1362</ele>
        <time>2021-12-29T06:03:31Z</time>
      </trkpt>
      <trkpt lat="44.93577" lon="6.58491">
        <ele>1359</ele>
        <time>2021-12-29T06:03:43Z</time>
      </trkpt>
      <trkpt lat="44.93619" lon="6.58406">
        <ele>1358</ele>
        <time>2021-12-29T06:03:56Z</time>
      </trkpt>
      <trkpt lat="44.93669" lon="6.58291">
        <ele>1359</ele>
        <time>2021-12-29T06:04:13Z</time>
      </trkpt>
      <trkpt lat="44.93688" lon="6.58237">
        <ele>1359</ele>
        <time>2021-12-29T06:04:21Z</time>
      </trkpt>
      <trkpt lat="44.9381" lon="6.57785">
        <ele>1370</ele>
        <time>2021-12-29T06:05:22Z</time>
      </trkpt>
      <trkpt lat="44.93859" lon="6.57613">
        <ele>1375</ele>
        <time>2021-12-29T06:05:45Z</time>
      </trkpt>
      <trkpt lat="44.9395" lon="6.57265">
        <ele>1379</ele>
        <time>2021-12-29T06:06:32Z</time>
      </trkpt>
      <trkpt lat="44.93958" lon="6.57243">
        <ele>1378</ele>
        <time>2021-12-29T06:06:35Z</time>
      </trkpt>
      <trkpt lat="44.94012" lon="6.57123">
        <ele>1378</ele>
        <time>2021-12-29T06:06:53Z</time>
      </trkpt>
      <trkpt lat="44.9403" lon="6.5709">
        <ele>1378</ele>
        <time>2021-12-29T06:06:58Z</time>
      </trkpt>
      <trkpt lat="44.94072" lon="6.57027">
        <ele>1379</ele>
        <time>2021-12-29T06:07:09Z</time>
      </trkpt>
      <trkpt lat="44.94094" lon="6.56998">
        <ele>1379</ele>
        <time>2021-12-29T06:07:14Z</time>
      </trkpt>
      <trkpt lat="44.94122" lon="6.56967">
        <ele>1379</ele>
        <time>2021-12-29T06:07:20Z</time>
      </trkpt>
      <trkpt lat="44.94134" lon="6.56956">
        <ele>1379</ele>
        <time>2021-12-29T06:07:23Z</time>
      </trkpt>
      <trkpt lat="44.94215" lon="6.56877">
        <ele>1380</ele>
        <time>2021-12-29T06:07:41Z</time>
      </trkpt>
      <trkpt lat="44.94236" lon="6.56852">
        <ele>1380</ele>
        <time>2021-12-29T06:07:45Z</time>
      </trkpt>
      <trkpt lat="44.94264" lon="6.56813">
        <ele>1381</ele>
        <time>2021-12-29T06:07:52Z</time>
      </trkpt>
      <trkpt lat="44.94286" lon="6.5677">
        <ele>1383</ele>
        <time>2021-12-29T06:07:59Z</time>
      </trkpt>
      <trkpt lat="44.94313" lon="6.56706">
        <ele>1383</ele>
        <time>2021-12-29T06:08:08Z</time>
      </trkpt>
      <trkpt lat="44.94343" lon="6.56611">
        <ele>1386</ele>
        <time>2021-12-29T06:08:22Z</time>
      </trkpt>
      <trkpt lat="44.94366" lon="6.56544">
        <ele>1387</ele>
        <time>2021-12-29T06:08:31Z</time>
      </trkpt>
      <trkpt lat="44.94388" lon="6.56487">
        <ele>1386</ele>
        <time>2021-12-29T06:08:39Z</time>
      </trkpt>
      <trkpt lat="44.94414" lon="6.56428">
        <ele>1385</ele>
        <time>2021-12-29T06:08:48Z</time>
      </trkpt>
      <trkpt lat="44.94461" lon="6.56335">
        <ele>1386</ele>
        <time>2021-12-29T06:09:02Z</time>
      </trkpt>
      <trkpt lat="44.9447" lon="6.56311">
        <ele>1386</ele>
        <time>2021-12-29T06:09:06Z</time>
      </trkpt>
      <trkpt lat="44.94502" lon="6.56208">
        <ele>1386</ele>
        <time>2021-12-29T06:09:20Z</time>
      </trkpt>
      <trkpt lat="44.94532" lon="6.56148">
        <ele>1387</ele>
        <time>2021-12-29T06:09:29Z</time>
      </trkpt>
      <trkpt lat="44.94547" lon="6.56122">
        <ele>1387</ele>
        <time>2021-12-29T06:09:33Z</time>
      </trkpt>
      <trkpt lat="44.94555" lon="6.56116">
        <ele>1387</ele>
        <time>2021-12-29T06:09:35Z</time>
      </trkpt>
      <trkpt lat="44.94564" lon="6.56111">
        <ele>1387</ele>
        <time>2021-12-29T06:09:37Z</time>
      </trkpt>
      <trkpt lat="44.9457" lon="6.561">
        <ele>1387</ele>
        <time>2021-12-29T06:09:38Z</time>
      </trkpt>
      <trkpt lat="44.94572" lon="6.56087">
        <ele>1387</ele>
        <time>2021-12-29T06:09:40Z</time>
      </trkpt>
      <trkpt lat="44.94571" lon="6.5608">
        <ele>1387</ele>
        <time>2021-12-29T06:09:41Z</time>
      </trkpt>
      <trkpt lat="44.9458" lon="6.56057">
        <ele>1386</ele>
        <time>2021-12-29T06:09:44Z</time>
      </trkpt>
      <trkpt lat="44.94589" lon="6.56043">
        <ele>1386</ele>
        <time>2021-12-29T06:09:47Z</time>
      </trkpt>
      <trkpt lat="44.94597" lon="6.56028">
        <ele>1386</ele>
        <time>2021-12-29T06:09:49Z</time>
      </trkpt>
      <trkpt lat="44.94639" lon="6.55972">
        <ele>1386</ele>
        <time>2021-12-29T06:09:59Z</time>
      </trkpt>
      <trkpt lat="44.94652" lon="6.55957">
        <ele>1386</ele>
        <time>2021-12-29T06:10:02Z</time>
      </trkpt>
      <trkpt lat="44.94679" lon="6.55936">
        <ele>1386</ele>
        <time>2021-12-29T06:10:08Z</time>
      </trkpt>
      <trkpt lat="44.94712" lon="6.55919">
        <ele>1388</ele>
        <time>2021-12-29T06:10:14Z</time>
      </trkpt>
      <trkpt lat="44.94749" lon="6.55897">
        <ele>1389</ele>
        <time>2021-12-29T06:10:21Z</time>
      </trkpt>
      <trkpt lat="44.94786" lon="6.55869">
        <ele>1390</ele>
        <time>2021-12-29T06:10:29Z</time>
      </trkpt>
      <trkpt lat="44.94804" lon="6.55852">
        <ele>1391</ele>
        <time>2021-12-29T06:10:33Z</time>
      </trkpt>
      <trkpt lat="44.9485" lon="6.55795">
        <ele>1391</ele>
        <time>2021-12-29T06:10:43Z</time>
      </trkpt>
      <trkpt lat="44.95211" lon="6.55295">
        <ele>1396</ele>
        <time>2021-12-29T06:12:13Z</time>
      </trkpt>
      <trkpt lat="44.95363" lon="6.55075">
        <ele>1398</ele>
        <time>2021-12-29T06:12:52Z</time>
      </trkpt>
      <trkpt lat="44.95405" lon="6.55003">
        <ele>1399</ele>
        <time>2021-12-29T06:13:04Z</time>
      </trkpt>
      <trkpt lat="44.95418" lon="6.54986">
        <ele>1399</ele>
        <time>2021-12-29T06:13:07Z</time>
      </trkpt>
      <trkpt lat="44.9557" lon="6.54856">
        <ele>1400</ele>
        <time>2021-12-29T06:13:39Z</time>
      </trkpt>
      <trkpt lat="44.95595" lon="6.54826">
        <ele>1401</ele>
        <time>2021-12-29T06:13:44Z</time>
      </trkpt>
      <trkpt lat="44.95739" lon="6.5459">
        <ele>1410</ele>
        <time>2021-12-29T06:14:24Z</time>
      </trkpt>
      <trkpt lat="44.95753" lon="6.54562">
        <ele>1411</ele>
        <time>2021-12-29T06:14:28Z</time>
      </trkpt>
      <trkpt lat="44.9576" lon="6.5454">
        <ele>1412</ele>
        <time>2021-12-29T06:14:31Z</time>
      </trkpt>
      <trkpt lat="44.95764" lon="6.54525">
        <ele>1411</ele>
        <time>2021-12-29T06:14:33Z</time>
      </trkpt>
      <trkpt lat="44.9581" lon="6.54259">
        <ele>1407</ele>
        <time>2021-12-29T06:15:08Z</time>
      </trkpt>
      <trkpt lat="44.95817" lon="6.54234">
        <ele>1407</ele>
        <time>2021-12-29T06:15:11Z</time>
      </trkpt>
      <trkpt lat="44.95828" lon="6.54208">
        <ele>1407</ele>
        <time>2021-12-29T06:15:15Z</time>
      </trkpt>
      <trkpt lat="44.95839" lon="6.54187">
        <ele>1408</ele>
        <time>2021-12-29T06:15:18Z</time>
      </trkpt>
      <trkpt lat="44.95858" lon="6.54161">
        <ele>1408</ele>
        <time>2021-12-29T06:15:23Z</time>
      </trkpt>
      <trkpt lat="44.96093" lon="6.53892">
        <ele>1414</ele>
        <time>2021-12-29T06:16:17Z</time>
      </trkpt>
      <trkpt lat="44.96141" lon="6.53842">
        <ele>1416</ele>
        <time>2021-12-29T06:16:27Z</time>
      </trkpt>
      <trkpt lat="44.96237" lon="6.53756">
        <ele>1418</ele>
        <time>2021-12-29T06:16:47Z</time>
      </trkpt>
      <trkpt lat="44.96285" lon="6.53719">
        <ele>1421</ele>
        <time>2021-12-29T06:16:57Z</time>
      </trkpt>
      <trkpt lat="44.96292" lon="6.53721">
        <ele>1422</ele>
        <time>2021-12-29T06:16:58Z</time>
      </trkpt>
      <trkpt lat="44.96309" lon="6.53715">
        <ele>1423</ele>
        <time>2021-12-29T06:17:01Z</time>
      </trkpt>
      <trkpt lat="44.96334" lon="6.53701">
        <ele>1424</ele>
        <time>2021-12-29T06:17:06Z</time>
      </trkpt>
      <trkpt lat="44.96347" lon="6.53701">
        <ele>1425</ele>
        <time>2021-12-29T06:17:09Z</time>
      </trkpt>
      <trkpt lat="44.96353" lon="6.5368">
        <ele>1424</ele>
        <time>2021-12-29T06:17:11Z</time>
      </trkpt>
      <trkpt lat="44.96353" lon="6.53674">
        <ele>1424</ele>
        <time>2021-12-29T06:17:12Z</time>
      </trkpt>
      <trkpt lat="44.96352" lon="6.5367">
        <ele>1423</ele>
        <time>2021-12-29T06:17:13Z</time>
      </trkpt>
      <trkpt lat="44.96418" lon="6.53621">
        <ele>1424</ele>
        <time>2021-12-29T06:17:26Z</time>
      </trkpt>
      <trkpt lat="44.96433" lon="6.53605">
        <ele>1424</ele>
        <time>2021-12-29T06:17:29Z</time>
      </trkpt>
      <trkpt lat="44.96447" lon="6.53586">
        <ele>1424</ele>
        <time>2021-12-29T06:17:33Z</time>
      </trkpt>
      <trkpt lat="44.96534" lon="6.53436">
        <ele>1426</ele>
        <time>2021-12-29T06:17:57Z</time>
      </trkpt>
      <trkpt lat="44.96598" lon="6.5333">
        <ele>1431</ele>
        <time>2021-12-29T06:18:15Z</time>
      </trkpt>
      <trkpt lat="44.96628" lon="6.53282">
        <ele>1433</ele>
        <time>2021-12-29T06:18:23Z</time>
      </trkpt>
      <trkpt lat="44.96653" lon="6.53247">
        <ele>1433</ele>
        <time>2021-12-29T06:18:29Z</time>
      </trkpt>
      <trkpt lat="44.96681" lon="6.53213">
        <ele>1434</ele>
        <time>2021-12-29T06:18:36Z</time>
      </trkpt>
      <trkpt lat="44.96735" lon="6.53155">
        <ele>1436</ele>
        <time>2021-12-29T06:18:48Z</time>
      </trkpt>
      <trkpt lat="44.96746" lon="6.53141">
        <ele>1436</ele>
        <time>2021-12-29T06:18:50Z</time>
      </trkpt>
      <trkpt lat="44.96754" lon="6.53127">
        <ele>1436</ele>
        <time>2021-12-29T06:18:53Z</time>
      </trkpt>
      <trkpt lat="44.96769" lon="6.53088">
        <ele>1436</ele>
        <time>2021-12-29T06:18:58Z</time>
      </trkpt>
      <trkpt lat="44.96775" lon="6.53066">
        <ele>1436</ele>
        <time>2021-12-29T06:19:01Z</time>
      </trkpt>
      <trkpt lat="44.96779" lon="6.53039">
        <ele>1437</ele>
        <time>2021-12-29T06:19:05Z</time>
      </trkpt>
      <trkpt lat="44.96781" lon="6.53014">
        <ele>1437</ele>
        <time>2021-12-29T06:19:08Z</time>
      </trkpt>
      <trkpt lat="44.96779" lon="6.52986">
        <ele>1437</ele>
        <time>2021-12-29T06:19:11Z</time>
      </trkpt>
      <trkpt lat="44.96772" lon="6.52916">
        <ele>1438</ele>
        <time>2021-12-29T06:19:20Z</time>
      </trkpt>
      <trkpt lat="44.96771" lon="6.52883">
        <ele>1438</ele>
        <time>2021-12-29T06:19:24Z</time>
      </trkpt>
      <trkpt lat="44.96774" lon="6.52849">
        <ele>1438</ele>
        <time>2021-12-29T06:19:29Z</time>
      </trkpt>
      <trkpt lat="44.96779" lon="6.52818">
        <ele>1439</ele>
        <time>2021-12-29T06:19:33Z</time>
      </trkpt>
      <trkpt lat="44.96819" lon="6.52676">
        <ele>1443</ele>
        <time>2021-12-29T06:19:52Z</time>
      </trkpt>
      <trkpt lat="44.96823" lon="6.52654">
        <ele>1443</ele>
        <time>2021-12-29T06:19:55Z</time>
      </trkpt>
      <trkpt lat="44.96839" lon="6.52564">
        <ele>1445</ele>
        <time>2021-12-29T06:20:06Z</time>
      </trkpt>
      <trkpt lat="44.96859" lon="6.52487">
        <ele>1446</ele>
        <time>2021-12-29T06:20:17Z</time>
      </trkpt>
      <trkpt lat="44.96877" lon="6.52434">
        <ele>1445</ele>
        <time>2021-12-29T06:20:24Z</time>
      </trkpt>
      <trkpt lat="44.96888" lon="6.52412">
        <ele>1445</ele>
        <time>2021-12-29T06:20:28Z</time>
      </trkpt>
      <trkpt lat="44.96901" lon="6.52393">
        <ele>1445</ele>
        <time>2021-12-29T06:20:31Z</time>
      </trkpt>
      <trkpt lat="44.96913" lon="6.52377">
        <ele>1445</ele>
        <time>2021-12-29T06:20:34Z</time>
      </trkpt>
      <trkpt lat="44.96945" lon="6.52355">
        <ele>1445</ele>
        <time>2021-12-29T06:20:40Z</time>
      </trkpt>
      <trkpt lat="44.97061" lon="6.52299">
        <ele>1447</ele>
        <time>2021-12-29T06:21:02Z</time>
      </trkpt>
      <trkpt lat="44.97081" lon="6.52283">
        <ele>1448</ele>
        <time>2021-12-29T06:21:06Z</time>
      </trkpt>
      <trkpt lat="44.97101" lon="6.52261">
        <ele>1447</ele>
        <time>2021-12-29T06:21:11Z</time>
      </trkpt>
      <trkpt lat="44.97112" lon="6.52241">
        <ele>1446</ele>
        <time>2021-12-29T06:21:14Z</time>
      </trkpt>
      <trkpt lat="44.97116" lon="6.52232">
        <ele>1446</ele>
        <time>2021-12-29T06:21:15Z</time>
      </trkpt>
      <trkpt lat="44.97199" lon="6.52009">
        <ele>1450</ele>
        <time>2021-12-29T06:21:47Z</time>
      </trkpt>
      <trkpt lat="44.97209" lon="6.51986">
        <ele>1451</ele>
        <time>2021-12-29T06:21:50Z</time>
      </trkpt>
      <trkpt lat="44.97227" lon="6.51947">
        <ele>1452</ele>
        <time>2021-12-29T06:21:56Z</time>
      </trkpt>
      <trkpt lat="44.97236" lon="6.51933">
        <ele>1453</ele>
        <time>2021-12-29T06:21:58Z</time>
      </trkpt>
      <trkpt lat="44.97328" lon="6.51817">
        <ele>1457</ele>
        <time>2021-12-29T06:22:20Z</time>
      </trkpt>
      <trkpt lat="44.97366" lon="6.5176">
        <ele>1458</ele>
        <time>2021-12-29T06:22:30Z</time>
      </trkpt>
      <trkpt lat="44.97382" lon="6.5174">
        <ele>1459</ele>
        <time>2021-12-29T06:22:34Z</time>
      </trkpt>
      <trkpt lat="44.97398" lon="6.51725">
        <ele>1460</ele>
        <time>2021-12-29T06:22:37Z</time>
      </trkpt>
      <trkpt lat="44.97423" lon="6.51711">
        <ele>1461</ele>
        <time>2021-12-29T06:22:42Z</time>
      </trkpt>
      <trkpt lat="44.97488" lon="6.51684">
        <ele>1465</ele>
        <time>2021-12-29T06:22:54Z</time>
      </trkpt>
      <trkpt lat="44.97504" lon="6.51671">
        <ele>1465</ele>
        <time>2021-12-29T06:22:58Z</time>
      </trkpt>
      <trkpt lat="44.97521" lon="6.51655">
        <ele>1468</ele>
        <time>2021-12-29T06:23:01Z</time>
      </trkpt>
      <trkpt lat="44.97534" lon="6.51639">
        <ele>1469</ele>
        <time>2021-12-29T06:23:04Z</time>
      </trkpt>
      <trkpt lat="44.97554" lon="6.51604">
        <ele>1471</ele>
        <time>2021-12-29T06:23:10Z</time>
      </trkpt>
      <trkpt lat="44.97611" lon="6.5144">
        <ele>1475</ele>
        <time>2021-12-29T06:23:33Z</time>
      </trkpt>
      <trkpt lat="44.9762" lon="6.51405">
        <ele>1477</ele>
        <time>2021-12-29T06:23:38Z</time>
      </trkpt>
      <trkpt lat="44.97623" lon="6.51372">
        <ele>1479</ele>
        <time>2021-12-29T06:23:42Z</time>
      </trkpt>
      <trkpt lat="44.97622" lon="6.5135">
        <ele>1480</ele>
        <time>2021-12-29T06:23:45Z</time>
      </trkpt>
      <trkpt lat="44.97617" lon="6.51316">
        <ele>1480</ele>
        <time>2021-12-29T06:23:49Z</time>
      </trkpt>
      <trkpt lat="44.97603" lon="6.51277">
        <ele>1480</ele>
        <time>2021-12-29T06:23:54Z</time>
      </trkpt>
      <trkpt lat="44.97584" lon="6.51231">
        <ele>1481</ele>
        <time>2021-12-29T06:24:01Z</time>
      </trkpt>
      <trkpt lat="44.97575" lon="6.51201">
        <ele>1482</ele>
        <time>2021-12-29T06:24:05Z</time>
      </trkpt>
      <trkpt lat="44.97574" lon="6.51175">
        <ele>1483</ele>
        <time>2021-12-29T06:24:09Z</time>
      </trkpt>
      <trkpt lat="44.97578" lon="6.5111">
        <ele>1485</ele>
        <time>2021-12-29T06:24:17Z</time>
      </trkpt>
      <trkpt lat="44.97587" lon="6.51049">
        <ele>1486</ele>
        <time>2021-12-29T06:24:25Z</time>
      </trkpt>
      <trkpt lat="44.97593" lon="6.51013">
        <ele>1487</ele>
        <time>2021-12-29T06:24:29Z</time>
      </trkpt>
      <trkpt lat="44.97598" lon="6.50956">
        <ele>1488</ele>
        <time>2021-12-29T06:24:37Z</time>
      </trkpt>
      <trkpt lat="44.9759" lon="6.50886">
        <ele>1489</ele>
        <time>2021-12-29T06:24:45Z</time>
      </trkpt>
      <trkpt lat="44.97589" lon="6.50846">
        <ele>1489</ele>
        <time>2021-12-29T06:24:50Z</time>
      </trkpt>
      <trkpt lat="44.97598" lon="6.50804">
        <ele>1491</ele>
        <time>2021-12-29T06:24:56Z</time>
      </trkpt>
      <trkpt lat="44.97604" lon="6.50787">
        <ele>1492</ele>
        <time>2021-12-29T06:24:58Z</time>
      </trkpt>
      <trkpt lat="44.97635" lon="6.50713">
        <ele>1494</ele>
        <time>2021-12-29T06:25:09Z</time>
      </trkpt>
      <trkpt lat="44.97754" lon="6.50458">
        <ele>1498</ele>
        <time>2021-12-29T06:25:48Z</time>
      </trkpt>
      <trkpt lat="44.97786" lon="6.50392">
        <ele>1501</ele>
        <time>2021-12-29T06:25:58Z</time>
      </trkpt>
      <trkpt lat="44.97803" lon="6.50352">
        <ele>1503</ele>
        <time>2021-12-29T06:26:04Z</time>
      </trkpt>
      <trkpt lat="44.97819" lon="6.50299">
        <ele>1505</ele>
        <time>2021-12-29T06:26:11Z</time>
      </trkpt>
      <trkpt lat="44.97868" lon="6.50121">
        <ele>1508</ele>
        <time>2021-12-29T06:26:35Z</time>
      </trkpt>
      <trkpt lat="44.97883" lon="6.50081">
        <ele>1509</ele>
        <time>2021-12-29T06:26:41Z</time>
      </trkpt>
      <trkpt lat="44.97905" lon="6.50036">
        <ele>1510</ele>
        <time>2021-12-29T06:26:47Z</time>
      </trkpt>
      <trkpt lat="44.97954" lon="6.49971">
        <ele>1509</ele>
        <time>2021-12-29T06:26:59Z</time>
      </trkpt>
      <trkpt lat="44.97975" lon="6.49945">
        <ele>1509</ele>
        <time>2021-12-29T06:27:04Z</time>
      </trkpt>
      <trkpt lat="44.9799" lon="6.49929">
        <ele>1508</ele>
        <time>2021-12-29T06:27:08Z</time>
      </trkpt>
      <trkpt lat="44.98005" lon="6.49918">
        <ele>1508</ele>
        <time>2021-12-29T06:27:11Z</time>
      </trkpt>
      <trkpt lat="44.98032" lon="6.49904">
        <ele>1509</ele>
        <time>2021-12-29T06:27:16Z</time>
      </trkpt>
      <trkpt lat="44.98059" lon="6.49908">
        <ele>1511</ele>
        <time>2021-12-29T06:27:21Z</time>
      </trkpt>
      <trkpt lat="44.9808" lon="6.49917">
        <ele>1513</ele>
        <time>2021-12-29T06:27:25Z</time>
      </trkpt>
      <trkpt lat="44.98143" lon="6.49941">
        <ele>1514</ele>
        <time>2021-12-29T06:27:36Z</time>
      </trkpt>
      <trkpt lat="44.9818" lon="6.49942">
        <ele>1516</ele>
        <time>2021-12-29T06:27:43Z</time>
      </trkpt>
      <trkpt lat="44.98208" lon="6.49935">
        <ele>1518</ele>
        <time>2021-12-29T06:27:48Z</time>
      </trkpt>
      <trkpt lat="44.98236" lon="6.49922">
        <ele>1520</ele>
        <time>2021-12-29T06:27:53Z</time>
      </trkpt>
      <trkpt lat="44.98291" lon="6.49881">
        <ele>1526</ele>
        <time>2021-12-29T06:28:04Z</time>
      </trkpt>
      <trkpt lat="44.9834" lon="6.49832">
        <ele>1528</ele>
        <time>2021-12-29T06:28:15Z</time>
      </trkpt>
      <trkpt lat="44.98366" lon="6.49801">
        <ele>1532</ele>
        <time>2021-12-29T06:28:21Z</time>
      </trkpt>
      <trkpt lat="44.98424" lon="6.4969">
        <ele>1527</ele>
        <time>2021-12-29T06:28:38Z</time>
      </trkpt>
      <trkpt lat="44.98484" lon="6.49588">
        <ele>1531</ele>
        <time>2021-12-29T06:28:55Z</time>
      </trkpt>
      <trkpt lat="44.98529" lon="6.49521">
        <ele>1531</ele>
        <time>2021-12-29T06:29:07Z</time>
      </trkpt>
      <trkpt lat="44.98548" lon="6.49504">
        <ele>1534</ele>
        <time>2021-12-29T06:29:11Z</time>
      </trkpt>
      <trkpt lat="44.9857" lon="6.4949">
        <ele>1538</ele>
        <time>2021-12-29T06:29:15Z</time>
      </trkpt>
      <trkpt lat="44.98588" lon="6.49467">
        <ele>1538</ele>
        <time>2021-12-29T06:29:19Z</time>
      </trkpt>
      <trkpt lat="44.98621" lon="6.49418">
        <ele>1535</ele>
        <time>2021-12-29T06:29:28Z</time>
      </trkpt>
      <trkpt lat="44.98646" lon="6.49377">
        <ele>1538</ele>
        <time>2021-12-29T06:29:35Z</time>
      </trkpt>
      <trkpt lat="44.98665" lon="6.49335">
        <ele>1536</ele>
        <time>2021-12-29T06:29:41Z</time>
      </trkpt>
      <trkpt lat="44.98677" lon="6.49299">
        <ele>1537</ele>
        <time>2021-12-29T06:29:46Z</time>
      </trkpt>
      <trkpt lat="44.98694" lon="6.49232">
        <ele>1537</ele>
        <time>2021-12-29T06:29:55Z</time>
      </trkpt>
      <trkpt lat="44.98702" lon="6.49213">
        <ele>1538</ele>
        <time>2021-12-29T06:29:58Z</time>
      </trkpt>
      <trkpt lat="44.98719" lon="6.49188">
        <ele>1539</ele>
        <time>2021-12-29T06:30:02Z</time>
      </trkpt>
      <trkpt lat="44.98748" lon="6.49151">
        <ele>1540</ele>
        <time>2021-12-29T06:30:09Z</time>
      </trkpt>
      <trkpt lat="44.98786" lon="6.49098">
        <ele>1543</ele>
        <time>2021-12-29T06:30:18Z</time>
      </trkpt>
      <trkpt lat="44.98837" lon="6.4904">
        <ele>1549</ele>
        <time>2021-12-29T06:30:30Z</time>
      </trkpt>
      <trkpt lat="44.98852" lon="6.4902">
        <ele>1550</ele>
        <time>2021-12-29T06:30:34Z</time>
      </trkpt>
      <trkpt lat="44.98861" lon="6.48992">
        <ele>1548</ele>
        <time>2021-12-29T06:30:38Z</time>
      </trkpt>
      <trkpt lat="44.98876" lon="6.48937">
        <ele>1548</ele>
        <time>2021-12-29T06:30:45Z</time>
      </trkpt>
      <trkpt lat="44.98883" lon="6.4891">
        <ele>1547</ele>
        <time>2021-12-29T06:30:49Z</time>
      </trkpt>
      <trkpt lat="44.98889" lon="6.48894">
        <ele>1547</ele>
        <time>2021-12-29T06:30:51Z</time>
      </trkpt>
      <trkpt lat="44.98958" lon="6.48758">
        <ele>1552</ele>
        <time>2021-12-29T06:31:12Z</time>
      </trkpt>
      <trkpt lat="44.9904" lon="6.48605">
        <ele>1557</ele>
        <time>2021-12-29T06:31:36Z</time>
      </trkpt>
      <trkpt lat="44.99076" lon="6.48561">
        <ele>1561</ele>
        <time>2021-12-29T06:31:45Z</time>
      </trkpt>
      <trkpt lat="44.99155" lon="6.48443">
        <ele>1562</ele>
        <time>2021-12-29T06:32:05Z</time>
      </trkpt>
      <trkpt lat="44.9917" lon="6.48407">
        <ele>1560</ele>
        <time>2021-12-29T06:32:10Z</time>
      </trkpt>
      <trkpt lat="44.99201" lon="6.48345">
        <ele>1567</ele>
        <time>2021-12-29T06:32:20Z</time>
      </trkpt>
      <trkpt lat="44.99218" lon="6.48308">
        <ele>1568</ele>
        <time>2021-12-29T06:32:25Z</time>
      </trkpt>
      <trkpt lat="44.99235" lon="6.4826">
        <ele>1564</ele>
        <time>2021-12-29T06:32:32Z</time>
      </trkpt>
      <trkpt lat="44.99252" lon="6.48225">
        <ele>1562</ele>
        <time>2021-12-29T06:32:37Z</time>
      </trkpt>
      <trkpt lat="44.99279" lon="6.48197">
        <ele>1567</ele>
        <time>2021-12-29T06:32:43Z</time>
      </trkpt>
      <trkpt lat="44.993" lon="6.48181">
        <ele>1571</ele>
        <time>2021-12-29T06:32:48Z</time>
      </trkpt>
      <trkpt lat="44.99315" lon="6.48159">
        <ele>1570</ele>
        <time>2021-12-29T06:32:52Z</time>
      </trkpt>
      <trkpt lat="44.99327" lon="6.48138">
        <ele>1568</ele>
        <time>2021-12-29T06:32:55Z</time>
      </trkpt>
      <trkpt lat="44.99345" lon="6.48122">
        <ele>1569</ele>
        <time>2021-12-29T06:32:59Z</time>
      </trkpt>
      <trkpt lat="44.99388" lon="6.48091">
        <ele>1572</ele>
        <time>2021-12-29T06:33:07Z</time>
      </trkpt>
      <trkpt lat="44.99442" lon="6.48046">
        <ele>1575</ele>
        <time>2021-12-29T06:33:18Z</time>
      </trkpt>
      <trkpt lat="44.99532" lon="6.47991">
        <ele>1579</ele>
        <time>2021-12-29T06:33:36Z</time>
      </trkpt>
      <trkpt lat="44.99557" lon="6.47969">
        <ele>1580</ele>
        <time>2021-12-29T06:33:41Z</time>
      </trkpt>
      <trkpt lat="44.99618" lon="6.47888">
        <ele>1573</ele>
        <time>2021-12-29T06:33:56Z</time>
      </trkpt>
      <trkpt lat="44.99632" lon="6.47876">
        <ele>1573</ele>
        <time>2021-12-29T06:33:59Z</time>
      </trkpt>
      <trkpt lat="44.99656" lon="6.47871">
        <ele>1576</ele>
        <time>2021-12-29T06:34:03Z</time>
      </trkpt>
      <trkpt lat="44.99701" lon="6.47863">
        <ele>1581</ele>
        <time>2021-12-29T06:34:11Z</time>
      </trkpt>
      <trkpt lat="44.99724" lon="6.47856">
        <ele>1583</ele>
        <time>2021-12-29T06:34:15Z</time>
      </trkpt>
      <trkpt lat="44.99743" lon="6.47841">
        <ele>1583</ele>
        <time>2021-12-29T06:34:19Z</time>
      </trkpt>
      <trkpt lat="44.99782" lon="6.47798">
        <ele>1583</ele>
        <time>2021-12-29T06:34:28Z</time>
      </trkpt>
      <trkpt lat="44.99796" lon="6.47791">
        <ele>1585</ele>
        <time>2021-12-29T06:34:31Z</time>
      </trkpt>
      <trkpt lat="44.99826" lon="6.47785">
        <ele>1589</ele>
        <time>2021-12-29T06:34:36Z</time>
      </trkpt>
      <trkpt lat="44.99843" lon="6.47779">
        <ele>1591</ele>
        <time>2021-12-29T06:34:39Z</time>
      </trkpt>
      <trkpt lat="44.99863" lon="6.47768">
        <ele>1591</ele>
        <time>2021-12-29T06:34:43Z</time>
      </trkpt>
      <trkpt lat="44.99935" lon="6.47708">
        <ele>1590</ele>
        <time>2021-12-29T06:34:58Z</time>
      </trkpt>
      <trkpt lat="44.99978" lon="6.47692">
        <ele>1594</ele>
        <time>2021-12-29T06:35:06Z</time>
      </trkpt>
      <trkpt lat="45.00061" lon="6.47687">
        <ele>1608</ele>
        <time>2021-12-29T06:35:21Z</time>
      </trkpt>
      <trkpt lat="45.00081" lon="6.47681">
        <ele>1609</ele>
        <time>2021-12-29T06:35:24Z</time>
      </trkpt>
      <trkpt lat="45.00099" lon="6.47671">
        <ele>1611</ele>
        <time>2021-12-29T06:35:28Z</time>
      </trkpt>
      <trkpt lat="45.00155" lon="6.47616">
        <ele>1606</ele>
        <time>2021-12-29T06:35:40Z</time>
      </trkpt>
      <trkpt lat="45.00247" lon="6.47559">
        <ele>1615</ele>
        <time>2021-12-29T06:35:58Z</time>
      </trkpt>
      <trkpt lat="45.00267" lon="6.47543">
        <ele>1618</ele>
        <time>2021-12-29T06:36:02Z</time>
      </trkpt>
      <trkpt lat="45.0032" lon="6.47474">
        <ele>1616</ele>
        <time>2021-12-29T06:36:15Z</time>
      </trkpt>
      <trkpt lat="45.00381" lon="6.47405">
        <ele>1620</ele>
        <time>2021-12-29T06:36:29Z</time>
      </trkpt>
      <trkpt lat="45.00404" lon="6.47384">
        <ele>1622</ele>
        <time>2021-12-29T06:36:33Z</time>
      </trkpt>
      <trkpt lat="45.00435" lon="6.47366">
        <ele>1626</ele>
        <time>2021-12-29T06:36:39Z</time>
      </trkpt>
      <trkpt lat="45.00455" lon="6.47349">
        <ele>1626</ele>
        <time>2021-12-29T06:36:44Z</time>
      </trkpt>
      <trkpt lat="45.00479" lon="6.47321">
        <ele>1626</ele>
        <time>2021-12-29T06:36:49Z</time>
      </trkpt>
      <trkpt lat="45.00492" lon="6.47302">
        <ele>1627</ele>
        <time>2021-12-29T06:36:52Z</time>
      </trkpt>
      <trkpt lat="45.00505" lon="6.47285">
        <ele>1627</ele>
        <time>2021-12-29T06:36:56Z</time>
      </trkpt>
      <trkpt lat="45.00523" lon="6.47267">
        <ele>1626</ele>
        <time>2021-12-29T06:36:59Z</time>
      </trkpt>
      <trkpt lat="45.00539" lon="6.47261">
        <ele>1626</ele>
        <time>2021-12-29T06:37:02Z</time>
      </trkpt>
      <trkpt lat="45.00556" lon="6.47261">
        <ele>1627</ele>
        <time>2021-12-29T06:37:05Z</time>
      </trkpt>
      <trkpt lat="45.00616" lon="6.47275">
        <ele>1635</ele>
        <time>2021-12-29T06:37:16Z</time>
      </trkpt>
      <trkpt lat="45.0064" lon="6.47272">
        <ele>1636</ele>
        <time>2021-12-29T06:37:21Z</time>
      </trkpt>
      <trkpt lat="45.00688" lon="6.47256">
        <ele>1637</ele>
        <time>2021-12-29T06:37:29Z</time>
      </trkpt>
      <trkpt lat="45.0075" lon="6.47226">
        <ele>1641</ele>
        <time>2021-12-29T06:37:41Z</time>
      </trkpt>
      <trkpt lat="45.00797" lon="6.47212">
        <ele>1647</ele>
        <time>2021-12-29T06:37:50Z</time>
      </trkpt>
      <trkpt lat="45.00814" lon="6.47204">
        <ele>1649</ele>
        <time>2021-12-29T06:37:53Z</time>
      </trkpt>
      <trkpt lat="45.0083" lon="6.47188">
        <ele>1647</ele>
        <time>2021-12-29T06:37:56Z</time>
      </trkpt>
      <trkpt lat="45.00851" lon="6.4716">
        <ele>1645</ele>
        <time>2021-12-29T06:38:01Z</time>
      </trkpt>
      <trkpt lat="45.00867" lon="6.47136">
        <ele>1644</ele>
        <time>2021-12-29T06:38:06Z</time>
      </trkpt>
      <trkpt lat="45.00892" lon="6.47113">
        <ele>1645</ele>
        <time>2021-12-29T06:38:11Z</time>
      </trkpt>
      <trkpt lat="45.00911" lon="6.47106">
        <ele>1648</ele>
        <time>2021-12-29T06:38:14Z</time>
      </trkpt>
      <trkpt lat="45.00991" lon="6.47056">
        <ele>1654</ele>
        <time>2021-12-29T06:38:30Z</time>
      </trkpt>
      <trkpt lat="45.01028" lon="6.47041">
        <ele>1659</ele>
        <time>2021-12-29T06:38:37Z</time>
      </trkpt>
      <trkpt lat="45.01123" lon="6.46975">
        <ele>1665</ele>
        <time>2021-12-29T06:38:56Z</time>
      </trkpt>
      <trkpt lat="45.01227" lon="6.46869">
        <ele>1673</ele>
        <time>2021-12-29T06:39:18Z</time>
      </trkpt>
      <trkpt lat="45.01245" lon="6.46847">
        <ele>1674</ele>
        <time>2021-12-29T06:39:23Z</time>
      </trkpt>
      <trkpt lat="45.01273" lon="6.46801">
        <ele>1674</ele>
        <time>2021-12-29T06:39:30Z</time>
      </trkpt>
      <trkpt lat="45.0129" lon="6.46783">
        <ele>1676</ele>
        <time>2021-12-29T06:39:34Z</time>
      </trkpt>
      <trkpt lat="45.01307" lon="6.4677">
        <ele>1678</ele>
        <time>2021-12-29T06:39:37Z</time>
      </trkpt>
      <trkpt lat="45.01342" lon="6.46751">
        <ele>1681</ele>
        <time>2021-12-29T06:39:44Z</time>
      </trkpt>
      <trkpt lat="45.01356" lon="6.46748">
        <ele>1682</ele>
        <time>2021-12-29T06:39:47Z</time>
      </trkpt>
      <trkpt lat="45.01392" lon="6.46744">
        <ele>1685</ele>
        <time>2021-12-29T06:39:53Z</time>
      </trkpt>
      <trkpt lat="45.01418" lon="6.46733">
        <ele>1686</ele>
        <time>2021-12-29T06:39:58Z</time>
      </trkpt>
      <trkpt lat="45.01443" lon="6.46717">
        <ele>1690</ele>
        <time>2021-12-29T06:40:03Z</time>
      </trkpt>
      <trkpt lat="45.01465" lon="6.46697">
        <ele>1691</ele>
        <time>2021-12-29T06:40:07Z</time>
      </trkpt>
      <trkpt lat="45.01483" lon="6.46671">
        <ele>1690</ele>
        <time>2021-12-29T06:40:12Z</time>
      </trkpt>
      <trkpt lat="45.01503" lon="6.46635">
        <ele>1689</ele>
        <time>2021-12-29T06:40:18Z</time>
      </trkpt>
      <trkpt lat="45.01521" lon="6.46607">
        <ele>1690</ele>
        <time>2021-12-29T06:40:23Z</time>
      </trkpt>
      <trkpt lat="45.01559" lon="6.46556">
        <ele>1691</ele>
        <time>2021-12-29T06:40:32Z</time>
      </trkpt>
      <trkpt lat="45.01569" lon="6.46545">
        <ele>1691</ele>
        <time>2021-12-29T06:40:34Z</time>
      </trkpt>
      <trkpt lat="45.0158" lon="6.46538">
        <ele>1692</ele>
        <time>2021-12-29T06:40:36Z</time>
      </trkpt>
      <trkpt lat="45.01601" lon="6.46529">
        <ele>1692</ele>
        <time>2021-12-29T06:40:40Z</time>
      </trkpt>
      <trkpt lat="45.01612" lon="6.46527">
        <ele>1692</ele>
        <time>2021-12-29T06:40:42Z</time>
      </trkpt>
      <trkpt lat="45.01632" lon="6.46528">
        <ele>1694</ele>
        <time>2021-12-29T06:40:46Z</time>
      </trkpt>
      <trkpt lat="45.01656" lon="6.46537">
        <ele>1699</ele>
        <time>2021-12-29T06:40:50Z</time>
      </trkpt>
      <trkpt lat="45.01693" lon="6.46557">
        <ele>1704</ele>
        <time>2021-12-29T06:40:57Z</time>
      </trkpt>
      <trkpt lat="45.01722" lon="6.46566">
        <ele>1705</ele>
        <time>2021-12-29T06:41:02Z</time>
      </trkpt>
      <trkpt lat="45.01786" lon="6.46608">
        <ele>1714</ele>
        <time>2021-12-29T06:41:15Z</time>
      </trkpt>
      <trkpt lat="45.01793" lon="6.46609">
        <ele>1715</ele>
        <time>2021-12-29T06:41:16Z</time>
      </trkpt>
      <trkpt lat="45.018" lon="6.46607">
        <ele>1714</ele>
        <time>2021-12-29T06:41:18Z</time>
      </trkpt>
      <trkpt lat="45.0181" lon="6.466">
        <ele>1713</ele>
        <time>2021-12-29T06:41:19Z</time>
      </trkpt>
      <trkpt lat="45.01834" lon="6.46577">
        <ele>1712</ele>
        <time>2021-12-29T06:41:25Z</time>
      </trkpt>
      <trkpt lat="45.01848" lon="6.4656">
        <ele>1716</ele>
        <time>2021-12-29T06:41:28Z</time>
      </trkpt>
      <trkpt lat="45.01854" lon="6.46549">
        <ele>1717</ele>
        <time>2021-12-29T06:41:30Z</time>
      </trkpt>
      <trkpt lat="45.01859" lon="6.46528">
        <ele>1718</ele>
        <time>2021-12-29T06:41:32Z</time>
      </trkpt>
      <trkpt lat="45.01864" lon="6.46466">
        <ele>1715</ele>
        <time>2021-12-29T06:41:40Z</time>
      </trkpt>
      <trkpt lat="45.01875" lon="6.46435">
        <ele>1716</ele>
        <time>2021-12-29T06:41:45Z</time>
      </trkpt>
      <trkpt lat="45.01895" lon="6.464">
        <ele>1718</ele>
        <time>2021-12-29T06:41:50Z</time>
      </trkpt>
      <trkpt lat="45.01913" lon="6.46377">
        <ele>1719</ele>
        <time>2021-12-29T06:41:55Z</time>
      </trkpt>
      <trkpt lat="45.01969" lon="6.4632">
        <ele>1726</ele>
        <time>2021-12-29T06:42:07Z</time>
      </trkpt>
      <trkpt lat="45.01983" lon="6.463">
        <ele>1728</ele>
        <time>2021-12-29T06:42:10Z</time>
      </trkpt>
      <trkpt lat="45.01994" lon="6.46278">
        <ele>1729</ele>
        <time>2021-12-29T06:42:14Z</time>
      </trkpt>
      <trkpt lat="45.02016" lon="6.46226">
        <ele>1733</ele>
        <time>2021-12-29T06:42:21Z</time>
      </trkpt>
      <trkpt lat="45.02025" lon="6.46201">
        <ele>1735</ele>
        <time>2021-12-29T06:42:25Z</time>
      </trkpt>
      <trkpt lat="45.02045" lon="6.46112">
        <ele>1738</ele>
        <time>2021-12-29T06:42:37Z</time>
      </trkpt>
      <trkpt lat="45.02104" lon="6.45949">
        <ele>1740</ele>
        <time>2021-12-29T06:43:00Z</time>
      </trkpt>
      <trkpt lat="45.02133" lon="6.45898">
        <ele>1743</ele>
        <time>2021-12-29T06:43:08Z</time>
      </trkpt>
      <trkpt lat="45.02163" lon="6.4584">
        <ele>1746</ele>
        <time>2021-12-29T06:43:17Z</time>
      </trkpt>
      <trkpt lat="45.0221" lon="6.45734">
        <ele>1751</ele>
        <time>2021-12-29T06:43:33Z</time>
      </trkpt>
      <trkpt lat="45.02229" lon="6.45702">
        <ele>1752</ele>
        <time>2021-12-29T06:43:38Z</time>
      </trkpt>
      <trkpt lat="45.0225" lon="6.45675">
        <ele>1752</ele>
        <time>2021-12-29T06:43:43Z</time>
      </trkpt>
      <trkpt lat="45.02271" lon="6.45651">
        <ele>1755</ele>
        <time>2021-12-29T06:43:48Z</time>
      </trkpt>
      <trkpt lat="45.02296" lon="6.4563">
        <ele>1759</ele>
        <time>2021-12-29T06:43:53Z</time>
      </trkpt>
      <trkpt lat="45.02316" lon="6.45609">
        <ele>1760</ele>
        <time>2021-12-29T06:43:58Z</time>
      </trkpt>
      <trkpt lat="45.02334" lon="6.45579">
        <ele>1758</ele>
        <time>2021-12-29T06:44:02Z</time>
      </trkpt>
      <trkpt lat="45.02428" lon="6.4544">
        <ele>1772</ele>
        <time>2021-12-29T06:44:27Z</time>
      </trkpt>
      <trkpt lat="45.02448" lon="6.45391">
        <ele>1771</ele>
        <time>2021-12-29T06:44:34Z</time>
      </trkpt>
      <trkpt lat="45.02481" lon="6.45322">
        <ele>1775</ele>
        <time>2021-12-29T06:44:44Z</time>
      </trkpt>
      <trkpt lat="45.02495" lon="6.45284">
        <ele>1777</ele>
        <time>2021-12-29T06:44:50Z</time>
      </trkpt>
      <trkpt lat="45.02512" lon="6.45225">
        <ele>1778</ele>
        <time>2021-12-29T06:44:58Z</time>
      </trkpt>
      <trkpt lat="45.02536" lon="6.45163">
        <ele>1780</ele>
        <time>2021-12-29T06:45:07Z</time>
      </trkpt>
      <trkpt lat="45.02596" lon="6.45046">
        <ele>1784</ele>
        <time>2021-12-29T06:45:25Z</time>
      </trkpt>
      <trkpt lat="45.02639" lon="6.44977">
        <ele>1788</ele>
        <time>2021-12-29T06:45:36Z</time>
      </trkpt>
      <trkpt lat="45.02648" lon="6.44961">
        <ele>1789</ele>
        <time>2021-12-29T06:45:39Z</time>
      </trkpt>
      <trkpt lat="45.02756" lon="6.44811">
        <ele>1795</ele>
        <time>2021-12-29T06:46:06Z</time>
      </trkpt>
      <trkpt lat="45.02784" lon="6.44782">
        <ele>1798</ele>
        <time>2021-12-29T06:46:12Z</time>
      </trkpt>
      <trkpt lat="45.02833" lon="6.4474">
        <ele>1804</ele>
        <time>2021-12-29T06:46:22Z</time>
      </trkpt>
      <trkpt lat="45.02871" lon="6.44696">
        <ele>1811</ele>
        <time>2021-12-29T06:46:31Z</time>
      </trkpt>
      <trkpt lat="45.0292" lon="6.44581">
        <ele>1812</ele>
        <time>2021-12-29T06:46:48Z</time>
      </trkpt>
      <trkpt lat="45.02929" lon="6.44566">
        <ele>1813</ele>
        <time>2021-12-29T06:46:50Z</time>
      </trkpt>
      <trkpt lat="45.02955" lon="6.44528">
        <ele>1814</ele>
        <time>2021-12-29T06:46:57Z</time>
      </trkpt>
      <trkpt lat="45.03007" lon="6.44458">
        <ele>1820</ele>
        <time>2021-12-29T06:47:10Z</time>
      </trkpt>
      <trkpt lat="45.03025" lon="6.4443">
        <ele>1824</ele>
        <time>2021-12-29T06:47:14Z</time>
      </trkpt>
      <trkpt lat="45.03084" lon="6.44276">
        <ele>1828</ele>
        <time>2021-12-29T06:47:36Z</time>
      </trkpt>
      <trkpt lat="45.0311" lon="6.44219">
        <ele>1833</ele>
        <time>2021-12-29T06:47:45Z</time>
      </trkpt>
      <trkpt lat="45.03141" lon="6.44163">
        <ele>1838</ele>
        <time>2021-12-29T06:47:54Z</time>
      </trkpt>
      <trkpt lat="45.03182" lon="6.441">
        <ele>1841</ele>
        <time>2021-12-29T06:48:05Z</time>
      </trkpt>
      <trkpt lat="45.03301" lon="6.43959">
        <ele>1845</ele>
        <time>2021-12-29T06:48:32Z</time>
      </trkpt>
      <trkpt lat="45.03357" lon="6.43897">
        <ele>1848</ele>
        <time>2021-12-29T06:48:45Z</time>
      </trkpt>
      <trkpt lat="45.03413" lon="6.4384">
        <ele>1852</ele>
        <time>2021-12-29T06:48:57Z</time>
      </trkpt>
      <trkpt lat="45.03551" lon="6.43715">
        <ele>1866</ele>
        <time>2021-12-29T06:49:26Z</time>
      </trkpt>
      <trkpt lat="45.03581" lon="6.43678">
        <ele>1867</ele>
        <time>2021-12-29T06:49:33Z</time>
      </trkpt>
      <trkpt lat="45.03605" lon="6.43638">
        <ele>1868</ele>
        <time>2021-12-29T06:49:40Z</time>
      </trkpt>
      <trkpt lat="45.0365" lon="6.43552">
        <ele>1871</ele>
        <time>2021-12-29T06:49:54Z</time>
      </trkpt>
      <trkpt lat="45.03672" lon="6.43519">
        <ele>1872</ele>
        <time>2021-12-29T06:49:59Z</time>
      </trkpt>
      <trkpt lat="45.03708" lon="6.43471">
        <ele>1874</ele>
        <time>2021-12-29T06:50:08Z</time>
      </trkpt>
      <trkpt lat="45.03764" lon="6.43415">
        <ele>1878</ele>
        <time>2021-12-29T06:50:20Z</time>
      </trkpt>
      <trkpt lat="45.038" lon="6.43364">
        <ele>1882</ele>
        <time>2021-12-29T06:50:29Z</time>
      </trkpt>
      <trkpt lat="45.03885" lon="6.43275">
        <ele>1891</ele>
        <time>2021-12-29T06:50:48Z</time>
      </trkpt>
      <trkpt lat="45.03908" lon="6.43248">
        <ele>1893</ele>
        <time>2021-12-29T06:50:53Z</time>
      </trkpt>
      <trkpt lat="45.03918" lon="6.43235">
        <ele>1894</ele>
        <time>2021-12-29T06:50:56Z</time>
      </trkpt>
      <trkpt lat="45.03925" lon="6.43221">
        <ele>1896</ele>
        <time>2021-12-29T06:50:58Z</time>
      </trkpt>
      <trkpt lat="45.03939" lon="6.43193">
        <ele>1898</ele>
        <time>2021-12-29T06:51:02Z</time>
      </trkpt>
      <trkpt lat="45.0395" lon="6.43165">
        <ele>1901</ele>
        <time>2021-12-29T06:51:06Z</time>
      </trkpt>
      <trkpt lat="45.0397" lon="6.43096">
        <ele>1902</ele>
        <time>2021-12-29T06:51:16Z</time>
      </trkpt>
      <trkpt lat="45.03987" lon="6.42997">
        <ele>1901</ele>
        <time>2021-12-29T06:51:29Z</time>
      </trkpt>
      <trkpt lat="45.03996" lon="6.42958">
        <ele>1902</ele>
        <time>2021-12-29T06:51:34Z</time>
      </trkpt>
      <trkpt lat="45.04003" lon="6.42933">
        <ele>1903</ele>
        <time>2021-12-29T06:51:37Z</time>
      </trkpt>
      <trkpt lat="45.04024" lon="6.42876">
        <ele>1904</ele>
        <time>2021-12-29T06:51:45Z</time>
      </trkpt>
      <trkpt lat="45.04054" lon="6.42816">
        <ele>1906</ele>
        <time>2021-12-29T06:51:54Z</time>
      </trkpt>
      <trkpt lat="45.04066" lon="6.428">
        <ele>1907</ele>
        <time>2021-12-29T06:51:57Z</time>
      </trkpt>
      <trkpt lat="45.04095" lon="6.42768">
        <ele>1911</ele>
        <time>2021-12-29T06:52:04Z</time>
      </trkpt>
      <trkpt lat="45.04116" lon="6.42749">
        <ele>1913</ele>
        <time>2021-12-29T06:52:08Z</time>
      </trkpt>
      <trkpt lat="45.04142" lon="6.4273">
        <ele>1917</ele>
        <time>2021-12-29T06:52:14Z</time>
      </trkpt>
      <trkpt lat="45.04162" lon="6.42722">
        <ele>1921</ele>
        <time>2021-12-29T06:52:17Z</time>
      </trkpt>
      <trkpt lat="45.04175" lon="6.42713">
        <ele>1922</ele>
        <time>2021-12-29T06:52:20Z</time>
      </trkpt>
      <trkpt lat="45.04235" lon="6.4266">
        <ele>1924</ele>
        <time>2021-12-29T06:52:32Z</time>
      </trkpt>
      <trkpt lat="45.04252" lon="6.42637">
        <ele>1927</ele>
        <time>2021-12-29T06:52:37Z</time>
      </trkpt>
      <trkpt lat="45.04261" lon="6.42623">
        <ele>1929</ele>
        <time>2021-12-29T06:52:39Z</time>
      </trkpt>
      <trkpt lat="45.04271" lon="6.42593">
        <ele>1930</ele>
        <time>2021-12-29T06:52:43Z</time>
      </trkpt>
      <trkpt lat="45.04278" lon="6.4255">
        <ele>1930</ele>
        <time>2021-12-29T06:52:49Z</time>
      </trkpt>
      <trkpt lat="45.04283" lon="6.42529">
        <ele>1930</ele>
        <time>2021-12-29T06:52:51Z</time>
      </trkpt>
      <trkpt lat="45.04293" lon="6.42449">
        <ele>1931</ele>
        <time>2021-12-29T06:53:02Z</time>
      </trkpt>
      <trkpt lat="45.04307" lon="6.4238">
        <ele>1938</ele>
        <time>2021-12-29T06:53:11Z</time>
      </trkpt>
      <trkpt lat="45.04308" lon="6.42278">
        <ele>1946</ele>
        <time>2021-12-29T06:53:23Z</time>
      </trkpt>
      <trkpt lat="45.0431" lon="6.42213">
        <ele>1954</ele>
        <time>2021-12-29T06:53:32Z</time>
      </trkpt>
      <trkpt lat="45.04307" lon="6.4219">
        <ele>1956</ele>
        <time>2021-12-29T06:53:35Z</time>
      </trkpt>
      <trkpt lat="45.04305" lon="6.42179">
        <ele>1958</ele>
        <time>2021-12-29T06:53:36Z</time>
      </trkpt>
      <trkpt lat="45.04301" lon="6.42171">
        <ele>1958</ele>
        <time>2021-12-29T06:53:37Z</time>
      </trkpt>
      <trkpt lat="45.04295" lon="6.42164">
        <ele>1958</ele>
        <time>2021-12-29T06:53:39Z</time>
      </trkpt>
      <trkpt lat="45.04286" lon="6.42157">
        <ele>1958</ele>
        <time>2021-12-29T06:53:40Z</time>
      </trkpt>
      <trkpt lat="45.04277" lon="6.42154">
        <ele>1957</ele>
        <time>2021-12-29T06:53:42Z</time>
      </trkpt>
      <trkpt lat="45.04265" lon="6.42156">
        <ele>1956</ele>
        <time>2021-12-29T06:53:44Z</time>
      </trkpt>
      <trkpt lat="45.04257" lon="6.4216">
        <ele>1954</ele>
        <time>2021-12-29T06:53:46Z</time>
      </trkpt>
      <trkpt lat="45.04229" lon="6.42188">
        <ele>1946</ele>
        <time>2021-12-29T06:53:52Z</time>
      </trkpt>
      <trkpt lat="45.0421" lon="6.42201">
        <ele>1943</ele>
        <time>2021-12-29T06:53:56Z</time>
      </trkpt>
      <trkpt lat="45.04199" lon="6.42203">
        <ele>1942</ele>
        <time>2021-12-29T06:53:58Z</time>
      </trkpt>
      <trkpt lat="45.04189" lon="6.422">
        <ele>1942</ele>
        <time>2021-12-29T06:53:59Z</time>
      </trkpt>
      <trkpt lat="45.04178" lon="6.4219">
        <ele>1944</ele>
        <time>2021-12-29T06:54:02Z</time>
      </trkpt>
      <trkpt lat="45.04169" lon="6.4217">
        <ele>1948</ele>
        <time>2021-12-29T06:54:05Z</time>
      </trkpt>
      <trkpt lat="45.04156" lon="6.4212">
        <ele>1954</ele>
        <time>2021-12-29T06:54:11Z</time>
      </trkpt>
      <trkpt lat="45.04149" lon="6.42071">
        <ele>1959</ele>
        <time>2021-12-29T06:54:18Z</time>
      </trkpt>
      <trkpt lat="45.04149" lon="6.4199">
        <ele>1964</ele>
        <time>2021-12-29T06:54:28Z</time>
      </trkpt>
      <trkpt lat="45.04152" lon="6.41942">
        <ele>1967</ele>
        <time>2021-12-29T06:54:34Z</time>
      </trkpt>
      <trkpt lat="45.04156" lon="6.41901">
        <ele>1967</ele>
        <time>2021-12-29T06:54:39Z</time>
      </trkpt>
      <trkpt lat="45.04162" lon="6.41874">
        <ele>1966</ele>
        <time>2021-12-29T06:54:43Z</time>
      </trkpt>
      <trkpt lat="45.04174" lon="6.41842">
        <ele>1966</ele>
        <time>2021-12-29T06:54:47Z</time>
      </trkpt>
      <trkpt lat="45.04192" lon="6.41809">
        <ele>1966</ele>
        <time>2021-12-29T06:54:53Z</time>
      </trkpt>
      <trkpt lat="45.04203" lon="6.41796">
        <ele>1967</ele>
        <time>2021-12-29T06:54:55Z</time>
      </trkpt>
      <trkpt lat="45.04256" lon="6.41744">
        <ele>1973</ele>
        <time>2021-12-29T06:55:07Z</time>
      </trkpt>
      <trkpt lat="45.04267" lon="6.4173">
        <ele>1974</ele>
        <time>2021-12-29T06:55:09Z</time>
      </trkpt>
      <trkpt lat="45.04277" lon="6.41714">
        <ele>1976</ele>
        <time>2021-12-29T06:55:12Z</time>
      </trkpt>
      <trkpt lat="45.0428" lon="6.41706">
        <ele>1976</ele>
        <time>2021-12-29T06:55:13Z</time>
      </trkpt>
      <trkpt lat="45.04283" lon="6.41693">
        <ele>1976</ele>
        <time>2021-12-29T06:55:15Z</time>
      </trkpt>
      <trkpt lat="45.04282" lon="6.41671">
        <ele>1975</ele>
        <time>2021-12-29T06:55:18Z</time>
      </trkpt>
      <trkpt lat="45.04276" lon="6.41647">
        <ele>1974</ele>
        <time>2021-12-29T06:55:21Z</time>
      </trkpt>
      <trkpt lat="45.04268" lon="6.41628">
        <ele>1973</ele>
        <time>2021-12-29T06:55:23Z</time>
      </trkpt>
      <trkpt lat="45.04236" lon="6.41553">
        <ele>1974</ele>
        <time>2021-12-29T06:55:34Z</time>
      </trkpt>
      <trkpt lat="45.04206" lon="6.41501">
        <ele>1982</ele>
        <time>2021-12-29T06:55:43Z</time>
      </trkpt>
      <trkpt lat="45.04184" lon="6.41472">
        <ele>1987</ele>
        <time>2021-12-29T06:55:48Z</time>
      </trkpt>
      <trkpt lat="45.04166" lon="6.4145">
        <ele>1990</ele>
        <time>2021-12-29T06:55:53Z</time>
      </trkpt>
      <trkpt lat="45.04148" lon="6.41432">
        <ele>1991</ele>
        <time>2021-12-29T06:55:56Z</time>
      </trkpt>
      <trkpt lat="45.04118" lon="6.41408">
        <ele>1993</ele>
        <time>2021-12-29T06:56:03Z</time>
      </trkpt>
      <trkpt lat="45.04048" lon="6.41359">
        <ele>1998</ele>
        <time>2021-12-29T06:56:16Z</time>
      </trkpt>
      <trkpt lat="45.04014" lon="6.41325">
        <ele>2001</ele>
        <time>2021-12-29T06:56:24Z</time>
      </trkpt>
      <trkpt lat="45.03988" lon="6.4129">
        <ele>2002</ele>
        <time>2021-12-29T06:56:30Z</time>
      </trkpt>
      <trkpt lat="45.03939" lon="6.41217">
        <ele>2002</ele>
        <time>2021-12-29T06:56:43Z</time>
      </trkpt>
      <trkpt lat="45.03919" lon="6.41182">
        <ele>2004</ele>
        <time>2021-12-29T06:56:49Z</time>
      </trkpt>
      <trkpt lat="45.03903" lon="6.41153">
        <ele>2004</ele>
        <time>2021-12-29T06:56:53Z</time>
      </trkpt>
      <trkpt lat="45.03876" lon="6.41091">
        <ele>2006</ele>
        <time>2021-12-29T06:57:02Z</time>
      </trkpt>
      <trkpt lat="45.03861" lon="6.41046">
        <ele>2007</ele>
        <time>2021-12-29T06:57:09Z</time>
      </trkpt>
      <trkpt lat="45.03851" lon="6.40997">
        <ele>2010</ele>
        <time>2021-12-29T06:57:15Z</time>
      </trkpt>
      <trkpt lat="45.03849" lon="6.40961">
        <ele>2012</ele>
        <time>2021-12-29T06:57:20Z</time>
      </trkpt>
      <trkpt lat="45.03853" lon="6.40925">
        <ele>2015</ele>
        <time>2021-12-29T06:57:24Z</time>
      </trkpt>
      <trkpt lat="45.03861" lon="6.40896">
        <ele>2017</ele>
        <time>2021-12-29T06:57:28Z</time>
      </trkpt>
      <trkpt lat="45.03913" lon="6.40772">
        <ele>2019</ele>
        <time>2021-12-29T06:57:46Z</time>
      </trkpt>
      <trkpt lat="45.03946" lon="6.40687">
        <ele>2025</ele>
        <time>2021-12-29T06:57:58Z</time>
      </trkpt>
      <trkpt lat="45.03957" lon="6.40649">
        <ele>2027</ele>
        <time>2021-12-29T06:58:04Z</time>
      </trkpt>
      <trkpt lat="45.03961" lon="6.40623">
        <ele>2028</ele>
        <time>2021-12-29T06:58:07Z</time>
      </trkpt>
      <trkpt lat="45.03961" lon="6.40611">
        <ele>2029</ele>
        <time>2021-12-29T06:58:08Z</time>
      </trkpt>
      <trkpt lat="45.0396" lon="6.40587">
        <ele>2029</ele>
        <time>2021-12-29T06:58:11Z</time>
      </trkpt>
      <trkpt lat="45.03958" lon="6.40573">
        <ele>2029</ele>
        <time>2021-12-29T06:58:13Z</time>
      </trkpt>
      <trkpt lat="45.03948" lon="6.40543">
        <ele>2029</ele>
        <time>2021-12-29T06:58:17Z</time>
      </trkpt>
      <trkpt lat="45.03933" lon="6.40517">
        <ele>2029</ele>
        <time>2021-12-29T06:58:22Z</time>
      </trkpt>
      <trkpt lat="45.03911" lon="6.40494">
        <ele>2029</ele>
        <time>2021-12-29T06:58:26Z</time>
      </trkpt>
      <trkpt lat="45.03849" lon="6.40445">
        <ele>2036</ele>
        <time>2021-12-29T06:58:39Z</time>
      </trkpt>
      <trkpt lat="45.03824" lon="6.40433">
        <ele>2039</ele>
        <time>2021-12-29T06:58:44Z</time>
      </trkpt>
      <trkpt lat="45.03801" lon="6.4043">
        <ele>2041</ele>
        <time>2021-12-29T06:58:48Z</time>
      </trkpt>
      <trkpt lat="45.03779" lon="6.40436">
        <ele>2042</ele>
        <time>2021-12-29T06:58:52Z</time>
      </trkpt>
      <trkpt lat="45.03757" lon="6.40451">
        <ele>2042</ele>
        <time>2021-12-29T06:58:56Z</time>
      </trkpt>
      <trkpt lat="45.03744" lon="6.40464">
        <ele>2042</ele>
        <time>2021-12-29T06:58:59Z</time>
      </trkpt>
      <trkpt lat="45.0373" lon="6.40488">
        <ele>2042</ele>
        <time>2021-12-29T06:59:03Z</time>
      </trkpt>
      <trkpt lat="45.03707" lon="6.40554">
        <ele>2041</ele>
        <time>2021-12-29T06:59:12Z</time>
      </trkpt>
      <trkpt lat="45.03697" lon="6.40575">
        <ele>2042</ele>
        <time>2021-12-29T06:59:15Z</time>
      </trkpt>
      <trkpt lat="45.03686" lon="6.40589">
        <ele>2043</ele>
        <time>2021-12-29T06:59:18Z</time>
      </trkpt>
      <trkpt lat="45.03669" lon="6.40602">
        <ele>2045</ele>
        <time>2021-12-29T06:59:22Z</time>
      </trkpt>
      <trkpt lat="45.0365" lon="6.40608">
        <ele>2048</ele>
        <time>2021-12-29T06:59:25Z</time>
      </trkpt>
      <trkpt lat="45.03627" lon="6.40606">
        <ele>2051</ele>
        <time>2021-12-29T06:59:29Z</time>
      </trkpt>
      <trkpt lat="45.03608" lon="6.40595">
        <ele>2054</ele>
        <time>2021-12-29T06:59:33Z</time>
      </trkpt>
      <trkpt lat="45.03593" lon="6.40578">
        <ele>2057</ele>
        <time>2021-12-29T06:59:36Z</time>
      </trkpt>
      <trkpt lat="45.03563" lon="6.40538">
        <ele>2059</ele>
        <time>2021-12-29T06:59:43Z</time>
      </trkpt>
      <trkpt lat="45.03537" lon="6.40517">
        <ele>2060</ele>
        <time>2021-12-29T06:59:49Z</time>
      </trkpt>
      <trkpt lat="45.03505" lon="6.40506">
        <ele>2061</ele>
        <time>2021-12-29T06:59:55Z</time>
      </trkpt>
      <trkpt lat="45.03473" lon="6.40502">
        <ele>2058</ele>
        <time>2021-12-29T07:00:00Z</time>
      </trkpt>
      <trkpt lat="45.03457" lon="6.40506">
        <ele>2056</ele>
        <time>2021-12-29T07:00:03Z</time>
      </trkpt>
      <trkpt lat="45.03426" lon="6.40523">
        <ele>2054</ele>
        <time>2021-12-29T07:00:09Z</time>
      </trkpt>
      <trkpt lat="45.03402" lon="6.40532">
        <ele>2052</ele>
        <time>2021-12-29T07:00:14Z</time>
      </trkpt>
      <trkpt lat="45.03384" lon="6.40531">
        <ele>2051</ele>
        <time>2021-12-29T07:00:17Z</time>
      </trkpt>
      <trkpt lat="45.03365" lon="6.4052">
        <ele>2049</ele>
        <time>2021-12-29T07:00:20Z</time>
      </trkpt>
      <trkpt lat="45.03348" lon="6.40502">
        <ele>2047</ele>
        <time>2021-12-29T07:00:24Z</time>
      </trkpt>
      <trkpt lat="45.03341" lon="6.40489">
        <ele>2046</ele>
        <time>2021-12-29T07:00:26Z</time>
      </trkpt>
      <trkpt lat="45.03335" lon="6.40473">
        <ele>2044</ele>
        <time>2021-12-29T07:00:29Z</time>
      </trkpt>
      <trkpt lat="45.03331" lon="6.4045">
        <ele>2044</ele>
        <time>2021-12-29T07:00:32Z</time>
      </trkpt>
      <trkpt lat="45.03331" lon="6.40421">
        <ele>2042</ele>
        <time>2021-12-29T07:00:35Z</time>
      </trkpt>
      <trkpt lat="45.03333" lon="6.40403">
        <ele>2040</ele>
        <time>2021-12-29T07:00:37Z</time>
      </trkpt>
      <trkpt lat="45.03372" lon="6.40193">
        <ele>2032</ele>
        <time>2021-12-29T07:01:05Z</time>
      </trkpt>
      <trkpt lat="45.03378" lon="6.40143">
        <ele>2030</ele>
        <time>2021-12-29T07:01:11Z</time>
      </trkpt>
      <trkpt lat="45.0338" lon="6.40088">
        <ele>2028</ele>
        <time>2021-12-29T07:01:18Z</time>
      </trkpt>
      <trkpt lat="45.03378" lon="6.40044">
        <ele>2026</ele>
        <time>2021-12-29T07:01:24Z</time>
      </trkpt>
      <trkpt lat="45.0337" lon="6.39973">
        <ele>2021</ele>
        <time>2021-12-29T07:01:33Z</time>
      </trkpt>
      <trkpt lat="45.03361" lon="6.39931">
        <ele>2018</ele>
        <time>2021-12-29T07:01:38Z</time>
      </trkpt>
      <trkpt lat="45.03352" lon="6.39896">
        <ele>2017</ele>
        <time>2021-12-29T07:01:43Z</time>
      </trkpt>
      <trkpt lat="45.03311" lon="6.39748">
        <ele>2016</ele>
        <time>2021-12-29T07:02:03Z</time>
      </trkpt>
      <trkpt lat="45.03304" lon="6.39713">
        <ele>2015</ele>
        <time>2021-12-29T07:02:07Z</time>
      </trkpt>
      <trkpt lat="45.03294" lon="6.39638">
        <ele>2014</ele>
        <time>2021-12-29T07:02:17Z</time>
      </trkpt>
      <trkpt lat="45.03286" lon="6.39557">
        <ele>2013</ele>
        <time>2021-12-29T07:02:27Z</time>
      </trkpt>
      <trkpt lat="45.03282" lon="6.39513">
        <ele>2012</ele>
        <time>2021-12-29T07:02:33Z</time>
      </trkpt>
      <trkpt lat="45.03283" lon="6.39479">
        <ele>2012</ele>
        <time>2021-12-29T07:02:37Z</time>
      </trkpt>
      <trkpt lat="45.03294" lon="6.39366">
        <ele>2016</ele>
        <time>2021-12-29T07:02:52Z</time>
      </trkpt>
      <trkpt lat="45.03296" lon="6.39332">
        <ele>2017</ele>
        <time>2021-12-29T07:02:56Z</time>
      </trkpt>
      <trkpt lat="45.03295" lon="6.393">
        <ele>2017</ele>
        <time>2021-12-29T07:03:00Z</time>
      </trkpt>
      <trkpt lat="45.03291" lon="6.39268">
        <ele>2016</ele>
        <time>2021-12-29T07:03:04Z</time>
      </trkpt>
      <trkpt lat="45.03255" lon="6.39105">
        <ele>2008</ele>
        <time>2021-12-29T07:03:25Z</time>
      </trkpt>
      <trkpt lat="45.03251" lon="6.39069">
        <ele>2005</ele>
        <time>2021-12-29T07:03:30Z</time>
      </trkpt>
      <trkpt lat="45.03251" lon="6.39038">
        <ele>2003</ele>
        <time>2021-12-29T07:03:34Z</time>
      </trkpt>
      <trkpt lat="45.03253" lon="6.39009">
        <ele>2002</ele>
        <time>2021-12-29T07:03:38Z</time>
      </trkpt>
      <trkpt lat="45.03256" lon="6.38978">
        <ele>2001</ele>
        <time>2021-12-29T07:03:41Z</time>
      </trkpt>
      <trkpt lat="45.03284" lon="6.38793">
        <ele>1997</ele>
        <time>2021-12-29T07:04:05Z</time>
      </trkpt>
      <trkpt lat="45.03338" lon="6.38581">
        <ele>1987</ele>
        <time>2021-12-29T07:04:34Z</time>
      </trkpt>
      <trkpt lat="45.03344" lon="6.38548">
        <ele>1988</ele>
        <time>2021-12-29T07:04:38Z</time>
      </trkpt>
      <trkpt lat="45.03343" lon="6.38516">
        <ele>1986</ele>
        <time>2021-12-29T07:04:42Z</time>
      </trkpt>
      <trkpt lat="45.03341" lon="6.385">
        <ele>1985</ele>
        <time>2021-12-29T07:04:44Z</time>
      </trkpt>
      <trkpt lat="45.03334" lon="6.38468">
        <ele>1984</ele>
        <time>2021-12-29T07:04:48Z</time>
      </trkpt>
      <trkpt lat="45.0332" lon="6.38414">
        <ele>1982</ele>
        <time>2021-12-29T07:04:55Z</time>
      </trkpt>
      <trkpt lat="45.03313" lon="6.38398">
        <ele>1982</ele>
        <time>2021-12-29T07:04:58Z</time>
      </trkpt>
      <trkpt lat="45.03306" lon="6.38387">
        <ele>1981</ele>
        <time>2021-12-29T07:05:00Z</time>
      </trkpt>
      <trkpt lat="45.03293" lon="6.38375">
        <ele>1979</ele>
        <time>2021-12-29T07:05:02Z</time>
      </trkpt>
      <trkpt lat="45.0324" lon="6.38347">
        <ele>1969</ele>
        <time>2021-12-29T07:05:12Z</time>
      </trkpt>
      <trkpt lat="45.03226" lon="6.38334">
        <ele>1965</ele>
        <time>2021-12-29T07:05:15Z</time>
      </trkpt>
      <trkpt lat="45.03215" lon="6.3832">
        <ele>1963</ele>
        <time>2021-12-29T07:05:18Z</time>
      </trkpt>
      <trkpt lat="45.03205" lon="6.38297">
        <ele>1960</ele>
        <time>2021-12-29T07:05:21Z</time>
      </trkpt>
      <trkpt lat="45.03199" lon="6.38277">
        <ele>1959</ele>
        <time>2021-12-29T07:05:24Z</time>
      </trkpt>
      <trkpt lat="45.03198" lon="6.38261">
        <ele>1959</ele>
        <time>2021-12-29T07:05:26Z</time>
      </trkpt>
      <trkpt lat="45.032" lon="6.38216">
        <ele>1959</ele>
        <time>2021-12-29T07:05:32Z</time>
      </trkpt>
      <trkpt lat="45.03209" lon="6.3814">
        <ele>1957</ele>
        <time>2021-12-29T07:05:42Z</time>
      </trkpt>
      <trkpt lat="45.03224" lon="6.38052">
        <ele>1954</ele>
        <time>2021-12-29T07:05:53Z</time>
      </trkpt>
      <trkpt lat="45.03246" lon="6.37963">
        <ele>1953</ele>
        <time>2021-12-29T07:06:05Z</time>
      </trkpt>
      <trkpt lat="45.03298" lon="6.37804">
        <ele>1944</ele>
        <time>2021-12-29T07:06:27Z</time>
      </trkpt>
      <trkpt lat="45.03338" lon="6.37695">
        <ele>1934</ele>
        <time>2021-12-29T07:06:42Z</time>
      </trkpt>
      <trkpt lat="45.03368" lon="6.37604">
        <ele>1924</ele>
        <time>2021-12-29T07:06:55Z</time>
      </trkpt>
      <trkpt lat="45.03445" lon="6.37453">
        <ele>1921</ele>
        <time>2021-12-29T07:07:18Z</time>
      </trkpt>
      <trkpt lat="45.03449" lon="6.3743">
        <ele>1919</ele>
        <time>2021-12-29T07:07:21Z</time>
      </trkpt>
      <trkpt lat="45.03449" lon="6.37338">
        <ele>1910</ele>
        <time>2021-12-29T07:07:33Z</time>
      </trkpt>
      <trkpt lat="45.03455" lon="6.37291">
        <ele>1905</ele>
        <time>2021-12-29T07:07:39Z</time>
      </trkpt>
      <trkpt lat="45.03464" lon="6.37255">
        <ele>1902</ele>
        <time>2021-12-29T07:07:44Z</time>
      </trkpt>
      <trkpt lat="45.03474" lon="6.37228">
        <ele>1900</ele>
        <time>2021-12-29T07:07:48Z</time>
      </trkpt>
      <trkpt lat="45.03485" lon="6.37207">
        <ele>1899</ele>
        <time>2021-12-29T07:07:51Z</time>
      </trkpt>
      <trkpt lat="45.035" lon="6.37186">
        <ele>1899</ele>
        <time>2021-12-29T07:07:55Z</time>
      </trkpt>
      <trkpt lat="45.03532" lon="6.37151">
        <ele>1897</ele>
        <time>2021-12-29T07:08:02Z</time>
      </trkpt>
      <trkpt lat="45.03608" lon="6.37062">
        <ele>1894</ele>
        <time>2021-12-29T07:08:19Z</time>
      </trkpt>
      <trkpt lat="45.03635" lon="6.37012">
        <ele>1894</ele>
        <time>2021-12-29T07:08:27Z</time>
      </trkpt>
      <trkpt lat="45.03674" lon="6.36915">
        <ele>1890</ele>
        <time>2021-12-29T07:08:41Z</time>
      </trkpt>
      <trkpt lat="45.03691" lon="6.36882">
        <ele>1887</ele>
        <time>2021-12-29T07:08:46Z</time>
      </trkpt>
      <trkpt lat="45.03719" lon="6.36835">
        <ele>1885</ele>
        <time>2021-12-29T07:08:54Z</time>
      </trkpt>
      <trkpt lat="45.03742" lon="6.36759">
        <ele>1879</ele>
        <time>2021-12-29T07:09:05Z</time>
      </trkpt>
      <trkpt lat="45.03764" lon="6.36703">
        <ele>1874</ele>
        <time>2021-12-29T07:09:13Z</time>
      </trkpt>
      <trkpt lat="45.03783" lon="6.36666">
        <ele>1872</ele>
        <time>2021-12-29T07:09:18Z</time>
      </trkpt>
      <trkpt lat="45.03843" lon="6.36577">
        <ele>1869</ele>
        <time>2021-12-29T07:09:34Z</time>
      </trkpt>
      <trkpt lat="45.0385" lon="6.36559">
        <ele>1867</ele>
        <time>2021-12-29T07:09:36Z</time>
      </trkpt>
      <trkpt lat="45.03849" lon="6.36541">
        <ele>1864</ele>
        <time>2021-12-29T07:09:39Z</time>
      </trkpt>
      <trkpt lat="45.03843" lon="6.36529">
        <ele>1860</ele>
        <time>2021-12-29T07:09:40Z</time>
      </trkpt>
      <trkpt lat="45.03833" lon="6.36524">
        <ele>1857</ele>
        <time>2021-12-29T07:09:42Z</time>
      </trkpt>
      <trkpt lat="45.03821" lon="6.36526">
        <ele>1855</ele>
        <time>2021-12-29T07:09:45Z</time>
      </trkpt>
      <trkpt lat="45.03812" lon="6.36536">
        <ele>1855</ele>
        <time>2021-12-29T07:09:47Z</time>
      </trkpt>
      <trkpt lat="45.03797" lon="6.36586">
        <ele>1860</ele>
        <time>2021-12-29T07:09:53Z</time>
      </trkpt>
      <trkpt lat="45.03786" lon="6.36609">
        <ele>1862</ele>
        <time>2021-12-29T07:09:57Z</time>
      </trkpt>
      <trkpt lat="45.03761" lon="6.36639">
        <ele>1862</ele>
        <time>2021-12-29T07:10:03Z</time>
      </trkpt>
      <trkpt lat="45.03703" lon="6.36697">
        <ele>1856</ele>
        <time>2021-12-29T07:10:15Z</time>
      </trkpt>
      <trkpt lat="45.03685" lon="6.36722">
        <ele>1854</ele>
        <time>2021-12-29T07:10:20Z</time>
      </trkpt>
      <trkpt lat="45.03657" lon="6.36771">
        <ele>1854</ele>
        <time>2021-12-29T07:10:28Z</time>
      </trkpt>
      <trkpt lat="45.03609" lon="6.36823">
        <ele>1851</ele>
        <time>2021-12-29T07:10:39Z</time>
      </trkpt>
      <trkpt lat="45.03599" lon="6.36829">
        <ele>1849</ele>
        <time>2021-12-29T07:10:40Z</time>
      </trkpt>
      <trkpt lat="45.03591" lon="6.36827">
        <ele>1846</ele>
        <time>2021-12-29T07:10:42Z</time>
      </trkpt>
      <trkpt lat="45.03583" lon="6.3682">
        <ele>1844</ele>
        <time>2021-12-29T07:10:44Z</time>
      </trkpt>
      <trkpt lat="45.03579" lon="6.36806">
        <ele>1841</ele>
        <time>2021-12-29T07:10:45Z</time>
      </trkpt>
      <trkpt lat="45.03581" lon="6.36792">
        <ele>1840</ele>
        <time>2021-12-29T07:10:47Z</time>
      </trkpt>
      <trkpt lat="45.03586" lon="6.36778">
        <ele>1840</ele>
        <time>2021-12-29T07:10:49Z</time>
      </trkpt>
      <trkpt lat="45.03594" lon="6.36769">
        <ele>1841</ele>
        <time>2021-12-29T07:10:51Z</time>
      </trkpt>
      <trkpt lat="45.03621" lon="6.3675">
        <ele>1844</ele>
        <time>2021-12-29T07:10:56Z</time>
      </trkpt>
      <trkpt lat="45.03632" lon="6.36737">
        <ele>1844</ele>
        <time>2021-12-29T07:10:59Z</time>
      </trkpt>
      <trkpt lat="45.03642" lon="6.36719">
        <ele>1843</ele>
        <time>2021-12-29T07:11:02Z</time>
      </trkpt>
      <trkpt lat="45.03689" lon="6.36589">
        <ele>1835</ele>
        <time>2021-12-29T07:11:20Z</time>
      </trkpt>
      <trkpt lat="45.03713" lon="6.36515">
        <ele>1830</ele>
        <time>2021-12-29T07:11:30Z</time>
      </trkpt>
      <trkpt lat="45.03743" lon="6.36438">
        <ele>1824</ele>
        <time>2021-12-29T07:11:41Z</time>
      </trkpt>
      <trkpt lat="45.0376" lon="6.36418">
        <ele>1824</ele>
        <time>2021-12-29T07:11:45Z</time>
      </trkpt>
      <trkpt lat="45.03777" lon="6.36404">
        <ele>1823</ele>
        <time>2021-12-29T07:11:49Z</time>
      </trkpt>
      <trkpt lat="45.03818" lon="6.36387">
        <ele>1825</ele>
        <time>2021-12-29T07:11:57Z</time>
      </trkpt>
      <trkpt lat="45.03857" lon="6.36362">
        <ele>1824</ele>
        <time>2021-12-29T07:12:04Z</time>
      </trkpt>
      <trkpt lat="45.03885" lon="6.36341">
        <ele>1824</ele>
        <time>2021-12-29T07:12:10Z</time>
      </trkpt>
      <trkpt lat="45.0389" lon="6.36331">
        <ele>1823</ele>
        <time>2021-12-29T07:12:11Z</time>
      </trkpt>
      <trkpt lat="45.03894" lon="6.36306">
        <ele>1821</ele>
        <time>2021-12-29T07:12:15Z</time>
      </trkpt>
      <trkpt lat="45.03891" lon="6.36284">
        <ele>1819</ele>
        <time>2021-12-29T07:12:17Z</time>
      </trkpt>
      <trkpt lat="45.03862" lon="6.36224">
        <ele>1807</ele>
        <time>2021-12-29T07:12:27Z</time>
      </trkpt>
      <trkpt lat="45.03857" lon="6.36202">
        <ele>1805</ele>
        <time>2021-12-29T07:12:29Z</time>
      </trkpt>
      <trkpt lat="45.03857" lon="6.36164">
        <ele>1803</ele>
        <time>2021-12-29T07:12:34Z</time>
      </trkpt>
      <trkpt lat="45.03861" lon="6.3612">
        <ele>1801</ele>
        <time>2021-12-29T07:12:40Z</time>
      </trkpt>
      <trkpt lat="45.03867" lon="6.36096">
        <ele>1800</ele>
        <time>2021-12-29T07:12:43Z</time>
      </trkpt>
      <trkpt lat="45.03878" lon="6.36073">
        <ele>1800</ele>
        <time>2021-12-29T07:12:46Z</time>
      </trkpt>
      <trkpt lat="45.03896" lon="6.3605">
        <ele>1799</ele>
        <time>2021-12-29T07:12:51Z</time>
      </trkpt>
      <trkpt lat="45.03929" lon="6.36021">
        <ele>1801</ele>
        <time>2021-12-29T07:12:58Z</time>
      </trkpt>
      <trkpt lat="45.03951" lon="6.36004">
        <ele>1802</ele>
        <time>2021-12-29T07:13:02Z</time>
      </trkpt>
      <trkpt lat="45.03962" lon="6.35987">
        <ele>1801</ele>
        <time>2021-12-29T07:13:05Z</time>
      </trkpt>
      <trkpt lat="45.03973" lon="6.35959">
        <ele>1798</ele>
        <time>2021-12-29T07:13:09Z</time>
      </trkpt>
      <trkpt lat="45.04002" lon="6.35817">
        <ele>1784</ele>
        <time>2021-12-29T07:13:28Z</time>
      </trkpt>
      <trkpt lat="45.04009" lon="6.35801">
        <ele>1783</ele>
        <time>2021-12-29T07:13:30Z</time>
      </trkpt>
      <trkpt lat="45.04019" lon="6.35786">
        <ele>1782</ele>
        <time>2021-12-29T07:13:33Z</time>
      </trkpt>
      <trkpt lat="45.0408" lon="6.35719">
        <ele>1782</ele>
        <time>2021-12-29T07:13:46Z</time>
      </trkpt>
      <trkpt lat="45.04112" lon="6.35658">
        <ele>1773</ele>
        <time>2021-12-29T07:13:56Z</time>
      </trkpt>
      <trkpt lat="45.04126" lon="6.35637">
        <ele>1770</ele>
        <time>2021-12-29T07:14:00Z</time>
      </trkpt>
      <trkpt lat="45.04178" lon="6.35616">
        <ele>1774</ele>
        <time>2021-12-29T07:14:09Z</time>
      </trkpt>
      <trkpt lat="45.04193" lon="6.35606">
        <ele>1773</ele>
        <time>2021-12-29T07:14:12Z</time>
      </trkpt>
      <trkpt lat="45.04208" lon="6.35592">
        <ele>1770</ele>
        <time>2021-12-29T07:14:15Z</time>
      </trkpt>
      <trkpt lat="45.0423" lon="6.35561">
        <ele>1768</ele>
        <time>2021-12-29T07:14:21Z</time>
      </trkpt>
      <trkpt lat="45.04242" lon="6.35539">
        <ele>1767</ele>
        <time>2021-12-29T07:14:24Z</time>
      </trkpt>
      <trkpt lat="45.04245" lon="6.35527">
        <ele>1766</ele>
        <time>2021-12-29T07:14:26Z</time>
      </trkpt>
      <trkpt lat="45.04243" lon="6.35505">
        <ele>1761</ele>
        <time>2021-12-29T07:14:29Z</time>
      </trkpt>
      <trkpt lat="45.04236" lon="6.35485">
        <ele>1760</ele>
        <time>2021-12-29T07:14:32Z</time>
      </trkpt>
      <trkpt lat="45.04205" lon="6.35455">
        <ele>1757</ele>
        <time>2021-12-29T07:14:38Z</time>
      </trkpt>
      <trkpt lat="45.04182" lon="6.35425">
        <ele>1755</ele>
        <time>2021-12-29T07:14:44Z</time>
      </trkpt>
      <trkpt lat="45.04165" lon="6.3539">
        <ele>1754</ele>
        <time>2021-12-29T07:14:49Z</time>
      </trkpt>
      <trkpt lat="45.04151" lon="6.35356">
        <ele>1751</ele>
        <time>2021-12-29T07:14:54Z</time>
      </trkpt>
      <trkpt lat="45.04144" lon="6.3532">
        <ele>1750</ele>
        <time>2021-12-29T07:14:59Z</time>
      </trkpt>
      <trkpt lat="45.04131" lon="6.35239">
        <ele>1748</ele>
        <time>2021-12-29T07:15:09Z</time>
      </trkpt>
      <trkpt lat="45.04123" lon="6.35204">
        <ele>1745</ele>
        <time>2021-12-29T07:15:14Z</time>
      </trkpt>
      <trkpt lat="45.04116" lon="6.35178">
        <ele>1743</ele>
        <time>2021-12-29T07:15:17Z</time>
      </trkpt>
      <trkpt lat="45.04108" lon="6.35146">
        <ele>1739</ele>
        <time>2021-12-29T07:15:22Z</time>
      </trkpt>
      <trkpt lat="45.0411" lon="6.35123">
        <ele>1739</ele>
        <time>2021-12-29T07:15:24Z</time>
      </trkpt>
      <trkpt lat="45.04124" lon="6.35074">
        <ele>1741</ele>
        <time>2021-12-29T07:15:31Z</time>
      </trkpt>
      <trkpt lat="45.04127" lon="6.35046">
        <ele>1740</ele>
        <time>2021-12-29T07:15:35Z</time>
      </trkpt>
      <trkpt lat="45.0412" lon="6.34926">
        <ele>1729</ele>
        <time>2021-12-29T07:15:50Z</time>
      </trkpt>
      <trkpt lat="45.04116" lon="6.34849">
        <ele>1725</ele>
        <time>2021-12-29T07:16:00Z</time>
      </trkpt>
      <trkpt lat="45.04118" lon="6.34818">
        <ele>1724</ele>
        <time>2021-12-29T07:16:03Z</time>
      </trkpt>
      <trkpt lat="45.04123" lon="6.34796">
        <ele>1723</ele>
        <time>2021-12-29T07:16:06Z</time>
      </trkpt>
      <trkpt lat="45.04136" lon="6.34762">
        <ele>1723</ele>
        <time>2021-12-29T07:16:11Z</time>
      </trkpt>
      <trkpt lat="45.04146" lon="6.34733">
        <ele>1723</ele>
        <time>2021-12-29T07:16:15Z</time>
      </trkpt>
      <trkpt lat="45.0415" lon="6.34705">
        <ele>1723</ele>
        <time>2021-12-29T07:16:19Z</time>
      </trkpt>
      <trkpt lat="45.04147" lon="6.34672">
        <ele>1721</ele>
        <time>2021-12-29T07:16:23Z</time>
      </trkpt>
      <trkpt lat="45.04139" lon="6.34645">
        <ele>1719</ele>
        <time>2021-12-29T07:16:27Z</time>
      </trkpt>
      <trkpt lat="45.04111" lon="6.34583">
        <ele>1713</ele>
        <time>2021-12-29T07:16:36Z</time>
      </trkpt>
      <trkpt lat="45.04104" lon="6.34542">
        <ele>1709</ele>
        <time>2021-12-29T07:16:41Z</time>
      </trkpt>
      <trkpt lat="45.04105" lon="6.34524">
        <ele>1707</ele>
        <time>2021-12-29T07:16:44Z</time>
      </trkpt>
      <trkpt lat="45.0411" lon="6.34486">
        <ele>1705</ele>
        <time>2021-12-29T07:16:48Z</time>
      </trkpt>
      <trkpt lat="45.04133" lon="6.34383">
        <ele>1700</ele>
        <time>2021-12-29T07:17:02Z</time>
      </trkpt>
      <trkpt lat="45.04143" lon="6.34329">
        <ele>1698</ele>
        <time>2021-12-29T07:17:09Z</time>
      </trkpt>
      <trkpt lat="45.04144" lon="6.34304">
        <ele>1698</ele>
        <time>2021-12-29T07:17:12Z</time>
      </trkpt>
      <trkpt lat="45.04128" lon="6.34158">
        <ele>1689</ele>
        <time>2021-12-29T07:17:31Z</time>
      </trkpt>
      <trkpt lat="45.04129" lon="6.34139">
        <ele>1687</ele>
        <time>2021-12-29T07:17:33Z</time>
      </trkpt>
      <trkpt lat="45.04139" lon="6.34101">
        <ele>1684</ele>
        <time>2021-12-29T07:17:38Z</time>
      </trkpt>
      <trkpt lat="45.04187" lon="6.3401">
        <ele>1677</ele>
        <time>2021-12-29T07:17:53Z</time>
      </trkpt>
      <trkpt lat="45.04199" lon="6.33998">
        <ele>1676</ele>
        <time>2021-12-29T07:17:55Z</time>
      </trkpt>
      <trkpt lat="45.04237" lon="6.33967">
        <ele>1675</ele>
        <time>2021-12-29T07:18:03Z</time>
      </trkpt>
      <trkpt lat="45.04244" lon="6.33958">
        <ele>1674</ele>
        <time>2021-12-29T07:18:05Z</time>
      </trkpt>
      <trkpt lat="45.0425" lon="6.33945">
        <ele>1672</ele>
        <time>2021-12-29T07:18:07Z</time>
      </trkpt>
      <trkpt lat="45.04267" lon="6.3389">
        <ele>1668</ele>
        <time>2021-12-29T07:18:14Z</time>
      </trkpt>
      <trkpt lat="45.04277" lon="6.33873">
        <ele>1668</ele>
        <time>2021-12-29T07:18:17Z</time>
      </trkpt>
      <trkpt lat="45.04289" lon="6.33857">
        <ele>1667</ele>
        <time>2021-12-29T07:18:20Z</time>
      </trkpt>
      <trkpt lat="45.04351" lon="6.33799">
        <ele>1663</ele>
        <time>2021-12-29T07:18:33Z</time>
      </trkpt>
      <trkpt lat="45.04379" lon="6.3377">
        <ele>1662</ele>
        <time>2021-12-29T07:18:39Z</time>
      </trkpt>
      <trkpt lat="45.04394" lon="6.33745">
        <ele>1660</ele>
        <time>2021-12-29T07:18:43Z</time>
      </trkpt>
      <trkpt lat="45.04408" lon="6.33717">
        <ele>1659</ele>
        <time>2021-12-29T07:18:48Z</time>
      </trkpt>
      <trkpt lat="45.04418" lon="6.33688">
        <ele>1659</ele>
        <time>2021-12-29T07:18:52Z</time>
      </trkpt>
      <trkpt lat="45.04425" lon="6.33652">
        <ele>1657</ele>
        <time>2021-12-29T07:18:56Z</time>
      </trkpt>
      <trkpt lat="45.04426" lon="6.33551">
        <ele>1650</ele>
        <time>2021-12-29T07:19:09Z</time>
      </trkpt>
      <trkpt lat="45.04428" lon="6.33524">
        <ele>1648</ele>
        <time>2021-12-29T07:19:13Z</time>
      </trkpt>
      <trkpt lat="45.04431" lon="6.33504">
        <ele>1647</ele>
        <time>2021-12-29T07:19:15Z</time>
      </trkpt>
      <trkpt lat="45.04436" lon="6.33486">
        <ele>1645</ele>
        <time>2021-12-29T07:19:18Z</time>
      </trkpt>
      <trkpt lat="45.04452" lon="6.33454">
        <ele>1642</ele>
        <time>2021-12-29T07:19:22Z</time>
      </trkpt>
      <trkpt lat="45.04478" lon="6.33418">
        <ele>1639</ele>
        <time>2021-12-29T07:19:29Z</time>
      </trkpt>
      <trkpt lat="45.04507" lon="6.33388">
        <ele>1636</ele>
        <time>2021-12-29T07:19:35Z</time>
      </trkpt>
      <trkpt lat="45.04519" lon="6.33381">
        <ele>1635</ele>
        <time>2021-12-29T07:19:38Z</time>
      </trkpt>
      <trkpt lat="45.04531" lon="6.33376">
        <ele>1635</ele>
        <time>2021-12-29T07:19:40Z</time>
      </trkpt>
      <trkpt lat="45.04578" lon="6.3337">
        <ele>1635</ele>
        <time>2021-12-29T07:19:48Z</time>
      </trkpt>
      <trkpt lat="45.04586" lon="6.33364">
        <ele>1634</ele>
        <time>2021-12-29T07:19:50Z</time>
      </trkpt>
      <trkpt lat="45.0459" lon="6.33353">
        <ele>1632</ele>
        <time>2021-12-29T07:19:51Z</time>
      </trkpt>
      <trkpt lat="45.04588" lon="6.33343">
        <ele>1630</ele>
        <time>2021-12-29T07:19:53Z</time>
      </trkpt>
      <trkpt lat="45.04582" lon="6.33337">
        <ele>1629</ele>
        <time>2021-12-29T07:19:54Z</time>
      </trkpt>
      <trkpt lat="45.04573" lon="6.33335">
        <ele>1628</ele>
        <time>2021-12-29T07:19:56Z</time>
      </trkpt>
      <trkpt lat="45.04455" lon="6.33343">
        <ele>1626</ele>
        <time>2021-12-29T07:20:17Z</time>
      </trkpt>
      <trkpt lat="45.04423" lon="6.33342">
        <ele>1624</ele>
        <time>2021-12-29T07:20:22Z</time>
      </trkpt>
      <trkpt lat="45.0441" lon="6.33338">
        <ele>1624</ele>
        <time>2021-12-29T07:20:25Z</time>
      </trkpt>
      <trkpt lat="45.04395" lon="6.33328">
        <ele>1623</ele>
        <time>2021-12-29T07:20:28Z</time>
      </trkpt>
      <trkpt lat="45.04333" lon="6.33247">
        <ele>1615</ele>
        <time>2021-12-29T07:20:43Z</time>
      </trkpt>
      <trkpt lat="45.04321" lon="6.33226">
        <ele>1611</ele>
        <time>2021-12-29T07:20:46Z</time>
      </trkpt>
      <trkpt lat="45.0432" lon="6.33213">
        <ele>1609</ele>
        <time>2021-12-29T07:20:48Z</time>
      </trkpt>
      <trkpt lat="45.04321" lon="6.332">
        <ele>1608</ele>
        <time>2021-12-29T07:20:49Z</time>
      </trkpt>
      <trkpt lat="45.04324" lon="6.33188">
        <ele>1606</ele>
        <time>2021-12-29T07:20:51Z</time>
      </trkpt>
      <trkpt lat="45.04349" lon="6.33142">
        <ele>1600</ele>
        <time>2021-12-29T07:20:58Z</time>
      </trkpt>
      <trkpt lat="45.04363" lon="6.33128">
        <ele>1598</ele>
        <time>2021-12-29T07:21:01Z</time>
      </trkpt>
      <trkpt lat="45.0438" lon="6.33123">
        <ele>1597</ele>
        <time>2021-12-29T07:21:04Z</time>
      </trkpt>
      <trkpt lat="45.04399" lon="6.3313">
        <ele>1600</ele>
        <time>2021-12-29T07:21:08Z</time>
      </trkpt>
      <trkpt lat="45.04461" lon="6.33175">
        <ele>1603</ele>
        <time>2021-12-29T07:21:20Z</time>
      </trkpt>
      <trkpt lat="45.04501" lon="6.33193">
        <ele>1602</ele>
        <time>2021-12-29T07:21:28Z</time>
      </trkpt>
      <trkpt lat="45.04524" lon="6.33194">
        <ele>1600</ele>
        <time>2021-12-29T07:21:32Z</time>
      </trkpt>
      <trkpt lat="45.04545" lon="6.33191">
        <ele>1599</ele>
        <time>2021-12-29T07:21:36Z</time>
      </trkpt>
      <trkpt lat="45.04578" lon="6.33181">
        <ele>1595</ele>
        <time>2021-12-29T07:21:42Z</time>
      </trkpt>
      <trkpt lat="45.04598" lon="6.33165">
        <ele>1594</ele>
        <time>2021-12-29T07:21:46Z</time>
      </trkpt>
      <trkpt lat="45.04611" lon="6.33145">
        <ele>1595</ele>
        <time>2021-12-29T07:21:49Z</time>
      </trkpt>
      <trkpt lat="45.04618" lon="6.33113">
        <ele>1592</ele>
        <time>2021-12-29T07:21:53Z</time>
      </trkpt>
      <trkpt lat="45.04625" lon="6.32947">
        <ele>1585</ele>
        <time>2021-12-29T07:22:14Z</time>
      </trkpt>
      <trkpt lat="45.04625" lon="6.32902">
        <ele>1586</ele>
        <time>2021-12-29T07:22:20Z</time>
      </trkpt>
      <trkpt lat="45.04621" lon="6.32883">
        <ele>1586</ele>
        <time>2021-12-29T07:22:22Z</time>
      </trkpt>
      <trkpt lat="45.04614" lon="6.32876">
        <ele>1586</ele>
        <time>2021-12-29T07:22:24Z</time>
      </trkpt>
      <trkpt lat="45.04605" lon="6.32872">
        <ele>1584</ele>
        <time>2021-12-29T07:22:26Z</time>
      </trkpt>
      <trkpt lat="45.04597" lon="6.32874">
        <ele>1583</ele>
        <time>2021-12-29T07:22:27Z</time>
      </trkpt>
      <trkpt lat="45.04591" lon="6.3288">
        <ele>1581</ele>
        <time>2021-12-29T07:22:28Z</time>
      </trkpt>
      <trkpt lat="45.04587" lon="6.3289">
        <ele>1580</ele>
        <time>2021-12-29T07:22:30Z</time>
      </trkpt>
      <trkpt lat="45.04582" lon="6.32918">
        <ele>1578</ele>
        <time>2021-12-29T07:22:33Z</time>
      </trkpt>
      <trkpt lat="45.04578" lon="6.32929">
        <ele>1578</ele>
        <time>2021-12-29T07:22:35Z</time>
      </trkpt>
      <trkpt lat="45.04571" lon="6.32937">
        <ele>1577</ele>
        <time>2021-12-29T07:22:37Z</time>
      </trkpt>
      <trkpt lat="45.04563" lon="6.32938">
        <ele>1576</ele>
        <time>2021-12-29T07:22:38Z</time>
      </trkpt>
      <trkpt lat="45.04555" lon="6.32932">
        <ele>1575</ele>
        <time>2021-12-29T07:22:40Z</time>
      </trkpt>
      <trkpt lat="45.04551" lon="6.32924">
        <ele>1573</ele>
        <time>2021-12-29T07:22:41Z</time>
      </trkpt>
      <trkpt lat="45.04551" lon="6.32912">
        <ele>1573</ele>
        <time>2021-12-29T07:22:42Z</time>
      </trkpt>
      <trkpt lat="45.04554" lon="6.32899">
        <ele>1573</ele>
        <time>2021-12-29T07:22:44Z</time>
      </trkpt>
      <trkpt lat="45.04581" lon="6.3284">
        <ele>1582</ele>
        <time>2021-12-29T07:22:53Z</time>
      </trkpt>
      <trkpt lat="45.04818" lon="6.32312">
        <ele>1576</ele>
        <time>2021-12-29T07:24:12Z</time>
      </trkpt>
      <trkpt lat="45.04823" lon="6.32276">
        <ele>1566</ele>
        <time>2021-12-29T07:24:16Z</time>
      </trkpt>
      <trkpt lat="45.0482" lon="6.322">
        <ele>1545</ele>
        <time>2021-12-29T07:24:26Z</time>
      </trkpt>
      <trkpt lat="45.04816" lon="6.3218">
        <ele>1539</ele>
        <time>2021-12-29T07:24:28Z</time>
      </trkpt>
      <trkpt lat="45.04815" lon="6.32154">
        <ele>1537</ele>
        <time>2021-12-29T07:24:32Z</time>
      </trkpt>
      <trkpt lat="45.04815" lon="6.32083">
        <ele>1540</ele>
        <time>2021-12-29T07:24:41Z</time>
      </trkpt>
      <trkpt lat="45.0482" lon="6.3203">
        <ele>1537</ele>
        <time>2021-12-29T07:24:47Z</time>
      </trkpt>
      <trkpt lat="45.04823" lon="6.32012">
        <ele>1536</ele>
        <time>2021-12-29T07:24:50Z</time>
      </trkpt>
      <trkpt lat="45.04833" lon="6.31974">
        <ele>1538</ele>
        <time>2021-12-29T07:24:55Z</time>
      </trkpt>
      <trkpt lat="45.04834" lon="6.31957">
        <ele>1537</ele>
        <time>2021-12-29T07:24:57Z</time>
      </trkpt>
      <trkpt lat="45.04834" lon="6.31933">
        <ele>1535</ele>
        <time>2021-12-29T07:25:00Z</time>
      </trkpt>
      <trkpt lat="45.04829" lon="6.31889">
        <ele>1531</ele>
        <time>2021-12-29T07:25:05Z</time>
      </trkpt>
      <trkpt lat="45.04817" lon="6.31833">
        <ele>1527</ele>
        <time>2021-12-29T07:25:13Z</time>
      </trkpt>
      <trkpt lat="45.04812" lon="6.31815">
        <ele>1525</ele>
        <time>2021-12-29T07:25:15Z</time>
      </trkpt>
      <trkpt lat="45.04805" lon="6.31802">
        <ele>1522</ele>
        <time>2021-12-29T07:25:17Z</time>
      </trkpt>
      <trkpt lat="45.04782" lon="6.31777">
        <ele>1511</ele>
        <time>2021-12-29T07:25:22Z</time>
      </trkpt>
      <trkpt lat="45.04776" lon="6.3177">
        <ele>1508</ele>
        <time>2021-12-29T07:25:24Z</time>
      </trkpt>
      <trkpt lat="45.0477" lon="6.31745">
        <ele>1506</ele>
        <time>2021-12-29T07:25:27Z</time>
      </trkpt>
      <trkpt lat="45.04769" lon="6.31729">
        <ele>1503</ele>
        <time>2021-12-29T07:25:29Z</time>
      </trkpt>
      <trkpt lat="45.04771" lon="6.31715">
        <ele>1502</ele>
        <time>2021-12-29T07:25:31Z</time>
      </trkpt>
      <trkpt lat="45.04775" lon="6.31701">
        <ele>1502</ele>
        <time>2021-12-29T07:25:33Z</time>
      </trkpt>
      <trkpt lat="45.04819" lon="6.31634">
        <ele>1504</ele>
        <time>2021-12-29T07:25:44Z</time>
      </trkpt>
      <trkpt lat="45.04831" lon="6.31622">
        <ele>1504</ele>
        <time>2021-12-29T07:25:47Z</time>
      </trkpt>
      <trkpt lat="45.04895" lon="6.31568">
        <ele>1515</ele>
        <time>2021-12-29T07:26:00Z</time>
      </trkpt>
      <trkpt lat="45.04899" lon="6.31562">
        <ele>1515</ele>
        <time>2021-12-29T07:26:01Z</time>
      </trkpt>
      <trkpt lat="45.04905" lon="6.31547">
        <ele>1513</ele>
        <time>2021-12-29T07:26:03Z</time>
      </trkpt>
      <trkpt lat="45.04908" lon="6.31527">
        <ele>1509</ele>
        <time>2021-12-29T07:26:06Z</time>
      </trkpt>
      <trkpt lat="45.04903" lon="6.31506">
        <ele>1502</ele>
        <time>2021-12-29T07:26:09Z</time>
      </trkpt>
      <trkpt lat="45.04893" lon="6.31487">
        <ele>1501</ele>
        <time>2021-12-29T07:26:12Z</time>
      </trkpt>
      <trkpt lat="45.04849" lon="6.31429">
        <ele>1511</ele>
        <time>2021-12-29T07:26:22Z</time>
      </trkpt>
      <trkpt lat="45.04839" lon="6.31416">
        <ele>1515</ele>
        <time>2021-12-29T07:26:25Z</time>
      </trkpt>
      <trkpt lat="45.0466" lon="6.31184">
        <ele>1508</ele>
        <time>2021-12-29T07:27:08Z</time>
      </trkpt>
      <trkpt lat="45.04657" lon="6.31173">
        <ele>1503</ele>
        <time>2021-12-29T07:27:10Z</time>
      </trkpt>
      <trkpt lat="45.04656" lon="6.3116">
        <ele>1499</ele>
        <time>2021-12-29T07:27:11Z</time>
      </trkpt>
      <trkpt lat="45.04657" lon="6.31146">
        <ele>1497</ele>
        <time>2021-12-29T07:27:13Z</time>
      </trkpt>
      <trkpt lat="45.04664" lon="6.31122">
        <ele>1496</ele>
        <time>2021-12-29T07:27:16Z</time>
      </trkpt>
      <trkpt lat="45.0467" lon="6.31078">
        <ele>1493</ele>
        <time>2021-12-29T07:27:22Z</time>
      </trkpt>
      <trkpt lat="45.04674" lon="6.31018">
        <ele>1490</ele>
        <time>2021-12-29T07:27:29Z</time>
      </trkpt>
      <trkpt lat="45.04672" lon="6.30973">
        <ele>1488</ele>
        <time>2021-12-29T07:27:35Z</time>
      </trkpt>
      <trkpt lat="45.04659" lon="6.30884">
        <ele>1485</ele>
        <time>2021-12-29T07:27:47Z</time>
      </trkpt>
      <trkpt lat="45.04647" lon="6.30818">
        <ele>1483</ele>
        <time>2021-12-29T07:27:55Z</time>
      </trkpt>
      <trkpt lat="45.04637" lon="6.30765">
        <ele>1487</ele>
        <time>2021-12-29T07:28:02Z</time>
      </trkpt>
      <trkpt lat="45.04632" lon="6.30751">
        <ele>1488</ele>
        <time>2021-12-29T07:28:04Z</time>
      </trkpt>
      <trkpt lat="45.04621" lon="6.30737">
        <ele>1488</ele>
        <time>2021-12-29T07:28:07Z</time>
      </trkpt>
      <trkpt lat="45.04541" lon="6.30671">
        <ele>1481</ele>
        <time>2021-12-29T07:28:23Z</time>
      </trkpt>
      <trkpt lat="45.04508" lon="6.3064">
        <ele>1477</ele>
        <time>2021-12-29T07:28:30Z</time>
      </trkpt>
      <trkpt lat="45.04503" lon="6.30624">
        <ele>1477</ele>
        <time>2021-12-29T07:28:32Z</time>
      </trkpt>
      <trkpt lat="45.04502" lon="6.30616">
        <ele>1477</ele>
        <time>2021-12-29T07:28:33Z</time>
      </trkpt>
      <trkpt lat="45.04507" lon="6.30577">
        <ele>1482</ele>
        <time>2021-12-29T07:28:38Z</time>
      </trkpt>
      <trkpt lat="45.04509" lon="6.30551">
        <ele>1481</ele>
        <time>2021-12-29T07:28:42Z</time>
      </trkpt>
      <trkpt lat="45.04509" lon="6.30525">
        <ele>1480</ele>
        <time>2021-12-29T07:28:45Z</time>
      </trkpt>
      <trkpt lat="45.04504" lon="6.30471">
        <ele>1476</ele>
        <time>2021-12-29T07:28:52Z</time>
      </trkpt>
      <trkpt lat="45.04505" lon="6.30453">
        <ele>1475</ele>
        <time>2021-12-29T07:28:54Z</time>
      </trkpt>
      <trkpt lat="45.04507" lon="6.30436">
        <ele>1474</ele>
        <time>2021-12-29T07:28:56Z</time>
      </trkpt>
      <trkpt lat="45.04512" lon="6.30422">
        <ele>1475</ele>
        <time>2021-12-29T07:28:58Z</time>
      </trkpt>
      <trkpt lat="45.04531" lon="6.30392">
        <ele>1479</ele>
        <time>2021-12-29T07:29:03Z</time>
      </trkpt>
      <trkpt lat="45.04538" lon="6.30374">
        <ele>1481</ele>
        <time>2021-12-29T07:29:06Z</time>
      </trkpt>
      <trkpt lat="45.04541" lon="6.30359">
        <ele>1482</ele>
        <time>2021-12-29T07:29:08Z</time>
      </trkpt>
      <trkpt lat="45.04541" lon="6.30345">
        <ele>1482</ele>
        <time>2021-12-29T07:29:10Z</time>
      </trkpt>
      <trkpt lat="45.04484" lon="6.30263">
        <ele>1471</ele>
        <time>2021-12-29T07:29:24Z</time>
      </trkpt>
      <trkpt lat="45.04471" lon="6.30239">
        <ele>1470</ele>
        <time>2021-12-29T07:29:28Z</time>
      </trkpt>
      <trkpt lat="45.04449" lon="6.30183">
        <ele>1466</ele>
        <time>2021-12-29T07:29:36Z</time>
      </trkpt>
      <trkpt lat="45.04442" lon="6.30154">
        <ele>1464</ele>
        <time>2021-12-29T07:29:40Z</time>
      </trkpt>
      <trkpt lat="45.04438" lon="6.30119">
        <ele>1462</ele>
        <time>2021-12-29T07:29:44Z</time>
      </trkpt>
      <trkpt lat="45.04439" lon="6.30085">
        <ele>1462</ele>
        <time>2021-12-29T07:29:48Z</time>
      </trkpt>
      <trkpt lat="45.04449" lon="6.29971">
        <ele>1465</ele>
        <time>2021-12-29T07:30:03Z</time>
      </trkpt>
      <trkpt lat="45.04447" lon="6.29929">
        <ele>1462</ele>
        <time>2021-12-29T07:30:08Z</time>
      </trkpt>
      <trkpt lat="45.04447" lon="6.29911">
        <ele>1461</ele>
        <time>2021-12-29T07:30:10Z</time>
      </trkpt>
      <trkpt lat="45.0446" lon="6.29827">
        <ele>1461</ele>
        <time>2021-12-29T07:30:21Z</time>
      </trkpt>
      <trkpt lat="45.04462" lon="6.29804">
        <ele>1460</ele>
        <time>2021-12-29T07:30:24Z</time>
      </trkpt>
      <trkpt lat="45.04458" lon="6.29742">
        <ele>1452</ele>
        <time>2021-12-29T07:30:32Z</time>
      </trkpt>
      <trkpt lat="45.04458" lon="6.297">
        <ele>1452</ele>
        <time>2021-12-29T07:30:37Z</time>
      </trkpt>
      <trkpt lat="45.04456" lon="6.29673">
        <ele>1450</ele>
        <time>2021-12-29T07:30:41Z</time>
      </trkpt>
      <trkpt lat="45.0445" lon="6.29649">
        <ele>1448</ele>
        <time>2021-12-29T07:30:44Z</time>
      </trkpt>
      <trkpt lat="45.0443" lon="6.29602">
        <ele>1441</ele>
        <time>2021-12-29T07:30:51Z</time>
      </trkpt>
      <trkpt lat="45.04399" lon="6.29452">
        <ele>1433</ele>
        <time>2021-12-29T07:31:10Z</time>
      </trkpt>
      <trkpt lat="45.04386" lon="6.29404">
        <ele>1429</ele>
        <time>2021-12-29T07:31:17Z</time>
      </trkpt>
      <trkpt lat="45.04377" lon="6.29376">
        <ele>1427</ele>
        <time>2021-12-29T07:31:21Z</time>
      </trkpt>
      <trkpt lat="45.0435" lon="6.2931">
        <ele>1422</ele>
        <time>2021-12-29T07:31:30Z</time>
      </trkpt>
      <trkpt lat="45.04344" lon="6.29289">
        <ele>1420</ele>
        <time>2021-12-29T07:31:33Z</time>
      </trkpt>
      <trkpt lat="45.04339" lon="6.29267">
        <ele>1419</ele>
        <time>2021-12-29T07:31:36Z</time>
      </trkpt>
      <trkpt lat="45.04332" lon="6.29203">
        <ele>1415</ele>
        <time>2021-12-29T07:31:44Z</time>
      </trkpt>
      <trkpt lat="45.04326" lon="6.29111">
        <ele>1412</ele>
        <time>2021-12-29T07:31:56Z</time>
      </trkpt>
      <trkpt lat="45.04325" lon="6.29063">
        <ele>1410</ele>
        <time>2021-12-29T07:32:02Z</time>
      </trkpt>
      <trkpt lat="45.04327" lon="6.29043">
        <ele>1410</ele>
        <time>2021-12-29T07:32:04Z</time>
      </trkpt>
      <trkpt lat="45.04334" lon="6.28986">
        <ele>1409</ele>
        <time>2021-12-29T07:32:12Z</time>
      </trkpt>
      <trkpt lat="45.04333" lon="6.28931">
        <ele>1406</ele>
        <time>2021-12-29T07:32:19Z</time>
      </trkpt>
      <trkpt lat="45.04334" lon="6.28916">
        <ele>1405</ele>
        <time>2021-12-29T07:32:21Z</time>
      </trkpt>
      <trkpt lat="45.04347" lon="6.2884">
        <ele>1405</ele>
        <time>2021-12-29T07:32:30Z</time>
      </trkpt>
      <trkpt lat="45.04352" lon="6.28775">
        <ele>1403</ele>
        <time>2021-12-29T07:32:39Z</time>
      </trkpt>
      <trkpt lat="45.04353" lon="6.28723">
        <ele>1399</ele>
        <time>2021-12-29T07:32:45Z</time>
      </trkpt>
      <trkpt lat="45.04354" lon="6.28691">
        <ele>1396</ele>
        <time>2021-12-29T07:32:49Z</time>
      </trkpt>
      <trkpt lat="45.04361" lon="6.28662">
        <ele>1395</ele>
        <time>2021-12-29T07:32:53Z</time>
      </trkpt>
      <trkpt lat="45.04402" lon="6.28538">
        <ele>1393</ele>
        <time>2021-12-29T07:33:10Z</time>
      </trkpt>
      <trkpt lat="45.04417" lon="6.28485">
        <ele>1390</ele>
        <time>2021-12-29T07:33:17Z</time>
      </trkpt>
      <trkpt lat="45.0442" lon="6.28468">
        <ele>1390</ele>
        <time>2021-12-29T07:33:20Z</time>
      </trkpt>
      <trkpt lat="45.04421" lon="6.2844">
        <ele>1390</ele>
        <time>2021-12-29T07:33:23Z</time>
      </trkpt>
      <trkpt lat="45.04419" lon="6.28418">
        <ele>1388</ele>
        <time>2021-12-29T07:33:26Z</time>
      </trkpt>
      <trkpt lat="45.04412" lon="6.28381">
        <ele>1392</ele>
        <time>2021-12-29T07:33:31Z</time>
      </trkpt>
      <trkpt lat="45.04368" lon="6.28271">
        <ele>1400</ele>
        <time>2021-12-29T07:33:47Z</time>
      </trkpt>
      <trkpt lat="45.04359" lon="6.28243">
        <ele>1398</ele>
        <time>2021-12-29T07:33:50Z</time>
      </trkpt>
      <trkpt lat="45.04353" lon="6.28213">
        <ele>1396</ele>
        <time>2021-12-29T07:33:54Z</time>
      </trkpt>
      <trkpt lat="45.04337" lon="6.28117">
        <ele>1388</ele>
        <time>2021-12-29T07:34:07Z</time>
      </trkpt>
      <trkpt lat="45.0432" lon="6.28046">
        <ele>1385</ele>
        <time>2021-12-29T07:34:16Z</time>
      </trkpt>
      <trkpt lat="45.04307" lon="6.27969">
        <ele>1382</ele>
        <time>2021-12-29T07:34:26Z</time>
      </trkpt>
      <trkpt lat="45.04305" lon="6.27939">
        <ele>1381</ele>
        <time>2021-12-29T07:34:30Z</time>
      </trkpt>
      <trkpt lat="45.04307" lon="6.27911">
        <ele>1381</ele>
        <time>2021-12-29T07:34:33Z</time>
      </trkpt>
      <trkpt lat="45.04326" lon="6.27833">
        <ele>1380</ele>
        <time>2021-12-29T07:34:44Z</time>
      </trkpt>
      <trkpt lat="45.04327" lon="6.27806">
        <ele>1380</ele>
        <time>2021-12-29T07:34:47Z</time>
      </trkpt>
      <trkpt lat="45.04325" lon="6.27782">
        <ele>1380</ele>
        <time>2021-12-29T07:34:50Z</time>
      </trkpt>
      <trkpt lat="45.04321" lon="6.27763">
        <ele>1380</ele>
        <time>2021-12-29T07:34:53Z</time>
      </trkpt>
      <trkpt lat="45.04307" lon="6.27722">
        <ele>1379</ele>
        <time>2021-12-29T07:34:59Z</time>
      </trkpt>
      <trkpt lat="45.04299" lon="6.277">
        <ele>1379</ele>
        <time>2021-12-29T07:35:02Z</time>
      </trkpt>
      <trkpt lat="45.04293" lon="6.27679">
        <ele>1379</ele>
        <time>2021-12-29T07:35:04Z</time>
      </trkpt>
      <trkpt lat="45.04288" lon="6.27648">
        <ele>1378</ele>
        <time>2021-12-29T07:35:08Z</time>
      </trkpt>
      <trkpt lat="45.04286" lon="6.27535">
        <ele>1376</ele>
        <time>2021-12-29T07:35:23Z</time>
      </trkpt>
      <trkpt lat="45.0428" lon="6.27488">
        <ele>1374</ele>
        <time>2021-12-29T07:35:29Z</time>
      </trkpt>
      <trkpt lat="45.04251" lon="6.27355">
        <ele>1362</ele>
        <time>2021-12-29T07:35:46Z</time>
      </trkpt>
      <trkpt lat="45.04244" lon="6.27307">
        <ele>1363</ele>
        <time>2021-12-29T07:35:52Z</time>
      </trkpt>
      <trkpt lat="45.04239" lon="6.27253">
        <ele>1363</ele>
        <time>2021-12-29T07:35:59Z</time>
      </trkpt>
      <trkpt lat="45.04239" lon="6.27223">
        <ele>1364</ele>
        <time>2021-12-29T07:36:03Z</time>
      </trkpt>
      <trkpt lat="45.04241" lon="6.27174">
        <ele>1368</ele>
        <time>2021-12-29T07:36:09Z</time>
      </trkpt>
      <trkpt lat="45.04247" lon="6.27092">
        <ele>1370</ele>
        <time>2021-12-29T07:36:19Z</time>
      </trkpt>
      <trkpt lat="45.04254" lon="6.27017">
        <ele>1375</ele>
        <time>2021-12-29T07:36:29Z</time>
      </trkpt>
      <trkpt lat="45.04278" lon="6.26877">
        <ele>1383</ele>
        <time>2021-12-29T07:36:47Z</time>
      </trkpt>
      <trkpt lat="45.04284" lon="6.26826">
        <ele>1376</ele>
        <time>2021-12-29T07:36:54Z</time>
      </trkpt>
      <trkpt lat="45.04284" lon="6.26804">
        <ele>1376</ele>
        <time>2021-12-29T07:36:56Z</time>
      </trkpt>
      <trkpt lat="45.04282" lon="6.26776">
        <ele>1372</ele>
        <time>2021-12-29T07:37:00Z</time>
      </trkpt>
      <trkpt lat="45.04268" lon="6.26672">
        <ele>1355</ele>
        <time>2021-12-29T07:37:13Z</time>
      </trkpt>
      <trkpt lat="45.0426" lon="6.26626">
        <ele>1348</ele>
        <time>2021-12-29T07:37:19Z</time>
      </trkpt>
      <trkpt lat="45.04242" lon="6.26539">
        <ele>1351</ele>
        <time>2021-12-29T07:37:31Z</time>
      </trkpt>
      <trkpt lat="45.04158" lon="6.26158">
        <ele>1343</ele>
        <time>2021-12-29T07:38:21Z</time>
      </trkpt>
      <trkpt lat="45.04146" lon="6.26114">
        <ele>1351</ele>
        <time>2021-12-29T07:38:27Z</time>
      </trkpt>
      <trkpt lat="45.04136" lon="6.26089">
        <ele>1352</ele>
        <time>2021-12-29T07:38:30Z</time>
      </trkpt>
      <trkpt lat="45.04121" lon="6.2606">
        <ele>1350</ele>
        <time>2021-12-29T07:38:35Z</time>
      </trkpt>
      <trkpt lat="45.04104" lon="6.26036">
        <ele>1344</ele>
        <time>2021-12-29T07:38:39Z</time>
      </trkpt>
      <trkpt lat="45.0409" lon="6.2602">
        <ele>1338</ele>
        <time>2021-12-29T07:38:42Z</time>
      </trkpt>
      <trkpt lat="45.04025" lon="6.25971">
        <ele>1336</ele>
        <time>2021-12-29T07:38:55Z</time>
      </trkpt>
      <trkpt lat="45.04007" lon="6.25946">
        <ele>1332</ele>
        <time>2021-12-29T07:39:00Z</time>
      </trkpt>
      <trkpt lat="45.0399" lon="6.25894">
        <ele>1328</ele>
        <time>2021-12-29T07:39:07Z</time>
      </trkpt>
      <trkpt lat="45.03966" lon="6.25809">
        <ele>1328</ele>
        <time>2021-12-29T07:39:19Z</time>
      </trkpt>
      <trkpt lat="45.03942" lon="6.25731">
        <ele>1329</ele>
        <time>2021-12-29T07:39:29Z</time>
      </trkpt>
      <trkpt lat="45.03936" lon="6.25705">
        <ele>1328</ele>
        <time>2021-12-29T07:39:33Z</time>
      </trkpt>
      <trkpt lat="45.03933" lon="6.25683">
        <ele>1328</ele>
        <time>2021-12-29T07:39:36Z</time>
      </trkpt>
      <trkpt lat="45.03932" lon="6.25661">
        <ele>1328</ele>
        <time>2021-12-29T07:39:38Z</time>
      </trkpt>
      <trkpt lat="45.03944" lon="6.25564">
        <ele>1338</ele>
        <time>2021-12-29T07:39:51Z</time>
      </trkpt>
      <trkpt lat="45.03943" lon="6.25516">
        <ele>1341</ele>
        <time>2021-12-29T07:39:57Z</time>
      </trkpt>
      <trkpt lat="45.03923" lon="6.2538">
        <ele>1349</ele>
        <time>2021-12-29T07:40:14Z</time>
      </trkpt>
      <trkpt lat="45.03907" lon="6.25243">
        <ele>1398</ele>
        <time>2021-12-29T07:40:32Z</time>
      </trkpt>
      <trkpt lat="45.03903" lon="6.25202">
        <ele>1412</ele>
        <time>2021-12-29T07:40:37Z</time>
      </trkpt>
      <trkpt lat="45.03903" lon="6.25182">
        <ele>1420</ele>
        <time>2021-12-29T07:40:39Z</time>
      </trkpt>
      <trkpt lat="45.03906" lon="6.25163">
        <ele>1431</ele>
        <time>2021-12-29T07:40:42Z</time>
      </trkpt>
      <trkpt lat="45.03908" lon="6.25138">
        <ele>1441</ele>
        <time>2021-12-29T07:40:45Z</time>
      </trkpt>
      <trkpt lat="45.03904" lon="6.25114">
        <ele>1444</ele>
        <time>2021-12-29T07:40:48Z</time>
      </trkpt>
      <trkpt lat="45.03882" lon="6.25066">
        <ele>1422</ele>
        <time>2021-12-29T07:40:55Z</time>
      </trkpt>
      <trkpt lat="45.03873" lon="6.25049">
        <ele>1408</ele>
        <time>2021-12-29T07:40:58Z</time>
      </trkpt>
      <trkpt lat="45.03865" lon="6.2502">
        <ele>1394</ele>
        <time>2021-12-29T07:41:02Z</time>
      </trkpt>
      <trkpt lat="45.03862" lon="6.2499">
        <ele>1387</ele>
        <time>2021-12-29T07:41:06Z</time>
      </trkpt>
      <trkpt lat="45.03862" lon="6.24959">
        <ele>1386</ele>
        <time>2021-12-29T07:41:10Z</time>
      </trkpt>
      <trkpt lat="45.03874" lon="6.24884">
        <ele>1406</ele>
        <time>2021-12-29T07:41:19Z</time>
      </trkpt>
      <trkpt lat="45.03876" lon="6.2485">
        <ele>1411</ele>
        <time>2021-12-29T07:41:24Z</time>
      </trkpt>
      <trkpt lat="45.03874" lon="6.24611">
        <ele>1392</ele>
        <time>2021-12-29T07:41:54Z</time>
      </trkpt>
      <trkpt lat="45.03884" lon="6.24462">
        <ele>1386</ele>
        <time>2021-12-29T07:42:12Z</time>
      </trkpt>
      <trkpt lat="45.03875" lon="6.24426">
        <ele>1365</ele>
        <time>2021-12-29T07:42:17Z</time>
      </trkpt>
      <trkpt lat="45.03822" lon="6.24292">
        <ele>1282</ele>
        <time>2021-12-29T07:42:37Z</time>
      </trkpt>
      <trkpt lat="45.03791" lon="6.24205">
        <ele>1279</ele>
        <time>2021-12-29T07:42:49Z</time>
      </trkpt>
      <trkpt lat="45.03782" lon="6.24171">
        <ele>1277</ele>
        <time>2021-12-29T07:42:53Z</time>
      </trkpt>
      <trkpt lat="45.03776" lon="6.24135">
        <ele>1274</ele>
        <time>2021-12-29T07:42:58Z</time>
      </trkpt>
      <trkpt lat="45.0375" lon="6.23872">
        <ele>1262</ele>
        <time>2021-12-29T07:43:31Z</time>
      </trkpt>
      <trkpt lat="45.03749" lon="6.2383">
        <ele>1261</ele>
        <time>2021-12-29T07:43:37Z</time>
      </trkpt>
      <trkpt lat="45.03753" lon="6.23791">
        <ele>1260</ele>
        <time>2021-12-29T07:43:42Z</time>
      </trkpt>
      <trkpt lat="45.03759" lon="6.23757">
        <ele>1260</ele>
        <time>2021-12-29T07:43:46Z</time>
      </trkpt>
      <trkpt lat="45.03771" lon="6.23706">
        <ele>1263</ele>
        <time>2021-12-29T07:43:53Z</time>
      </trkpt>
      <trkpt lat="45.03775" lon="6.23663">
        <ele>1262</ele>
        <time>2021-12-29T07:43:58Z</time>
      </trkpt>
      <trkpt lat="45.03782" lon="6.23499">
        <ele>1254</ele>
        <time>2021-12-29T07:44:19Z</time>
      </trkpt>
      <trkpt lat="45.0378" lon="6.23467">
        <ele>1254</ele>
        <time>2021-12-29T07:44:23Z</time>
      </trkpt>
      <trkpt lat="45.03775" lon="6.23435">
        <ele>1253</ele>
        <time>2021-12-29T07:44:27Z</time>
      </trkpt>
      <trkpt lat="45.03768" lon="6.23406">
        <ele>1252</ele>
        <time>2021-12-29T07:44:31Z</time>
      </trkpt>
      <trkpt lat="45.03754" lon="6.23376">
        <ele>1250</ele>
        <time>2021-12-29T07:44:35Z</time>
      </trkpt>
      <trkpt lat="45.03719" lon="6.2333">
        <ele>1251</ele>
        <time>2021-12-29T07:44:44Z</time>
      </trkpt>
      <trkpt lat="45.03705" lon="6.233">
        <ele>1250</ele>
        <time>2021-12-29T07:44:48Z</time>
      </trkpt>
      <trkpt lat="45.03695" lon="6.2327">
        <ele>1248</ele>
        <time>2021-12-29T07:44:53Z</time>
      </trkpt>
      <trkpt lat="45.03685" lon="6.23198">
        <ele>1243</ele>
        <time>2021-12-29T07:45:02Z</time>
      </trkpt>
      <trkpt lat="45.03664" lon="6.23086">
        <ele>1232</ele>
        <time>2021-12-29T07:45:16Z</time>
      </trkpt>
      <trkpt lat="45.0366" lon="6.23022">
        <ele>1232</ele>
        <time>2021-12-29T07:45:24Z</time>
      </trkpt>
      <trkpt lat="45.03665" lon="6.22902">
        <ele>1227</ele>
        <time>2021-12-29T07:45:40Z</time>
      </trkpt>
      <trkpt lat="45.03663" lon="6.22865">
        <ele>1226</ele>
        <time>2021-12-29T07:45:44Z</time>
      </trkpt>
      <trkpt lat="45.03643" lon="6.22758">
        <ele>1224</ele>
        <time>2021-12-29T07:45:58Z</time>
      </trkpt>
      <trkpt lat="45.03628" lon="6.22703">
        <ele>1223</ele>
        <time>2021-12-29T07:46:06Z</time>
      </trkpt>
      <trkpt lat="45.03599" lon="6.2255">
        <ele>1212</ele>
        <time>2021-12-29T07:46:26Z</time>
      </trkpt>
      <trkpt lat="45.03598" lon="6.22519">
        <ele>1213</ele>
        <time>2021-12-29T07:46:29Z</time>
      </trkpt>
      <trkpt lat="45.03611" lon="6.22398">
        <ele>1280</ele>
        <time>2021-12-29T07:46:45Z</time>
      </trkpt>
      <trkpt lat="45.03611" lon="6.22372">
        <ele>1290</ele>
        <time>2021-12-29T07:46:48Z</time>
      </trkpt>
      <trkpt lat="45.03604" lon="6.22335">
        <ele>1289</ele>
        <time>2021-12-29T07:46:53Z</time>
      </trkpt>
      <trkpt lat="45.03602" lon="6.22294">
        <ele>1280</ele>
        <time>2021-12-29T07:46:58Z</time>
      </trkpt>
      <trkpt lat="45.03608" lon="6.22254">
        <ele>1292</ele>
        <time>2021-12-29T07:47:03Z</time>
      </trkpt>
      <trkpt lat="45.03644" lon="6.22099">
        <ele>1391</ele>
        <time>2021-12-29T07:47:24Z</time>
      </trkpt>
      <trkpt lat="45.03643" lon="6.2207">
        <ele>1379</ele>
        <time>2021-12-29T07:47:27Z</time>
      </trkpt>
      <trkpt lat="45.03632" lon="6.22037">
        <ele>1330</ele>
        <time>2021-12-29T07:47:32Z</time>
      </trkpt>
      <trkpt lat="45.03606" lon="6.21997">
        <ele>1252</ele>
        <time>2021-12-29T07:47:39Z</time>
      </trkpt>
      <trkpt lat="45.03599" lon="6.2197">
        <ele>1222</ele>
        <time>2021-12-29T07:47:42Z</time>
      </trkpt>
      <trkpt lat="45.03579" lon="6.21871">
        <ele>1170</ele>
        <time>2021-12-29T07:47:55Z</time>
      </trkpt>
      <trkpt lat="45.03578" lon="6.21837">
        <ele>1167</ele>
        <time>2021-12-29T07:48:00Z</time>
      </trkpt>
      <trkpt lat="45.03599" lon="6.21693">
        <ele>1163</ele>
        <time>2021-12-29T07:48:18Z</time>
      </trkpt>
      <trkpt lat="45.03626" lon="6.21616">
        <ele>1166</ele>
        <time>2021-12-29T07:48:29Z</time>
      </trkpt>
      <trkpt lat="45.03639" lon="6.21591">
        <ele>1166</ele>
        <time>2021-12-29T07:48:33Z</time>
      </trkpt>
      <trkpt lat="45.03676" lon="6.21554">
        <ele>1167</ele>
        <time>2021-12-29T07:48:41Z</time>
      </trkpt>
      <trkpt lat="45.03687" lon="6.2154">
        <ele>1168</ele>
        <time>2021-12-29T07:48:44Z</time>
      </trkpt>
      <trkpt lat="45.03708" lon="6.21498">
        <ele>1165</ele>
        <time>2021-12-29T07:48:50Z</time>
      </trkpt>
      <trkpt lat="45.03792" lon="6.21271">
        <ele>1162</ele>
        <time>2021-12-29T07:49:22Z</time>
      </trkpt>
      <trkpt lat="45.03816" lon="6.21188">
        <ele>1185</ele>
        <time>2021-12-29T07:49:33Z</time>
      </trkpt>
      <trkpt lat="45.03845" lon="6.20988">
        <ele>1167</ele>
        <time>2021-12-29T07:49:59Z</time>
      </trkpt>
      <trkpt lat="45.03847" lon="6.20962">
        <ele>1163</ele>
        <time>2021-12-29T07:50:02Z</time>
      </trkpt>
      <trkpt lat="45.03845" lon="6.20933">
        <ele>1155</ele>
        <time>2021-12-29T07:50:06Z</time>
      </trkpt>
      <trkpt lat="45.03842" lon="6.20911">
        <ele>1149</ele>
        <time>2021-12-29T07:50:09Z</time>
      </trkpt>
      <trkpt lat="45.0384" lon="6.20892">
        <ele>1146</ele>
        <time>2021-12-29T07:50:11Z</time>
      </trkpt>
      <trkpt lat="45.03807" lon="6.20679">
        <ele>1132</ele>
        <time>2021-12-29T07:50:39Z</time>
      </trkpt>
      <trkpt lat="45.03782" lon="6.20529">
        <ele>1140</ele>
        <time>2021-12-29T07:50:58Z</time>
      </trkpt>
      <trkpt lat="45.03769" lon="6.20428">
        <ele>1138</ele>
        <time>2021-12-29T07:51:11Z</time>
      </trkpt>
      <trkpt lat="45.03768" lon="6.20368">
        <ele>1137</ele>
        <time>2021-12-29T07:51:19Z</time>
      </trkpt>
      <trkpt lat="45.03775" lon="6.20107">
        <ele>1129</ele>
        <time>2021-12-29T07:51:51Z</time>
      </trkpt>
      <trkpt lat="45.03775" lon="6.20065">
        <ele>1128</ele>
        <time>2021-12-29T07:51:57Z</time>
      </trkpt>
      <trkpt lat="45.03772" lon="6.20006">
        <ele>1128</ele>
        <time>2021-12-29T07:52:04Z</time>
      </trkpt>
      <trkpt lat="45.03766" lon="6.1993">
        <ele>1128</ele>
        <time>2021-12-29T07:52:14Z</time>
      </trkpt>
      <trkpt lat="45.03727" lon="6.19561">
        <ele>1125</ele>
        <time>2021-12-29T07:53:01Z</time>
      </trkpt>
      <trkpt lat="45.03726" lon="6.19527">
        <ele>1125</ele>
        <time>2021-12-29T07:53:05Z</time>
      </trkpt>
      <trkpt lat="45.03727" lon="6.19511">
        <ele>1125</ele>
        <time>2021-12-29T07:53:07Z</time>
      </trkpt>
      <trkpt lat="45.03732" lon="6.19492">
        <ele>1124</ele>
        <time>2021-12-29T07:53:10Z</time>
      </trkpt>
      <trkpt lat="45.0374" lon="6.19471">
        <ele>1121</ele>
        <time>2021-12-29T07:53:13Z</time>
      </trkpt>
      <trkpt lat="45.03785" lon="6.19366">
        <ele>1121</ele>
        <time>2021-12-29T07:53:28Z</time>
      </trkpt>
      <trkpt lat="45.03803" lon="6.19317">
        <ele>1122</ele>
        <time>2021-12-29T07:53:35Z</time>
      </trkpt>
      <trkpt lat="45.03808" lon="6.19298">
        <ele>1121</ele>
        <time>2021-12-29T07:53:37Z</time>
      </trkpt>
      <trkpt lat="45.03811" lon="6.19275">
        <ele>1119</ele>
        <time>2021-12-29T07:53:40Z</time>
      </trkpt>
      <trkpt lat="45.03842" lon="6.1904">
        <ele>1105</ele>
        <time>2021-12-29T07:54:10Z</time>
      </trkpt>
      <trkpt lat="45.03846" lon="6.19028">
        <ele>1106</ele>
        <time>2021-12-29T07:54:12Z</time>
      </trkpt>
      <trkpt lat="45.03852" lon="6.19015">
        <ele>1107</ele>
        <time>2021-12-29T07:54:14Z</time>
      </trkpt>
      <trkpt lat="45.03872" lon="6.18987">
        <ele>1109</ele>
        <time>2021-12-29T07:54:19Z</time>
      </trkpt>
      <trkpt lat="45.03918" lon="6.18857">
        <ele>1101</ele>
        <time>2021-12-29T07:54:37Z</time>
      </trkpt>
      <trkpt lat="45.03923" lon="6.18838">
        <ele>1103</ele>
        <time>2021-12-29T07:54:40Z</time>
      </trkpt>
      <trkpt lat="45.03925" lon="6.18818">
        <ele>1103</ele>
        <time>2021-12-29T07:54:42Z</time>
      </trkpt>
      <trkpt lat="45.03927" lon="6.18761">
        <ele>1103</ele>
        <time>2021-12-29T07:54:50Z</time>
      </trkpt>
      <trkpt lat="45.03927" lon="6.18746">
        <ele>1102</ele>
        <time>2021-12-29T07:54:51Z</time>
      </trkpt>
      <trkpt lat="45.03927" lon="6.18725">
        <ele>1103</ele>
        <time>2021-12-29T07:54:54Z</time>
      </trkpt>
      <trkpt lat="45.03925" lon="6.18711">
        <ele>1102</ele>
        <time>2021-12-29T07:54:56Z</time>
      </trkpt>
      <trkpt lat="45.0391" lon="6.18671">
        <ele>1098</ele>
        <time>2021-12-29T07:55:02Z</time>
      </trkpt>
      <trkpt lat="45.03905" lon="6.18652">
        <ele>1098</ele>
        <time>2021-12-29T07:55:04Z</time>
      </trkpt>
      <trkpt lat="45.03902" lon="6.18633">
        <ele>1099</ele>
        <time>2021-12-29T07:55:07Z</time>
      </trkpt>
      <trkpt lat="45.03887" lon="6.18452">
        <ele>1095</ele>
        <time>2021-12-29T07:55:30Z</time>
      </trkpt>
      <trkpt lat="45.03888" lon="6.18434">
        <ele>1096</ele>
        <time>2021-12-29T07:55:32Z</time>
      </trkpt>
      <trkpt lat="45.03891" lon="6.18421">
        <ele>1097</ele>
        <time>2021-12-29T07:55:34Z</time>
      </trkpt>
      <trkpt lat="45.03903" lon="6.18386">
        <ele>1102</ele>
        <time>2021-12-29T07:55:38Z</time>
      </trkpt>
      <trkpt lat="45.03908" lon="6.18328">
        <ele>1106</ele>
        <time>2021-12-29T07:55:46Z</time>
      </trkpt>
      <trkpt lat="45.0392" lon="6.18277">
        <ele>1123</ele>
        <time>2021-12-29T07:55:53Z</time>
      </trkpt>
      <trkpt lat="45.03926" lon="6.18222">
        <ele>1132</ele>
        <time>2021-12-29T07:56:00Z</time>
      </trkpt>
      <trkpt lat="45.03927" lon="6.18207">
        <ele>1130</ele>
        <time>2021-12-29T07:56:01Z</time>
      </trkpt>
      <trkpt lat="45.03925" lon="6.18175">
        <ele>1118</ele>
        <time>2021-12-29T07:56:05Z</time>
      </trkpt>
      <trkpt lat="45.03916" lon="6.18125">
        <ele>1100</ele>
        <time>2021-12-29T07:56:12Z</time>
      </trkpt>
      <trkpt lat="45.03914" lon="6.18107">
        <ele>1098</ele>
        <time>2021-12-29T07:56:14Z</time>
      </trkpt>
      <trkpt lat="45.03917" lon="6.18083">
        <ele>1095</ele>
        <time>2021-12-29T07:56:17Z</time>
      </trkpt>
      <trkpt lat="45.0393" lon="6.18009">
        <ele>1074</ele>
        <time>2021-12-29T07:56:27Z</time>
      </trkpt>
      <trkpt lat="45.0393" lon="6.17994">
        <ele>1071</ele>
        <time>2021-12-29T07:56:29Z</time>
      </trkpt>
      <trkpt lat="45.03927" lon="6.17952">
        <ele>1070</ele>
        <time>2021-12-29T07:56:34Z</time>
      </trkpt>
      <trkpt lat="45.03927" lon="6.17937">
        <ele>1071</ele>
        <time>2021-12-29T07:56:36Z</time>
      </trkpt>
      <trkpt lat="45.03933" lon="6.1789">
        <ele>1074</ele>
        <time>2021-12-29T07:56:42Z</time>
      </trkpt>
      <trkpt lat="45.03934" lon="6.17875">
        <ele>1074</ele>
        <time>2021-12-29T07:56:44Z</time>
      </trkpt>
      <trkpt lat="45.03929" lon="6.17852">
        <ele>1069</ele>
        <time>2021-12-29T07:56:47Z</time>
      </trkpt>
      <trkpt lat="45.03917" lon="6.17807">
        <ele>1055</ele>
        <time>2021-12-29T07:56:53Z</time>
      </trkpt>
      <trkpt lat="45.03915" lon="6.17792">
        <ele>1053</ele>
        <time>2021-12-29T07:56:55Z</time>
      </trkpt>
      <trkpt lat="45.03916" lon="6.17755">
        <ele>1049</ele>
        <time>2021-12-29T07:57:00Z</time>
      </trkpt>
      <trkpt lat="45.0392" lon="6.17734">
        <ele>1049</ele>
        <time>2021-12-29T07:57:02Z</time>
      </trkpt>
      <trkpt lat="45.03925" lon="6.17718">
        <ele>1052</ele>
        <time>2021-12-29T07:57:04Z</time>
      </trkpt>
      <trkpt lat="45.03938" lon="6.17689">
        <ele>1063</ele>
        <time>2021-12-29T07:57:09Z</time>
      </trkpt>
      <trkpt lat="45.03972" lon="6.17622">
        <ele>1084</ele>
        <time>2021-12-29T07:57:19Z</time>
      </trkpt>
      <trkpt lat="45.03992" lon="6.17593">
        <ele>1089</ele>
        <time>2021-12-29T07:57:24Z</time>
      </trkpt>
      <trkpt lat="45.04003" lon="6.17573">
        <ele>1092</ele>
        <time>2021-12-29T07:57:27Z</time>
      </trkpt>
      <trkpt lat="45.04009" lon="6.17555">
        <ele>1094</ele>
        <time>2021-12-29T07:57:30Z</time>
      </trkpt>
      <trkpt lat="45.04021" lon="6.17492">
        <ele>1077</ele>
        <time>2021-12-29T07:57:38Z</time>
      </trkpt>
      <trkpt lat="45.04036" lon="6.17415">
        <ele>1061</ele>
        <time>2021-12-29T07:57:48Z</time>
      </trkpt>
      <trkpt lat="45.04046" lon="6.17382">
        <ele>1057</ele>
        <time>2021-12-29T07:57:53Z</time>
      </trkpt>
      <trkpt lat="45.04128" lon="6.17219">
        <ele>1062</ele>
        <time>2021-12-29T07:58:18Z</time>
      </trkpt>
      <trkpt lat="45.04147" lon="6.17168">
        <ele>1064</ele>
        <time>2021-12-29T07:58:25Z</time>
      </trkpt>
      <trkpt lat="45.04153" lon="6.17138">
        <ele>1064</ele>
        <time>2021-12-29T07:58:29Z</time>
      </trkpt>
      <trkpt lat="45.04161" lon="6.17082">
        <ele>1063</ele>
        <time>2021-12-29T07:58:36Z</time>
      </trkpt>
      <trkpt lat="45.04174" lon="6.17039">
        <ele>1063</ele>
        <time>2021-12-29T07:58:42Z</time>
      </trkpt>
      <trkpt lat="45.04192" lon="6.17014">
        <ele>1065</ele>
        <time>2021-12-29T07:58:47Z</time>
      </trkpt>
      <trkpt lat="45.04207" lon="6.16994">
        <ele>1066</ele>
        <time>2021-12-29T07:58:50Z</time>
      </trkpt>
      <trkpt lat="45.04266" lon="6.16912">
        <ele>1068</ele>
        <time>2021-12-29T07:59:05Z</time>
      </trkpt>
      <trkpt lat="45.0427" lon="6.16904">
        <ele>1070</ele>
        <time>2021-12-29T07:59:06Z</time>
      </trkpt>
      <trkpt lat="45.04275" lon="6.16892">
        <ele>1072</ele>
        <time>2021-12-29T07:59:08Z</time>
      </trkpt>
      <trkpt lat="45.04276" lon="6.16874">
        <ele>1072</ele>
        <time>2021-12-29T07:59:10Z</time>
      </trkpt>
      <trkpt lat="45.04275" lon="6.16866">
        <ele>1072</ele>
        <time>2021-12-29T07:59:11Z</time>
      </trkpt>
      <trkpt lat="45.04267" lon="6.16811">
        <ele>1066</ele>
        <time>2021-12-29T07:59:18Z</time>
      </trkpt>
      <trkpt lat="45.04267" lon="6.16753">
        <ele>1066</ele>
        <time>2021-12-29T07:59:26Z</time>
      </trkpt>
      <trkpt lat="45.0427" lon="6.1672">
        <ele>1066</ele>
        <time>2021-12-29T07:59:30Z</time>
      </trkpt>
      <trkpt lat="45.04277" lon="6.1669">
        <ele>1068</ele>
        <time>2021-12-29T07:59:34Z</time>
      </trkpt>
      <trkpt lat="45.043" lon="6.16617">
        <ele>1076</ele>
        <time>2021-12-29T07:59:44Z</time>
      </trkpt>
      <trkpt lat="45.0432" lon="6.16533">
        <ele>1074</ele>
        <time>2021-12-29T07:59:55Z</time>
      </trkpt>
      <trkpt lat="45.04345" lon="6.16453">
        <ele>1069</ele>
        <time>2021-12-29T08:00:06Z</time>
      </trkpt>
      <trkpt lat="45.04396" lon="6.16255">
        <ele>1062</ele>
        <time>2021-12-29T08:00:32Z</time>
      </trkpt>
      <trkpt lat="45.04401" lon="6.16236">
        <ele>1066</ele>
        <time>2021-12-29T08:00:35Z</time>
      </trkpt>
      <trkpt lat="45.04416" lon="6.16204">
        <ele>1081</ele>
        <time>2021-12-29T08:00:40Z</time>
      </trkpt>
      <trkpt lat="45.04421" lon="6.16189">
        <ele>1087</ele>
        <time>2021-12-29T08:00:42Z</time>
      </trkpt>
      <trkpt lat="45.0442" lon="6.16174">
        <ele>1088</ele>
        <time>2021-12-29T08:00:44Z</time>
      </trkpt>
      <trkpt lat="45.04412" lon="6.16154">
        <ele>1087</ele>
        <time>2021-12-29T08:00:47Z</time>
      </trkpt>
      <trkpt lat="45.04388" lon="6.16115">
        <ele>1077</ele>
        <time>2021-12-29T08:00:53Z</time>
      </trkpt>
      <trkpt lat="45.04377" lon="6.16092">
        <ele>1071</ele>
        <time>2021-12-29T08:00:57Z</time>
      </trkpt>
      <trkpt lat="45.04371" lon="6.16064">
        <ele>1069</ele>
        <time>2021-12-29T08:01:00Z</time>
      </trkpt>
      <trkpt lat="45.04371" lon="6.16015">
        <ele>1072</ele>
        <time>2021-12-29T08:01:06Z</time>
      </trkpt>
      <trkpt lat="45.04376" lon="6.15897">
        <ele>1072</ele>
        <time>2021-12-29T08:01:21Z</time>
      </trkpt>
      <trkpt lat="45.04395" lon="6.15786">
        <ele>1070</ele>
        <time>2021-12-29T08:01:36Z</time>
      </trkpt>
      <trkpt lat="45.044" lon="6.15762">
        <ele>1069</ele>
        <time>2021-12-29T08:01:39Z</time>
      </trkpt>
      <trkpt lat="45.04415" lon="6.15717">
        <ele>1069</ele>
        <time>2021-12-29T08:01:45Z</time>
      </trkpt>
      <trkpt lat="45.04421" lon="6.15695">
        <ele>1067</ele>
        <time>2021-12-29T08:01:48Z</time>
      </trkpt>
      <trkpt lat="45.04424" lon="6.1567">
        <ele>1061</ele>
        <time>2021-12-29T08:01:51Z</time>
      </trkpt>
      <trkpt lat="45.04429" lon="6.15653">
        <ele>1060</ele>
        <time>2021-12-29T08:01:54Z</time>
      </trkpt>
      <trkpt lat="45.04437" lon="6.15642">
        <ele>1063</ele>
        <time>2021-12-29T08:01:56Z</time>
      </trkpt>
      <trkpt lat="45.04443" lon="6.15639">
        <ele>1066</ele>
        <time>2021-12-29T08:01:57Z</time>
      </trkpt>
      <trkpt lat="45.04475" lon="6.15643">
        <ele>1085</ele>
        <time>2021-12-29T08:02:02Z</time>
      </trkpt>
      <trkpt lat="45.04488" lon="6.15642">
        <ele>1093</ele>
        <time>2021-12-29T08:02:05Z</time>
      </trkpt>
      <trkpt lat="45.04498" lon="6.15633">
        <ele>1097</ele>
        <time>2021-12-29T08:02:07Z</time>
      </trkpt>
      <trkpt lat="45.04508" lon="6.15616">
        <ele>1098</ele>
        <time>2021-12-29T08:02:10Z</time>
      </trkpt>
      <trkpt lat="45.04514" lon="6.15601">
        <ele>1098</ele>
        <time>2021-12-29T08:02:12Z</time>
      </trkpt>
      <trkpt lat="45.04523" lon="6.15554">
        <ele>1098</ele>
        <time>2021-12-29T08:02:18Z</time>
      </trkpt>
      <trkpt lat="45.04525" lon="6.15529">
        <ele>1099</ele>
        <time>2021-12-29T08:02:21Z</time>
      </trkpt>
      <trkpt lat="45.04585" lon="6.15071">
        <ele>1198</ele>
        <time>2021-12-29T08:03:20Z</time>
      </trkpt>
      <trkpt lat="45.04607" lon="6.14925">
        <ele>1202</ele>
        <time>2021-12-29T08:03:38Z</time>
      </trkpt>
      <trkpt lat="45.04624" lon="6.14828">
        <ele>1196</ele>
        <time>2021-12-29T08:03:51Z</time>
      </trkpt>
      <trkpt lat="45.04639" lon="6.14768">
        <ele>1208</ele>
        <time>2021-12-29T08:03:59Z</time>
      </trkpt>
      <trkpt lat="45.04782" lon="6.14373">
        <ele>1086</ele>
        <time>2021-12-29T08:04:55Z</time>
      </trkpt>
      <trkpt lat="45.04786" lon="6.1436">
        <ele>1085</ele>
        <time>2021-12-29T08:04:57Z</time>
      </trkpt>
      <trkpt lat="45.04787" lon="6.14346">
        <ele>1081</ele>
        <time>2021-12-29T08:04:58Z</time>
      </trkpt>
      <trkpt lat="45.04785" lon="6.14268">
        <ele>1068</ele>
        <time>2021-12-29T08:05:08Z</time>
      </trkpt>
      <trkpt lat="45.0478" lon="6.14242">
        <ele>1062</ele>
        <time>2021-12-29T08:05:11Z</time>
      </trkpt>
      <trkpt lat="45.04757" lon="6.14172">
        <ele>1049</ele>
        <time>2021-12-29T08:05:21Z</time>
      </trkpt>
      <trkpt lat="45.04754" lon="6.14157">
        <ele>1047</ele>
        <time>2021-12-29T08:05:23Z</time>
      </trkpt>
      <trkpt lat="45.04753" lon="6.14112">
        <ele>1048</ele>
        <time>2021-12-29T08:05:29Z</time>
      </trkpt>
      <trkpt lat="45.04744" lon="6.13977">
        <ele>1056</ele>
        <time>2021-12-29T08:05:46Z</time>
      </trkpt>
      <trkpt lat="45.04737" lon="6.13954">
        <ele>1052</ele>
        <time>2021-12-29T08:05:49Z</time>
      </trkpt>
      <trkpt lat="45.04711" lon="6.13895">
        <ele>1035</ele>
        <time>2021-12-29T08:05:58Z</time>
      </trkpt>
      <trkpt lat="45.04705" lon="6.13873">
        <ele>1030</ele>
        <time>2021-12-29T08:06:01Z</time>
      </trkpt>
      <trkpt lat="45.04705" lon="6.13832">
        <ele>1027</ele>
        <time>2021-12-29T08:06:06Z</time>
      </trkpt>
      <trkpt lat="45.04703" lon="6.13823">
        <ele>1026</ele>
        <time>2021-12-29T08:06:07Z</time>
      </trkpt>
      <trkpt lat="45.047" lon="6.13816">
        <ele>1024</ele>
        <time>2021-12-29T08:06:08Z</time>
      </trkpt>
      <trkpt lat="45.04696" lon="6.13809">
        <ele>1021</ele>
        <time>2021-12-29T08:06:09Z</time>
      </trkpt>
      <trkpt lat="45.0469" lon="6.13805">
        <ele>1018</ele>
        <time>2021-12-29T08:06:10Z</time>
      </trkpt>
      <trkpt lat="45.04585" lon="6.13785">
        <ele>1001</ele>
        <time>2021-12-29T08:06:29Z</time>
      </trkpt>
      <trkpt lat="45.0456" lon="6.13774">
        <ele>1004</ele>
        <time>2021-12-29T08:06:34Z</time>
      </trkpt>
      <trkpt lat="45.04543" lon="6.13762">
        <ele>1007</ele>
        <time>2021-12-29T08:06:37Z</time>
      </trkpt>
      <trkpt lat="45.04529" lon="6.13745">
        <ele>1011</ele>
        <time>2021-12-29T08:06:41Z</time>
      </trkpt>
      <trkpt lat="45.0452" lon="6.1373">
        <ele>1015</ele>
        <time>2021-12-29T08:06:43Z</time>
      </trkpt>
      <trkpt lat="45.04511" lon="6.1371">
        <ele>1020</ele>
        <time>2021-12-29T08:06:46Z</time>
      </trkpt>
      <trkpt lat="45.04506" lon="6.13686">
        <ele>1025</ele>
        <time>2021-12-29T08:06:49Z</time>
      </trkpt>
      <trkpt lat="45.04506" lon="6.13645">
        <ele>1033</ele>
        <time>2021-12-29T08:06:54Z</time>
      </trkpt>
      <trkpt lat="45.04508" lon="6.13626">
        <ele>1038</ele>
        <time>2021-12-29T08:06:57Z</time>
      </trkpt>
      <trkpt lat="45.04513" lon="6.13587">
        <ele>1046</ele>
        <time>2021-12-29T08:07:02Z</time>
      </trkpt>
      <trkpt lat="45.04525" lon="6.13553">
        <ele>1053</ele>
        <time>2021-12-29T08:07:06Z</time>
      </trkpt>
      <trkpt lat="45.0456" lon="6.13517">
        <ele>1050</ele>
        <time>2021-12-29T08:07:14Z</time>
      </trkpt>
      <trkpt lat="45.04596" lon="6.13473">
        <ele>1044</ele>
        <time>2021-12-29T08:07:23Z</time>
      </trkpt>
      <trkpt lat="45.04629" lon="6.13454">
        <ele>1029</ele>
        <time>2021-12-29T08:07:29Z</time>
      </trkpt>
      <trkpt lat="45.04639" lon="6.13439">
        <ele>1029</ele>
        <time>2021-12-29T08:07:32Z</time>
      </trkpt>
      <trkpt lat="45.04667" lon="6.13376">
        <ele>1033</ele>
        <time>2021-12-29T08:07:41Z</time>
      </trkpt>
      <trkpt lat="45.04679" lon="6.13335">
        <ele>1037</ele>
        <time>2021-12-29T08:07:47Z</time>
      </trkpt>
      <trkpt lat="45.04694" lon="6.13282">
        <ele>1025</ele>
        <time>2021-12-29T08:07:54Z</time>
      </trkpt>
      <trkpt lat="45.04696" lon="6.13269">
        <ele>1024</ele>
        <time>2021-12-29T08:07:55Z</time>
      </trkpt>
      <trkpt lat="45.04696" lon="6.13258">
        <ele>1023</ele>
        <time>2021-12-29T08:07:57Z</time>
      </trkpt>
      <trkpt lat="45.04694" lon="6.13247">
        <ele>1023</ele>
        <time>2021-12-29T08:07:58Z</time>
      </trkpt>
      <trkpt lat="45.04688" lon="6.13235">
        <ele>1024</ele>
        <time>2021-12-29T08:08:00Z</time>
      </trkpt>
      <trkpt lat="45.0468" lon="6.13227">
        <ele>1026</ele>
        <time>2021-12-29T08:08:02Z</time>
      </trkpt>
      <trkpt lat="45.04639" lon="6.13215">
        <ele>1033</ele>
        <time>2021-12-29T08:08:09Z</time>
      </trkpt>
      <trkpt lat="45.04619" lon="6.13202">
        <ele>1034</ele>
        <time>2021-12-29T08:08:13Z</time>
      </trkpt>
      <trkpt lat="45.04607" lon="6.13189">
        <ele>1033</ele>
        <time>2021-12-29T08:08:16Z</time>
      </trkpt>
      <trkpt lat="45.04587" lon="6.13158">
        <ele>1029</ele>
        <time>2021-12-29T08:08:21Z</time>
      </trkpt>
      <trkpt lat="45.0457" lon="6.13112">
        <ele>1023</ele>
        <time>2021-12-29T08:08:28Z</time>
      </trkpt>
      <trkpt lat="45.0456" lon="6.13091">
        <ele>1021</ele>
        <time>2021-12-29T08:08:31Z</time>
      </trkpt>
      <trkpt lat="45.04549" lon="6.13075">
        <ele>1020</ele>
        <time>2021-12-29T08:08:34Z</time>
      </trkpt>
      <trkpt lat="45.04531" lon="6.13054">
        <ele>1019</ele>
        <time>2021-12-29T08:08:38Z</time>
      </trkpt>
      <trkpt lat="45.04347" lon="6.12892">
        <ele>1001</ele>
        <time>2021-12-29T08:09:16Z</time>
      </trkpt>
      <trkpt lat="45.04314" lon="6.12859">
        <ele>998</ele>
        <time>2021-12-29T08:09:24Z</time>
      </trkpt>
      <trkpt lat="45.043" lon="6.12847">
        <ele>998</ele>
        <time>2021-12-29T08:09:26Z</time>
      </trkpt>
      <trkpt lat="45.04254" lon="6.12816">
        <ele>999</ele>
        <time>2021-12-29T08:09:35Z</time>
      </trkpt>
      <trkpt lat="45.04209" lon="6.12775">
        <ele>998</ele>
        <time>2021-12-29T08:09:45Z</time>
      </trkpt>
      <trkpt lat="45.04152" lon="6.12711">
        <ele>995</ele>
        <time>2021-12-29T08:09:58Z</time>
      </trkpt>
      <trkpt lat="45.04109" lon="6.1266">
        <ele>993</ele>
        <time>2021-12-29T08:10:08Z</time>
      </trkpt>
      <trkpt lat="45.04078" lon="6.12612">
        <ele>991</ele>
        <time>2021-12-29T08:10:16Z</time>
      </trkpt>
      <trkpt lat="45.04064" lon="6.12582">
        <ele>989</ele>
        <time>2021-12-29T08:10:21Z</time>
      </trkpt>
      <trkpt lat="45.04058" lon="6.12559">
        <ele>988</ele>
        <time>2021-12-29T08:10:24Z</time>
      </trkpt>
      <trkpt lat="45.04048" lon="6.12507">
        <ele>984</ele>
        <time>2021-12-29T08:10:30Z</time>
      </trkpt>
      <trkpt lat="45.04047" lon="6.1249">
        <ele>983</ele>
        <time>2021-12-29T08:10:33Z</time>
      </trkpt>
      <trkpt lat="45.04047" lon="6.12474">
        <ele>982</ele>
        <time>2021-12-29T08:10:35Z</time>
      </trkpt>
      <trkpt lat="45.04052" lon="6.12459">
        <ele>980</ele>
        <time>2021-12-29T08:10:37Z</time>
      </trkpt>
      <trkpt lat="45.04061" lon="6.1245">
        <ele>977</ele>
        <time>2021-12-29T08:10:39Z</time>
      </trkpt>
      <trkpt lat="45.04073" lon="6.12448">
        <ele>973</ele>
        <time>2021-12-29T08:10:41Z</time>
      </trkpt>
      <trkpt lat="45.04084" lon="6.12452">
        <ele>970</ele>
        <time>2021-12-29T08:10:43Z</time>
      </trkpt>
      <trkpt lat="45.04094" lon="6.12465">
        <ele>968</ele>
        <time>2021-12-29T08:10:45Z</time>
      </trkpt>
      <trkpt lat="45.04098" lon="6.12479">
        <ele>968</ele>
        <time>2021-12-29T08:10:47Z</time>
      </trkpt>
      <trkpt lat="45.04102" lon="6.12552">
        <ele>972</ele>
        <time>2021-12-29T08:10:56Z</time>
      </trkpt>
      <trkpt lat="45.04108" lon="6.12577">
        <ele>972</ele>
        <time>2021-12-29T08:11:00Z</time>
      </trkpt>
      <trkpt lat="45.04115" lon="6.126">
        <ele>975</ele>
        <time>2021-12-29T08:11:03Z</time>
      </trkpt>
      <trkpt lat="45.04123" lon="6.12616">
        <ele>977</ele>
        <time>2021-12-29T08:11:05Z</time>
      </trkpt>
      <trkpt lat="45.0413" lon="6.12628">
        <ele>977</ele>
        <time>2021-12-29T08:11:07Z</time>
      </trkpt>
      <trkpt lat="45.0414" lon="6.1264">
        <ele>976</ele>
        <time>2021-12-29T08:11:10Z</time>
      </trkpt>
      <trkpt lat="45.04164" lon="6.12653">
        <ele>970</ele>
        <time>2021-12-29T08:11:14Z</time>
      </trkpt>
      <trkpt lat="45.0421" lon="6.12674">
        <ele>965</ele>
        <time>2021-12-29T08:11:23Z</time>
      </trkpt>
      <trkpt lat="45.04229" lon="6.12685">
        <ele>964</ele>
        <time>2021-12-29T08:11:26Z</time>
      </trkpt>
      <trkpt lat="45.04265" lon="6.12713">
        <ele>962</ele>
        <time>2021-12-29T08:11:34Z</time>
      </trkpt>
      <trkpt lat="45.04283" lon="6.12721">
        <ele>960</ele>
        <time>2021-12-29T08:11:37Z</time>
      </trkpt>
      <trkpt lat="45.04299" lon="6.12726">
        <ele>958</ele>
        <time>2021-12-29T08:11:40Z</time>
      </trkpt>
      <trkpt lat="45.04395" lon="6.12745">
        <ele>955</ele>
        <time>2021-12-29T08:11:57Z</time>
      </trkpt>
      <trkpt lat="45.04453" lon="6.12743">
        <ele>951</ele>
        <time>2021-12-29T08:12:08Z</time>
      </trkpt>
      <trkpt lat="45.04529" lon="6.12737">
        <ele>943</ele>
        <time>2021-12-29T08:12:21Z</time>
      </trkpt>
      <trkpt lat="45.04546" lon="6.12732">
        <ele>942</ele>
        <time>2021-12-29T08:12:24Z</time>
      </trkpt>
      <trkpt lat="45.04551" lon="6.1273">
        <ele>941</ele>
        <time>2021-12-29T08:12:25Z</time>
      </trkpt>
      <trkpt lat="45.0456" lon="6.12722">
        <ele>940</ele>
        <time>2021-12-29T08:12:27Z</time>
      </trkpt>
      <trkpt lat="45.04568" lon="6.12704">
        <ele>937</ele>
        <time>2021-12-29T08:12:30Z</time>
      </trkpt>
      <trkpt lat="45.0457" lon="6.12681">
        <ele>935</ele>
        <time>2021-12-29T08:12:33Z</time>
      </trkpt>
      <trkpt lat="45.04567" lon="6.12667">
        <ele>933</ele>
        <time>2021-12-29T08:12:34Z</time>
      </trkpt>
      <trkpt lat="45.0456" lon="6.12649">
        <ele>932</ele>
        <time>2021-12-29T08:12:37Z</time>
      </trkpt>
      <trkpt lat="45.04533" lon="6.12598">
        <ele>930</ele>
        <time>2021-12-29T08:12:45Z</time>
      </trkpt>
      <trkpt lat="45.04521" lon="6.12563">
        <ele>929</ele>
        <time>2021-12-29T08:12:50Z</time>
      </trkpt>
      <trkpt lat="45.04543" lon="6.1255">
        <ele>928</ele>
        <time>2021-12-29T08:12:54Z</time>
      </trkpt>
      <trkpt lat="45.04549" lon="6.12548">
        <ele>928</ele>
        <time>2021-12-29T08:12:55Z</time>
      </trkpt>
      <trkpt lat="45.04562" lon="6.12554">
        <ele>927</ele>
        <time>2021-12-29T08:12:58Z</time>
      </trkpt>
      <trkpt lat="45.04579" lon="6.12578">
        <ele>928</ele>
        <time>2021-12-29T08:13:02Z</time>
      </trkpt>
      <trkpt lat="45.04597" lon="6.12609">
        <ele>929</ele>
        <time>2021-12-29T08:13:07Z</time>
      </trkpt>
      <trkpt lat="45.0463" lon="6.12697">
        <ele>932</ele>
        <time>2021-12-29T08:13:20Z</time>
      </trkpt>
      <trkpt lat="45.0464" lon="6.12721">
        <ele>933</ele>
        <time>2021-12-29T08:13:23Z</time>
      </trkpt>
      <trkpt lat="45.04678" lon="6.12759">
        <ele>935</ele>
        <time>2021-12-29T08:13:31Z</time>
      </trkpt>
      <trkpt lat="45.04721" lon="6.12784">
        <ele>940</ele>
        <time>2021-12-29T08:13:40Z</time>
      </trkpt>
      <trkpt lat="45.04726" lon="6.1278">
        <ele>939</ele>
        <time>2021-12-29T08:13:41Z</time>
      </trkpt>
      <trkpt lat="45.04735" lon="6.12752">
        <ele>936</ele>
        <time>2021-12-29T08:13:45Z</time>
      </trkpt>
      <trkpt lat="45.04735" lon="6.12742">
        <ele>936</ele>
        <time>2021-12-29T08:13:46Z</time>
      </trkpt>
      <trkpt lat="45.04718" lon="6.12715">
        <ele>935</ele>
        <time>2021-12-29T08:13:50Z</time>
      </trkpt>
      <trkpt lat="45.04713" lon="6.12699">
        <ele>935</ele>
        <time>2021-12-29T08:13:53Z</time>
      </trkpt>
      <trkpt lat="45.04712" lon="6.12685">
        <ele>935</ele>
        <time>2021-12-29T08:13:54Z</time>
      </trkpt>
      <trkpt lat="45.04714" lon="6.12669">
        <ele>935</ele>
        <time>2021-12-29T08:13:56Z</time>
      </trkpt>
      <trkpt lat="45.04729" lon="6.12632">
        <ele>940</ele>
        <time>2021-12-29T08:14:02Z</time>
      </trkpt>
      <trkpt lat="45.0473" lon="6.12617">
        <ele>942</ele>
        <time>2021-12-29T08:14:04Z</time>
      </trkpt>
      <trkpt lat="45.04727" lon="6.12585">
        <ele>944</ele>
        <time>2021-12-29T08:14:08Z</time>
      </trkpt>
      <trkpt lat="45.04728" lon="6.12576">
        <ele>946</ele>
        <time>2021-12-29T08:14:09Z</time>
      </trkpt>
      <trkpt lat="45.04733" lon="6.12571">
        <ele>948</ele>
        <time>2021-12-29T08:14:10Z</time>
      </trkpt>
      <trkpt lat="45.04742" lon="6.12574">
        <ele>949</ele>
        <time>2021-12-29T08:14:12Z</time>
      </trkpt>
      <trkpt lat="45.04756" lon="6.126">
        <ele>949</ele>
        <time>2021-12-29T08:14:16Z</time>
      </trkpt>
      <trkpt lat="45.04763" lon="6.12606">
        <ele>950</ele>
        <time>2021-12-29T08:14:17Z</time>
      </trkpt>
      <trkpt lat="45.04789" lon="6.12611">
        <ele>955</ele>
        <time>2021-12-29T08:14:22Z</time>
      </trkpt>
      <trkpt lat="45.04851" lon="6.12598">
        <ele>969</ele>
        <time>2021-12-29T08:14:33Z</time>
      </trkpt>
      <trkpt lat="45.04859" lon="6.12588">
        <ele>970</ele>
        <time>2021-12-29T08:14:35Z</time>
      </trkpt>
      <trkpt lat="45.04858" lon="6.12581">
        <ele>970</ele>
        <time>2021-12-29T08:14:36Z</time>
      </trkpt>
      <trkpt lat="45.04855" lon="6.12577">
        <ele>971</ele>
        <time>2021-12-29T08:14:36Z</time>
      </trkpt>
      <trkpt lat="45.0484" lon="6.12579">
        <ele>968</ele>
        <time>2021-12-29T08:14:39Z</time>
      </trkpt>
      <trkpt lat="45.04828" lon="6.12578">
        <ele>966</ele>
        <time>2021-12-29T08:14:41Z</time>
      </trkpt>
      <trkpt lat="45.04794" lon="6.1257">
        <ele>961</ele>
        <time>2021-12-29T08:14:47Z</time>
      </trkpt>
      <trkpt lat="45.04781" lon="6.12557">
        <ele>961</ele>
        <time>2021-12-29T08:14:50Z</time>
      </trkpt>
      <trkpt lat="45.04776" lon="6.12544">
        <ele>963</ele>
        <time>2021-12-29T08:14:52Z</time>
      </trkpt>
      <trkpt lat="45.04773" lon="6.12531">
        <ele>965</ele>
        <time>2021-12-29T08:14:54Z</time>
      </trkpt>
      <trkpt lat="45.04768" lon="6.12481">
        <ele>971</ele>
        <time>2021-12-29T08:15:00Z</time>
      </trkpt>
      <trkpt lat="45.04768" lon="6.12424">
        <ele>977</ele>
        <time>2021-12-29T08:15:07Z</time>
      </trkpt>
      <trkpt lat="45.04766" lon="6.12382">
        <ele>983</ele>
        <time>2021-12-29T08:15:13Z</time>
      </trkpt>
      <trkpt lat="45.04763" lon="6.12359">
        <ele>986</ele>
        <time>2021-12-29T08:15:16Z</time>
      </trkpt>
      <trkpt lat="45.04722" lon="6.12244">
        <ele>1005</ele>
        <time>2021-12-29T08:15:32Z</time>
      </trkpt>
      <trkpt lat="45.04712" lon="6.12225">
        <ele>1008</ele>
        <time>2021-12-29T08:15:35Z</time>
      </trkpt>
      <trkpt lat="45.047" lon="6.12205">
        <ele>1011</ele>
        <time>2021-12-29T08:15:38Z</time>
      </trkpt>
      <trkpt lat="45.04693" lon="6.12199">
        <ele>1012</ele>
        <time>2021-12-29T08:15:39Z</time>
      </trkpt>
      <trkpt lat="45.04637" lon="6.12165">
        <ele>1015</ele>
        <time>2021-12-29T08:15:50Z</time>
      </trkpt>
      <trkpt lat="45.04617" lon="6.1214">
        <ele>1021</ele>
        <time>2021-12-29T08:15:55Z</time>
      </trkpt>
      <trkpt lat="45.04609" lon="6.12135">
        <ele>1022</ele>
        <time>2021-12-29T08:15:57Z</time>
      </trkpt>
      <trkpt lat="45.04599" lon="6.12134">
        <ele>1022</ele>
        <time>2021-12-29T08:15:58Z</time>
      </trkpt>
      <trkpt lat="45.04571" lon="6.12137">
        <ele>1019</ele>
        <time>2021-12-29T08:16:03Z</time>
      </trkpt>
      <trkpt lat="45.04562" lon="6.12134">
        <ele>1020</ele>
        <time>2021-12-29T08:16:05Z</time>
      </trkpt>
      <trkpt lat="45.04558" lon="6.12128">
        <ele>1021</ele>
        <time>2021-12-29T08:16:06Z</time>
      </trkpt>
      <trkpt lat="45.0456" lon="6.1212">
        <ele>1023</ele>
        <time>2021-12-29T08:16:07Z</time>
      </trkpt>
      <trkpt lat="45.04571" lon="6.12112">
        <ele>1026</ele>
        <time>2021-12-29T08:16:09Z</time>
      </trkpt>
      <trkpt lat="45.04594" lon="6.12085">
        <ele>1034</ele>
        <time>2021-12-29T08:16:15Z</time>
      </trkpt>
      <trkpt lat="45.04604" lon="6.12076">
        <ele>1037</ele>
        <time>2021-12-29T08:16:17Z</time>
      </trkpt>
      <trkpt lat="45.04615" lon="6.12073">
        <ele>1038</ele>
        <time>2021-12-29T08:16:19Z</time>
      </trkpt>
      <trkpt lat="45.04641" lon="6.12077">
        <ele>1039</ele>
        <time>2021-12-29T08:16:23Z</time>
      </trkpt>
      <trkpt lat="45.04702" lon="6.12063">
        <ele>1049</ele>
        <time>2021-12-29T08:16:34Z</time>
      </trkpt>
      <trkpt lat="45.04743" lon="6.12065">
        <ele>1056</ele>
        <time>2021-12-29T08:16:42Z</time>
      </trkpt>
      <trkpt lat="45.04773" lon="6.12074">
        <ele>1060</ele>
        <time>2021-12-29T08:16:47Z</time>
      </trkpt>
      <trkpt lat="45.04795" lon="6.12089">
        <ele>1060</ele>
        <time>2021-12-29T08:16:52Z</time>
      </trkpt>
      <trkpt lat="45.04801" lon="6.1209">
        <ele>1061</ele>
        <time>2021-12-29T08:16:53Z</time>
      </trkpt>
      <trkpt lat="45.04809" lon="6.12086">
        <ele>1064</ele>
        <time>2021-12-29T08:16:54Z</time>
      </trkpt>
      <trkpt lat="45.04811" lon="6.12083">
        <ele>1065</ele>
        <time>2021-12-29T08:16:55Z</time>
      </trkpt>
      <trkpt lat="45.04809" lon="6.12077">
        <ele>1067</ele>
        <time>2021-12-29T08:16:55Z</time>
      </trkpt>
      <trkpt lat="45.04805" lon="6.1207">
        <ele>1068</ele>
        <time>2021-12-29T08:16:57Z</time>
      </trkpt>
      <trkpt lat="45.04756" lon="6.12032">
        <ele>1067</ele>
        <time>2021-12-29T08:17:07Z</time>
      </trkpt>
      <trkpt lat="45.04738" lon="6.12013">
        <ele>1068</ele>
        <time>2021-12-29T08:17:11Z</time>
      </trkpt>
      <trkpt lat="45.04728" lon="6.11995">
        <ele>1071</ele>
        <time>2021-12-29T08:17:13Z</time>
      </trkpt>
      <trkpt lat="45.0472" lon="6.11974">
        <ele>1074</ele>
        <time>2021-12-29T08:17:16Z</time>
      </trkpt>
      <trkpt lat="45.04704" lon="6.11906">
        <ele>1087</ele>
        <time>2021-12-29T08:17:25Z</time>
      </trkpt>
      <trkpt lat="45.04691" lon="6.1189">
        <ele>1089</ele>
        <time>2021-12-29T08:17:28Z</time>
      </trkpt>
      <trkpt lat="45.04644" lon="6.11854">
        <ele>1091</ele>
        <time>2021-12-29T08:17:38Z</time>
      </trkpt>
      <trkpt lat="45.04627" lon="6.11831">
        <ele>1095</ele>
        <time>2021-12-29T08:17:42Z</time>
      </trkpt>
      <trkpt lat="45.04607" lon="6.11812">
        <ele>1099</ele>
        <time>2021-12-29T08:17:46Z</time>
      </trkpt>
      <trkpt lat="45.04537" lon="6.11763">
        <ele>1103</ele>
        <time>2021-12-29T08:18:00Z</time>
      </trkpt>
      <trkpt lat="45.04514" lon="6.11743">
        <ele>1105</ele>
        <time>2021-12-29T08:18:05Z</time>
      </trkpt>
      <trkpt lat="45.04507" lon="6.11732">
        <ele>1107</ele>
        <time>2021-12-29T08:18:07Z</time>
      </trkpt>
      <trkpt lat="45.04488" lon="6.11672">
        <ele>1121</ele>
        <time>2021-12-29T08:18:15Z</time>
      </trkpt>
      <trkpt lat="45.04481" lon="6.11654">
        <ele>1126</ele>
        <time>2021-12-29T08:18:18Z</time>
      </trkpt>
      <trkpt lat="45.0447" lon="6.11638">
        <ele>1131</ele>
        <time>2021-12-29T08:18:21Z</time>
      </trkpt>
      <trkpt lat="45.04451" lon="6.11626">
        <ele>1134</ele>
        <time>2021-12-29T08:18:24Z</time>
      </trkpt>
      <trkpt lat="45.04434" lon="6.11621">
        <ele>1134</ele>
        <time>2021-12-29T08:18:27Z</time>
      </trkpt>
      <trkpt lat="45.04419" lon="6.11618">
        <ele>1133</ele>
        <time>2021-12-29T08:18:30Z</time>
      </trkpt>
      <trkpt lat="45.04379" lon="6.11616">
        <ele>1132</ele>
        <time>2021-12-29T08:18:37Z</time>
      </trkpt>
      <trkpt lat="45.04373" lon="6.11612">
        <ele>1134</ele>
        <time>2021-12-29T08:18:38Z</time>
      </trkpt>
      <trkpt lat="45.04369" lon="6.11604">
        <ele>1138</ele>
        <time>2021-12-29T08:18:40Z</time>
      </trkpt>
      <trkpt lat="45.04371" lon="6.11596">
        <ele>1142</ele>
        <time>2021-12-29T08:18:41Z</time>
      </trkpt>
      <trkpt lat="45.04377" lon="6.11591">
        <ele>1144</ele>
        <time>2021-12-29T08:18:42Z</time>
      </trkpt>
      <trkpt lat="45.04412" lon="6.11595">
        <ele>1143</ele>
        <time>2021-12-29T08:18:48Z</time>
      </trkpt>
      <trkpt lat="45.04478" lon="6.11588">
        <ele>1154</ele>
        <time>2021-12-29T08:19:00Z</time>
      </trkpt>
      <trkpt lat="45.04587" lon="6.11622">
        <ele>1160</ele>
        <time>2021-12-29T08:19:20Z</time>
      </trkpt>
      <trkpt lat="45.04624" lon="6.1164">
        <ele>1160</ele>
        <time>2021-12-29T08:19:27Z</time>
      </trkpt>
      <trkpt lat="45.04638" lon="6.11644">
        <ele>1161</ele>
        <time>2021-12-29T08:19:29Z</time>
      </trkpt>
      <trkpt lat="45.04647" lon="6.11645">
        <ele>1162</ele>
        <time>2021-12-29T08:19:31Z</time>
      </trkpt>
      <trkpt lat="45.04666" lon="6.11639">
        <ele>1168</ele>
        <time>2021-12-29T08:19:34Z</time>
      </trkpt>
      <trkpt lat="45.04682" lon="6.11641">
        <ele>1169</ele>
        <time>2021-12-29T08:19:37Z</time>
      </trkpt>
      <trkpt lat="45.04718" lon="6.11648">
        <ele>1172</ele>
        <time>2021-12-29T08:19:44Z</time>
      </trkpt>
      <trkpt lat="45.04774" lon="6.11652">
        <ele>1181</ele>
        <time>2021-12-29T08:19:54Z</time>
      </trkpt>
      <trkpt lat="45.04805" lon="6.11661">
        <ele>1185</ele>
        <time>2021-12-29T08:19:59Z</time>
      </trkpt>
      <trkpt lat="45.04828" lon="6.1167">
        <ele>1189</ele>
        <time>2021-12-29T08:20:04Z</time>
      </trkpt>
      <trkpt lat="45.04847" lon="6.11683">
        <ele>1192</ele>
        <time>2021-12-29T08:20:07Z</time>
      </trkpt>
      <trkpt lat="45.04869" lon="6.11709">
        <ele>1193</ele>
        <time>2021-12-29T08:20:12Z</time>
      </trkpt>
      <trkpt lat="45.04875" lon="6.11714">
        <ele>1194</ele>
        <time>2021-12-29T08:20:14Z</time>
      </trkpt>
      <trkpt lat="45.0488" lon="6.11714">
        <ele>1195</ele>
        <time>2021-12-29T08:20:15Z</time>
      </trkpt>
      <trkpt lat="45.04886" lon="6.1171">
        <ele>1198</ele>
        <time>2021-12-29T08:20:16Z</time>
      </trkpt>
      <trkpt lat="45.04887" lon="6.11701">
        <ele>1200</ele>
        <time>2021-12-29T08:20:17Z</time>
      </trkpt>
      <trkpt lat="45.04886" lon="6.11691">
        <ele>1202</ele>
        <time>2021-12-29T08:20:18Z</time>
      </trkpt>
      <trkpt lat="45.04878" lon="6.1168">
        <ele>1202</ele>
        <time>2021-12-29T08:20:20Z</time>
      </trkpt>
      <trkpt lat="45.04866" lon="6.11669">
        <ele>1200</ele>
        <time>2021-12-29T08:20:23Z</time>
      </trkpt>
      <trkpt lat="45.04851" lon="6.11651">
        <ele>1201</ele>
        <time>2021-12-29T08:20:26Z</time>
      </trkpt>
      <trkpt lat="45.04824" lon="6.11613">
        <ele>1206</ele>
        <time>2021-12-29T08:20:33Z</time>
      </trkpt>
      <trkpt lat="45.04803" lon="6.11592">
        <ele>1210</ele>
        <time>2021-12-29T08:20:38Z</time>
      </trkpt>
      <trkpt lat="45.04762" lon="6.11569">
        <ele>1213</ele>
        <time>2021-12-29T08:20:45Z</time>
      </trkpt>
      <trkpt lat="45.04606" lon="6.11503">
        <ele>1221</ele>
        <time>2021-12-29T08:21:14Z</time>
      </trkpt>
      <trkpt lat="45.04543" lon="6.11459">
        <ele>1227</ele>
        <time>2021-12-29T08:21:27Z</time>
      </trkpt>
      <trkpt lat="45.04525" lon="6.11443">
        <ele>1229</ele>
        <time>2021-12-29T08:21:31Z</time>
      </trkpt>
      <trkpt lat="45.04506" lon="6.11421">
        <ele>1233</ele>
        <time>2021-12-29T08:21:35Z</time>
      </trkpt>
      <trkpt lat="45.04496" lon="6.11412">
        <ele>1234</ele>
        <time>2021-12-29T08:21:37Z</time>
      </trkpt>
      <trkpt lat="45.04467" lon="6.11402">
        <ele>1234</ele>
        <time>2021-12-29T08:21:42Z</time>
      </trkpt>
      <trkpt lat="45.04452" lon="6.1139">
        <ele>1234</ele>
        <time>2021-12-29T08:21:46Z</time>
      </trkpt>
      <trkpt lat="45.04436" lon="6.11362">
        <ele>1236</ele>
        <time>2021-12-29T08:21:50Z</time>
      </trkpt>
      <trkpt lat="45.04431" lon="6.11347">
        <ele>1236</ele>
        <time>2021-12-29T08:21:52Z</time>
      </trkpt>
      <trkpt lat="45.04428" lon="6.11292">
        <ele>1235</ele>
        <time>2021-12-29T08:21:59Z</time>
      </trkpt>
      <trkpt lat="45.04433" lon="6.11257">
        <ele>1234</ele>
        <time>2021-12-29T08:22:04Z</time>
      </trkpt>
      <trkpt lat="45.04439" lon="6.11242">
        <ele>1234</ele>
        <time>2021-12-29T08:22:06Z</time>
      </trkpt>
      <trkpt lat="45.04447" lon="6.11235">
        <ele>1235</ele>
        <time>2021-12-29T08:22:07Z</time>
      </trkpt>
      <trkpt lat="45.04479" lon="6.11228">
        <ele>1240</ele>
        <time>2021-12-29T08:22:13Z</time>
      </trkpt>
      <trkpt lat="45.04489" lon="6.11219">
        <ele>1241</ele>
        <time>2021-12-29T08:22:15Z</time>
      </trkpt>
      <trkpt lat="45.04498" lon="6.11205">
        <ele>1242</ele>
        <time>2021-12-29T08:22:18Z</time>
      </trkpt>
      <trkpt lat="45.04502" lon="6.11184">
        <ele>1242</ele>
        <time>2021-12-29T08:22:20Z</time>
      </trkpt>
      <trkpt lat="45.04503" lon="6.11167">
        <ele>1241</ele>
        <time>2021-12-29T08:22:23Z</time>
      </trkpt>
      <trkpt lat="45.04499" lon="6.11152">
        <ele>1241</ele>
        <time>2021-12-29T08:22:25Z</time>
      </trkpt>
      <trkpt lat="45.04442" lon="6.1107">
        <ele>1233</ele>
        <time>2021-12-29T08:22:39Z</time>
      </trkpt>
      <trkpt lat="45.04428" lon="6.11041">
        <ele>1231</ele>
        <time>2021-12-29T08:22:43Z</time>
      </trkpt>
      <trkpt lat="45.04417" lon="6.11024">
        <ele>1229</ele>
        <time>2021-12-29T08:22:46Z</time>
      </trkpt>
      <trkpt lat="45.04406" lon="6.11013">
        <ele>1227</ele>
        <time>2021-12-29T08:22:49Z</time>
      </trkpt>
      <trkpt lat="45.0439" lon="6.11002">
        <ele>1222</ele>
        <time>2021-12-29T08:22:52Z</time>
      </trkpt>
      <trkpt lat="45.04381" lon="6.10992">
        <ele>1219</ele>
        <time>2021-12-29T08:22:54Z</time>
      </trkpt>
      <trkpt lat="45.04379" lon="6.10979">
        <ele>1217</ele>
        <time>2021-12-29T08:22:56Z</time>
      </trkpt>
      <trkpt lat="45.04393" lon="6.10926">
        <ele>1221</ele>
        <time>2021-12-29T08:23:03Z</time>
      </trkpt>
      <trkpt lat="45.04391" lon="6.10864">
        <ele>1209</ele>
        <time>2021-12-29T08:23:11Z</time>
      </trkpt>
      <trkpt lat="45.04395" lon="6.10849">
        <ele>1207</ele>
        <time>2021-12-29T08:23:13Z</time>
      </trkpt>
      <trkpt lat="45.04401" lon="6.10841">
        <ele>1208</ele>
        <time>2021-12-29T08:23:14Z</time>
      </trkpt>
      <trkpt lat="45.04431" lon="6.10812">
        <ele>1204</ele>
        <time>2021-12-29T08:23:20Z</time>
      </trkpt>
      <trkpt lat="45.04447" lon="6.10802">
        <ele>1202</ele>
        <time>2021-12-29T08:23:24Z</time>
      </trkpt>
      <trkpt lat="45.04471" lon="6.10783">
        <ele>1197</ele>
        <time>2021-12-29T08:23:28Z</time>
      </trkpt>
      <trkpt lat="45.0448" lon="6.10783">
        <ele>1199</ele>
        <time>2021-12-29T08:23:30Z</time>
      </trkpt>
      <trkpt lat="45.04507" lon="6.10799">
        <ele>1215</ele>
        <time>2021-12-29T08:23:35Z</time>
      </trkpt>
      <trkpt lat="45.04522" lon="6.10803">
        <ele>1218</ele>
        <time>2021-12-29T08:23:38Z</time>
      </trkpt>
      <trkpt lat="45.04538" lon="6.10802">
        <ele>1219</ele>
        <time>2021-12-29T08:23:41Z</time>
      </trkpt>
      <trkpt lat="45.04575" lon="6.10793">
        <ele>1217</ele>
        <time>2021-12-29T08:23:48Z</time>
      </trkpt>
      <trkpt lat="45.04609" lon="6.1077">
        <ele>1211</ele>
        <time>2021-12-29T08:23:54Z</time>
      </trkpt>
      <trkpt lat="45.04625" lon="6.10751">
        <ele>1205</ele>
        <time>2021-12-29T08:23:58Z</time>
      </trkpt>
      <trkpt lat="45.04645" lon="6.10724">
        <ele>1200</ele>
        <time>2021-12-29T08:24:03Z</time>
      </trkpt>
      <trkpt lat="45.04657" lon="6.10703">
        <ele>1196</ele>
        <time>2021-12-29T08:24:06Z</time>
      </trkpt>
      <trkpt lat="45.04669" lon="6.10676">
        <ele>1191</ele>
        <time>2021-12-29T08:24:10Z</time>
      </trkpt>
      <trkpt lat="45.04715" lon="6.10529">
        <ele>1179</ele>
        <time>2021-12-29T08:24:30Z</time>
      </trkpt>
      <trkpt lat="45.04744" lon="6.10466">
        <ele>1175</ele>
        <time>2021-12-29T08:24:40Z</time>
      </trkpt>
      <trkpt lat="45.04778" lon="6.10401">
        <ele>1168</ele>
        <time>2021-12-29T08:24:50Z</time>
      </trkpt>
      <trkpt lat="45.04788" lon="6.10387">
        <ele>1166</ele>
        <time>2021-12-29T08:24:53Z</time>
      </trkpt>
      <trkpt lat="45.04804" lon="6.10374">
        <ele>1166</ele>
        <time>2021-12-29T08:24:56Z</time>
      </trkpt>
      <trkpt lat="45.04831" lon="6.1036">
        <ele>1167</ele>
        <time>2021-12-29T08:25:01Z</time>
      </trkpt>
      <trkpt lat="45.04863" lon="6.10334">
        <ele>1164</ele>
        <time>2021-12-29T08:25:08Z</time>
      </trkpt>
      <trkpt lat="45.04902" lon="6.10298">
        <ele>1160</ele>
        <time>2021-12-29T08:25:16Z</time>
      </trkpt>
      <trkpt lat="45.04934" lon="6.10276">
        <ele>1162</ele>
        <time>2021-12-29T08:25:22Z</time>
      </trkpt>
      <trkpt lat="45.04957" lon="6.10265">
        <ele>1166</ele>
        <time>2021-12-29T08:25:26Z</time>
      </trkpt>
      <trkpt lat="45.04962" lon="6.1026">
        <ele>1167</ele>
        <time>2021-12-29T08:25:28Z</time>
      </trkpt>
      <trkpt lat="45.04966" lon="6.10252">
        <ele>1167</ele>
        <time>2021-12-29T08:25:29Z</time>
      </trkpt>
      <trkpt lat="45.04965" lon="6.10243">
        <ele>1168</ele>
        <time>2021-12-29T08:25:30Z</time>
      </trkpt>
      <trkpt lat="45.04963" lon="6.10236">
        <ele>1169</ele>
        <time>2021-12-29T08:25:31Z</time>
      </trkpt>
      <trkpt lat="45.04955" lon="6.10227">
        <ele>1169</ele>
        <time>2021-12-29T08:25:33Z</time>
      </trkpt>
      <trkpt lat="45.04937" lon="6.10218">
        <ele>1166</ele>
        <time>2021-12-29T08:25:36Z</time>
      </trkpt>
      <trkpt lat="45.04905" lon="6.10208">
        <ele>1158</ele>
        <time>2021-12-29T08:25:42Z</time>
      </trkpt>
      <trkpt lat="45.04891" lon="6.10199">
        <ele>1155</ele>
        <time>2021-12-29T08:25:45Z</time>
      </trkpt>
      <trkpt lat="45.04857" lon="6.10159">
        <ele>1151</ele>
        <time>2021-12-29T08:25:53Z</time>
      </trkpt>
      <trkpt lat="45.04831" lon="6.1012">
        <ele>1147</ele>
        <time>2021-12-29T08:25:59Z</time>
      </trkpt>
      <trkpt lat="45.0482" lon="6.10099">
        <ele>1144</ele>
        <time>2021-12-29T08:26:03Z</time>
      </trkpt>
      <trkpt lat="45.04818" lon="6.10086">
        <ele>1145</ele>
        <time>2021-12-29T08:26:04Z</time>
      </trkpt>
      <trkpt lat="45.0482" lon="6.10074">
        <ele>1145</ele>
        <time>2021-12-29T08:26:06Z</time>
      </trkpt>
      <trkpt lat="45.04826" lon="6.10059">
        <ele>1147</ele>
        <time>2021-12-29T08:26:08Z</time>
      </trkpt>
      <trkpt lat="45.04868" lon="6.10007">
        <ele>1170</ele>
        <time>2021-12-29T08:26:18Z</time>
      </trkpt>
      <trkpt lat="45.04874" lon="6.09973">
        <ele>1175</ele>
        <time>2021-12-29T08:26:22Z</time>
      </trkpt>
      <trkpt lat="45.04876" lon="6.09932">
        <ele>1179</ele>
        <time>2021-12-29T08:26:27Z</time>
      </trkpt>
      <trkpt lat="45.04871" lon="6.09911">
        <ele>1179</ele>
        <time>2021-12-29T08:26:30Z</time>
      </trkpt>
      <trkpt lat="45.04865" lon="6.09896">
        <ele>1180</ele>
        <time>2021-12-29T08:26:32Z</time>
      </trkpt>
      <trkpt lat="45.04843" lon="6.09886">
        <ele>1172</ele>
        <time>2021-12-29T08:26:37Z</time>
      </trkpt>
      <trkpt lat="45.0483" lon="6.09875">
        <ele>1169</ele>
        <time>2021-12-29T08:26:39Z</time>
      </trkpt>
      <trkpt lat="45.04819" lon="6.09856">
        <ele>1169</ele>
        <time>2021-12-29T08:26:42Z</time>
      </trkpt>
      <trkpt lat="45.04801" lon="6.09798">
        <ele>1171</ele>
        <time>2021-12-29T08:26:50Z</time>
      </trkpt>
      <trkpt lat="45.04796" lon="6.09773">
        <ele>1172</ele>
        <time>2021-12-29T08:26:54Z</time>
      </trkpt>
      <trkpt lat="45.04793" lon="6.09745">
        <ele>1174</ele>
        <time>2021-12-29T08:26:57Z</time>
      </trkpt>
      <trkpt lat="45.04798" lon="6.09687">
        <ele>1183</ele>
        <time>2021-12-29T08:27:04Z</time>
      </trkpt>
      <trkpt lat="45.048" lon="6.09643">
        <ele>1188</ele>
        <time>2021-12-29T08:27:10Z</time>
      </trkpt>
      <trkpt lat="45.04796" lon="6.09603">
        <ele>1189</ele>
        <time>2021-12-29T08:27:15Z</time>
      </trkpt>
      <trkpt lat="45.04764" lon="6.09419">
        <ele>1192</ele>
        <time>2021-12-29T08:27:39Z</time>
      </trkpt>
      <trkpt lat="45.04751" lon="6.09375">
        <ele>1188</ele>
        <time>2021-12-29T08:27:45Z</time>
      </trkpt>
      <trkpt lat="45.04741" lon="6.09354">
        <ele>1188</ele>
        <time>2021-12-29T08:27:48Z</time>
      </trkpt>
      <trkpt lat="45.04728" lon="6.09335">
        <ele>1187</ele>
        <time>2021-12-29T08:27:51Z</time>
      </trkpt>
      <trkpt lat="45.04691" lon="6.09291">
        <ele>1184</ele>
        <time>2021-12-29T08:28:00Z</time>
      </trkpt>
      <trkpt lat="45.04666" lon="6.0925">
        <ele>1182</ele>
        <time>2021-12-29T08:28:07Z</time>
      </trkpt>
      <trkpt lat="45.04638" lon="6.09186">
        <ele>1185</ele>
        <time>2021-12-29T08:28:16Z</time>
      </trkpt>
      <trkpt lat="45.04635" lon="6.09175">
        <ele>1186</ele>
        <time>2021-12-29T08:28:18Z</time>
      </trkpt>
      <trkpt lat="45.04634" lon="6.09167">
        <ele>1187</ele>
        <time>2021-12-29T08:28:19Z</time>
      </trkpt>
      <trkpt lat="45.04638" lon="6.09131">
        <ele>1192</ele>
        <time>2021-12-29T08:28:23Z</time>
      </trkpt>
      <trkpt lat="45.04637" lon="6.09123">
        <ele>1193</ele>
        <time>2021-12-29T08:28:24Z</time>
      </trkpt>
      <trkpt lat="45.0463" lon="6.09112">
        <ele>1193</ele>
        <time>2021-12-29T08:28:26Z</time>
      </trkpt>
      <trkpt lat="45.04625" lon="6.0911">
        <ele>1192</ele>
        <time>2021-12-29T08:28:27Z</time>
      </trkpt>
      <trkpt lat="45.04574" lon="6.09109">
        <ele>1185</ele>
        <time>2021-12-29T08:28:36Z</time>
      </trkpt>
      <trkpt lat="45.04555" lon="6.091">
        <ele>1185</ele>
        <time>2021-12-29T08:28:40Z</time>
      </trkpt>
      <trkpt lat="45.04497" lon="6.09066">
        <ele>1190</ele>
        <time>2021-12-29T08:28:51Z</time>
      </trkpt>
      <trkpt lat="45.04416" lon="6.09039">
        <ele>1198</ele>
        <time>2021-12-29T08:29:06Z</time>
      </trkpt>
      <trkpt lat="45.0439" lon="6.09026">
        <ele>1198</ele>
        <time>2021-12-29T08:29:11Z</time>
      </trkpt>
      <trkpt lat="45.04375" lon="6.09008">
        <ele>1199</ele>
        <time>2021-12-29T08:29:14Z</time>
      </trkpt>
      <trkpt lat="45.04353" lon="6.08965">
        <ele>1205</ele>
        <time>2021-12-29T08:29:21Z</time>
      </trkpt>
      <trkpt lat="45.04341" lon="6.08938">
        <ele>1207</ele>
        <time>2021-12-29T08:29:25Z</time>
      </trkpt>
      <trkpt lat="45.04327" lon="6.089">
        <ele>1210</ele>
        <time>2021-12-29T08:29:30Z</time>
      </trkpt>
      <trkpt lat="45.04314" lon="6.0885">
        <ele>1216</ele>
        <time>2021-12-29T08:29:37Z</time>
      </trkpt>
      <trkpt lat="45.04301" lon="6.08816">
        <ele>1219</ele>
        <time>2021-12-29T08:29:42Z</time>
      </trkpt>
      <trkpt lat="45.04282" lon="6.08783">
        <ele>1221</ele>
        <time>2021-12-29T08:29:47Z</time>
      </trkpt>
      <trkpt lat="45.04264" lon="6.0876">
        <ele>1222</ele>
        <time>2021-12-29T08:29:51Z</time>
      </trkpt>
      <trkpt lat="45.04253" lon="6.08749">
        <ele>1222</ele>
        <time>2021-12-29T08:29:54Z</time>
      </trkpt>
      <trkpt lat="45.04244" lon="6.08735">
        <ele>1223</ele>
        <time>2021-12-29T08:29:56Z</time>
      </trkpt>
      <trkpt lat="45.04235" lon="6.0871">
        <ele>1228</ele>
        <time>2021-12-29T08:30:00Z</time>
      </trkpt>
      <trkpt lat="45.04228" lon="6.08695">
        <ele>1231</ele>
        <time>2021-12-29T08:30:02Z</time>
      </trkpt>
      <trkpt lat="45.04221" lon="6.08686">
        <ele>1230</ele>
        <time>2021-12-29T08:30:04Z</time>
      </trkpt>
      <trkpt lat="45.0421" lon="6.08678">
        <ele>1227</ele>
        <time>2021-12-29T08:30:06Z</time>
      </trkpt>
      <trkpt lat="45.042" lon="6.08666">
        <ele>1226</ele>
        <time>2021-12-29T08:30:08Z</time>
      </trkpt>
      <trkpt lat="45.04192" lon="6.08656">
        <ele>1226</ele>
        <time>2021-12-29T08:30:10Z</time>
      </trkpt>
      <trkpt lat="45.04167" lon="6.08609">
        <ele>1230</ele>
        <time>2021-12-29T08:30:18Z</time>
      </trkpt>
      <trkpt lat="45.04156" lon="6.08583">
        <ele>1236</ele>
        <time>2021-12-29T08:30:21Z</time>
      </trkpt>
      <trkpt lat="45.04152" lon="6.0855">
        <ele>1247</ele>
        <time>2021-12-29T08:30:26Z</time>
      </trkpt>
      <trkpt lat="45.04147" lon="6.08537">
        <ele>1250</ele>
        <time>2021-12-29T08:30:27Z</time>
      </trkpt>
      <trkpt lat="45.04077" lon="6.08488">
        <ele>1243</ele>
        <time>2021-12-29T08:30:41Z</time>
      </trkpt>
      <trkpt lat="45.04034" lon="6.08437">
        <ele>1243</ele>
        <time>2021-12-29T08:30:51Z</time>
      </trkpt>
      <trkpt lat="45.04032" lon="6.08425">
        <ele>1246</ele>
        <time>2021-12-29T08:30:53Z</time>
      </trkpt>
      <trkpt lat="45.03989" lon="6.08379">
        <ele>1247</ele>
        <time>2021-12-29T08:31:02Z</time>
      </trkpt>
      <trkpt lat="45.03969" lon="6.08361">
        <ele>1248</ele>
        <time>2021-12-29T08:31:07Z</time>
      </trkpt>
      <trkpt lat="45.0392" lon="6.08329">
        <ele>1244</ele>
        <time>2021-12-29T08:31:16Z</time>
      </trkpt>
      <trkpt lat="45.03912" lon="6.08319">
        <ele>1245</ele>
        <time>2021-12-29T08:31:18Z</time>
      </trkpt>
      <trkpt lat="45.0388" lon="6.08302">
        <ele>1245</ele>
        <time>2021-12-29T08:31:24Z</time>
      </trkpt>
      <trkpt lat="45.03847" lon="6.08272">
        <ele>1248</ele>
        <time>2021-12-29T08:31:31Z</time>
      </trkpt>
      <trkpt lat="45.03809" lon="6.08227">
        <ele>1252</ele>
        <time>2021-12-29T08:31:40Z</time>
      </trkpt>
      <trkpt lat="45.03778" lon="6.08203">
        <ele>1248</ele>
        <time>2021-12-29T08:31:46Z</time>
      </trkpt>
      <trkpt lat="45.03767" lon="6.08191">
        <ele>1246</ele>
        <time>2021-12-29T08:31:49Z</time>
      </trkpt>
      <trkpt lat="45.0376" lon="6.0817">
        <ele>1248</ele>
        <time>2021-12-29T08:31:52Z</time>
      </trkpt>
      <trkpt lat="45.03755" lon="6.08144">
        <ele>1248</ele>
        <time>2021-12-29T08:31:55Z</time>
      </trkpt>
      <trkpt lat="45.03757" lon="6.08098">
        <ele>1252</ele>
        <time>2021-12-29T08:32:01Z</time>
      </trkpt>
      <trkpt lat="45.03775" lon="6.08031">
        <ele>1261</ele>
        <time>2021-12-29T08:32:10Z</time>
      </trkpt>
      <trkpt lat="45.03809" lon="6.07946">
        <ele>1271</ele>
        <time>2021-12-29T08:32:22Z</time>
      </trkpt>
      <trkpt lat="45.03819" lon="6.07882">
        <ele>1272</ele>
        <time>2021-12-29T08:32:30Z</time>
      </trkpt>
      <trkpt lat="45.03826" lon="6.07866">
        <ele>1274</ele>
        <time>2021-12-29T08:32:33Z</time>
      </trkpt>
      <trkpt lat="45.03854" lon="6.07843">
        <ele>1282</ele>
        <time>2021-12-29T08:32:39Z</time>
      </trkpt>
      <trkpt lat="45.03864" lon="6.07831">
        <ele>1284</ele>
        <time>2021-12-29T08:32:41Z</time>
      </trkpt>
      <trkpt lat="45.03873" lon="6.07809">
        <ele>1286</ele>
        <time>2021-12-29T08:32:44Z</time>
      </trkpt>
      <trkpt lat="45.03878" lon="6.07783">
        <ele>1287</ele>
        <time>2021-12-29T08:32:47Z</time>
      </trkpt>
      <trkpt lat="45.03884" lon="6.07766">
        <ele>1288</ele>
        <time>2021-12-29T08:32:50Z</time>
      </trkpt>
      <trkpt lat="45.03897" lon="6.0775">
        <ele>1291</ele>
        <time>2021-12-29T08:32:53Z</time>
      </trkpt>
      <trkpt lat="45.03941" lon="6.07718">
        <ele>1305</ele>
        <time>2021-12-29T08:33:02Z</time>
      </trkpt>
      <trkpt lat="45.03953" lon="6.07698">
        <ele>1308</ele>
        <time>2021-12-29T08:33:05Z</time>
      </trkpt>
      <trkpt lat="45.03953" lon="6.07686">
        <ele>1307</ele>
        <time>2021-12-29T08:33:07Z</time>
      </trkpt>
      <trkpt lat="45.03949" lon="6.07671">
        <ele>1305</ele>
        <time>2021-12-29T08:33:09Z</time>
      </trkpt>
      <trkpt lat="45.03938" lon="6.07662">
        <ele>1303</ele>
        <time>2021-12-29T08:33:11Z</time>
      </trkpt>
      <trkpt lat="45.03904" lon="6.07646">
        <ele>1298</ele>
        <time>2021-12-29T08:33:17Z</time>
      </trkpt>
      <trkpt lat="45.03899" lon="6.07638">
        <ele>1299</ele>
        <time>2021-12-29T08:33:19Z</time>
      </trkpt>
      <trkpt lat="45.0383" lon="6.0746">
        <ele>1316</ele>
        <time>2021-12-29T08:33:44Z</time>
      </trkpt>
      <trkpt lat="45.03819" lon="6.07445">
        <ele>1316</ele>
        <time>2021-12-29T08:33:47Z</time>
      </trkpt>
      <trkpt lat="45.03788" lon="6.07416">
        <ele>1313</ele>
        <time>2021-12-29T08:33:53Z</time>
      </trkpt>
      <trkpt lat="45.03784" lon="6.07399">
        <ele>1315</ele>
        <time>2021-12-29T08:33:56Z</time>
      </trkpt>
      <trkpt lat="45.03779" lon="6.07356">
        <ele>1322</ele>
        <time>2021-12-29T08:34:01Z</time>
      </trkpt>
      <trkpt lat="45.03773" lon="6.0734">
        <ele>1323</ele>
        <time>2021-12-29T08:34:03Z</time>
      </trkpt>
      <trkpt lat="45.03765" lon="6.07325">
        <ele>1322</ele>
        <time>2021-12-29T08:34:06Z</time>
      </trkpt>
      <trkpt lat="45.03757" lon="6.07319">
        <ele>1319</ele>
        <time>2021-12-29T08:34:07Z</time>
      </trkpt>
      <trkpt lat="45.03746" lon="6.07305">
        <ele>1314</ele>
        <time>2021-12-29T08:34:10Z</time>
      </trkpt>
      <trkpt lat="45.03742" lon="6.07293">
        <ele>1312</ele>
        <time>2021-12-29T08:34:12Z</time>
      </trkpt>
      <trkpt lat="45.03741" lon="6.07287">
        <ele>1311</ele>
        <time>2021-12-29T08:34:12Z</time>
      </trkpt>
      <trkpt lat="45.03743" lon="6.07281">
        <ele>1312</ele>
        <time>2021-12-29T08:34:13Z</time>
      </trkpt>
      <trkpt lat="45.03747" lon="6.07274">
        <ele>1314</ele>
        <time>2021-12-29T08:34:14Z</time>
      </trkpt>
      <trkpt lat="45.03774" lon="6.07246">
        <ele>1329</ele>
        <time>2021-12-29T08:34:20Z</time>
      </trkpt>
      <trkpt lat="45.03782" lon="6.07217">
        <ele>1325</ele>
        <time>2021-12-29T08:34:24Z</time>
      </trkpt>
      <trkpt lat="45.03813" lon="6.07167">
        <ele>1331</ele>
        <time>2021-12-29T08:34:33Z</time>
      </trkpt>
      <trkpt lat="45.03831" lon="6.07124">
        <ele>1323</ele>
        <time>2021-12-29T08:34:39Z</time>
      </trkpt>
      <trkpt lat="45.03838" lon="6.07089">
        <ele>1311</ele>
        <time>2021-12-29T08:34:44Z</time>
      </trkpt>
      <trkpt lat="45.03844" lon="6.07073">
        <ele>1304</ele>
        <time>2021-12-29T08:34:46Z</time>
      </trkpt>
      <trkpt lat="45.03852" lon="6.07064">
        <ele>1303</ele>
        <time>2021-12-29T08:34:48Z</time>
      </trkpt>
      <trkpt lat="45.03882" lon="6.07064">
        <ele>1322</ele>
        <time>2021-12-29T08:34:53Z</time>
      </trkpt>
      <trkpt lat="45.03891" lon="6.07061">
        <ele>1326</ele>
        <time>2021-12-29T08:34:55Z</time>
      </trkpt>
      <trkpt lat="45.03899" lon="6.0705">
        <ele>1324</ele>
        <time>2021-12-29T08:34:57Z</time>
      </trkpt>
      <trkpt lat="45.03916" lon="6.07042">
        <ele>1331</ele>
        <time>2021-12-29T08:35:00Z</time>
      </trkpt>
      <trkpt lat="45.03929" lon="6.07034">
        <ele>1331</ele>
        <time>2021-12-29T08:35:02Z</time>
      </trkpt>
      <trkpt lat="45.03935" lon="6.07025">
        <ele>1328</ele>
        <time>2021-12-29T08:35:04Z</time>
      </trkpt>
      <trkpt lat="45.03987" lon="6.07003">
        <ele>1330</ele>
        <time>2021-12-29T08:35:14Z</time>
      </trkpt>
      <trkpt lat="45.0402" lon="6.07005">
        <ele>1339</ele>
        <time>2021-12-29T08:35:19Z</time>
      </trkpt>
      <trkpt lat="45.04031" lon="6.07002">
        <ele>1339</ele>
        <time>2021-12-29T08:35:21Z</time>
      </trkpt>
      <trkpt lat="45.04048" lon="6.06982">
        <ele>1328</ele>
        <time>2021-12-29T08:35:25Z</time>
      </trkpt>
      <trkpt lat="45.04059" lon="6.06975">
        <ele>1327</ele>
        <time>2021-12-29T08:35:27Z</time>
      </trkpt>
      <trkpt lat="45.04072" lon="6.06974">
        <ele>1331</ele>
        <time>2021-12-29T08:35:30Z</time>
      </trkpt>
      <trkpt lat="45.04111" lon="6.06984">
        <ele>1348</ele>
        <time>2021-12-29T08:35:37Z</time>
      </trkpt>
      <trkpt lat="45.0412" lon="6.06983">
        <ele>1350</ele>
        <time>2021-12-29T08:35:38Z</time>
      </trkpt>
      <trkpt lat="45.04127" lon="6.06976">
        <ele>1349</ele>
        <time>2021-12-29T08:35:40Z</time>
      </trkpt>
      <trkpt lat="45.04141" lon="6.06935">
        <ele>1333</ele>
        <time>2021-12-29T08:35:46Z</time>
      </trkpt>
      <trkpt lat="45.04152" lon="6.06908">
        <ele>1321</ele>
        <time>2021-12-29T08:35:50Z</time>
      </trkpt>
      <trkpt lat="45.04163" lon="6.06901">
        <ele>1320</ele>
        <time>2021-12-29T08:35:52Z</time>
      </trkpt>
      <trkpt lat="45.04193" lon="6.06873">
        <ele>1316</ele>
        <time>2021-12-29T08:35:58Z</time>
      </trkpt>
      <trkpt lat="45.04202" lon="6.0687">
        <ele>1318</ele>
        <time>2021-12-29T08:36:00Z</time>
      </trkpt>
      <trkpt lat="45.0422" lon="6.06859">
        <ele>1320</ele>
        <time>2021-12-29T08:36:03Z</time>
      </trkpt>
      <trkpt lat="45.04229" lon="6.06856">
        <ele>1322</ele>
        <time>2021-12-29T08:36:05Z</time>
      </trkpt>
      <trkpt lat="45.04241" lon="6.06856">
        <ele>1328</ele>
        <time>2021-12-29T08:36:07Z</time>
      </trkpt>
      <trkpt lat="45.0425" lon="6.06852">
        <ele>1330</ele>
        <time>2021-12-29T08:36:09Z</time>
      </trkpt>
      <trkpt lat="45.04254" lon="6.06847">
        <ele>1329</ele>
        <time>2021-12-29T08:36:10Z</time>
      </trkpt>
      <trkpt lat="45.04258" lon="6.0683">
        <ele>1321</ele>
        <time>2021-12-29T08:36:12Z</time>
      </trkpt>
      <trkpt lat="45.04262" lon="6.0682">
        <ele>1317</ele>
        <time>2021-12-29T08:36:13Z</time>
      </trkpt>
      <trkpt lat="45.04278" lon="6.06806">
        <ele>1317</ele>
        <time>2021-12-29T08:36:17Z</time>
      </trkpt>
      <trkpt lat="45.0429" lon="6.06791">
        <ele>1316</ele>
        <time>2021-12-29T08:36:20Z</time>
      </trkpt>
      <trkpt lat="45.043" lon="6.06769">
        <ele>1310</ele>
        <time>2021-12-29T08:36:23Z</time>
      </trkpt>
      <trkpt lat="45.04316" lon="6.0675">
        <ele>1311</ele>
        <time>2021-12-29T08:36:27Z</time>
      </trkpt>
      <trkpt lat="45.04362" lon="6.06675">
        <ele>1294</ele>
        <time>2021-12-29T08:36:39Z</time>
      </trkpt>
      <trkpt lat="45.04389" lon="6.06654">
        <ele>1304</ele>
        <time>2021-12-29T08:36:45Z</time>
      </trkpt>
      <trkpt lat="45.0442" lon="6.06616">
        <ele>1308</ele>
        <time>2021-12-29T08:36:52Z</time>
      </trkpt>
      <trkpt lat="45.04429" lon="6.06592">
        <ele>1301</ele>
        <time>2021-12-29T08:36:55Z</time>
      </trkpt>
      <trkpt lat="45.04433" lon="6.06572">
        <ele>1288</ele>
        <time>2021-12-29T08:36:58Z</time>
      </trkpt>
      <trkpt lat="45.04458" lon="6.06538">
        <ele>1278</ele>
        <time>2021-12-29T08:37:04Z</time>
      </trkpt>
      <trkpt lat="45.04481" lon="6.0652">
        <ele>1285</ele>
        <time>2021-12-29T08:37:09Z</time>
      </trkpt>
      <trkpt lat="45.04499" lon="6.06504">
        <ele>1290</ele>
        <time>2021-12-29T08:37:12Z</time>
      </trkpt>
      <trkpt lat="45.04528" lon="6.06492">
        <ele>1302</ele>
        <time>2021-12-29T08:37:18Z</time>
      </trkpt>
      <trkpt lat="45.04551" lon="6.06481">
        <ele>1308</ele>
        <time>2021-12-29T08:37:22Z</time>
      </trkpt>
      <trkpt lat="45.04607" lon="6.06474">
        <ele>1338</ele>
        <time>2021-12-29T08:37:32Z</time>
      </trkpt>
      <trkpt lat="45.04613" lon="6.0647">
        <ele>1336</ele>
        <time>2021-12-29T08:37:33Z</time>
      </trkpt>
      <trkpt lat="45.04621" lon="6.06457">
        <ele>1325</ele>
        <time>2021-12-29T08:37:36Z</time>
      </trkpt>
      <trkpt lat="45.0463" lon="6.06435">
        <ele>1306</ele>
        <time>2021-12-29T08:37:39Z</time>
      </trkpt>
      <trkpt lat="45.04636" lon="6.0643">
        <ele>1304</ele>
        <time>2021-12-29T08:37:40Z</time>
      </trkpt>
      <trkpt lat="45.04661" lon="6.06403">
        <ele>1294</ele>
        <time>2021-12-29T08:37:46Z</time>
      </trkpt>
      <trkpt lat="45.04673" lon="6.06383">
        <ele>1279</ele>
        <time>2021-12-29T08:37:49Z</time>
      </trkpt>
      <trkpt lat="45.04697" lon="6.06365">
        <ele>1271</ele>
        <time>2021-12-29T08:37:54Z</time>
      </trkpt>
      <trkpt lat="45.04708" lon="6.06339">
        <ele>1251</ele>
        <time>2021-12-29T08:37:58Z</time>
      </trkpt>
      <trkpt lat="45.0472" lon="6.06332">
        <ele>1251</ele>
        <time>2021-12-29T08:38:00Z</time>
      </trkpt>
      <trkpt lat="45.0473" lon="6.06332">
        <ele>1257</ele>
        <time>2021-12-29T08:38:02Z</time>
      </trkpt>
      <trkpt lat="45.04735" lon="6.06336">
        <ele>1264</ele>
        <time>2021-12-29T08:38:03Z</time>
      </trkpt>
      <trkpt lat="45.04749" lon="6.06356">
        <ele>1290</ele>
        <time>2021-12-29T08:38:06Z</time>
      </trkpt>
      <trkpt lat="45.04765" lon="6.06367">
        <ele>1309</ele>
        <time>2021-12-29T08:38:09Z</time>
      </trkpt>
      <trkpt lat="45.0477" lon="6.06366">
        <ele>1312</ele>
        <time>2021-12-29T08:38:10Z</time>
      </trkpt>
      <trkpt lat="45.04775" lon="6.06361">
        <ele>1310</ele>
        <time>2021-12-29T08:38:11Z</time>
      </trkpt>
      <trkpt lat="45.04786" lon="6.06325">
        <ele>1283</ele>
        <time>2021-12-29T08:38:16Z</time>
      </trkpt>
      <trkpt lat="45.04791" lon="6.06318">
        <ele>1280</ele>
        <time>2021-12-29T08:38:17Z</time>
      </trkpt>
      <trkpt lat="45.04802" lon="6.06308">
        <ele>1278</ele>
        <time>2021-12-29T08:38:20Z</time>
      </trkpt>
      <trkpt lat="45.04808" lon="6.06298">
        <ele>1274</ele>
        <time>2021-12-29T08:38:21Z</time>
      </trkpt>
      <trkpt lat="45.04812" lon="6.06288">
        <ele>1268</ele>
        <time>2021-12-29T08:38:23Z</time>
      </trkpt>
      <trkpt lat="45.04833" lon="6.06265">
        <ele>1261</ele>
        <time>2021-12-29T08:38:28Z</time>
      </trkpt>
      <trkpt lat="45.04843" lon="6.06246">
        <ele>1254</ele>
        <time>2021-12-29T08:38:31Z</time>
      </trkpt>
      <trkpt lat="45.04852" lon="6.06235">
        <ele>1253</ele>
        <time>2021-12-29T08:38:33Z</time>
      </trkpt>
      <trkpt lat="45.04882" lon="6.0623">
        <ele>1273</ele>
        <time>2021-12-29T08:38:38Z</time>
      </trkpt>
      <trkpt lat="45.04904" lon="6.06196">
        <ele>1263</ele>
        <time>2021-12-29T08:38:44Z</time>
      </trkpt>
      <trkpt lat="45.04941" lon="6.0615">
        <ele>1249</ele>
        <time>2021-12-29T08:38:53Z</time>
      </trkpt>
      <trkpt lat="45.04956" lon="6.06114">
        <ele>1226</ele>
        <time>2021-12-29T08:38:58Z</time>
      </trkpt>
      <trkpt lat="45.04966" lon="6.06106">
        <ele>1225</ele>
        <time>2021-12-29T08:39:00Z</time>
      </trkpt>
      <trkpt lat="45.04985" lon="6.06099">
        <ele>1232</ele>
        <time>2021-12-29T08:39:03Z</time>
      </trkpt>
      <trkpt lat="45.05008" lon="6.06087">
        <ele>1238</ele>
        <time>2021-12-29T08:39:08Z</time>
      </trkpt>
      <trkpt lat="45.05052" lon="6.06041">
        <ele>1228</ele>
        <time>2021-12-29T08:39:18Z</time>
      </trkpt>
      <trkpt lat="45.05084" lon="6.05997">
        <ele>1216</ele>
        <time>2021-12-29T08:39:25Z</time>
      </trkpt>
      <trkpt lat="45.051" lon="6.06">
        <ele>1229</ele>
        <time>2021-12-29T08:39:28Z</time>
      </trkpt>
      <trkpt lat="45.05108" lon="6.05996">
        <ele>1230</ele>
        <time>2021-12-29T08:39:30Z</time>
      </trkpt>
      <trkpt lat="45.05115" lon="6.0598">
        <ele>1222</ele>
        <time>2021-12-29T08:39:32Z</time>
      </trkpt>
      <trkpt lat="45.05125" lon="6.05975">
        <ele>1225</ele>
        <time>2021-12-29T08:39:34Z</time>
      </trkpt>
      <trkpt lat="45.0513" lon="6.05969">
        <ele>1224</ele>
        <time>2021-12-29T08:39:35Z</time>
      </trkpt>
      <trkpt lat="45.05143" lon="6.05947">
        <ele>1217</ele>
        <time>2021-12-29T08:39:39Z</time>
      </trkpt>
      <trkpt lat="45.05154" lon="6.05935">
        <ele>1217</ele>
        <time>2021-12-29T08:39:41Z</time>
      </trkpt>
      <trkpt lat="45.05166" lon="6.05913">
        <ele>1212</ele>
        <time>2021-12-29T08:39:45Z</time>
      </trkpt>
      <trkpt lat="45.05185" lon="6.05899">
        <ele>1215</ele>
        <time>2021-12-29T08:39:49Z</time>
      </trkpt>
      <trkpt lat="45.05189" lon="6.05894">
        <ele>1214</ele>
        <time>2021-12-29T08:39:50Z</time>
      </trkpt>
      <trkpt lat="45.05194" lon="6.05882">
        <ele>1210</ele>
        <time>2021-12-29T08:39:51Z</time>
      </trkpt>
      <trkpt lat="45.05201" lon="6.05855">
        <ele>1198</ele>
        <time>2021-12-29T08:39:55Z</time>
      </trkpt>
      <trkpt lat="45.05223" lon="6.05801">
        <ele>1183</ele>
        <time>2021-12-29T08:40:03Z</time>
      </trkpt>
      <trkpt lat="45.05227" lon="6.05794">
        <ele>1183</ele>
        <time>2021-12-29T08:40:04Z</time>
      </trkpt>
      <trkpt lat="45.0525" lon="6.05779">
        <ele>1196</ele>
        <time>2021-12-29T08:40:08Z</time>
      </trkpt>
      <trkpt lat="45.05254" lon="6.05775">
        <ele>1197</ele>
        <time>2021-12-29T08:40:09Z</time>
      </trkpt>
      <trkpt lat="45.05257" lon="6.05765">
        <ele>1193</ele>
        <time>2021-12-29T08:40:11Z</time>
      </trkpt>
      <trkpt lat="45.05262" lon="6.05724">
        <ele>1176</ele>
        <time>2021-12-29T08:40:16Z</time>
      </trkpt>
      <trkpt lat="45.05268" lon="6.05714">
        <ele>1175</ele>
        <time>2021-12-29T08:40:18Z</time>
      </trkpt>
      <trkpt lat="45.05305" lon="6.05665">
        <ele>1178</ele>
        <time>2021-12-29T08:40:27Z</time>
      </trkpt>
      <trkpt lat="45.05341" lon="6.05629">
        <ele>1185</ele>
        <time>2021-12-29T08:40:34Z</time>
      </trkpt>
      <trkpt lat="45.05378" lon="6.05584">
        <ele>1184</ele>
        <time>2021-12-29T08:40:43Z</time>
      </trkpt>
      <trkpt lat="45.0541" lon="6.05527">
        <ele>1180</ele>
        <time>2021-12-29T08:40:52Z</time>
      </trkpt>
      <trkpt lat="45.05427" lon="6.05494">
        <ele>1176</ele>
        <time>2021-12-29T08:40:57Z</time>
      </trkpt>
      <trkpt lat="45.05436" lon="6.05484">
        <ele>1177</ele>
        <time>2021-12-29T08:40:59Z</time>
      </trkpt>
      <trkpt lat="45.05442" lon="6.0548">
        <ele>1178</ele>
        <time>2021-12-29T08:41:01Z</time>
      </trkpt>
      <trkpt lat="45.05449" lon="6.0548">
        <ele>1180</ele>
        <time>2021-12-29T08:41:02Z</time>
      </trkpt>
      <trkpt lat="45.05465" lon="6.05492">
        <ele>1191</ele>
        <time>2021-12-29T08:41:05Z</time>
      </trkpt>
      <trkpt lat="45.05469" lon="6.05489">
        <ele>1191</ele>
        <time>2021-12-29T08:41:06Z</time>
      </trkpt>
      <trkpt lat="45.05483" lon="6.05469">
        <ele>1191</ele>
        <time>2021-12-29T08:41:09Z</time>
      </trkpt>
      <trkpt lat="45.05482" lon="6.05455">
        <ele>1186</ele>
        <time>2021-12-29T08:41:11Z</time>
      </trkpt>
      <trkpt lat="45.05477" lon="6.05435">
        <ele>1177</ele>
        <time>2021-12-29T08:41:14Z</time>
      </trkpt>
      <trkpt lat="45.05473" lon="6.05399">
        <ele>1166</ele>
        <time>2021-12-29T08:41:18Z</time>
      </trkpt>
      <trkpt lat="45.05484" lon="6.05376">
        <ele>1167</ele>
        <time>2021-12-29T08:41:22Z</time>
      </trkpt>
      <trkpt lat="45.05513" lon="6.05297">
        <ele>1166</ele>
        <time>2021-12-29T08:41:33Z</time>
      </trkpt>
      <trkpt lat="45.05558" lon="6.0519">
        <ele>1156</ele>
        <time>2021-12-29T08:41:49Z</time>
      </trkpt>
      <trkpt lat="45.05568" lon="6.05175">
        <ele>1155</ele>
        <time>2021-12-29T08:41:51Z</time>
      </trkpt>
      <trkpt lat="45.05576" lon="6.05169">
        <ele>1156</ele>
        <time>2021-12-29T08:41:53Z</time>
      </trkpt>
      <trkpt lat="45.05595" lon="6.05169">
        <ele>1156</ele>
        <time>2021-12-29T08:41:56Z</time>
      </trkpt>
      <trkpt lat="45.05651" lon="6.05186">
        <ele>1154</ele>
        <time>2021-12-29T08:42:07Z</time>
      </trkpt>
      <trkpt lat="45.05678" lon="6.05206">
        <ele>1157</ele>
        <time>2021-12-29T08:42:12Z</time>
      </trkpt>
      <trkpt lat="45.0573" lon="6.05235">
        <ele>1159</ele>
        <time>2021-12-29T08:42:22Z</time>
      </trkpt>
      <trkpt lat="45.05738" lon="6.05241">
        <ele>1160</ele>
        <time>2021-12-29T08:42:24Z</time>
      </trkpt>
      <trkpt lat="45.05742" lon="6.05248">
        <ele>1162</ele>
        <time>2021-12-29T08:42:25Z</time>
      </trkpt>
      <trkpt lat="45.05745" lon="6.05257">
        <ele>1166</ele>
        <time>2021-12-29T08:42:26Z</time>
      </trkpt>
      <trkpt lat="45.0575" lon="6.05265">
        <ele>1168</ele>
        <time>2021-12-29T08:42:27Z</time>
      </trkpt>
      <trkpt lat="45.05769" lon="6.0528">
        <ele>1173</ele>
        <time>2021-12-29T08:42:31Z</time>
      </trkpt>
      <trkpt lat="45.05776" lon="6.05283">
        <ele>1174</ele>
        <time>2021-12-29T08:42:32Z</time>
      </trkpt>
      <trkpt lat="45.05781" lon="6.05281">
        <ele>1173</ele>
        <time>2021-12-29T08:42:33Z</time>
      </trkpt>
      <trkpt lat="45.05783" lon="6.05278">
        <ele>1172</ele>
        <time>2021-12-29T08:42:34Z</time>
      </trkpt>
      <trkpt lat="45.05794" lon="6.0524">
        <ele>1156</ele>
        <time>2021-12-29T08:42:39Z</time>
      </trkpt>
      <trkpt lat="45.05804" lon="6.0522">
        <ele>1147</ele>
        <time>2021-12-29T08:42:42Z</time>
      </trkpt>
      <trkpt lat="45.05814" lon="6.05186">
        <ele>1133</ele>
        <time>2021-12-29T08:42:47Z</time>
      </trkpt>
      <trkpt lat="45.05819" lon="6.05175">
        <ele>1128</ele>
        <time>2021-12-29T08:42:48Z</time>
      </trkpt>
      <trkpt lat="45.05829" lon="6.05166">
        <ele>1125</ele>
        <time>2021-12-29T08:42:50Z</time>
      </trkpt>
      <trkpt lat="45.05886" lon="6.05164">
        <ele>1132</ele>
        <time>2021-12-29T08:43:01Z</time>
      </trkpt>
      <trkpt lat="45.05907" lon="6.05159">
        <ele>1134</ele>
        <time>2021-12-29T08:43:04Z</time>
      </trkpt>
      <trkpt lat="45.05921" lon="6.05161">
        <ele>1138</ele>
        <time>2021-12-29T08:43:07Z</time>
      </trkpt>
      <trkpt lat="45.05931" lon="6.05166">
        <ele>1142</ele>
        <time>2021-12-29T08:43:09Z</time>
      </trkpt>
      <trkpt lat="45.05935" lon="6.05164">
        <ele>1143</ele>
        <time>2021-12-29T08:43:10Z</time>
      </trkpt>
      <trkpt lat="45.05937" lon="6.05159">
        <ele>1142</ele>
        <time>2021-12-29T08:43:10Z</time>
      </trkpt>
      <trkpt lat="45.05935" lon="6.05137">
        <ele>1135</ele>
        <time>2021-12-29T08:43:13Z</time>
      </trkpt>
      <trkpt lat="45.05928" lon="6.05103">
        <ele>1124</ele>
        <time>2021-12-29T08:43:18Z</time>
      </trkpt>
      <trkpt lat="45.05923" lon="6.05059">
        <ele>1113</ele>
        <time>2021-12-29T08:43:23Z</time>
      </trkpt>
      <trkpt lat="45.05923" lon="6.05024">
        <ele>1107</ele>
        <time>2021-12-29T08:43:28Z</time>
      </trkpt>
      <trkpt lat="45.05928" lon="6.04994">
        <ele>1102</ele>
        <time>2021-12-29T08:43:31Z</time>
      </trkpt>
      <trkpt lat="45.05933" lon="6.04982">
        <ele>1099</ele>
        <time>2021-12-29T08:43:33Z</time>
      </trkpt>
      <trkpt lat="45.05944" lon="6.04972">
        <ele>1098</ele>
        <time>2021-12-29T08:43:35Z</time>
      </trkpt>
      <trkpt lat="45.05954" lon="6.04968">
        <ele>1099</ele>
        <time>2021-12-29T08:43:37Z</time>
      </trkpt>
      <trkpt lat="45.06016" lon="6.04965">
        <ele>1107</ele>
        <time>2021-12-29T08:43:48Z</time>
      </trkpt>
      <trkpt lat="45.06035" lon="6.04968">
        <ele>1111</ele>
        <time>2021-12-29T08:43:52Z</time>
      </trkpt>
      <trkpt lat="45.06049" lon="6.04968">
        <ele>1112</ele>
        <time>2021-12-29T08:43:54Z</time>
      </trkpt>
      <trkpt lat="45.06058" lon="6.04964">
        <ele>1111</ele>
        <time>2021-12-29T08:43:56Z</time>
      </trkpt>
      <trkpt lat="45.06068" lon="6.04957">
        <ele>1109</ele>
        <time>2021-12-29T08:43:58Z</time>
      </trkpt>
      <trkpt lat="45.06076" lon="6.04943">
        <ele>1105</ele>
        <time>2021-12-29T08:44:00Z</time>
      </trkpt>
      <trkpt lat="45.06095" lon="6.04902">
        <ele>1095</ele>
        <time>2021-12-29T08:44:06Z</time>
      </trkpt>
      <trkpt lat="45.06107" lon="6.04853">
        <ele>1085</ele>
        <time>2021-12-29T08:44:13Z</time>
      </trkpt>
      <trkpt lat="45.06112" lon="6.04839">
        <ele>1082</ele>
        <time>2021-12-29T08:44:15Z</time>
      </trkpt>
      <trkpt lat="45.06122" lon="6.04827">
        <ele>1082</ele>
        <time>2021-12-29T08:44:17Z</time>
      </trkpt>
      <trkpt lat="45.0614" lon="6.04813">
        <ele>1084</ele>
        <time>2021-12-29T08:44:21Z</time>
      </trkpt>
      <trkpt lat="45.06146" lon="6.04806">
        <ele>1084</ele>
        <time>2021-12-29T08:44:22Z</time>
      </trkpt>
      <trkpt lat="45.06152" lon="6.04793">
        <ele>1082</ele>
        <time>2021-12-29T08:44:24Z</time>
      </trkpt>
      <trkpt lat="45.06171" lon="6.04745">
        <ele>1071</ele>
        <time>2021-12-29T08:44:31Z</time>
      </trkpt>
      <trkpt lat="45.06181" lon="6.04727">
        <ele>1065</ele>
        <time>2021-12-29T08:44:34Z</time>
      </trkpt>
      <trkpt lat="45.06186" lon="6.04722">
        <ele>1063</ele>
        <time>2021-12-29T08:44:35Z</time>
      </trkpt>
      <trkpt lat="45.06192" lon="6.04721">
        <ele>1063</ele>
        <time>2021-12-29T08:44:36Z</time>
      </trkpt>
      <trkpt lat="45.06228" lon="6.04735">
        <ele>1070</ele>
        <time>2021-12-29T08:44:43Z</time>
      </trkpt>
      <trkpt lat="45.06251" lon="6.04739">
        <ele>1072</ele>
        <time>2021-12-29T08:44:47Z</time>
      </trkpt>
      <trkpt lat="45.06306" lon="6.04767">
        <ele>1066</ele>
        <time>2021-12-29T08:44:57Z</time>
      </trkpt>
      <trkpt lat="45.06432" lon="6.04824">
        <ele>1060</ele>
        <time>2021-12-29T08:45:21Z</time>
      </trkpt>
      <trkpt lat="45.06451" lon="6.04828">
        <ele>1060</ele>
        <time>2021-12-29T08:45:24Z</time>
      </trkpt>
      <trkpt lat="45.06475" lon="6.04827">
        <ele>1056</ele>
        <time>2021-12-29T08:45:29Z</time>
      </trkpt>
      <trkpt lat="45.06496" lon="6.04818">
        <ele>1049</ele>
        <time>2021-12-29T08:45:32Z</time>
      </trkpt>
      <trkpt lat="45.06513" lon="6.04802">
        <ele>1039</ele>
        <time>2021-12-29T08:45:36Z</time>
      </trkpt>
      <trkpt lat="45.06524" lon="6.04795">
        <ele>1034</ele>
        <time>2021-12-29T08:45:38Z</time>
      </trkpt>
      <trkpt lat="45.06531" lon="6.04792">
        <ele>1032</ele>
        <time>2021-12-29T08:45:39Z</time>
      </trkpt>
      <trkpt lat="45.0654" lon="6.04791">
        <ele>1030</ele>
        <time>2021-12-29T08:45:41Z</time>
      </trkpt>
      <trkpt lat="45.06548" lon="6.04794">
        <ele>1029</ele>
        <time>2021-12-29T08:45:43Z</time>
      </trkpt>
      <trkpt lat="45.06555" lon="6.048">
        <ele>1030</ele>
        <time>2021-12-29T08:45:44Z</time>
      </trkpt>
      <trkpt lat="45.06572" lon="6.04819">
        <ele>1032</ele>
        <time>2021-12-29T08:45:48Z</time>
      </trkpt>
      <trkpt lat="45.06599" lon="6.04832">
        <ele>1029</ele>
        <time>2021-12-29T08:45:53Z</time>
      </trkpt>
      <trkpt lat="45.06611" lon="6.04843">
        <ele>1029</ele>
        <time>2021-12-29T08:45:56Z</time>
      </trkpt>
      <trkpt lat="45.06616" lon="6.04855">
        <ele>1032</ele>
        <time>2021-12-29T08:45:57Z</time>
      </trkpt>
      <trkpt lat="45.06624" lon="6.04871">
        <ele>1034</ele>
        <time>2021-12-29T08:46:00Z</time>
      </trkpt>
      <trkpt lat="45.06641" lon="6.04888">
        <ele>1034</ele>
        <time>2021-12-29T08:46:03Z</time>
      </trkpt>
      <trkpt lat="45.0666" lon="6.04897">
        <ele>1029</ele>
        <time>2021-12-29T08:46:07Z</time>
      </trkpt>
      <trkpt lat="45.0668" lon="6.04913">
        <ele>1026</ele>
        <time>2021-12-29T08:46:11Z</time>
      </trkpt>
      <trkpt lat="45.06727" lon="6.04945">
        <ele>1020</ele>
        <time>2021-12-29T08:46:20Z</time>
      </trkpt>
      <trkpt lat="45.06732" lon="6.04951">
        <ele>1019</ele>
        <time>2021-12-29T08:46:22Z</time>
      </trkpt>
      <trkpt lat="45.06785" lon="6.05046">
        <ele>1018</ele>
        <time>2021-12-29T08:46:37Z</time>
      </trkpt>
      <trkpt lat="45.06792" lon="6.05053">
        <ele>1016</ele>
        <time>2021-12-29T08:46:38Z</time>
      </trkpt>
      <trkpt lat="45.06821" lon="6.05061">
        <ele>1005</ele>
        <time>2021-12-29T08:46:44Z</time>
      </trkpt>
      <trkpt lat="45.06834" lon="6.05082">
        <ele>1004</ele>
        <time>2021-12-29T08:46:47Z</time>
      </trkpt>
      <trkpt lat="45.06852" lon="6.05115">
        <ele>1005</ele>
        <time>2021-12-29T08:46:52Z</time>
      </trkpt>
      <trkpt lat="45.06861" lon="6.05125">
        <ele>1004</ele>
        <time>2021-12-29T08:46:54Z</time>
      </trkpt>
      <trkpt lat="45.06907" lon="6.0516">
        <ele>995</ele>
        <time>2021-12-29T08:47:04Z</time>
      </trkpt>
      <trkpt lat="45.06915" lon="6.05169">
        <ele>994</ele>
        <time>2021-12-29T08:47:05Z</time>
      </trkpt>
      <trkpt lat="45.06982" lon="6.05273">
        <ele>994</ele>
        <time>2021-12-29T08:47:23Z</time>
      </trkpt>
      <trkpt lat="45.06985" lon="6.05291">
        <ele>997</ele>
        <time>2021-12-29T08:47:25Z</time>
      </trkpt>
      <trkpt lat="45.06982" lon="6.05324">
        <ele>1006</ele>
        <time>2021-12-29T08:47:30Z</time>
      </trkpt>
      <trkpt lat="45.06982" lon="6.05332">
        <ele>1008</ele>
        <time>2021-12-29T08:47:31Z</time>
      </trkpt>
      <trkpt lat="45.06986" lon="6.05339">
        <ele>1008</ele>
        <time>2021-12-29T08:47:32Z</time>
      </trkpt>
      <trkpt lat="45.07002" lon="6.05351">
        <ele>1004</ele>
        <time>2021-12-29T08:47:35Z</time>
      </trkpt>
      <trkpt lat="45.07007" lon="6.05352">
        <ele>1007</ele>
        <time>2021-12-29T08:47:36Z</time>
      </trkpt>
      <trkpt lat="45.07011" lon="6.05348">
        <ele>1008</ele>
        <time>2021-12-29T08:47:37Z</time>
      </trkpt>
      <trkpt lat="45.07027" lon="6.05315">
        <ele>1008</ele>
        <time>2021-12-29T08:47:42Z</time>
      </trkpt>
      <trkpt lat="45.07031" lon="6.05303">
        <ele>1006</ele>
        <time>2021-12-29T08:47:43Z</time>
      </trkpt>
      <trkpt lat="45.07033" lon="6.05292">
        <ele>1004</ele>
        <time>2021-12-29T08:47:45Z</time>
      </trkpt>
      <trkpt lat="45.07036" lon="6.05248">
        <ele>995</ele>
        <time>2021-12-29T08:47:50Z</time>
      </trkpt>
      <trkpt lat="45.07038" lon="6.05236">
        <ele>994</ele>
        <time>2021-12-29T08:47:52Z</time>
      </trkpt>
      <trkpt lat="45.07046" lon="6.05217">
        <ele>994</ele>
        <time>2021-12-29T08:47:55Z</time>
      </trkpt>
      <trkpt lat="45.07053" lon="6.05185">
        <ele>992</ele>
        <time>2021-12-29T08:47:59Z</time>
      </trkpt>
      <trkpt lat="45.07052" lon="6.05131">
        <ele>986</ele>
        <time>2021-12-29T08:48:06Z</time>
      </trkpt>
      <trkpt lat="45.07062" lon="6.05069">
        <ele>986</ele>
        <time>2021-12-29T08:48:14Z</time>
      </trkpt>
      <trkpt lat="45.07062" lon="6.05046">
        <ele>984</ele>
        <time>2021-12-29T08:48:17Z</time>
      </trkpt>
      <trkpt lat="45.0706" lon="6.05022">
        <ele>982</ele>
        <time>2021-12-29T08:48:20Z</time>
      </trkpt>
      <trkpt lat="45.07041" lon="6.04954">
        <ele>970</ele>
        <time>2021-12-29T08:48:29Z</time>
      </trkpt>
      <trkpt lat="45.07039" lon="6.04937">
        <ele>968</ele>
        <time>2021-12-29T08:48:31Z</time>
      </trkpt>
      <trkpt lat="45.0704" lon="6.04907">
        <ele>968</ele>
        <time>2021-12-29T08:48:35Z</time>
      </trkpt>
      <trkpt lat="45.07052" lon="6.0489">
        <ele>974</ele>
        <time>2021-12-29T08:48:38Z</time>
      </trkpt>
      <trkpt lat="45.07061" lon="6.04886">
        <ele>977</ele>
        <time>2021-12-29T08:48:39Z</time>
      </trkpt>
      <trkpt lat="45.07067" lon="6.04877">
        <ele>980</ele>
        <time>2021-12-29T08:48:41Z</time>
      </trkpt>
      <trkpt lat="45.0707" lon="6.04868">
        <ele>981</ele>
        <time>2021-12-29T08:48:42Z</time>
      </trkpt>
      <trkpt lat="45.07071" lon="6.04856">
        <ele>982</ele>
        <time>2021-12-29T08:48:44Z</time>
      </trkpt>
      <trkpt lat="45.07068" lon="6.04849">
        <ele>981</ele>
        <time>2021-12-29T08:48:45Z</time>
      </trkpt>
      <trkpt lat="45.0706" lon="6.04844">
        <ele>978</ele>
        <time>2021-12-29T08:48:46Z</time>
      </trkpt>
      <trkpt lat="45.07046" lon="6.04841">
        <ele>974</ele>
        <time>2021-12-29T08:48:49Z</time>
      </trkpt>
      <trkpt lat="45.07035" lon="6.04842">
        <ele>970</ele>
        <time>2021-12-29T08:48:51Z</time>
      </trkpt>
      <trkpt lat="45.07027" lon="6.04839">
        <ele>967</ele>
        <time>2021-12-29T08:48:52Z</time>
      </trkpt>
      <trkpt lat="45.07023" lon="6.04832">
        <ele>967</ele>
        <time>2021-12-29T08:48:53Z</time>
      </trkpt>
      <trkpt lat="45.07019" lon="6.04821">
        <ele>967</ele>
        <time>2021-12-29T08:48:55Z</time>
      </trkpt>
      <trkpt lat="45.07011" lon="6.04771">
        <ele>971</ele>
        <time>2021-12-29T08:49:01Z</time>
      </trkpt>
      <trkpt lat="45.07001" lon="6.04749">
        <ele>970</ele>
        <time>2021-12-29T08:49:05Z</time>
      </trkpt>
      <trkpt lat="45.06971" lon="6.0467">
        <ele>974</ele>
        <time>2021-12-29T08:49:16Z</time>
      </trkpt>
      <trkpt lat="45.06953" lon="6.04648">
        <ele>974</ele>
        <time>2021-12-29T08:49:20Z</time>
      </trkpt>
      <trkpt lat="45.06939" lon="6.04636">
        <ele>973</ele>
        <time>2021-12-29T08:49:23Z</time>
      </trkpt>
      <trkpt lat="45.06916" lon="6.04618">
        <ele>971</ele>
        <time>2021-12-29T08:49:28Z</time>
      </trkpt>
      <trkpt lat="45.06883" lon="6.04599">
        <ele>970</ele>
        <time>2021-12-29T08:49:34Z</time>
      </trkpt>
      <trkpt lat="45.06867" lon="6.04588">
        <ele>969</ele>
        <time>2021-12-29T08:49:37Z</time>
      </trkpt>
      <trkpt lat="45.06854" lon="6.04574">
        <ele>970</ele>
        <time>2021-12-29T08:49:40Z</time>
      </trkpt>
      <trkpt lat="45.06825" lon="6.04519">
        <ele>975</ele>
        <time>2021-12-29T08:49:49Z</time>
      </trkpt>
      <trkpt lat="45.06816" lon="6.04505">
        <ele>977</ele>
        <time>2021-12-29T08:49:51Z</time>
      </trkpt>
      <trkpt lat="45.06807" lon="6.04496">
        <ele>977</ele>
        <time>2021-12-29T08:49:53Z</time>
      </trkpt>
      <trkpt lat="45.06793" lon="6.04492">
        <ele>976</ele>
        <time>2021-12-29T08:49:56Z</time>
      </trkpt>
      <trkpt lat="45.06761" lon="6.0448">
        <ele>973</ele>
        <time>2021-12-29T08:50:02Z</time>
      </trkpt>
      <trkpt lat="45.06749" lon="6.04467">
        <ele>972</ele>
        <time>2021-12-29T08:50:04Z</time>
      </trkpt>
      <trkpt lat="45.06731" lon="6.04426">
        <ele>973</ele>
        <time>2021-12-29T08:50:10Z</time>
      </trkpt>
      <trkpt lat="45.06732" lon="6.0441">
        <ele>973</ele>
        <time>2021-12-29T08:50:12Z</time>
      </trkpt>
      <trkpt lat="45.06719" lon="6.04392">
        <ele>966</ele>
        <time>2021-12-29T08:50:16Z</time>
      </trkpt>
      <trkpt lat="45.06717" lon="6.0438">
        <ele>964</ele>
        <time>2021-12-29T08:50:17Z</time>
      </trkpt>
      <trkpt lat="45.0672" lon="6.04372">
        <ele>963</ele>
        <time>2021-12-29T08:50:18Z</time>
      </trkpt>
      <trkpt lat="45.06726" lon="6.04364">
        <ele>964</ele>
        <time>2021-12-29T08:50:20Z</time>
      </trkpt>
      <trkpt lat="45.06822" lon="6.04285">
        <ele>964</ele>
        <time>2021-12-29T08:50:40Z</time>
      </trkpt>
      <trkpt lat="45.06832" lon="6.0428">
        <ele>965</ele>
        <time>2021-12-29T08:50:41Z</time>
      </trkpt>
      <trkpt lat="45.06848" lon="6.0428">
        <ele>969</ele>
        <time>2021-12-29T08:50:44Z</time>
      </trkpt>
      <trkpt lat="45.06878" lon="6.04289">
        <ele>982</ele>
        <time>2021-12-29T08:50:50Z</time>
      </trkpt>
      <trkpt lat="45.06885" lon="6.04288">
        <ele>983</ele>
        <time>2021-12-29T08:50:51Z</time>
      </trkpt>
      <trkpt lat="45.0689" lon="6.04279">
        <ele>979</ele>
        <time>2021-12-29T08:50:52Z</time>
      </trkpt>
      <trkpt lat="45.06889" lon="6.04272">
        <ele>975</ele>
        <time>2021-12-29T08:50:53Z</time>
      </trkpt>
      <trkpt lat="45.06883" lon="6.04266">
        <ele>970</ele>
        <time>2021-12-29T08:50:55Z</time>
      </trkpt>
      <trkpt lat="45.06832" lon="6.04261">
        <ele>956</ele>
        <time>2021-12-29T08:51:04Z</time>
      </trkpt>
      <trkpt lat="45.06803" lon="6.04263">
        <ele>947</ele>
        <time>2021-12-29T08:51:09Z</time>
      </trkpt>
      <trkpt lat="45.06764" lon="6.0428">
        <ele>943</ele>
        <time>2021-12-29T08:51:16Z</time>
      </trkpt>
      <trkpt lat="45.06749" lon="6.04282">
        <ele>939</ele>
        <time>2021-12-29T08:51:19Z</time>
      </trkpt>
      <trkpt lat="45.06717" lon="6.04282">
        <ele>931</ele>
        <time>2021-12-29T08:51:25Z</time>
      </trkpt>
      <trkpt lat="45.06707" lon="6.04287">
        <ele>930</ele>
        <time>2021-12-29T08:51:26Z</time>
      </trkpt>
      <trkpt lat="45.06679" lon="6.04309">
        <ele>932</ele>
        <time>2021-12-29T08:51:32Z</time>
      </trkpt>
      <trkpt lat="45.0666" lon="6.04315">
        <ele>926</ele>
        <time>2021-12-29T08:51:36Z</time>
      </trkpt>
      <trkpt lat="45.06629" lon="6.04321">
        <ele>908</ele>
        <time>2021-12-29T08:51:41Z</time>
      </trkpt>
      <trkpt lat="45.06605" lon="6.04333">
        <ele>895</ele>
        <time>2021-12-29T08:51:46Z</time>
      </trkpt>
      <trkpt lat="45.06598" lon="6.04333">
        <ele>890</ele>
        <time>2021-12-29T08:51:47Z</time>
      </trkpt>
      <trkpt lat="45.06593" lon="6.04328">
        <ele>886</ele>
        <time>2021-12-29T08:51:48Z</time>
      </trkpt>
      <trkpt lat="45.06592" lon="6.04319">
        <ele>883</ele>
        <time>2021-12-29T08:51:49Z</time>
      </trkpt>
      <trkpt lat="45.06595" lon="6.04312">
        <ele>884</ele>
        <time>2021-12-29T08:51:50Z</time>
      </trkpt>
      <trkpt lat="45.06598" lon="6.04309">
        <ele>885</ele>
        <time>2021-12-29T08:51:51Z</time>
      </trkpt>
      <trkpt lat="45.06678" lon="6.04265">
        <ele>913</ele>
        <time>2021-12-29T08:52:06Z</time>
      </trkpt>
      <trkpt lat="45.06694" lon="6.04251">
        <ele>911</ele>
        <time>2021-12-29T08:52:09Z</time>
      </trkpt>
      <trkpt lat="45.0673" lon="6.04207">
        <ele>895</ele>
        <time>2021-12-29T08:52:18Z</time>
      </trkpt>
      <trkpt lat="45.06746" lon="6.04194">
        <ele>890</ele>
        <time>2021-12-29T08:52:21Z</time>
      </trkpt>
      <trkpt lat="45.06753" lon="6.04191">
        <ele>890</ele>
        <time>2021-12-29T08:52:23Z</time>
      </trkpt>
      <trkpt lat="45.06765" lon="6.04192">
        <ele>893</ele>
        <time>2021-12-29T08:52:25Z</time>
      </trkpt>
      <trkpt lat="45.06789" lon="6.04208">
        <ele>908</ele>
        <time>2021-12-29T08:52:29Z</time>
      </trkpt>
      <trkpt lat="45.06795" lon="6.04208">
        <ele>910</ele>
        <time>2021-12-29T08:52:30Z</time>
      </trkpt>
      <trkpt lat="45.068" lon="6.04201">
        <ele>906</ele>
        <time>2021-12-29T08:52:32Z</time>
      </trkpt>
      <trkpt lat="45.068" lon="6.04192">
        <ele>900</ele>
        <time>2021-12-29T08:52:33Z</time>
      </trkpt>
      <trkpt lat="45.06798" lon="6.04188">
        <ele>897</ele>
        <time>2021-12-29T08:52:33Z</time>
      </trkpt>
      <trkpt lat="45.06794" lon="6.04185">
        <ele>894</ele>
        <time>2021-12-29T08:52:34Z</time>
      </trkpt>
      <trkpt lat="45.06764" lon="6.04175">
        <ele>883</ele>
        <time>2021-12-29T08:52:40Z</time>
      </trkpt>
      <trkpt lat="45.06757" lon="6.04174">
        <ele>881</ele>
        <time>2021-12-29T08:52:41Z</time>
      </trkpt>
      <trkpt lat="45.0673" lon="6.04184">
        <ele>882</ele>
        <time>2021-12-29T08:52:46Z</time>
      </trkpt>
      <trkpt lat="45.06648" lon="6.04226">
        <ele>885</ele>
        <time>2021-12-29T08:53:01Z</time>
      </trkpt>
      <trkpt lat="45.06645" lon="6.04225">
        <ele>883</ele>
        <time>2021-12-29T08:53:02Z</time>
      </trkpt>
      <trkpt lat="45.0664" lon="6.0422">
        <ele>879</ele>
        <time>2021-12-29T08:53:03Z</time>
      </trkpt>
      <trkpt lat="45.0664" lon="6.04211">
        <ele>875</ele>
        <time>2021-12-29T08:53:04Z</time>
      </trkpt>
      <trkpt lat="45.06641" lon="6.04208">
        <ele>874</ele>
        <time>2021-12-29T08:53:05Z</time>
      </trkpt>
      <trkpt lat="45.06648" lon="6.04203">
        <ele>874</ele>
        <time>2021-12-29T08:53:06Z</time>
      </trkpt>
      <trkpt lat="45.06684" lon="6.04184">
        <ele>874</ele>
        <time>2021-12-29T08:53:13Z</time>
      </trkpt>
      <trkpt lat="45.06746" lon="6.04145">
        <ele>864</ele>
        <time>2021-12-29T08:53:25Z</time>
      </trkpt>
      <trkpt lat="45.06806" lon="6.04113">
        <ele>856</ele>
        <time>2021-12-29T08:53:36Z</time>
      </trkpt>
      <trkpt lat="45.06831" lon="6.04105">
        <ele>856</ele>
        <time>2021-12-29T08:53:41Z</time>
      </trkpt>
      <trkpt lat="45.06918" lon="6.04085">
        <ele>857</ele>
        <time>2021-12-29T08:53:57Z</time>
      </trkpt>
      <trkpt lat="45.06927" lon="6.04079">
        <ele>857</ele>
        <time>2021-12-29T08:53:58Z</time>
      </trkpt>
      <trkpt lat="45.06962" lon="6.04024">
        <ele>844</ele>
        <time>2021-12-29T08:54:08Z</time>
      </trkpt>
      <trkpt lat="45.06985" lon="6.04">
        <ele>840</ele>
        <time>2021-12-29T08:54:13Z</time>
      </trkpt>
      <trkpt lat="45.07013" lon="6.03963">
        <ele>830</ele>
        <time>2021-12-29T08:54:20Z</time>
      </trkpt>
      <trkpt lat="45.07036" lon="6.03941">
        <ele>825</ele>
        <time>2021-12-29T08:54:25Z</time>
      </trkpt>
      <trkpt lat="45.07061" lon="6.03926">
        <ele>823</ele>
        <time>2021-12-29T08:54:29Z</time>
      </trkpt>
      <trkpt lat="45.07093" lon="6.03913">
        <ele>823</ele>
        <time>2021-12-29T08:54:35Z</time>
      </trkpt>
      <trkpt lat="45.07105" lon="6.03912">
        <ele>822</ele>
        <time>2021-12-29T08:54:37Z</time>
      </trkpt>
      <trkpt lat="45.07178" lon="6.03929">
        <ele>834</ele>
        <time>2021-12-29T08:54:51Z</time>
      </trkpt>
      <trkpt lat="45.07184" lon="6.03925">
        <ele>832</ele>
        <time>2021-12-29T08:54:52Z</time>
      </trkpt>
      <trkpt lat="45.07187" lon="6.03915">
        <ele>826</ele>
        <time>2021-12-29T08:54:53Z</time>
      </trkpt>
      <trkpt lat="45.07186" lon="6.03909">
        <ele>823</ele>
        <time>2021-12-29T08:54:54Z</time>
      </trkpt>
      <trkpt lat="45.07181" lon="6.03901">
        <ele>820</ele>
        <time>2021-12-29T08:54:55Z</time>
      </trkpt>
      <trkpt lat="45.07173" lon="6.03898">
        <ele>818</ele>
        <time>2021-12-29T08:54:57Z</time>
      </trkpt>
      <trkpt lat="45.07153" lon="6.03897">
        <ele>817</ele>
        <time>2021-12-29T08:55:00Z</time>
      </trkpt>
      <trkpt lat="45.07135" lon="6.03893">
        <ele>814</ele>
        <time>2021-12-29T08:55:04Z</time>
      </trkpt>
      <trkpt lat="45.07091" lon="6.03879">
        <ele>805</ele>
        <time>2021-12-29T08:55:12Z</time>
      </trkpt>
      <trkpt lat="45.07052" lon="6.0387">
        <ele>794</ele>
        <time>2021-12-29T08:55:19Z</time>
      </trkpt>
      <trkpt lat="45.07024" lon="6.03869">
        <ele>788</ele>
        <time>2021-12-29T08:55:24Z</time>
      </trkpt>
      <trkpt lat="45.07012" lon="6.03872">
        <ele>787</ele>
        <time>2021-12-29T08:55:26Z</time>
      </trkpt>
      <trkpt lat="45.06976" lon="6.03886">
        <ele>784</ele>
        <time>2021-12-29T08:55:32Z</time>
      </trkpt>
      <trkpt lat="45.06936" lon="6.03909">
        <ele>782</ele>
        <time>2021-12-29T08:55:40Z</time>
      </trkpt>
      <trkpt lat="45.06914" lon="6.03918">
        <ele>780</ele>
        <time>2021-12-29T08:55:44Z</time>
      </trkpt>
      <trkpt lat="45.06872" lon="6.03929">
        <ele>774</ele>
        <time>2021-12-29T08:55:52Z</time>
      </trkpt>
      <trkpt lat="45.06862" lon="6.0393">
        <ele>772</ele>
        <time>2021-12-29T08:55:54Z</time>
      </trkpt>
      <trkpt lat="45.06831" lon="6.03923">
        <ele>762</ele>
        <time>2021-12-29T08:55:59Z</time>
      </trkpt>
      <trkpt lat="45.06816" lon="6.03924">
        <ele>760</ele>
        <time>2021-12-29T08:56:02Z</time>
      </trkpt>
      <trkpt lat="45.0678" lon="6.0394">
        <ele>760</ele>
        <time>2021-12-29T08:56:08Z</time>
      </trkpt>
      <trkpt lat="45.06665" lon="6.03958">
        <ele>744</ele>
        <time>2021-12-29T08:56:29Z</time>
      </trkpt>
      <trkpt lat="45.06649" lon="6.03962">
        <ele>743</ele>
        <time>2021-12-29T08:56:32Z</time>
      </trkpt>
      <trkpt lat="45.06561" lon="6.03998">
        <ele>736</ele>
        <time>2021-12-29T08:56:48Z</time>
      </trkpt>
      <trkpt lat="45.06525" lon="6.0401">
        <ele>736</ele>
        <time>2021-12-29T08:56:55Z</time>
      </trkpt>
      <trkpt lat="45.06512" lon="6.0401">
        <ele>734</ele>
        <time>2021-12-29T08:56:57Z</time>
      </trkpt>
      <trkpt lat="45.06501" lon="6.04003">
        <ele>730</ele>
        <time>2021-12-29T08:56:59Z</time>
      </trkpt>
      <trkpt lat="45.06436" lon="6.03916">
        <ele>725</ele>
        <time>2021-12-29T08:57:15Z</time>
      </trkpt>
      <trkpt lat="45.06423" lon="6.03899">
        <ele>724</ele>
        <time>2021-12-29T08:57:18Z</time>
      </trkpt>
      <trkpt lat="45.06418" lon="6.03891">
        <ele>724</ele>
        <time>2021-12-29T08:57:20Z</time>
      </trkpt>
      <trkpt lat="45.06301" lon="6.03724">
        <ele>719</ele>
        <time>2021-12-29T08:57:49Z</time>
      </trkpt>
      <trkpt lat="45.06285" lon="6.03708">
        <ele>719</ele>
        <time>2021-12-29T08:57:53Z</time>
      </trkpt>
      <trkpt lat="45.06272" lon="6.03701">
        <ele>719</ele>
        <time>2021-12-29T08:57:55Z</time>
      </trkpt>
      <trkpt lat="45.06255" lon="6.03696">
        <ele>720</ele>
        <time>2021-12-29T08:57:58Z</time>
      </trkpt>
      <trkpt lat="45.06231" lon="6.03698">
        <ele>719</ele>
        <time>2021-12-29T08:58:03Z</time>
      </trkpt>
      <trkpt lat="45.06159" lon="6.03735">
        <ele>717</ele>
        <time>2021-12-29T08:58:16Z</time>
      </trkpt>
      <trkpt lat="45.06123" lon="6.03746">
        <ele>718</ele>
        <time>2021-12-29T08:58:23Z</time>
      </trkpt>
      <trkpt lat="45.06021" lon="6.0377">
        <ele>721</ele>
        <time>2021-12-29T08:58:41Z</time>
      </trkpt>
      <trkpt lat="45.05972" lon="6.03778">
        <ele>722</ele>
        <time>2021-12-29T08:58:50Z</time>
      </trkpt>
      <trkpt lat="45.05941" lon="6.0377">
        <ele>723</ele>
        <time>2021-12-29T08:58:56Z</time>
      </trkpt>
      <trkpt lat="45.05935" lon="6.03758">
        <ele>723</ele>
        <time>2021-12-29T08:58:57Z</time>
      </trkpt>
      <trkpt lat="45.05931" lon="6.03754">
        <ele>724</ele>
        <time>2021-12-29T08:58:58Z</time>
      </trkpt>
      <trkpt lat="45.05922" lon="6.03752">
        <ele>724</ele>
        <time>2021-12-29T08:59:00Z</time>
      </trkpt>
      <trkpt lat="45.05913" lon="6.03756">
        <ele>724</ele>
        <time>2021-12-29T08:59:02Z</time>
      </trkpt>
      <trkpt lat="45.05903" lon="6.03751">
        <ele>724</ele>
        <time>2021-12-29T08:59:03Z</time>
      </trkpt>
      <trkpt lat="45.0589" lon="6.03738">
        <ele>723</ele>
        <time>2021-12-29T08:59:06Z</time>
      </trkpt>
      <trkpt lat="45.05868" lon="6.03705">
        <ele>723</ele>
        <time>2021-12-29T08:59:12Z</time>
      </trkpt>
      <trkpt lat="45.05843" lon="6.03666">
        <ele>721</ele>
        <time>2021-12-29T08:59:19Z</time>
      </trkpt>
      <trkpt lat="45.05802" lon="6.03607">
        <ele>721</ele>
        <time>2021-12-29T08:59:29Z</time>
      </trkpt>
      <trkpt lat="45.05624" lon="6.03405">
        <ele>718</ele>
        <time>2021-12-29T09:00:10Z</time>
      </trkpt>
      <trkpt lat="45.05618" lon="6.03398">
        <ele>718</ele>
        <time>2021-12-29T09:00:11Z</time>
      </trkpt>
      <trkpt lat="45.0559" lon="6.03368">
        <ele>718</ele>
        <time>2021-12-29T09:00:17Z</time>
      </trkpt>
      <trkpt lat="45.05511" lon="6.03276">
        <ele>720</ele>
        <time>2021-12-29T09:00:35Z</time>
      </trkpt>
      <trkpt lat="45.05489" lon="6.0324">
        <ele>720</ele>
        <time>2021-12-29T09:00:41Z</time>
      </trkpt>
      <trkpt lat="45.05475" lon="6.03199">
        <ele>721</ele>
        <time>2021-12-29T09:00:47Z</time>
      </trkpt>
      <trkpt lat="45.05474" lon="6.03191">
        <ele>721</ele>
        <time>2021-12-29T09:00:48Z</time>
      </trkpt>
      <trkpt lat="45.05476" lon="6.03177">
        <ele>721</ele>
        <time>2021-12-29T09:00:50Z</time>
      </trkpt>
      <trkpt lat="45.05482" lon="6.03146">
        <ele>722</ele>
        <time>2021-12-29T09:00:54Z</time>
      </trkpt>
      <trkpt lat="45.05501" lon="6.03004">
        <ele>726</ele>
        <time>2021-12-29T09:01:12Z</time>
      </trkpt>
    </trkseg>
  </trk>
</gpx>